<?xml version="1.0" encoding="UTF-8"?>
<TrainingCenterDatabase xmlns="http://www.garmin.com/xmlschemas/TrainingCenterDatabase/v2" xmlns:xsi="http://www.w3.org/2001/XMLSchema-instance" xsi:schemaLocation="http://www.garmin.com/xmlschemas/TrainingCenterDatabase/v2 http://www.garmin.com/xmlschemas/TrainingCenterDatabasev2.xsd">
  <Activities>
    <Activity Sport="Other">
      <Id>2018-04-21T08:08:33.000Z</Id>
      <Lap StartTime="2018-04-21T08:08:33.000Z">
        <TotalTimeSeconds>26409</TotalTimeSeconds>
        <DistanceMeters>113010</DistanceMeters>
        <Track>
          <Trackpoint>
            <Time>2018-04-21T08:08:33.000Z</Time>
            <Position>
              <LatitudeDegrees>43.36233512498438358306884765625</LatitudeDegrees>
              <LongitudeDegrees>-8.4070648066699504852294921875</LongitudeDegrees>
            </Position>
            <AltitudeMeters>-17</AltitudeMeters>
            <DistanceMeters>0</DistanceMeters>
          </Trackpoint>
          <Trackpoint>
            <Time>2018-04-21T08:08:34.000Z</Time>
            <Position>
              <LatitudeDegrees>43.36230427958071231842041015625</LatitudeDegrees>
              <LongitudeDegrees>-8.4070242382586002349853515625</LongitudeDegrees>
            </Position>
            <AltitudeMeters>-16.6000003814697265625</AltitudeMeters>
            <DistanceMeters>4.7503853563098</DistanceMeters>
          </Trackpoint>
          <Trackpoint>
            <Time>2018-04-21T08:08:38.000Z</Time>
            <Position>
              <LatitudeDegrees>43.3622849173843860626220703125</LatitudeDegrees>
              <LongitudeDegrees>-8.40681561268866062164306640625</LongitudeDegrees>
            </Position>
            <AltitudeMeters>-17</AltitudeMeters>
            <DistanceMeters>21.769455014092</DistanceMeters>
          </Trackpoint>
          <Trackpoint>
            <Time>2018-04-21T08:08:40.000Z</Time>
            <Position>
              <LatitudeDegrees>43.3623097278177738189697265625</LatitudeDegrees>
              <LongitudeDegrees>-8.40666876174509525299072265625</LongitudeDegrees>
            </Position>
            <AltitudeMeters>-17.799999237060546875</AltitudeMeters>
            <DistanceMeters>33.969567719545</DistanceMeters>
          </Trackpoint>
          <Trackpoint>
            <Time>2018-04-21T08:08:43.000Z</Time>
            <Position>
              <LatitudeDegrees>43.3622966520488262176513671875</LatitudeDegrees>
              <LongitudeDegrees>-8.40637707151472568511962890625</LongitudeDegrees>
            </Position>
            <AltitudeMeters>-19.3999996185302734375</AltitudeMeters>
            <DistanceMeters>57.617667731485</DistanceMeters>
          </Trackpoint>
          <Trackpoint>
            <Time>2018-04-21T08:08:48.000Z</Time>
            <Position>
              <LatitudeDegrees>43.362262286245822906494140625</LatitudeDegrees>
              <LongitudeDegrees>-8.4058410488069057464599609375</LongitudeDegrees>
            </Position>
            <AltitudeMeters>-20.3999996185302734375</AltitudeMeters>
            <DistanceMeters>101.1607498521</DistanceMeters>
          </Trackpoint>
          <Trackpoint>
            <Time>2018-04-21T08:08:49.000Z</Time>
            <Position>
              <LatitudeDegrees>43.3622527308762073516845703125</LatitudeDegrees>
              <LongitudeDegrees>-8.4057471714913845062255859375</LongitudeDegrees>
            </Position>
            <AltitudeMeters>-20.799999237060546875</AltitudeMeters>
            <DistanceMeters>108.83147198947</DistanceMeters>
          </Trackpoint>
          <Trackpoint>
            <Time>2018-04-21T08:08:50.000Z</Time>
            <Position>
              <LatitudeDegrees>43.3622356317937374114990234375</LatitudeDegrees>
              <LongitudeDegrees>-8.4056663699448108673095703125</LongitudeDegrees>
            </Position>
            <AltitudeMeters>-21.3999996185302734375</AltitudeMeters>
            <DistanceMeters>115.64164618813</DistanceMeters>
          </Trackpoint>
          <Trackpoint>
            <Time>2018-04-21T08:08:51.000Z</Time>
            <Position>
              <LatitudeDegrees>43.36221325211226940155029296875</LatitudeDegrees>
              <LongitudeDegrees>-8.40559939853847026824951171875</LongitudeDegrees>
            </Position>
            <AltitudeMeters>-21.6000003814697265625</AltitudeMeters>
            <DistanceMeters>121.60641786769</DistanceMeters>
          </Trackpoint>
          <Trackpoint>
            <Time>2018-04-21T08:08:52.000Z</Time>
            <Position>
              <LatitudeDegrees>43.36218659766018390655517578125</LatitudeDegrees>
              <LongitudeDegrees>-8.40556369163095951080322265625</LongitudeDegrees>
            </Position>
            <AltitudeMeters>-22.200000762939453125</AltitudeMeters>
            <DistanceMeters>125.7463556801</DistanceMeters>
          </Trackpoint>
          <Trackpoint>
            <Time>2018-04-21T08:08:54.000Z</Time>
            <Position>
              <LatitudeDegrees>43.3621318638324737548828125</LatitudeDegrees>
              <LongitudeDegrees>-8.405512310564517974853515625</LongitudeDegrees>
            </Position>
            <AltitudeMeters>-22.6000003814697265625</AltitudeMeters>
            <DistanceMeters>133.12180010727</DistanceMeters>
          </Trackpoint>
          <Trackpoint>
            <Time>2018-04-21T08:08:55.000Z</Time>
            <Position>
              <LatitudeDegrees>43.362110070884227752685546875</LatitudeDegrees>
              <LongitudeDegrees>-8.4054772742092609405517578125</LongitudeDegrees>
            </Position>
            <AltitudeMeters>-22.799999237060546875</AltitudeMeters>
            <DistanceMeters>136.85333837943</DistanceMeters>
          </Trackpoint>
          <Trackpoint>
            <Time>2018-04-21T08:08:56.000Z</Time>
            <Position>
              <LatitudeDegrees>43.36209137924015522003173828125</LatitudeDegrees>
              <LongitudeDegrees>-8.4054380469024181365966796875</LongitudeDegrees>
            </Position>
            <AltitudeMeters>-23</AltitudeMeters>
            <DistanceMeters>140.64846313734</DistanceMeters>
          </Trackpoint>
          <Trackpoint>
            <Time>2018-04-21T08:08:57.000Z</Time>
            <Position>
              <LatitudeDegrees>43.3621088974177837371826171875</LatitudeDegrees>
              <LongitudeDegrees>-8.40539270080626010894775390625</LongitudeDegrees>
            </Position>
            <AltitudeMeters>-23</AltitudeMeters>
            <DistanceMeters>144.80364137189</DistanceMeters>
          </Trackpoint>
          <Trackpoint>
            <Time>2018-04-21T08:08:59.000Z</Time>
            <Position>
              <LatitudeDegrees>43.36215591989457607269287109375</LatitudeDegrees>
              <LongitudeDegrees>-8.40529396198689937591552734375</LongitudeDegrees>
            </Position>
            <AltitudeMeters>-23</AltitudeMeters>
            <DistanceMeters>154.35465347725</DistanceMeters>
          </Trackpoint>
          <Trackpoint>
            <Time>2018-04-21T08:09:02.000Z</Time>
            <Position>
              <LatitudeDegrees>43.36207059212028980255126953125</LatitudeDegrees>
              <LongitudeDegrees>-8.40514392592012882232666015625</LongitudeDegrees>
            </Position>
            <AltitudeMeters>-23.200000762939453125</AltitudeMeters>
            <DistanceMeters>169.76891218124</DistanceMeters>
          </Trackpoint>
          <Trackpoint>
            <Time>2018-04-21T08:09:04.000Z</Time>
            <Position>
              <LatitudeDegrees>43.36196221411228179931640625</LatitudeDegrees>
              <LongitudeDegrees>-8.40512297116219997406005859375</LongitudeDegrees>
            </Position>
            <AltitudeMeters>-23.200000762939453125</AltitudeMeters>
            <DistanceMeters>181.95013609869</DistanceMeters>
          </Trackpoint>
          <Trackpoint>
            <Time>2018-04-21T08:09:05.000Z</Time>
            <Position>
              <LatitudeDegrees>43.36190010420978069305419921875</LatitudeDegrees>
              <LongitudeDegrees>-8.40512833558022975921630859375</LongitudeDegrees>
            </Position>
            <AltitudeMeters>-23.3999996185302734375</AltitudeMeters>
            <DistanceMeters>188.87601265479</DistanceMeters>
          </Trackpoint>
          <Trackpoint>
            <Time>2018-04-21T08:09:09.000Z</Time>
            <Position>
              <LatitudeDegrees>43.3616398461163043975830078125</LatitudeDegrees>
              <LongitudeDegrees>-8.405129425227642059326171875</LongitudeDegrees>
            </Position>
            <AltitudeMeters>-22.799999237060546875</AltitudeMeters>
            <DistanceMeters>217.84342233325</DistanceMeters>
          </Trackpoint>
          <Trackpoint>
            <Time>2018-04-21T08:09:10.000Z</Time>
            <Position>
              <LatitudeDegrees>43.36157186888158321380615234375</LatitudeDegrees>
              <LongitudeDegrees>-8.40510897338390350341796875</LongitudeDegrees>
            </Position>
            <AltitudeMeters>-23</AltitudeMeters>
            <DistanceMeters>225.58795380653</DistanceMeters>
          </Trackpoint>
          <Trackpoint>
            <Time>2018-04-21T08:09:16.000Z</Time>
            <Position>
              <LatitudeDegrees>43.36113919503986835479736328125</LatitudeDegrees>
              <LongitudeDegrees>-8.404916189610958099365234375</LongitudeDegrees>
            </Position>
            <AltitudeMeters>-22.3999996185302734375</AltitudeMeters>
            <DistanceMeters>276.20928303615</DistanceMeters>
          </Trackpoint>
          <Trackpoint>
            <Time>2018-04-21T08:09:22.000Z</Time>
            <Position>
              <LatitudeDegrees>43.360711634159088134765625</LatitudeDegrees>
              <LongitudeDegrees>-8.4046313725411891937255859375</LongitudeDegrees>
            </Position>
            <AltitudeMeters>-22.3999996185302734375</AltitudeMeters>
            <DistanceMeters>329.08513904139</DistanceMeters>
          </Trackpoint>
          <Trackpoint>
            <Time>2018-04-21T08:09:27.000Z</Time>
            <Position>
              <LatitudeDegrees>43.36038297973573207855224609375</LatitudeDegrees>
              <LongitudeDegrees>-8.4042917378246784210205078125</LongitudeDegrees>
            </Position>
            <AltitudeMeters>-22.200000762939453125</AltitudeMeters>
            <DistanceMeters>374.839391872</DistanceMeters>
          </Trackpoint>
          <Trackpoint>
            <Time>2018-04-21T08:09:34.000Z</Time>
            <Position>
              <LatitudeDegrees>43.35995080880820751190185546875</LatitudeDegrees>
              <LongitudeDegrees>-8.40378102846443653106689453125</LongitudeDegrees>
            </Position>
            <AltitudeMeters>-22.3999996185302734375</AltitudeMeters>
            <DistanceMeters>438.25653605205</DistanceMeters>
          </Trackpoint>
          <Trackpoint>
            <Time>2018-04-21T08:09:36.000Z</Time>
            <Position>
              <LatitudeDegrees>43.359824158251285552978515625</LatitudeDegrees>
              <LongitudeDegrees>-8.403626382350921630859375</LongitudeDegrees>
            </Position>
            <AltitudeMeters>-22.200000762939453125</AltitudeMeters>
            <DistanceMeters>457.10634899322</DistanceMeters>
          </Trackpoint>
          <Trackpoint>
            <Time>2018-04-21T08:09:43.000Z</Time>
            <Position>
              <LatitudeDegrees>43.35938938893377780914306640625</LatitudeDegrees>
              <LongitudeDegrees>-8.40312506072223186492919921875</LongitudeDegrees>
            </Position>
            <AltitudeMeters>-22.200000762939453125</AltitudeMeters>
            <DistanceMeters>520.25272684538</DistanceMeters>
          </Trackpoint>
          <Trackpoint>
            <Time>2018-04-21T08:09:48.000Z</Time>
            <Position>
              <LatitudeDegrees>43.35906467400491237640380859375</LatitudeDegrees>
              <LongitudeDegrees>-8.40277411043643951416015625</LongitudeDegrees>
            </Position>
            <AltitudeMeters>-22</AltitudeMeters>
            <DistanceMeters>566.21757195119</DistanceMeters>
          </Trackpoint>
          <Trackpoint>
            <Time>2018-04-21T08:09:53.000Z</Time>
            <Position>
              <LatitudeDegrees>43.35881874896585941314697265625</LatitudeDegrees>
              <LongitudeDegrees>-8.40235895477235317230224609375</LongitudeDegrees>
            </Position>
            <AltitudeMeters>-22</AltitudeMeters>
            <DistanceMeters>609.55246271424</DistanceMeters>
          </Trackpoint>
          <Trackpoint>
            <Time>2018-04-21T08:09:58.000Z</Time>
            <Position>
              <LatitudeDegrees>43.35868597961962223052978515625</LatitudeDegrees>
              <LongitudeDegrees>-8.4018341638147830963134765625</LongitudeDegrees>
            </Position>
            <AltitudeMeters>-22</AltitudeMeters>
            <DistanceMeters>654.51837698995</DistanceMeters>
          </Trackpoint>
          <Trackpoint>
            <Time>2018-04-21T08:10:04.000Z</Time>
            <Position>
              <LatitudeDegrees>43.35853560827672481536865234375</LatitudeDegrees>
              <LongitudeDegrees>-8.4012082032859325408935546875</LongitudeDegrees>
            </Position>
            <AltitudeMeters>-22.200000762939453125</AltitudeMeters>
            <DistanceMeters>707.86713952054</DistanceMeters>
          </Trackpoint>
          <Trackpoint>
            <Time>2018-04-21T08:10:05.000Z</Time>
            <Position>
              <LatitudeDegrees>43.35848766379058361053466796875</LatitudeDegrees>
              <LongitudeDegrees>-8.401120863854885101318359375</LongitudeDegrees>
            </Position>
            <AltitudeMeters>-22.200000762939453125</AltitudeMeters>
            <DistanceMeters>716.7229971253</DistanceMeters>
          </Trackpoint>
          <Trackpoint>
            <Time>2018-04-21T08:10:08.000Z</Time>
            <Position>
              <LatitudeDegrees>43.3583373762667179107666015625</LatitudeDegrees>
              <LongitudeDegrees>-8.40088038705289363861083984375</LongitudeDegrees>
            </Position>
            <AltitudeMeters>-22</AltitudeMeters>
            <DistanceMeters>742.38443306719</DistanceMeters>
          </Trackpoint>
          <Trackpoint>
            <Time>2018-04-21T08:10:10.000Z</Time>
            <Position>
              <LatitudeDegrees>43.35825481452047824859619140625</LatitudeDegrees>
              <LongitudeDegrees>-8.4007213823497295379638671875</LongitudeDegrees>
            </Position>
            <AltitudeMeters>-22</AltitudeMeters>
            <DistanceMeters>758.19603312625</DistanceMeters>
          </Trackpoint>
          <Trackpoint>
            <Time>2018-04-21T08:10:13.000Z</Time>
            <Position>
              <LatitudeDegrees>43.35813528858125209808349609375</LatitudeDegrees>
              <LongitudeDegrees>-8.40046196244657039642333984375</LongitudeDegrees>
            </Position>
            <AltitudeMeters>-22</AltitudeMeters>
            <DistanceMeters>783.04983382606</DistanceMeters>
          </Trackpoint>
          <Trackpoint>
            <Time>2018-04-21T08:10:19.000Z</Time>
            <Position>
              <LatitudeDegrees>43.3578398264944553375244140625</LatitudeDegrees>
              <LongitudeDegrees>-8.40002057142555713653564453125</LongitudeDegrees>
            </Position>
            <AltitudeMeters>-22</AltitudeMeters>
            <DistanceMeters>831.60244071965</DistanceMeters>
          </Trackpoint>
          <Trackpoint>
            <Time>2018-04-21T08:10:21.000Z</Time>
            <Position>
              <LatitudeDegrees>43.35774385370314121246337890625</LatitudeDegrees>
              <LongitudeDegrees>-8.399885036051273345947265625</LongitudeDegrees>
            </Position>
            <AltitudeMeters>-21.6000003814697265625</AltitudeMeters>
            <DistanceMeters>846.91265705817</DistanceMeters>
          </Trackpoint>
          <Trackpoint>
            <Time>2018-04-21T08:10:25.000Z</Time>
            <Position>
              <LatitudeDegrees>43.35761837661266326904296875</LatitudeDegrees>
              <LongitudeDegrees>-8.39958169497549533843994140625</LongitudeDegrees>
            </Position>
            <AltitudeMeters>-22.3999996185302734375</AltitudeMeters>
            <DistanceMeters>875.15526162023</DistanceMeters>
          </Trackpoint>
          <Trackpoint>
            <Time>2018-04-21T08:10:27.000Z</Time>
            <Position>
              <LatitudeDegrees>43.3577114157378673553466796875</LatitudeDegrees>
              <LongitudeDegrees>-8.39943668805062770843505859375</LongitudeDegrees>
            </Position>
            <AltitudeMeters>-21.799999237060546875</AltitudeMeters>
            <DistanceMeters>890.80555853326</DistanceMeters>
          </Trackpoint>
          <Trackpoint>
            <Time>2018-04-21T08:10:29.000Z</Time>
            <Position>
              <LatitudeDegrees>43.35793429054319858551025390625</LatitudeDegrees>
              <LongitudeDegrees>-8.39930525980889797210693359375</LongitudeDegrees>
            </Position>
            <AltitudeMeters>-22.200000762939453125</AltitudeMeters>
            <DistanceMeters>917.79582209047</DistanceMeters>
          </Trackpoint>
          <Trackpoint>
            <Time>2018-04-21T08:10:31.000Z</Time>
            <Position>
              <LatitudeDegrees>43.35806823335587978363037109375</LatitudeDegrees>
              <LongitudeDegrees>-8.3991784416139125823974609375</LongitudeDegrees>
            </Position>
            <AltitudeMeters>-22.6000003814697265625</AltitudeMeters>
            <DistanceMeters>935.89510614144</DistanceMeters>
          </Trackpoint>
          <Trackpoint>
            <Time>2018-04-21T08:10:32.000Z</Time>
            <Position>
              <LatitudeDegrees>43.35813872516155242919921875</LatitudeDegrees>
              <LongitudeDegrees>-8.39911499060690402984619140625</LongitudeDegrees>
            </Position>
            <AltitudeMeters>-22.6000003814697265625</AltitudeMeters>
            <DistanceMeters>945.2715033311</DistanceMeters>
          </Trackpoint>
          <Trackpoint>
            <Time>2018-04-21T08:10:38.000Z</Time>
            <Position>
              <LatitudeDegrees>43.35847743786871433258056640625</LatitudeDegrees>
              <LongitudeDegrees>-8.39870654046535491943359375</LongitudeDegrees>
            </Position>
            <AltitudeMeters>-22.3999996185302734375</AltitudeMeters>
            <DistanceMeters>995.40924042085</DistanceMeters>
          </Trackpoint>
          <Trackpoint>
            <Time>2018-04-21T08:10:39.000Z</Time>
            <Position>
              <LatitudeDegrees>43.35851599462330341339111328125</LatitudeDegrees>
              <LongitudeDegrees>-8.398623056709766387939453125</LongitudeDegrees>
            </Position>
            <AltitudeMeters>-22.3999996185302734375</AltitudeMeters>
            <DistanceMeters>1003.4129497043</DistanceMeters>
          </Trackpoint>
          <Trackpoint>
            <Time>2018-04-21T08:10:42.000Z</Time>
            <Position>
              <LatitudeDegrees>43.3585833013057708740234375</LatitudeDegrees>
              <LongitudeDegrees>-8.39834938757121562957763671875</LongitudeDegrees>
            </Position>
            <AltitudeMeters>-22.3999996185302734375</AltitudeMeters>
            <DistanceMeters>1026.7922252951</DistanceMeters>
          </Trackpoint>
          <Trackpoint>
            <Time>2018-04-21T08:10:45.000Z</Time>
            <Position>
              <LatitudeDegrees>43.3585536293685436248779296875</LatitudeDegrees>
              <LongitudeDegrees>-8.39808384887874126434326171875</LongitudeDegrees>
            </Position>
            <AltitudeMeters>-22.3999996185302734375</AltitudeMeters>
            <DistanceMeters>1048.5332078254</DistanceMeters>
          </Trackpoint>
          <Trackpoint>
            <Time>2018-04-21T08:10:46.000Z</Time>
            <Position>
              <LatitudeDegrees>43.35853661410510540008544921875</LatitudeDegrees>
              <LongitudeDegrees>-8.39799751527607440948486328125</LongitudeDegrees>
            </Position>
            <AltitudeMeters>-22.200000762939453125</AltitudeMeters>
            <DistanceMeters>1055.7714744361</DistanceMeters>
          </Trackpoint>
          <Trackpoint>
            <Time>2018-04-21T08:10:47.000Z</Time>
            <Position>
              <LatitudeDegrees>43.35850694216787815093994140625</LatitudeDegrees>
              <LongitudeDegrees>-8.39791721664369106292724609375</LongitudeDegrees>
            </Position>
            <AltitudeMeters>-22.200000762939453125</AltitudeMeters>
            <DistanceMeters>1063.0607110077</DistanceMeters>
          </Trackpoint>
          <Trackpoint>
            <Time>2018-04-21T08:10:50.000Z</Time>
            <Position>
              <LatitudeDegrees>43.3583940379321575164794921875</LatitudeDegrees>
              <LongitudeDegrees>-8.397670201957225799560546875</LongitudeDegrees>
            </Position>
            <AltitudeMeters>-22.200000762939453125</AltitudeMeters>
            <DistanceMeters>1086.6721247624</DistanceMeters>
          </Trackpoint>
          <Trackpoint>
            <Time>2018-04-21T08:10:57.000Z</Time>
            <Position>
              <LatitudeDegrees>43.35812288336455821990966796875</LatitudeDegrees>
              <LongitudeDegrees>-8.3970963768661022186279296875</LongitudeDegrees>
            </Position>
            <AltitudeMeters>-22</AltitudeMeters>
            <DistanceMeters>1142.0545221955</DistanceMeters>
          </Trackpoint>
          <Trackpoint>
            <Time>2018-04-21T08:11:06.000Z</Time>
            <Position>
              <LatitudeDegrees>43.35780856199562549591064453125</LatitudeDegrees>
              <LongitudeDegrees>-8.39637838304042816162109375</LongitudeDegrees>
            </Position>
            <AltitudeMeters>-22.6000003814697265625</AltitudeMeters>
            <DistanceMeters>1209.8776386165</DistanceMeters>
          </Trackpoint>
          <Trackpoint>
            <Time>2018-04-21T08:11:07.000Z</Time>
            <Position>
              <LatitudeDegrees>43.3577761240303516387939453125</LatitudeDegrees>
              <LongitudeDegrees>-8.39629598893225193023681640625</LongitudeDegrees>
            </Position>
            <AltitudeMeters>-22.799999237060546875</AltitudeMeters>
            <DistanceMeters>1217.4601511762</DistanceMeters>
          </Trackpoint>
          <Trackpoint>
            <Time>2018-04-21T08:11:11.000Z</Time>
            <Position>
              <LatitudeDegrees>43.35763187147676944732666015625</LatitudeDegrees>
              <LongitudeDegrees>-8.3959607966244220733642578125</LongitudeDegrees>
            </Position>
            <AltitudeMeters>-21.6000003814697265625</AltitudeMeters>
            <DistanceMeters>1248.9812442907</DistanceMeters>
          </Trackpoint>
          <Trackpoint>
            <Time>2018-04-21T08:11:12.000Z</Time>
            <Position>
              <LatitudeDegrees>43.35759934969246387481689453125</LatitudeDegrees>
              <LongitudeDegrees>-8.3958776481449604034423828125</LongitudeDegrees>
            </Position>
            <AltitudeMeters>-20.6000003814697265625</AltitudeMeters>
            <DistanceMeters>1256.622479419</DistanceMeters>
          </Trackpoint>
          <Trackpoint>
            <Time>2018-04-21T08:11:13.000Z</Time>
            <Position>
              <LatitudeDegrees>43.3575645647943019866943359375</LatitudeDegrees>
              <LongitudeDegrees>-8.3957956731319427490234375</LongitudeDegrees>
            </Position>
            <AltitudeMeters>-20.6000003814697265625</AltitudeMeters>
            <DistanceMeters>1264.3037891696</DistanceMeters>
          </Trackpoint>
          <Trackpoint>
            <Time>2018-04-21T08:11:15.000Z</Time>
            <Position>
              <LatitudeDegrees>43.357496000826358795166015625</LatitudeDegrees>
              <LongitudeDegrees>-8.39563331566751003265380859375</LongitudeDegrees>
            </Position>
            <AltitudeMeters>-22.6000003814697265625</AltitudeMeters>
            <DistanceMeters>1279.4985578259</DistanceMeters>
          </Trackpoint>
          <Trackpoint>
            <Time>2018-04-21T08:11:24.000Z</Time>
            <Position>
              <LatitudeDegrees>43.3571873791515827178955078125</LatitudeDegrees>
              <LongitudeDegrees>-8.3949097059667110443115234375</LongitudeDegrees>
            </Position>
            <AltitudeMeters>-22</AltitudeMeters>
            <DistanceMeters>1347.3888109421</DistanceMeters>
          </Trackpoint>
          <Trackpoint>
            <Time>2018-04-21T08:11:25.000Z</Time>
            <Position>
              <LatitudeDegrees>43.35715225897729396820068359375</LatitudeDegrees>
              <LongitudeDegrees>-8.39483049698173999786376953125</LongitudeDegrees>
            </Position>
            <AltitudeMeters>-22</AltitudeMeters>
            <DistanceMeters>1354.8965227882</DistanceMeters>
          </Trackpoint>
          <Trackpoint>
            <Time>2018-04-21T08:11:34.000Z</Time>
            <Position>
              <LatitudeDegrees>43.356843888759613037109375</LatitudeDegrees>
              <LongitudeDegrees>-8.39410923421382904052734375</LongitudeDegrees>
            </Position>
            <AltitudeMeters>-21.6000003814697265625</AltitudeMeters>
            <DistanceMeters>1422.609108208</DistanceMeters>
          </Trackpoint>
          <Trackpoint>
            <Time>2018-04-21T08:11:35.000Z</Time>
            <Position>
              <LatitudeDegrees>43.35680969059467315673828125</LatitudeDegrees>
              <LongitudeDegrees>-8.39402399025857448577880859375</LongitudeDegrees>
            </Position>
            <AltitudeMeters>-22</AltitudeMeters>
            <DistanceMeters>1430.4877340701</DistanceMeters>
          </Trackpoint>
          <Trackpoint>
            <Time>2018-04-21T08:11:38.000Z</Time>
            <Position>
              <LatitudeDegrees>43.35670114494860172271728515625</LatitudeDegrees>
              <LongitudeDegrees>-8.39377236552536487579345703125</LongitudeDegrees>
            </Position>
            <AltitudeMeters>-21.3999996185302734375</AltitudeMeters>
            <DistanceMeters>1454.1652184371</DistanceMeters>
          </Trackpoint>
          <Trackpoint>
            <Time>2018-04-21T08:11:45.000Z</Time>
            <Position>
              <LatitudeDegrees>43.35645806975662708282470703125</LatitudeDegrees>
              <LongitudeDegrees>-8.39318563230335712432861328125</LongitudeDegrees>
            </Position>
            <AltitudeMeters>-21.3999996185302734375</AltitudeMeters>
            <DistanceMeters>1508.814750574</DistanceMeters>
          </Trackpoint>
          <Trackpoint>
            <Time>2018-04-21T08:11:47.000Z</Time>
            <Position>
              <LatitudeDegrees>43.35638984106481075286865234375</LatitudeDegrees>
              <LongitudeDegrees>-8.3930234424769878387451171875</LongitudeDegrees>
            </Position>
            <AltitudeMeters>-21.200000762939453125</AltitudeMeters>
            <DistanceMeters>1523.9791802277</DistanceMeters>
          </Trackpoint>
          <Trackpoint>
            <Time>2018-04-21T08:11:56.000Z</Time>
            <Position>
              <LatitudeDegrees>43.3560903556644916534423828125</LatitudeDegrees>
              <LongitudeDegrees>-8.3923039399087429046630859375</LongitudeDegrees>
            </Position>
            <AltitudeMeters>-21.200000762939453125</AltitudeMeters>
            <DistanceMeters>1591.0728859531</DistanceMeters>
          </Trackpoint>
          <Trackpoint>
            <Time>2018-04-21T08:12:04.000Z</Time>
            <Position>
              <LatitudeDegrees>43.35583529435098171234130859375</LatitudeDegrees>
              <LongitudeDegrees>-8.3916732855141162872314453125</LongitudeDegrees>
            </Position>
            <AltitudeMeters>-21.200000762939453125</AltitudeMeters>
            <DistanceMeters>1649.4745914397</DistanceMeters>
          </Trackpoint>
          <Trackpoint>
            <Time>2018-04-21T08:12:09.000Z</Time>
            <Position>
              <LatitudeDegrees>43.35568374954164028167724609375</LatitudeDegrees>
              <LongitudeDegrees>-8.3912843652069568634033203125</LongitudeDegrees>
            </Position>
            <AltitudeMeters>-21.200000762939453125</AltitudeMeters>
            <DistanceMeters>1685.1839061182</DistanceMeters>
          </Trackpoint>
          <Trackpoint>
            <Time>2018-04-21T08:12:16.000Z</Time>
            <Position>
              <LatitudeDegrees>43.3554657362401485443115234375</LatitudeDegrees>
              <LongitudeDegrees>-8.39075622148811817169189453125</LongitudeDegrees>
            </Position>
            <AltitudeMeters>-21.200000762939453125</AltitudeMeters>
            <DistanceMeters>1734.3332991944</DistanceMeters>
          </Trackpoint>
          <Trackpoint>
            <Time>2018-04-21T08:12:25.000Z</Time>
            <Position>
              <LatitudeDegrees>43.35515719838440418243408203125</LatitudeDegrees>
              <LongitudeDegrees>-8.3900827355682849884033203125</LongitudeDegrees>
            </Position>
            <AltitudeMeters>-21</AltitudeMeters>
            <DistanceMeters>1798.7539827673</DistanceMeters>
          </Trackpoint>
          <Trackpoint>
            <Time>2018-04-21T08:12:34.000Z</Time>
            <Position>
              <LatitudeDegrees>43.35485192947089672088623046875</LatitudeDegrees>
              <LongitudeDegrees>-8.3893494866788387298583984375</LongitudeDegrees>
            </Position>
            <AltitudeMeters>-21.200000762939453125</AltitudeMeters>
            <DistanceMeters>1867.1340073592</DistanceMeters>
          </Trackpoint>
          <Trackpoint>
            <Time>2018-04-21T08:12:43.000Z</Time>
            <Position>
              <LatitudeDegrees>43.35453023202717304229736328125</LatitudeDegrees>
              <LongitudeDegrees>-8.3886085264384746551513671875</LongitudeDegrees>
            </Position>
            <AltitudeMeters>-21</AltitudeMeters>
            <DistanceMeters>1936.9759919662</DistanceMeters>
          </Trackpoint>
          <Trackpoint>
            <Time>2018-04-21T08:12:44.000Z</Time>
            <Position>
              <LatitudeDegrees>43.3544890768826007843017578125</LatitudeDegrees>
              <LongitudeDegrees>-8.3885295689105987548828125</LongitudeDegrees>
            </Position>
            <AltitudeMeters>-21.200000762939453125</AltitudeMeters>
            <DistanceMeters>1944.8379811076</DistanceMeters>
          </Trackpoint>
          <Trackpoint>
            <Time>2018-04-21T08:12:49.000Z</Time>
            <Position>
              <LatitudeDegrees>43.35424725897610187530517578125</LatitudeDegrees>
              <LongitudeDegrees>-8.38818616233766078948974609375</LongitudeDegrees>
            </Position>
            <AltitudeMeters>-21.200000762939453125</AltitudeMeters>
            <DistanceMeters>1983.5265764711</DistanceMeters>
          </Trackpoint>
          <Trackpoint>
            <Time>2018-04-21T08:12:57.000Z</Time>
            <Position>
              <LatitudeDegrees>43.3537930436432361602783203125</LatitudeDegrees>
              <LongitudeDegrees>-8.38773571886122226715087890625</LongitudeDegrees>
            </Position>
            <AltitudeMeters>-21.200000762939453125</AltitudeMeters>
            <DistanceMeters>2045.85439487</DistanceMeters>
          </Trackpoint>
          <Trackpoint>
            <Time>2018-04-21T08:12:58.000Z</Time>
            <Position>
              <LatitudeDegrees>43.353732191026210784912109375</LatitudeDegrees>
              <LongitudeDegrees>-8.3876848407089710235595703125</LongitudeDegrees>
            </Position>
            <AltitudeMeters>-21.200000762939453125</AltitudeMeters>
            <DistanceMeters>2053.7810128056</DistanceMeters>
          </Trackpoint>
          <Trackpoint>
            <Time>2018-04-21T08:13:05.000Z</Time>
            <Position>
              <LatitudeDegrees>43.3532934822142124176025390625</LatitudeDegrees>
              <LongitudeDegrees>-8.3873706869781017303466796875</LongitudeDegrees>
            </Position>
            <AltitudeMeters>-21</AltitudeMeters>
            <DistanceMeters>2108.8329008427</DistanceMeters>
          </Trackpoint>
          <Trackpoint>
            <Time>2018-04-21T08:13:12.000Z</Time>
            <Position>
              <LatitudeDegrees>43.35283465683460235595703125</LatitudeDegrees>
              <LongitudeDegrees>-8.3871589601039886474609375</LongitudeDegrees>
            </Position>
            <AltitudeMeters>-21.3999996185302734375</AltitudeMeters>
            <DistanceMeters>2162.6991356584</DistanceMeters>
          </Trackpoint>
          <Trackpoint>
            <Time>2018-04-21T08:13:17.000Z</Time>
            <Position>
              <LatitudeDegrees>43.352488316595554351806640625</LatitudeDegrees>
              <LongitudeDegrees>-8.38705041445791721343994140625</LongitudeDegrees>
            </Position>
            <AltitudeMeters>-21.799999237060546875</AltitudeMeters>
            <DistanceMeters>2202.2357307667</DistanceMeters>
          </Trackpoint>
          <Trackpoint>
            <Time>2018-04-21T08:13:18.000Z</Time>
            <Position>
              <LatitudeDegrees>43.3524200879037380218505859375</LatitudeDegrees>
              <LongitudeDegrees>-8.38703222572803497314453125</LongitudeDegrees>
            </Position>
            <AltitudeMeters>-21.3999996185302734375</AltitudeMeters>
            <DistanceMeters>2209.9709286645</DistanceMeters>
          </Trackpoint>
          <Trackpoint>
            <Time>2018-04-21T08:13:24.000Z</Time>
            <Position>
              <LatitudeDegrees>43.3520254679024219512939453125</LatitudeDegrees>
              <LongitudeDegrees>-8.38697589933872222900390625</LongitudeDegrees>
            </Position>
            <AltitudeMeters>-21.6000003814697265625</AltitudeMeters>
            <DistanceMeters>2254.1287089181</DistanceMeters>
          </Trackpoint>
          <Trackpoint>
            <Time>2018-04-21T08:13:28.000Z</Time>
            <Position>
              <LatitudeDegrees>43.3517968095839023590087890625</LatitudeDegrees>
              <LongitudeDegrees>-8.38681362569332122802734375</LongitudeDegrees>
            </Position>
            <AltitudeMeters>-21.3999996185302734375</AltitudeMeters>
            <DistanceMeters>2282.7675598597</DistanceMeters>
          </Trackpoint>
          <Trackpoint>
            <Time>2018-04-21T08:13:31.000Z</Time>
            <Position>
              <LatitudeDegrees>43.3515946380794048309326171875</LatitudeDegrees>
              <LongitudeDegrees>-8.3867968618869781494140625</LongitudeDegrees>
            </Position>
            <AltitudeMeters>-21.799999237060546875</AltitudeMeters>
            <DistanceMeters>2305.3103321373</DistanceMeters>
          </Trackpoint>
          <Trackpoint>
            <Time>2018-04-21T08:13:34.000Z</Time>
            <Position>
              <LatitudeDegrees>43.35143052041530609130859375</LatitudeDegrees>
              <LongitudeDegrees>-8.38694505393505096435546875</LongitudeDegrees>
            </Position>
            <AltitudeMeters>-21.3999996185302734375</AltitudeMeters>
            <DistanceMeters>2327.1627576894</DistanceMeters>
          </Trackpoint>
          <Trackpoint>
            <Time>2018-04-21T08:13:35.000Z</Time>
            <Position>
              <LatitudeDegrees>43.3513757027685642242431640625</LatitudeDegrees>
              <LongitudeDegrees>-8.3869941718876361846923828125</LongitudeDegrees>
            </Position>
            <AltitudeMeters>-21.6000003814697265625</AltitudeMeters>
            <DistanceMeters>2334.4451775452</DistanceMeters>
          </Trackpoint>
          <Trackpoint>
            <Time>2018-04-21T08:13:38.000Z</Time>
            <Position>
              <LatitudeDegrees>43.3511909656226634979248046875</LatitudeDegrees>
              <LongitudeDegrees>-8.3870830200612545013427734375</LongitudeDegrees>
            </Position>
            <AltitudeMeters>-21.799999237060546875</AltitudeMeters>
            <DistanceMeters>2356.2280698422</DistanceMeters>
          </Trackpoint>
          <Trackpoint>
            <Time>2018-04-21T08:13:45.000Z</Time>
            <Position>
              <LatitudeDegrees>43.3507624827325344085693359375</LatitudeDegrees>
              <LongitudeDegrees>-8.38724202476441860198974609375</LongitudeDegrees>
            </Position>
            <AltitudeMeters>-21.6000003814697265625</AltitudeMeters>
            <DistanceMeters>2405.6247804218</DistanceMeters>
          </Trackpoint>
          <Trackpoint>
            <Time>2018-04-21T08:13:47.000Z</Time>
            <Position>
              <LatitudeDegrees>43.3506387658417224884033203125</LatitudeDegrees>
              <LongitudeDegrees>-8.3872885443270206451416015625</LongitudeDegrees>
            </Position>
            <AltitudeMeters>-21.6000003814697265625</AltitudeMeters>
            <DistanceMeters>2419.9003107162</DistanceMeters>
          </Trackpoint>
          <Trackpoint>
            <Time>2018-04-21T08:13:56.000Z</Time>
            <Position>
              <LatitudeDegrees>43.3500718139111995697021484375</LatitudeDegrees>
              <LongitudeDegrees>-8.3875156939029693603515625</LongitudeDegrees>
            </Position>
            <AltitudeMeters>-21.3999996185302734375</AltitudeMeters>
            <DistanceMeters>2485.6267245892</DistanceMeters>
          </Trackpoint>
          <Trackpoint>
            <Time>2018-04-21T08:14:04.000Z</Time>
            <Position>
              <LatitudeDegrees>43.34956143982708454132080078125</LatitudeDegrees>
              <LongitudeDegrees>-8.3877289295196533203125</LongitudeDegrees>
            </Position>
            <AltitudeMeters>-21.3999996185302734375</AltitudeMeters>
            <DistanceMeters>2544.9962186802</DistanceMeters>
          </Trackpoint>
          <Trackpoint>
            <Time>2018-04-21T08:14:06.000Z</Time>
            <Position>
              <LatitudeDegrees>43.34943168796598911285400390625</LatitudeDegrees>
              <LongitudeDegrees>-8.3877793885767459869384765625</LongitudeDegrees>
            </Position>
            <AltitudeMeters>-21.3999996185302734375</AltitudeMeters>
            <DistanceMeters>2560.0038223085</DistanceMeters>
          </Trackpoint>
          <Trackpoint>
            <Time>2018-04-21T08:14:09.000Z</Time>
            <Position>
              <LatitudeDegrees>43.3492309413850307464599609375</LatitudeDegrees>
              <LongitudeDegrees>-8.38783496059477329254150390625</LongitudeDegrees>
            </Position>
            <AltitudeMeters>-21.200000762939453125</AltitudeMeters>
            <DistanceMeters>2582.7953809968</DistanceMeters>
          </Trackpoint>
          <Trackpoint>
            <Time>2018-04-21T08:14:12.000Z</Time>
            <Position>
              <LatitudeDegrees>43.349032290279865264892578125</LatitudeDegrees>
              <LongitudeDegrees>-8.3878508023917675018310546875</LongitudeDegrees>
            </Position>
            <AltitudeMeters>-21</AltitudeMeters>
            <DistanceMeters>2604.9427221997</DistanceMeters>
          </Trackpoint>
          <Trackpoint>
            <Time>2018-04-21T08:14:20.000Z</Time>
            <Position>
              <LatitudeDegrees>43.34851521067321300506591796875</LatitudeDegrees>
              <LongitudeDegrees>-8.38776857592165470123291015625</LongitudeDegrees>
            </Position>
            <AltitudeMeters>-21</AltitudeMeters>
            <DistanceMeters>2662.878165018</DistanceMeters>
          </Trackpoint>
          <Trackpoint>
            <Time>2018-04-21T08:14:23.000Z</Time>
            <Position>
              <LatitudeDegrees>43.3483828604221343994140625</LatitudeDegrees>
              <LongitudeDegrees>-8.38766681961715221405029296875</LongitudeDegrees>
            </Position>
            <AltitudeMeters>-21.200000762939453125</AltitudeMeters>
            <DistanceMeters>2679.7549736972</DistanceMeters>
          </Trackpoint>
          <Trackpoint>
            <Time>2018-04-21T08:14:24.000Z</Time>
            <Position>
              <LatitudeDegrees>43.34833634085953235626220703125</LatitudeDegrees>
              <LongitudeDegrees>-8.38766028173267841339111328125</LongitudeDegrees>
            </Position>
            <AltitudeMeters>-21.3999996185302734375</AltitudeMeters>
            <DistanceMeters>2684.9598011998</DistanceMeters>
          </Trackpoint>
          <Trackpoint>
            <Time>2018-04-21T08:14:27.000Z</Time>
            <Position>
              <LatitudeDegrees>43.34821614436805248260498046875</LatitudeDegrees>
              <LongitudeDegrees>-8.38769339025020599365234375</LongitudeDegrees>
            </Position>
            <AltitudeMeters>-20.6000003814697265625</AltitudeMeters>
            <DistanceMeters>2698.6033343132</DistanceMeters>
          </Trackpoint>
          <Trackpoint>
            <Time>2018-04-21T08:14:29.000Z</Time>
            <Position>
              <LatitudeDegrees>43.34817239083349704742431640625</LatitudeDegrees>
              <LongitudeDegrees>-8.3877130039036273956298828125</LongitudeDegrees>
            </Position>
            <AltitudeMeters>-20</AltitudeMeters>
            <DistanceMeters>2703.7242074802</DistanceMeters>
          </Trackpoint>
          <Trackpoint>
            <Time>2018-04-21T08:14:31.000Z</Time>
            <Position>
              <LatitudeDegrees>43.34814523346722126007080078125</LatitudeDegrees>
              <LongitudeDegrees>-8.38771476410329341888427734375</LongitudeDegrees>
            </Position>
            <AltitudeMeters>-19.3999996185302734375</AltitudeMeters>
            <DistanceMeters>2706.7501779881</DistanceMeters>
          </Trackpoint>
          <Trackpoint>
            <Time>2018-04-21T08:14:33.000Z</Time>
            <Position>
              <LatitudeDegrees>43.34811019711196422576904296875</LatitudeDegrees>
              <LongitudeDegrees>-8.387707136571407318115234375</LongitudeDegrees>
            </Position>
            <AltitudeMeters>-18.799999237060546875</AltitudeMeters>
            <DistanceMeters>2710.6992211657</DistanceMeters>
          </Trackpoint>
          <Trackpoint>
            <Time>2018-04-21T08:14:36.000Z</Time>
            <Position>
              <LatitudeDegrees>43.3480283059179782867431640625</LatitudeDegrees>
              <LongitudeDegrees>-8.3876871876418590545654296875</LongitudeDegrees>
            </Position>
            <AltitudeMeters>-18.200000762939453125</AltitudeMeters>
            <DistanceMeters>2719.9564035368</DistanceMeters>
          </Trackpoint>
          <Trackpoint>
            <Time>2018-04-21T08:14:40.000Z</Time>
            <Position>
              <LatitudeDegrees>43.3479176647961139678955078125</LatitudeDegrees>
              <LongitudeDegrees>-8.3876432664692401885986328125</LongitudeDegrees>
            </Position>
            <AltitudeMeters>-17.6000003814697265625</AltitudeMeters>
            <DistanceMeters>2732.7733903383</DistanceMeters>
          </Trackpoint>
          <Trackpoint>
            <Time>2018-04-21T08:14:41.000Z</Time>
            <Position>
              <LatitudeDegrees>43.34789863787591457366943359375</LatitudeDegrees>
              <LongitudeDegrees>-8.38763748295605182647705078125</LongitudeDegrees>
            </Position>
            <AltitudeMeters>-17.3999996185302734375</AltitudeMeters>
            <DistanceMeters>2734.9403328273</DistanceMeters>
          </Trackpoint>
          <Trackpoint>
            <Time>2018-04-21T08:14:43.000Z</Time>
            <Position>
              <LatitudeDegrees>43.34786343388259410858154296875</LatitudeDegrees>
              <LongitudeDegrees>-8.387624658644199371337890625</LongitudeDegrees>
            </Position>
            <AltitudeMeters>-16.3999996185302734375</AltitudeMeters>
            <DistanceMeters>2738.9943110128</DistanceMeters>
          </Trackpoint>
          <Trackpoint>
            <Time>2018-04-21T08:14:46.000Z</Time>
            <Position>
              <LatitudeDegrees>43.34780878387391567230224609375</LatitudeDegrees>
              <LongitudeDegrees>-8.3876157738268375396728515625</LongitudeDegrees>
            </Position>
            <AltitudeMeters>-15.6000003814697265625</AltitudeMeters>
            <DistanceMeters>2745.1189283517</DistanceMeters>
          </Trackpoint>
          <Trackpoint>
            <Time>2018-04-21T08:14:47.000Z</Time>
            <Position>
              <LatitudeDegrees>43.3477919362485408782958984375</LatitudeDegrees>
              <LongitudeDegrees>-8.3876095712184906005859375</LongitudeDegrees>
            </Position>
            <AltitudeMeters>-15.19999980926513671875</AltitudeMeters>
            <DistanceMeters>2747.0617541168</DistanceMeters>
          </Trackpoint>
          <Trackpoint>
            <Time>2018-04-21T08:14:48.000Z</Time>
            <Position>
              <LatitudeDegrees>43.34777601063251495361328125</LatitudeDegrees>
              <LongitudeDegrees>-8.3875986747443675994873046875</LongitudeDegrees>
            </Position>
            <AltitudeMeters>-14.80000019073486328125</AltitudeMeters>
            <DistanceMeters>2749.0414139807</DistanceMeters>
          </Trackpoint>
          <Trackpoint>
            <Time>2018-04-21T08:14:51.000Z</Time>
            <Position>
              <LatitudeDegrees>43.34773468784987926483154296875</LatitudeDegrees>
              <LongitudeDegrees>-8.38756238110363483428955078125</LongitudeDegrees>
            </Position>
            <AltitudeMeters>-13.80000019073486328125</AltitudeMeters>
            <DistanceMeters>2754.5002831186</DistanceMeters>
          </Trackpoint>
          <Trackpoint>
            <Time>2018-04-21T08:14:53.000Z</Time>
            <Position>
              <LatitudeDegrees>43.34771834313869476318359375</LatitudeDegrees>
              <LongitudeDegrees>-8.38753723539412021636962890625</LongitudeDegrees>
            </Position>
            <AltitudeMeters>-12.80000019073486328125</AltitudeMeters>
            <DistanceMeters>2757.2297176876</DistanceMeters>
          </Trackpoint>
          <Trackpoint>
            <Time>2018-04-21T08:14:55.000Z</Time>
            <Position>
              <LatitudeDegrees>43.347709290683269500732421875</LatitudeDegrees>
              <LongitudeDegrees>-8.38751074858009815216064453125</LongitudeDegrees>
            </Position>
            <AltitudeMeters>-12.6000003814697265625</AltitudeMeters>
            <DistanceMeters>2759.5977712072</DistanceMeters>
          </Trackpoint>
          <Trackpoint>
            <Time>2018-04-21T08:14:59.000Z</Time>
            <Position>
              <LatitudeDegrees>43.347685821354389190673828125</LatitudeDegrees>
              <LongitudeDegrees>-8.38746414519846439361572265625</LongitudeDegrees>
            </Position>
            <AltitudeMeters>-11.6000003814697265625</AltitudeMeters>
            <DistanceMeters>2764.1866859228</DistanceMeters>
          </Trackpoint>
          <Trackpoint>
            <Time>2018-04-21T08:15:02.000Z</Time>
            <Position>
              <LatitudeDegrees>43.3476628549396991729736328125</LatitudeDegrees>
              <LongitudeDegrees>-8.38743967004120349884033203125</LongitudeDegrees>
            </Position>
            <AltitudeMeters>-11.3999996185302734375</AltitudeMeters>
            <DistanceMeters>2767.423179191</DistanceMeters>
          </Trackpoint>
          <Trackpoint>
            <Time>2018-04-21T08:15:04.000Z</Time>
            <Position>
              <LatitudeDegrees>43.347639553248882293701171875</LatitudeDegrees>
              <LongitudeDegrees>-8.38741980493068695068359375</LongitudeDegrees>
            </Position>
            <AltitudeMeters>-10.6000003814697265625</AltitudeMeters>
            <DistanceMeters>2770.4729297935</DistanceMeters>
          </Trackpoint>
          <Trackpoint>
            <Time>2018-04-21T08:15:06.000Z</Time>
            <Position>
              <LatitudeDegrees>43.34760300815105438232421875</LatitudeDegrees>
              <LongitudeDegrees>-8.38740614242851734161376953125</LongitudeDegrees>
            </Position>
            <AltitudeMeters>-10.19999980926513671875</AltitudeMeters>
            <DistanceMeters>2774.6863761606</DistanceMeters>
          </Trackpoint>
          <Trackpoint>
            <Time>2018-04-21T08:15:09.000Z</Time>
            <Position>
              <LatitudeDegrees>43.3475103043019771575927734375</LatitudeDegrees>
              <LongitudeDegrees>-8.387397341430187225341796875</LongitudeDegrees>
            </Position>
            <AltitudeMeters>-10</AltitudeMeters>
            <DistanceMeters>2785.0290201918</DistanceMeters>
          </Trackpoint>
          <Trackpoint>
            <Time>2018-04-21T08:15:14.000Z</Time>
            <Position>
              <LatitudeDegrees>43.347368650138378143310546875</LatitudeDegrees>
              <LongitudeDegrees>-8.387260548770427703857421875</LongitudeDegrees>
            </Position>
            <AltitudeMeters>-9.6000003814697265625</AltitudeMeters>
            <DistanceMeters>2804.2948516597</DistanceMeters>
          </Trackpoint>
          <Trackpoint>
            <Time>2018-04-21T08:15:18.000Z</Time>
            <Position>
              <LatitudeDegrees>43.3472440950572490692138671875</LatitudeDegrees>
              <LongitudeDegrees>-8.3870649151504039764404296875</LongitudeDegrees>
            </Position>
            <AltitudeMeters>-9.80000019073486328125</AltitudeMeters>
            <DistanceMeters>2825.3406410148</DistanceMeters>
          </Trackpoint>
          <Trackpoint>
            <Time>2018-04-21T08:15:21.000Z</Time>
            <Position>
              <LatitudeDegrees>43.34715600125491619110107421875</LatitudeDegrees>
              <LongitudeDegrees>-8.3869229257106781005859375</LongitudeDegrees>
            </Position>
            <AltitudeMeters>-9.80000019073486328125</AltitudeMeters>
            <DistanceMeters>2840.4471989249</DistanceMeters>
          </Trackpoint>
          <Trackpoint>
            <Time>2018-04-21T08:15:25.000Z</Time>
            <Position>
              <LatitudeDegrees>43.34709472954273223876953125</LatitudeDegrees>
              <LongitudeDegrees>-8.38670432567596435546875</LongitudeDegrees>
            </Position>
            <AltitudeMeters>-10</AltitudeMeters>
            <DistanceMeters>2859.409493457</DistanceMeters>
          </Trackpoint>
          <Trackpoint>
            <Time>2018-04-21T08:15:27.000Z</Time>
            <Position>
              <LatitudeDegrees>43.3471088111400604248046875</LatitudeDegrees>
              <LongitudeDegrees>-8.38658622466027736663818359375</LongitudeDegrees>
            </Position>
            <AltitudeMeters>-10</AltitudeMeters>
            <DistanceMeters>2869.0966269033</DistanceMeters>
          </Trackpoint>
          <Trackpoint>
            <Time>2018-04-21T08:15:31.000Z</Time>
            <Position>
              <LatitudeDegrees>43.34708869457244873046875</LatitudeDegrees>
              <LongitudeDegrees>-8.3865381963551044464111328125</LongitudeDegrees>
            </Position>
            <AltitudeMeters>-9.6000003814697265625</AltitudeMeters>
            <DistanceMeters>2873.5840616348</DistanceMeters>
          </Trackpoint>
          <Trackpoint>
            <Time>2018-04-21T08:15:32.000Z</Time>
            <Position>
              <LatitudeDegrees>43.347093723714351654052734375</LatitudeDegrees>
              <LongitudeDegrees>-8.3865447342395782470703125</LongitudeDegrees>
            </Position>
            <AltitudeMeters>-9.6000003814697265625</AltitudeMeters>
            <DistanceMeters>2874.3560623118</DistanceMeters>
          </Trackpoint>
          <Trackpoint>
            <Time>2018-04-21T08:15:34.000Z</Time>
            <Position>
              <LatitudeDegrees>43.34710487164556980133056640625</LatitudeDegrees>
              <LongitudeDegrees>-8.38656711392104625701904296875</LongitudeDegrees>
            </Position>
            <AltitudeMeters>-9.6000003814697265625</AltitudeMeters>
            <DistanceMeters>2876.5519814408</DistanceMeters>
          </Trackpoint>
          <Trackpoint>
            <Time>2018-04-21T08:15:37.000Z</Time>
            <Position>
              <LatitudeDegrees>43.34715306758880615234375</LatitudeDegrees>
              <LongitudeDegrees>-8.38665998540818691253662109375</LongitudeDegrees>
            </Position>
            <AltitudeMeters>-8.6000003814697265625</AltitudeMeters>
            <DistanceMeters>2885.7867008159</DistanceMeters>
          </Trackpoint>
          <Trackpoint>
            <Time>2018-04-21T08:15:38.000Z</Time>
            <Position>
              <LatitudeDegrees>43.34716773591935634613037109375</LatitudeDegrees>
              <LongitudeDegrees>-8.386695943772792816162109375</LongitudeDegrees>
            </Position>
            <AltitudeMeters>-8.19999980926513671875</AltitudeMeters>
            <DistanceMeters>2889.1234783415</DistanceMeters>
          </Trackpoint>
          <Trackpoint>
            <Time>2018-04-21T08:15:42.000Z</Time>
            <Position>
              <LatitudeDegrees>43.347232528030872344970703125</LatitudeDegrees>
              <LongitudeDegrees>-8.3868406154215335845947265625</LongitudeDegrees>
            </Position>
            <AltitudeMeters>-7.400000095367431640625</AltitudeMeters>
            <DistanceMeters>2902.8754560526</DistanceMeters>
          </Trackpoint>
          <Trackpoint>
            <Time>2018-04-21T08:15:43.000Z</Time>
            <Position>
              <LatitudeDegrees>43.34724870510399341583251953125</LatitudeDegrees>
              <LongitudeDegrees>-8.38687841780483722686767578125</LongitudeDegrees>
            </Position>
            <AltitudeMeters>-6.80000019073486328125</AltitudeMeters>
            <DistanceMeters>2906.4259471054</DistanceMeters>
          </Trackpoint>
          <Trackpoint>
            <Time>2018-04-21T08:15:45.000Z</Time>
            <Position>
              <LatitudeDegrees>43.347286842763423919677734375</LatitudeDegrees>
              <LongitudeDegrees>-8.38695486076176166534423828125</LongitudeDegrees>
            </Position>
            <AltitudeMeters>-6.400000095367431640625</AltitudeMeters>
            <DistanceMeters>2913.9300497635</DistanceMeters>
          </Trackpoint>
          <Trackpoint>
            <Time>2018-04-21T08:15:49.000Z</Time>
            <Position>
              <LatitudeDegrees>43.3473597653210163116455078125</LatitudeDegrees>
              <LongitudeDegrees>-8.3871051482856273651123046875</LongitudeDegrees>
            </Position>
            <AltitudeMeters>-5.80000019073486328125</AltitudeMeters>
            <DistanceMeters>2928.5533612992</DistanceMeters>
          </Trackpoint>
          <Trackpoint>
            <Time>2018-04-21T08:15:52.000Z</Time>
            <Position>
              <LatitudeDegrees>43.347395472228527069091796875</LatitudeDegrees>
              <LongitudeDegrees>-8.3872147835791110992431640625</LongitudeDegrees>
            </Position>
            <AltitudeMeters>-4.80000019073486328125</AltitudeMeters>
            <DistanceMeters>2938.2758527605</DistanceMeters>
          </Trackpoint>
          <Trackpoint>
            <Time>2018-04-21T08:15:53.000Z</Time>
            <Position>
              <LatitudeDegrees>43.347402177751064300537109375</LatitudeDegrees>
              <LongitudeDegrees>-8.38724537752568721771240234375</LongitudeDegrees>
            </Position>
            <AltitudeMeters>-4.400000095367431640625</AltitudeMeters>
            <DistanceMeters>2940.8608588666</DistanceMeters>
          </Trackpoint>
          <Trackpoint>
            <Time>2018-04-21T08:15:57.000Z</Time>
            <Position>
              <LatitudeDegrees>43.34739371202886104583740234375</LatitudeDegrees>
              <LongitudeDegrees>-8.38733321987092494964599609375</LongitudeDegrees>
            </Position>
            <AltitudeMeters>-4.19999980926513671875</AltitudeMeters>
            <DistanceMeters>2948.0327007099</DistanceMeters>
          </Trackpoint>
          <Trackpoint>
            <Time>2018-04-21T08:15:58.000Z</Time>
            <Position>
              <LatitudeDegrees>43.34737904369831085205078125</LatitudeDegrees>
              <LongitudeDegrees>-8.38733674027025699615478515625</LongitudeDegrees>
            </Position>
            <AltitudeMeters>-4.19999980926513671875</AltitudeMeters>
            <DistanceMeters>2949.6895480894</DistanceMeters>
          </Trackpoint>
          <Trackpoint>
            <Time>2018-04-21T08:16:01.000Z</Time>
            <Position>
              <LatitudeDegrees>43.34733587689697742462158203125</LatitudeDegrees>
              <LongitudeDegrees>-8.38731125928461551666259765625</LongitudeDegrees>
            </Position>
            <AltitudeMeters>-4</AltitudeMeters>
            <DistanceMeters>2954.9177448527</DistanceMeters>
          </Trackpoint>
          <Trackpoint>
            <Time>2018-04-21T08:16:03.000Z</Time>
            <Position>
              <LatitudeDegrees>43.34729312919080257415771484375</LatitudeDegrees>
              <LongitudeDegrees>-8.3872794918715953826904296875</LongitudeDegrees>
            </Position>
            <AltitudeMeters>-3.7999999523162841796875</AltitudeMeters>
            <DistanceMeters>2960.3259254711</DistanceMeters>
          </Trackpoint>
          <Trackpoint>
            <Time>2018-04-21T08:16:06.000Z</Time>
            <Position>
              <LatitudeDegrees>43.34720143117010593414306640625</LatitudeDegrees>
              <LongitudeDegrees>-8.38720765896141529083251953125</LongitudeDegrees>
            </Position>
            <AltitudeMeters>-3.400000095367431640625</AltitudeMeters>
            <DistanceMeters>2972.0723959225</DistanceMeters>
          </Trackpoint>
          <Trackpoint>
            <Time>2018-04-21T08:16:08.000Z</Time>
            <Position>
              <LatitudeDegrees>43.347141332924365997314453125</LatitudeDegrees>
              <LongitudeDegrees>-8.38714328594505786895751953125</LongitudeDegrees>
            </Position>
            <AltitudeMeters>-3</AltitudeMeters>
            <DistanceMeters>2980.5516334263</DistanceMeters>
          </Trackpoint>
          <Trackpoint>
            <Time>2018-04-21T08:16:11.000Z</Time>
            <Position>
              <LatitudeDegrees>43.347062207758426666259765625</LatitudeDegrees>
              <LongitudeDegrees>-8.38703130371868610382080078125</LongitudeDegrees>
            </Position>
            <AltitudeMeters>-2.2000000476837158203125</AltitudeMeters>
            <DistanceMeters>2993.1898291892</DistanceMeters>
          </Trackpoint>
          <Trackpoint>
            <Time>2018-04-21T08:16:15.000Z</Time>
            <Position>
              <LatitudeDegrees>43.34698249585926532745361328125</LatitudeDegrees>
              <LongitudeDegrees>-8.38683483190834522247314453125</LongitudeDegrees>
            </Position>
            <AltitudeMeters>-1.60000002384185791015625</AltitudeMeters>
            <DistanceMeters>3011.3997843559</DistanceMeters>
          </Trackpoint>
          <Trackpoint>
            <Time>2018-04-21T08:16:18.000Z</Time>
            <Position>
              <LatitudeDegrees>43.34692482836544513702392578125</LatitudeDegrees>
              <LongitudeDegrees>-8.3866766653954982757568359375</LongitudeDegrees>
            </Position>
            <AltitudeMeters>-1</AltitudeMeters>
            <DistanceMeters>3025.7211015535</DistanceMeters>
          </Trackpoint>
          <Trackpoint>
            <Time>2018-04-21T08:16:22.000Z</Time>
            <Position>
              <LatitudeDegrees>43.34682826884090900421142578125</LatitudeDegrees>
              <LongitudeDegrees>-8.38648044504225254058837890625</LongitudeDegrees>
            </Position>
            <AltitudeMeters>-0.60000002384185791015625</AltitudeMeters>
            <DistanceMeters>3044.8976714528</DistanceMeters>
          </Trackpoint>
          <Trackpoint>
            <Time>2018-04-21T08:16:23.000Z</Time>
            <Position>
              <LatitudeDegrees>43.3468011952936649322509765625</LatitudeDegrees>
              <LongitudeDegrees>-8.38642738759517669677734375</LongitudeDegrees>
            </Position>
            <AltitudeMeters>-0.20000000298023223876953125</AltitudeMeters>
            <DistanceMeters>3050.1439723402</DistanceMeters>
          </Trackpoint>
          <Trackpoint>
            <Time>2018-04-21T08:16:25.000Z</Time>
            <Position>
              <LatitudeDegrees>43.34675199352204799652099609375</LatitudeDegrees>
              <LongitudeDegrees>-8.38630895130336284637451171875</LongitudeDegrees>
            </Position>
            <AltitudeMeters>0.20000000298023223876953125</AltitudeMeters>
            <DistanceMeters>3061.1842609161</DistanceMeters>
          </Trackpoint>
          <Trackpoint>
            <Time>2018-04-21T08:16:29.000Z</Time>
            <Position>
              <LatitudeDegrees>43.3466590382158756256103515625</LatitudeDegrees>
              <LongitudeDegrees>-8.38608180172741413116455078125</LongitudeDegrees>
            </Position>
            <AltitudeMeters>1.2000000476837158203125</AltitudeMeters>
            <DistanceMeters>3082.2810475855</DistanceMeters>
          </Trackpoint>
          <Trackpoint>
            <Time>2018-04-21T08:16:30.000Z</Time>
            <Position>
              <LatitudeDegrees>43.34663380868732929229736328125</LatitudeDegrees>
              <LongitudeDegrees>-8.3860243856906890869140625</LongitudeDegrees>
            </Position>
            <AltitudeMeters>1.2000000476837158203125</AltitudeMeters>
            <DistanceMeters>3087.7117224667</DistanceMeters>
          </Trackpoint>
          <Trackpoint>
            <Time>2018-04-21T08:16:35.000Z</Time>
            <Position>
              <LatitudeDegrees>43.3465175516903400421142578125</LatitudeDegrees>
              <LongitudeDegrees>-8.38574065826833248138427734375</LongitudeDegrees>
            </Position>
            <AltitudeMeters>2.400000095367431640625</AltitudeMeters>
            <DistanceMeters>3114.0714890084</DistanceMeters>
          </Trackpoint>
          <Trackpoint>
            <Time>2018-04-21T08:16:37.000Z</Time>
            <Position>
              <LatitudeDegrees>43.34647052921354770660400390625</LatitudeDegrees>
              <LongitudeDegrees>-8.3856225572526454925537109375</LongitudeDegrees>
            </Position>
            <AltitudeMeters>2.7999999523162841796875</AltitudeMeters>
            <DistanceMeters>3124.9693587723</DistanceMeters>
          </Trackpoint>
          <Trackpoint>
            <Time>2018-04-21T08:16:39.000Z</Time>
            <Position>
              <LatitudeDegrees>43.3464240096509456634521484375</LatitudeDegrees>
              <LongitudeDegrees>-8.38550982065498828887939453125</LongitudeDegrees>
            </Position>
            <AltitudeMeters>3.2000000476837158203125</AltitudeMeters>
            <DistanceMeters>3135.4606695472</DistanceMeters>
          </Trackpoint>
          <Trackpoint>
            <Time>2018-04-21T08:16:41.000Z</Time>
            <Position>
              <LatitudeDegrees>43.3463703654706478118896484375</LatitudeDegrees>
              <LongitudeDegrees>-8.38540202938020229339599609375</LongitudeDegrees>
            </Position>
            <AltitudeMeters>3.599999904632568359375</AltitudeMeters>
            <DistanceMeters>3146.0330054397</DistanceMeters>
          </Trackpoint>
          <Trackpoint>
            <Time>2018-04-21T08:16:43.000Z</Time>
            <Position>
              <LatitudeDegrees>43.34631018340587615966796875</LatitudeDegrees>
              <LongitudeDegrees>-8.3852949924767017364501953125</LongitudeDegrees>
            </Position>
            <AltitudeMeters>4</AltitudeMeters>
            <DistanceMeters>3156.9841900903</DistanceMeters>
          </Trackpoint>
          <Trackpoint>
            <Time>2018-04-21T08:16:47.000Z</Time>
            <Position>
              <LatitudeDegrees>43.3461821079254150390625</LatitudeDegrees>
              <LongitudeDegrees>-8.3850904740393161773681640625</LongitudeDegrees>
            </Position>
            <AltitudeMeters>4.80000019073486328125</AltitudeMeters>
            <DistanceMeters>3178.8300029629</DistanceMeters>
          </Trackpoint>
          <Trackpoint>
            <Time>2018-04-21T08:16:48.000Z</Time>
            <Position>
              <LatitudeDegrees>43.34614790976047515869140625</LatitudeDegrees>
              <LongitudeDegrees>-8.385044038295745849609375</LongitudeDegrees>
            </Position>
            <AltitudeMeters>5</AltitudeMeters>
            <DistanceMeters>3184.1794246373</DistanceMeters>
          </Trackpoint>
          <Trackpoint>
            <Time>2018-04-21T08:16:49.000Z</Time>
            <Position>
              <LatitudeDegrees>43.3461118675768375396728515625</LatitudeDegrees>
              <LongitudeDegrees>-8.385001122951507568359375</LongitudeDegrees>
            </Position>
            <AltitudeMeters>5.400000095367431640625</AltitudeMeters>
            <DistanceMeters>3189.4856265137</DistanceMeters>
          </Trackpoint>
          <Trackpoint>
            <Time>2018-04-21T08:16:51.000Z</Time>
            <Position>
              <LatitudeDegrees>43.34603391587734222412109375</LatitudeDegrees>
              <LongitudeDegrees>-8.384921662509441375732421875</LongitudeDegrees>
            </Position>
            <AltitudeMeters>5.80000019073486328125</AltitudeMeters>
            <DistanceMeters>3200.2861138871</DistanceMeters>
          </Trackpoint>
          <Trackpoint>
            <Time>2018-04-21T08:16:57.000Z</Time>
            <Position>
              <LatitudeDegrees>43.34578572772443294525146484375</LatitudeDegrees>
              <LongitudeDegrees>-8.384696356952190399169921875</LongitudeDegrees>
            </Position>
            <AltitudeMeters>6.599999904632568359375</AltitudeMeters>
            <DistanceMeters>3233.3867980983</DistanceMeters>
          </Trackpoint>
          <Trackpoint>
            <Time>2018-04-21T08:16:59.000Z</Time>
            <Position>
              <LatitudeDegrees>43.34569034166634082794189453125</LatitudeDegrees>
              <LongitudeDegrees>-8.38465042412281036376953125</LongitudeDegrees>
            </Position>
            <AltitudeMeters>7</AltitudeMeters>
            <DistanceMeters>3244.6361310246</DistanceMeters>
          </Trackpoint>
          <Trackpoint>
            <Time>2018-04-21T08:17:00.000Z</Time>
            <Position>
              <LatitudeDegrees>43.345641978085041046142578125</LatitudeDegrees>
              <LongitudeDegrees>-8.3846375159919261932373046875</LongitudeDegrees>
            </Position>
            <AltitudeMeters>7.400000095367431640625</AltitudeMeters>
            <DistanceMeters>3250.1197570656</DistanceMeters>
          </Trackpoint>
          <Trackpoint>
            <Time>2018-04-21T08:17:02.000Z</Time>
            <Position>
              <LatitudeDegrees>43.34554667584598064422607421875</LatitudeDegrees>
              <LongitudeDegrees>-8.384633325040340423583984375</LongitudeDegrees>
            </Position>
            <AltitudeMeters>7.80000019073486328125</AltitudeMeters>
            <DistanceMeters>3260.7321608183</DistanceMeters>
          </Trackpoint>
          <Trackpoint>
            <Time>2018-04-21T08:17:03.000Z</Time>
            <Position>
              <LatitudeDegrees>43.34550007246434688568115234375</LatitudeDegrees>
              <LongitudeDegrees>-8.38463827036321163177490234375</LongitudeDegrees>
            </Position>
            <AltitudeMeters>8</AltitudeMeters>
            <DistanceMeters>3265.9352530891</DistanceMeters>
          </Trackpoint>
          <Trackpoint>
            <Time>2018-04-21T08:17:04.000Z</Time>
            <Position>
              <LatitudeDegrees>43.345453552901744842529296875</LatitudeDegrees>
              <LongitudeDegrees>-8.38464732281863689422607421875</LongitudeDegrees>
            </Position>
            <AltitudeMeters>8</AltitudeMeters>
            <DistanceMeters>3271.1643133749</DistanceMeters>
          </Trackpoint>
          <Trackpoint>
            <Time>2018-04-21T08:17:08.000Z</Time>
            <Position>
              <LatitudeDegrees>43.34526990540325641632080078125</LatitudeDegrees>
              <LongitudeDegrees>-8.38470800779759883880615234375</LongitudeDegrees>
            </Position>
            <AltitudeMeters>9</AltitudeMeters>
            <DistanceMeters>3292.1864907399</DistanceMeters>
          </Trackpoint>
          <Trackpoint>
            <Time>2018-04-21T08:17:09.000Z</Time>
            <Position>
              <LatitudeDegrees>43.3452237211167812347412109375</LatitudeDegrees>
              <LongitudeDegrees>-8.384727537631988525390625</LongitudeDegrees>
            </Position>
            <AltitudeMeters>9.3999996185302734375</AltitudeMeters>
            <DistanceMeters>3297.5645326559</DistanceMeters>
          </Trackpoint>
          <Trackpoint>
            <Time>2018-04-21T08:17:11.000Z</Time>
            <Position>
              <LatitudeDegrees>43.34513545967638492584228515625</LatitudeDegrees>
              <LongitudeDegrees>-8.38477992452681064605712890625</LongitudeDegrees>
            </Position>
            <AltitudeMeters>9.19999980926513671875</AltitudeMeters>
            <DistanceMeters>3308.2637980083</DistanceMeters>
          </Trackpoint>
          <Trackpoint>
            <Time>2018-04-21T08:17:13.000Z</Time>
            <Position>
              <LatitudeDegrees>43.34505834616720676422119140625</LatitudeDegrees>
              <LongitudeDegrees>-8.38486969470977783203125</LongitudeDegrees>
            </Position>
            <AltitudeMeters>8.80000019073486328125</AltitudeMeters>
            <DistanceMeters>3319.509116613</DistanceMeters>
          </Trackpoint>
          <Trackpoint>
            <Time>2018-04-21T08:17:16.000Z</Time>
            <Position>
              <LatitudeDegrees>43.34493982605636119842529296875</LatitudeDegrees>
              <LongitudeDegrees>-8.38502459228038787841796875</LongitudeDegrees>
            </Position>
            <AltitudeMeters>8.3999996185302734375</AltitudeMeters>
            <DistanceMeters>3337.7081590002</DistanceMeters>
          </Trackpoint>
          <Trackpoint>
            <Time>2018-04-21T08:17:21.000Z</Time>
            <Position>
              <LatitudeDegrees>43.34473513998091220855712890625</LatitudeDegrees>
              <LongitudeDegrees>-8.38532357476651668548583984375</LongitudeDegrees>
            </Position>
            <AltitudeMeters>7.400000095367431640625</AltitudeMeters>
            <DistanceMeters>3370.9449664837</DistanceMeters>
          </Trackpoint>
          <Trackpoint>
            <Time>2018-04-21T08:17:22.000Z</Time>
            <Position>
              <LatitudeDegrees>43.34469105117022991180419921875</LatitudeDegrees>
              <LongitudeDegrees>-8.385383673012256622314453125</LongitudeDegrees>
            </Position>
            <AltitudeMeters>7.19999980926513671875</AltitudeMeters>
            <DistanceMeters>3377.8551795221</DistanceMeters>
          </Trackpoint>
          <Trackpoint>
            <Time>2018-04-21T08:17:23.000Z</Time>
            <Position>
              <LatitudeDegrees>43.34464964456856250762939453125</LatitudeDegrees>
              <LongitudeDegrees>-8.38544745929539203643798828125</LongitudeDegrees>
            </Position>
            <AltitudeMeters>7.19999980926513671875</AltitudeMeters>
            <DistanceMeters>3384.7758388446</DistanceMeters>
          </Trackpoint>
          <Trackpoint>
            <Time>2018-04-21T08:17:27.000Z</Time>
            <Position>
              <LatitudeDegrees>43.3444827608764171600341796875</LatitudeDegrees>
              <LongitudeDegrees>-8.3857318572700023651123046875</LongitudeDegrees>
            </Position>
            <AltitudeMeters>6.80000019073486328125</AltitudeMeters>
            <DistanceMeters>3414.3549549007</DistanceMeters>
          </Trackpoint>
          <Trackpoint>
            <Time>2018-04-21T08:17:29.000Z</Time>
            <Position>
              <LatitudeDegrees>43.344392739236354827880859375</LatitudeDegrees>
              <LongitudeDegrees>-8.3858699910342693328857421875</LongitudeDegrees>
            </Position>
            <AltitudeMeters>6.599999904632568359375</AltitudeMeters>
            <DistanceMeters>3429.3685743242</DistanceMeters>
          </Trackpoint>
          <Trackpoint>
            <Time>2018-04-21T08:17:31.000Z</Time>
            <Position>
              <LatitudeDegrees>43.34427975118160247802734375</LatitudeDegrees>
              <LongitudeDegrees>-8.3859937079250812530517578125</LongitudeDegrees>
            </Position>
            <AltitudeMeters>6.599999904632568359375</AltitudeMeters>
            <DistanceMeters>3445.4441062803</DistanceMeters>
          </Trackpoint>
          <Trackpoint>
            <Time>2018-04-21T08:17:33.000Z</Time>
            <Position>
              <LatitudeDegrees>43.34417120553553104400634765625</LatitudeDegrees>
              <LongitudeDegrees>-8.3861221186816692352294921875</LongitudeDegrees>
            </Position>
            <AltitudeMeters>6</AltitudeMeters>
            <DistanceMeters>3461.3814206782</DistanceMeters>
          </Trackpoint>
          <Trackpoint>
            <Time>2018-04-21T08:17:35.000Z</Time>
            <Position>
              <LatitudeDegrees>43.34406324662268161773681640625</LatitudeDegrees>
              <LongitudeDegrees>-8.3862796984612941741943359375</LongitudeDegrees>
            </Position>
            <AltitudeMeters>4.80000019073486328125</AltitudeMeters>
            <DistanceMeters>3478.9052846821</DistanceMeters>
          </Trackpoint>
          <Trackpoint>
            <Time>2018-04-21T08:17:37.000Z</Time>
            <Position>
              <LatitudeDegrees>43.3439493365585803985595703125</LatitudeDegrees>
              <LongitudeDegrees>-8.386438786983489990234375</LongitudeDegrees>
            </Position>
            <AltitudeMeters>3.7999999523162841796875</AltitudeMeters>
            <DistanceMeters>3496.9763578246</DistanceMeters>
          </Trackpoint>
          <Trackpoint>
            <Time>2018-04-21T08:17:38.000Z</Time>
            <Position>
              <LatitudeDegrees>43.3438772521913051605224609375</LatitudeDegrees>
              <LongitudeDegrees>-8.386503159999847412109375</LongitudeDegrees>
            </Position>
            <AltitudeMeters>3.599999904632568359375</AltitudeMeters>
            <DistanceMeters>3506.543429207</DistanceMeters>
          </Trackpoint>
          <Trackpoint>
            <Time>2018-04-21T08:17:40.000Z</Time>
            <Position>
              <LatitudeDegrees>43.34369930438697338104248046875</LatitudeDegrees>
              <LongitudeDegrees>-8.386615477502346038818359375</LongitudeDegrees>
            </Position>
            <AltitudeMeters>2.2000000476837158203125</AltitudeMeters>
            <DistanceMeters>3528.3366827651</DistanceMeters>
          </Trackpoint>
          <Trackpoint>
            <Time>2018-04-21T08:17:41.000Z</Time>
            <Position>
              <LatitudeDegrees>43.34359687753021717071533203125</LatitudeDegrees>
              <LongitudeDegrees>-8.3866652660071849822998046875</LongitudeDegrees>
            </Position>
            <AltitudeMeters>1.60000002384185791015625</AltitudeMeters>
            <DistanceMeters>3540.4286221372</DistanceMeters>
          </Trackpoint>
          <Trackpoint>
            <Time>2018-04-21T08:17:42.000Z</Time>
            <Position>
              <LatitudeDegrees>43.3434879966080188751220703125</LatitudeDegrees>
              <LongitudeDegrees>-8.386709690093994140625</LongitudeDegrees>
            </Position>
            <AltitudeMeters>0.800000011920928955078125</AltitudeMeters>
            <DistanceMeters>3553.0693184264</DistanceMeters>
          </Trackpoint>
          <Trackpoint>
            <Time>2018-04-21T08:17:44.000Z</Time>
            <Position>
              <LatitudeDegrees>43.343270905315876007080078125</LatitudeDegrees>
              <LongitudeDegrees>-8.386777080595493316650390625</LongitudeDegrees>
            </Position>
            <AltitudeMeters>-0.60000002384185791015625</AltitudeMeters>
            <DistanceMeters>3577.840141876</DistanceMeters>
          </Trackpoint>
          <Trackpoint>
            <Time>2018-04-21T08:17:46.000Z</Time>
            <Position>
              <LatitudeDegrees>43.3430692367255687713623046875</LatitudeDegrees>
              <LongitudeDegrees>-8.3868261985480785369873046875</LongitudeDegrees>
            </Position>
            <AltitudeMeters>-2.2000000476837158203125</AltitudeMeters>
            <DistanceMeters>3600.6356622466</DistanceMeters>
          </Trackpoint>
          <Trackpoint>
            <Time>2018-04-21T08:17:47.000Z</Time>
            <Position>
              <LatitudeDegrees>43.3429787121713161468505859375</LatitudeDegrees>
              <LongitudeDegrees>-8.38684983551502227783203125</LongitudeDegrees>
            </Position>
            <AltitudeMeters>-4</AltitudeMeters>
            <DistanceMeters>3610.8915059671</DistanceMeters>
          </Trackpoint>
          <Trackpoint>
            <Time>2018-04-21T08:17:48.000Z</Time>
            <Position>
              <LatitudeDegrees>43.3428923785686492919921875</LatitudeDegrees>
              <LongitudeDegrees>-8.386881686747074127197265625</LongitudeDegrees>
            </Position>
            <AltitudeMeters>-5.19999980926513671875</AltitudeMeters>
            <DistanceMeters>3620.8407621191</DistanceMeters>
          </Trackpoint>
          <Trackpoint>
            <Time>2018-04-21T08:17:49.000Z</Time>
            <Position>
              <LatitudeDegrees>43.34280596114695072174072265625</LatitudeDegrees>
              <LongitudeDegrees>-8.386915214359760284423828125</LongitudeDegrees>
            </Position>
            <AltitudeMeters>-6.19999980926513671875</AltitudeMeters>
            <DistanceMeters>3630.8352959063</DistanceMeters>
          </Trackpoint>
          <Trackpoint>
            <Time>2018-04-21T08:17:50.000Z</Time>
            <Position>
              <LatitudeDegrees>43.342725075781345367431640625</LatitudeDegrees>
              <LongitudeDegrees>-8.38693859986960887908935546875</LongitudeDegrees>
            </Position>
            <AltitudeMeters>-7</AltitudeMeters>
            <DistanceMeters>3640.0352364773</DistanceMeters>
          </Trackpoint>
          <Trackpoint>
            <Time>2018-04-21T08:17:51.000Z</Time>
            <Position>
              <LatitudeDegrees>43.34264821372926235198974609375</LatitudeDegrees>
              <LongitudeDegrees>-8.3869623206555843353271484375</LongitudeDegrees>
            </Position>
            <AltitudeMeters>-8</AltitudeMeters>
            <DistanceMeters>3648.8024487304</DistanceMeters>
          </Trackpoint>
          <Trackpoint>
            <Time>2018-04-21T08:17:52.000Z</Time>
            <Position>
              <LatitudeDegrees>43.34257110022008419036865234375</LatitudeDegrees>
              <LongitudeDegrees>-8.38698319159448146820068359375</LongitudeDegrees>
            </Position>
            <AltitudeMeters>-9.19999980926513671875</AltitudeMeters>
            <DistanceMeters>3657.5495532633</DistanceMeters>
          </Trackpoint>
          <Trackpoint>
            <Time>2018-04-21T08:17:53.000Z</Time>
            <Position>
              <LatitudeDegrees>43.34249163977801799774169921875</LatitudeDegrees>
              <LongitudeDegrees>-8.387005068361759185791015625</LongitudeDegrees>
            </Position>
            <AltitudeMeters>-10</AltitudeMeters>
            <DistanceMeters>3666.5690853289</DistanceMeters>
          </Trackpoint>
          <Trackpoint>
            <Time>2018-04-21T08:17:54.000Z</Time>
            <Position>
              <LatitudeDegrees>43.3424087427556514739990234375</LatitudeDegrees>
              <LongitudeDegrees>-8.38702191598713397979736328125</LongitudeDegrees>
            </Position>
            <AltitudeMeters>-11</AltitudeMeters>
            <DistanceMeters>3675.8962369017</DistanceMeters>
          </Trackpoint>
          <Trackpoint>
            <Time>2018-04-21T08:17:56.000Z</Time>
            <Position>
              <LatitudeDegrees>43.342258371412754058837890625</LatitudeDegrees>
              <LongitudeDegrees>-8.38705443777143955230712890625</LongitudeDegrees>
            </Position>
            <AltitudeMeters>-12.6000003814697265625</AltitudeMeters>
            <DistanceMeters>3692.8387299296</DistanceMeters>
          </Trackpoint>
          <Trackpoint>
            <Time>2018-04-21T08:17:57.000Z</Time>
            <Position>
              <LatitudeDegrees>43.3421894721686840057373046875</LatitudeDegrees>
              <LongitudeDegrees>-8.3870773203670978546142578125</LongitudeDegrees>
            </Position>
            <AltitudeMeters>-13.3999996185302734375</AltitudeMeters>
            <DistanceMeters>3700.7276643856</DistanceMeters>
          </Trackpoint>
          <Trackpoint>
            <Time>2018-04-21T08:17:58.000Z</Time>
            <Position>
              <LatitudeDegrees>43.342122919857501983642578125</LatitudeDegrees>
              <LongitudeDegrees>-8.3871061541140079498291015625</LongitudeDegrees>
            </Position>
            <AltitudeMeters>-14.19999980926513671875</AltitudeMeters>
            <DistanceMeters>3708.4943181468</DistanceMeters>
          </Trackpoint>
          <Trackpoint>
            <Time>2018-04-21T08:18:02.000Z</Time>
            <Position>
              <LatitudeDegrees>43.341860063374042510986328125</LatitudeDegrees>
              <LongitudeDegrees>-8.38719625957310199737548828125</LongitudeDegrees>
            </Position>
            <AltitudeMeters>-15.19999980926513671875</AltitudeMeters>
            <DistanceMeters>3738.646251191</DistanceMeters>
          </Trackpoint>
          <Trackpoint>
            <Time>2018-04-21T08:18:08.000Z</Time>
            <Position>
              <LatitudeDegrees>43.3414994738996028900146484375</LatitudeDegrees>
              <LongitudeDegrees>-8.387419469654560089111328125</LongitudeDegrees>
            </Position>
            <AltitudeMeters>-15.19999980926513671875</AltitudeMeters>
            <DistanceMeters>3782.6601387667</DistanceMeters>
          </Trackpoint>
          <Trackpoint>
            <Time>2018-04-21T08:18:12.000Z</Time>
            <Position>
              <LatitudeDegrees>43.34131180308759212493896484375</LatitudeDegrees>
              <LongitudeDegrees>-8.38760244660079479217529296875</LongitudeDegrees>
            </Position>
            <AltitudeMeters>-14</AltitudeMeters>
            <DistanceMeters>3808.266620578</DistanceMeters>
          </Trackpoint>
          <Trackpoint>
            <Time>2018-04-21T08:18:13.000Z</Time>
            <Position>
              <LatitudeDegrees>43.3412724919617176055908203125</LatitudeDegrees>
              <LongitudeDegrees>-8.38764636777341365814208984375</LongitudeDegrees>
            </Position>
            <AltitudeMeters>-14</AltitudeMeters>
            <DistanceMeters>3813.9045163807</DistanceMeters>
          </Trackpoint>
          <Trackpoint>
            <Time>2018-04-21T08:18:17.000Z</Time>
            <Position>
              <LatitudeDegrees>43.3411219529807567596435546875</LatitudeDegrees>
              <LongitudeDegrees>-8.3878481201827526092529296875</LongitudeDegrees>
            </Position>
            <AltitudeMeters>-12.80000019073486328125</AltitudeMeters>
            <DistanceMeters>3837.30232428</DistanceMeters>
          </Trackpoint>
          <Trackpoint>
            <Time>2018-04-21T08:18:19.000Z</Time>
            <Position>
              <LatitudeDegrees>43.341073505580425262451171875</LatitudeDegrees>
              <LongitudeDegrees>-8.387929759919643402099609375</LongitudeDegrees>
            </Position>
            <AltitudeMeters>-12.19999980926513671875</AltitudeMeters>
            <DistanceMeters>3845.8314681897</DistanceMeters>
          </Trackpoint>
          <Trackpoint>
            <Time>2018-04-21T08:18:20.000Z</Time>
            <Position>
              <LatitudeDegrees>43.34105783142149448394775390625</LatitudeDegrees>
              <LongitudeDegrees>-8.38795934803783893585205078125</LongitudeDegrees>
            </Position>
            <AltitudeMeters>-11.6000003814697265625</AltitudeMeters>
            <DistanceMeters>3848.7941079423</DistanceMeters>
          </Trackpoint>
          <Trackpoint>
            <Time>2018-04-21T08:18:23.000Z</Time>
            <Position>
              <LatitudeDegrees>43.34100703708827495574951171875</LatitudeDegrees>
              <LongitudeDegrees>-8.3880040235817432403564453125</LongitudeDegrees>
            </Position>
            <AltitudeMeters>-10.19999980926513671875</AltitudeMeters>
            <DistanceMeters>3855.5054432269</DistanceMeters>
          </Trackpoint>
          <Trackpoint>
            <Time>2018-04-21T08:18:24.000Z</Time>
            <Position>
              <LatitudeDegrees>43.340987004339694976806640625</LatitudeDegrees>
              <LongitudeDegrees>-8.3880093879997730255126953125</LongitudeDegrees>
            </Position>
            <AltitudeMeters>-9.3999996185302734375</AltitudeMeters>
            <DistanceMeters>3857.7781516829</DistanceMeters>
          </Trackpoint>
          <Trackpoint>
            <Time>2018-04-21T08:18:25.000Z</Time>
            <Position>
              <LatitudeDegrees>43.34096563048660755157470703125</LatitudeDegrees>
              <LongitudeDegrees>-8.3880137465894222259521484375</LongitudeDegrees>
            </Position>
            <AltitudeMeters>-9</AltitudeMeters>
            <DistanceMeters>3860.1821585307</DistanceMeters>
          </Trackpoint>
          <Trackpoint>
            <Time>2018-04-21T08:18:27.000Z</Time>
            <Position>
              <LatitudeDegrees>43.34091491997241973876953125</LatitudeDegrees>
              <LongitudeDegrees>-8.3880217932164669036865234375</LongitudeDegrees>
            </Position>
            <AltitudeMeters>-8.3999996185302734375</AltitudeMeters>
            <DistanceMeters>3865.8639296706</DistanceMeters>
          </Trackpoint>
          <Trackpoint>
            <Time>2018-04-21T08:18:29.000Z</Time>
            <Position>
              <LatitudeDegrees>43.34085281006991863250732421875</LatitudeDegrees>
              <LongitudeDegrees>-8.38802824728190898895263671875</LongitudeDegrees>
            </Position>
            <AltitudeMeters>-7.80000019073486328125</AltitudeMeters>
            <DistanceMeters>3872.7976247164</DistanceMeters>
          </Trackpoint>
          <Trackpoint>
            <Time>2018-04-21T08:18:30.000Z</Time>
            <Position>
              <LatitudeDegrees>43.34081810899078845977783203125</LatitudeDegrees>
              <LongitudeDegrees>-8.38803428225219249725341796875</LongitudeDegrees>
            </Position>
            <AltitudeMeters>-7.80000019073486328125</AltitudeMeters>
            <DistanceMeters>3876.691401591</DistanceMeters>
          </Trackpoint>
          <Trackpoint>
            <Time>2018-04-21T08:18:35.000Z</Time>
            <Position>
              <LatitudeDegrees>43.3405989222228527069091796875</LatitudeDegrees>
              <LongitudeDegrees>-8.38805473409593105316162109375</LongitudeDegrees>
            </Position>
            <AltitudeMeters>-7.80000019073486328125</AltitudeMeters>
            <DistanceMeters>3901.1437528412</DistanceMeters>
          </Trackpoint>
          <Trackpoint>
            <Time>2018-04-21T08:18:38.000Z</Time>
            <Position>
              <LatitudeDegrees>43.3404084853827953338623046875</LatitudeDegrees>
              <LongitudeDegrees>-8.3880440890789031982421875</LongitudeDegrees>
            </Position>
            <AltitudeMeters>-9.3999996185302734375</AltitudeMeters>
            <DistanceMeters>3922.3572829478</DistanceMeters>
          </Trackpoint>
          <Trackpoint>
            <Time>2018-04-21T08:18:39.000Z</Time>
            <Position>
              <LatitudeDegrees>43.34033380262553691864013671875</LatitudeDegrees>
              <LongitudeDegrees>-8.3880385570228099822998046875</LongitudeDegrees>
            </Position>
            <AltitudeMeters>-9.80000019073486328125</AltitudeMeters>
            <DistanceMeters>3930.6817532992</DistanceMeters>
          </Trackpoint>
          <Trackpoint>
            <Time>2018-04-21T08:18:41.000Z</Time>
            <Position>
              <LatitudeDegrees>43.340191058814525604248046875</LatitudeDegrees>
              <LongitudeDegrees>-8.3880164287984371185302734375</LongitudeDegrees>
            </Position>
            <AltitudeMeters>-10.6000003814697265625</AltitudeMeters>
            <DistanceMeters>3946.6694155368</DistanceMeters>
          </Trackpoint>
          <Trackpoint>
            <Time>2018-04-21T08:18:43.000Z</Time>
            <Position>
              <LatitudeDegrees>43.34005049429833889007568359375</LatitudeDegrees>
              <LongitudeDegrees>-8.38800092227756977081298828125</LongitudeDegrees>
            </Position>
            <AltitudeMeters>-11.80000019073486328125</AltitudeMeters>
            <DistanceMeters>3962.3646532027</DistanceMeters>
          </Trackpoint>
          <Trackpoint>
            <Time>2018-04-21T08:18:45.000Z</Time>
            <Position>
              <LatitudeDegrees>43.3399206586182117462158203125</LatitudeDegrees>
              <LongitudeDegrees>-8.3879751898348331451416015625</LongitudeDegrees>
            </Position>
            <AltitudeMeters>-13</AltitudeMeters>
            <DistanceMeters>3976.9647896588</DistanceMeters>
          </Trackpoint>
          <Trackpoint>
            <Time>2018-04-21T08:18:48.000Z</Time>
            <Position>
              <LatitudeDegrees>43.33979048766195774078369140625</LatitudeDegrees>
              <LongitudeDegrees>-8.3878437615931034088134765625</LongitudeDegrees>
            </Position>
            <AltitudeMeters>-13.6000003814697265625</AltitudeMeters>
            <DistanceMeters>3994.9401671324</DistanceMeters>
          </Trackpoint>
          <Trackpoint>
            <Time>2018-04-21T08:18:49.000Z</Time>
            <Position>
              <LatitudeDegrees>43.3397664315998554229736328125</LatitudeDegrees>
              <LongitudeDegrees>-8.38778651319444179534912109375</LongitudeDegrees>
            </Position>
            <AltitudeMeters>-14</AltitudeMeters>
            <DistanceMeters>4000.2921202787</DistanceMeters>
          </Trackpoint>
          <Trackpoint>
            <Time>2018-04-21T08:18:51.000Z</Time>
            <Position>
              <LatitudeDegrees>43.339721672236919403076171875</LatitudeDegrees>
              <LongitudeDegrees>-8.38772155344486236572265625</LongitudeDegrees>
            </Position>
            <AltitudeMeters>-14</AltitudeMeters>
            <DistanceMeters>4007.5359986747</DistanceMeters>
          </Trackpoint>
          <Trackpoint>
            <Time>2018-04-21T08:18:54.000Z</Time>
            <Position>
              <LatitudeDegrees>43.339679427444934844970703125</LatitudeDegrees>
              <LongitudeDegrees>-8.38775348849594593048095703125</LongitudeDegrees>
            </Position>
            <AltitudeMeters>-13.19999980926513671875</AltitudeMeters>
            <DistanceMeters>4012.9014328326</DistanceMeters>
          </Trackpoint>
          <Trackpoint>
            <Time>2018-04-21T08:18:57.000Z</Time>
            <Position>
              <LatitudeDegrees>43.33965470083057880401611328125</LatitudeDegrees>
              <LongitudeDegrees>-8.38785222731530666351318359375</LongitudeDegrees>
            </Position>
            <AltitudeMeters>-12.80000019073486328125</AltitudeMeters>
            <DistanceMeters>4021.35507258</DistanceMeters>
          </Trackpoint>
          <Trackpoint>
            <Time>2018-04-21T08:19:00.000Z</Time>
            <Position>
              <LatitudeDegrees>43.33964623510837554931640625</LatitudeDegrees>
              <LongitudeDegrees>-8.387953229248523712158203125</LongitudeDegrees>
            </Position>
            <AltitudeMeters>-11.6000003814697265625</AltitudeMeters>
            <DistanceMeters>4029.5851760669</DistanceMeters>
          </Trackpoint>
          <Trackpoint>
            <Time>2018-04-21T08:19:04.000Z</Time>
            <Position>
              <LatitudeDegrees>43.33961765281856060028076171875</LatitudeDegrees>
              <LongitudeDegrees>-8.388061188161373138427734375</LongitudeDegrees>
            </Position>
            <AltitudeMeters>-10.19999980926513671875</AltitudeMeters>
            <DistanceMeters>4038.8856654227</DistanceMeters>
          </Trackpoint>
          <Trackpoint>
            <Time>2018-04-21T08:19:06.000Z</Time>
            <Position>
              <LatitudeDegrees>43.3395974524319171905517578125</LatitudeDegrees>
              <LongitudeDegrees>-8.388100080192089080810546875</LongitudeDegrees>
            </Position>
            <AltitudeMeters>-9.80000019073486328125</AltitudeMeters>
            <DistanceMeters>4042.7550150766</DistanceMeters>
          </Trackpoint>
          <Trackpoint>
            <Time>2018-04-21T08:19:08.000Z</Time>
            <Position>
              <LatitudeDegrees>43.3395776711404323577880859375</LatitudeDegrees>
              <LongitudeDegrees>-8.388130255043506622314453125</LongitudeDegrees>
            </Position>
            <AltitudeMeters>-9</AltitudeMeters>
            <DistanceMeters>4046.044092695</DistanceMeters>
          </Trackpoint>
          <Trackpoint>
            <Time>2018-04-21T08:19:11.000Z</Time>
            <Position>
              <LatitudeDegrees>43.3395501784980297088623046875</LatitudeDegrees>
              <LongitudeDegrees>-8.38817744515836238861083984375</LongitudeDegrees>
            </Position>
            <AltitudeMeters>-8.19999980926513671875</AltitudeMeters>
            <DistanceMeters>4050.9386603782</DistanceMeters>
          </Trackpoint>
          <Trackpoint>
            <Time>2018-04-21T08:19:12.000Z</Time>
            <Position>
              <LatitudeDegrees>43.339537940919399261474609375</LatitudeDegrees>
              <LongitudeDegrees>-8.3881954662501811981201171875</LongitudeDegrees>
            </Position>
            <AltitudeMeters>-7.80000019073486328125</AltitudeMeters>
            <DistanceMeters>4052.93422138</DistanceMeters>
          </Trackpoint>
          <Trackpoint>
            <Time>2018-04-21T08:19:15.000Z</Time>
            <Position>
              <LatitudeDegrees>43.33950818516314029693603515625</LatitudeDegrees>
              <LongitudeDegrees>-8.388246260583400726318359375</LongitudeDegrees>
            </Position>
            <AltitudeMeters>-7</AltitudeMeters>
            <DistanceMeters>4058.2148346075</DistanceMeters>
          </Trackpoint>
          <Trackpoint>
            <Time>2018-04-21T08:19:16.000Z</Time>
            <Position>
              <LatitudeDegrees>43.33949737250804901123046875</LatitudeDegrees>
              <LongitudeDegrees>-8.3882628567516803741455078125</LongitudeDegrees>
            </Position>
            <AltitudeMeters>-6.599999904632568359375</AltitudeMeters>
            <DistanceMeters>4060.0178397434</DistanceMeters>
          </Trackpoint>
          <Trackpoint>
            <Time>2018-04-21T08:19:19.000Z</Time>
            <Position>
              <LatitudeDegrees>43.339473567903041839599609375</LatitudeDegrees>
              <LongitudeDegrees>-8.38831373490393161773681640625</LongitudeDegrees>
            </Position>
            <AltitudeMeters>-5.80000019073486328125</AltitudeMeters>
            <DistanceMeters>4064.9133297987</DistanceMeters>
          </Trackpoint>
          <Trackpoint>
            <Time>2018-04-21T08:19:20.000Z</Time>
            <Position>
              <LatitudeDegrees>43.33946560509502887725830078125</LatitudeDegrees>
              <LongitudeDegrees>-8.3883275650441646575927734375</LongitudeDegrees>
            </Position>
            <AltitudeMeters>-5.400000095367431640625</AltitudeMeters>
            <DistanceMeters>4066.3418945597</DistanceMeters>
          </Trackpoint>
          <Trackpoint>
            <Time>2018-04-21T08:19:23.000Z</Time>
            <Position>
              <LatitudeDegrees>43.33942956291139125823974609375</LatitudeDegrees>
              <LongitudeDegrees>-8.38835329748690128326416015625</LongitudeDegrees>
            </Position>
            <AltitudeMeters>-4.599999904632568359375</AltitudeMeters>
            <DistanceMeters>4070.8614114494</DistanceMeters>
          </Trackpoint>
          <Trackpoint>
            <Time>2018-04-21T08:19:24.000Z</Time>
            <Position>
              <LatitudeDegrees>43.3394174091517925262451171875</LatitudeDegrees>
              <LongitudeDegrees>-8.38836335577070713043212890625</LongitudeDegrees>
            </Position>
            <AltitudeMeters>-4.400000095367431640625</AltitudeMeters>
            <DistanceMeters>4072.442971178</DistanceMeters>
          </Trackpoint>
          <Trackpoint>
            <Time>2018-04-21T08:19:28.000Z</Time>
            <Position>
              <LatitudeDegrees>43.3393714763224124908447265625</LatitudeDegrees>
              <LongitudeDegrees>-8.38841029442846775054931640625</LongitudeDegrees>
            </Position>
            <AltitudeMeters>-3.2000000476837158203125</AltitudeMeters>
            <DistanceMeters>4078.8133058269</DistanceMeters>
          </Trackpoint>
          <Trackpoint>
            <Time>2018-04-21T08:19:31.000Z</Time>
            <Position>
              <LatitudeDegrees>43.3393413014709949493408203125</LatitudeDegrees>
              <LongitudeDegrees>-8.3884496055543422698974609375</LongitudeDegrees>
            </Position>
            <AltitudeMeters>-2.599999904632568359375</AltitudeMeters>
            <DistanceMeters>4083.439457702</DistanceMeters>
          </Trackpoint>
          <Trackpoint>
            <Time>2018-04-21T08:19:32.000Z</Time>
            <Position>
              <LatitudeDegrees>43.339329399168491363525390625</LatitudeDegrees>
              <LongitudeDegrees>-8.38845916092395782470703125</LongitudeDegrees>
            </Position>
            <AltitudeMeters>-2.2000000476837158203125</AltitudeMeters>
            <DistanceMeters>4084.9717174305</DistanceMeters>
          </Trackpoint>
          <Trackpoint>
            <Time>2018-04-21T08:19:36.000Z</Time>
            <Position>
              <LatitudeDegrees>43.33928489126265048980712890625</LatitudeDegrees>
              <LongitudeDegrees>-8.38849109597504138946533203125</LongitudeDegrees>
            </Position>
            <AltitudeMeters>-1.2000000476837158203125</AltitudeMeters>
            <DistanceMeters>4090.558932682</DistanceMeters>
          </Trackpoint>
          <Trackpoint>
            <Time>2018-04-21T08:19:38.000Z</Time>
            <Position>
              <LatitudeDegrees>43.3392641879618167877197265625</LatitudeDegrees>
              <LongitudeDegrees>-8.38850584812462329864501953125</LongitudeDegrees>
            </Position>
            <AltitudeMeters>-0.800000011920928955078125</AltitudeMeters>
            <DistanceMeters>4093.1543973855</DistanceMeters>
          </Trackpoint>
          <Trackpoint>
            <Time>2018-04-21T08:19:40.000Z</Time>
            <Position>
              <LatitudeDegrees>43.3392440713942050933837890625</LatitudeDegrees>
              <LongitudeDegrees>-8.38852445594966411590576171875</LongitudeDegrees>
            </Position>
            <AltitudeMeters>-0.20000000298023223876953125</AltitudeMeters>
            <DistanceMeters>4095.8522190279</DistanceMeters>
          </Trackpoint>
          <Trackpoint>
            <Time>2018-04-21T08:19:45.000Z</Time>
            <Position>
              <LatitudeDegrees>43.33918984048068523406982421875</LatitudeDegrees>
              <LongitudeDegrees>-8.3885770104825496673583984375</LongitudeDegrees>
            </Position>
            <AltitudeMeters>0.800000011920928955078125</AltitudeMeters>
            <DistanceMeters>4103.2362288849</DistanceMeters>
          </Trackpoint>
          <Trackpoint>
            <Time>2018-04-21T08:19:47.000Z</Time>
            <Position>
              <LatitudeDegrees>43.33916402421891689300537109375</LatitudeDegrees>
              <LongitudeDegrees>-8.388606011867523193359375</LongitudeDegrees>
            </Position>
            <AltitudeMeters>1.2000000476837158203125</AltitudeMeters>
            <DistanceMeters>4106.9459238185</DistanceMeters>
          </Trackpoint>
          <Trackpoint>
            <Time>2018-04-21T08:19:50.000Z</Time>
            <Position>
              <LatitudeDegrees>43.339111804962158203125</LatitudeDegrees>
              <LongitudeDegrees>-8.388659656047821044921875</LongitudeDegrees>
            </Position>
            <AltitudeMeters>2</AltitudeMeters>
            <DistanceMeters>4114.2003904092</DistanceMeters>
          </Trackpoint>
          <Trackpoint>
            <Time>2018-04-21T08:19:53.000Z</Time>
            <Position>
              <LatitudeDegrees>43.33903661929070949554443359375</LatitudeDegrees>
              <LongitudeDegrees>-8.3886980451643466949462890625</LongitudeDegrees>
            </Position>
            <AltitudeMeters>2.400000095367431640625</AltitudeMeters>
            <DistanceMeters>4123.1268339642</DistanceMeters>
          </Trackpoint>
          <Trackpoint>
            <Time>2018-04-21T08:19:55.000Z</Time>
            <Position>
              <LatitudeDegrees>43.33898632787168025970458984375</LatitudeDegrees>
              <LongitudeDegrees>-8.3887101151049137115478515625</LongitudeDegrees>
            </Position>
            <AltitudeMeters>3.2000000476837158203125</AltitudeMeters>
            <DistanceMeters>4128.809399702</DistanceMeters>
          </Trackpoint>
          <Trackpoint>
            <Time>2018-04-21T08:19:59.000Z</Time>
            <Position>
              <LatitudeDegrees>43.33889027126133441925048828125</LatitudeDegrees>
              <LongitudeDegrees>-8.38876334019005298614501953125</LongitudeDegrees>
            </Position>
            <AltitudeMeters>3.7999999523162841796875</AltitudeMeters>
            <DistanceMeters>4140.335869878</DistanceMeters>
          </Trackpoint>
          <Trackpoint>
            <Time>2018-04-21T08:20:05.000Z</Time>
            <Position>
              <LatitudeDegrees>43.338733948767185211181640625</LatitudeDegrees>
              <LongitudeDegrees>-8.3887644298374652862548828125</LongitudeDegrees>
            </Position>
            <AltitudeMeters>4.400000095367431640625</AltitudeMeters>
            <DistanceMeters>4157.7348434888</DistanceMeters>
          </Trackpoint>
          <Trackpoint>
            <Time>2018-04-21T08:20:10.000Z</Time>
            <Position>
              <LatitudeDegrees>43.338579051196575164794921875</LatitudeDegrees>
              <LongitudeDegrees>-8.38873785920441150665283203125</LongitudeDegrees>
            </Position>
            <AltitudeMeters>5</AltitudeMeters>
            <DistanceMeters>4175.1091470848</DistanceMeters>
          </Trackpoint>
          <Trackpoint>
            <Time>2018-04-21T08:20:15.000Z</Time>
            <Position>
              <LatitudeDegrees>43.33840764127671718597412109375</LatitudeDegrees>
              <LongitudeDegrees>-8.3887298963963985443115234375</LongitudeDegrees>
            </Position>
            <AltitudeMeters>5.19999980926513671875</AltitudeMeters>
            <DistanceMeters>4194.1984033516</DistanceMeters>
          </Trackpoint>
          <Trackpoint>
            <Time>2018-04-21T08:20:16.000Z</Time>
            <Position>
              <LatitudeDegrees>43.33837461657822132110595703125</LatitudeDegrees>
              <LongitudeDegrees>-8.38873249478638172149658203125</LongitudeDegrees>
            </Position>
            <AltitudeMeters>5.400000095367431640625</AltitudeMeters>
            <DistanceMeters>4197.8799987588</DistanceMeters>
          </Trackpoint>
          <Trackpoint>
            <Time>2018-04-21T08:20:21.000Z</Time>
            <Position>
              <LatitudeDegrees>43.3381664939224720001220703125</LatitudeDegrees>
              <LongitudeDegrees>-8.3887262083590030670166015625</LongitudeDegrees>
            </Position>
            <AltitudeMeters>6.19999980926513671875</AltitudeMeters>
            <DistanceMeters>4221.050154234</DistanceMeters>
          </Trackpoint>
          <Trackpoint>
            <Time>2018-04-21T08:20:27.000Z</Time>
            <Position>
              <LatitudeDegrees>43.3378684334456920623779296875</LatitudeDegrees>
              <LongitudeDegrees>-8.3887785114347934722900390625</LongitudeDegrees>
            </Position>
            <AltitudeMeters>6</AltitudeMeters>
            <DistanceMeters>4254.4940230081</DistanceMeters>
          </Trackpoint>
          <Trackpoint>
            <Time>2018-04-21T08:20:34.000Z</Time>
            <Position>
              <LatitudeDegrees>43.3375073410570621490478515625</LatitudeDegrees>
              <LongitudeDegrees>-8.3888415433466434478759765625</LongitudeDegrees>
            </Position>
            <AltitudeMeters>5.400000095367431640625</AltitudeMeters>
            <DistanceMeters>4295.0069550716</DistanceMeters>
          </Trackpoint>
          <Trackpoint>
            <Time>2018-04-21T08:20:37.000Z</Time>
            <Position>
              <LatitudeDegrees>43.33737314678728580474853515625</LatitudeDegrees>
              <LongitudeDegrees>-8.38884137570858001708984375</LongitudeDegrees>
            </Position>
            <AltitudeMeters>5</AltitudeMeters>
            <DistanceMeters>4309.9427847597</DistanceMeters>
          </Trackpoint>
          <Trackpoint>
            <Time>2018-04-21T08:20:38.000Z</Time>
            <Position>
              <LatitudeDegrees>43.337345905601978302001953125</LatitudeDegrees>
              <LongitudeDegrees>-8.3888224326074123382568359375</LongitudeDegrees>
            </Position>
            <AltitudeMeters>4.400000095367431640625</AltitudeMeters>
            <DistanceMeters>4313.3399067321</DistanceMeters>
          </Trackpoint>
          <Trackpoint>
            <Time>2018-04-21T08:20:40.000Z</Time>
            <Position>
              <LatitudeDegrees>43.33729972131550312042236328125</LatitudeDegrees>
              <LongitudeDegrees>-8.3888220973312854766845703125</LongitudeDegrees>
            </Position>
            <AltitudeMeters>3</AltitudeMeters>
            <DistanceMeters>4318.4801405473</DistanceMeters>
          </Trackpoint>
          <Trackpoint>
            <Time>2018-04-21T08:20:41.000Z</Time>
            <Position>
              <LatitudeDegrees>43.33727759309113025665283203125</LatitudeDegrees>
              <LongitudeDegrees>-8.38884464465081691741943359375</LongitudeDegrees>
            </Position>
            <AltitudeMeters>3.400000095367431640625</AltitudeMeters>
            <DistanceMeters>4321.5461329769</DistanceMeters>
          </Trackpoint>
          <Trackpoint>
            <Time>2018-04-21T08:20:45.000Z</Time>
            <Position>
              <LatitudeDegrees>43.33713795058429241180419921875</LatitudeDegrees>
              <LongitudeDegrees>-8.38891320861876010894775390625</LongitudeDegrees>
            </Position>
            <AltitudeMeters>4</AltitudeMeters>
            <DistanceMeters>4338.0501696302</DistanceMeters>
          </Trackpoint>
          <Trackpoint>
            <Time>2018-04-21T08:20:46.000Z</Time>
            <Position>
              <LatitudeDegrees>43.33709277212619781494140625</LatitudeDegrees>
              <LongitudeDegrees>-8.3889211714267730712890625</LongitudeDegrees>
            </Position>
            <AltitudeMeters>4.19999980926513671875</AltitudeMeters>
            <DistanceMeters>4343.1196466801</DistanceMeters>
          </Trackpoint>
          <Trackpoint>
            <Time>2018-04-21T08:20:47.000Z</Time>
            <Position>
              <LatitudeDegrees>43.3370446600019931793212890625</LatitudeDegrees>
              <LongitudeDegrees>-8.38892997242510318756103515625</LongitudeDegrees>
            </Position>
            <AltitudeMeters>4</AltitudeMeters>
            <DistanceMeters>4348.5219801636</DistanceMeters>
          </Trackpoint>
          <Trackpoint>
            <Time>2018-04-21T08:20:51.000Z</Time>
            <Position>
              <LatitudeDegrees>43.33684198558330535888671875</LatitudeDegrees>
              <LongitudeDegrees>-8.388965092599391937255859375</LongitudeDegrees>
            </Position>
            <AltitudeMeters>4</AltitudeMeters>
            <DistanceMeters>4371.2585985636</DistanceMeters>
          </Trackpoint>
          <Trackpoint>
            <Time>2018-04-21T08:21:00.000Z</Time>
            <Position>
              <LatitudeDegrees>43.33636547438800334930419921875</LatitudeDegrees>
              <LongitudeDegrees>-8.389050252735614776611328125</LongitudeDegrees>
            </Position>
            <AltitudeMeters>3.7999999523162841796875</AltitudeMeters>
            <DistanceMeters>4424.7413353551</DistanceMeters>
          </Trackpoint>
          <Trackpoint>
            <Time>2018-04-21T08:21:03.000Z</Time>
            <Position>
              <LatitudeDegrees>43.336215354502201080322265625</LatitudeDegrees>
              <LongitudeDegrees>-8.3890849538147449493408203125</LongitudeDegrees>
            </Position>
            <AltitudeMeters>3.7999999523162841796875</AltitudeMeters>
            <DistanceMeters>4441.6843613585</DistanceMeters>
          </Trackpoint>
          <Trackpoint>
            <Time>2018-04-21T08:21:06.000Z</Time>
            <Position>
              <LatitudeDegrees>43.3360703475773334503173828125</LatitudeDegrees>
              <LongitudeDegrees>-8.38914119638502597808837890625</LongitudeDegrees>
            </Position>
            <AltitudeMeters>3.599999904632568359375</AltitudeMeters>
            <DistanceMeters>4458.4538169435</DistanceMeters>
          </Trackpoint>
          <Trackpoint>
            <Time>2018-04-21T08:21:07.000Z</Time>
            <Position>
              <LatitudeDegrees>43.33601846359670162200927734375</LatitudeDegrees>
              <LongitudeDegrees>-8.389150835573673248291015625</LongitudeDegrees>
            </Position>
            <AltitudeMeters>3.7999999523162841796875</AltitudeMeters>
            <DistanceMeters>4464.2807447301</DistanceMeters>
          </Trackpoint>
          <Trackpoint>
            <Time>2018-04-21T08:21:10.000Z</Time>
            <Position>
              <LatitudeDegrees>43.3358837664127349853515625</LatitudeDegrees>
              <LongitudeDegrees>-8.389163576066493988037109375</LongitudeDegrees>
            </Position>
            <AltitudeMeters>3.2000000476837158203125</AltitudeMeters>
            <DistanceMeters>4479.3081913432</DistanceMeters>
          </Trackpoint>
          <Trackpoint>
            <Time>2018-04-21T08:21:12.000Z</Time>
            <Position>
              <LatitudeDegrees>43.335810340940952301025390625</LatitudeDegrees>
              <LongitudeDegrees>-8.3891570381820201873779296875</LongitudeDegrees>
            </Position>
            <AltitudeMeters>2.7999999523162841796875</AltitudeMeters>
            <DistanceMeters>4487.4975977777</DistanceMeters>
          </Trackpoint>
          <Trackpoint>
            <Time>2018-04-21T08:21:14.000Z</Time>
            <Position>
              <LatitudeDegrees>43.33571973256766796112060546875</LatitudeDegrees>
              <LongitudeDegrees>-8.3891665935516357421875</LongitudeDegrees>
            </Position>
            <AltitudeMeters>3</AltitudeMeters>
            <DistanceMeters>4497.6124762302</DistanceMeters>
          </Trackpoint>
          <Trackpoint>
            <Time>2018-04-21T08:21:15.000Z</Time>
            <Position>
              <LatitudeDegrees>43.33566877059638500213623046875</LatitudeDegrees>
              <LongitudeDegrees>-8.3891691081225872039794921875</LongitudeDegrees>
            </Position>
            <AltitudeMeters>3.2000000476837158203125</AltitudeMeters>
            <DistanceMeters>4503.2886820715</DistanceMeters>
          </Trackpoint>
          <Trackpoint>
            <Time>2018-04-21T08:21:22.000Z</Time>
            <Position>
              <LatitudeDegrees>43.33529242314398288726806640625</LatitudeDegrees>
              <LongitudeDegrees>-8.38923892937600612640380859375</LongitudeDegrees>
            </Position>
            <AltitudeMeters>3</AltitudeMeters>
            <DistanceMeters>4545.5564535308</DistanceMeters>
          </Trackpoint>
          <Trackpoint>
            <Time>2018-04-21T08:21:28.000Z</Time>
            <Position>
              <LatitudeDegrees>43.33497759886085987091064453125</LatitudeDegrees>
              <LongitudeDegrees>-8.3893052302300930023193359375</LongitudeDegrees>
            </Position>
            <AltitudeMeters>1.7999999523162841796875</AltitudeMeters>
            <DistanceMeters>4581.0056213362</DistanceMeters>
          </Trackpoint>
          <Trackpoint>
            <Time>2018-04-21T08:21:34.000Z</Time>
            <Position>
              <LatitudeDegrees>43.33471901714801788330078125</LatitudeDegrees>
              <LongitudeDegrees>-8.38931537233293056488037109375</LongitudeDegrees>
            </Position>
            <AltitudeMeters>1.7999999523162841796875</AltitudeMeters>
            <DistanceMeters>4609.7980885445</DistanceMeters>
          </Trackpoint>
          <Trackpoint>
            <Time>2018-04-21T08:21:39.000Z</Time>
            <Position>
              <LatitudeDegrees>43.3344246447086334228515625</LatitudeDegrees>
              <LongitudeDegrees>-8.3893253467977046966552734375</LongitudeDegrees>
            </Position>
            <AltitudeMeters>2.599999904632568359375</AltitudeMeters>
            <DistanceMeters>4642.5722499092</DistanceMeters>
          </Trackpoint>
          <Trackpoint>
            <Time>2018-04-21T08:21:41.000Z</Time>
            <Position>
              <LatitudeDegrees>43.33429866470396518707275390625</LatitudeDegrees>
              <LongitudeDegrees>-8.38930866681039333343505859375</LongitudeDegrees>
            </Position>
            <AltitudeMeters>1.7999999523162841796875</AltitudeMeters>
            <DistanceMeters>4656.6586582442</DistanceMeters>
          </Trackpoint>
          <Trackpoint>
            <Time>2018-04-21T08:21:48.000Z</Time>
            <Position>
              <LatitudeDegrees>43.33386179991066455841064453125</LatitudeDegrees>
              <LongitudeDegrees>-8.38914102874696254730224609375</LongitudeDegrees>
            </Position>
            <AltitudeMeters>1.39999997615814208984375</AltitudeMeters>
            <DistanceMeters>4707.1410133203</DistanceMeters>
          </Trackpoint>
          <Trackpoint>
            <Time>2018-04-21T08:21:52.000Z</Time>
            <Position>
              <LatitudeDegrees>43.33363716490566730499267578125</LatitudeDegrees>
              <LongitudeDegrees>-8.38900499045848846435546875</LongitudeDegrees>
            </Position>
            <AltitudeMeters>1.60000002384185791015625</AltitudeMeters>
            <DistanceMeters>4734.4614829119</DistanceMeters>
          </Trackpoint>
          <Trackpoint>
            <Time>2018-04-21T08:21:53.000Z</Time>
            <Position>
              <LatitudeDegrees>43.3335893042385578155517578125</LatitudeDegrees>
              <LongitudeDegrees>-8.3889555372297763824462890625</LongitudeDegrees>
            </Position>
            <AltitudeMeters>1.2000000476837158203125</AltitudeMeters>
            <DistanceMeters>4741.1242042627</DistanceMeters>
          </Trackpoint>
          <Trackpoint>
            <Time>2018-04-21T08:21:59.000Z</Time>
            <Position>
              <LatitudeDegrees>43.33333633840084075927734375</LatitudeDegrees>
              <LongitudeDegrees>-8.3885568939149379730224609375</LongitudeDegrees>
            </Position>
            <AltitudeMeters>0.60000002384185791015625</AltitudeMeters>
            <DistanceMeters>4783.9529036151</DistanceMeters>
          </Trackpoint>
          <Trackpoint>
            <Time>2018-04-21T08:22:02.000Z</Time>
            <Position>
              <LatitudeDegrees>43.33323885686695575714111328125</LatitudeDegrees>
              <LongitudeDegrees>-8.38837006129324436187744140625</LongitudeDegrees>
            </Position>
            <AltitudeMeters>0.20000000298023223876953125</AltitudeMeters>
            <DistanceMeters>4802.5677128643</DistanceMeters>
          </Trackpoint>
          <Trackpoint>
            <Time>2018-04-21T08:22:03.000Z</Time>
            <Position>
              <LatitudeDegrees>43.33320432342588901519775390625</LatitudeDegrees>
              <LongitudeDegrees>-8.38832412846386432647705078125</LongitudeDegrees>
            </Position>
            <AltitudeMeters>0</AltitudeMeters>
            <DistanceMeters>4807.9154462251</DistanceMeters>
          </Trackpoint>
          <Trackpoint>
            <Time>2018-04-21T08:22:04.000Z</Time>
            <Position>
              <LatitudeDegrees>43.3331735618412494659423828125</LatitudeDegrees>
              <LongitudeDegrees>-8.38828356005251407623291015625</LongitudeDegrees>
            </Position>
            <AltitudeMeters>-0.4000000059604644775390625</AltitudeMeters>
            <DistanceMeters>4812.6601254107</DistanceMeters>
          </Trackpoint>
          <Trackpoint>
            <Time>2018-04-21T08:22:07.000Z</Time>
            <Position>
              <LatitudeDegrees>43.33311698399484157562255859375</LatitudeDegrees>
              <LongitudeDegrees>-8.38813595473766326904296875</LongitudeDegrees>
            </Position>
            <AltitudeMeters>-0.60000002384185791015625</AltitudeMeters>
            <DistanceMeters>4826.1679647874</DistanceMeters>
          </Trackpoint>
          <Trackpoint>
            <Time>2018-04-21T08:22:11.000Z</Time>
            <Position>
              <LatitudeDegrees>43.333152942359447479248046875</LatitudeDegrees>
              <LongitudeDegrees>-8.3878645487129688262939453125</LongitudeDegrees>
            </Position>
            <AltitudeMeters>-0.800000011920928955078125</AltitudeMeters>
            <DistanceMeters>4848.502275226</DistanceMeters>
          </Trackpoint>
          <Trackpoint>
            <Time>2018-04-21T08:22:13.000Z</Time>
            <Position>
              <LatitudeDegrees>43.33318077027797698974609375</LatitudeDegrees>
              <LongitudeDegrees>-8.38771082460880279541015625</LongitudeDegrees>
            </Position>
            <AltitudeMeters>-1.60000002384185791015625</AltitudeMeters>
            <DistanceMeters>4861.327361675</DistanceMeters>
          </Trackpoint>
          <Trackpoint>
            <Time>2018-04-21T08:22:16.000Z</Time>
            <Position>
              <LatitudeDegrees>43.3332015573978424072265625</LatitudeDegrees>
              <LongitudeDegrees>-8.3874424360692501068115234375</LongitudeDegrees>
            </Position>
            <AltitudeMeters>-1.39999997615814208984375</AltitudeMeters>
            <DistanceMeters>4883.1785475022</DistanceMeters>
          </Trackpoint>
          <Trackpoint>
            <Time>2018-04-21T08:22:21.000Z</Time>
            <Position>
              <LatitudeDegrees>43.33320532925426959991455078125</LatitudeDegrees>
              <LongitudeDegrees>-8.38694983161985874176025390625</LongitudeDegrees>
            </Position>
            <AltitudeMeters>-2.2000000476837158203125</AltitudeMeters>
            <DistanceMeters>4923.0612493346</DistanceMeters>
          </Trackpoint>
          <Trackpoint>
            <Time>2018-04-21T08:22:22.000Z</Time>
            <Position>
              <LatitudeDegrees>43.33319149911403656005859375</LatitudeDegrees>
              <LongitudeDegrees>-8.38684757240116596221923828125</LongitudeDegrees>
            </Position>
            <AltitudeMeters>-3.2000000476837158203125</AltitudeMeters>
            <DistanceMeters>4931.4817101437</DistanceMeters>
          </Trackpoint>
          <Trackpoint>
            <Time>2018-04-21T08:22:24.000Z</Time>
            <Position>
              <LatitudeDegrees>43.33314967341721057891845703125</LatitudeDegrees>
              <LongitudeDegrees>-8.38665562681853771209716796875</LongitudeDegrees>
            </Position>
            <AltitudeMeters>-4</AltitudeMeters>
            <DistanceMeters>4947.7037472454</DistanceMeters>
          </Trackpoint>
          <Trackpoint>
            <Time>2018-04-21T08:22:25.000Z</Time>
            <Position>
              <LatitudeDegrees>43.33310575224459171295166015625</LatitudeDegrees>
              <LongitudeDegrees>-8.3865697123110294342041015625</LongitudeDegrees>
            </Position>
            <AltitudeMeters>-4.19999980926513671875</AltitudeMeters>
            <DistanceMeters>4956.2053195622</DistanceMeters>
          </Trackpoint>
          <Trackpoint>
            <Time>2018-04-21T08:22:26.000Z</Time>
            <Position>
              <LatitudeDegrees>43.33305336534976959228515625</LatitudeDegrees>
              <LongitudeDegrees>-8.3864884078502655029296875</LongitudeDegrees>
            </Position>
            <AltitudeMeters>-4.599999904632568359375</AltitudeMeters>
            <DistanceMeters>4964.9992705893</DistanceMeters>
          </Trackpoint>
          <Trackpoint>
            <Time>2018-04-21T08:22:30.000Z</Time>
            <Position>
              <LatitudeDegrees>43.3327792771160602569580078125</LatitudeDegrees>
              <LongitudeDegrees>-8.38621079921722412109375</LongitudeDegrees>
            </Position>
            <AltitudeMeters>-5.19999980926513671875</AltitudeMeters>
            <DistanceMeters>5002.8908676065</DistanceMeters>
          </Trackpoint>
          <Trackpoint>
            <Time>2018-04-21T08:22:31.000Z</Time>
            <Position>
              <LatitudeDegrees>43.33271683193743228912353515625</LatitudeDegrees>
              <LongitudeDegrees>-8.38613913394510746002197265625</LongitudeDegrees>
            </Position>
            <AltitudeMeters>-5</AltitudeMeters>
            <DistanceMeters>5011.9448741206</DistanceMeters>
          </Trackpoint>
          <Trackpoint>
            <Time>2018-04-21T08:22:33.000Z</Time>
            <Position>
              <LatitudeDegrees>43.33264558576047420501708984375</LatitudeDegrees>
              <LongitudeDegrees>-8.38594190776348114013671875</LongitudeDegrees>
            </Position>
            <AltitudeMeters>-5.400000095367431640625</AltitudeMeters>
            <DistanceMeters>5029.7729595668</DistanceMeters>
          </Trackpoint>
          <Trackpoint>
            <Time>2018-04-21T08:22:35.000Z</Time>
            <Position>
              <LatitudeDegrees>43.33264441229403018951416015625</LatitudeDegrees>
              <LongitudeDegrees>-8.38570528663694858551025390625</LongitudeDegrees>
            </Position>
            <AltitudeMeters>-6.80000019073486328125</AltitudeMeters>
            <DistanceMeters>5048.9302132018</DistanceMeters>
          </Trackpoint>
          <Trackpoint>
            <Time>2018-04-21T08:22:36.000Z</Time>
            <Position>
              <LatitudeDegrees>43.33266067318618297576904296875</LatitudeDegrees>
              <LongitudeDegrees>-8.3855910412967205047607421875</LongitudeDegrees>
            </Position>
            <AltitudeMeters>-7.400000095367431640625</AltitudeMeters>
            <DistanceMeters>5058.3546406063</DistanceMeters>
          </Trackpoint>
          <Trackpoint>
            <Time>2018-04-21T08:22:38.000Z</Time>
            <Position>
              <LatitudeDegrees>43.3327380381524562835693359375</LatitudeDegrees>
              <LongitudeDegrees>-8.385385684669017791748046875</LongitudeDegrees>
            </Position>
            <AltitudeMeters>-7.80000019073486328125</AltitudeMeters>
            <DistanceMeters>5077.0777973281</DistanceMeters>
          </Trackpoint>
          <Trackpoint>
            <Time>2018-04-21T08:22:39.000Z</Time>
            <Position>
              <LatitudeDegrees>43.33279277198016643524169921875</LatitudeDegrees>
              <LongitudeDegrees>-8.385290801525115966796875</LongitudeDegrees>
            </Position>
            <AltitudeMeters>-8.19999980926513671875</AltitudeMeters>
            <DistanceMeters>5086.8816809295</DistanceMeters>
          </Trackpoint>
          <Trackpoint>
            <Time>2018-04-21T08:22:41.000Z</Time>
            <Position>
              <LatitudeDegrees>43.33293157629668712615966796875</LatitudeDegrees>
              <LongitudeDegrees>-8.38509374298155307769775390625</LongitudeDegrees>
            </Position>
            <AltitudeMeters>-9.3999996185302734375</AltitudeMeters>
            <DistanceMeters>5109.089893717</DistanceMeters>
          </Trackpoint>
          <Trackpoint>
            <Time>2018-04-21T08:22:43.000Z</Time>
            <Position>
              <LatitudeDegrees>43.33307876251637935638427734375</LatitudeDegrees>
              <LongitudeDegrees>-8.38489039801061153411865234375</LongitudeDegrees>
            </Position>
            <AltitudeMeters>-11</AltitudeMeters>
            <DistanceMeters>5132.31454713</DistanceMeters>
          </Trackpoint>
          <Trackpoint>
            <Time>2018-04-21T08:22:44.000Z</Time>
            <Position>
              <LatitudeDegrees>43.33315084688365459442138671875</LatitudeDegrees>
              <LongitudeDegrees>-8.38478545658290386199951171875</LongitudeDegrees>
            </Position>
            <AltitudeMeters>-12</AltitudeMeters>
            <DistanceMeters>5143.9997422892</DistanceMeters>
          </Trackpoint>
          <Trackpoint>
            <Time>2018-04-21T08:22:45.000Z</Time>
            <Position>
              <LatitudeDegrees>43.3332114480435848236083984375</LatitudeDegrees>
              <LongitudeDegrees>-8.38467858731746673583984375</LongitudeDegrees>
            </Position>
            <AltitudeMeters>-12.80000019073486328125</AltitudeMeters>
            <DistanceMeters>5154.9702873461</DistanceMeters>
          </Trackpoint>
          <Trackpoint>
            <Time>2018-04-21T08:22:46.000Z</Time>
            <Position>
              <LatitudeDegrees>43.33325830288231372833251953125</LatitudeDegrees>
              <LongitudeDegrees>-8.38457557372748851776123046875</LongitudeDegrees>
            </Position>
            <AltitudeMeters>-13.80000019073486328125</AltitudeMeters>
            <DistanceMeters>5164.8063556165</DistanceMeters>
          </Trackpoint>
          <Trackpoint>
            <Time>2018-04-21T08:22:47.000Z</Time>
            <Position>
              <LatitudeDegrees>43.3332875557243824005126953125</LatitudeDegrees>
              <LongitudeDegrees>-8.384473063051700592041015625</LongitudeDegrees>
            </Position>
            <AltitudeMeters>-15.19999980926513671875</AltitudeMeters>
            <DistanceMeters>5173.7206515902</DistanceMeters>
          </Trackpoint>
          <Trackpoint>
            <Time>2018-04-21T08:22:48.000Z</Time>
            <Position>
              <LatitudeDegrees>43.3332945965230464935302734375</LatitudeDegrees>
              <LongitudeDegrees>-8.38437524624168872833251953125</LongitudeDegrees>
            </Position>
            <AltitudeMeters>-16.3999996185302734375</AltitudeMeters>
            <DistanceMeters>5181.6785361145</DistanceMeters>
          </Trackpoint>
          <Trackpoint>
            <Time>2018-04-21T08:22:49.000Z</Time>
            <Position>
              <LatitudeDegrees>43.33328328095376491546630859375</LatitudeDegrees>
              <LongitudeDegrees>-8.3842928521335124969482421875</LongitudeDegrees>
            </Position>
            <AltitudeMeters>-17.6000003814697265625</AltitudeMeters>
            <DistanceMeters>5188.4661314189</DistanceMeters>
          </Trackpoint>
          <Trackpoint>
            <Time>2018-04-21T08:22:50.000Z</Time>
            <Position>
              <LatitudeDegrees>43.33326567895710468292236328125</LatitudeDegrees>
              <LongitudeDegrees>-8.38422596454620361328125</LongitudeDegrees>
            </Position>
            <AltitudeMeters>-19</AltitudeMeters>
            <DistanceMeters>5194.2244680453</DistanceMeters>
          </Trackpoint>
          <Trackpoint>
            <Time>2018-04-21T08:22:51.000Z</Time>
            <Position>
              <LatitudeDegrees>43.333246819674968719482421875</LatitudeDegrees>
              <LongitudeDegrees>-8.38416226208209991455078125</LongitudeDegrees>
            </Position>
            <AltitudeMeters>-19.3999996185302734375</AltitudeMeters>
            <DistanceMeters>5199.7922550771</DistanceMeters>
          </Trackpoint>
          <Trackpoint>
            <Time>2018-04-21T08:22:52.000Z</Time>
            <Position>
              <LatitudeDegrees>43.33320625126361846923828125</LatitudeDegrees>
              <LongitudeDegrees>-8.38409520685672760009765625</LongitudeDegrees>
            </Position>
            <AltitudeMeters>-20.200000762939453125</AltitudeMeters>
            <DistanceMeters>5206.854344867</DistanceMeters>
          </Trackpoint>
          <Trackpoint>
            <Time>2018-04-21T08:22:53.000Z</Time>
            <Position>
              <LatitudeDegrees>43.33318881690502166748046875</LatitudeDegrees>
              <LongitudeDegrees>-8.3840165846049785614013671875</LongitudeDegrees>
            </Position>
            <AltitudeMeters>-20.6000003814697265625</AltitudeMeters>
            <DistanceMeters>5213.508929368</DistanceMeters>
          </Trackpoint>
          <Trackpoint>
            <Time>2018-04-21T08:22:54.000Z</Time>
            <Position>
              <LatitudeDegrees>43.33318077027797698974609375</LatitudeDegrees>
              <LongitudeDegrees>-8.38393167592585086822509765625</LongitudeDegrees>
            </Position>
            <AltitudeMeters>-20.799999237060546875</AltitudeMeters>
            <DistanceMeters>5220.4413219445</DistanceMeters>
          </Trackpoint>
          <Trackpoint>
            <Time>2018-04-21T08:22:55.000Z</Time>
            <Position>
              <LatitudeDegrees>43.3331812731921672821044921875</LatitudeDegrees>
              <LongitudeDegrees>-8.3838573284447193145751953125</LongitudeDegrees>
            </Position>
            <AltitudeMeters>-21</AltitudeMeters>
            <DistanceMeters>5226.4610974195</DistanceMeters>
          </Trackpoint>
          <Trackpoint>
            <Time>2018-04-21T08:22:56.000Z</Time>
            <Position>
              <LatitudeDegrees>43.33319460041821002960205078125</LatitudeDegrees>
              <LongitudeDegrees>-8.38379354216158390045166015625</LongitudeDegrees>
            </Position>
            <AltitudeMeters>-21.3999996185302734375</AltitudeMeters>
            <DistanceMeters>5231.8332593972</DistanceMeters>
          </Trackpoint>
          <Trackpoint>
            <Time>2018-04-21T08:22:57.000Z</Time>
            <Position>
              <LatitudeDegrees>43.33322008140385150909423828125</LatitudeDegrees>
              <LongitudeDegrees>-8.3837336115539073944091796875</LongitudeDegrees>
            </Position>
            <AltitudeMeters>-21.799999237060546875</AltitudeMeters>
            <DistanceMeters>5237.4535091604</DistanceMeters>
          </Trackpoint>
          <Trackpoint>
            <Time>2018-04-21T08:22:59.000Z</Time>
            <Position>
              <LatitudeDegrees>43.33328663371503353118896484375</LatitudeDegrees>
              <LongitudeDegrees>-8.38362607173621654510498046875</LongitudeDegrees>
            </Position>
            <AltitudeMeters>-22</AltitudeMeters>
            <DistanceMeters>5248.8843974087</DistanceMeters>
          </Trackpoint>
          <Trackpoint>
            <Time>2018-04-21T08:23:00.000Z</Time>
            <Position>
              <LatitudeDegrees>43.333315886557102203369140625</LatitudeDegrees>
              <LongitudeDegrees>-8.38356723077595233917236328125</LongitudeDegrees>
            </Position>
            <AltitudeMeters>-22</AltitudeMeters>
            <DistanceMeters>5254.6537008131</DistanceMeters>
          </Trackpoint>
          <Trackpoint>
            <Time>2018-04-21T08:23:01.000Z</Time>
            <Position>
              <LatitudeDegrees>43.33333105780184268951416015625</LatitudeDegrees>
              <LongitudeDegrees>-8.38350738398730754852294921875</LongitudeDegrees>
            </Position>
            <AltitudeMeters>-21.799999237060546875</AltitudeMeters>
            <DistanceMeters>5259.7842634367</DistanceMeters>
          </Trackpoint>
          <Trackpoint>
            <Time>2018-04-21T08:23:04.000Z</Time>
            <Position>
              <LatitudeDegrees>43.33334413357079029083251953125</LatitudeDegrees>
              <LongitudeDegrees>-8.383413590490818023681640625</LongitudeDegrees>
            </Position>
            <AltitudeMeters>-22.200000762939453125</AltitudeMeters>
            <DistanceMeters>5267.5159583388</DistanceMeters>
          </Trackpoint>
          <Trackpoint>
            <Time>2018-04-21T08:23:06.000Z</Time>
            <Position>
              <LatitudeDegrees>43.33332586102187633514404296875</LatitudeDegrees>
              <LongitudeDegrees>-8.38338132016360759735107421875</LongitudeDegrees>
            </Position>
            <AltitudeMeters>-22.3999996185302734375</AltitudeMeters>
            <DistanceMeters>5270.8269268984</DistanceMeters>
          </Trackpoint>
          <Trackpoint>
            <Time>2018-04-21T08:23:07.000Z</Time>
            <Position>
              <LatitudeDegrees>43.3333056606352329254150390625</LatitudeDegrees>
              <LongitudeDegrees>-8.3833735249936580657958984375</LongitudeDegrees>
            </Position>
            <AltitudeMeters>-22.6000003814697265625</AltitudeMeters>
            <DistanceMeters>5273.16234253</DistanceMeters>
          </Trackpoint>
          <Trackpoint>
            <Time>2018-04-21T08:23:09.000Z</Time>
            <Position>
              <LatitudeDegrees>43.33324589766561985015869140625</LatitudeDegrees>
              <LongitudeDegrees>-8.3833570964634418487548828125</LongitudeDegrees>
            </Position>
            <AltitudeMeters>-22.3999996185302734375</AltitudeMeters>
            <DistanceMeters>5279.9459455224</DistanceMeters>
          </Trackpoint>
          <Trackpoint>
            <Time>2018-04-21T08:23:12.000Z</Time>
            <Position>
              <LatitudeDegrees>43.3331266231834888458251953125</LatitudeDegrees>
              <LongitudeDegrees>-8.383325077593326568603515625</LongitudeDegrees>
            </Position>
            <AltitudeMeters>-22.3999996185302734375</AltitudeMeters>
            <DistanceMeters>5293.4718225274</DistanceMeters>
          </Trackpoint>
          <Trackpoint>
            <Time>2018-04-21T08:23:14.000Z</Time>
            <Position>
              <LatitudeDegrees>43.3330344222486019134521484375</LatitudeDegrees>
              <LongitudeDegrees>-8.38330118916928768157958984375</LongitudeDegrees>
            </Position>
            <AltitudeMeters>-22.200000762939453125</AltitudeMeters>
            <DistanceMeters>5303.9143894119</DistanceMeters>
          </Trackpoint>
          <Trackpoint>
            <Time>2018-04-21T08:23:17.000Z</Time>
            <Position>
              <LatitudeDegrees>43.33287726156413555145263671875</LatitudeDegrees>
              <LongitudeDegrees>-8.38324804790318012237548828125</LongitudeDegrees>
            </Position>
            <AltitudeMeters>-22</AltitudeMeters>
            <DistanceMeters>5321.927905641</DistanceMeters>
          </Trackpoint>
          <Trackpoint>
            <Time>2018-04-21T08:23:18.000Z</Time>
            <Position>
              <LatitudeDegrees>43.33282328210771083831787109375</LatitudeDegrees>
              <LongitudeDegrees>-8.38323111645877361297607421875</LongitudeDegrees>
            </Position>
            <AltitudeMeters>-21.799999237060546875</AltitudeMeters>
            <DistanceMeters>5328.0907379057</DistanceMeters>
          </Trackpoint>
          <Trackpoint>
            <Time>2018-04-21T08:23:21.000Z</Time>
            <Position>
              <LatitudeDegrees>43.33266503177583217620849609375</LatitudeDegrees>
              <LongitudeDegrees>-8.38318417780101299285888671875</LongitudeDegrees>
            </Position>
            <AltitudeMeters>-21</AltitudeMeters>
            <DistanceMeters>5346.1095169582</DistanceMeters>
          </Trackpoint>
          <Trackpoint>
            <Time>2018-04-21T08:23:24.000Z</Time>
            <Position>
              <LatitudeDegrees>43.33250024355947971343994140625</LatitudeDegrees>
              <LongitudeDegrees>-8.3831257559359073638916015625</LongitudeDegrees>
            </Position>
            <AltitudeMeters>-24.3999996185302734375</AltitudeMeters>
            <DistanceMeters>5365.0506081918</DistanceMeters>
          </Trackpoint>
          <Trackpoint>
            <Time>2018-04-21T08:23:27.000Z</Time>
            <Position>
              <LatitudeDegrees>43.3323271572589874267578125</LatitudeDegrees>
              <LongitudeDegrees>-8.3830654062330722808837890625</LongitudeDegrees>
            </Position>
            <AltitudeMeters>-22.200000762939453125</AltitudeMeters>
            <DistanceMeters>5384.9252813687</DistanceMeters>
          </Trackpoint>
          <Trackpoint>
            <Time>2018-04-21T08:23:31.000Z</Time>
            <Position>
              <LatitudeDegrees>43.3321117423474788665771484375</LatitudeDegrees>
              <LongitudeDegrees>-8.382988460361957550048828125</LongitudeDegrees>
            </Position>
            <AltitudeMeters>-25</AltitudeMeters>
            <DistanceMeters>5409.6975629548</DistanceMeters>
          </Trackpoint>
          <Trackpoint>
            <Time>2018-04-21T08:23:32.000Z</Time>
            <Position>
              <LatitudeDegrees>43.33206254057586193084716796875</LatitudeDegrees>
              <LongitudeDegrees>-8.38296440429985523223876953125</LongitudeDegrees>
            </Position>
            <AltitudeMeters>-23.799999237060546875</AltitudeMeters>
            <DistanceMeters>5415.5105265753</DistanceMeters>
          </Trackpoint>
          <Trackpoint>
            <Time>2018-04-21T08:23:34.000Z</Time>
            <Position>
              <LatitudeDegrees>43.33196304738521575927734375</LatitudeDegrees>
              <LongitudeDegrees>-8.3829071559011936187744140625</LongitudeDegrees>
            </Position>
            <AltitudeMeters>-20.3999996185302734375</AltitudeMeters>
            <DistanceMeters>5427.5155263689</DistanceMeters>
          </Trackpoint>
          <Trackpoint>
            <Time>2018-04-21T08:23:35.000Z</Time>
            <Position>
              <LatitudeDegrees>43.33190940320491790771484375</LatitudeDegrees>
              <LongitudeDegrees>-8.3828789927065372467041015625</LongitudeDegrees>
            </Position>
            <AltitudeMeters>-21.799999237060546875</AltitudeMeters>
            <DistanceMeters>5433.9063820046</DistanceMeters>
          </Trackpoint>
          <Trackpoint>
            <Time>2018-04-21T08:23:40.000Z</Time>
            <Position>
              <LatitudeDegrees>43.331616707146167755126953125</LatitudeDegrees>
              <LongitudeDegrees>-8.38274546898901462554931640625</LongitudeDegrees>
            </Position>
            <AltitudeMeters>-22.3999996185302734375</AltitudeMeters>
            <DistanceMeters>5468.2308941468</DistanceMeters>
          </Trackpoint>
          <Trackpoint>
            <Time>2018-04-21T08:23:48.000Z</Time>
            <Position>
              <LatitudeDegrees>43.33112125284969806671142578125</LatitudeDegrees>
              <LongitudeDegrees>-8.3826161362230777740478515625</LongitudeDegrees>
            </Position>
            <AltitudeMeters>-23.200000762939453125</AltitudeMeters>
            <DistanceMeters>5524.3612044209</DistanceMeters>
          </Trackpoint>
          <Trackpoint>
            <Time>2018-04-21T08:23:56.000Z</Time>
            <Position>
              <LatitudeDegrees>43.330641724169254302978515625</LatitudeDegrees>
              <LongitudeDegrees>-8.3825524337589740753173828125</LongitudeDegrees>
            </Position>
            <AltitudeMeters>-22.3999996185302734375</AltitudeMeters>
            <DistanceMeters>5577.9822962613</DistanceMeters>
          </Trackpoint>
          <Trackpoint>
            <Time>2018-04-21T08:23:57.000Z</Time>
            <Position>
              <LatitudeDegrees>43.3305812068283557891845703125</LatitudeDegrees>
              <LongitudeDegrees>-8.3825624920427799224853515625</LongitudeDegrees>
            </Position>
            <AltitudeMeters>-22.200000762939453125</AltitudeMeters>
            <DistanceMeters>5584.7672302853</DistanceMeters>
          </Trackpoint>
          <Trackpoint>
            <Time>2018-04-21T08:24:00.000Z</Time>
            <Position>
              <LatitudeDegrees>43.3304018341004848480224609375</LatitudeDegrees>
              <LongitudeDegrees>-8.38259518146514892578125</LongitudeDegrees>
            </Position>
            <AltitudeMeters>-21.799999237060546875</AltitudeMeters>
            <DistanceMeters>5604.906617405</DistanceMeters>
          </Trackpoint>
          <Trackpoint>
            <Time>2018-04-21T08:24:01.000Z</Time>
            <Position>
              <LatitudeDegrees>43.33034559153020381927490234375</LatitudeDegrees>
              <LongitudeDegrees>-8.3825842849910259246826171875</LongitudeDegrees>
            </Position>
            <AltitudeMeters>-21.6000003814697265625</AltitudeMeters>
            <DistanceMeters>5611.2285726675</DistanceMeters>
          </Trackpoint>
          <Trackpoint>
            <Time>2018-04-21T08:24:04.000Z</Time>
            <Position>
              <LatitudeDegrees>43.33017946220934391021728515625</LatitudeDegrees>
              <LongitudeDegrees>-8.3825108595192432403564453125</LongitudeDegrees>
            </Position>
            <AltitudeMeters>-21.3999996185302734375</AltitudeMeters>
            <DistanceMeters>5630.6512520276</DistanceMeters>
          </Trackpoint>
          <Trackpoint>
            <Time>2018-04-21T08:24:06.000Z</Time>
            <Position>
              <LatitudeDegrees>43.330072425305843353271484375</LatitudeDegrees>
              <LongitudeDegrees>-8.38243584148585796356201171875</LongitudeDegrees>
            </Position>
            <AltitudeMeters>-21.3999996185302734375</AltitudeMeters>
            <DistanceMeters>5644.0233712965</DistanceMeters>
          </Trackpoint>
          <Trackpoint>
            <Time>2018-04-21T08:24:10.000Z</Time>
            <Position>
              <LatitudeDegrees>43.32988223992288112640380859375</LatitudeDegrees>
              <LongitudeDegrees>-8.38226267136633396148681640625</LongitudeDegrees>
            </Position>
            <AltitudeMeters>-21</AltitudeMeters>
            <DistanceMeters>5669.413293062</DistanceMeters>
          </Trackpoint>
          <Trackpoint>
            <Time>2018-04-21T08:24:12.000Z</Time>
            <Position>
              <LatitudeDegrees>43.3297949843108654022216796875</LatitudeDegrees>
              <LongitudeDegrees>-8.3821561373770236968994140625</LongitudeDegrees>
            </Position>
            <AltitudeMeters>-20.6000003814697265625</AltitudeMeters>
            <DistanceMeters>5682.4024403889</DistanceMeters>
          </Trackpoint>
          <Trackpoint>
            <Time>2018-04-21T08:24:15.000Z</Time>
            <Position>
              <LatitudeDegrees>43.32967939786612987518310546875</LatitudeDegrees>
              <LongitudeDegrees>-8.381983302533626556396484375</LongitudeDegrees>
            </Position>
            <AltitudeMeters>-20.3999996185302734375</AltitudeMeters>
            <DistanceMeters>5701.4106338506</DistanceMeters>
          </Trackpoint>
          <Trackpoint>
            <Time>2018-04-21T08:24:18.000Z</Time>
            <Position>
              <LatitudeDegrees>43.32959339953958988189697265625</LatitudeDegrees>
              <LongitudeDegrees>-8.38180015794932842254638671875</LongitudeDegrees>
            </Position>
            <AltitudeMeters>-20.200000762939453125</AltitudeMeters>
            <DistanceMeters>5719.0595277779</DistanceMeters>
          </Trackpoint>
          <Trackpoint>
            <Time>2018-04-21T08:24:21.000Z</Time>
            <Position>
              <LatitudeDegrees>43.32952701486647129058837890625</LatitudeDegrees>
              <LongitudeDegrees>-8.38160871528089046478271484375</LongitudeDegrees>
            </Position>
            <AltitudeMeters>-19.799999237060546875</AltitudeMeters>
            <DistanceMeters>5736.2302003301</DistanceMeters>
          </Trackpoint>
          <Trackpoint>
            <Time>2018-04-21T08:24:24.000Z</Time>
            <Position>
              <LatitudeDegrees>43.3294298686087131500244140625</LatitudeDegrees>
              <LongitudeDegrees>-8.38125416077673435211181640625</LongitudeDegrees>
            </Position>
            <AltitudeMeters>-20</AltitudeMeters>
            <DistanceMeters>5766.9048472794</DistanceMeters>
          </Trackpoint>
          <Trackpoint>
            <Time>2018-04-21T08:24:30.000Z</Time>
            <Position>
              <LatitudeDegrees>43.32934043370187282562255859375</LatitudeDegrees>
              <LongitudeDegrees>-8.380681090056896209716796875</LongitudeDegrees>
            </Position>
            <AltitudeMeters>-19.6000003814697265625</AltitudeMeters>
            <DistanceMeters>5814.3583950173</DistanceMeters>
          </Trackpoint>
          <Trackpoint>
            <Time>2018-04-21T08:24:37.000Z</Time>
            <Position>
              <LatitudeDegrees>43.3292917348444461822509765625</LatitudeDegrees>
              <LongitudeDegrees>-8.38011036626994609832763671875</LongitudeDegrees>
            </Position>
            <AltitudeMeters>-19.3999996185302734375</AltitudeMeters>
            <DistanceMeters>5860.8829736167</DistanceMeters>
          </Trackpoint>
          <Trackpoint>
            <Time>2018-04-21T08:24:40.000Z</Time>
            <Position>
              <LatitudeDegrees>43.32925057969987392425537109375</LatitudeDegrees>
              <LongitudeDegrees>-8.3798754215240478515625</LongitudeDegrees>
            </Position>
            <AltitudeMeters>-19.3999996185302734375</AltitudeMeters>
            <DistanceMeters>5880.4487871895</DistanceMeters>
          </Trackpoint>
          <Trackpoint>
            <Time>2018-04-21T08:24:42.000Z</Time>
            <Position>
              <LatitudeDegrees>43.32919098436832427978515625</LatitudeDegrees>
              <LongitudeDegrees>-8.37973049841821193695068359375</LongitudeDegrees>
            </Position>
            <AltitudeMeters>-19.3999996185302734375</AltitudeMeters>
            <DistanceMeters>5893.9271801909</DistanceMeters>
          </Trackpoint>
          <Trackpoint>
            <Time>2018-04-21T08:24:44.000Z</Time>
            <Position>
              <LatitudeDegrees>43.32910758443176746368408203125</LatitudeDegrees>
              <LongitudeDegrees>-8.3796093799173831939697265625</LongitudeDegrees>
            </Position>
            <AltitudeMeters>-21</AltitudeMeters>
            <DistanceMeters>5907.4300048391</DistanceMeters>
          </Trackpoint>
          <Trackpoint>
            <Time>2018-04-21T08:24:46.000Z</Time>
            <Position>
              <LatitudeDegrees>43.3290101028978824615478515625</LatitudeDegrees>
              <LongitudeDegrees>-8.37952011264860630035400390625</LongitudeDegrees>
            </Position>
            <AltitudeMeters>-21</AltitudeMeters>
            <DistanceMeters>5920.4663401629</DistanceMeters>
          </Trackpoint>
          <Trackpoint>
            <Time>2018-04-21T08:24:47.000Z</Time>
            <Position>
              <LatitudeDegrees>43.32895922474563121795654296875</LatitudeDegrees>
              <LongitudeDegrees>-8.37948356755077838897705078125</LongitudeDegrees>
            </Position>
            <AltitudeMeters>-20</AltitudeMeters>
            <DistanceMeters>5926.8543692369</DistanceMeters>
          </Trackpoint>
          <Trackpoint>
            <Time>2018-04-21T08:24:50.000Z</Time>
            <Position>
              <LatitudeDegrees>43.32879778929054737091064453125</LatitudeDegrees>
              <LongitudeDegrees>-8.3794020116329193115234375</LongitudeDegrees>
            </Position>
            <AltitudeMeters>-19.6000003814697265625</AltitudeMeters>
            <DistanceMeters>5945.9970049513</DistanceMeters>
          </Trackpoint>
          <Trackpoint>
            <Time>2018-04-21T08:24:51.000Z</Time>
            <Position>
              <LatitudeDegrees>43.32874179817736148834228515625</LatitudeDegrees>
              <LongitudeDegrees>-8.379374183714389801025390625</LongitudeDegrees>
            </Position>
            <AltitudeMeters>-20</AltitudeMeters>
            <DistanceMeters>5952.6237131649</DistanceMeters>
          </Trackpoint>
          <Trackpoint>
            <Time>2018-04-21T08:24:58.000Z</Time>
            <Position>
              <LatitudeDegrees>43.32832622341811656951904296875</LatitudeDegrees>
              <LongitudeDegrees>-8.379265554249286651611328125</LongitudeDegrees>
            </Position>
            <AltitudeMeters>-19.3999996185302734375</AltitudeMeters>
            <DistanceMeters>5999.7069329628</DistanceMeters>
          </Trackpoint>
          <Trackpoint>
            <Time>2018-04-21T08:25:04.000Z</Time>
            <Position>
              <LatitudeDegrees>43.3279283344745635986328125</LatitudeDegrees>
              <LongitudeDegrees>-8.37930855341255664825439453125</LongitudeDegrees>
            </Position>
            <AltitudeMeters>-19.3999996185302734375</AltitudeMeters>
            <DistanceMeters>6044.1293556273</DistanceMeters>
          </Trackpoint>
          <Trackpoint>
            <Time>2018-04-21T08:25:09.000Z</Time>
            <Position>
              <LatitudeDegrees>43.32760320045053958892822265625</LatitudeDegrees>
              <LongitudeDegrees>-8.3794799633324146270751953125</LongitudeDegrees>
            </Position>
            <AltitudeMeters>-19.3999996185302734375</AltitudeMeters>
            <DistanceMeters>6082.8873265067</DistanceMeters>
          </Trackpoint>
          <Trackpoint>
            <Time>2018-04-21T08:25:15.000Z</Time>
            <Position>
              <LatitudeDegrees>43.3272602967917919158935546875</LatitudeDegrees>
              <LongitudeDegrees>-8.37980677373707294464111328125</LongitudeDegrees>
            </Position>
            <AltitudeMeters>-19.3999996185302734375</AltitudeMeters>
            <DistanceMeters>6129.3284675153</DistanceMeters>
          </Trackpoint>
          <Trackpoint>
            <Time>2018-04-21T08:25:22.000Z</Time>
            <Position>
              <LatitudeDegrees>43.32689375616610050201416015625</LatitudeDegrees>
              <LongitudeDegrees>-8.38025436736643314361572265625</LongitudeDegrees>
            </Position>
            <AltitudeMeters>-19.6000003814697265625</AltitudeMeters>
            <DistanceMeters>6183.8968911484</DistanceMeters>
          </Trackpoint>
          <Trackpoint>
            <Time>2018-04-21T08:25:23.000Z</Time>
            <Position>
              <LatitudeDegrees>43.3268328197300434112548828125</LatitudeDegrees>
              <LongitudeDegrees>-8.3803023956716060638427734375</LongitudeDegrees>
            </Position>
            <AltitudeMeters>-19.799999237060546875</AltitudeMeters>
            <DistanceMeters>6191.71511265</DistanceMeters>
          </Trackpoint>
          <Trackpoint>
            <Time>2018-04-21T08:25:26.000Z</Time>
            <Position>
              <LatitudeDegrees>43.32663349807262420654296875</LatitudeDegrees>
              <LongitudeDegrees>-8.38038797490298748016357421875</LongitudeDegrees>
            </Position>
            <AltitudeMeters>-20</AltitudeMeters>
            <DistanceMeters>6214.9570618573</DistanceMeters>
          </Trackpoint>
          <Trackpoint>
            <Time>2018-04-21T08:25:28.000Z</Time>
            <Position>
              <LatitudeDegrees>43.32649645395576953887939453125</LatitudeDegrees>
              <LongitudeDegrees>-8.38041521608829498291015625</LongitudeDegrees>
            </Position>
            <AltitudeMeters>-20.200000762939453125</AltitudeMeters>
            <DistanceMeters>6230.3692700333</DistanceMeters>
          </Trackpoint>
          <Trackpoint>
            <Time>2018-04-21T08:25:32.000Z</Time>
            <Position>
              <LatitudeDegrees>43.3262182585895061492919921875</LatitudeDegrees>
              <LongitudeDegrees>-8.38046458549797534942626953125</LongitudeDegrees>
            </Position>
            <AltitudeMeters>-20.200000762939453125</AltitudeMeters>
            <DistanceMeters>6261.5901376008</DistanceMeters>
          </Trackpoint>
          <Trackpoint>
            <Time>2018-04-21T08:25:39.000Z</Time>
            <Position>
              <LatitudeDegrees>43.32574434578418731689453125</LatitudeDegrees>
              <LongitudeDegrees>-8.38046106509864330291748046875</LongitudeDegrees>
            </Position>
            <AltitudeMeters>-20.200000762939453125</AltitudeMeters>
            <DistanceMeters>6314.338353155</DistanceMeters>
          </Trackpoint>
          <Trackpoint>
            <Time>2018-04-21T08:25:45.000Z</Time>
            <Position>
              <LatitudeDegrees>43.3253482170403003692626953125</LatitudeDegrees>
              <LongitudeDegrees>-8.38036869652569293975830078125</LongitudeDegrees>
            </Position>
            <AltitudeMeters>-20.6000003814697265625</AltitudeMeters>
            <DistanceMeters>6359.0580905172</DistanceMeters>
          </Trackpoint>
          <Trackpoint>
            <Time>2018-04-21T08:25:48.000Z</Time>
            <Position>
              <LatitudeDegrees>43.32516607828438282012939453125</LatitudeDegrees>
              <LongitudeDegrees>-8.38031035847961902618408203125</LongitudeDegrees>
            </Position>
            <AltitudeMeters>-20.3999996185302734375</AltitudeMeters>
            <DistanceMeters>6379.873496541</DistanceMeters>
          </Trackpoint>
          <Trackpoint>
            <Time>2018-04-21T08:25:50.000Z</Time>
            <Position>
              <LatitudeDegrees>43.3250669203698635101318359375</LatitudeDegrees>
              <LongitudeDegrees>-8.380226455628871917724609375</LongitudeDegrees>
            </Position>
            <AltitudeMeters>-19.799999237060546875</AltitudeMeters>
            <DistanceMeters>6392.8334125075</DistanceMeters>
          </Trackpoint>
          <Trackpoint>
            <Time>2018-04-21T08:25:52.000Z</Time>
            <Position>
              <LatitudeDegrees>43.324995338916778564453125</LatitudeDegrees>
              <LongitudeDegrees>-8.38011690415441989898681640625</LongitudeDegrees>
            </Position>
            <AltitudeMeters>-20</AltitudeMeters>
            <DistanceMeters>6404.7568987231</DistanceMeters>
          </Trackpoint>
          <Trackpoint>
            <Time>2018-04-21T08:25:55.000Z</Time>
            <Position>
              <LatitudeDegrees>43.32489098422229290008544921875</LatitudeDegrees>
              <LongitudeDegrees>-8.37996058166027069091796875</LongitudeDegrees>
            </Position>
            <AltitudeMeters>-19.3999996185302734375</AltitudeMeters>
            <DistanceMeters>6421.935983633</DistanceMeters>
          </Trackpoint>
          <Trackpoint>
            <Time>2018-04-21T08:25:56.000Z</Time>
            <Position>
              <LatitudeDegrees>43.3248567022383213043212890625</LatitudeDegrees>
              <LongitudeDegrees>-8.379915319383144378662109375</LongitudeDegrees>
            </Position>
            <AltitudeMeters>-18.6000003814697265625</AltitudeMeters>
            <DistanceMeters>6427.2268471708</DistanceMeters>
          </Trackpoint>
          <Trackpoint>
            <Time>2018-04-21T08:26:01.000Z</Time>
            <Position>
              <LatitudeDegrees>43.324680514633655548095703125</LatitudeDegrees>
              <LongitudeDegrees>-8.37967216037213802337646484375</LongitudeDegrees>
            </Position>
            <AltitudeMeters>-18</AltitudeMeters>
            <DistanceMeters>6455.0149722763</DistanceMeters>
          </Trackpoint>
          <Trackpoint>
            <Time>2018-04-21T08:26:05.000Z</Time>
            <Position>
              <LatitudeDegrees>43.32451027818024158477783203125</LatitudeDegrees>
              <LongitudeDegrees>-8.37948138825595378875732421875</LongitudeDegrees>
            </Position>
            <AltitudeMeters>-18.3999996185302734375</AltitudeMeters>
            <DistanceMeters>6479.4610447433</DistanceMeters>
          </Trackpoint>
          <Trackpoint>
            <Time>2018-04-21T08:26:08.000Z</Time>
            <Position>
              <LatitudeDegrees>43.32437164150178432464599609375</LatitudeDegrees>
              <LongitudeDegrees>-8.3793589286506175994873046875</LongitudeDegrees>
            </Position>
            <AltitudeMeters>-18.799999237060546875</AltitudeMeters>
            <DistanceMeters>6497.8029238181</DistanceMeters>
          </Trackpoint>
          <Trackpoint>
            <Time>2018-04-21T08:26:11.000Z</Time>
            <Position>
              <LatitudeDegrees>43.32428455352783203125</LatitudeDegrees>
              <LongitudeDegrees>-8.379325903952121734619140625</LongitudeDegrees>
            </Position>
            <AltitudeMeters>-19.200000762939453125</AltitudeMeters>
            <DistanceMeters>6507.8582590161</DistanceMeters>
          </Trackpoint>
          <Trackpoint>
            <Time>2018-04-21T08:26:15.000Z</Time>
            <Position>
              <LatitudeDegrees>43.32426871173083782196044921875</LatitudeDegrees>
              <LongitudeDegrees>-8.37933185510337352752685546875</LongitudeDegrees>
            </Position>
            <AltitudeMeters>-18.3999996185302734375</AltitudeMeters>
            <DistanceMeters>6509.6861343631</DistanceMeters>
          </Trackpoint>
          <Trackpoint>
            <Time>2018-04-21T08:26:18.000Z</Time>
            <Position>
              <LatitudeDegrees>43.32426938228309154510498046875</LatitudeDegrees>
              <LongitudeDegrees>-8.37933084927499294281005859375</LongitudeDegrees>
            </Position>
            <AltitudeMeters>-19.200000762939453125</AltitudeMeters>
            <DistanceMeters>6509.8205224313</DistanceMeters>
          </Trackpoint>
          <Trackpoint>
            <Time>2018-04-21T08:26:21.000Z</Time>
            <Position>
              <LatitudeDegrees>43.3242652751505374908447265625</LatitudeDegrees>
              <LongitudeDegrees>-8.3793322741985321044921875</LongitudeDegrees>
            </Position>
            <AltitudeMeters>-19.3999996185302734375</AltitudeMeters>
            <DistanceMeters>6510.2860563556</DistanceMeters>
          </Trackpoint>
          <Trackpoint>
            <Time>2018-04-21T08:26:23.000Z</Time>
            <Position>
              <LatitudeDegrees>43.32423233427107334136962890625</LatitudeDegrees>
              <LongitudeDegrees>-8.37933403439819812774658203125</LongitudeDegrees>
            </Position>
            <AltitudeMeters>-19.200000762939453125</AltitudeMeters>
            <DistanceMeters>6513.9541367666</DistanceMeters>
          </Trackpoint>
          <Trackpoint>
            <Time>2018-04-21T08:26:27.000Z</Time>
            <Position>
              <LatitudeDegrees>43.32411113195121288299560546875</LatitudeDegrees>
              <LongitudeDegrees>-8.379419110715389251708984375</LongitudeDegrees>
            </Position>
            <AltitudeMeters>-19.3999996185302734375</AltitudeMeters>
            <DistanceMeters>6529.1012877293</DistanceMeters>
          </Trackpoint>
          <Trackpoint>
            <Time>2018-04-21T08:26:29.000Z</Time>
            <Position>
              <LatitudeDegrees>43.324032761156558990478515625</LatitudeDegrees>
              <LongitudeDegrees>-8.37947904132306575775146484375</LongitudeDegrees>
            </Position>
            <AltitudeMeters>-19</AltitudeMeters>
            <DistanceMeters>6539.0836167942</DistanceMeters>
          </Trackpoint>
          <Trackpoint>
            <Time>2018-04-21T08:26:32.000Z</Time>
            <Position>
              <LatitudeDegrees>43.323915414512157440185546875</LatitudeDegrees>
              <LongitudeDegrees>-8.37962186895310878753662109375</LongitudeDegrees>
            </Position>
            <AltitudeMeters>-19</AltitudeMeters>
            <DistanceMeters>6556.5287202996</DistanceMeters>
          </Trackpoint>
          <Trackpoint>
            <Time>2018-04-21T08:26:34.000Z</Time>
            <Position>
              <LatitudeDegrees>43.32382212392985820770263671875</LatitudeDegrees>
              <LongitudeDegrees>-8.379706107079982757568359375</LongitudeDegrees>
            </Position>
            <AltitudeMeters>-19.200000762939453125</AltitudeMeters>
            <DistanceMeters>6568.952168556</DistanceMeters>
          </Trackpoint>
          <Trackpoint>
            <Time>2018-04-21T08:26:36.000Z</Time>
            <Position>
              <LatitudeDegrees>43.32370410673320293426513671875</LatitudeDegrees>
              <LongitudeDegrees>-8.379694037139415740966796875</LongitudeDegrees>
            </Position>
            <AltitudeMeters>-19.3999996185302734375</AltitudeMeters>
            <DistanceMeters>6582.1242560441</DistanceMeters>
          </Trackpoint>
          <Trackpoint>
            <Time>2018-04-21T08:26:39.000Z</Time>
            <Position>
              <LatitudeDegrees>43.32355842925608158111572265625</LatitudeDegrees>
              <LongitudeDegrees>-8.3795329369604587554931640625</LongitudeDegrees>
            </Position>
            <AltitudeMeters>-19.200000762939453125</AltitudeMeters>
            <DistanceMeters>6602.9344556131</DistanceMeters>
          </Trackpoint>
          <Trackpoint>
            <Time>2018-04-21T08:26:45.000Z</Time>
            <Position>
              <LatitudeDegrees>43.3232866041362285614013671875</LatitudeDegrees>
              <LongitudeDegrees>-8.3791337907314300537109375</LongitudeDegrees>
            </Position>
            <AltitudeMeters>-19</AltitudeMeters>
            <DistanceMeters>6647.2050755704</DistanceMeters>
          </Trackpoint>
          <Trackpoint>
            <Time>2018-04-21T08:26:46.000Z</Time>
            <Position>
              <LatitudeDegrees>43.32323874346911907196044921875</LatitudeDegrees>
              <LongitudeDegrees>-8.3790662325918674468994140625</LongitudeDegrees>
            </Position>
            <AltitudeMeters>-19.200000762939453125</AltitudeMeters>
            <DistanceMeters>6654.8403996318</DistanceMeters>
          </Trackpoint>
          <Trackpoint>
            <Time>2018-04-21T08:26:50.000Z</Time>
            <Position>
              <LatitudeDegrees>43.32301327027380466461181640625</LatitudeDegrees>
              <LongitudeDegrees>-8.3788623847067356109619140625</LongitudeDegrees>
            </Position>
            <AltitudeMeters>-19</AltitudeMeters>
            <DistanceMeters>6684.8778615414</DistanceMeters>
          </Trackpoint>
          <Trackpoint>
            <Time>2018-04-21T08:26:53.000Z</Time>
            <Position>
              <LatitudeDegrees>43.32284362055361270904541015625</LatitudeDegrees>
              <LongitudeDegrees>-8.37871737778186798095703125</LongitudeDegrees>
            </Position>
            <AltitudeMeters>-18.799999237060546875</AltitudeMeters>
            <DistanceMeters>6707.1130974382</DistanceMeters>
          </Trackpoint>
          <Trackpoint>
            <Time>2018-04-21T08:26:56.000Z</Time>
            <Position>
              <LatitudeDegrees>43.3226804248988628387451171875</LatitudeDegrees>
              <LongitudeDegrees>-8.37856424041092395782470703125</LongitudeDegrees>
            </Position>
            <AltitudeMeters>-18.200000762939453125</AltitudeMeters>
            <DistanceMeters>6729.1059829843</DistanceMeters>
          </Trackpoint>
          <Trackpoint>
            <Time>2018-04-21T08:26:58.000Z</Time>
            <Position>
              <LatitudeDegrees>43.32260155119001865386962890625</LatitudeDegrees>
              <LongitudeDegrees>-8.3784349076449871063232421875</LongitudeDegrees>
            </Position>
            <AltitudeMeters>-18.200000762939453125</AltitudeMeters>
            <DistanceMeters>6742.7713399449</DistanceMeters>
          </Trackpoint>
          <Trackpoint>
            <Time>2018-04-21T08:27:06.000Z</Time>
            <Position>
              <LatitudeDegrees>43.3223263733088970184326171875</LatitudeDegrees>
              <LongitudeDegrees>-8.37783669121563434600830078125</LongitudeDegrees>
            </Position>
            <AltitudeMeters>-17.799999237060546875</AltitudeMeters>
            <DistanceMeters>6800.0811942827</DistanceMeters>
          </Trackpoint>
          <Trackpoint>
            <Time>2018-04-21T08:27:07.000Z</Time>
            <Position>
              <LatitudeDegrees>43.32228136248886585235595703125</LatitudeDegrees>
              <LongitudeDegrees>-8.3777673728764057159423828125</LongitudeDegrees>
            </Position>
            <AltitudeMeters>-17.799999237060546875</AltitudeMeters>
            <DistanceMeters>6807.604525935</DistanceMeters>
          </Trackpoint>
          <Trackpoint>
            <Time>2018-04-21T08:27:09.000Z</Time>
            <Position>
              <LatitudeDegrees>43.322169966995716094970703125</LatitudeDegrees>
              <LongitudeDegrees>-8.37765698321163654327392578125</LongitudeDegrees>
            </Position>
            <AltitudeMeters>-17.799999237060546875</AltitudeMeters>
            <DistanceMeters>6822.8893595212</DistanceMeters>
          </Trackpoint>
          <Trackpoint>
            <Time>2018-04-21T08:27:10.000Z</Time>
            <Position>
              <LatitudeDegrees>43.32211892120540142059326171875</LatitudeDegrees>
              <LongitudeDegrees>-8.3775973878800868988037109375</LongitudeDegrees>
            </Position>
            <AltitudeMeters>-17.799999237060546875</AltitudeMeters>
            <DistanceMeters>6830.3439614848</DistanceMeters>
          </Trackpoint>
          <Trackpoint>
            <Time>2018-04-21T08:27:12.000Z</Time>
            <Position>
              <LatitudeDegrees>43.322057984769344329833984375</LatitudeDegrees>
              <LongitudeDegrees>-8.3774465136229991912841796875</LongitudeDegrees>
            </Position>
            <AltitudeMeters>-17.799999237060546875</AltitudeMeters>
            <DistanceMeters>6844.317089727</DistanceMeters>
          </Trackpoint>
          <Trackpoint>
            <Time>2018-04-21T08:27:13.000Z</Time>
            <Position>
              <LatitudeDegrees>43.32203510217368602752685546875</LatitudeDegrees>
              <LongitudeDegrees>-8.3773663826286792755126953125</LongitudeDegrees>
            </Position>
            <AltitudeMeters>-17.6000003814697265625</AltitudeMeters>
            <DistanceMeters>6851.2871550974</DistanceMeters>
          </Trackpoint>
          <Trackpoint>
            <Time>2018-04-21T08:27:18.000Z</Time>
            <Position>
              <LatitudeDegrees>43.32191624678671360015869140625</LatitudeDegrees>
              <LongitudeDegrees>-8.37697804905474185943603515625</LongitudeDegrees>
            </Position>
            <AltitudeMeters>-17.6000003814697265625</AltitudeMeters>
            <DistanceMeters>6885.401083804</DistanceMeters>
          </Trackpoint>
          <Trackpoint>
            <Time>2018-04-21T08:27:21.000Z</Time>
            <Position>
              <LatitudeDegrees>43.32183376885950565338134765625</LatitudeDegrees>
              <LongitudeDegrees>-8.37672390975058078765869140625</LongitudeDegrees>
            </Position>
            <AltitudeMeters>-17.200000762939453125</AltitudeMeters>
            <DistanceMeters>6907.9342402249</DistanceMeters>
          </Trackpoint>
          <Trackpoint>
            <Time>2018-04-21T08:27:22.000Z</Time>
            <Position>
              <LatitudeDegrees>43.32179613411426544189453125</LatitudeDegrees>
              <LongitudeDegrees>-8.3766425214707851409912109375</LongitudeDegrees>
            </Position>
            <AltitudeMeters>-17.799999237060546875</AltitudeMeters>
            <DistanceMeters>6915.7437943929</DistanceMeters>
          </Trackpoint>
          <Trackpoint>
            <Time>2018-04-21T08:27:23.000Z</Time>
            <Position>
              <LatitudeDegrees>43.3217520453035831451416015625</LatitudeDegrees>
              <LongitudeDegrees>-8.3765687607228755950927734375</LongitudeDegrees>
            </Position>
            <AltitudeMeters>-17.799999237060546875</AltitudeMeters>
            <DistanceMeters>6923.474321277</DistanceMeters>
          </Trackpoint>
          <Trackpoint>
            <Time>2018-04-21T08:27:26.000Z</Time>
            <Position>
              <LatitudeDegrees>43.32159974612295627593994140625</LatitudeDegrees>
              <LongitudeDegrees>-8.37636508047580718994140625</LongitudeDegrees>
            </Position>
            <AltitudeMeters>-17.799999237060546875</AltitudeMeters>
            <DistanceMeters>6947.1250941025</DistanceMeters>
          </Trackpoint>
          <Trackpoint>
            <Time>2018-04-21T08:27:28.000Z</Time>
            <Position>
              <LatitudeDegrees>43.321497403085231781005859375</LatitudeDegrees>
              <LongitudeDegrees>-8.37621755897998809814453125</LongitudeDegrees>
            </Position>
            <AltitudeMeters>-17.799999237060546875</AltitudeMeters>
            <DistanceMeters>6963.6313191848</DistanceMeters>
          </Trackpoint>
          <Trackpoint>
            <Time>2018-04-21T08:27:29.000Z</Time>
            <Position>
              <LatitudeDegrees>43.3214539848268032073974609375</LatitudeDegrees>
              <LongitudeDegrees>-8.37613575160503387451171875</LongitudeDegrees>
            </Position>
            <AltitudeMeters>-17.799999237060546875</AltitudeMeters>
            <DistanceMeters>6971.8311941352</DistanceMeters>
          </Trackpoint>
          <Trackpoint>
            <Time>2018-04-21T08:27:32.000Z</Time>
            <Position>
              <LatitudeDegrees>43.321320377290248870849609375</LatitudeDegrees>
              <LongitudeDegrees>-8.37590315379202365875244140625</LongitudeDegrees>
            </Position>
            <AltitudeMeters>-18.6000003814697265625</AltitudeMeters>
            <DistanceMeters>6995.8285911828</DistanceMeters>
          </Trackpoint>
          <Trackpoint>
            <Time>2018-04-21T08:27:38.000Z</Time>
            <Position>
              <LatitudeDegrees>43.321041762828826904296875</LatitudeDegrees>
              <LongitudeDegrees>-8.37549663148820400238037109375</LongitudeDegrees>
            </Position>
            <AltitudeMeters>-18.200000762939453125</AltitudeMeters>
            <DistanceMeters>7041.0529217356</DistanceMeters>
          </Trackpoint>
          <Trackpoint>
            <Time>2018-04-21T08:27:40.000Z</Time>
            <Position>
              <LatitudeDegrees>43.32096272148191928863525390625</LatitudeDegrees>
              <LongitudeDegrees>-8.3753510378301143646240234375</LongitudeDegrees>
            </Position>
            <AltitudeMeters>-18.3999996185302734375</AltitudeMeters>
            <DistanceMeters>7055.7630448428</DistanceMeters>
          </Trackpoint>
          <Trackpoint>
            <Time>2018-04-21T08:27:43.000Z</Time>
            <Position>
              <LatitudeDegrees>43.320863060653209686279296875</LatitudeDegrees>
              <LongitudeDegrees>-8.37513637728989124298095703125</LongitudeDegrees>
            </Position>
            <AltitudeMeters>-19.200000762939453125</AltitudeMeters>
            <DistanceMeters>7076.3827470542</DistanceMeters>
          </Trackpoint>
          <Trackpoint>
            <Time>2018-04-21T08:27:44.000Z</Time>
            <Position>
              <LatitudeDegrees>43.32081804983317852020263671875</LatitudeDegrees>
              <LongitudeDegrees>-8.3750925399363040924072265625</LongitudeDegrees>
            </Position>
            <AltitudeMeters>-19.3999996185302734375</AltitudeMeters>
            <DistanceMeters>7082.5220905921</DistanceMeters>
          </Trackpoint>
          <Trackpoint>
            <Time>2018-04-21T08:27:45.000Z</Time>
            <Position>
              <LatitudeDegrees>43.32076977007091045379638671875</LatitudeDegrees>
              <LongitudeDegrees>-8.37507971562445163726806640625</LongitudeDegrees>
            </Position>
            <AltitudeMeters>-19.799999237060546875</AltitudeMeters>
            <DistanceMeters>7087.9950023916</DistanceMeters>
          </Trackpoint>
          <Trackpoint>
            <Time>2018-04-21T08:27:47.000Z</Time>
            <Position>
              <LatitudeDegrees>43.32065896131098270416259765625</LatitudeDegrees>
              <LongitudeDegrees>-8.375086002051830291748046875</LongitudeDegrees>
            </Position>
            <AltitudeMeters>-20.200000762939453125</AltitudeMeters>
            <DistanceMeters>7100.3386031563</DistanceMeters>
          </Trackpoint>
          <Trackpoint>
            <Time>2018-04-21T08:27:48.000Z</Time>
            <Position>
              <LatitudeDegrees>43.32060414366424083709716796875</LatitudeDegrees>
              <LongitudeDegrees>-8.37508373893797397613525390625</LongitudeDegrees>
            </Position>
            <AltitudeMeters>-20.200000762939453125</AltitudeMeters>
            <DistanceMeters>7106.4425441298</DistanceMeters>
          </Trackpoint>
          <Trackpoint>
            <Time>2018-04-21T08:27:49.000Z</Time>
            <Position>
              <LatitudeDegrees>43.32054832018911838531494140625</LatitudeDegrees>
              <LongitudeDegrees>-8.375071249902248382568359375</LongitudeDegrees>
            </Position>
            <AltitudeMeters>-19.6000003814697265625</AltitudeMeters>
            <DistanceMeters>7112.737301904</DistanceMeters>
          </Trackpoint>
          <Trackpoint>
            <Time>2018-04-21T08:27:51.000Z</Time>
            <Position>
              <LatitudeDegrees>43.3204535208642482757568359375</LatitudeDegrees>
              <LongitudeDegrees>-8.374991118907928466796875</LongitudeDegrees>
            </Position>
            <AltitudeMeters>-19.3999996185302734375</AltitudeMeters>
            <DistanceMeters>7125.124353972</DistanceMeters>
          </Trackpoint>
          <Trackpoint>
            <Time>2018-04-21T08:27:53.000Z</Time>
            <Position>
              <LatitudeDegrees>43.3203857950866222381591796875</LatitudeDegrees>
              <LongitudeDegrees>-8.3748583495616912841796875</LongitudeDegrees>
            </Position>
            <AltitudeMeters>-19.3999996185302734375</AltitudeMeters>
            <DistanceMeters>7138.2549004018</DistanceMeters>
          </Trackpoint>
          <Trackpoint>
            <Time>2018-04-21T08:27:55.000Z</Time>
            <Position>
              <LatitudeDegrees>43.320325277745723724365234375</LatitudeDegrees>
              <LongitudeDegrees>-8.37471057660877704620361328125</LongitudeDegrees>
            </Position>
            <AltitudeMeters>-19.6000003814697265625</AltitudeMeters>
            <DistanceMeters>7151.986178425</DistanceMeters>
          </Trackpoint>
          <Trackpoint>
            <Time>2018-04-21T08:28:01.000Z</Time>
            <Position>
              <LatitudeDegrees>43.320144899189472198486328125</LatitudeDegrees>
              <LongitudeDegrees>-8.37424202822148799896240234375</LongitudeDegrees>
            </Position>
            <AltitudeMeters>-21.799999237060546875</AltitudeMeters>
            <DistanceMeters>7194.9115450326</DistanceMeters>
          </Trackpoint>
          <Trackpoint>
            <Time>2018-04-21T08:28:02.000Z</Time>
            <Position>
              <LatitudeDegrees>43.3201202563941478729248046875</LatitudeDegrees>
              <LongitudeDegrees>-8.374163322150707244873046875</LongitudeDegrees>
            </Position>
            <AltitudeMeters>-21.6000003814697265625</AltitudeMeters>
            <DistanceMeters>7201.849146019</DistanceMeters>
          </Trackpoint>
          <Trackpoint>
            <Time>2018-04-21T08:28:03.000Z</Time>
            <Position>
              <LatitudeDegrees>43.3200944401323795318603515625</LatitudeDegrees>
              <LongitudeDegrees>-8.37408361025154590606689453125</LongitudeDegrees>
            </Position>
            <AltitudeMeters>-25</AltitudeMeters>
            <DistanceMeters>7208.9144317586</DistanceMeters>
          </Trackpoint>
          <Trackpoint>
            <Time>2018-04-21T08:28:04.000Z</Time>
            <Position>
              <LatitudeDegrees>43.32006988115608692169189453125</LatitudeDegrees>
              <LongitudeDegrees>-8.37400482036173343658447265625</LongitudeDegrees>
            </Position>
            <AltitudeMeters>-21</AltitudeMeters>
            <DistanceMeters>7215.8559364877</DistanceMeters>
          </Trackpoint>
          <Trackpoint>
            <Time>2018-04-21T08:28:05.000Z</Time>
            <Position>
              <LatitudeDegrees>43.3200464956462383270263671875</LatitudeDegrees>
              <LongitudeDegrees>-8.37392628192901611328125</LongitudeDegrees>
            </Position>
            <AltitudeMeters>-20</AltitudeMeters>
            <DistanceMeters>7222.7281486353</DistanceMeters>
          </Trackpoint>
          <Trackpoint>
            <Time>2018-04-21T08:28:10.000Z</Time>
            <Position>
              <LatitudeDegrees>43.3199234493076801300048828125</LatitudeDegrees>
              <LongitudeDegrees>-8.3735341764986515045166015625</LongitudeDegrees>
            </Position>
            <AltitudeMeters>-19</AltitudeMeters>
            <DistanceMeters>7257.307167451</DistanceMeters>
          </Trackpoint>
          <Trackpoint>
            <Time>2018-04-21T08:28:11.000Z</Time>
            <Position>
              <LatitudeDegrees>43.319900147616863250732421875</LatitudeDegrees>
              <LongitudeDegrees>-8.3734557218849658966064453125</LongitudeDegrees>
            </Position>
            <AltitudeMeters>-18.799999237060546875</AltitudeMeters>
            <DistanceMeters>7264.1688595585</DistanceMeters>
          </Trackpoint>
          <Trackpoint>
            <Time>2018-04-21T08:28:20.000Z</Time>
            <Position>
              <LatitudeDegrees>43.31965866498649120330810546875</LatitudeDegrees>
              <LongitudeDegrees>-8.37272934615612030029296875</LongitudeDegrees>
            </Position>
            <AltitudeMeters>-19</AltitudeMeters>
            <DistanceMeters>7328.8380122012</DistanceMeters>
          </Trackpoint>
          <Trackpoint>
            <Time>2018-04-21T08:28:26.000Z</Time>
            <Position>
              <LatitudeDegrees>43.3195046894252300262451171875</LatitudeDegrees>
              <LongitudeDegrees>-8.372283093631267547607421875</LongitudeDegrees>
            </Position>
            <AltitudeMeters>-18</AltitudeMeters>
            <DistanceMeters>7368.8319555011</DistanceMeters>
          </Trackpoint>
          <Trackpoint>
            <Time>2018-04-21T08:28:27.000Z</Time>
            <Position>
              <LatitudeDegrees>43.319481723010540008544921875</LatitudeDegrees>
              <LongitudeDegrees>-8.37221025489270687103271484375</LongitudeDegrees>
            </Position>
            <AltitudeMeters>-17.799999237060546875</AltitudeMeters>
            <DistanceMeters>7375.2594433254</DistanceMeters>
          </Trackpoint>
          <Trackpoint>
            <Time>2018-04-21T08:28:31.000Z</Time>
            <Position>
              <LatitudeDegrees>43.31939245574176311492919921875</LatitudeDegrees>
              <LongitudeDegrees>-8.371916972100734710693359375</LongitudeDegrees>
            </Position>
            <AltitudeMeters>-17.200000762939453125</AltitudeMeters>
            <DistanceMeters>7401.0030905102</DistanceMeters>
          </Trackpoint>
          <Trackpoint>
            <Time>2018-04-21T08:28:32.000Z</Time>
            <Position>
              <LatitudeDegrees>43.3193829841911792755126953125</LatitudeDegrees>
              <LongitudeDegrees>-8.37183373980224132537841796875</LongitudeDegrees>
            </Position>
            <AltitudeMeters>-17.200000762939453125</AltitudeMeters>
            <DistanceMeters>7407.8251879877</DistanceMeters>
          </Trackpoint>
          <Trackpoint>
            <Time>2018-04-21T08:28:33.000Z</Time>
            <Position>
              <LatitudeDegrees>43.31938893534243106842041015625</LatitudeDegrees>
              <LongitudeDegrees>-8.37174422107636928558349609375</LongitudeDegrees>
            </Position>
            <AltitudeMeters>-17.3999996185302734375</AltitudeMeters>
            <DistanceMeters>7415.103886944</DistanceMeters>
          </Trackpoint>
          <Trackpoint>
            <Time>2018-04-21T08:28:36.000Z</Time>
            <Position>
              <LatitudeDegrees>43.3194761909544467926025390625</LatitudeDegrees>
              <LongitudeDegrees>-8.37146602571010589599609375</LongitudeDegrees>
            </Position>
            <AltitudeMeters>-18.3999996185302734375</AltitudeMeters>
            <DistanceMeters>7439.6355076514</DistanceMeters>
          </Trackpoint>
          <Trackpoint>
            <Time>2018-04-21T08:28:37.000Z</Time>
            <Position>
              <LatitudeDegrees>43.31951516680419445037841796875</LatitudeDegrees>
              <LongitudeDegrees>-8.37137357331812381744384765625</LongitudeDegrees>
            </Position>
            <AltitudeMeters>-18.799999237060546875</AltitudeMeters>
            <DistanceMeters>7448.2881583318</DistanceMeters>
          </Trackpoint>
          <Trackpoint>
            <Time>2018-04-21T08:28:38.000Z</Time>
            <Position>
              <LatitudeDegrees>43.319545090198516845703125</LatitudeDegrees>
              <LongitudeDegrees>-8.3712774328887462615966796875</LongitudeDegrees>
            </Position>
            <AltitudeMeters>-19.200000762939453125</AltitudeMeters>
            <DistanceMeters>7456.7556731363</DistanceMeters>
          </Trackpoint>
          <Trackpoint>
            <Time>2018-04-21T08:28:40.000Z</Time>
            <Position>
              <LatitudeDegrees>43.31957099027931690216064453125</LatitudeDegrees>
              <LongitudeDegrees>-8.371091522276401519775390625</LongitudeDegrees>
            </Position>
            <AltitudeMeters>-20.3999996185302734375</AltitudeMeters>
            <DistanceMeters>7472.0841625946</DistanceMeters>
          </Trackpoint>
          <Trackpoint>
            <Time>2018-04-21T08:28:43.000Z</Time>
            <Position>
              <LatitudeDegrees>43.31948247738182544708251953125</LatitudeDegrees>
              <LongitudeDegrees>-8.37092732079327106475830078125</LongitudeDegrees>
            </Position>
            <AltitudeMeters>-21.3999996185302734375</AltitudeMeters>
            <DistanceMeters>7488.6324585262</DistanceMeters>
          </Trackpoint>
          <Trackpoint>
            <Time>2018-04-21T08:28:46.000Z</Time>
            <Position>
              <LatitudeDegrees>43.319348283112049102783203125</LatitudeDegrees>
              <LongitudeDegrees>-8.37086521089076995849609375</LongitudeDegrees>
            </Position>
            <AltitudeMeters>-20.799999237060546875</AltitudeMeters>
            <DistanceMeters>7504.3925753616</DistanceMeters>
          </Trackpoint>
          <Trackpoint>
            <Time>2018-04-21T08:28:47.000Z</Time>
            <Position>
              <LatitudeDegrees>43.319276534020900726318359375</LatitudeDegrees>
              <LongitudeDegrees>-8.3708311803638935089111328125</LongitudeDegrees>
            </Position>
            <AltitudeMeters>-20.799999237060546875</AltitudeMeters>
            <DistanceMeters>7512.8408724807</DistanceMeters>
          </Trackpoint>
          <Trackpoint>
            <Time>2018-04-21T08:28:50.000Z</Time>
            <Position>
              <LatitudeDegrees>43.31911861896514892578125</LatitudeDegrees>
              <LongitudeDegrees>-8.37064786814153194427490234375</LongitudeDegrees>
            </Position>
            <AltitudeMeters>-21</AltitudeMeters>
            <DistanceMeters>7535.846759565</DistanceMeters>
          </Trackpoint>
          <Trackpoint>
            <Time>2018-04-21T08:28:51.000Z</Time>
            <Position>
              <LatitudeDegrees>43.31905868835747241973876953125</LatitudeDegrees>
              <LongitudeDegrees>-8.3705904521048069000244140625</LongitudeDegrees>
            </Position>
            <AltitudeMeters>-21</AltitudeMeters>
            <DistanceMeters>7543.9780706353</DistanceMeters>
          </Trackpoint>
          <Trackpoint>
            <Time>2018-04-21T08:28:53.000Z</Time>
            <Position>
              <LatitudeDegrees>43.31896112300455570220947265625</LatitudeDegrees>
              <LongitudeDegrees>-8.370443098247051239013671875</LongitudeDegrees>
            </Position>
            <AltitudeMeters>-21</AltitudeMeters>
            <DistanceMeters>7560.1119165369</DistanceMeters>
          </Trackpoint>
          <Trackpoint>
            <Time>2018-04-21T08:28:57.000Z</Time>
            <Position>
              <LatitudeDegrees>43.3189132623374462127685546875</LatitudeDegrees>
              <LongitudeDegrees>-8.37007119320333003997802734375</LongitudeDegrees>
            </Position>
            <AltitudeMeters>-21.3999996185302734375</AltitudeMeters>
            <DistanceMeters>7590.6954640456</DistanceMeters>
          </Trackpoint>
          <Trackpoint>
            <Time>2018-04-21T08:29:00.000Z</Time>
            <Position>
              <LatitudeDegrees>43.318920470774173736572265625</LatitudeDegrees>
              <LongitudeDegrees>-8.369789980351924896240234375</LongitudeDegrees>
            </Position>
            <AltitudeMeters>-20.799999237060546875</AltitudeMeters>
            <DistanceMeters>7613.4814752213</DistanceMeters>
          </Trackpoint>
          <Trackpoint>
            <Time>2018-04-21T08:29:02.000Z</Time>
            <Position>
              <LatitudeDegrees>43.31893513910472393035888671875</LatitudeDegrees>
              <LongitudeDegrees>-8.3696074225008487701416015625</LongitudeDegrees>
            </Position>
            <AltitudeMeters>-20.6000003814697265625</AltitudeMeters>
            <DistanceMeters>7628.3542944756</DistanceMeters>
          </Trackpoint>
          <Trackpoint>
            <Time>2018-04-21T08:29:05.000Z</Time>
            <Position>
              <LatitudeDegrees>43.31898140721023082733154296875</LatitudeDegrees>
              <LongitudeDegrees>-8.36934096179902553558349609375</LongitudeDegrees>
            </Position>
            <AltitudeMeters>-20.200000762939453125</AltitudeMeters>
            <DistanceMeters>7650.5376902005</DistanceMeters>
          </Trackpoint>
          <Trackpoint>
            <Time>2018-04-21T08:29:08.000Z</Time>
            <Position>
              <LatitudeDegrees>43.31904142163693904876708984375</LatitudeDegrees>
              <LongitudeDegrees>-8.36907927878201007843017578125</LongitudeDegrees>
            </Position>
            <AltitudeMeters>-20.200000762939453125</AltitudeMeters>
            <DistanceMeters>7672.7558626943</DistanceMeters>
          </Trackpoint>
          <Trackpoint>
            <Time>2018-04-21T08:29:09.000Z</Time>
            <Position>
              <LatitudeDegrees>43.31907629035413265228271484375</LatitudeDegrees>
              <LongitudeDegrees>-8.3690030872821807861328125</LongitudeDegrees>
            </Position>
            <AltitudeMeters>-20.3999996185302734375</AltitudeMeters>
            <DistanceMeters>7680.0450992659</DistanceMeters>
          </Trackpoint>
          <Trackpoint>
            <Time>2018-04-21T08:29:12.000Z</Time>
            <Position>
              <LatitudeDegrees>43.3191395737230777740478515625</LatitudeDegrees>
              <LongitudeDegrees>-8.36875137872993946075439453125</LongitudeDegrees>
            </Position>
            <AltitudeMeters>-20.799999237060546875</AltitudeMeters>
            <DistanceMeters>7701.6103019531</DistanceMeters>
          </Trackpoint>
          <Trackpoint>
            <Time>2018-04-21T08:29:15.000Z</Time>
            <Position>
              <LatitudeDegrees>43.31911484710872173309326171875</LatitudeDegrees>
              <LongitudeDegrees>-8.3684886060655117034912109375</LongitudeDegrees>
            </Position>
            <AltitudeMeters>-20.200000762939453125</AltitudeMeters>
            <DistanceMeters>7723.0661472432</DistanceMeters>
          </Trackpoint>
          <Trackpoint>
            <Time>2018-04-21T08:29:16.000Z</Time>
            <Position>
              <LatitudeDegrees>43.31911635585129261016845703125</LatitudeDegrees>
              <LongitudeDegrees>-8.368398584425449371337890625</LongitudeDegrees>
            </Position>
            <AltitudeMeters>-20.3999996185302734375</AltitudeMeters>
            <DistanceMeters>7730.3578610405</DistanceMeters>
          </Trackpoint>
          <Trackpoint>
            <Time>2018-04-21T08:29:18.000Z</Time>
            <Position>
              <LatitudeDegrees>43.319134376943111419677734375</LatitudeDegrees>
              <LongitudeDegrees>-8.36825517006218433380126953125</LongitudeDegrees>
            </Position>
            <AltitudeMeters>-20</AltitudeMeters>
            <DistanceMeters>7742.1430893278</DistanceMeters>
          </Trackpoint>
          <Trackpoint>
            <Time>2018-04-21T08:29:23.000Z</Time>
            <Position>
              <LatitudeDegrees>43.31918005831539630889892578125</LatitudeDegrees>
              <LongitudeDegrees>-8.3678133599460124969482421875</LongitudeDegrees>
            </Position>
            <AltitudeMeters>-20.6000003814697265625</AltitudeMeters>
            <DistanceMeters>7778.2791137956</DistanceMeters>
          </Trackpoint>
          <Trackpoint>
            <Time>2018-04-21T08:29:24.000Z</Time>
            <Position>
              <LatitudeDegrees>43.31920956261456012725830078125</LatitudeDegrees>
              <LongitudeDegrees>-8.36773264221847057342529296875</LongitudeDegrees>
            </Position>
            <AltitudeMeters>-20.799999237060546875</AltitudeMeters>
            <DistanceMeters>7785.5937021593</DistanceMeters>
          </Trackpoint>
          <Trackpoint>
            <Time>2018-04-21T08:29:26.000Z</Time>
            <Position>
              <LatitudeDegrees>43.31930712796747684478759765625</LatitudeDegrees>
              <LongitudeDegrees>-8.3676235936582088470458984375</LongitudeDegrees>
            </Position>
            <AltitudeMeters>-21.200000762939453125</AltitudeMeters>
            <DistanceMeters>7799.5900759174</DistanceMeters>
          </Trackpoint>
          <Trackpoint>
            <Time>2018-04-21T08:29:27.000Z</Time>
            <Position>
              <LatitudeDegrees>43.31936337053775787353515625</LatitudeDegrees>
              <LongitudeDegrees>-8.36760004051029682159423828125</LongitudeDegrees>
            </Position>
            <AltitudeMeters>-21.3999996185302734375</AltitudeMeters>
            <DistanceMeters>7806.1338227414</DistanceMeters>
          </Trackpoint>
          <Trackpoint>
            <Time>2018-04-21T08:29:29.000Z</Time>
            <Position>
              <LatitudeDegrees>43.3194336108863353729248046875</LatitudeDegrees>
              <LongitudeDegrees>-8.36751203052699565887451171875</LongitudeDegrees>
            </Position>
            <AltitudeMeters>-21.6000003814697265625</AltitudeMeters>
            <DistanceMeters>7816.7129894121</DistanceMeters>
          </Trackpoint>
          <Trackpoint>
            <Time>2018-04-21T08:29:32.000Z</Time>
            <Position>
              <LatitudeDegrees>43.319459259510040283203125</LatitudeDegrees>
              <LongitudeDegrees>-8.367318324744701385498046875</LongitudeDegrees>
            </Position>
            <AltitudeMeters>-21.200000762939453125</AltitudeMeters>
            <DistanceMeters>7832.6565351877</DistanceMeters>
          </Trackpoint>
          <Trackpoint>
            <Time>2018-04-21T08:29:33.000Z</Time>
            <Position>
              <LatitudeDegrees>43.31946018151938915252685546875</LatitudeDegrees>
              <LongitudeDegrees>-8.367247916758060455322265625</LongitudeDegrees>
            </Position>
            <AltitudeMeters>-21.200000762939453125</AltitudeMeters>
            <DistanceMeters>7838.3597216085</DistanceMeters>
          </Trackpoint>
          <Trackpoint>
            <Time>2018-04-21T08:29:39.000Z</Time>
            <Position>
              <LatitudeDegrees>43.31948985345661640167236328125</LatitudeDegrees>
              <LongitudeDegrees>-8.3667968027293682098388671875</LongitudeDegrees>
            </Position>
            <AltitudeMeters>-20.3999996185302734375</AltitudeMeters>
            <DistanceMeters>7875.0385562265</DistanceMeters>
          </Trackpoint>
          <Trackpoint>
            <Time>2018-04-21T08:29:44.000Z</Time>
            <Position>
              <LatitudeDegrees>43.3195249736309051513671875</LatitudeDegrees>
              <LongitudeDegrees>-8.3664122410118579864501953125</LongitudeDegrees>
            </Position>
            <AltitudeMeters>-20.3999996185302734375</AltitudeMeters>
            <DistanceMeters>7906.4234215055</DistanceMeters>
          </Trackpoint>
          <Trackpoint>
            <Time>2018-04-21T08:29:47.000Z</Time>
            <Position>
              <LatitudeDegrees>43.319550119340419769287109375</LatitudeDegrees>
              <LongitudeDegrees>-8.366169668734073638916015625</LongitudeDegrees>
            </Position>
            <AltitudeMeters>-20.200000762939453125</AltitudeMeters>
            <DistanceMeters>7926.264671785</DistanceMeters>
          </Trackpoint>
          <Trackpoint>
            <Time>2018-04-21T08:29:56.000Z</Time>
            <Position>
              <LatitudeDegrees>43.31962899304926395416259765625</LatitudeDegrees>
              <LongitudeDegrees>-8.365436084568500518798828125</LongitudeDegrees>
            </Position>
            <AltitudeMeters>-20.3999996185302734375</AltitudeMeters>
            <DistanceMeters>7986.3128338277</DistanceMeters>
          </Trackpoint>
          <Trackpoint>
            <Time>2018-04-21T08:30:00.000Z</Time>
            <Position>
              <LatitudeDegrees>43.3196790330111980438232421875</LatitudeDegrees>
              <LongitudeDegrees>-8.36511581204831600189208984375</LongitudeDegrees>
            </Position>
            <AltitudeMeters>-20.3999996185302734375</AltitudeMeters>
            <DistanceMeters>8012.8387373281</DistanceMeters>
          </Trackpoint>
          <Trackpoint>
            <Time>2018-04-21T08:30:02.000Z</Time>
            <Position>
              <LatitudeDegrees>43.31973510794341564178466796875</LatitudeDegrees>
              <LongitudeDegrees>-8.36498404853045940399169921875</LongitudeDegrees>
            </Position>
            <AltitudeMeters>-20.6000003814697265625</AltitudeMeters>
            <DistanceMeters>8025.1995177821</DistanceMeters>
          </Trackpoint>
          <Trackpoint>
            <Time>2018-04-21T08:30:05.000Z</Time>
            <Position>
              <LatitudeDegrees>43.31986318342387676239013671875</LatitudeDegrees>
              <LongitudeDegrees>-8.36485312320291996002197265625</LongitudeDegrees>
            </Position>
            <AltitudeMeters>-21</AltitudeMeters>
            <DistanceMeters>8042.964685153</DistanceMeters>
          </Trackpoint>
          <Trackpoint>
            <Time>2018-04-21T08:30:06.000Z</Time>
            <Position>
              <LatitudeDegrees>43.31989570520818233489990234375</LatitudeDegrees>
              <LongitudeDegrees>-8.3648143149912357330322265625</LongitudeDegrees>
            </Position>
            <AltitudeMeters>-21.3999996185302734375</AltitudeMeters>
            <DistanceMeters>8047.7585921765</DistanceMeters>
          </Trackpoint>
          <Trackpoint>
            <Time>2018-04-21T08:30:08.000Z</Time>
            <Position>
              <LatitudeDegrees>43.319892100989818572998046875</LatitudeDegrees>
              <LongitudeDegrees>-8.36472588591277599334716796875</LongitudeDegrees>
            </Position>
            <AltitudeMeters>-21.799999237060546875</AltitudeMeters>
            <DistanceMeters>8054.9304340198</DistanceMeters>
          </Trackpoint>
          <Trackpoint>
            <Time>2018-04-21T08:30:10.000Z</Time>
            <Position>
              <LatitudeDegrees>43.31984340213239192962646484375</LatitudeDegrees>
              <LongitudeDegrees>-8.36463720537722110748291015625</LongitudeDegrees>
            </Position>
            <AltitudeMeters>-21.799999237060546875</AltitudeMeters>
            <DistanceMeters>8063.9279134068</DistanceMeters>
          </Trackpoint>
          <Trackpoint>
            <Time>2018-04-21T08:30:12.000Z</Time>
            <Position>
              <LatitudeDegrees>43.31979118287563323974609375</LatitudeDegrees>
              <LongitudeDegrees>-8.364534862339496612548828125</LongitudeDegrees>
            </Position>
            <AltitudeMeters>-21.799999237060546875</AltitudeMeters>
            <DistanceMeters>8074.0499313545</DistanceMeters>
          </Trackpoint>
          <Trackpoint>
            <Time>2018-04-21T08:30:17.000Z</Time>
            <Position>
              <LatitudeDegrees>43.31965061835944652557373046875</LatitudeDegrees>
              <LongitudeDegrees>-8.36423738859593868255615234375</LongitudeDegrees>
            </Position>
            <AltitudeMeters>-20.799999237060546875</AltitudeMeters>
            <DistanceMeters>8102.7728463192</DistanceMeters>
          </Trackpoint>
          <Trackpoint>
            <Time>2018-04-21T08:30:18.000Z</Time>
            <Position>
              <LatitudeDegrees>43.31962731666862964630126953125</LatitudeDegrees>
              <LongitudeDegrees>-8.364183492958545684814453125</LongitudeDegrees>
            </Position>
            <AltitudeMeters>-20.799999237060546875</AltitudeMeters>
            <DistanceMeters>8107.848553964</DistanceMeters>
          </Trackpoint>
          <Trackpoint>
            <Time>2018-04-21T08:30:23.000Z</Time>
            <Position>
              <LatitudeDegrees>43.31950712017714977264404296875</LatitudeDegrees>
              <LongitudeDegrees>-8.36387210525572299957275390625</LongitudeDegrees>
            </Position>
            <AltitudeMeters>-20.799999237060546875</AltitudeMeters>
            <DistanceMeters>8136.3926555856</DistanceMeters>
          </Trackpoint>
          <Trackpoint>
            <Time>2018-04-21T08:30:26.000Z</Time>
            <Position>
              <LatitudeDegrees>43.319440819323062896728515625</LatitudeDegrees>
              <LongitudeDegrees>-8.363666832447052001953125</LongitudeDegrees>
            </Position>
            <AltitudeMeters>-20.3999996185302734375</AltitudeMeters>
            <DistanceMeters>8154.5792891386</DistanceMeters>
          </Trackpoint>
          <Trackpoint>
            <Time>2018-04-21T08:30:30.000Z</Time>
            <Position>
              <LatitudeDegrees>43.31932959146797657012939453125</LatitudeDegrees>
              <LongitudeDegrees>-8.3634160459041595458984375</LongitudeDegrees>
            </Position>
            <AltitudeMeters>-20</AltitudeMeters>
            <DistanceMeters>8178.3631298435</DistanceMeters>
          </Trackpoint>
          <Trackpoint>
            <Time>2018-04-21T08:30:33.000Z</Time>
            <Position>
              <LatitudeDegrees>43.31922900862991809844970703125</LatitudeDegrees>
              <LongitudeDegrees>-8.36324094794690608978271484375</LongitudeDegrees>
            </Position>
            <AltitudeMeters>-20</AltitudeMeters>
            <DistanceMeters>8196.4292053164</DistanceMeters>
          </Trackpoint>
          <Trackpoint>
            <Time>2018-04-21T08:30:35.000Z</Time>
            <Position>
              <LatitudeDegrees>43.319139070808887481689453125</LatitudeDegrees>
              <LongitudeDegrees>-8.3631523512303829193115234375</LongitudeDegrees>
            </Position>
            <AltitudeMeters>-20</AltitudeMeters>
            <DistanceMeters>8208.7449754518</DistanceMeters>
          </Trackpoint>
          <Trackpoint>
            <Time>2018-04-21T08:30:44.000Z</Time>
            <Position>
              <LatitudeDegrees>43.31871620379388332366943359375</LatitudeDegrees>
              <LongitudeDegrees>-8.3628110401332378387451171875</LongitudeDegrees>
            </Position>
            <AltitudeMeters>-20.200000762939453125</AltitudeMeters>
            <DistanceMeters>8263.3259742464</DistanceMeters>
          </Trackpoint>
          <Trackpoint>
            <Time>2018-04-21T08:30:45.000Z</Time>
            <Position>
              <LatitudeDegrees>43.3186822570860385894775390625</LatitudeDegrees>
              <LongitudeDegrees>-8.3627560548484325408935546875</LongitudeDegrees>
            </Position>
            <AltitudeMeters>-20.200000762939453125</AltitudeMeters>
            <DistanceMeters>8269.1652865905</DistanceMeters>
          </Trackpoint>
          <Trackpoint>
            <Time>2018-04-21T08:30:47.000Z</Time>
            <Position>
              <LatitudeDegrees>43.31860673613846302032470703125</LatitudeDegrees>
              <LongitudeDegrees>-8.3626360259950160980224609375</LongitudeDegrees>
            </Position>
            <AltitudeMeters>-20.200000762939453125</AltitudeMeters>
            <DistanceMeters>8282.0153440945</DistanceMeters>
          </Trackpoint>
          <Trackpoint>
            <Time>2018-04-21T08:30:51.000Z</Time>
            <Position>
              <LatitudeDegrees>43.31838277168571949005126953125</LatitudeDegrees>
              <LongitudeDegrees>-8.36244014091789722442626953125</LongitudeDegrees>
            </Position>
            <AltitudeMeters>-19.799999237060546875</AltitudeMeters>
            <DistanceMeters>8311.5620821623</DistanceMeters>
          </Trackpoint>
          <Trackpoint>
            <Time>2018-04-21T08:30:53.000Z</Time>
            <Position>
              <LatitudeDegrees>43.31825771369040012359619140625</LatitudeDegrees>
              <LongitudeDegrees>-8.36234827525913715362548828125</LongitudeDegrees>
            </Position>
            <AltitudeMeters>-19.3999996185302734375</AltitudeMeters>
            <DistanceMeters>8327.3445290141</DistanceMeters>
          </Trackpoint>
          <Trackpoint>
            <Time>2018-04-21T08:30:55.000Z</Time>
            <Position>
              <LatitudeDegrees>43.31813148222863674163818359375</LatitudeDegrees>
              <LongitudeDegrees>-8.36225439794361591339111328125</LongitudeDegrees>
            </Position>
            <AltitudeMeters>-19.3999996185302734375</AltitudeMeters>
            <DistanceMeters>8343.3191952174</DistanceMeters>
          </Trackpoint>
          <Trackpoint>
            <Time>2018-04-21T08:30:58.000Z</Time>
            <Position>
              <LatitudeDegrees>43.317946828901767730712890625</LatitudeDegrees>
              <LongitudeDegrees>-8.36210913956165313720703125</LongitudeDegrees>
            </Position>
            <AltitudeMeters>-19.3999996185302734375</AltitudeMeters>
            <DistanceMeters>8366.9995397481</DistanceMeters>
          </Trackpoint>
          <Trackpoint>
            <Time>2018-04-21T08:31:01.000Z</Time>
            <Position>
              <LatitudeDegrees>43.31775111146271228790283203125</LatitudeDegrees>
              <LongitudeDegrees>-8.36195549927651882171630859375</LongitudeDegrees>
            </Position>
            <AltitudeMeters>-19.3999996185302734375</AltitudeMeters>
            <DistanceMeters>8392.0858724321</DistanceMeters>
          </Trackpoint>
          <Trackpoint>
            <Time>2018-04-21T08:31:04.000Z</Time>
            <Position>
              <LatitudeDegrees>43.31756989471614360809326171875</LatitudeDegrees>
              <LongitudeDegrees>-8.361774198710918426513671875</LongitudeDegrees>
            </Position>
            <AltitudeMeters>-19.3999996185302734375</AltitudeMeters>
            <DistanceMeters>8417.0332355928</DistanceMeters>
          </Trackpoint>
          <Trackpoint>
            <Time>2018-04-21T08:31:05.000Z</Time>
            <Position>
              <LatitudeDegrees>43.3175074495375156402587890625</LatitudeDegrees>
              <LongitudeDegrees>-8.36171963252127170562744140625</LongitudeDegrees>
            </Position>
            <AltitudeMeters>-19.6000003814697265625</AltitudeMeters>
            <DistanceMeters>8425.2693714736</DistanceMeters>
          </Trackpoint>
          <Trackpoint>
            <Time>2018-04-21T08:31:08.000Z</Time>
            <Position>
              <LatitudeDegrees>43.3173052780330181121826171875</LatitudeDegrees>
              <LongitudeDegrees>-8.36157940328121185302734375</LongitudeDegrees>
            </Position>
            <AltitudeMeters>-19.200000762939453125</AltitudeMeters>
            <DistanceMeters>8450.4743901814</DistanceMeters>
          </Trackpoint>
          <Trackpoint>
            <Time>2018-04-21T08:31:14.000Z</Time>
            <Position>
              <LatitudeDegrees>43.31692934967577457427978515625</LatitudeDegrees>
              <LongitudeDegrees>-8.36127069778740406036376953125</LongitudeDegrees>
            </Position>
            <AltitudeMeters>-19.6000003814697265625</AltitudeMeters>
            <DistanceMeters>8499.215221434</DistanceMeters>
          </Trackpoint>
          <Trackpoint>
            <Time>2018-04-21T08:31:20.000Z</Time>
            <Position>
              <LatitudeDegrees>43.31655266694724559783935546875</LatitudeDegrees>
              <LongitudeDegrees>-8.36097565479576587677001953125</LongitudeDegrees>
            </Position>
            <AltitudeMeters>-19.6000003814697265625</AltitudeMeters>
            <DistanceMeters>8547.4708311884</DistanceMeters>
          </Trackpoint>
          <Trackpoint>
            <Time>2018-04-21T08:31:24.000Z</Time>
            <Position>
              <LatitudeDegrees>43.3162732981145381927490234375</LatitudeDegrees>
              <LongitudeDegrees>-8.36089854128658771514892578125</LongitudeDegrees>
            </Position>
            <AltitudeMeters>-19.6000003814697265625</AltitudeMeters>
            <DistanceMeters>8579.1861305736</DistanceMeters>
          </Trackpoint>
          <Trackpoint>
            <Time>2018-04-21T08:31:31.000Z</Time>
            <Position>
              <LatitudeDegrees>43.3158394508063793182373046875</LatitudeDegrees>
              <LongitudeDegrees>-8.3608210086822509765625</LongitudeDegrees>
            </Position>
            <AltitudeMeters>-19.6000003814697265625</AltitudeMeters>
            <DistanceMeters>8627.8806230032</DistanceMeters>
          </Trackpoint>
          <Trackpoint>
            <Time>2018-04-21T08:31:33.000Z</Time>
            <Position>
              <LatitudeDegrees>43.31575605086982250213623046875</LatitudeDegrees>
              <LongitudeDegrees>-8.36078404448926448822021484375</LongitudeDegrees>
            </Position>
            <AltitudeMeters>-19.6000003814697265625</AltitudeMeters>
            <DistanceMeters>8637.6332531707</DistanceMeters>
          </Trackpoint>
          <Trackpoint>
            <Time>2018-04-21T08:31:35.000Z</Time>
            <Position>
              <LatitudeDegrees>43.31568983383476734161376953125</LatitudeDegrees>
              <LongitudeDegrees>-8.36073693819344043731689453125</LongitudeDegrees>
            </Position>
            <AltitudeMeters>-19.799999237060546875</AltitudeMeters>
            <DistanceMeters>8645.9311042711</DistanceMeters>
          </Trackpoint>
          <Trackpoint>
            <Time>2018-04-21T08:31:40.000Z</Time>
            <Position>
              <LatitudeDegrees>43.31544927321374416351318359375</LatitudeDegrees>
              <LongitudeDegrees>-8.3606049232184886932373046875</LongitudeDegrees>
            </Position>
            <AltitudeMeters>-19.6000003814697265625</AltitudeMeters>
            <DistanceMeters>8674.761338685</DistanceMeters>
          </Trackpoint>
          <Trackpoint>
            <Time>2018-04-21T08:31:42.000Z</Time>
            <Position>
              <LatitudeDegrees>43.3153211139142513275146484375</LatitudeDegrees>
              <LongitudeDegrees>-8.36055521853268146514892578125</LongitudeDegrees>
            </Position>
            <AltitudeMeters>-20.3999996185302734375</AltitudeMeters>
            <DistanceMeters>8689.5824600858</DistanceMeters>
          </Trackpoint>
          <Trackpoint>
            <Time>2018-04-21T08:31:45.000Z</Time>
            <Position>
              <LatitudeDegrees>43.31511483527719974517822265625</LatitudeDegrees>
              <LongitudeDegrees>-8.36050543002784252166748046875</LongitudeDegrees>
            </Position>
            <AltitudeMeters>-21.6000003814697265625</AltitudeMeters>
            <DistanceMeters>8712.8928830751</DistanceMeters>
          </Trackpoint>
          <Trackpoint>
            <Time>2018-04-21T08:31:52.000Z</Time>
            <Position>
              <LatitudeDegrees>43.31462583504617214202880859375</LatitudeDegrees>
              <LongitudeDegrees>-8.3605194278061389923095703125</LongitudeDegrees>
            </Position>
            <AltitudeMeters>-21.799999237060546875</AltitudeMeters>
            <DistanceMeters>8767.3313315086</DistanceMeters>
          </Trackpoint>
          <Trackpoint>
            <Time>2018-04-21T08:31:53.000Z</Time>
            <Position>
              <LatitudeDegrees>43.31455609761178493499755859375</LatitudeDegrees>
              <LongitudeDegrees>-8.36052504368126392364501953125</LongitudeDegrees>
            </Position>
            <AltitudeMeters>-21.799999237060546875</AltitudeMeters>
            <DistanceMeters>8775.106119719</DistanceMeters>
          </Trackpoint>
          <Trackpoint>
            <Time>2018-04-21T08:31:59.000Z</Time>
            <Position>
              <LatitudeDegrees>43.314138762652873992919921875</LatitudeDegrees>
              <LongitudeDegrees>-8.36053560487926006317138671875</LongitudeDegrees>
            </Position>
            <AltitudeMeters>-21.6000003814697265625</AltitudeMeters>
            <DistanceMeters>8821.5641740421</DistanceMeters>
          </Trackpoint>
          <Trackpoint>
            <Time>2018-04-21T08:32:01.000Z</Time>
            <Position>
              <LatitudeDegrees>43.314005993306636810302734375</LatitudeDegrees>
              <LongitudeDegrees>-8.360534347593784332275390625</LongitudeDegrees>
            </Position>
            <AltitudeMeters>-21.3999996185302734375</AltitudeMeters>
            <DistanceMeters>8836.3416683711</DistanceMeters>
          </Trackpoint>
          <Trackpoint>
            <Time>2018-04-21T08:32:04.000Z</Time>
            <Position>
              <LatitudeDegrees>43.3138388581573963165283203125</LatitudeDegrees>
              <LongitudeDegrees>-8.36057349108159542083740234375</LongitudeDegrees>
            </Position>
            <AltitudeMeters>-21.3999996185302734375</AltitudeMeters>
            <DistanceMeters>8855.2123086509</DistanceMeters>
          </Trackpoint>
          <Trackpoint>
            <Time>2018-04-21T08:32:05.000Z</Time>
            <Position>
              <LatitudeDegrees>43.3137868903577327728271484375</LatitudeDegrees>
              <LongitudeDegrees>-8.36057248525321483612060546875</LongitudeDegrees>
            </Position>
            <AltitudeMeters>-21</AltitudeMeters>
            <DistanceMeters>8860.9972428166</DistanceMeters>
          </Trackpoint>
          <Trackpoint>
            <Time>2018-04-21T08:32:08.000Z</Time>
            <Position>
              <LatitudeDegrees>43.31363056786358356475830078125</LatitudeDegrees>
              <LongitudeDegrees>-8.36048682220280170440673828125</LongitudeDegrees>
            </Position>
            <AltitudeMeters>-21.200000762939453125</AltitudeMeters>
            <DistanceMeters>8879.7283557081</DistanceMeters>
          </Trackpoint>
          <Trackpoint>
            <Time>2018-04-21T08:32:09.000Z</Time>
            <Position>
              <LatitudeDegrees>43.31357792951166629791259765625</LatitudeDegrees>
              <LongitudeDegrees>-8.3604473434388637542724609375</LongitudeDegrees>
            </Position>
            <AltitudeMeters>-21.200000762939453125</AltitudeMeters>
            <DistanceMeters>8886.4019107593</DistanceMeters>
          </Trackpoint>
          <Trackpoint>
            <Time>2018-04-21T08:32:16.000Z</Time>
            <Position>
              <LatitudeDegrees>43.313212059438228607177734375</LatitudeDegrees>
              <LongitudeDegrees>-8.36011634208261966705322265625</LongitudeDegrees>
            </Position>
            <AltitudeMeters>-21</AltitudeMeters>
            <DistanceMeters>8935.1547828914</DistanceMeters>
          </Trackpoint>
          <Trackpoint>
            <Time>2018-04-21T08:32:20.000Z</Time>
            <Position>
              <LatitudeDegrees>43.3130975626409053802490234375</LatitudeDegrees>
              <LongitudeDegrees>-8.35980713367462158203125</LongitudeDegrees>
            </Position>
            <AltitudeMeters>-21</AltitudeMeters>
            <DistanceMeters>8963.2524967369</DistanceMeters>
          </Trackpoint>
          <Trackpoint>
            <Time>2018-04-21T08:32:24.000Z</Time>
            <Position>
              <LatitudeDegrees>43.31293755210936069488525390625</LatitudeDegrees>
              <LongitudeDegrees>-8.35961275734007358551025390625</LongitudeDegrees>
            </Position>
            <AltitudeMeters>-22</AltitudeMeters>
            <DistanceMeters>8987.0217155459</DistanceMeters>
          </Trackpoint>
          <Trackpoint>
            <Time>2018-04-21T08:32:25.000Z</Time>
            <Position>
              <LatitudeDegrees>43.312887847423553466796875</LatitudeDegrees>
              <LongitudeDegrees>-8.359584175050258636474609375</LongitudeDegrees>
            </Position>
            <AltitudeMeters>-22.200000762939453125</AltitudeMeters>
            <DistanceMeters>8993.0181948797</DistanceMeters>
          </Trackpoint>
          <Trackpoint>
            <Time>2018-04-21T08:32:30.000Z</Time>
            <Position>
              <LatitudeDegrees>43.31263094209134578704833984375</LatitudeDegrees>
              <LongitudeDegrees>-8.35941259749233722686767578125</LongitudeDegrees>
            </Position>
            <AltitudeMeters>-21.6000003814697265625</AltitudeMeters>
            <DistanceMeters>9024.8097084653</DistanceMeters>
          </Trackpoint>
          <Trackpoint>
            <Time>2018-04-21T08:32:31.000Z</Time>
            <Position>
              <LatitudeDegrees>43.3125887811183929443359375</LatitudeDegrees>
              <LongitudeDegrees>-8.35935694165527820587158203125</LongitudeDegrees>
            </Position>
            <AltitudeMeters>-21.6000003814697265625</AltitudeMeters>
            <DistanceMeters>9031.3174775548</DistanceMeters>
          </Trackpoint>
          <Trackpoint>
            <Time>2018-04-21T08:32:34.000Z</Time>
            <Position>
              <LatitudeDegrees>43.312461711466312408447265625</LatitudeDegrees>
              <LongitudeDegrees>-8.3592103421688079833984375</LongitudeDegrees>
            </Position>
            <AltitudeMeters>-21.6000003814697265625</AltitudeMeters>
            <DistanceMeters>9049.7834935485</DistanceMeters>
          </Trackpoint>
          <Trackpoint>
            <Time>2018-04-21T08:32:36.000Z</Time>
            <Position>
              <LatitudeDegrees>43.31237529404461383819580078125</LatitudeDegrees>
              <LongitudeDegrees>-8.35914186201989650726318359375</LongitudeDegrees>
            </Position>
            <AltitudeMeters>-21</AltitudeMeters>
            <DistanceMeters>9060.8865833712</DistanceMeters>
          </Trackpoint>
          <Trackpoint>
            <Time>2018-04-21T08:32:40.000Z</Time>
            <Position>
              <LatitudeDegrees>43.31218955107033252716064453125</LatitudeDegrees>
              <LongitudeDegrees>-8.35900875739753246307373046875</LongitudeDegrees>
            </Position>
            <AltitudeMeters>-21</AltitudeMeters>
            <DistanceMeters>9084.2016545008</DistanceMeters>
          </Trackpoint>
          <Trackpoint>
            <Time>2018-04-21T08:32:41.000Z</Time>
            <Position>
              <LatitudeDegrees>43.31215015612542629241943359375</LatitudeDegrees>
              <LongitudeDegrees>-8.35896584205329418182373046875</LongitudeDegrees>
            </Position>
            <AltitudeMeters>-20.799999237060546875</AltitudeMeters>
            <DistanceMeters>9089.7977518112</DistanceMeters>
          </Trackpoint>
          <Trackpoint>
            <Time>2018-04-21T08:32:42.000Z</Time>
            <Position>
              <LatitudeDegrees>43.31210841424763202667236328125</LatitudeDegrees>
              <LongitudeDegrees>-8.358935751020908355712890625</LongitudeDegrees>
            </Position>
            <AltitudeMeters>-20.799999237060546875</AltitudeMeters>
            <DistanceMeters>9095.0440526986</DistanceMeters>
          </Trackpoint>
          <Trackpoint>
            <Time>2018-04-21T08:32:44.000Z</Time>
            <Position>
              <LatitudeDegrees>43.3120370842516422271728515625</LatitudeDegrees>
              <LongitudeDegrees>-8.3589064143598079681396484375</LongitudeDegrees>
            </Position>
            <AltitudeMeters>-21.200000762939453125</AltitudeMeters>
            <DistanceMeters>9103.3315590444</DistanceMeters>
          </Trackpoint>
          <Trackpoint>
            <Time>2018-04-21T08:32:47.000Z</Time>
            <Position>
              <LatitudeDegrees>43.31200179643929004669189453125</LatitudeDegrees>
              <LongitudeDegrees>-8.35878294892609119415283203125</LongitudeDegrees>
            </Position>
            <AltitudeMeters>-21</AltitudeMeters>
            <DistanceMeters>9114.0742019666</DistanceMeters>
          </Trackpoint>
          <Trackpoint>
            <Time>2018-04-21T08:32:49.000Z</Time>
            <Position>
              <LatitudeDegrees>43.31200397573411464691162109375</LatitudeDegrees>
              <LongitudeDegrees>-8.35868664085865020751953125</LongitudeDegrees>
            </Position>
            <AltitudeMeters>-20.799999237060546875</AltitudeMeters>
            <DistanceMeters>9121.8779725641</DistanceMeters>
          </Trackpoint>
          <Trackpoint>
            <Time>2018-04-21T08:32:54.000Z</Time>
            <Position>
              <LatitudeDegrees>43.3120121061801910400390625</LatitudeDegrees>
              <LongitudeDegrees>-8.3584189228713512420654296875</LongitudeDegrees>
            </Position>
            <AltitudeMeters>-20.799999237060546875</AltitudeMeters>
            <DistanceMeters>9143.5784208654</DistanceMeters>
          </Trackpoint>
          <Trackpoint>
            <Time>2018-04-21T08:33:00.000Z</Time>
            <Position>
              <LatitudeDegrees>43.31202610395848751068115234375</LatitudeDegrees>
              <LongitudeDegrees>-8.3581165038049221038818359375</LongitudeDegrees>
            </Position>
            <AltitudeMeters>-20.6000003814697265625</AltitudeMeters>
            <DistanceMeters>9168.1196102927</DistanceMeters>
          </Trackpoint>
          <Trackpoint>
            <Time>2018-04-21T08:33:02.000Z</Time>
            <Position>
              <LatitudeDegrees>43.31203230656683444976806640625</LatitudeDegrees>
              <LongitudeDegrees>-8.3580301702022552490234375</LongitudeDegrees>
            </Position>
            <AltitudeMeters>-20.799999237060546875</AltitudeMeters>
            <DistanceMeters>9175.1451634981</DistanceMeters>
          </Trackpoint>
          <Trackpoint>
            <Time>2018-04-21T08:33:04.000Z</Time>
            <Position>
              <LatitudeDegrees>43.31198486499488353729248046875</LatitudeDegrees>
              <LongitudeDegrees>-8.3579549007117748260498046875</LongitudeDegrees>
            </Position>
            <AltitudeMeters>-20.799999237060546875</AltitudeMeters>
            <DistanceMeters>9183.2095674159</DistanceMeters>
          </Trackpoint>
          <Trackpoint>
            <Time>2018-04-21T08:33:05.000Z</Time>
            <Position>
              <LatitudeDegrees>43.3119415305554866790771484375</LatitudeDegrees>
              <LongitudeDegrees>-8.357891030609607696533203125</LongitudeDegrees>
            </Position>
            <AltitudeMeters>-20.6000003814697265625</AltitudeMeters>
            <DistanceMeters>9190.2812407219</DistanceMeters>
          </Trackpoint>
          <Trackpoint>
            <Time>2018-04-21T08:33:08.000Z</Time>
            <Position>
              <LatitudeDegrees>43.31186215393245220184326171875</LatitudeDegrees>
              <LongitudeDegrees>-8.35769288241863250732421875</LongitudeDegrees>
            </Position>
            <AltitudeMeters>-20.6000003814697265625</AltitudeMeters>
            <DistanceMeters>9208.5999661364</DistanceMeters>
          </Trackpoint>
          <Trackpoint>
            <Time>2018-04-21T08:33:10.000Z</Time>
            <Position>
              <LatitudeDegrees>43.31184321083128452301025390625</LatitudeDegrees>
              <LongitudeDegrees>-8.35755231790244579315185546875</LongitudeDegrees>
            </Position>
            <AltitudeMeters>-20.6000003814697265625</AltitudeMeters>
            <DistanceMeters>9220.1768566766</DistanceMeters>
          </Trackpoint>
          <Trackpoint>
            <Time>2018-04-21T08:33:13.000Z</Time>
            <Position>
              <LatitudeDegrees>43.311809934675693511962890625</LatitudeDegrees>
              <LongitudeDegrees>-8.35727303288877010345458984375</LongitudeDegrees>
            </Position>
            <AltitudeMeters>-20.799999237060546875</AltitudeMeters>
            <DistanceMeters>9243.0962285463</DistanceMeters>
          </Trackpoint>
          <Trackpoint>
            <Time>2018-04-21T08:33:18.000Z</Time>
            <Position>
              <LatitudeDegrees>43.3117524348199367523193359375</LatitudeDegrees>
              <LongitudeDegrees>-8.35681387223303318023681640625</LongitudeDegrees>
            </Position>
            <AltitudeMeters>-20.799999237060546875</AltitudeMeters>
            <DistanceMeters>9280.8288946695</DistanceMeters>
          </Trackpoint>
          <Trackpoint>
            <Time>2018-04-21T08:33:19.000Z</Time>
            <Position>
              <LatitudeDegrees>43.31171329133212566375732421875</LatitudeDegrees>
              <LongitudeDegrees>-8.35674480535089969635009765625</LongitudeDegrees>
            </Position>
            <AltitudeMeters>-20.799999237060546875</AltitudeMeters>
            <DistanceMeters>9287.9196961503</DistanceMeters>
          </Trackpoint>
          <Trackpoint>
            <Time>2018-04-21T08:33:22.000Z</Time>
            <Position>
              <LatitudeDegrees>43.3115733973681926727294921875</LatitudeDegrees>
              <LongitudeDegrees>-8.3566168136894702911376953125</LongitudeDegrees>
            </Position>
            <AltitudeMeters>-20.6000003814697265625</AltitudeMeters>
            <DistanceMeters>9306.6252408377</DistanceMeters>
          </Trackpoint>
          <Trackpoint>
            <Time>2018-04-21T08:33:30.000Z</Time>
            <Position>
              <LatitudeDegrees>43.3111613430082798004150390625</LatitudeDegrees>
              <LongitudeDegrees>-8.35630877874791622161865234375</LongitudeDegrees>
            </Position>
            <AltitudeMeters>-20.3999996185302734375</AltitudeMeters>
            <DistanceMeters>9358.8337513951</DistanceMeters>
          </Trackpoint>
          <Trackpoint>
            <Time>2018-04-21T08:33:35.000Z</Time>
            <Position>
              <LatitudeDegrees>43.3109222911298274993896484375</LatitudeDegrees>
              <LongitudeDegrees>-8.356100656092166900634765625</LongitudeDegrees>
            </Position>
            <AltitudeMeters>-20.799999237060546875</AltitudeMeters>
            <DistanceMeters>9390.3304845294</DistanceMeters>
          </Trackpoint>
          <Trackpoint>
            <Time>2018-04-21T08:33:36.000Z</Time>
            <Position>
              <LatitudeDegrees>43.31089940853416919708251953125</LatitudeDegrees>
              <LongitudeDegrees>-8.3560398034751415252685546875</LongitudeDegrees>
            </Position>
            <AltitudeMeters>-20.6000003814697265625</AltitudeMeters>
            <DistanceMeters>9395.8779614803</DistanceMeters>
          </Trackpoint>
          <Trackpoint>
            <Time>2018-04-21T08:33:39.000Z</Time>
            <Position>
              <LatitudeDegrees>43.31087174825370311737060546875</LatitudeDegrees>
              <LongitudeDegrees>-8.3558342792093753814697265625</LongitudeDegrees>
            </Position>
            <AltitudeMeters>-20.799999237060546875</AltitudeMeters>
            <DistanceMeters>9412.8052576508</DistanceMeters>
          </Trackpoint>
          <Trackpoint>
            <Time>2018-04-21T08:33:43.000Z</Time>
            <Position>
              <LatitudeDegrees>43.31087644211947917938232421875</LatitudeDegrees>
              <LongitudeDegrees>-8.35560788400471210479736328125</LongitudeDegrees>
            </Position>
            <AltitudeMeters>-21</AltitudeMeters>
            <DistanceMeters>9431.1481213395</DistanceMeters>
          </Trackpoint>
          <Trackpoint>
            <Time>2018-04-21T08:33:46.000Z</Time>
            <Position>
              <LatitudeDegrees>43.31088666804134845733642578125</LatitudeDegrees>
              <LongitudeDegrees>-8.3554886095225811004638671875</LongitudeDegrees>
            </Position>
            <AltitudeMeters>-21.3999996185302734375</AltitudeMeters>
            <DistanceMeters>9440.875255603</DistanceMeters>
          </Trackpoint>
          <Trackpoint>
            <Time>2018-04-21T08:33:49.000Z</Time>
            <Position>
              <LatitudeDegrees>43.31091483123600482940673828125</LatitudeDegrees>
              <LongitudeDegrees>-8.355369083583354949951171875</LongitudeDegrees>
            </Position>
            <AltitudeMeters>-20.799999237060546875</AltitudeMeters>
            <DistanceMeters>9451.0502163611</DistanceMeters>
          </Trackpoint>
          <Trackpoint>
            <Time>2018-04-21T08:33:50.000Z</Time>
            <Position>
              <LatitudeDegrees>43.31093343906104564666748046875</LatitudeDegrees>
              <LongitudeDegrees>-8.35531518794596195220947265625</LongitudeDegrees>
            </Position>
            <AltitudeMeters>-20.799999237060546875</AltitudeMeters>
            <DistanceMeters>9455.8816496482</DistanceMeters>
          </Trackpoint>
          <Trackpoint>
            <Time>2018-04-21T08:33:51.000Z</Time>
            <Position>
              <LatitudeDegrees>43.3109477721154689788818359375</LatitudeDegrees>
              <LongitudeDegrees>-8.35525534115731716156005859375</LongitudeDegrees>
            </Position>
            <AltitudeMeters>-20.799999237060546875</AltitudeMeters>
            <DistanceMeters>9460.9848584882</DistanceMeters>
          </Trackpoint>
          <Trackpoint>
            <Time>2018-04-21T08:33:53.000Z</Time>
            <Position>
              <LatitudeDegrees>43.310961686074733734130859375</LatitudeDegrees>
              <LongitudeDegrees>-8.35512005724012851715087890625</LongitudeDegrees>
            </Position>
            <AltitudeMeters>-19.799999237060546875</AltitudeMeters>
            <DistanceMeters>9472.0500655131</DistanceMeters>
          </Trackpoint>
          <Trackpoint>
            <Time>2018-04-21T08:33:54.000Z</Time>
            <Position>
              <LatitudeDegrees>43.31096143461763858795166015625</LatitudeDegrees>
              <LongitudeDegrees>-8.3550487272441387176513671875</LongitudeDegrees>
            </Position>
            <AltitudeMeters>-19</AltitudeMeters>
            <DistanceMeters>9477.8271895845</DistanceMeters>
          </Trackpoint>
          <Trackpoint>
            <Time>2018-04-21T08:33:55.000Z</Time>
            <Position>
              <LatitudeDegrees>43.31095607019960880279541015625</LatitudeDegrees>
              <LongitudeDegrees>-8.35497689433395862579345703125</LongitudeDegrees>
            </Position>
            <AltitudeMeters>-19</AltitudeMeters>
            <DistanceMeters>9483.6750010977</DistanceMeters>
          </Trackpoint>
          <Trackpoint>
            <Time>2018-04-21T08:33:57.000Z</Time>
            <Position>
              <LatitudeDegrees>43.31093712709844112396240234375</LatitudeDegrees>
              <LongitudeDegrees>-8.35483205504715442657470703125</LongitudeDegrees>
            </Position>
            <AltitudeMeters>-21</AltitudeMeters>
            <DistanceMeters>9495.5931847875</DistanceMeters>
          </Trackpoint>
          <Trackpoint>
            <Time>2018-04-21T08:34:00.000Z</Time>
            <Position>
              <LatitudeDegrees>43.31088147126138210296630859375</LatitudeDegrees>
              <LongitudeDegrees>-8.35461311973631381988525390625</LongitudeDegrees>
            </Position>
            <AltitudeMeters>-20.3999996185302734375</AltitudeMeters>
            <DistanceMeters>9514.3753296692</DistanceMeters>
          </Trackpoint>
          <Trackpoint>
            <Time>2018-04-21T08:34:01.000Z</Time>
            <Position>
              <LatitudeDegrees>43.3108522184193134307861328125</LatitudeDegrees>
              <LongitudeDegrees>-8.35455209948122501373291015625</LongitudeDegrees>
            </Position>
            <AltitudeMeters>-20.3999996185302734375</AltitudeMeters>
            <DistanceMeters>9520.2929843102</DistanceMeters>
          </Trackpoint>
          <Trackpoint>
            <Time>2018-04-21T08:34:06.000Z</Time>
            <Position>
              <LatitudeDegrees>43.3107124082744121551513671875</LatitudeDegrees>
              <LongitudeDegrees>-8.35426946170628070831298828125</LongitudeDegrees>
            </Position>
            <AltitudeMeters>-21.200000762939453125</AltitudeMeters>
            <DistanceMeters>9547.9720331677</DistanceMeters>
          </Trackpoint>
          <Trackpoint>
            <Time>2018-04-21T08:34:08.000Z</Time>
            <Position>
              <LatitudeDegrees>43.310644514858722686767578125</LatitudeDegrees>
              <LongitudeDegrees>-8.35417558439075946807861328125</LongitudeDegrees>
            </Position>
            <AltitudeMeters>-21.3999996185302734375</AltitudeMeters>
            <DistanceMeters>9558.6915351501</DistanceMeters>
          </Trackpoint>
          <Trackpoint>
            <Time>2018-04-21T08:34:10.000Z</Time>
            <Position>
              <LatitudeDegrees>43.310573436319828033447265625</LatitudeDegrees>
              <LongitudeDegrees>-8.354106433689594268798828125</LongitudeDegrees>
            </Position>
            <AltitudeMeters>-21.200000762939453125</AltitudeMeters>
            <DistanceMeters>9568.3842600158</DistanceMeters>
          </Trackpoint>
          <Trackpoint>
            <Time>2018-04-21T08:34:15.000Z</Time>
            <Position>
              <LatitudeDegrees>43.31035156734287738800048828125</LatitudeDegrees>
              <LongitudeDegrees>-8.3538937009871006011962890625</LongitudeDegrees>
            </Position>
            <AltitudeMeters>-20.799999237060546875</AltitudeMeters>
            <DistanceMeters>9598.4949856012</DistanceMeters>
          </Trackpoint>
          <Trackpoint>
            <Time>2018-04-21T08:34:17.000Z</Time>
            <Position>
              <LatitudeDegrees>43.31023857928812503814697265625</LatitudeDegrees>
              <LongitudeDegrees>-8.3537820540368556976318359375</LongitudeDegrees>
            </Position>
            <AltitudeMeters>-20.200000762939453125</AltitudeMeters>
            <DistanceMeters>9613.9840485478</DistanceMeters>
          </Trackpoint>
          <Trackpoint>
            <Time>2018-04-21T08:34:19.000Z</Time>
            <Position>
              <LatitudeDegrees>43.3101211488246917724609375</LatitudeDegrees>
              <LongitudeDegrees>-8.353664875030517578125</LongitudeDegrees>
            </Position>
            <AltitudeMeters>-20</AltitudeMeters>
            <DistanceMeters>9630.1363539133</DistanceMeters>
          </Trackpoint>
          <Trackpoint>
            <Time>2018-04-21T08:34:20.000Z</Time>
            <Position>
              <LatitudeDegrees>43.31005870364606380462646484375</LatitudeDegrees>
              <LongitudeDegrees>-8.35360829718410968780517578125</LongitudeDegrees>
            </Position>
            <AltitudeMeters>-20</AltitudeMeters>
            <DistanceMeters>9638.4613666284</DistanceMeters>
          </Trackpoint>
          <Trackpoint>
            <Time>2018-04-21T08:34:21.000Z</Time>
            <Position>
              <LatitudeDegrees>43.30999382771551609039306640625</LatitudeDegrees>
              <LongitudeDegrees>-8.353553228080272674560546875</LongitudeDegrees>
            </Position>
            <AltitudeMeters>-20</AltitudeMeters>
            <DistanceMeters>9646.9491195625</DistanceMeters>
          </Trackpoint>
          <Trackpoint>
            <Time>2018-04-21T08:34:23.000Z</Time>
            <Position>
              <LatitudeDegrees>43.30985636450350284576416015625</LatitudeDegrees>
              <LongitudeDegrees>-8.3534528128802776336669921875</LongitudeDegrees>
            </Position>
            <AltitudeMeters>-20</AltitudeMeters>
            <DistanceMeters>9664.2763230763</DistanceMeters>
          </Trackpoint>
          <Trackpoint>
            <Time>2018-04-21T08:34:26.000Z</Time>
            <Position>
              <LatitudeDegrees>43.30963809974491596221923828125</LatitudeDegrees>
              <LongitudeDegrees>-8.35332599468529224395751953125</LongitudeDegrees>
            </Position>
            <AltitudeMeters>-20</AltitudeMeters>
            <DistanceMeters>9690.6516719667</DistanceMeters>
          </Trackpoint>
          <Trackpoint>
            <Time>2018-04-21T08:34:27.000Z</Time>
            <Position>
              <LatitudeDegrees>43.3095632493495941162109375</LatitudeDegrees>
              <LongitudeDegrees>-8.353296406567096710205078125</LongitudeDegrees>
            </Position>
            <AltitudeMeters>-20</AltitudeMeters>
            <DistanceMeters>9699.3204836596</DistanceMeters>
          </Trackpoint>
          <Trackpoint>
            <Time>2018-04-21T08:34:35.000Z</Time>
            <Position>
              <LatitudeDegrees>43.30895480699837207794189453125</LatitudeDegrees>
              <LongitudeDegrees>-8.35306213237345218658447265625</LongitudeDegrees>
            </Position>
            <AltitudeMeters>-19.6000003814697265625</AltitudeMeters>
            <DistanceMeters>9769.6491123346</DistanceMeters>
          </Trackpoint>
          <Trackpoint>
            <Time>2018-04-21T08:34:36.000Z</Time>
            <Position>
              <LatitudeDegrees>43.30887886695563793182373046875</LatitudeDegrees>
              <LongitudeDegrees>-8.35303145460784435272216796875</LongitudeDegrees>
            </Position>
            <AltitudeMeters>-19.6000003814697265625</AltitudeMeters>
            <DistanceMeters>9778.4594776569</DistanceMeters>
          </Trackpoint>
          <Trackpoint>
            <Time>2018-04-21T08:34:41.000Z</Time>
            <Position>
              <LatitudeDegrees>43.308494724333286285400390625</LatitudeDegrees>
              <LongitudeDegrees>-8.35293388925492763519287109375</LongitudeDegrees>
            </Position>
            <AltitudeMeters>-19.799999237060546875</AltitudeMeters>
            <DistanceMeters>9821.9393659273</DistanceMeters>
          </Trackpoint>
          <Trackpoint>
            <Time>2018-04-21T08:34:42.000Z</Time>
            <Position>
              <LatitudeDegrees>43.30841585062444210052490234375</LatitudeDegrees>
              <LongitudeDegrees>-8.35293774493038654327392578125</LongitudeDegrees>
            </Position>
            <AltitudeMeters>-19.799999237060546875</AltitudeMeters>
            <DistanceMeters>9830.7240704351</DistanceMeters>
          </Trackpoint>
          <Trackpoint>
            <Time>2018-04-21T08:34:46.000Z</Time>
            <Position>
              <LatitudeDegrees>43.3081240765750408172607421875</LatitudeDegrees>
              <LongitudeDegrees>-8.3530548401176929473876953125</LongitudeDegrees>
            </Position>
            <AltitudeMeters>-19.200000762939453125</AltitudeMeters>
            <DistanceMeters>9864.555582659</DistanceMeters>
          </Trackpoint>
          <Trackpoint>
            <Time>2018-04-21T08:34:47.000Z</Time>
            <Position>
              <LatitudeDegrees>43.3080566860735416412353515625</LatitudeDegrees>
              <LongitudeDegrees>-8.353104293346405029296875</LongitudeDegrees>
            </Position>
            <AltitudeMeters>-18.799999237060546875</AltitudeMeters>
            <DistanceMeters>9873.0592790413</DistanceMeters>
          </Trackpoint>
          <Trackpoint>
            <Time>2018-04-21T08:34:48.000Z</Time>
            <Position>
              <LatitudeDegrees>43.30799214541912078857421875</LatitudeDegrees>
              <LongitudeDegrees>-8.35316154174506664276123046875</LongitudeDegrees>
            </Position>
            <AltitudeMeters>-19</AltitudeMeters>
            <DistanceMeters>9881.6095713691</DistanceMeters>
          </Trackpoint>
          <Trackpoint>
            <Time>2018-04-21T08:34:51.000Z</Time>
            <Position>
              <LatitudeDegrees>43.3078300394117832183837890625</LatitudeDegrees>
              <LongitudeDegrees>-8.35334300994873046875</LongitudeDegrees>
            </Position>
            <AltitudeMeters>-18.6000003814697265625</AltitudeMeters>
            <DistanceMeters>9904.8808357201</DistanceMeters>
          </Trackpoint>
          <Trackpoint>
            <Time>2018-04-21T08:34:57.000Z</Time>
            <Position>
              <LatitudeDegrees>43.30761269666254520416259765625</LatitudeDegrees>
              <LongitudeDegrees>-8.35369027219712734222412109375</LongitudeDegrees>
            </Position>
            <AltitudeMeters>-17.799999237060546875</AltitudeMeters>
            <DistanceMeters>9941.9783935972</DistanceMeters>
          </Trackpoint>
          <Trackpoint>
            <Time>2018-04-21T08:35:01.000Z</Time>
            <Position>
              <LatitudeDegrees>43.30757866613566875457763671875</LatitudeDegrees>
              <LongitudeDegrees>-8.3538883365690708160400390625</LongitudeDegrees>
            </Position>
            <AltitudeMeters>-17.200000762939453125</AltitudeMeters>
            <DistanceMeters>9958.4610778414</DistanceMeters>
          </Trackpoint>
          <Trackpoint>
            <Time>2018-04-21T08:35:05.000Z</Time>
            <Position>
              <LatitudeDegrees>43.30756341107189655303955078125</LatitudeDegrees>
              <LongitudeDegrees>-8.35405723191797733306884765625</LongitudeDegrees>
            </Position>
            <AltitudeMeters>-18</AltitudeMeters>
            <DistanceMeters>9972.245520831</DistanceMeters>
          </Trackpoint>
          <Trackpoint>
            <Time>2018-04-21T08:35:07.000Z</Time>
            <Position>
              <LatitudeDegrees>43.307528793811798095703125</LatitudeDegrees>
              <LongitudeDegrees>-8.3541356027126312255859375</LongitudeDegrees>
            </Position>
            <AltitudeMeters>-18.799999237060546875</AltitudeMeters>
            <DistanceMeters>9979.6709936622</DistanceMeters>
          </Trackpoint>
          <Trackpoint>
            <Time>2018-04-21T08:35:09.000Z</Time>
            <Position>
              <LatitudeDegrees>43.30747657455503940582275390625</LatitudeDegrees>
              <LongitudeDegrees>-8.354219086468219757080078125</LongitudeDegrees>
            </Position>
            <AltitudeMeters>-19.200000762939453125</AltitudeMeters>
            <DistanceMeters>9988.5873153821</DistanceMeters>
          </Trackpoint>
          <Trackpoint>
            <Time>2018-04-21T08:35:12.000Z</Time>
            <Position>
              <LatitudeDegrees>43.3074364252388477325439453125</LatitudeDegrees>
              <LongitudeDegrees>-8.35425839759409427642822265625</LongitudeDegrees>
            </Position>
            <AltitudeMeters>-19.799999237060546875</AltitudeMeters>
            <DistanceMeters>9994.0758794035</DistanceMeters>
          </Trackpoint>
          <Trackpoint>
            <Time>2018-04-21T08:35:16.000Z</Time>
            <Position>
              <LatitudeDegrees>43.30743030644953250885009765625</LatitudeDegrees>
              <LongitudeDegrees>-8.35426912643015384674072265625</LongitudeDegrees>
            </Position>
            <AltitudeMeters>-20</AltitudeMeters>
            <DistanceMeters>9995.1840718039</DistanceMeters>
          </Trackpoint>
          <Trackpoint>
            <Time>2018-04-21T08:35:17.000Z</Time>
            <Position>
              <LatitudeDegrees>43.30743030644953250885009765625</LatitudeDegrees>
              <LongitudeDegrees>-8.35426912643015384674072265625</LongitudeDegrees>
            </Position>
            <AltitudeMeters>-20.799999237060546875</AltitudeMeters>
            <DistanceMeters>9995.1840718039</DistanceMeters>
          </Trackpoint>
          <Trackpoint>
            <Time>2018-04-21T08:35:20.000Z</Time>
            <Position>
              <LatitudeDegrees>43.30743030644953250885009765625</LatitudeDegrees>
              <LongitudeDegrees>-8.35426912643015384674072265625</LongitudeDegrees>
            </Position>
            <AltitudeMeters>-17.3999996185302734375</AltitudeMeters>
            <DistanceMeters>9995.1840718039</DistanceMeters>
          </Trackpoint>
          <Trackpoint>
            <Time>2018-04-21T08:35:22.000Z</Time>
            <Position>
              <LatitudeDegrees>43.30743030644953250885009765625</LatitudeDegrees>
              <LongitudeDegrees>-8.35426912643015384674072265625</LongitudeDegrees>
            </Position>
            <AltitudeMeters>-18.3999996185302734375</AltitudeMeters>
            <DistanceMeters>9995.1840718039</DistanceMeters>
          </Trackpoint>
          <Trackpoint>
            <Time>2018-04-21T08:35:23.000Z</Time>
            <Position>
              <LatitudeDegrees>43.30743030644953250885009765625</LatitudeDegrees>
              <LongitudeDegrees>-8.35426912643015384674072265625</LongitudeDegrees>
            </Position>
            <AltitudeMeters>-19.799999237060546875</AltitudeMeters>
            <DistanceMeters>9995.1840718039</DistanceMeters>
          </Trackpoint>
          <Trackpoint>
            <Time>2018-04-21T08:35:27.000Z</Time>
            <Position>
              <LatitudeDegrees>43.30747087486088275909423828125</LatitudeDegrees>
              <LongitudeDegrees>-8.35420492105185985565185546875</LongitudeDegrees>
            </Position>
            <AltitudeMeters>-19.6000003814697265625</AltitudeMeters>
            <DistanceMeters>10002.070722767</DistanceMeters>
          </Trackpoint>
          <Trackpoint>
            <Time>2018-04-21T08:35:32.000Z</Time>
            <Position>
              <LatitudeDegrees>43.3075752295553684234619140625</LatitudeDegrees>
              <LongitudeDegrees>-8.35403527133166790008544921875</LongitudeDegrees>
            </Position>
            <AltitudeMeters>-19.200000762939453125</AltitudeMeters>
            <DistanceMeters>10020.062168518</DistanceMeters>
          </Trackpoint>
          <Trackpoint>
            <Time>2018-04-21T08:35:34.000Z</Time>
            <Position>
              <LatitudeDegrees>43.307610936462879180908203125</LatitudeDegrees>
              <LongitudeDegrees>-8.35395790636539459228515625</LongitudeDegrees>
            </Position>
            <AltitudeMeters>-18.799999237060546875</AltitudeMeters>
            <DistanceMeters>10027.482775377</DistanceMeters>
          </Trackpoint>
          <Trackpoint>
            <Time>2018-04-21T08:35:36.000Z</Time>
            <Position>
              <LatitudeDegrees>43.3076171390712261199951171875</LatitudeDegrees>
              <LongitudeDegrees>-8.35388992913067340850830078125</LongitudeDegrees>
            </Position>
            <AltitudeMeters>-17.799999237060546875</AltitudeMeters>
            <DistanceMeters>10033.03187987</DistanceMeters>
          </Trackpoint>
          <Trackpoint>
            <Time>2018-04-21T08:35:37.000Z</Time>
            <Position>
              <LatitudeDegrees>43.30761873163282871246337890625</LatitudeDegrees>
              <LongitudeDegrees>-8.3538638614118099212646484375</LongitudeDegrees>
            </Position>
            <AltitudeMeters>-17.3999996185302734375</AltitudeMeters>
            <DistanceMeters>10035.152487818</DistanceMeters>
          </Trackpoint>
          <Trackpoint>
            <Time>2018-04-21T08:35:40.000Z</Time>
            <Position>
              <LatitudeDegrees>43.30759073607623577117919921875</LatitudeDegrees>
              <LongitudeDegrees>-8.35381834767758846282958984375</LongitudeDegrees>
            </Position>
            <AltitudeMeters>-17</AltitudeMeters>
            <DistanceMeters>10039.980181605</DistanceMeters>
          </Trackpoint>
          <Trackpoint>
            <Time>2018-04-21T08:35:41.000Z</Time>
            <Position>
              <LatitudeDegrees>43.3075695298612117767333984375</LatitudeDegrees>
              <LongitudeDegrees>-8.35381172597408294677734375</LongitudeDegrees>
            </Position>
            <AltitudeMeters>-17</AltitudeMeters>
            <DistanceMeters>10042.402896959</DistanceMeters>
          </Trackpoint>
          <Trackpoint>
            <Time>2018-04-21T08:35:46.000Z</Time>
            <Position>
              <LatitudeDegrees>43.3074394427239894866943359375</LatitudeDegrees>
              <LongitudeDegrees>-8.35381315089762210845947265625</LongitudeDegrees>
            </Position>
            <AltitudeMeters>-16.3999996185302734375</AltitudeMeters>
            <DistanceMeters>10056.882548712</DistanceMeters>
          </Trackpoint>
          <Trackpoint>
            <Time>2018-04-21T08:35:47.000Z</Time>
            <Position>
              <LatitudeDegrees>43.30741345882415771484375</LatitudeDegrees>
              <LongitudeDegrees>-8.3538310043513774871826171875</LongitudeDegrees>
            </Position>
            <AltitudeMeters>-16.200000762939453125</AltitudeMeters>
            <DistanceMeters>10060.11485415</DistanceMeters>
          </Trackpoint>
          <Trackpoint>
            <Time>2018-04-21T08:35:50.000Z</Time>
            <Position>
              <LatitudeDegrees>43.30734397284686565399169921875</LatitudeDegrees>
              <LongitudeDegrees>-8.35390560328960418701171875</LongitudeDegrees>
            </Position>
            <AltitudeMeters>-15.19999980926513671875</AltitudeMeters>
            <DistanceMeters>10069.928404235</DistanceMeters>
          </Trackpoint>
          <Trackpoint>
            <Time>2018-04-21T08:35:51.000Z</Time>
            <Position>
              <LatitudeDegrees>43.30732184462249279022216796875</LatitudeDegrees>
              <LongitudeDegrees>-8.35392496548593044281005859375</LongitudeDegrees>
            </Position>
            <AltitudeMeters>-17.200000762939453125</AltitudeMeters>
            <DistanceMeters>10072.848060407</DistanceMeters>
          </Trackpoint>
          <Trackpoint>
            <Time>2018-04-21T08:35:52.000Z</Time>
            <Position>
              <LatitudeDegrees>43.30730072222650051116943359375</LatitudeDegrees>
              <LongitudeDegrees>-8.35393971763551235198974609375</LongitudeDegrees>
            </Position>
            <AltitudeMeters>-16.6000003814697265625</AltitudeMeters>
            <DistanceMeters>10075.484944717</DistanceMeters>
          </Trackpoint>
          <Trackpoint>
            <Time>2018-04-21T08:35:53.000Z</Time>
            <Position>
              <LatitudeDegrees>43.3072815276682376861572265625</LatitudeDegrees>
              <LongitudeDegrees>-8.35395899601280689239501953125</LongitudeDegrees>
            </Position>
            <AltitudeMeters>-16</AltitudeMeters>
            <DistanceMeters>10078.132082666</DistanceMeters>
          </Trackpoint>
          <Trackpoint>
            <Time>2018-04-21T08:35:54.000Z</Time>
            <Position>
              <LatitudeDegrees>43.30726803280413150787353515625</LatitudeDegrees>
              <LongitudeDegrees>-8.35397307761013507843017578125</LongitudeDegrees>
            </Position>
            <AltitudeMeters>-13.80000019073486328125</AltitudeMeters>
            <DistanceMeters>10080.018309089</DistanceMeters>
          </Trackpoint>
          <Trackpoint>
            <Time>2018-04-21T08:35:58.000Z</Time>
            <Position>
              <LatitudeDegrees>43.3072258718311786651611328125</LatitudeDegrees>
              <LongitudeDegrees>-8.35402806289494037628173828125</LongitudeDegrees>
            </Position>
            <AltitudeMeters>-13.3999996185302734375</AltitudeMeters>
            <DistanceMeters>10086.487109151</DistanceMeters>
          </Trackpoint>
          <Trackpoint>
            <Time>2018-04-21T08:35:59.000Z</Time>
            <Position>
              <LatitudeDegrees>43.30721522681415081024169921875</LatitudeDegrees>
              <LongitudeDegrees>-8.3540415577590465545654296875</LongitudeDegrees>
            </Position>
            <AltitudeMeters>-14.19999980926513671875</AltitudeMeters>
            <DistanceMeters>10088.09976597</DistanceMeters>
          </Trackpoint>
          <Trackpoint>
            <Time>2018-04-21T08:36:02.000Z</Time>
            <Position>
              <LatitudeDegrees>43.30718287266790866851806640625</LatitudeDegrees>
              <LongitudeDegrees>-8.35407634265720844268798828125</LongitudeDegrees>
            </Position>
            <AltitudeMeters>-12.6000003814697265625</AltitudeMeters>
            <DistanceMeters>10092.671923772</DistanceMeters>
          </Trackpoint>
          <Trackpoint>
            <Time>2018-04-21T08:36:05.000Z</Time>
            <Position>
              <LatitudeDegrees>43.307144232094287872314453125</LatitudeDegrees>
              <LongitudeDegrees>-8.354112803936004638671875</LongitudeDegrees>
            </Position>
            <AltitudeMeters>-11.6000003814697265625</AltitudeMeters>
            <DistanceMeters>10097.888881736</DistanceMeters>
          </Trackpoint>
          <Trackpoint>
            <Time>2018-04-21T08:36:06.000Z</Time>
            <Position>
              <LatitudeDegrees>43.3071323297917842864990234375</LatitudeDegrees>
              <LongitudeDegrees>-8.3541310764849185943603515625</LongitudeDegrees>
            </Position>
            <AltitudeMeters>-11.3999996185302734375</AltitudeMeters>
            <DistanceMeters>10099.877643532</DistanceMeters>
          </Trackpoint>
          <Trackpoint>
            <Time>2018-04-21T08:36:07.000Z</Time>
            <Position>
              <LatitudeDegrees>43.3071172423660755157470703125</LatitudeDegrees>
              <LongitudeDegrees>-8.3541421405971050262451171875</LongitudeDegrees>
            </Position>
            <AltitudeMeters>-11</AltitudeMeters>
            <DistanceMeters>10101.77817782</DistanceMeters>
          </Trackpoint>
          <Trackpoint>
            <Time>2018-04-21T08:36:09.000Z</Time>
            <Position>
              <LatitudeDegrees>43.3071088604629039764404296875</LatitudeDegrees>
              <LongitudeDegrees>-8.354112468659877777099609375</LongitudeDegrees>
            </Position>
            <AltitudeMeters>-10.6000003814697265625</AltitudeMeters>
            <DistanceMeters>10104.356187956</DistanceMeters>
          </Trackpoint>
          <Trackpoint>
            <Time>2018-04-21T08:36:10.000Z</Time>
            <Position>
              <LatitudeDegrees>43.3071162365376949310302734375</LatitudeDegrees>
              <LongitudeDegrees>-8.35408397018909454345703125</LongitudeDegrees>
            </Position>
            <AltitudeMeters>-10.3999996185302734375</AltitudeMeters>
            <DistanceMeters>10106.806698277</DistanceMeters>
          </Trackpoint>
          <Trackpoint>
            <Time>2018-04-21T08:36:13.000Z</Time>
            <Position>
              <LatitudeDegrees>43.30716602504253387451171875</LatitudeDegrees>
              <LongitudeDegrees>-8.35396268405020236968994140625</LongitudeDegrees>
            </Position>
            <AltitudeMeters>-11.6000003814697265625</AltitudeMeters>
            <DistanceMeters>10118.085692778</DistanceMeters>
          </Trackpoint>
          <Trackpoint>
            <Time>2018-04-21T08:36:15.000Z</Time>
            <Position>
              <LatitudeDegrees>43.30726048909127712249755859375</LatitudeDegrees>
              <LongitudeDegrees>-8.35386914201080799102783203125</LongitudeDegrees>
            </Position>
            <AltitudeMeters>-12.80000019073486328125</AltitudeMeters>
            <DistanceMeters>10131.044911956</DistanceMeters>
          </Trackpoint>
          <Trackpoint>
            <Time>2018-04-21T08:36:16.000Z</Time>
            <Position>
              <LatitudeDegrees>43.30730642192065715789794921875</LatitudeDegrees>
              <LongitudeDegrees>-8.35381616838276386260986328125</LongitudeDegrees>
            </Position>
            <AltitudeMeters>-13.6000003814697265625</AltitudeMeters>
            <DistanceMeters>10137.719819983</DistanceMeters>
          </Trackpoint>
          <Trackpoint>
            <Time>2018-04-21T08:36:17.000Z</Time>
            <Position>
              <LatitudeDegrees>43.30734782852232456207275390625</LatitudeDegrees>
              <LongitudeDegrees>-8.353767134249210357666015625</LongitudeDegrees>
            </Position>
            <AltitudeMeters>-14</AltitudeMeters>
            <DistanceMeters>10143.803014314</DistanceMeters>
          </Trackpoint>
          <Trackpoint>
            <Time>2018-04-21T08:36:19.000Z</Time>
            <Position>
              <LatitudeDegrees>43.307416141033172607421875</LatitudeDegrees>
              <LongitudeDegrees>-8.35369194857776165008544921875</LongitudeDegrees>
            </Position>
            <AltitudeMeters>-15.19999980926513671875</AltitudeMeters>
            <DistanceMeters>10153.544063707</DistanceMeters>
          </Trackpoint>
          <Trackpoint>
            <Time>2018-04-21T08:36:21.000Z</Time>
            <Position>
              <LatitudeDegrees>43.3074501715600490570068359375</LatitudeDegrees>
              <LongitudeDegrees>-8.3536201156675815582275390625</LongitudeDegrees>
            </Position>
            <AltitudeMeters>-15.80000019073486328125</AltitudeMeters>
            <DistanceMeters>10160.485568436</DistanceMeters>
          </Trackpoint>
          <Trackpoint>
            <Time>2018-04-21T08:36:26.000Z</Time>
            <Position>
              <LatitudeDegrees>43.307487554848194122314453125</LatitudeDegrees>
              <LongitudeDegrees>-8.3535564132034778594970703125</LongitudeDegrees>
            </Position>
            <AltitudeMeters>-16.3999996185302734375</AltitudeMeters>
            <DistanceMeters>10167.114320353</DistanceMeters>
          </Trackpoint>
          <Trackpoint>
            <Time>2018-04-21T08:36:32.000Z</Time>
            <Position>
              <LatitudeDegrees>43.307485543191432952880859375</LatitudeDegrees>
              <LongitudeDegrees>-8.353557251393795013427734375</LongitudeDegrees>
            </Position>
            <AltitudeMeters>-16.200000762939453125</AltitudeMeters>
            <DistanceMeters>10167.347087315</DistanceMeters>
          </Trackpoint>
          <Trackpoint>
            <Time>2018-04-21T08:36:34.000Z</Time>
            <Position>
              <LatitudeDegrees>43.30751177854835987091064453125</LatitudeDegrees>
              <LongitudeDegrees>-8.353507630527019500732421875</LongitudeDegrees>
            </Position>
            <AltitudeMeters>-16.200000762939453125</AltitudeMeters>
            <DistanceMeters>10172.313994688</DistanceMeters>
          </Trackpoint>
          <Trackpoint>
            <Time>2018-04-21T08:36:37.000Z</Time>
            <Position>
              <LatitudeDegrees>43.30759526230394840240478515625</LatitudeDegrees>
              <LongitudeDegrees>-8.35341417230665683746337890625</LongitudeDegrees>
            </Position>
            <AltitudeMeters>-16.799999237060546875</AltitudeMeters>
            <DistanceMeters>10184.298668063</DistanceMeters>
          </Trackpoint>
          <Trackpoint>
            <Time>2018-04-21T08:36:38.000Z</Time>
            <Position>
              <LatitudeDegrees>43.3076352439820766448974609375</LatitudeDegrees>
              <LongitudeDegrees>-8.3533792197704315185546875</LongitudeDegrees>
            </Position>
            <AltitudeMeters>-16.799999237060546875</AltitudeMeters>
            <DistanceMeters>10189.572436682</DistanceMeters>
          </Trackpoint>
          <Trackpoint>
            <Time>2018-04-21T08:36:39.000Z</Time>
            <Position>
              <LatitudeDegrees>43.307674638926982879638671875</LatitudeDegrees>
              <LongitudeDegrees>-8.35333739407360553741455078125</LongitudeDegrees>
            </Position>
            <AltitudeMeters>-17.200000762939453125</AltitudeMeters>
            <DistanceMeters>10195.113398684</DistanceMeters>
          </Trackpoint>
          <Trackpoint>
            <Time>2018-04-21T08:36:40.000Z</Time>
            <Position>
              <LatitudeDegrees>43.30771747045218944549560546875</LatitudeDegrees>
              <LongitudeDegrees>-8.3532902039587497711181640625</LongitudeDegrees>
            </Position>
            <AltitudeMeters>-17.799999237060546875</AltitudeMeters>
            <DistanceMeters>10201.223254331</DistanceMeters>
          </Trackpoint>
          <Trackpoint>
            <Time>2018-04-21T08:36:43.000Z</Time>
            <Position>
              <LatitudeDegrees>43.30785308964550495147705078125</LatitudeDegrees>
              <LongitudeDegrees>-8.3531272597610950469970703125</LongitudeDegrees>
            </Position>
            <AltitudeMeters>-17.799999237060546875</AltitudeMeters>
            <DistanceMeters>10221.273440694</DistanceMeters>
          </Trackpoint>
          <Trackpoint>
            <Time>2018-04-21T08:36:47.000Z</Time>
            <Position>
              <LatitudeDegrees>43.3080627210438251495361328125</LatitudeDegrees>
              <LongitudeDegrees>-8.35292634554207324981689453125</LongitudeDegrees>
            </Position>
            <AltitudeMeters>-18.3999996185302734375</AltitudeMeters>
            <DistanceMeters>10249.719620581</DistanceMeters>
          </Trackpoint>
          <Trackpoint>
            <Time>2018-04-21T08:36:49.000Z</Time>
            <Position>
              <LatitudeDegrees>43.30815031193196773529052734375</LatitudeDegrees>
              <LongitudeDegrees>-8.35278620012104511260986328125</LongitudeDegrees>
            </Position>
            <AltitudeMeters>-18.799999237060546875</AltitudeMeters>
            <DistanceMeters>10264.682632154</DistanceMeters>
          </Trackpoint>
          <Trackpoint>
            <Time>2018-04-21T08:36:51.000Z</Time>
            <Position>
              <LatitudeDegrees>43.30819691531360149383544921875</LatitudeDegrees>
              <LongitudeDegrees>-8.35262811742722988128662109375</LongitudeDegrees>
            </Position>
            <AltitudeMeters>-18.799999237060546875</AltitudeMeters>
            <DistanceMeters>10278.496522823</DistanceMeters>
          </Trackpoint>
          <Trackpoint>
            <Time>2018-04-21T08:36:52.000Z</Time>
            <Position>
              <LatitudeDegrees>43.30820395611226558685302734375</LatitudeDegrees>
              <LongitudeDegrees>-8.35254848934710025787353515625</LongitudeDegrees>
            </Position>
            <AltitudeMeters>-19</AltitudeMeters>
            <DistanceMeters>10284.993181757</DistanceMeters>
          </Trackpoint>
          <Trackpoint>
            <Time>2018-04-21T08:36:55.000Z</Time>
            <Position>
              <LatitudeDegrees>43.30817051231861114501953125</LatitudeDegrees>
              <LongitudeDegrees>-8.352353610098361968994140625</LongitudeDegrees>
            </Position>
            <AltitudeMeters>-17.799999237060546875</AltitudeMeters>
            <DistanceMeters>10301.209929775</DistanceMeters>
          </Trackpoint>
          <Trackpoint>
            <Time>2018-04-21T08:36:58.000Z</Time>
            <Position>
              <LatitudeDegrees>43.3081495575606822967529296875</LatitudeDegrees>
              <LongitudeDegrees>-8.35223802365362644195556640625</LongitudeDegrees>
            </Position>
            <AltitudeMeters>-18.3999996185302734375</AltitudeMeters>
            <DistanceMeters>10310.857832551</DistanceMeters>
          </Trackpoint>
          <Trackpoint>
            <Time>2018-04-21T08:36:59.000Z</Time>
            <Position>
              <LatitudeDegrees>43.30816975794732570648193359375</LatitudeDegrees>
              <LongitudeDegrees>-8.35223861038684844970703125</LongitudeDegrees>
            </Position>
            <AltitudeMeters>-18.3999996185302734375</AltitudeMeters>
            <DistanceMeters>10313.106575046</DistanceMeters>
          </Trackpoint>
          <Trackpoint>
            <Time>2018-04-21T08:37:02.000Z</Time>
            <Position>
              <LatitudeDegrees>43.308190964162349700927734375</LatitudeDegrees>
              <LongitudeDegrees>-8.35231245495378971099853515625</LongitudeDegrees>
            </Position>
            <AltitudeMeters>-20</AltitudeMeters>
            <DistanceMeters>10319.536169898</DistanceMeters>
          </Trackpoint>
          <Trackpoint>
            <Time>2018-04-21T08:37:03.000Z</Time>
            <Position>
              <LatitudeDegrees>43.308196328580379486083984375</LatitudeDegrees>
              <LongitudeDegrees>-8.35235453210771083831787109375</LongitudeDegrees>
            </Position>
            <AltitudeMeters>-20</AltitudeMeters>
            <DistanceMeters>10322.99649956</DistanceMeters>
          </Trackpoint>
          <Trackpoint>
            <Time>2018-04-21T08:37:06.000Z</Time>
            <Position>
              <LatitudeDegrees>43.308227844536304473876953125</LatitudeDegrees>
              <LongitudeDegrees>-8.3525059930980205535888671875</LongitudeDegrees>
            </Position>
            <AltitudeMeters>-19</AltitudeMeters>
            <DistanceMeters>10335.755229436</DistanceMeters>
          </Trackpoint>
          <Trackpoint>
            <Time>2018-04-21T08:37:07.000Z</Time>
            <Position>
              <LatitudeDegrees>43.30823714844882488250732421875</LatitudeDegrees>
              <LongitudeDegrees>-8.35256324149668216705322265625</LongitudeDegrees>
            </Position>
            <AltitudeMeters>-19.200000762939453125</AltitudeMeters>
            <DistanceMeters>10340.506565154</DistanceMeters>
          </Trackpoint>
          <Trackpoint>
            <Time>2018-04-21T08:37:12.000Z</Time>
            <Position>
              <LatitudeDegrees>43.3082464523613452911376953125</LatitudeDegrees>
              <LongitudeDegrees>-8.3528352342545986175537109375</LongitudeDegrees>
            </Position>
            <AltitudeMeters>-19.200000762939453125</AltitudeMeters>
            <DistanceMeters>10362.559929687</DistanceMeters>
          </Trackpoint>
          <Trackpoint>
            <Time>2018-04-21T08:37:13.000Z</Time>
            <Position>
              <LatitudeDegrees>43.308228515088558197021484375</LatitudeDegrees>
              <LongitudeDegrees>-8.35286566056311130523681640625</LongitudeDegrees>
            </Position>
            <AltitudeMeters>-19.200000762939453125</AltitudeMeters>
            <DistanceMeters>10365.731601983</DistanceMeters>
          </Trackpoint>
          <Trackpoint>
            <Time>2018-04-21T08:37:15.000Z</Time>
            <Position>
              <LatitudeDegrees>43.308186270296573638916015625</LatitudeDegrees>
              <LongitudeDegrees>-8.35288711823523044586181640625</LongitudeDegrees>
            </Position>
            <AltitudeMeters>-19.3999996185302734375</AltitudeMeters>
            <DistanceMeters>10370.744655219</DistanceMeters>
          </Trackpoint>
          <Trackpoint>
            <Time>2018-04-21T08:37:19.000Z</Time>
            <Position>
              <LatitudeDegrees>43.30813053064048290252685546875</LatitudeDegrees>
              <LongitudeDegrees>-8.35298920981585979461669921875</LongitudeDegrees>
            </Position>
            <AltitudeMeters>-19</AltitudeMeters>
            <DistanceMeters>10381.081622597</DistanceMeters>
          </Trackpoint>
          <Trackpoint>
            <Time>2018-04-21T08:37:20.000Z</Time>
            <Position>
              <LatitudeDegrees>43.30811561085283756256103515625</LatitudeDegrees>
              <LongitudeDegrees>-8.3530357293784618377685546875</LongitudeDegrees>
            </Position>
            <AltitudeMeters>-19</AltitudeMeters>
            <DistanceMeters>10385.199690537</DistanceMeters>
          </Trackpoint>
          <Trackpoint>
            <Time>2018-04-21T08:37:22.000Z</Time>
            <Position>
              <LatitudeDegrees>43.3080586977303028106689453125</LatitudeDegrees>
              <LongitudeDegrees>-8.3531222306191921234130859375</LongitudeDegrees>
            </Position>
            <AltitudeMeters>-19.200000762939453125</AltitudeMeters>
            <DistanceMeters>10394.644217794</DistanceMeters>
          </Trackpoint>
          <Trackpoint>
            <Time>2018-04-21T08:37:23.000Z</Time>
            <Position>
              <LatitudeDegrees>43.30802324227988719940185546875</LatitudeDegrees>
              <LongitudeDegrees>-8.3531564287841320037841796875</LongitudeDegrees>
            </Position>
            <AltitudeMeters>-19</AltitudeMeters>
            <DistanceMeters>10399.465360477</DistanceMeters>
          </Trackpoint>
          <Trackpoint>
            <Time>2018-04-21T08:37:27.000Z</Time>
            <Position>
              <LatitudeDegrees>43.30789416097104549407958984375</LatitudeDegrees>
              <LongitudeDegrees>-8.353273607790470123291015625</LongitudeDegrees>
            </Position>
            <AltitudeMeters>-18.6000003814697265625</AltitudeMeters>
            <DistanceMeters>10416.683823527</DistanceMeters>
          </Trackpoint>
          <Trackpoint>
            <Time>2018-04-21T08:37:30.000Z</Time>
            <Position>
              <LatitudeDegrees>43.30781109631061553955078125</LatitudeDegrees>
              <LongitudeDegrees>-8.3533404953777790069580078125</LongitudeDegrees>
            </Position>
            <AltitudeMeters>-18.3999996185302734375</AltitudeMeters>
            <DistanceMeters>10427.399534052</DistanceMeters>
          </Trackpoint>
          <Trackpoint>
            <Time>2018-04-21T08:37:33.000Z</Time>
            <Position>
              <LatitudeDegrees>43.3077321387827396392822265625</LatitudeDegrees>
              <LongitudeDegrees>-8.35341132245957851409912109375</LongitudeDegrees>
            </Position>
            <AltitudeMeters>-17.799999237060546875</AltitudeMeters>
            <DistanceMeters>10437.893856913</DistanceMeters>
          </Trackpoint>
          <Trackpoint>
            <Time>2018-04-21T08:37:35.000Z</Time>
            <Position>
              <LatitudeDegrees>43.307682015001773834228515625</LatitudeDegrees>
              <LongitudeDegrees>-8.3534544892609119415283203125</LongitudeDegrees>
            </Position>
            <AltitudeMeters>-20.200000762939453125</AltitudeMeters>
            <DistanceMeters>10444.477500808</DistanceMeters>
          </Trackpoint>
          <Trackpoint>
            <Time>2018-04-21T08:37:36.000Z</Time>
            <Position>
              <LatitudeDegrees>43.307657204568386077880859375</LatitudeDegrees>
              <LongitudeDegrees>-8.35347418673336505889892578125</LongitudeDegrees>
            </Position>
            <AltitudeMeters>-18.799999237060546875</AltitudeMeters>
            <DistanceMeters>10447.667625594</DistanceMeters>
          </Trackpoint>
          <Trackpoint>
            <Time>2018-04-21T08:37:38.000Z</Time>
            <Position>
              <LatitudeDegrees>43.3076144568622112274169921875</LatitudeDegrees>
              <LongitudeDegrees>-8.35351089946925640106201171875</LongitudeDegrees>
            </Position>
            <AltitudeMeters>-15.6000003814697265625</AltitudeMeters>
            <DistanceMeters>10453.277422062</DistanceMeters>
          </Trackpoint>
          <Trackpoint>
            <Time>2018-04-21T08:37:41.000Z</Time>
            <Position>
              <LatitudeDegrees>43.307549245655536651611328125</LatitudeDegrees>
              <LongitudeDegrees>-8.35355431772768497467041015625</LongitudeDegrees>
            </Position>
            <AltitudeMeters>-17.6000003814697265625</AltitudeMeters>
            <DistanceMeters>10461.34182598</DistanceMeters>
          </Trackpoint>
          <Trackpoint>
            <Time>2018-04-21T08:37:42.000Z</Time>
            <Position>
              <LatitudeDegrees>43.30752384848892688751220703125</LatitudeDegrees>
              <LongitudeDegrees>-8.35356789641082286834716796875</LongitudeDegrees>
            </Position>
            <AltitudeMeters>-16.6000003814697265625</AltitudeMeters>
            <DistanceMeters>10464.376735858</DistanceMeters>
          </Trackpoint>
          <Trackpoint>
            <Time>2018-04-21T08:37:45.000Z</Time>
            <Position>
              <LatitudeDegrees>43.30744229257106781005859375</LatitudeDegrees>
              <LongitudeDegrees>-8.35360460914671421051025390625</LongitudeDegrees>
            </Position>
            <AltitudeMeters>-15.80000019073486328125</AltitudeMeters>
            <DistanceMeters>10473.928693374</DistanceMeters>
          </Trackpoint>
          <Trackpoint>
            <Time>2018-04-21T08:37:46.000Z</Time>
            <Position>
              <LatitudeDegrees>43.30741656012833118438720703125</LatitudeDegrees>
              <LongitudeDegrees>-8.35361399687826633453369140625</LongitudeDegrees>
            </Position>
            <AltitudeMeters>-14.3999996185302734375</AltitudeMeters>
            <DistanceMeters>10476.891333127</DistanceMeters>
          </Trackpoint>
          <Trackpoint>
            <Time>2018-04-21T08:37:51.000Z</Time>
            <Position>
              <LatitudeDegrees>43.3073033206164836883544921875</LatitudeDegrees>
              <LongitudeDegrees>-8.35365439765155315399169921875</LongitudeDegrees>
            </Position>
            <AltitudeMeters>-14.3999996185302734375</AltitudeMeters>
            <DistanceMeters>10489.913113937</DistanceMeters>
          </Trackpoint>
          <Trackpoint>
            <Time>2018-04-21T08:37:53.000Z</Time>
            <Position>
              <LatitudeDegrees>43.30725864507257938385009765625</LatitudeDegrees>
              <LongitudeDegrees>-8.35366378538310527801513671875</LongitudeDegrees>
            </Position>
            <AltitudeMeters>-14</AltitudeMeters>
            <DistanceMeters>10494.943250535</DistanceMeters>
          </Trackpoint>
          <Trackpoint>
            <Time>2018-04-21T08:37:57.000Z</Time>
            <Position>
              <LatitudeDegrees>43.30717432312667369842529296875</LatitudeDegrees>
              <LongitudeDegrees>-8.35367417894303798675537109375</LongitudeDegrees>
            </Position>
            <AltitudeMeters>-13.3999996185302734375</AltitudeMeters>
            <DistanceMeters>10504.365761432</DistanceMeters>
          </Trackpoint>
          <Trackpoint>
            <Time>2018-04-21T08:37:59.000Z</Time>
            <Position>
              <LatitudeDegrees>43.3071527816355228424072265625</LatitudeDegrees>
              <LongitudeDegrees>-8.3537066169083118438720703125</LongitudeDegrees>
            </Position>
            <AltitudeMeters>-13.19999980926513671875</AltitudeMeters>
            <DistanceMeters>10507.923874299</DistanceMeters>
          </Trackpoint>
          <Trackpoint>
            <Time>2018-04-21T08:38:02.000Z</Time>
            <Position>
              <LatitudeDegrees>43.307144902646541595458984375</LatitudeDegrees>
              <LongitudeDegrees>-8.353766463696956634521484375</LongitudeDegrees>
            </Position>
            <AltitudeMeters>-13.6000003814697265625</AltitudeMeters>
            <DistanceMeters>10512.848789052</DistanceMeters>
          </Trackpoint>
          <Trackpoint>
            <Time>2018-04-21T08:38:04.000Z</Time>
            <Position>
              <LatitudeDegrees>43.30716543830931186676025390625</LatitudeDegrees>
              <LongitudeDegrees>-8.3537609316408634185791015625</LongitudeDegrees>
            </Position>
            <AltitudeMeters>-16.6000003814697265625</AltitudeMeters>
            <DistanceMeters>10515.176458674</DistanceMeters>
          </Trackpoint>
          <Trackpoint>
            <Time>2018-04-21T08:38:05.000Z</Time>
            <Position>
              <LatitudeDegrees>43.307183124125003814697265625</LatitudeDegrees>
              <LongitudeDegrees>-8.35376889444887638092041015625</LongitudeDegrees>
            </Position>
            <AltitudeMeters>-14.3999996185302734375</AltitudeMeters>
            <DistanceMeters>10517.245336687</DistanceMeters>
          </Trackpoint>
          <Trackpoint>
            <Time>2018-04-21T08:38:08.000Z</Time>
            <Position>
              <LatitudeDegrees>43.307290412485599517822265625</LatitudeDegrees>
              <LongitudeDegrees>-8.35376872681081295013427734375</LongitudeDegrees>
            </Position>
            <AltitudeMeters>-14.19999980926513671875</AltitudeMeters>
            <DistanceMeters>10529.186607018</DistanceMeters>
          </Trackpoint>
          <Trackpoint>
            <Time>2018-04-21T08:38:12.000Z</Time>
            <Position>
              <LatitudeDegrees>43.307418487966060638427734375</LatitudeDegrees>
              <LongitudeDegrees>-8.35378029383718967437744140625</LongitudeDegrees>
            </Position>
            <AltitudeMeters>-15.6000003814697265625</AltitudeMeters>
            <DistanceMeters>10543.472254628</DistanceMeters>
          </Trackpoint>
          <Trackpoint>
            <Time>2018-04-21T08:38:13.000Z</Time>
            <Position>
              <LatitudeDegrees>43.3074293844401836395263671875</LatitudeDegrees>
              <LongitudeDegrees>-8.3537837304174900054931640625</LongitudeDegrees>
            </Position>
            <AltitudeMeters>-16</AltitudeMeters>
            <DistanceMeters>10544.718518304</DistanceMeters>
          </Trackpoint>
          <Trackpoint>
            <Time>2018-04-21T08:38:15.000Z</Time>
            <Position>
              <LatitudeDegrees>43.30743751488626003265380859375</LatitudeDegrees>
              <LongitudeDegrees>-8.35378565825521945953369140625</LongitudeDegrees>
            </Position>
            <AltitudeMeters>-16.799999237060546875</AltitudeMeters>
            <DistanceMeters>10545.639836482</DistanceMeters>
          </Trackpoint>
          <Trackpoint>
            <Time>2018-04-21T08:38:18.000Z</Time>
            <Position>
              <LatitudeDegrees>43.30743751488626003265380859375</LatitudeDegrees>
              <LongitudeDegrees>-8.35378565825521945953369140625</LongitudeDegrees>
            </Position>
            <AltitudeMeters>-15</AltitudeMeters>
            <DistanceMeters>10545.639836482</DistanceMeters>
          </Trackpoint>
          <Trackpoint>
            <Time>2018-04-21T08:38:19.000Z</Time>
            <Position>
              <LatitudeDegrees>43.30743751488626003265380859375</LatitudeDegrees>
              <LongitudeDegrees>-8.35378565825521945953369140625</LongitudeDegrees>
            </Position>
            <AltitudeMeters>-15.6000003814697265625</AltitudeMeters>
            <DistanceMeters>10545.639836482</DistanceMeters>
          </Trackpoint>
          <Trackpoint>
            <Time>2018-04-21T08:38:22.000Z</Time>
            <Position>
              <LatitudeDegrees>43.30743751488626003265380859375</LatitudeDegrees>
              <LongitudeDegrees>-8.35378565825521945953369140625</LongitudeDegrees>
            </Position>
            <AltitudeMeters>-15.3999996185302734375</AltitudeMeters>
            <DistanceMeters>10545.639836482</DistanceMeters>
          </Trackpoint>
          <Trackpoint>
            <Time>2018-04-21T08:38:27.000Z</Time>
            <Position>
              <LatitudeDegrees>43.30743751488626003265380859375</LatitudeDegrees>
              <LongitudeDegrees>-8.35378565825521945953369140625</LongitudeDegrees>
            </Position>
            <AltitudeMeters>-15.3999996185302734375</AltitudeMeters>
            <DistanceMeters>10545.639836482</DistanceMeters>
          </Trackpoint>
          <Trackpoint>
            <Time>2018-04-21T08:38:31.000Z</Time>
            <Position>
              <LatitudeDegrees>43.30743751488626003265380859375</LatitudeDegrees>
              <LongitudeDegrees>-8.35378565825521945953369140625</LongitudeDegrees>
            </Position>
            <AltitudeMeters>-16</AltitudeMeters>
            <DistanceMeters>10545.639836482</DistanceMeters>
          </Trackpoint>
          <Trackpoint>
            <Time>2018-04-21T08:38:33.000Z</Time>
            <Position>
              <LatitudeDegrees>43.30743751488626003265380859375</LatitudeDegrees>
              <LongitudeDegrees>-8.35378565825521945953369140625</LongitudeDegrees>
            </Position>
            <AltitudeMeters>-15</AltitudeMeters>
            <DistanceMeters>10545.639836482</DistanceMeters>
          </Trackpoint>
          <Trackpoint>
            <Time>2018-04-21T08:38:37.000Z</Time>
            <Position>
              <LatitudeDegrees>43.30743751488626003265380859375</LatitudeDegrees>
              <LongitudeDegrees>-8.35378565825521945953369140625</LongitudeDegrees>
            </Position>
            <AltitudeMeters>-15.19999980926513671875</AltitudeMeters>
            <DistanceMeters>10545.639836482</DistanceMeters>
          </Trackpoint>
          <Trackpoint>
            <Time>2018-04-21T08:38:38.000Z</Time>
            <Position>
              <LatitudeDegrees>43.30743751488626003265380859375</LatitudeDegrees>
              <LongitudeDegrees>-8.35378565825521945953369140625</LongitudeDegrees>
            </Position>
            <AltitudeMeters>-15.3999996185302734375</AltitudeMeters>
            <DistanceMeters>10545.639836482</DistanceMeters>
          </Trackpoint>
          <Trackpoint>
            <Time>2018-04-21T08:38:44.000Z</Time>
            <Position>
              <LatitudeDegrees>43.30744354985654354095458984375</LatitudeDegrees>
              <LongitudeDegrees>-8.3537844009697437286376953125</LongitudeDegrees>
            </Position>
            <AltitudeMeters>-15.3999996185302734375</AltitudeMeters>
            <DistanceMeters>10546.318462961</DistanceMeters>
          </Trackpoint>
          <Trackpoint>
            <Time>2018-04-21T08:38:47.000Z</Time>
            <Position>
              <LatitudeDegrees>43.30757833085954189300537109375</LatitudeDegrees>
              <LongitudeDegrees>-8.3538356982171535491943359375</LongitudeDegrees>
            </Position>
            <AltitudeMeters>-15.3999996185302734375</AltitudeMeters>
            <DistanceMeters>10561.884871388</DistanceMeters>
          </Trackpoint>
          <Trackpoint>
            <Time>2018-04-21T08:38:48.000Z</Time>
            <Position>
              <LatitudeDegrees>43.307599537074565887451171875</LatitudeDegrees>
              <LongitudeDegrees>-8.353876434266567230224609375</LongitudeDegrees>
            </Position>
            <AltitudeMeters>-15.6000003814697265625</AltitudeMeters>
            <DistanceMeters>10565.941076422</DistanceMeters>
          </Trackpoint>
          <Trackpoint>
            <Time>2018-04-21T08:38:50.000Z</Time>
            <Position>
              <LatitudeDegrees>43.30759945325553417205810546875</LatitudeDegrees>
              <LongitudeDegrees>-8.35396570153534412384033203125</LongitudeDegrees>
            </Position>
            <AltitudeMeters>-15.80000019073486328125</AltitudeMeters>
            <DistanceMeters>10573.170604931</DistanceMeters>
          </Trackpoint>
          <Trackpoint>
            <Time>2018-04-21T08:38:52.000Z</Time>
            <Position>
              <LatitudeDegrees>43.30754983238875865936279296875</LatitudeDegrees>
              <LongitudeDegrees>-8.35409813560545444488525390625</LongitudeDegrees>
            </Position>
            <AltitudeMeters>-16.6000003814697265625</AltitudeMeters>
            <DistanceMeters>10585.235630098</DistanceMeters>
          </Trackpoint>
          <Trackpoint>
            <Time>2018-04-21T08:38:53.000Z</Time>
            <Position>
              <LatitudeDegrees>43.3075075037777423858642578125</LatitudeDegrees>
              <LongitudeDegrees>-8.35416083224117755889892578125</LongitudeDegrees>
            </Position>
            <AltitudeMeters>-17</AltitudeMeters>
            <DistanceMeters>10592.162810348</DistanceMeters>
          </Trackpoint>
          <Trackpoint>
            <Time>2018-04-21T08:38:54.000Z</Time>
            <Position>
              <LatitudeDegrees>43.307465426623821258544921875</LatitudeDegrees>
              <LongitudeDegrees>-8.354236185550689697265625</LongitudeDegrees>
            </Position>
            <AltitudeMeters>-17.3999996185302734375</AltitudeMeters>
            <DistanceMeters>10599.855867024</DistanceMeters>
          </Trackpoint>
          <Trackpoint>
            <Time>2018-04-21T08:38:56.000Z</Time>
            <Position>
              <LatitudeDegrees>43.30738001503050327301025390625</LatitudeDegrees>
              <LongitudeDegrees>-8.35436585359275341033935546875</LongitudeDegrees>
            </Position>
            <AltitudeMeters>-17.6000003814697265625</AltitudeMeters>
            <DistanceMeters>10614.021542396</DistanceMeters>
          </Trackpoint>
          <Trackpoint>
            <Time>2018-04-21T08:38:58.000Z</Time>
            <Position>
              <LatitudeDegrees>43.30730441026389598846435546875</LatitudeDegrees>
              <LongitudeDegrees>-8.35450566373765468597412109375</LongitudeDegrees>
            </Position>
            <AltitudeMeters>-17.799999237060546875</AltitudeMeters>
            <DistanceMeters>10628.129729557</DistanceMeters>
          </Trackpoint>
          <Trackpoint>
            <Time>2018-04-21T08:39:00.000Z</Time>
            <Position>
              <LatitudeDegrees>43.30724456347525119781494140625</LatitudeDegrees>
              <LongitudeDegrees>-8.35464798845350742340087890625</LongitudeDegrees>
            </Position>
            <AltitudeMeters>-18.799999237060546875</AltitudeMeters>
            <DistanceMeters>10641.443307983</DistanceMeters>
          </Trackpoint>
          <Trackpoint>
            <Time>2018-04-21T08:39:01.000Z</Time>
            <Position>
              <LatitudeDegrees>43.30722360871732234954833984375</LatitudeDegrees>
              <LongitudeDegrees>-8.35472124628722667694091796875</LongitudeDegrees>
            </Position>
            <AltitudeMeters>-18.3999996185302734375</AltitudeMeters>
            <DistanceMeters>10647.817893774</DistanceMeters>
          </Trackpoint>
          <Trackpoint>
            <Time>2018-04-21T08:39:03.000Z</Time>
            <Position>
              <LatitudeDegrees>43.30719443969428539276123046875</LatitudeDegrees>
              <LongitudeDegrees>-8.35486005060374736785888671875</LongitudeDegrees>
            </Position>
            <AltitudeMeters>-17</AltitudeMeters>
            <DistanceMeters>10659.519306044</DistanceMeters>
          </Trackpoint>
          <Trackpoint>
            <Time>2018-04-21T08:39:05.000Z</Time>
            <Position>
              <LatitudeDegrees>43.307179771363735198974609375</LatitudeDegrees>
              <LongitudeDegrees>-8.35499667562544345855712890625</LongitudeDegrees>
            </Position>
            <AltitudeMeters>-17.6000003814697265625</AltitudeMeters>
            <DistanceMeters>10670.70504425</DistanceMeters>
          </Trackpoint>
          <Trackpoint>
            <Time>2018-04-21T08:39:09.000Z</Time>
            <Position>
              <LatitudeDegrees>43.30716661177575588226318359375</LatitudeDegrees>
              <LongitudeDegrees>-8.35529364645481109619140625</LongitudeDegrees>
            </Position>
            <AltitudeMeters>-17.3999996185302734375</AltitudeMeters>
            <DistanceMeters>10694.802327618</DistanceMeters>
          </Trackpoint>
          <Trackpoint>
            <Time>2018-04-21T08:39:11.000Z</Time>
            <Position>
              <LatitudeDegrees>43.30717633478343486785888671875</LatitudeDegrees>
              <LongitudeDegrees>-8.35544980131089687347412109375</LongitudeDegrees>
            </Position>
            <AltitudeMeters>-17.6000003814697265625</AltitudeMeters>
            <DistanceMeters>10707.496132566</DistanceMeters>
          </Trackpoint>
          <Trackpoint>
            <Time>2018-04-21T08:39:14.000Z</Time>
            <Position>
              <LatitudeDegrees>43.30721438862383365631103515625</LatitudeDegrees>
              <LongitudeDegrees>-8.35568348877131938934326171875</LongitudeDegrees>
            </Position>
            <AltitudeMeters>-17.3999996185302734375</AltitudeMeters>
            <DistanceMeters>10726.8911292</DistanceMeters>
          </Trackpoint>
          <Trackpoint>
            <Time>2018-04-21T08:39:20.000Z</Time>
            <Position>
              <LatitudeDegrees>43.30734699033200740814208984375</LatitudeDegrees>
              <LongitudeDegrees>-8.35612085647881031036376953125</LongitudeDegrees>
            </Position>
            <AltitudeMeters>-18</AltitudeMeters>
            <DistanceMeters>10765.266394499</DistanceMeters>
          </Trackpoint>
          <Trackpoint>
            <Time>2018-04-21T08:39:22.000Z</Time>
            <Position>
              <LatitudeDegrees>43.3073770813643932342529296875</LatitudeDegrees>
              <LongitudeDegrees>-8.35628329776227474212646484375</LongitudeDegrees>
            </Position>
            <AltitudeMeters>-18.799999237060546875</AltitudeMeters>
            <DistanceMeters>10778.842582856</DistanceMeters>
          </Trackpoint>
          <Trackpoint>
            <Time>2018-04-21T08:39:24.000Z</Time>
            <Position>
              <LatitudeDegrees>43.3073908276855945587158203125</LatitudeDegrees>
              <LongitudeDegrees>-8.35644297301769256591796875</LongitudeDegrees>
            </Position>
            <AltitudeMeters>-19.200000762939453125</AltitudeMeters>
            <DistanceMeters>10791.865750511</DistanceMeters>
          </Trackpoint>
          <Trackpoint>
            <Time>2018-04-21T08:39:27.000Z</Time>
            <Position>
              <LatitudeDegrees>43.30736911855638027191162109375</LatitudeDegrees>
              <LongitudeDegrees>-8.35663014091551303863525390625</LongitudeDegrees>
            </Position>
            <AltitudeMeters>-18</AltitudeMeters>
            <DistanceMeters>10807.216315478</DistanceMeters>
          </Trackpoint>
          <Trackpoint>
            <Time>2018-04-21T08:39:28.000Z</Time>
            <Position>
              <LatitudeDegrees>43.3073448948562145233154296875</LatitudeDegrees>
              <LongitudeDegrees>-8.356684036552906036376953125</LongitudeDegrees>
            </Position>
            <AltitudeMeters>-18.200000762939453125</AltitudeMeters>
            <DistanceMeters>10812.347758054</DistanceMeters>
          </Trackpoint>
          <Trackpoint>
            <Time>2018-04-21T08:39:29.000Z</Time>
            <Position>
              <LatitudeDegrees>43.3073103614151477813720703125</LatitudeDegrees>
              <LongitudeDegrees>-8.35673592053353786468505859375</LongitudeDegrees>
            </Position>
            <AltitudeMeters>-18.200000762939453125</AltitudeMeters>
            <DistanceMeters>10818.043022279</DistanceMeters>
          </Trackpoint>
          <Trackpoint>
            <Time>2018-04-21T08:39:31.000Z</Time>
            <Position>
              <LatitudeDegrees>43.307231403887271881103515625</LatitudeDegrees>
              <LongitudeDegrees>-8.356827199459075927734375</LongitudeDegrees>
            </Position>
            <AltitudeMeters>-17.6000003814697265625</AltitudeMeters>
            <DistanceMeters>10829.526716649</DistanceMeters>
          </Trackpoint>
          <Trackpoint>
            <Time>2018-04-21T08:39:32.000Z</Time>
            <Position>
              <LatitudeDegrees>43.307187147438526153564453125</LatitudeDegrees>
              <LongitudeDegrees>-8.3568645827472209930419921875</LongitudeDegrees>
            </Position>
            <AltitudeMeters>-17.3999996185302734375</AltitudeMeters>
            <DistanceMeters>10835.308528043</DistanceMeters>
          </Trackpoint>
          <Trackpoint>
            <Time>2018-04-21T08:39:33.000Z</Time>
            <Position>
              <LatitudeDegrees>43.30713761039078235626220703125</LatitudeDegrees>
              <LongitudeDegrees>-8.35690163075923919677734375</LongitudeDegrees>
            </Position>
            <AltitudeMeters>-17.3999996185302734375</AltitudeMeters>
            <DistanceMeters>10841.586047744</DistanceMeters>
          </Trackpoint>
          <Trackpoint>
            <Time>2018-04-21T08:39:37.000Z</Time>
            <Position>
              <LatitudeDegrees>43.30692387185990810394287109375</LatitudeDegrees>
              <LongitudeDegrees>-8.35705476813018321990966796875</LongitudeDegrees>
            </Position>
            <AltitudeMeters>-17.3999996185302734375</AltitudeMeters>
            <DistanceMeters>10868.414901491</DistanceMeters>
          </Trackpoint>
          <Trackpoint>
            <Time>2018-04-21T08:39:38.000Z</Time>
            <Position>
              <LatitudeDegrees>43.3068674616515636444091796875</LatitudeDegrees>
              <LongitudeDegrees>-8.3570935763418674468994140625</LongitudeDegrees>
            </Position>
            <AltitudeMeters>-17.200000762939453125</AltitudeMeters>
            <DistanceMeters>10875.43659768</DistanceMeters>
          </Trackpoint>
          <Trackpoint>
            <Time>2018-04-21T08:39:45.000Z</Time>
            <Position>
              <LatitudeDegrees>43.30643654800951480865478515625</LatitudeDegrees>
              <LongitudeDegrees>-8.35732382722198963165283203125</LongitudeDegrees>
            </Position>
            <AltitudeMeters>-17.200000762939453125</AltitudeMeters>
            <DistanceMeters>10926.896261568</DistanceMeters>
          </Trackpoint>
          <Trackpoint>
            <Time>2018-04-21T08:39:50.000Z</Time>
            <Position>
              <LatitudeDegrees>43.306116275489330291748046875</LatitudeDegrees>
              <LongitudeDegrees>-8.35748367011547088623046875</LongitudeDegrees>
            </Position>
            <AltitudeMeters>-17.200000762939453125</AltitudeMeters>
            <DistanceMeters>10964.821326842</DistanceMeters>
          </Trackpoint>
          <Trackpoint>
            <Time>2018-04-21T08:39:53.000Z</Time>
            <Position>
              <LatitudeDegrees>43.30591745674610137939453125</LatitudeDegrees>
              <LongitudeDegrees>-8.357546031475067138671875</LongitudeDegrees>
            </Position>
            <AltitudeMeters>-17.200000762939453125</AltitudeMeters>
            <DistanceMeters>10987.519189106</DistanceMeters>
          </Trackpoint>
          <Trackpoint>
            <Time>2018-04-21T08:39:56.000Z</Time>
            <Position>
              <LatitudeDegrees>43.3057251758873462677001953125</LatitudeDegrees>
              <LongitudeDegrees>-8.3574883639812469482421875</LongitudeDegrees>
            </Position>
            <AltitudeMeters>-17.3999996185302734375</AltitudeMeters>
            <DistanceMeters>11009.42444423</DistanceMeters>
          </Trackpoint>
          <Trackpoint>
            <Time>2018-04-21T08:40:00.000Z</Time>
            <Position>
              <LatitudeDegrees>43.3055038936436176300048828125</LatitudeDegrees>
              <LongitudeDegrees>-8.357283174991607666015625</LongitudeDegrees>
            </Position>
            <AltitudeMeters>-17</AltitudeMeters>
            <DistanceMeters>11039.136366641</DistanceMeters>
          </Trackpoint>
          <Trackpoint>
            <Time>2018-04-21T08:40:01.000Z</Time>
            <Position>
              <LatitudeDegrees>43.305451758205890655517578125</LatitudeDegrees>
              <LongitudeDegrees>-8.35723481141030788421630859375</LongitudeDegrees>
            </Position>
            <AltitudeMeters>-16.799999237060546875</AltitudeMeters>
            <DistanceMeters>11046.137456194</DistanceMeters>
          </Trackpoint>
          <Trackpoint>
            <Time>2018-04-21T08:40:05.000Z</Time>
            <Position>
              <LatitudeDegrees>43.305231146514415740966796875</LatitudeDegrees>
              <LongitudeDegrees>-8.35707371123135089874267578125</LongitudeDegrees>
            </Position>
            <AltitudeMeters>-16.6000003814697265625</AltitudeMeters>
            <DistanceMeters>11073.9437732</DistanceMeters>
          </Trackpoint>
          <Trackpoint>
            <Time>2018-04-21T08:40:06.000Z</Time>
            <Position>
              <LatitudeDegrees>43.3051702938973903656005859375</LatitudeDegrees>
              <LongitudeDegrees>-8.3570466376841068267822265625</LongitudeDegrees>
            </Position>
            <AltitudeMeters>-16.6000003814697265625</AltitudeMeters>
            <DistanceMeters>11081.062536366</DistanceMeters>
          </Trackpoint>
          <Trackpoint>
            <Time>2018-04-21T08:40:12.000Z</Time>
            <Position>
              <LatitudeDegrees>43.304757736623287200927734375</LatitudeDegrees>
              <LongitudeDegrees>-8.35694186389446258544921875</LongitudeDegrees>
            </Position>
            <AltitudeMeters>-17.200000762939453125</AltitudeMeters>
            <DistanceMeters>11127.758570985</DistanceMeters>
          </Trackpoint>
          <Trackpoint>
            <Time>2018-04-21T08:40:16.000Z</Time>
            <Position>
              <LatitudeDegrees>43.30449395813047885894775390625</LatitudeDegrees>
              <LongitudeDegrees>-8.3568910695612430572509765625</LongitudeDegrees>
            </Position>
            <AltitudeMeters>-18</AltitudeMeters>
            <DistanceMeters>11157.404469186</DistanceMeters>
          </Trackpoint>
          <Trackpoint>
            <Time>2018-04-21T08:40:18.000Z</Time>
            <Position>
              <LatitudeDegrees>43.30435833893716335296630859375</LatitudeDegrees>
              <LongitudeDegrees>-8.35687958635389804840087890625</LongitudeDegrees>
            </Position>
            <AltitudeMeters>-17.6000003814697265625</AltitudeMeters>
            <DistanceMeters>11172.528053624</DistanceMeters>
          </Trackpoint>
          <Trackpoint>
            <Time>2018-04-21T08:40:26.000Z</Time>
            <Position>
              <LatitudeDegrees>43.30382273532450199127197265625</LatitudeDegrees>
              <LongitudeDegrees>-8.35690431296825408935546875</LongitudeDegrees>
            </Position>
            <AltitudeMeters>-17.6000003814697265625</AltitudeMeters>
            <DistanceMeters>11232.175467638</DistanceMeters>
          </Trackpoint>
          <Trackpoint>
            <Time>2018-04-21T08:40:33.000Z</Time>
            <Position>
              <LatitudeDegrees>43.30335971899330615997314453125</LatitudeDegrees>
              <LongitudeDegrees>-8.3570610545575618743896484375</LongitudeDegrees>
            </Position>
            <AltitudeMeters>-17.200000762939453125</AltitudeMeters>
            <DistanceMeters>11285.250928892</DistanceMeters>
          </Trackpoint>
          <Trackpoint>
            <Time>2018-04-21T08:40:35.000Z</Time>
            <Position>
              <LatitudeDegrees>43.3032290451228618621826171875</LatitudeDegrees>
              <LongitudeDegrees>-8.35706767626106739044189453125</LongitudeDegrees>
            </Position>
            <AltitudeMeters>-17.200000762939453125</AltitudeMeters>
            <DistanceMeters>11299.805224932</DistanceMeters>
          </Trackpoint>
          <Trackpoint>
            <Time>2018-04-21T08:40:38.000Z</Time>
            <Position>
              <LatitudeDegrees>43.30302930437028408050537109375</LatitudeDegrees>
              <LongitudeDegrees>-8.35703616030514240264892578125</LongitudeDegrees>
            </Position>
            <AltitudeMeters>-17.200000762939453125</AltitudeMeters>
            <DistanceMeters>11322.182755161</DistanceMeters>
          </Trackpoint>
          <Trackpoint>
            <Time>2018-04-21T08:40:42.000Z</Time>
            <Position>
              <LatitudeDegrees>43.3027611672878265380859375</LatitudeDegrees>
              <LongitudeDegrees>-8.3569772355258464813232421875</LongitudeDegrees>
            </Position>
            <AltitudeMeters>-17</AltitudeMeters>
            <DistanceMeters>11352.406031171</DistanceMeters>
          </Trackpoint>
          <Trackpoint>
            <Time>2018-04-21T08:40:47.000Z</Time>
            <Position>
              <LatitudeDegrees>43.30244039185345172882080078125</LatitudeDegrees>
              <LongitudeDegrees>-8.35690087638795375823974609375</LongitudeDegrees>
            </Position>
            <AltitudeMeters>-16.799999237060546875</AltitudeMeters>
            <DistanceMeters>11388.640752845</DistanceMeters>
          </Trackpoint>
          <Trackpoint>
            <Time>2018-04-21T08:40:50.000Z</Time>
            <Position>
              <LatitudeDegrees>43.3022446744143962860107421875</LatitudeDegrees>
              <LongitudeDegrees>-8.3568793348968029022216796875</LongitudeDegrees>
            </Position>
            <AltitudeMeters>-17</AltitudeMeters>
            <DistanceMeters>11410.494211447</DistanceMeters>
          </Trackpoint>
          <Trackpoint>
            <Time>2018-04-21T08:40:53.000Z</Time>
            <Position>
              <LatitudeDegrees>43.30204761587083339691162109375</LatitudeDegrees>
              <LongitudeDegrees>-8.3568947575986385345458984375</LongitudeDegrees>
            </Position>
            <AltitudeMeters>-17.200000762939453125</AltitudeMeters>
            <DistanceMeters>11432.46285878</DistanceMeters>
          </Trackpoint>
          <Trackpoint>
            <Time>2018-04-21T08:40:59.000Z</Time>
            <Position>
              <LatitudeDegrees>43.30164411105215549468994140625</LatitudeDegrees>
              <LongitudeDegrees>-8.35695703513920307159423828125</LongitudeDegrees>
            </Position>
            <AltitudeMeters>-17.6000003814697265625</AltitudeMeters>
            <DistanceMeters>11477.656229425</DistanceMeters>
          </Trackpoint>
          <Trackpoint>
            <Time>2018-04-21T08:41:01.000Z</Time>
            <Position>
              <LatitudeDegrees>43.3015241660177707672119140625</LatitudeDegrees>
              <LongitudeDegrees>-8.35700397379696369171142578125</LongitudeDegrees>
            </Position>
            <AltitudeMeters>-16.799999237060546875</AltitudeMeters>
            <DistanceMeters>11491.537287423</DistanceMeters>
          </Trackpoint>
          <Trackpoint>
            <Time>2018-04-21T08:41:02.000Z</Time>
            <Position>
              <LatitudeDegrees>43.3014681749045848846435546875</LatitudeDegrees>
              <LongitudeDegrees>-8.35703842341899871826171875</LongitudeDegrees>
            </Position>
            <AltitudeMeters>-17</AltitudeMeters>
            <DistanceMeters>11498.365338733</DistanceMeters>
          </Trackpoint>
          <Trackpoint>
            <Time>2018-04-21T08:41:05.000Z</Time>
            <Position>
              <LatitudeDegrees>43.301318474113941192626953125</LatitudeDegrees>
              <LongitudeDegrees>-8.3571844361722469329833984375</LongitudeDegrees>
            </Position>
            <AltitudeMeters>-16.6000003814697265625</AltitudeMeters>
            <DistanceMeters>11518.798513093</DistanceMeters>
          </Trackpoint>
          <Trackpoint>
            <Time>2018-04-21T08:41:06.000Z</Time>
            <Position>
              <LatitudeDegrees>43.30127530731260776519775390625</LatitudeDegrees>
              <LongitudeDegrees>-8.3572387509047985076904296875</LongitudeDegrees>
            </Position>
            <AltitudeMeters>-16.6000003814697265625</AltitudeMeters>
            <DistanceMeters>11525.312523318</DistanceMeters>
          </Trackpoint>
          <Trackpoint>
            <Time>2018-04-21T08:41:08.000Z</Time>
            <Position>
              <LatitudeDegrees>43.30118746496737003326416015625</LatitudeDegrees>
              <LongitudeDegrees>-8.35735970176756381988525390625</LongitudeDegrees>
            </Position>
            <AltitudeMeters>-16.6000003814697265625</AltitudeMeters>
            <DistanceMeters>11539.15351576</DistanceMeters>
          </Trackpoint>
          <Trackpoint>
            <Time>2018-04-21T08:41:10.000Z</Time>
            <Position>
              <LatitudeDegrees>43.30109417438507080078125</LatitudeDegrees>
              <LongitudeDegrees>-8.35750655271112918853759765625</LongitudeDegrees>
            </Position>
            <AltitudeMeters>-16.6000003814697265625</AltitudeMeters>
            <DistanceMeters>11554.943112985</DistanceMeters>
          </Trackpoint>
          <Trackpoint>
            <Time>2018-04-21T08:41:15.000Z</Time>
            <Position>
              <LatitudeDegrees>43.30087088048458099365234375</LatitudeDegrees>
              <LongitudeDegrees>-8.35784015245735645294189453125</LongitudeDegrees>
            </Position>
            <AltitudeMeters>-16.6000003814697265625</AltitudeMeters>
            <DistanceMeters>11591.65639846</DistanceMeters>
          </Trackpoint>
          <Trackpoint>
            <Time>2018-04-21T08:41:21.000Z</Time>
            <Position>
              <LatitudeDegrees>43.3005639351904392242431640625</LatitudeDegrees>
              <LongitudeDegrees>-8.3580839820206165313720703125</LongitudeDegrees>
            </Position>
            <AltitudeMeters>-15.80000019073486328125</AltitudeMeters>
            <DistanceMeters>11631.118236769</DistanceMeters>
          </Trackpoint>
          <Trackpoint>
            <Time>2018-04-21T08:41:28.000Z</Time>
            <Position>
              <LatitudeDegrees>43.30015338957309722900390625</LatitudeDegrees>
              <LongitudeDegrees>-8.358279280364513397216796875</LongitudeDegrees>
            </Position>
            <AltitudeMeters>-15.3999996185302734375</AltitudeMeters>
            <DistanceMeters>11679.473670739</DistanceMeters>
          </Trackpoint>
          <Trackpoint>
            <Time>2018-04-21T08:41:32.000Z</Time>
            <Position>
              <LatitudeDegrees>43.2998893596231937408447265625</LatitudeDegrees>
              <LongitudeDegrees>-8.35833502002060413360595703125</LongitudeDegrees>
            </Position>
            <AltitudeMeters>-15.3999996185302734375</AltitudeMeters>
            <DistanceMeters>11709.205493309</DistanceMeters>
          </Trackpoint>
          <Trackpoint>
            <Time>2018-04-21T08:41:33.000Z</Time>
            <Position>
              <LatitudeDegrees>43.299819119274616241455078125</LatitudeDegrees>
              <LongitudeDegrees>-8.3583260513842105865478515625</LongitudeDegrees>
            </Position>
            <AltitudeMeters>-15.3999996185302734375</AltitudeMeters>
            <DistanceMeters>11717.057138479</DistanceMeters>
          </Trackpoint>
          <Trackpoint>
            <Time>2018-04-21T08:41:35.000Z</Time>
            <Position>
              <LatitudeDegrees>43.29967997968196868896484375</LatitudeDegrees>
              <LongitudeDegrees>-8.3582905121147632598876953125</LongitudeDegrees>
            </Position>
            <AltitudeMeters>-15.6000003814697265625</AltitudeMeters>
            <DistanceMeters>11732.808945057</DistanceMeters>
          </Trackpoint>
          <Trackpoint>
            <Time>2018-04-21T08:41:38.000Z</Time>
            <Position>
              <LatitudeDegrees>43.29947453923523426055908203125</LatitudeDegrees>
              <LongitudeDegrees>-8.35820250213146209716796875</LongitudeDegrees>
            </Position>
            <AltitudeMeters>-15.80000019073486328125</AltitudeMeters>
            <DistanceMeters>11756.760578748</DistanceMeters>
          </Trackpoint>
          <Trackpoint>
            <Time>2018-04-21T08:41:42.000Z</Time>
            <Position>
              <LatitudeDegrees>43.2991869561374187469482421875</LatitudeDegrees>
              <LongitudeDegrees>-8.3580682240426540374755859375</LongitudeDegrees>
            </Position>
            <AltitudeMeters>-17</AltitudeMeters>
            <DistanceMeters>11790.566858267</DistanceMeters>
          </Trackpoint>
          <Trackpoint>
            <Time>2018-04-21T08:41:43.000Z</Time>
            <Position>
              <LatitudeDegrees>43.299115709960460662841796875</LatitudeDegrees>
              <LongitudeDegrees>-8.35804986767470836639404296875</LongitudeDegrees>
            </Position>
            <AltitudeMeters>-17.200000762939453125</AltitudeMeters>
            <DistanceMeters>11798.63462072</DistanceMeters>
          </Trackpoint>
          <Trackpoint>
            <Time>2018-04-21T08:41:44.000Z</Time>
            <Position>
              <LatitudeDegrees>43.29905125312507152557373046875</LatitudeDegrees>
              <LongitudeDegrees>-8.35803679190576076507568359375</LongitudeDegrees>
            </Position>
            <AltitudeMeters>-17.200000762939453125</AltitudeMeters>
            <DistanceMeters>11805.886597362</DistanceMeters>
          </Trackpoint>
          <Trackpoint>
            <Time>2018-04-21T08:41:48.000Z</Time>
            <Position>
              <LatitudeDegrees>43.29883818514645099639892578125</LatitudeDegrees>
              <LongitudeDegrees>-8.35797225125133991241455078125</LongitudeDegrees>
            </Position>
            <AltitudeMeters>-16.200000762939453125</AltitudeMeters>
            <DistanceMeters>11830.171082788</DistanceMeters>
          </Trackpoint>
          <Trackpoint>
            <Time>2018-04-21T08:41:49.000Z</Time>
            <Position>
              <LatitudeDegrees>43.29879493452608585357666015625</LatitudeDegrees>
              <LongitudeDegrees>-8.357960097491741180419921875</LongitudeDegrees>
            </Position>
            <AltitudeMeters>-15.80000019073486328125</AltitudeMeters>
            <DistanceMeters>11835.085902671</DistanceMeters>
          </Trackpoint>
          <Trackpoint>
            <Time>2018-04-21T08:41:50.000Z</Time>
            <Position>
              <LatitudeDegrees>43.29875352792441844940185546875</LatitudeDegrees>
              <LongitudeDegrees>-8.35797560401260852813720703125</LongitudeDegrees>
            </Position>
            <AltitudeMeters>-15.80000019073486328125</AltitudeMeters>
            <DistanceMeters>11839.8628267</DistanceMeters>
          </Trackpoint>
          <Trackpoint>
            <Time>2018-04-21T08:41:51.000Z</Time>
            <Position>
              <LatitudeDegrees>43.29871631227433681488037109375</LatitudeDegrees>
              <LongitudeDegrees>-8.3580145798623561859130859375</LongitudeDegrees>
            </Position>
            <AltitudeMeters>-15.6000003814697265625</AltitudeMeters>
            <DistanceMeters>11845.071122932</DistanceMeters>
          </Trackpoint>
          <Trackpoint>
            <Time>2018-04-21T08:41:54.000Z</Time>
            <Position>
              <LatitudeDegrees>43.2985848002135753631591796875</LatitudeDegrees>
              <LongitudeDegrees>-8.358087502419948577880859375</LongitudeDegrees>
            </Position>
            <AltitudeMeters>-16.3999996185302734375</AltitudeMeters>
            <DistanceMeters>11860.855286169</DistanceMeters>
          </Trackpoint>
          <Trackpoint>
            <Time>2018-04-21T08:41:56.000Z</Time>
            <Position>
              <LatitudeDegrees>43.2984701357781887054443359375</LatitudeDegrees>
              <LongitudeDegrees>-8.35808222182095050811767578125</LongitudeDegrees>
            </Position>
            <AltitudeMeters>-17</AltitudeMeters>
            <DistanceMeters>11873.624981561</DistanceMeters>
          </Trackpoint>
          <Trackpoint>
            <Time>2018-04-21T08:42:02.000Z</Time>
            <Position>
              <LatitudeDegrees>43.2980952970683574676513671875</LatitudeDegrees>
              <LongitudeDegrees>-8.3579830639064311981201171875</LongitudeDegrees>
            </Position>
            <AltitudeMeters>-16.799999237060546875</AltitudeMeters>
            <DistanceMeters>11916.111381985</DistanceMeters>
          </Trackpoint>
          <Trackpoint>
            <Time>2018-04-21T08:42:05.000Z</Time>
            <Position>
              <LatitudeDegrees>43.29791299067437648773193359375</LatitudeDegrees>
              <LongitudeDegrees>-8.35792279802262783050537109375</LongitudeDegrees>
            </Position>
            <AltitudeMeters>-16.799999237060546875</AltitudeMeters>
            <DistanceMeters>11936.981377366</DistanceMeters>
          </Trackpoint>
          <Trackpoint>
            <Time>2018-04-21T08:42:08.000Z</Time>
            <Position>
              <LatitudeDegrees>43.2977241463959217071533203125</LatitudeDegrees>
              <LongitudeDegrees>-8.357861526310443878173828125</LongitudeDegrees>
            </Position>
            <AltitudeMeters>-16.6000003814697265625</AltitudeMeters>
            <DistanceMeters>11958.578171306</DistanceMeters>
          </Trackpoint>
          <Trackpoint>
            <Time>2018-04-21T08:42:15.000Z</Time>
            <Position>
              <LatitudeDegrees>43.29728300683200359344482421875</LatitudeDegrees>
              <LongitudeDegrees>-8.35768827237188816070556640625</LongitudeDegrees>
            </Position>
            <AltitudeMeters>-16.200000762939453125</AltitudeMeters>
            <DistanceMeters>12009.64422261</DistanceMeters>
          </Trackpoint>
          <Trackpoint>
            <Time>2018-04-21T08:42:23.000Z</Time>
            <Position>
              <LatitudeDegrees>43.29680825583636760711669921875</LatitudeDegrees>
              <LongitudeDegrees>-8.35755533538758754730224609375</LongitudeDegrees>
            </Position>
            <AltitudeMeters>-16.200000762939453125</AltitudeMeters>
            <DistanceMeters>12063.571108563</DistanceMeters>
          </Trackpoint>
          <Trackpoint>
            <Time>2018-04-21T08:42:29.000Z</Time>
            <Position>
              <LatitudeDegrees>43.29648572020232677459716796875</LatitudeDegrees>
              <LongitudeDegrees>-8.35732785053551197052001953125</LongitudeDegrees>
            </Position>
            <AltitudeMeters>-16</AltitudeMeters>
            <DistanceMeters>12103.923573724</DistanceMeters>
          </Trackpoint>
          <Trackpoint>
            <Time>2018-04-21T08:42:35.000Z</Time>
            <Position>
              <LatitudeDegrees>43.29619134776294231414794921875</LatitudeDegrees>
              <LongitudeDegrees>-8.35698234848678112030029296875</LongitudeDegrees>
            </Position>
            <AltitudeMeters>-16.200000762939453125</AltitudeMeters>
            <DistanceMeters>12147.014600157</DistanceMeters>
          </Trackpoint>
          <Trackpoint>
            <Time>2018-04-21T08:42:44.000Z</Time>
            <Position>
              <LatitudeDegrees>43.29576739110052585601806640625</LatitudeDegrees>
              <LongitudeDegrees>-8.3563697151839733123779296875</LongitudeDegrees>
            </Position>
            <AltitudeMeters>-16.3999996185302734375</AltitudeMeters>
            <DistanceMeters>12215.495178423</DistanceMeters>
          </Trackpoint>
          <Trackpoint>
            <Time>2018-04-21T08:42:48.000Z</Time>
            <Position>
              <LatitudeDegrees>43.29557779245078563690185546875</LatitudeDegrees>
              <LongitudeDegrees>-8.35614130832254886627197265625</LongitudeDegrees>
            </Position>
            <AltitudeMeters>-16</AltitudeMeters>
            <DistanceMeters>12243.560735749</DistanceMeters>
          </Trackpoint>
          <Trackpoint>
            <Time>2018-04-21T08:42:50.000Z</Time>
            <Position>
              <LatitudeDegrees>43.29548634588718414306640625</LatitudeDegrees>
              <LongitudeDegrees>-8.35601725615561008453369140625</LongitudeDegrees>
            </Position>
            <AltitudeMeters>-16.200000762939453125</AltitudeMeters>
            <DistanceMeters>12257.864071441</DistanceMeters>
          </Trackpoint>
          <Trackpoint>
            <Time>2018-04-21T08:42:52.000Z</Time>
            <Position>
              <LatitudeDegrees>43.29537729732692241668701171875</LatitudeDegrees>
              <LongitudeDegrees>-8.3559207804501056671142578125</LongitudeDegrees>
            </Position>
            <AltitudeMeters>-16.200000762939453125</AltitudeMeters>
            <DistanceMeters>12272.300002453</DistanceMeters>
          </Trackpoint>
          <Trackpoint>
            <Time>2018-04-21T08:42:54.000Z</Time>
            <Position>
              <LatitudeDegrees>43.29518996179103851318359375</LatitudeDegrees>
              <LongitudeDegrees>-8.3558533899486064910888671875</LongitudeDegrees>
            </Position>
            <AltitudeMeters>-16.200000762939453125</AltitudeMeters>
            <DistanceMeters>12293.853686888</DistanceMeters>
          </Trackpoint>
          <Trackpoint>
            <Time>2018-04-21T08:42:56.000Z</Time>
            <Position>
              <LatitudeDegrees>43.29505308531224727630615234375</LatitudeDegrees>
              <LongitudeDegrees>-8.3558280766010284423828125</LongitudeDegrees>
            </Position>
            <AltitudeMeters>-16.200000762939453125</AltitudeMeters>
            <DistanceMeters>12309.225708238</DistanceMeters>
          </Trackpoint>
          <Trackpoint>
            <Time>2018-04-21T08:42:59.000Z</Time>
            <Position>
              <LatitudeDegrees>43.29486063681542873382568359375</LatitudeDegrees>
              <LongitudeDegrees>-8.3558376319706439971923828125</LongitudeDegrees>
            </Position>
            <AltitudeMeters>-16.200000762939453125</AltitudeMeters>
            <DistanceMeters>12330.659657225</DistanceMeters>
          </Trackpoint>
          <Trackpoint>
            <Time>2018-04-21T08:43:02.000Z</Time>
            <Position>
              <LatitudeDegrees>43.29467304982244968414306640625</LatitudeDegrees>
              <LongitudeDegrees>-8.3559085428714752197265625</LongitudeDegrees>
            </Position>
            <AltitudeMeters>-16.200000762939453125</AltitudeMeters>
            <DistanceMeters>12352.314075009</DistanceMeters>
          </Trackpoint>
          <Trackpoint>
            <Time>2018-04-21T08:43:04.000Z</Time>
            <Position>
              <LatitudeDegrees>43.294562995433807373046875</LatitudeDegrees>
              <LongitudeDegrees>-8.35597618483006954193115234375</LongitudeDegrees>
            </Position>
            <AltitudeMeters>-16.3999996185302734375</AltitudeMeters>
            <DistanceMeters>12365.732708483</DistanceMeters>
          </Trackpoint>
          <Trackpoint>
            <Time>2018-04-21T08:43:11.000Z</Time>
            <Position>
              <LatitudeDegrees>43.294213972985744476318359375</LatitudeDegrees>
              <LongitudeDegrees>-8.3562292344868183135986328125</LongitudeDegrees>
            </Position>
            <AltitudeMeters>-16.200000762939453125</AltitudeMeters>
            <DistanceMeters>12409.656642193</DistanceMeters>
          </Trackpoint>
          <Trackpoint>
            <Time>2018-04-21T08:43:12.000Z</Time>
            <Position>
              <LatitudeDegrees>43.29416158609092235565185546875</LatitudeDegrees>
              <LongitudeDegrees>-8.35624742321670055389404296875</LongitudeDegrees>
            </Position>
            <AltitudeMeters>-16</AltitudeMeters>
            <DistanceMeters>12415.671165136</DistanceMeters>
          </Trackpoint>
          <Trackpoint>
            <Time>2018-04-21T08:43:15.000Z</Time>
            <Position>
              <LatitudeDegrees>43.29403803683817386627197265625</LatitudeDegrees>
              <LongitudeDegrees>-8.35620149038732051849365234375</LongitudeDegrees>
            </Position>
            <AltitudeMeters>-15.6000003814697265625</AltitudeMeters>
            <DistanceMeters>12429.916934262</DistanceMeters>
          </Trackpoint>
          <Trackpoint>
            <Time>2018-04-21T08:43:18.000Z</Time>
            <Position>
              <LatitudeDegrees>43.29399981535971164703369140625</LatitudeDegrees>
              <LongitudeDegrees>-8.35604374296963214874267578125</LongitudeDegrees>
            </Position>
            <AltitudeMeters>-15.3999996185302734375</AltitudeMeters>
            <DistanceMeters>12443.385944462</DistanceMeters>
          </Trackpoint>
          <Trackpoint>
            <Time>2018-04-21T08:43:20.000Z</Time>
            <Position>
              <LatitudeDegrees>43.29398321919143199920654296875</LatitudeDegrees>
              <LongitudeDegrees>-8.35592119954526424407958984375</LongitudeDegrees>
            </Position>
            <AltitudeMeters>-15.3999996185302734375</AltitudeMeters>
            <DistanceMeters>12453.483846383</DistanceMeters>
          </Trackpoint>
          <Trackpoint>
            <Time>2018-04-21T08:43:23.000Z</Time>
            <Position>
              <LatitudeDegrees>43.29396159388124942779541015625</LatitudeDegrees>
              <LongitudeDegrees>-8.355764709413051605224609375</LongitudeDegrees>
            </Position>
            <AltitudeMeters>-15.19999980926513671875</AltitudeMeters>
            <DistanceMeters>12466.387900383</DistanceMeters>
          </Trackpoint>
          <Trackpoint>
            <Time>2018-04-21T08:43:26.000Z</Time>
            <Position>
              <LatitudeDegrees>43.29391029663383960723876953125</LatitudeDegrees>
              <LongitudeDegrees>-8.35568784736096858978271484375</LongitudeDegrees>
            </Position>
            <AltitudeMeters>-15</AltitudeMeters>
            <DistanceMeters>12474.836197502</DistanceMeters>
          </Trackpoint>
          <Trackpoint>
            <Time>2018-04-21T08:43:27.000Z</Time>
            <Position>
              <LatitudeDegrees>43.2938882522284984588623046875</LatitudeDegrees>
              <LongitudeDegrees>-8.35569857619702816009521484375</LongitudeDegrees>
            </Position>
            <AltitudeMeters>-14.80000019073486328125</AltitudeMeters>
            <DistanceMeters>12477.438611253</DistanceMeters>
          </Trackpoint>
          <Trackpoint>
            <Time>2018-04-21T08:43:29.000Z</Time>
            <Position>
              <LatitudeDegrees>43.29384558834135532379150390625</LatitudeDegrees>
              <LongitudeDegrees>-8.355758674442768096923828125</LongitudeDegrees>
            </Position>
            <AltitudeMeters>-15.19999980926513671875</AltitudeMeters>
            <DistanceMeters>12484.239497338</DistanceMeters>
          </Trackpoint>
          <Trackpoint>
            <Time>2018-04-21T08:43:33.000Z</Time>
            <Position>
              <LatitudeDegrees>43.29384106211364269256591796875</LatitudeDegrees>
              <LongitudeDegrees>-8.3558926172554492950439453125</LongitudeDegrees>
            </Position>
            <AltitudeMeters>-15.19999980926513671875</AltitudeMeters>
            <DistanceMeters>12495.102094122</DistanceMeters>
          </Trackpoint>
          <Trackpoint>
            <Time>2018-04-21T08:43:34.000Z</Time>
            <Position>
              <LatitudeDegrees>43.29384910874068737030029296875</LatitudeDegrees>
              <LongitudeDegrees>-8.355931676924228668212890625</LongitudeDegrees>
            </Position>
            <AltitudeMeters>-15.19999980926513671875</AltitudeMeters>
            <DistanceMeters>12498.391171741</DistanceMeters>
          </Trackpoint>
          <Trackpoint>
            <Time>2018-04-21T08:43:37.000Z</Time>
            <Position>
              <LatitudeDegrees>43.2938822172582149505615234375</LatitudeDegrees>
              <LongitudeDegrees>-8.35608799941837787628173828125</LongitudeDegrees>
            </Position>
            <AltitudeMeters>-14.80000019073486328125</AltitudeMeters>
            <DistanceMeters>12511.58004442</DistanceMeters>
          </Trackpoint>
          <Trackpoint>
            <Time>2018-04-21T08:43:38.000Z</Time>
            <Position>
              <LatitudeDegrees>43.2938937842845916748046875</LatitudeDegrees>
              <LongitudeDegrees>-8.35614315234124660491943359375</LongitudeDegrees>
            </Position>
            <AltitudeMeters>-14.6000003814697265625</AltitudeMeters>
            <DistanceMeters>12516.230531823</DistanceMeters>
          </Trackpoint>
          <Trackpoint>
            <Time>2018-04-21T08:43:43.000Z</Time>
            <Position>
              <LatitudeDegrees>43.29397148452699184417724609375</LatitudeDegrees>
              <LongitudeDegrees>-8.35639678873121738433837890625</LongitudeDegrees>
            </Position>
            <AltitudeMeters>-14.19999980926513671875</AltitudeMeters>
            <DistanceMeters>12538.523969138</DistanceMeters>
          </Trackpoint>
          <Trackpoint>
            <Time>2018-04-21T08:43:45.000Z</Time>
            <Position>
              <LatitudeDegrees>43.29398992471396923065185546875</LatitudeDegrees>
              <LongitudeDegrees>-8.3564438112080097198486328125</LongitudeDegrees>
            </Position>
            <AltitudeMeters>-14.80000019073486328125</AltitudeMeters>
            <DistanceMeters>12542.849511692</DistanceMeters>
          </Trackpoint>
          <Trackpoint>
            <Time>2018-04-21T08:43:46.000Z</Time>
            <Position>
              <LatitudeDegrees>43.293969891965389251708984375</LatitudeDegrees>
              <LongitudeDegrees>-8.356458730995655059814453125</LongitudeDegrees>
            </Position>
            <AltitudeMeters>-14.80000019073486328125</AltitudeMeters>
            <DistanceMeters>12545.385140693</DistanceMeters>
          </Trackpoint>
          <Trackpoint>
            <Time>2018-04-21T08:43:49.000Z</Time>
            <Position>
              <LatitudeDegrees>43.29385061748325824737548828125</LatitudeDegrees>
              <LongitudeDegrees>-8.35654481314122676849365234375</LongitudeDegrees>
            </Position>
            <AltitudeMeters>-15.6000003814697265625</AltitudeMeters>
            <DistanceMeters>12560.380705491</DistanceMeters>
          </Trackpoint>
          <Trackpoint>
            <Time>2018-04-21T08:43:52.000Z</Time>
            <Position>
              <LatitudeDegrees>43.29371315427124500274658203125</LatitudeDegrees>
              <LongitudeDegrees>-8.35667808540165424346923828125</LongitudeDegrees>
            </Position>
            <AltitudeMeters>-15.6000003814697265625</AltitudeMeters>
            <DistanceMeters>12579.106755756</DistanceMeters>
          </Trackpoint>
          <Trackpoint>
            <Time>2018-04-21T08:43:54.000Z</Time>
            <Position>
              <LatitudeDegrees>43.29364098608493804931640625</LatitudeDegrees>
              <LongitudeDegrees>-8.356783278286457061767578125</LongitudeDegrees>
            </Position>
            <AltitudeMeters>-15</AltitudeMeters>
            <DistanceMeters>12590.817810407</DistanceMeters>
          </Trackpoint>
          <Trackpoint>
            <Time>2018-04-21T08:43:55.000Z</Time>
            <Position>
              <LatitudeDegrees>43.2936009205877780914306640625</LatitudeDegrees>
              <LongitudeDegrees>-8.3568310551345348358154296875</LongitudeDegrees>
            </Position>
            <AltitudeMeters>-15</AltitudeMeters>
            <DistanceMeters>12596.723244788</DistanceMeters>
          </Trackpoint>
          <Trackpoint>
            <Time>2018-04-21T08:43:58.000Z</Time>
            <Position>
              <LatitudeDegrees>43.2934909500181674957275390625</LatitudeDegrees>
              <LongitudeDegrees>-8.357006572186946868896484375</LongitudeDegrees>
            </Position>
            <AltitudeMeters>-16</AltitudeMeters>
            <DistanceMeters>12615.484704747</DistanceMeters>
          </Trackpoint>
          <Trackpoint>
            <Time>2018-04-21T08:43:59.000Z</Time>
            <Position>
              <LatitudeDegrees>43.29346102662384510040283203125</LatitudeDegrees>
              <LongitudeDegrees>-8.35707706399261951446533203125</LongitudeDegrees>
            </Position>
            <AltitudeMeters>-16</AltitudeMeters>
            <DistanceMeters>12622.094357524</DistanceMeters>
          </Trackpoint>
          <Trackpoint>
            <Time>2018-04-21T08:44:05.000Z</Time>
            <Position>
              <LatitudeDegrees>43.2932420074939727783203125</LatitudeDegrees>
              <LongitudeDegrees>-8.3574446104466915130615234375</LongitudeDegrees>
            </Position>
            <AltitudeMeters>-16.200000762939453125</AltitudeMeters>
            <DistanceMeters>12660.575835872</DistanceMeters>
          </Trackpoint>
          <Trackpoint>
            <Time>2018-04-21T08:44:07.000Z</Time>
            <Position>
              <LatitudeDegrees>43.29315952956676483154296875</LatitudeDegrees>
              <LongitudeDegrees>-8.357546031475067138671875</LongitudeDegrees>
            </Position>
            <AltitudeMeters>-18.200000762939453125</AltitudeMeters>
            <DistanceMeters>12672.895638017</DistanceMeters>
          </Trackpoint>
          <Trackpoint>
            <Time>2018-04-21T08:44:10.000Z</Time>
            <Position>
              <LatitudeDegrees>43.2930503971874713897705078125</LatitudeDegrees>
              <LongitudeDegrees>-8.35768349468708038330078125</LongitudeDegrees>
            </Position>
            <AltitudeMeters>-15.6000003814697265625</AltitudeMeters>
            <DistanceMeters>12689.374486848</DistanceMeters>
          </Trackpoint>
          <Trackpoint>
            <Time>2018-04-21T08:44:11.000Z</Time>
            <Position>
              <LatitudeDegrees>43.293017037212848663330078125</LatitudeDegrees>
              <LongitudeDegrees>-8.3577356301248073577880859375</LongitudeDegrees>
            </Position>
            <AltitudeMeters>-16.3999996185302734375</AltitudeMeters>
            <DistanceMeters>12694.999554658</DistanceMeters>
          </Trackpoint>
          <Trackpoint>
            <Time>2018-04-21T08:44:12.000Z</Time>
            <Position>
              <LatitudeDegrees>43.2929887063801288604736328125</LatitudeDegrees>
              <LongitudeDegrees>-8.35779053159058094024658203125</LongitudeDegrees>
            </Position>
            <AltitudeMeters>-16.799999237060546875</AltitudeMeters>
            <DistanceMeters>12700.452631012</DistanceMeters>
          </Trackpoint>
          <Trackpoint>
            <Time>2018-04-21T08:44:13.000Z</Time>
            <Position>
              <LatitudeDegrees>43.292966745793819427490234375</LatitudeDegrees>
              <LongitudeDegrees>-8.35784367285668849945068359375</LongitudeDegrees>
            </Position>
            <AltitudeMeters>-16.799999237060546875</AltitudeMeters>
            <DistanceMeters>12705.403148911</DistanceMeters>
          </Trackpoint>
          <Trackpoint>
            <Time>2018-04-21T08:44:15.000Z</Time>
            <Position>
              <LatitudeDegrees>43.292934894561767578125</LatitudeDegrees>
              <LongitudeDegrees>-8.357941992580890655517578125</LongitudeDegrees>
            </Position>
            <AltitudeMeters>-16.3999996185302734375</AltitudeMeters>
            <DistanceMeters>12714.121817589</DistanceMeters>
          </Trackpoint>
          <Trackpoint>
            <Time>2018-04-21T08:44:18.000Z</Time>
            <Position>
              <LatitudeDegrees>43.29291687346994876861572265625</LatitudeDegrees>
              <LongitudeDegrees>-8.358088843524456024169921875</LongitudeDegrees>
            </Position>
            <AltitudeMeters>-16.3999996185302734375</AltitudeMeters>
            <DistanceMeters>12726.186094282</DistanceMeters>
          </Trackpoint>
          <Trackpoint>
            <Time>2018-04-21T08:44:25.000Z</Time>
            <Position>
              <LatitudeDegrees>43.2928981818258762359619140625</LatitudeDegrees>
              <LongitudeDegrees>-8.35848622955381870269775390625</LongitudeDegrees>
            </Position>
            <AltitudeMeters>-16.200000762939453125</AltitudeMeters>
            <DistanceMeters>12758.446229281</DistanceMeters>
          </Trackpoint>
          <Trackpoint>
            <Time>2018-04-21T08:44:31.000Z</Time>
            <Position>
              <LatitudeDegrees>43.29292123205959796905517578125</LatitudeDegrees>
              <LongitudeDegrees>-8.358918987214565277099609375</LongitudeDegrees>
            </Position>
            <AltitudeMeters>-16.200000762939453125</AltitudeMeters>
            <DistanceMeters>12793.598407885</DistanceMeters>
          </Trackpoint>
          <Trackpoint>
            <Time>2018-04-21T08:44:34.000Z</Time>
            <Position>
              <LatitudeDegrees>43.29288770444691181182861328125</LatitudeDegrees>
              <LongitudeDegrees>-8.35912727750837802886962890625</LongitudeDegrees>
            </Position>
            <AltitudeMeters>-15.6000003814697265625</AltitudeMeters>
            <DistanceMeters>12810.88021185</DistanceMeters>
          </Trackpoint>
          <Trackpoint>
            <Time>2018-04-21T08:44:36.000Z</Time>
            <Position>
              <LatitudeDegrees>43.292845375835895538330078125</LatitudeDegrees>
              <LongitudeDegrees>-8.35926407016813755035400390625</LongitudeDegrees>
            </Position>
            <AltitudeMeters>-15.80000019073486328125</AltitudeMeters>
            <DistanceMeters>12822.922012693</DistanceMeters>
          </Trackpoint>
          <Trackpoint>
            <Time>2018-04-21T08:44:40.000Z</Time>
            <Position>
              <LatitudeDegrees>43.29272425733506679534912109375</LatitudeDegrees>
              <LongitudeDegrees>-8.3594985119998455047607421875</LongitudeDegrees>
            </Position>
            <AltitudeMeters>-16</AltitudeMeters>
            <DistanceMeters>12846.212670738</DistanceMeters>
          </Trackpoint>
          <Trackpoint>
            <Time>2018-04-21T08:44:41.000Z</Time>
            <Position>
              <LatitudeDegrees>43.29268167726695537567138671875</LatitudeDegrees>
              <LongitudeDegrees>-8.3595437742769718170166015625</LongitudeDegrees>
            </Position>
            <AltitudeMeters>-15.80000019073486328125</AltitudeMeters>
            <DistanceMeters>12852.204630679</DistanceMeters>
          </Trackpoint>
          <Trackpoint>
            <Time>2018-04-21T08:44:44.000Z</Time>
            <Position>
              <LatitudeDegrees>43.2925444655120372772216796875</LatitudeDegrees>
              <LongitudeDegrees>-8.35966120474040508270263671875</LongitudeDegrees>
            </Position>
            <AltitudeMeters>-15.80000019073486328125</AltitudeMeters>
            <DistanceMeters>12870.19733116</DistanceMeters>
          </Trackpoint>
          <Trackpoint>
            <Time>2018-04-21T08:44:45.000Z</Time>
            <Position>
              <LatitudeDegrees>43.29249375499784946441650390625</LatitudeDegrees>
              <LongitudeDegrees>-8.3596939779818058013916015625</LongitudeDegrees>
            </Position>
            <AltitudeMeters>-15.80000019073486328125</AltitudeMeters>
            <DistanceMeters>12876.435891048</DistanceMeters>
          </Trackpoint>
          <Trackpoint>
            <Time>2018-04-21T08:44:46.000Z</Time>
            <Position>
              <LatitudeDegrees>43.29244161956012248992919921875</LatitudeDegrees>
              <LongitudeDegrees>-8.35972473956644535064697265625</LongitudeDegrees>
            </Position>
            <AltitudeMeters>-15.80000019073486328125</AltitudeMeters>
            <DistanceMeters>12882.750700433</DistanceMeters>
          </Trackpoint>
          <Trackpoint>
            <Time>2018-04-21T08:44:48.000Z</Time>
            <Position>
              <LatitudeDegrees>43.2923312298953533172607421875</LatitudeDegrees>
              <LongitudeDegrees>-8.35976631380617618560791015625</LongitudeDegrees>
            </Position>
            <AltitudeMeters>-15.80000019073486328125</AltitudeMeters>
            <DistanceMeters>12895.490660951</DistanceMeters>
          </Trackpoint>
          <Trackpoint>
            <Time>2018-04-21T08:44:51.000Z</Time>
            <Position>
              <LatitudeDegrees>43.292137943208217620849609375</LatitudeDegrees>
              <LongitudeDegrees>-8.35979196242988109588623046875</LongitudeDegrees>
            </Position>
            <AltitudeMeters>-16</AltitudeMeters>
            <DistanceMeters>12917.104173267</DistanceMeters>
          </Trackpoint>
          <Trackpoint>
            <Time>2018-04-21T08:44:59.000Z</Time>
            <Position>
              <LatitudeDegrees>43.29164718277752399444580078125</LatitudeDegrees>
              <LongitudeDegrees>-8.35985532961785793304443359375</LongitudeDegrees>
            </Position>
            <AltitudeMeters>-15.80000019073486328125</AltitudeMeters>
            <DistanceMeters>12971.967515773</DistanceMeters>
          </Trackpoint>
          <Trackpoint>
            <Time>2018-04-21T08:45:06.000Z</Time>
            <Position>
              <LatitudeDegrees>43.2912318594753742218017578125</LatitudeDegrees>
              <LongitudeDegrees>-8.35980269126594066619873046875</LongitudeDegrees>
            </Position>
            <AltitudeMeters>-15.6000003814697265625</AltitudeMeters>
            <DistanceMeters>13018.390083923</DistanceMeters>
          </Trackpoint>
          <Trackpoint>
            <Time>2018-04-21T08:45:11.000Z</Time>
            <Position>
              <LatitudeDegrees>43.2909659855067729949951171875</LatitudeDegrees>
              <LongitudeDegrees>-8.35963287390768527984619140625</LongitudeDegrees>
            </Position>
            <AltitudeMeters>-15.3999996185302734375</AltitudeMeters>
            <DistanceMeters>13051.02397881</DistanceMeters>
          </Trackpoint>
          <Trackpoint>
            <Time>2018-04-21T08:45:12.000Z</Time>
            <Position>
              <LatitudeDegrees>43.29091812483966350555419921875</LatitudeDegrees>
              <LongitudeDegrees>-8.3595773018896579742431640625</LongitudeDegrees>
            </Position>
            <AltitudeMeters>-15.3999996185302734375</AltitudeMeters>
            <DistanceMeters>13057.99922446</DistanceMeters>
          </Trackpoint>
          <Trackpoint>
            <Time>2018-04-21T08:45:15.000Z</Time>
            <Position>
              <LatitudeDegrees>43.29078845679759979248046875</LatitudeDegrees>
              <LongitudeDegrees>-8.3593711070716381072998046875</LongitudeDegrees>
            </Position>
            <AltitudeMeters>-15.6000003814697265625</AltitudeMeters>
            <DistanceMeters>13080.074893544</DistanceMeters>
          </Trackpoint>
          <Trackpoint>
            <Time>2018-04-21T08:45:17.000Z</Time>
            <Position>
              <LatitudeDegrees>43.29071871936321258544921875</LatitudeDegrees>
              <LongitudeDegrees>-8.35921361111104488372802734375</LongitudeDegrees>
            </Position>
            <AltitudeMeters>-15.6000003814697265625</AltitudeMeters>
            <DistanceMeters>13095.009514</DistanceMeters>
          </Trackpoint>
          <Trackpoint>
            <Time>2018-04-21T08:45:21.000Z</Time>
            <Position>
              <LatitudeDegrees>43.290600366890430450439453125</LatitudeDegrees>
              <LongitudeDegrees>-8.358894176781177520751953125</LongitudeDegrees>
            </Position>
            <AltitudeMeters>-15.19999980926513671875</AltitudeMeters>
            <DistanceMeters>13124.048222623</DistanceMeters>
          </Trackpoint>
          <Trackpoint>
            <Time>2018-04-21T08:45:26.000Z</Time>
            <Position>
              <LatitudeDegrees>43.29054278321564197540283203125</LatitudeDegrees>
              <LongitudeDegrees>-8.35851254872977733612060546875</LongitudeDegrees>
            </Position>
            <AltitudeMeters>-15.6000003814697265625</AltitudeMeters>
            <DistanceMeters>13155.62312753</DistanceMeters>
          </Trackpoint>
          <Trackpoint>
            <Time>2018-04-21T08:45:30.000Z</Time>
            <Position>
              <LatitudeDegrees>43.29055418260395526885986328125</LatitudeDegrees>
              <LongitudeDegrees>-8.35835597477853298187255859375</LongitudeDegrees>
            </Position>
            <AltitudeMeters>-16.200000762939453125</AltitudeMeters>
            <DistanceMeters>13168.370882458</DistanceMeters>
          </Trackpoint>
          <Trackpoint>
            <Time>2018-04-21T08:45:33.000Z</Time>
            <Position>
              <LatitudeDegrees>43.29056918621063232421875</LatitudeDegrees>
              <LongitudeDegrees>-8.358392603695392608642578125</LongitudeDegrees>
            </Position>
            <AltitudeMeters>-16.200000762939453125</AltitudeMeters>
            <DistanceMeters>13171.775969557</DistanceMeters>
          </Trackpoint>
          <Trackpoint>
            <Time>2018-04-21T08:45:37.000Z</Time>
            <Position>
              <LatitudeDegrees>43.2905904762446880340576171875</LatitudeDegrees>
              <LongitudeDegrees>-8.35855127312242984771728515625</LongitudeDegrees>
            </Position>
            <AltitudeMeters>-16</AltitudeMeters>
            <DistanceMeters>13184.847584089</DistanceMeters>
          </Trackpoint>
          <Trackpoint>
            <Time>2018-04-21T08:45:38.000Z</Time>
            <Position>
              <LatitudeDegrees>43.2905958406627178192138671875</LatitudeDegrees>
              <LongitudeDegrees>-8.35860106162726879119873046875</LongitudeDegrees>
            </Position>
            <AltitudeMeters>-16</AltitudeMeters>
            <DistanceMeters>13188.92599074</DistanceMeters>
          </Trackpoint>
          <Trackpoint>
            <Time>2018-04-21T08:45:45.000Z</Time>
            <Position>
              <LatitudeDegrees>43.290647976100444793701171875</LatitudeDegrees>
              <LongitudeDegrees>-8.35901713930070400238037109375</LongitudeDegrees>
            </Position>
            <AltitudeMeters>-15.6000003814697265625</AltitudeMeters>
            <DistanceMeters>13223.130328244</DistanceMeters>
          </Trackpoint>
          <Trackpoint>
            <Time>2018-04-21T08:45:46.000Z</Time>
            <Position>
              <LatitudeDegrees>43.290660046041011810302734375</LatitudeDegrees>
              <LongitudeDegrees>-8.35908302105963230133056640625</LongitudeDegrees>
            </Position>
            <AltitudeMeters>-16.799999237060546875</AltitudeMeters>
            <DistanceMeters>13228.63532021</DistanceMeters>
          </Trackpoint>
          <Trackpoint>
            <Time>2018-04-21T08:45:47.000Z</Time>
            <Position>
              <LatitudeDegrees>43.29067370854318141937255859375</LatitudeDegrees>
              <LongitudeDegrees>-8.35914689116179943084716796875</LongitudeDegrees>
            </Position>
            <AltitudeMeters>-15.80000019073486328125</AltitudeMeters>
            <DistanceMeters>13234.029289648</DistanceMeters>
          </Trackpoint>
          <Trackpoint>
            <Time>2018-04-21T08:45:49.000Z</Time>
            <Position>
              <LatitudeDegrees>43.290708325803279876708984375</LatitudeDegrees>
              <LongitudeDegrees>-8.35927731357514858245849609375</LongitudeDegrees>
            </Position>
            <AltitudeMeters>-14.80000019073486328125</AltitudeMeters>
            <DistanceMeters>13245.276214153</DistanceMeters>
          </Trackpoint>
          <Trackpoint>
            <Time>2018-04-21T08:45:50.000Z</Time>
            <Position>
              <LatitudeDegrees>43.29073875211179256439208984375</LatitudeDegrees>
              <LongitudeDegrees>-8.35934436880052089691162109375</LongitudeDegrees>
            </Position>
            <AltitudeMeters>-17.3999996185302734375</AltitudeMeters>
            <DistanceMeters>13251.67765828</DistanceMeters>
          </Trackpoint>
          <Trackpoint>
            <Time>2018-04-21T08:45:51.000Z</Time>
            <Position>
              <LatitudeDegrees>43.29077295027673244476318359375</LatitudeDegrees>
              <LongitudeDegrees>-8.35940823890268802642822265625</LongitudeDegrees>
            </Position>
            <AltitudeMeters>-17.200000762939453125</AltitudeMeters>
            <DistanceMeters>13258.100929975</DistanceMeters>
          </Trackpoint>
          <Trackpoint>
            <Time>2018-04-21T08:45:53.000Z</Time>
            <Position>
              <LatitudeDegrees>43.29085140489041805267333984375</LatitudeDegrees>
              <LongitudeDegrees>-8.35952457971870899200439453125</LongitudeDegrees>
            </Position>
            <AltitudeMeters>-15.6000003814697265625</AltitudeMeters>
            <DistanceMeters>13270.949581949</DistanceMeters>
          </Trackpoint>
          <Trackpoint>
            <Time>2018-04-21T08:45:56.000Z</Time>
            <Position>
              <LatitudeDegrees>43.2910015247762203216552734375</LatitudeDegrees>
              <LongitudeDegrees>-8.35968031547963619232177734375</LongitudeDegrees>
            </Position>
            <AltitudeMeters>-15.3999996185302734375</AltitudeMeters>
            <DistanceMeters>13291.886535665</DistanceMeters>
          </Trackpoint>
          <Trackpoint>
            <Time>2018-04-21T08:46:02.000Z</Time>
            <Position>
              <LatitudeDegrees>43.29135113395750522613525390625</LatitudeDegrees>
              <LongitudeDegrees>-8.3598834089934825897216796875</LongitudeDegrees>
            </Position>
            <AltitudeMeters>-15.19999980926513671875</AltitudeMeters>
            <DistanceMeters>13334.134433955</DistanceMeters>
          </Trackpoint>
          <Trackpoint>
            <Time>2018-04-21T08:46:08.000Z</Time>
            <Position>
              <LatitudeDegrees>43.29176452942192554473876953125</LatitudeDegrees>
              <LongitudeDegrees>-8.35996228270232677459716796875</LongitudeDegrees>
            </Position>
            <AltitudeMeters>-15.6000003814697265625</AltitudeMeters>
            <DistanceMeters>13380.587823151</DistanceMeters>
          </Trackpoint>
          <Trackpoint>
            <Time>2018-04-21T08:46:15.000Z</Time>
            <Position>
              <LatitudeDegrees>43.29220893792808055877685546875</LatitudeDegrees>
              <LongitudeDegrees>-8.35982766933739185333251953125</LongitudeDegrees>
            </Position>
            <AltitudeMeters>-15.6000003814697265625</AltitudeMeters>
            <DistanceMeters>13431.239290443</DistanceMeters>
          </Trackpoint>
          <Trackpoint>
            <Time>2018-04-21T08:46:21.000Z</Time>
            <Position>
              <LatitudeDegrees>43.2925327308475971221923828125</LatitudeDegrees>
              <LongitudeDegrees>-8.35967159830033779144287109375</LongitudeDegrees>
            </Position>
            <AltitudeMeters>-15.6000003814697265625</AltitudeMeters>
            <DistanceMeters>13469.431518816</DistanceMeters>
          </Trackpoint>
          <Trackpoint>
            <Time>2018-04-21T08:46:23.000Z</Time>
            <Position>
              <LatitudeDegrees>43.29264186322689056396484375</LatitudeDegrees>
              <LongitudeDegrees>-8.35957445204257965087890625</LongitudeDegrees>
            </Position>
            <AltitudeMeters>-15.80000019073486328125</AltitudeMeters>
            <DistanceMeters>13483.904932835</DistanceMeters>
          </Trackpoint>
          <Trackpoint>
            <Time>2018-04-21T08:46:26.000Z</Time>
            <Position>
              <LatitudeDegrees>43.2927741296589374542236328125</LatitudeDegrees>
              <LongitudeDegrees>-8.3593764714896678924560546875</LongitudeDegrees>
            </Position>
            <AltitudeMeters>-15.6000003814697265625</AltitudeMeters>
            <DistanceMeters>13505.675385109</DistanceMeters>
          </Trackpoint>
          <Trackpoint>
            <Time>2018-04-21T08:46:31.000Z</Time>
            <Position>
              <LatitudeDegrees>43.29290782101452350616455078125</LatitudeDegrees>
              <LongitudeDegrees>-8.3589761517941951751708984375</LongitudeDegrees>
            </Position>
            <AltitudeMeters>-15.6000003814697265625</AltitudeMeters>
            <DistanceMeters>13541.356872438</DistanceMeters>
          </Trackpoint>
          <Trackpoint>
            <Time>2018-04-21T08:46:35.000Z</Time>
            <Position>
              <LatitudeDegrees>43.29290606081485748291015625</LatitudeDegrees>
              <LongitudeDegrees>-8.35862092673778533935546875</LongitudeDegrees>
            </Position>
            <AltitudeMeters>-15.6000003814697265625</AltitudeMeters>
            <DistanceMeters>13570.13537989</DistanceMeters>
          </Trackpoint>
          <Trackpoint>
            <Time>2018-04-21T08:46:41.000Z</Time>
            <Position>
              <LatitudeDegrees>43.29291184432804584503173828125</LatitudeDegrees>
              <LongitudeDegrees>-8.3580945432186126708984375</LongitudeDegrees>
            </Position>
            <AltitudeMeters>-15.6000003814697265625</AltitudeMeters>
            <DistanceMeters>13612.783640319</DistanceMeters>
          </Trackpoint>
          <Trackpoint>
            <Time>2018-04-21T08:46:44.000Z</Time>
            <Position>
              <LatitudeDegrees>43.2929457910358905792236328125</LatitudeDegrees>
              <LongitudeDegrees>-8.35784199647605419158935546875</LongitudeDegrees>
            </Position>
            <AltitudeMeters>-15.6000003814697265625</AltitudeMeters>
            <DistanceMeters>13633.588849146</DistanceMeters>
          </Trackpoint>
          <Trackpoint>
            <Time>2018-04-21T08:46:46.000Z</Time>
            <Position>
              <LatitudeDegrees>43.29299549572169780731201171875</LatitudeDegrees>
              <LongitudeDegrees>-8.357683829963207244873046875</LongitudeDegrees>
            </Position>
            <AltitudeMeters>-15.6000003814697265625</AltitudeMeters>
            <DistanceMeters>13647.545164881</DistanceMeters>
          </Trackpoint>
          <Trackpoint>
            <Time>2018-04-21T08:46:49.000Z</Time>
            <Position>
              <LatitudeDegrees>43.2931105792522430419921875</LatitudeDegrees>
              <LongitudeDegrees>-8.357492052018642425537109375</LongitudeDegrees>
            </Position>
            <AltitudeMeters>-15.80000019073486328125</AltitudeMeters>
            <DistanceMeters>13667.68096465</DistanceMeters>
          </Trackpoint>
          <Trackpoint>
            <Time>2018-04-21T08:46:50.000Z</Time>
            <Position>
              <LatitudeDegrees>43.29314921982586383819580078125</LatitudeDegrees>
              <LongitudeDegrees>-8.3574322052299976348876953125</LongitudeDegrees>
            </Position>
            <AltitudeMeters>-15.6000003814697265625</AltitudeMeters>
            <DistanceMeters>13674.162316023</DistanceMeters>
          </Trackpoint>
          <Trackpoint>
            <Time>2018-04-21T08:46:51.000Z</Time>
            <Position>
              <LatitudeDegrees>43.2932042889297008514404296875</LatitudeDegrees>
              <LongitudeDegrees>-8.35738082416355609893798828125</LongitudeDegrees>
            </Position>
            <AltitudeMeters>-15.80000019073486328125</AltitudeMeters>
            <DistanceMeters>13681.571962761</DistanceMeters>
          </Trackpoint>
          <Trackpoint>
            <Time>2018-04-21T08:46:55.000Z</Time>
            <Position>
              <LatitudeDegrees>43.2934171892702579498291015625</LatitudeDegrees>
              <LongitudeDegrees>-8.357154764235019683837890625</LongitudeDegrees>
            </Position>
            <AltitudeMeters>-15.80000019073486328125</AltitudeMeters>
            <DistanceMeters>13711.520156072</DistanceMeters>
          </Trackpoint>
          <Trackpoint>
            <Time>2018-04-21T08:46:57.000Z</Time>
            <Position>
              <LatitudeDegrees>43.2934916205704212188720703125</LatitudeDegrees>
              <LongitudeDegrees>-8.357015289366245269775390625</LongitudeDegrees>
            </Position>
            <AltitudeMeters>-15.6000003814697265625</AltitudeMeters>
            <DistanceMeters>13725.530716437</DistanceMeters>
          </Trackpoint>
          <Trackpoint>
            <Time>2018-04-21T08:47:00.000Z</Time>
            <Position>
              <LatitudeDegrees>43.293596394360065460205078125</LatitudeDegrees>
              <LongitudeDegrees>-8.35681202821433544158935546875</LongitudeDegrees>
            </Position>
            <AltitudeMeters>-15.3999996185302734375</AltitudeMeters>
            <DistanceMeters>13745.708627298</DistanceMeters>
          </Trackpoint>
          <Trackpoint>
            <Time>2018-04-21T08:47:02.000Z</Time>
            <Position>
              <LatitudeDegrees>43.293674848973751068115234375</LatitudeDegrees>
              <LongitudeDegrees>-8.3567078411579132080078125</LongitudeDegrees>
            </Position>
            <AltitudeMeters>-15</AltitudeMeters>
            <DistanceMeters>13757.853100879</DistanceMeters>
          </Trackpoint>
          <Trackpoint>
            <Time>2018-04-21T08:47:05.000Z</Time>
            <Position>
              <LatitudeDegrees>43.29379118978977203369140625</LatitudeDegrees>
              <LongitudeDegrees>-8.35656207986176013946533203125</LongitudeDegrees>
            </Position>
            <AltitudeMeters>-14.80000019073486328125</AltitudeMeters>
            <DistanceMeters>13775.377737819</DistanceMeters>
          </Trackpoint>
          <Trackpoint>
            <Time>2018-04-21T08:47:07.000Z</Time>
            <Position>
              <LatitudeDegrees>43.2938802056014537811279296875</LatitudeDegrees>
              <LongitudeDegrees>-8.35648345761001110076904296875</LongitudeDegrees>
            </Position>
            <AltitudeMeters>-15</AltitudeMeters>
            <DistanceMeters>13787.155684768</DistanceMeters>
          </Trackpoint>
          <Trackpoint>
            <Time>2018-04-21T08:47:10.000Z</Time>
            <Position>
              <LatitudeDegrees>43.29397383145987987518310546875</LatitudeDegrees>
              <LongitudeDegrees>-8.356402404606342315673828125</LongitudeDegrees>
            </Position>
            <AltitudeMeters>-14.80000019073486328125</AltitudeMeters>
            <DistanceMeters>13799.472921241</DistanceMeters>
          </Trackpoint>
          <Trackpoint>
            <Time>2018-04-21T08:47:12.000Z</Time>
            <Position>
              <LatitudeDegrees>43.29398967325687408447265625</LatitudeDegrees>
              <LongitudeDegrees>-8.35638463497161865234375</LongitudeDegrees>
            </Position>
            <AltitudeMeters>-14.6000003814697265625</AltitudeMeters>
            <DistanceMeters>13801.749599496</DistanceMeters>
          </Trackpoint>
          <Trackpoint>
            <Time>2018-04-21T08:47:14.000Z</Time>
            <Position>
              <LatitudeDegrees>43.293992020189762115478515625</LatitudeDegrees>
              <LongitudeDegrees>-8.35638723336160182952880859375</LongitudeDegrees>
            </Position>
            <AltitudeMeters>-14.3999996185302734375</AltitudeMeters>
            <DistanceMeters>13802.078781691</DistanceMeters>
          </Trackpoint>
          <Trackpoint>
            <Time>2018-04-21T08:47:18.000Z</Time>
            <Position>
              <LatitudeDegrees>43.29401515424251556396484375</LatitudeDegrees>
              <LongitudeDegrees>-8.35645227693021297454833984375</LongitudeDegrees>
            </Position>
            <AltitudeMeters>-14.3999996185302734375</AltitudeMeters>
            <DistanceMeters>13807.944324398</DistanceMeters>
          </Trackpoint>
          <Trackpoint>
            <Time>2018-04-21T08:47:22.000Z</Time>
            <Position>
              <LatitudeDegrees>43.2941034995019435882568359375</LatitudeDegrees>
              <LongitudeDegrees>-8.3566577173769474029541015625</LongitudeDegrees>
            </Position>
            <AltitudeMeters>-13.80000019073486328125</AltitudeMeters>
            <DistanceMeters>13827.274729548</DistanceMeters>
          </Trackpoint>
          <Trackpoint>
            <Time>2018-04-21T08:47:28.000Z</Time>
            <Position>
              <LatitudeDegrees>43.2942433096468448638916015625</LatitudeDegrees>
              <LongitudeDegrees>-8.3570097573101520538330078125</LongitudeDegrees>
            </Position>
            <AltitudeMeters>-13.6000003814697265625</AltitudeMeters>
            <DistanceMeters>13859.762749726</DistanceMeters>
          </Trackpoint>
          <Trackpoint>
            <Time>2018-04-21T08:47:30.000Z</Time>
            <Position>
              <LatitudeDegrees>43.2942956127226352691650390625</LatitudeDegrees>
              <LongitudeDegrees>-8.35713523440062999725341796875</LongitudeDegrees>
            </Position>
            <AltitudeMeters>-13.3999996185302734375</AltitudeMeters>
            <DistanceMeters>13871.476502821</DistanceMeters>
          </Trackpoint>
          <Trackpoint>
            <Time>2018-04-21T08:47:37.000Z</Time>
            <Position>
              <LatitudeDegrees>43.29447590745985507965087890625</LatitudeDegrees>
              <LongitudeDegrees>-8.35759322158992290496826171875</LongitudeDegrees>
            </Position>
            <AltitudeMeters>-13.19999980926513671875</AltitudeMeters>
            <DistanceMeters>13913.657233278</DistanceMeters>
          </Trackpoint>
          <Trackpoint>
            <Time>2018-04-21T08:47:40.000Z</Time>
            <Position>
              <LatitudeDegrees>43.29454933293163776397705078125</LatitudeDegrees>
              <LongitudeDegrees>-8.3578077144920825958251953125</LongitudeDegrees>
            </Position>
            <AltitudeMeters>-13.3999996185302734375</AltitudeMeters>
            <DistanceMeters>13932.859214461</DistanceMeters>
          </Trackpoint>
          <Trackpoint>
            <Time>2018-04-21T08:47:44.000Z</Time>
            <Position>
              <LatitudeDegrees>43.29459325410425662994384765625</LatitudeDegrees>
              <LongitudeDegrees>-8.358101584017276763916015625</LongitudeDegrees>
            </Position>
            <AltitudeMeters>-13.19999980926513671875</AltitudeMeters>
            <DistanceMeters>13957.16228505</DistanceMeters>
          </Trackpoint>
          <Trackpoint>
            <Time>2018-04-21T08:47:46.000Z</Time>
            <Position>
              <LatitudeDegrees>43.29459375701844692230224609375</LatitudeDegrees>
              <LongitudeDegrees>-8.35822655819356441497802734375</LongitudeDegrees>
            </Position>
            <AltitudeMeters>-13.19999980926513671875</AltitudeMeters>
            <DistanceMeters>13967.286533057</DistanceMeters>
          </Trackpoint>
          <Trackpoint>
            <Time>2018-04-21T08:47:49.000Z</Time>
            <Position>
              <LatitudeDegrees>43.29457045532763004302978515625</LatitudeDegrees>
              <LongitudeDegrees>-8.3583102934062480926513671875</LongitudeDegrees>
            </Position>
            <AltitudeMeters>-13.19999980926513671875</AltitudeMeters>
            <DistanceMeters>13974.548464373</DistanceMeters>
          </Trackpoint>
          <Trackpoint>
            <Time>2018-04-21T08:47:52.000Z</Time>
            <Position>
              <LatitudeDegrees>43.29453960992395877838134765625</LatitudeDegrees>
              <LongitudeDegrees>-8.3582549728453159332275390625</LongitudeDegrees>
            </Position>
            <AltitudeMeters>-13.19999980926513671875</AltitudeMeters>
            <DistanceMeters>13980.193563112</DistanceMeters>
          </Trackpoint>
          <Trackpoint>
            <Time>2018-04-21T08:47:54.000Z</Time>
            <Position>
              <LatitudeDegrees>43.2945353351533412933349609375</LatitudeDegrees>
              <LongitudeDegrees>-8.35814743302762508392333984375</LongitudeDegrees>
            </Position>
            <AltitudeMeters>-13.19999980926513671875</AltitudeMeters>
            <DistanceMeters>13988.917926375</DistanceMeters>
          </Trackpoint>
          <Trackpoint>
            <Time>2018-04-21T08:47:56.000Z</Time>
            <Position>
              <LatitudeDegrees>43.29452619887888431549072265625</LatitudeDegrees>
              <LongitudeDegrees>-8.3580182678997516632080078125</LongitudeDegrees>
            </Position>
            <AltitudeMeters>-13.6000003814697265625</AltitudeMeters>
            <DistanceMeters>13999.431162588</DistanceMeters>
          </Trackpoint>
          <Trackpoint>
            <Time>2018-04-21T08:47:59.000Z</Time>
            <Position>
              <LatitudeDegrees>43.294486217200756072998046875</LatitudeDegrees>
              <LongitudeDegrees>-8.35785557515919208526611328125</LongitudeDegrees>
            </Position>
            <AltitudeMeters>-14.6000003814697265625</AltitudeMeters>
            <DistanceMeters>14013.341788315</DistanceMeters>
          </Trackpoint>
          <Trackpoint>
            <Time>2018-04-21T08:48:01.000Z</Time>
            <Position>
              <LatitudeDegrees>43.29445612616837024688720703125</LatitudeDegrees>
              <LongitudeDegrees>-8.3577646315097808837890625</LongitudeDegrees>
            </Position>
            <AltitudeMeters>-14.80000019073486328125</AltitudeMeters>
            <DistanceMeters>14021.434695361</DistanceMeters>
          </Trackpoint>
          <Trackpoint>
            <Time>2018-04-21T08:48:03.000Z</Time>
            <Position>
              <LatitudeDegrees>43.29442528076469898223876953125</LatitudeDegrees>
              <LongitudeDegrees>-8.35770218633115291595458984375</LongitudeDegrees>
            </Position>
            <AltitudeMeters>-15.6000003814697265625</AltitudeMeters>
            <DistanceMeters>14027.548244772</DistanceMeters>
          </Trackpoint>
          <Trackpoint>
            <Time>2018-04-21T08:48:04.000Z</Time>
            <Position>
              <LatitudeDegrees>43.29441170208156108856201171875</LatitudeDegrees>
              <LongitudeDegrees>-8.3576782979071140289306640625</LongitudeDegrees>
            </Position>
            <AltitudeMeters>-15.6000003814697265625</AltitudeMeters>
            <DistanceMeters>14030.00427634</DistanceMeters>
          </Trackpoint>
          <Trackpoint>
            <Time>2018-04-21T08:48:05.000Z</Time>
            <Position>
              <LatitudeDegrees>43.29439510591328144073486328125</LatitudeDegrees>
              <LongitudeDegrees>-8.35766044445335865020751953125</LongitudeDegrees>
            </Position>
            <AltitudeMeters>-15.80000019073486328125</AltitudeMeters>
            <DistanceMeters>14032.351263053</DistanceMeters>
          </Trackpoint>
          <Trackpoint>
            <Time>2018-04-21T08:48:09.000Z</Time>
            <Position>
              <LatitudeDegrees>43.294391669332981109619140625</LatitudeDegrees>
              <LongitudeDegrees>-8.35763345472514629364013671875</LongitudeDegrees>
            </Position>
            <AltitudeMeters>-16.200000762939453125</AltitudeMeters>
            <DistanceMeters>14034.567647854</DistanceMeters>
          </Trackpoint>
          <Trackpoint>
            <Time>2018-04-21T08:48:14.000Z</Time>
            <Position>
              <LatitudeDegrees>43.2944441400468349456787109375</LatitudeDegrees>
              <LongitudeDegrees>-8.3577466942369937896728515625</LongitudeDegrees>
            </Position>
            <AltitudeMeters>-14.19999980926513671875</AltitudeMeters>
            <DistanceMeters>14045.442291807</DistanceMeters>
          </Trackpoint>
          <Trackpoint>
            <Time>2018-04-21T08:48:16.000Z</Time>
            <Position>
              <LatitudeDegrees>43.29446735791862010955810546875</LatitudeDegrees>
              <LongitudeDegrees>-8.3578036911785602569580078125</LongitudeDegrees>
            </Position>
            <AltitudeMeters>-16</AltitudeMeters>
            <DistanceMeters>14050.7348618</DistanceMeters>
          </Trackpoint>
          <Trackpoint>
            <Time>2018-04-21T08:48:19.000Z</Time>
            <Position>
              <LatitudeDegrees>43.294497616589069366455078125</LatitudeDegrees>
              <LongitudeDegrees>-8.357873596251010894775390625</LongitudeDegrees>
            </Position>
            <AltitudeMeters>-14.80000019073486328125</AltitudeMeters>
            <DistanceMeters>14057.32398978</DistanceMeters>
          </Trackpoint>
          <Trackpoint>
            <Time>2018-04-21T08:48:21.000Z</Time>
            <Position>
              <LatitudeDegrees>43.29450868070125579833984375</LatitudeDegrees>
              <LongitudeDegrees>-8.35790452547371387481689453125</LongitudeDegrees>
            </Position>
            <AltitudeMeters>-14.80000019073486328125</AltitudeMeters>
            <DistanceMeters>14060.115576421</DistanceMeters>
          </Trackpoint>
          <Trackpoint>
            <Time>2018-04-21T08:48:27.000Z</Time>
            <Position>
              <LatitudeDegrees>43.29453709535300731658935546875</LatitudeDegrees>
              <LongitudeDegrees>-8.3580543100833892822265625</LongitudeDegrees>
            </Position>
            <AltitudeMeters>-14.19999980926513671875</AltitudeMeters>
            <DistanceMeters>14072.655142646</DistanceMeters>
          </Trackpoint>
          <Trackpoint>
            <Time>2018-04-21T08:48:31.000Z</Time>
            <Position>
              <LatitudeDegrees>43.29453416168689727783203125</LatitudeDegrees>
              <LongitudeDegrees>-8.35805338807404041290283203125</LongitudeDegrees>
            </Position>
            <AltitudeMeters>-14.19999980926513671875</AltitudeMeters>
            <DistanceMeters>14073.010700054</DistanceMeters>
          </Trackpoint>
          <Trackpoint>
            <Time>2018-04-21T08:48:35.000Z</Time>
            <Position>
              <LatitudeDegrees>43.29452116973698139190673828125</LatitudeDegrees>
              <LongitudeDegrees>-8.35812848992645740509033203125</LongitudeDegrees>
            </Position>
            <AltitudeMeters>-14</AltitudeMeters>
            <DistanceMeters>14079.263717805</DistanceMeters>
          </Trackpoint>
          <Trackpoint>
            <Time>2018-04-21T08:48:36.000Z</Time>
            <Position>
              <LatitudeDegrees>43.29452167265117168426513671875</LatitudeDegrees>
              <LongitudeDegrees>-8.35815564729273319244384765625</LongitudeDegrees>
            </Position>
            <AltitudeMeters>-13.80000019073486328125</AltitudeMeters>
            <DistanceMeters>14081.463745299</DistanceMeters>
          </Trackpoint>
          <Trackpoint>
            <Time>2018-04-21T08:48:41.000Z</Time>
            <Position>
              <LatitudeDegrees>43.29453659243881702423095703125</LatitudeDegrees>
              <LongitudeDegrees>-8.35828238166868686676025390625</LongitudeDegrees>
            </Position>
            <AltitudeMeters>-13.19999980926513671875</AltitudeMeters>
            <DistanceMeters>14091.863853743</DistanceMeters>
          </Trackpoint>
          <Trackpoint>
            <Time>2018-04-21T08:48:43.000Z</Time>
            <Position>
              <LatitudeDegrees>43.2945616543292999267578125</LatitudeDegrees>
              <LongitudeDegrees>-8.35833116434514522552490234375</LongitudeDegrees>
            </Position>
            <AltitudeMeters>-13.3999996185302734375</AltitudeMeters>
            <DistanceMeters>14096.7018242</DistanceMeters>
          </Trackpoint>
          <Trackpoint>
            <Time>2018-04-21T08:48:46.000Z</Time>
            <Position>
              <LatitudeDegrees>43.294567354023456573486328125</LatitudeDegrees>
              <LongitudeDegrees>-8.3584152348339557647705078125</LongitudeDegrees>
            </Position>
            <AltitudeMeters>-12.80000019073486328125</AltitudeMeters>
            <DistanceMeters>14103.541767625</DistanceMeters>
          </Trackpoint>
          <Trackpoint>
            <Time>2018-04-21T08:48:48.000Z</Time>
            <Position>
              <LatitudeDegrees>43.294553272426128387451171875</LatitudeDegrees>
              <LongitudeDegrees>-8.3584879897534847259521484375</LongitudeDegrees>
            </Position>
            <AltitudeMeters>-12.19999980926513671875</AltitudeMeters>
            <DistanceMeters>14109.64126883</DistanceMeters>
          </Trackpoint>
          <Trackpoint>
            <Time>2018-04-21T08:48:50.000Z</Time>
            <Position>
              <LatitudeDegrees>43.2945333234965801239013671875</LatitudeDegrees>
              <LongitudeDegrees>-8.35855814628303050994873046875</LongitudeDegrees>
            </Position>
            <AltitudeMeters>-11.19999980926513671875</AltitudeMeters>
            <DistanceMeters>14115.74373024</DistanceMeters>
          </Trackpoint>
          <Trackpoint>
            <Time>2018-04-21T08:48:51.000Z</Time>
            <Position>
              <LatitudeDegrees>43.29452477395534515380859375</LatitudeDegrees>
              <LongitudeDegrees>-8.3585929311811923980712890625</LongitudeDegrees>
            </Position>
            <AltitudeMeters>-12.6000003814697265625</AltitudeMeters>
            <DistanceMeters>14118.718536942</DistanceMeters>
          </Trackpoint>
          <Trackpoint>
            <Time>2018-04-21T08:48:53.000Z</Time>
            <Position>
              <LatitudeDegrees>43.2945081777870655059814453125</LatitudeDegrees>
              <LongitudeDegrees>-8.3586653508245944976806640625</LongitudeDegrees>
            </Position>
            <AltitudeMeters>-13.80000019073486328125</AltitudeMeters>
            <DistanceMeters>14124.869636055</DistanceMeters>
          </Trackpoint>
          <Trackpoint>
            <Time>2018-04-21T08:48:54.000Z</Time>
            <Position>
              <LatitudeDegrees>43.29450172372162342071533203125</LatitudeDegrees>
              <LongitudeDegrees>-8.3587018959224224090576171875</LongitudeDegrees>
            </Position>
            <AltitudeMeters>-11.19999980926513671875</AltitudeMeters>
            <DistanceMeters>14127.916424296</DistanceMeters>
          </Trackpoint>
          <Trackpoint>
            <Time>2018-04-21T08:48:58.000Z</Time>
            <Position>
              <LatitudeDegrees>43.29446333460509777069091796875</LatitudeDegrees>
              <LongitudeDegrees>-8.35886073298752307891845703125</LongitudeDegrees>
            </Position>
            <AltitudeMeters>-10.3999996185302734375</AltitudeMeters>
            <DistanceMeters>14141.474308942</DistanceMeters>
          </Trackpoint>
          <Trackpoint>
            <Time>2018-04-21T08:48:59.000Z</Time>
            <Position>
              <LatitudeDegrees>43.29445310868322849273681640625</LatitudeDegrees>
              <LongitudeDegrees>-8.3588963560760021209716796875</LongitudeDegrees>
            </Position>
            <AltitudeMeters>-10</AltitudeMeters>
            <DistanceMeters>14144.576898424</DistanceMeters>
          </Trackpoint>
          <Trackpoint>
            <Time>2018-04-21T08:49:02.000Z</Time>
            <Position>
              <LatitudeDegrees>43.29441614449024200439453125</LatitudeDegrees>
              <LongitudeDegrees>-8.3590064942836761474609375</LongitudeDegrees>
            </Position>
            <AltitudeMeters>-9.3999996185302734375</AltitudeMeters>
            <DistanceMeters>14154.401943828</DistanceMeters>
          </Trackpoint>
          <Trackpoint>
            <Time>2018-04-21T08:49:04.000Z</Time>
            <Position>
              <LatitudeDegrees>43.29439410008490085601806640625</LatitudeDegrees>
              <LongitudeDegrees>-8.35909442044794559478759765625</LongitudeDegrees>
            </Position>
            <AltitudeMeters>-9</AltitudeMeters>
            <DistanceMeters>14161.936070222</DistanceMeters>
          </Trackpoint>
          <Trackpoint>
            <Time>2018-04-21T08:49:05.000Z</Time>
            <Position>
              <LatitudeDegrees>43.29438018612563610076904296875</LatitudeDegrees>
              <LongitudeDegrees>-8.359131552278995513916015625</LongitudeDegrees>
            </Position>
            <AltitudeMeters>-8.6000003814697265625</AltitudeMeters>
            <DistanceMeters>14165.319875318</DistanceMeters>
          </Trackpoint>
          <Trackpoint>
            <Time>2018-04-21T08:49:09.000Z</Time>
            <Position>
              <LatitudeDegrees>43.29432520084083080291748046875</LatitudeDegrees>
              <LongitudeDegrees>-8.3592889644205570220947265625</LongitudeDegrees>
            </Position>
            <AltitudeMeters>-8</AltitudeMeters>
            <DistanceMeters>14179.464498809</DistanceMeters>
          </Trackpoint>
          <Trackpoint>
            <Time>2018-04-21T08:49:10.000Z</Time>
            <Position>
              <LatitudeDegrees>43.2943110354244709014892578125</LatitudeDegrees>
              <LongitudeDegrees>-8.3593310415744781494140625</LongitudeDegrees>
            </Position>
            <AltitudeMeters>-7.599999904632568359375</AltitudeMeters>
            <DistanceMeters>14183.220158459</DistanceMeters>
          </Trackpoint>
          <Trackpoint>
            <Time>2018-04-21T08:49:12.000Z</Time>
            <Position>
              <LatitudeDegrees>43.29428471624851226806640625</LatitudeDegrees>
              <LongitudeDegrees>-8.359407484531402587890625</LongitudeDegrees>
            </Position>
            <AltitudeMeters>-6.80000019073486328125</AltitudeMeters>
            <DistanceMeters>14190.069996209</DistanceMeters>
          </Trackpoint>
          <Trackpoint>
            <Time>2018-04-21T08:49:15.000Z</Time>
            <Position>
              <LatitudeDegrees>43.29424825496971607208251953125</LatitudeDegrees>
              <LongitudeDegrees>-8.3595236577093601226806640625</LongitudeDegrees>
            </Position>
            <AltitudeMeters>-6.599999904632568359375</AltitudeMeters>
            <DistanceMeters>14200.318353108</DistanceMeters>
          </Trackpoint>
          <Trackpoint>
            <Time>2018-04-21T08:49:19.000Z</Time>
            <Position>
              <LatitudeDegrees>43.2941722311079502105712890625</LatitudeDegrees>
              <LongitudeDegrees>-8.35967092774808406829833984375</LongitudeDegrees>
            </Position>
            <AltitudeMeters>-6.19999980926513671875</AltitudeMeters>
            <DistanceMeters>14214.944751879</DistanceMeters>
          </Trackpoint>
          <Trackpoint>
            <Time>2018-04-21T08:49:24.000Z</Time>
            <Position>
              <LatitudeDegrees>43.294057063758373260498046875</LatitudeDegrees>
              <LongitudeDegrees>-8.3598552457988262176513671875</LongitudeDegrees>
            </Position>
            <AltitudeMeters>-6</AltitudeMeters>
            <DistanceMeters>14234.623772647</DistanceMeters>
          </Trackpoint>
          <Trackpoint>
            <Time>2018-04-21T08:49:27.000Z</Time>
            <Position>
              <LatitudeDegrees>43.29400819726288318634033203125</LatitudeDegrees>
              <LongitudeDegrees>-8.3600094728171825408935546875</LongitudeDegrees>
            </Position>
            <AltitudeMeters>-5.400000095367431640625</AltitudeMeters>
            <DistanceMeters>14248.250086596</DistanceMeters>
          </Trackpoint>
          <Trackpoint>
            <Time>2018-04-21T08:49:28.000Z</Time>
            <Position>
              <LatitudeDegrees>43.29398523084819316864013671875</LatitudeDegrees>
              <LongitudeDegrees>-8.36006102152168750762939453125</LongitudeDegrees>
            </Position>
            <AltitudeMeters>-5.19999980926513671875</AltitudeMeters>
            <DistanceMeters>14253.14649885</DistanceMeters>
          </Trackpoint>
          <Trackpoint>
            <Time>2018-04-21T08:49:34.000Z</Time>
            <Position>
              <LatitudeDegrees>43.29381993971765041351318359375</LatitudeDegrees>
              <LongitudeDegrees>-8.3603263087570667266845703125</LongitudeDegrees>
            </Position>
            <AltitudeMeters>-5.19999980926513671875</AltitudeMeters>
            <DistanceMeters>14281.436703431</DistanceMeters>
          </Trackpoint>
          <Trackpoint>
            <Time>2018-04-21T08:49:35.000Z</Time>
            <Position>
              <LatitudeDegrees>43.293782137334346771240234375</LatitudeDegrees>
              <LongitudeDegrees>-8.3603611774742603302001953125</LongitudeDegrees>
            </Position>
            <AltitudeMeters>-5</AltitudeMeters>
            <DistanceMeters>14286.504398904</DistanceMeters>
          </Trackpoint>
          <Trackpoint>
            <Time>2018-04-21T08:49:38.000Z</Time>
            <Position>
              <LatitudeDegrees>43.29366152174770832061767578125</LatitudeDegrees>
              <LongitudeDegrees>-8.36046016775071620941162109375</LongitudeDegrees>
            </Position>
            <AltitudeMeters>-4.599999904632568359375</AltitudeMeters>
            <DistanceMeters>14302.141996868</DistanceMeters>
          </Trackpoint>
          <Trackpoint>
            <Time>2018-04-21T08:49:40.000Z</Time>
            <Position>
              <LatitudeDegrees>43.29357334412634372711181640625</LatitudeDegrees>
              <LongitudeDegrees>-8.3605204336345195770263671875</LongitudeDegrees>
            </Position>
            <AltitudeMeters>-4.599999904632568359375</AltitudeMeters>
            <DistanceMeters>14313.103483864</DistanceMeters>
          </Trackpoint>
          <Trackpoint>
            <Time>2018-04-21T08:49:44.000Z</Time>
            <Position>
              <LatitudeDegrees>43.29341031610965728759765625</LatitudeDegrees>
              <LongitudeDegrees>-8.36066074669361114501953125</LongitudeDegrees>
            </Position>
            <AltitudeMeters>-4.599999904632568359375</AltitudeMeters>
            <DistanceMeters>14334.515092423</DistanceMeters>
          </Trackpoint>
          <Trackpoint>
            <Time>2018-04-21T08:49:45.000Z</Time>
            <Position>
              <LatitudeDegrees>43.29338693059980869293212890625</LatitudeDegrees>
              <LongitudeDegrees>-8.36071782745420932769775390625</LongitudeDegrees>
            </Position>
            <AltitudeMeters>-4.400000095367431640625</AltitudeMeters>
            <DistanceMeters>14339.821294299</DistanceMeters>
          </Trackpoint>
          <Trackpoint>
            <Time>2018-04-21T08:49:46.000Z</Time>
            <Position>
              <LatitudeDegrees>43.2933786325156688690185546875</LatitudeDegrees>
              <LongitudeDegrees>-8.36077205836772918701171875</LongitudeDegrees>
            </Position>
            <AltitudeMeters>-4.400000095367431640625</AltitudeMeters>
            <DistanceMeters>14344.31174647</DistanceMeters>
          </Trackpoint>
          <Trackpoint>
            <Time>2018-04-21T08:49:50.000Z</Time>
            <Position>
              <LatitudeDegrees>43.29335273243486881256103515625</LatitudeDegrees>
              <LongitudeDegrees>-8.3610082603991031646728515625</LongitudeDegrees>
            </Position>
            <AltitudeMeters>-4</AltitudeMeters>
            <DistanceMeters>14363.662695025</DistanceMeters>
          </Trackpoint>
          <Trackpoint>
            <Time>2018-04-21T08:49:52.000Z</Time>
            <Position>
              <LatitudeDegrees>43.29327796585857868194580078125</LatitudeDegrees>
              <LongitudeDegrees>-8.3610682748258113861083984375</LongitudeDegrees>
            </Position>
            <AltitudeMeters>-4</AltitudeMeters>
            <DistanceMeters>14373.301233631</DistanceMeters>
          </Trackpoint>
          <Trackpoint>
            <Time>2018-04-21T08:49:55.000Z</Time>
            <Position>
              <LatitudeDegrees>43.2931347191333770751953125</LatitudeDegrees>
              <LongitudeDegrees>-8.36102896369993686676025390625</LongitudeDegrees>
            </Position>
            <AltitudeMeters>-4.400000095367431640625</AltitudeMeters>
            <DistanceMeters>14389.559968447</DistanceMeters>
          </Trackpoint>
          <Trackpoint>
            <Time>2018-04-21T08:49:59.000Z</Time>
            <Position>
              <LatitudeDegrees>43.292909078299999237060546875</LatitudeDegrees>
              <LongitudeDegrees>-8.3610515110194683074951171875</LongitudeDegrees>
            </Position>
            <AltitudeMeters>-4.599999904632568359375</AltitudeMeters>
            <DistanceMeters>14414.740434042</DistanceMeters>
          </Trackpoint>
          <Trackpoint>
            <Time>2018-04-21T08:50:00.000Z</Time>
            <Position>
              <LatitudeDegrees>43.29284881241619586944580078125</LatitudeDegrees>
              <LongitudeDegrees>-8.36107137612998485565185546875</LongitudeDegrees>
            </Position>
            <AltitudeMeters>-4.599999904632568359375</AltitudeMeters>
            <DistanceMeters>14421.638876103</DistanceMeters>
          </Trackpoint>
          <Trackpoint>
            <Time>2018-04-21T08:50:04.000Z</Time>
            <Position>
              <LatitudeDegrees>43.2925642468035221099853515625</LatitudeDegrees>
              <LongitudeDegrees>-8.361115716397762298583984375</LongitudeDegrees>
            </Position>
            <AltitudeMeters>-5.400000095367431640625</AltitudeMeters>
            <DistanceMeters>14453.514779722</DistanceMeters>
          </Trackpoint>
          <Trackpoint>
            <Time>2018-04-21T08:50:05.000Z</Time>
            <Position>
              <LatitudeDegrees>43.29248621128499507904052734375</LatitudeDegrees>
              <LongitudeDegrees>-8.3611199073493480682373046875</LongitudeDegrees>
            </Position>
            <AltitudeMeters>-6</AltitudeMeters>
            <DistanceMeters>14462.207516902</DistanceMeters>
          </Trackpoint>
          <Trackpoint>
            <Time>2018-04-21T08:50:08.000Z</Time>
            <Position>
              <LatitudeDegrees>43.2922521047294139862060546875</LatitudeDegrees>
              <LongitudeDegrees>-8.36111697368323802947998046875</LongitudeDegrees>
            </Position>
            <AltitudeMeters>-6.599999904632568359375</AltitudeMeters>
            <DistanceMeters>14488.265117291</DistanceMeters>
          </Trackpoint>
          <Trackpoint>
            <Time>2018-04-21T08:50:12.000Z</Time>
            <Position>
              <LatitudeDegrees>43.2919453270733356475830078125</LatitudeDegrees>
              <LongitudeDegrees>-8.3611048199236392974853515625</LongitudeDegrees>
            </Position>
            <AltitudeMeters>-7.19999980926513671875</AltitudeMeters>
            <DistanceMeters>14522.424412483</DistanceMeters>
          </Trackpoint>
          <Trackpoint>
            <Time>2018-04-21T08:50:20.000Z</Time>
            <Position>
              <LatitudeDegrees>43.291341327130794525146484375</LatitudeDegrees>
              <LongitudeDegrees>-8.36103382520377635955810546875</LongitudeDegrees>
            </Position>
            <AltitudeMeters>-7.19999980926513671875</AltitudeMeters>
            <DistanceMeters>14589.896457946</DistanceMeters>
          </Trackpoint>
          <Trackpoint>
            <Time>2018-04-21T08:50:24.000Z</Time>
            <Position>
              <LatitudeDegrees>43.29108886420726776123046875</LatitudeDegrees>
              <LongitudeDegrees>-8.36091413162648677825927734375</LongitudeDegrees>
            </Position>
            <AltitudeMeters>-6.19999980926513671875</AltitudeMeters>
            <DistanceMeters>14619.622053654</DistanceMeters>
          </Trackpoint>
          <Trackpoint>
            <Time>2018-04-21T08:50:25.000Z</Time>
            <Position>
              <LatitudeDegrees>43.291027843952178955078125</LatitudeDegrees>
              <LongitudeDegrees>-8.36088546551764011383056640625</LongitudeDegrees>
            </Position>
            <AltitudeMeters>-6</AltitudeMeters>
            <DistanceMeters>14626.800188244</DistanceMeters>
          </Trackpoint>
          <Trackpoint>
            <Time>2018-04-21T08:50:26.000Z</Time>
            <Position>
              <LatitudeDegrees>43.290968835353851318359375</LatitudeDegrees>
              <LongitudeDegrees>-8.36085520684719085693359375</LongitudeDegrees>
            </Position>
            <AltitudeMeters>-5.80000019073486328125</AltitudeMeters>
            <DistanceMeters>14633.8109447</DistanceMeters>
          </Trackpoint>
          <Trackpoint>
            <Time>2018-04-21T08:50:29.000Z</Time>
            <Position>
              <LatitudeDegrees>43.29080044291913509368896484375</LatitudeDegrees>
              <LongitudeDegrees>-8.360744230449199676513671875</LongitudeDegrees>
            </Position>
            <AltitudeMeters>-5</AltitudeMeters>
            <DistanceMeters>14654.598567896</DistanceMeters>
          </Trackpoint>
          <Trackpoint>
            <Time>2018-04-21T08:50:32.000Z</Time>
            <Position>
              <LatitudeDegrees>43.29063934274017810821533203125</LatitudeDegrees>
              <LongitudeDegrees>-8.36064557544887065887451171875</LongitudeDegrees>
            </Position>
            <AltitudeMeters>-4</AltitudeMeters>
            <DistanceMeters>14674.230268348</DistanceMeters>
          </Trackpoint>
          <Trackpoint>
            <Time>2018-04-21T08:50:33.000Z</Time>
            <Position>
              <LatitudeDegrees>43.29058620147407054901123046875</LatitudeDegrees>
              <LongitudeDegrees>-8.36061104200780391693115234375</LongitudeDegrees>
            </Position>
            <AltitudeMeters>-3.7999999523162841796875</AltitudeMeters>
            <DistanceMeters>14680.774015172</DistanceMeters>
          </Trackpoint>
          <Trackpoint>
            <Time>2018-04-21T08:50:37.000Z</Time>
            <Position>
              <LatitudeDegrees>43.290352262556552886962890625</LatitudeDegrees>
              <LongitudeDegrees>-8.36051858961582183837890625</LongitudeDegrees>
            </Position>
            <AltitudeMeters>-3.2000000476837158203125</AltitudeMeters>
            <DistanceMeters>14707.867796272</DistanceMeters>
          </Trackpoint>
          <Trackpoint>
            <Time>2018-04-21T08:50:39.000Z</Time>
            <Position>
              <LatitudeDegrees>43.2902236841619014739990234375</LatitudeDegrees>
              <LongitudeDegrees>-8.36049168370664119720458984375</LongitudeDegrees>
            </Position>
            <AltitudeMeters>-3.400000095367431640625</AltitudeMeters>
            <DistanceMeters>14722.343705707</DistanceMeters>
          </Trackpoint>
          <Trackpoint>
            <Time>2018-04-21T08:50:47.000Z</Time>
            <Position>
              <LatitudeDegrees>43.28965388238430023193359375</LatitudeDegrees>
              <LongitudeDegrees>-8.360397554934024810791015625</LongitudeDegrees>
            </Position>
            <AltitudeMeters>-4.400000095367431640625</AltitudeMeters>
            <DistanceMeters>14786.220603732</DistanceMeters>
          </Trackpoint>
          <Trackpoint>
            <Time>2018-04-21T08:50:53.000Z</Time>
            <Position>
              <LatitudeDegrees>43.2891905307769775390625</LatitudeDegrees>
              <LongitudeDegrees>-8.36033108644187450408935546875</LongitudeDegrees>
            </Position>
            <AltitudeMeters>-5</AltitudeMeters>
            <DistanceMeters>14838.072807936</DistanceMeters>
          </Trackpoint>
          <Trackpoint>
            <Time>2018-04-21T08:50:55.000Z</Time>
            <Position>
              <LatitudeDegrees>43.289048708975315093994140625</LatitudeDegrees>
              <LongitudeDegrees>-8.3603139035403728485107421875</LongitudeDegrees>
            </Position>
            <AltitudeMeters>-4.599999904632568359375</AltitudeMeters>
            <DistanceMeters>14853.919207077</DistanceMeters>
          </Trackpoint>
          <Trackpoint>
            <Time>2018-04-21T08:51:00.000Z</Time>
            <Position>
              <LatitudeDegrees>43.28873078338801860809326171875</LatitudeDegrees>
              <LongitudeDegrees>-8.36026738397777080535888671875</LongitudeDegrees>
            </Position>
            <AltitudeMeters>-3.7999999523162841796875</AltitudeMeters>
            <DistanceMeters>14889.505030522</DistanceMeters>
          </Trackpoint>
          <Trackpoint>
            <Time>2018-04-21T08:51:01.000Z</Time>
            <Position>
              <LatitudeDegrees>43.28867194242775440216064453125</LatitudeDegrees>
              <LongitudeDegrees>-8.36025900207459926605224609375</LongitudeDegrees>
            </Position>
            <AltitudeMeters>-3.599999904632568359375</AltitudeMeters>
            <DistanceMeters>14896.088674417</DistanceMeters>
          </Trackpoint>
          <Trackpoint>
            <Time>2018-04-21T08:51:03.000Z</Time>
            <Position>
              <LatitudeDegrees>43.288566581904888153076171875</LatitudeDegrees>
              <LongitudeDegrees>-8.3602398075163364410400390625</LongitudeDegrees>
            </Position>
            <AltitudeMeters>-2.7999999523162841796875</AltitudeMeters>
            <DistanceMeters>14907.91864165</DistanceMeters>
          </Trackpoint>
          <Trackpoint>
            <Time>2018-04-21T08:51:08.000Z</Time>
            <Position>
              <LatitudeDegrees>43.28832040540874004364013671875</LatitudeDegrees>
              <LongitudeDegrees>-8.36020552553236484527587890625</LongitudeDegrees>
            </Position>
            <AltitudeMeters>-1.7999999523162841796875</AltitudeMeters>
            <DistanceMeters>14935.458852447</DistanceMeters>
          </Trackpoint>
          <Trackpoint>
            <Time>2018-04-21T08:51:10.000Z</Time>
            <Position>
              <LatitudeDegrees>43.28822820447385311126708984375</LatitudeDegrees>
              <LongitudeDegrees>-8.36018440313637256622314453125</LongitudeDegrees>
            </Position>
            <AltitudeMeters>-1.39999997615814208984375</AltitudeMeters>
            <DistanceMeters>14945.862433381</DistanceMeters>
          </Trackpoint>
          <Trackpoint>
            <Time>2018-04-21T08:51:14.000Z</Time>
            <Position>
              <LatitudeDegrees>43.28806358389556407928466796875</LatitudeDegrees>
              <LongitudeDegrees>-8.36015154607594013214111328125</LongitudeDegrees>
            </Position>
            <AltitudeMeters>-4.400000095367431640625</AltitudeMeters>
            <DistanceMeters>14964.37752971</DistanceMeters>
          </Trackpoint>
          <Trackpoint>
            <Time>2018-04-21T08:51:15.000Z</Time>
            <Position>
              <LatitudeDegrees>43.28802837990224361419677734375</LatitudeDegrees>
              <LongitudeDegrees>-8.360136039555072784423828125</LongitudeDegrees>
            </Position>
            <AltitudeMeters>-1.39999997615814208984375</AltitudeMeters>
            <DistanceMeters>14968.492307144</DistanceMeters>
          </Trackpoint>
          <Trackpoint>
            <Time>2018-04-21T08:51:17.000Z</Time>
            <Position>
              <LatitudeDegrees>43.2879526913166046142578125</LatitudeDegrees>
              <LongitudeDegrees>-8.36011600680649280548095703125</LongitudeDegrees>
            </Position>
            <AltitudeMeters>4.19999980926513671875</AltitudeMeters>
            <DistanceMeters>14977.071067137</DistanceMeters>
          </Trackpoint>
          <Trackpoint>
            <Time>2018-04-21T08:51:18.000Z</Time>
            <Position>
              <LatitudeDegrees>43.28791773878037929534912109375</LatitudeDegrees>
              <LongitudeDegrees>-8.36010075174272060394287109375</LongitudeDegrees>
            </Position>
            <AltitudeMeters>0.20000000298023223876953125</AltitudeMeters>
            <DistanceMeters>14981.151687306</DistanceMeters>
          </Trackpoint>
          <Trackpoint>
            <Time>2018-04-21T08:51:21.000Z</Time>
            <Position>
              <LatitudeDegrees>43.28781128861010074615478515625</LatitudeDegrees>
              <LongitudeDegrees>-8.36004124023020267486572265625</LongitudeDegrees>
            </Position>
            <AltitudeMeters>1.39999997615814208984375</AltitudeMeters>
            <DistanceMeters>14993.943285531</DistanceMeters>
          </Trackpoint>
          <Trackpoint>
            <Time>2018-04-21T08:51:22.000Z</Time>
            <Position>
              <LatitudeDegrees>43.2877748273313045501708984375</LatitudeDegrees>
              <LongitudeDegrees>-8.36002514697611331939697265625</LongitudeDegrees>
            </Position>
            <AltitudeMeters>1.39999997615814208984375</AltitudeMeters>
            <DistanceMeters>14998.205739496</DistanceMeters>
          </Trackpoint>
          <Trackpoint>
            <Time>2018-04-21T08:51:23.000Z</Time>
            <Position>
              <LatitudeDegrees>43.28773836605250835418701171875</LatitudeDegrees>
              <LongitudeDegrees>-8.36001391522586345672607421875</LongitudeDegrees>
            </Position>
            <AltitudeMeters>1.60000002384185791015625</AltitudeMeters>
            <DistanceMeters>15002.365261881</DistanceMeters>
          </Trackpoint>
          <Trackpoint>
            <Time>2018-04-21T08:51:26.000Z</Time>
            <Position>
              <LatitudeDegrees>43.2876514457166194915771484375</LatitudeDegrees>
              <LongitudeDegrees>-8.35997485555708408355712890625</LongitudeDegrees>
            </Position>
            <AltitudeMeters>1.7999999523162841796875</AltitudeMeters>
            <DistanceMeters>15012.544659073</DistanceMeters>
          </Trackpoint>
          <Trackpoint>
            <Time>2018-04-21T08:51:27.000Z</Time>
            <Position>
              <LatitudeDegrees>43.28762940131127834320068359375</LatitudeDegrees>
              <LongitudeDegrees>-8.35995540954172611236572265625</LongitudeDegrees>
            </Position>
            <AltitudeMeters>2.2000000476837158203125</AltitudeMeters>
            <DistanceMeters>15015.462768407</DistanceMeters>
          </Trackpoint>
          <Trackpoint>
            <Time>2018-04-21T08:51:29.000Z</Time>
            <Position>
              <LatitudeDegrees>43.2875810377299785614013671875</LatitudeDegrees>
              <LongitudeDegrees>-8.3598998375236988067626953125</LongitudeDegrees>
            </Position>
            <AltitudeMeters>2.599999904632568359375</AltitudeMeters>
            <DistanceMeters>15022.480605462</DistanceMeters>
          </Trackpoint>
          <Trackpoint>
            <Time>2018-04-21T08:51:33.000Z</Time>
            <Position>
              <LatitudeDegrees>43.28748221509158611297607421875</LatitudeDegrees>
              <LongitudeDegrees>-8.3597523160278797149658203125</LongitudeDegrees>
            </Position>
            <AltitudeMeters>3</AltitudeMeters>
            <DistanceMeters>15038.723781676</DistanceMeters>
          </Trackpoint>
          <Trackpoint>
            <Time>2018-04-21T08:51:36.000Z</Time>
            <Position>
              <LatitudeDegrees>43.287411220371723175048828125</LatitudeDegrees>
              <LongitudeDegrees>-8.35963354445993900299072265625</LongitudeDegrees>
            </Position>
            <AltitudeMeters>3.599999904632568359375</AltitudeMeters>
            <DistanceMeters>15051.175545107</DistanceMeters>
          </Trackpoint>
          <Trackpoint>
            <Time>2018-04-21T08:51:40.000Z</Time>
            <Position>
              <LatitudeDegrees>43.28732706606388092041015625</LatitudeDegrees>
              <LongitudeDegrees>-8.35950932465493679046630859375</LongitudeDegrees>
            </Position>
            <AltitudeMeters>4.400000095367431640625</AltitudeMeters>
            <DistanceMeters>15064.924239235</DistanceMeters>
          </Trackpoint>
          <Trackpoint>
            <Time>2018-04-21T08:51:41.000Z</Time>
            <Position>
              <LatitudeDegrees>43.2873047702014446258544921875</LatitudeDegrees>
              <LongitudeDegrees>-8.35948317311704158782958984375</LongitudeDegrees>
            </Position>
            <AltitudeMeters>4.80000019073486328125</AltitudeMeters>
            <DistanceMeters>15068.18851407</DistanceMeters>
          </Trackpoint>
          <Trackpoint>
            <Time>2018-04-21T08:51:45.000Z</Time>
            <Position>
              <LatitudeDegrees>43.2872179336845874786376953125</LatitudeDegrees>
              <LongitudeDegrees>-8.35946037434041500091552734375</LongitudeDegrees>
            </Position>
            <AltitudeMeters>6</AltitudeMeters>
            <DistanceMeters>15078.028712732</DistanceMeters>
          </Trackpoint>
          <Trackpoint>
            <Time>2018-04-21T08:51:48.000Z</Time>
            <Position>
              <LatitudeDegrees>43.28716454096138477325439453125</LatitudeDegrees>
              <LongitudeDegrees>-8.35950337350368499755859375</LongitudeDegrees>
            </Position>
            <AltitudeMeters>6.400000095367431640625</AltitudeMeters>
            <DistanceMeters>15084.91733028</DistanceMeters>
          </Trackpoint>
          <Trackpoint>
            <Time>2018-04-21T08:51:50.000Z</Time>
            <Position>
              <LatitudeDegrees>43.2871421612799167633056640625</LatitudeDegrees>
              <LongitudeDegrees>-8.3595618791878223419189453125</LongitudeDegrees>
            </Position>
            <AltitudeMeters>6.80000019073486328125</AltitudeMeters>
            <DistanceMeters>15090.271813701</DistanceMeters>
          </Trackpoint>
          <Trackpoint>
            <Time>2018-04-21T08:51:51.000Z</Time>
            <Position>
              <LatitudeDegrees>43.287132270634174346923828125</LatitudeDegrees>
              <LongitudeDegrees>-8.35958794690668582916259765625</LongitudeDegrees>
            </Position>
            <AltitudeMeters>7.19999980926513671875</AltitudeMeters>
            <DistanceMeters>15092.653176338</DistanceMeters>
          </Trackpoint>
          <Trackpoint>
            <Time>2018-04-21T08:51:56.000Z</Time>
            <Position>
              <LatitudeDegrees>43.28711139969527721405029296875</LatitudeDegrees>
              <LongitudeDegrees>-8.359788022935390472412109375</LongitudeDegrees>
            </Position>
            <AltitudeMeters>8</AltitudeMeters>
            <DistanceMeters>15109.028680912</DistanceMeters>
          </Trackpoint>
          <Trackpoint>
            <Time>2018-04-21T08:51:57.000Z</Time>
            <Position>
              <LatitudeDegrees>43.28711475245654582977294921875</LatitudeDegrees>
              <LongitudeDegrees>-8.35982884280383586883544921875</LongitudeDegrees>
            </Position>
            <AltitudeMeters>8.19999980926513671875</AltitudeMeters>
            <DistanceMeters>15112.358685999</DistanceMeters>
          </Trackpoint>
          <Trackpoint>
            <Time>2018-04-21T08:52:02.000Z</Time>
            <Position>
              <LatitudeDegrees>43.28714207746088504791259765625</LatitudeDegrees>
              <LongitudeDegrees>-8.36003445088863372802734375</LongitudeDegrees>
            </Position>
            <AltitudeMeters>9</AltitudeMeters>
            <DistanceMeters>15129.292649136</DistanceMeters>
          </Trackpoint>
          <Trackpoint>
            <Time>2018-04-21T08:52:03.000Z</Time>
            <Position>
              <LatitudeDegrees>43.28714727424085140228271484375</LatitudeDegrees>
              <LongitudeDegrees>-8.36007392965257167816162109375</LongitudeDegrees>
            </Position>
            <AltitudeMeters>9.3999996185302734375</AltitudeMeters>
            <DistanceMeters>15132.54306287</DistanceMeters>
          </Trackpoint>
          <Trackpoint>
            <Time>2018-04-21T08:52:08.000Z</Time>
            <Position>
              <LatitudeDegrees>43.2871721684932708740234375</LatitudeDegrees>
              <LongitudeDegrees>-8.36026553995907306671142578125</LongitudeDegrees>
            </Position>
            <AltitudeMeters>10.3999996185302734375</AltitudeMeters>
            <DistanceMeters>15148.312630879</DistanceMeters>
          </Trackpoint>
          <Trackpoint>
            <Time>2018-04-21T08:52:09.000Z</Time>
            <Position>
              <LatitudeDegrees>43.28717577271163463592529296875</LatitudeDegrees>
              <LongitudeDegrees>-8.3603048510849475860595703125</LongitudeDegrees>
            </Position>
            <AltitudeMeters>10.6000003814697265625</AltitudeMeters>
            <DistanceMeters>15151.523915248</DistanceMeters>
          </Trackpoint>
          <Trackpoint>
            <Time>2018-04-21T08:52:13.000Z</Time>
            <Position>
              <LatitudeDegrees>43.287218771874904632568359375</LatitudeDegrees>
              <LongitudeDegrees>-8.360466621816158294677734375</LongitudeDegrees>
            </Position>
            <AltitudeMeters>11.6000003814697265625</AltitudeMeters>
            <DistanceMeters>15165.477642646</DistanceMeters>
          </Trackpoint>
          <Trackpoint>
            <Time>2018-04-21T08:52:16.000Z</Time>
            <Position>
              <LatitudeDegrees>43.2872504554688930511474609375</LatitudeDegrees>
              <LongitudeDegrees>-8.36058019660413265228271484375</LongitudeDegrees>
            </Position>
            <AltitudeMeters>12.19999980926513671875</AltitudeMeters>
            <DistanceMeters>15175.332054961</DistanceMeters>
          </Trackpoint>
          <Trackpoint>
            <Time>2018-04-21T08:52:17.000Z</Time>
            <Position>
              <LatitudeDegrees>43.2872588373720645904541015625</LatitudeDegrees>
              <LongitudeDegrees>-8.360616825520992279052734375</LongitudeDegrees>
            </Position>
            <AltitudeMeters>12.6000003814697265625</AltitudeMeters>
            <DistanceMeters>15178.44336368</DistanceMeters>
          </Trackpoint>
          <Trackpoint>
            <Time>2018-04-21T08:52:23.000Z</Time>
            <Position>
              <LatitudeDegrees>43.28728456981480121612548828125</LatitudeDegrees>
              <LongitudeDegrees>-8.36083718575537204742431640625</LongitudeDegrees>
            </Position>
            <AltitudeMeters>13.6000003814697265625</AltitudeMeters>
            <DistanceMeters>15196.524927433</DistanceMeters>
          </Trackpoint>
          <Trackpoint>
            <Time>2018-04-21T08:52:25.000Z</Time>
            <Position>
              <LatitudeDegrees>43.287297226488590240478515625</LatitudeDegrees>
              <LongitudeDegrees>-8.3609153889119625091552734375</LongitudeDegrees>
            </Position>
            <AltitudeMeters>14</AltitudeMeters>
            <DistanceMeters>15203.016024157</DistanceMeters>
          </Trackpoint>
          <Trackpoint>
            <Time>2018-04-21T08:52:29.000Z</Time>
            <Position>
              <LatitudeDegrees>43.28732698224484920501708984375</LatitudeDegrees>
              <LongitudeDegrees>-8.36106282658874988555908203125</LongitudeDegrees>
            </Position>
            <AltitudeMeters>14.80000019073486328125</AltitudeMeters>
            <DistanceMeters>15215.411821056</DistanceMeters>
          </Trackpoint>
          <Trackpoint>
            <Time>2018-04-21T08:52:33.000Z</Time>
            <Position>
              <LatitudeDegrees>43.2873574085533618927001953125</LatitudeDegrees>
              <LongitudeDegrees>-8.361205570399761199951171875</LongitudeDegrees>
            </Position>
            <AltitudeMeters>16</AltitudeMeters>
            <DistanceMeters>15227.462991931</DistanceMeters>
          </Trackpoint>
          <Trackpoint>
            <Time>2018-04-21T08:52:35.000Z</Time>
            <Position>
              <LatitudeDegrees>43.2873865775763988494873046875</LatitudeDegrees>
              <LongitudeDegrees>-8.36127497255802154541015625</LongitudeDegrees>
            </Position>
            <AltitudeMeters>16.799999237060546875</AltitudeMeters>
            <DistanceMeters>15233.956175042</DistanceMeters>
          </Trackpoint>
          <Trackpoint>
            <Time>2018-04-21T08:52:37.000Z</Time>
            <Position>
              <LatitudeDegrees>43.28740929253399372100830078125</LatitudeDegrees>
              <LongitudeDegrees>-8.361345715820789337158203125</LongitudeDegrees>
            </Position>
            <AltitudeMeters>17</AltitudeMeters>
            <DistanceMeters>15240.221455747</DistanceMeters>
          </Trackpoint>
          <Trackpoint>
            <Time>2018-04-21T08:52:41.000Z</Time>
            <Position>
              <LatitudeDegrees>43.28745656646788120269775390625</LatitudeDegrees>
              <LongitudeDegrees>-8.36149600334465503692626953125</LongitudeDegrees>
            </Position>
            <AltitudeMeters>18.200000762939453125</AltitudeMeters>
            <DistanceMeters>15253.486109512</DistanceMeters>
          </Trackpoint>
          <Trackpoint>
            <Time>2018-04-21T08:52:42.000Z</Time>
            <Position>
              <LatitudeDegrees>43.287464864552021026611328125</LatitudeDegrees>
              <LongitudeDegrees>-8.36152969859540462493896484375</LongitudeDegrees>
            </Position>
            <AltitudeMeters>18.3999996185302734375</AltitudeMeters>
            <DistanceMeters>15256.368412467</DistanceMeters>
          </Trackpoint>
          <Trackpoint>
            <Time>2018-04-21T08:52:46.000Z</Time>
            <Position>
              <LatitudeDegrees>43.2874968834221363067626953125</LatitudeDegrees>
              <LongitudeDegrees>-8.36166649125516414642333984375</LongitudeDegrees>
            </Position>
            <AltitudeMeters>19.799999237060546875</AltitudeMeters>
            <DistanceMeters>15268.010251555</DistanceMeters>
          </Trackpoint>
          <Trackpoint>
            <Time>2018-04-21T08:52:50.000Z</Time>
            <Position>
              <LatitudeDegrees>43.287537284195423126220703125</LatitudeDegrees>
              <LongitudeDegrees>-8.3618058823049068450927734375</LongitudeDegrees>
            </Position>
            <AltitudeMeters>20.799999237060546875</AltitudeMeters>
            <DistanceMeters>15280.166244766</DistanceMeters>
          </Trackpoint>
          <Trackpoint>
            <Time>2018-04-21T08:52:51.000Z</Time>
            <Position>
              <LatitudeDegrees>43.28754759393632411956787109375</LatitudeDegrees>
              <LongitudeDegrees>-8.361841924488544464111328125</LongitudeDegrees>
            </Position>
            <AltitudeMeters>21.6000003814697265625</AltitudeMeters>
            <DistanceMeters>15283.303565808</DistanceMeters>
          </Trackpoint>
          <Trackpoint>
            <Time>2018-04-21T08:52:53.000Z</Time>
            <Position>
              <LatitudeDegrees>43.28756938688457012176513671875</LatitudeDegrees>
              <LongitudeDegrees>-8.36191643960773944854736328125</LongitudeDegrees>
            </Position>
            <AltitudeMeters>22.200000762939453125</AltitudeMeters>
            <DistanceMeters>15289.809253189</DistanceMeters>
          </Trackpoint>
          <Trackpoint>
            <Time>2018-04-21T08:52:59.000Z</Time>
            <Position>
              <LatitudeDegrees>43.287618421018123626708984375</LatitudeDegrees>
              <LongitudeDegrees>-8.362155742943286895751953125</LongitudeDegrees>
            </Position>
            <AltitudeMeters>23.200000762939453125</AltitudeMeters>
            <DistanceMeters>15309.950882078</DistanceMeters>
          </Trackpoint>
          <Trackpoint>
            <Time>2018-04-21T08:53:06.000Z</Time>
            <Position>
              <LatitudeDegrees>43.28765404410660266876220703125</LatitudeDegrees>
              <LongitudeDegrees>-8.36248573847115039825439453125</LongitudeDegrees>
            </Position>
            <AltitudeMeters>23.799999237060546875</AltitudeMeters>
            <DistanceMeters>15336.979259468</DistanceMeters>
          </Trackpoint>
          <Trackpoint>
            <Time>2018-04-21T08:53:08.000Z</Time>
            <Position>
              <LatitudeDegrees>43.2876886613667011260986328125</LatitudeDegrees>
              <LongitudeDegrees>-8.36257123388350009918212890625</LongitudeDegrees>
            </Position>
            <AltitudeMeters>24.200000762939453125</AltitudeMeters>
            <DistanceMeters>15344.905877403</DistanceMeters>
          </Trackpoint>
          <Trackpoint>
            <Time>2018-04-21T08:53:12.000Z</Time>
            <Position>
              <LatitudeDegrees>43.287773989140987396240234375</LatitudeDegrees>
              <LongitudeDegrees>-8.36270383559167385101318359375</LongitudeDegrees>
            </Position>
            <AltitudeMeters>24.6000003814697265625</AltitudeMeters>
            <DistanceMeters>15359.245153558</DistanceMeters>
          </Trackpoint>
          <Trackpoint>
            <Time>2018-04-21T08:53:15.000Z</Time>
            <Position>
              <LatitudeDegrees>43.28784028999507427215576171875</LatitudeDegrees>
              <LongitudeDegrees>-8.36279720999300479888916015625</LongitudeDegrees>
            </Position>
            <AltitudeMeters>25.3999996185302734375</AltitudeMeters>
            <DistanceMeters>15369.813217972</DistanceMeters>
          </Trackpoint>
          <Trackpoint>
            <Time>2018-04-21T08:53:21.000Z</Time>
            <Position>
              <LatitudeDegrees>43.28799669630825519561767578125</LatitudeDegrees>
              <LongitudeDegrees>-8.3629562146961688995361328125</LongitudeDegrees>
            </Position>
            <AltitudeMeters>26.3999996185302734375</AltitudeMeters>
            <DistanceMeters>15391.469720698</DistanceMeters>
          </Trackpoint>
          <Trackpoint>
            <Time>2018-04-21T08:53:22.000Z</Time>
            <Position>
              <LatitudeDegrees>43.2880282960832118988037109375</LatitudeDegrees>
              <LongitudeDegrees>-8.36298127658665180206298828125</LongitudeDegrees>
            </Position>
            <AltitudeMeters>26.799999237060546875</AltitudeMeters>
            <DistanceMeters>15395.531487514</DistanceMeters>
          </Trackpoint>
          <Trackpoint>
            <Time>2018-04-21T08:53:25.000Z</Time>
            <Position>
              <LatitudeDegrees>43.2881194911897182464599609375</LatitudeDegrees>
              <LongitudeDegrees>-8.36305193603038787841796875</LongitudeDegrees>
            </Position>
            <AltitudeMeters>28</AltitudeMeters>
            <DistanceMeters>15407.184568204</DistanceMeters>
          </Trackpoint>
          <Trackpoint>
            <Time>2018-04-21T08:53:29.000Z</Time>
            <Position>
              <LatitudeDegrees>43.28822937794029712677001953125</LatitudeDegrees>
              <LongitudeDegrees>-8.36315251886844635009765625</LongitudeDegrees>
            </Position>
            <AltitudeMeters>29</AltitudeMeters>
            <DistanceMeters>15421.881180006</DistanceMeters>
          </Trackpoint>
          <Trackpoint>
            <Time>2018-04-21T08:53:30.000Z</Time>
            <Position>
              <LatitudeDegrees>43.288252092897891998291015625</LatitudeDegrees>
              <LongitudeDegrees>-8.3631835319101810455322265625</LongitudeDegrees>
            </Position>
            <AltitudeMeters>29</AltitudeMeters>
            <DistanceMeters>15425.445631935</DistanceMeters>
          </Trackpoint>
          <Trackpoint>
            <Time>2018-04-21T08:53:35.000Z</Time>
            <Position>
              <LatitudeDegrees>43.2883337326347827911376953125</LatitudeDegrees>
              <LongitudeDegrees>-8.363378159701824188232421875</LongitudeDegrees>
            </Position>
            <AltitudeMeters>30.3999996185302734375</AltitudeMeters>
            <DistanceMeters>15443.644674322</DistanceMeters>
          </Trackpoint>
          <Trackpoint>
            <Time>2018-04-21T08:53:39.000Z</Time>
            <Position>
              <LatitudeDegrees>43.288295678794384002685546875</LatitudeDegrees>
              <LongitudeDegrees>-8.36355510167777538299560546875</LongitudeDegrees>
            </Position>
            <AltitudeMeters>31.200000762939453125</AltitudeMeters>
            <DistanceMeters>15458.592590951</DistanceMeters>
          </Trackpoint>
          <Trackpoint>
            <Time>2018-04-21T08:53:40.000Z</Time>
            <Position>
              <LatitudeDegrees>43.28827799297869205474853515625</LatitudeDegrees>
              <LongitudeDegrees>-8.36358980275690555572509765625</LongitudeDegrees>
            </Position>
            <AltitudeMeters>31.3999996185302734375</AltitudeMeters>
            <DistanceMeters>15462.025410456</DistanceMeters>
          </Trackpoint>
          <Trackpoint>
            <Time>2018-04-21T08:53:44.000Z</Time>
            <Position>
              <LatitudeDegrees>43.28817489556968212127685546875</LatitudeDegrees>
              <LongitudeDegrees>-8.363680578768253326416015625</LongitudeDegrees>
            </Position>
            <AltitudeMeters>32.40000152587890625</AltitudeMeters>
            <DistanceMeters>15475.655037473</DistanceMeters>
          </Trackpoint>
          <Trackpoint>
            <Time>2018-04-21T08:53:49.000Z</Time>
            <Position>
              <LatitudeDegrees>43.288041539490222930908203125</LatitudeDegrees>
              <LongitudeDegrees>-8.36373933590948581695556640625</LongitudeDegrees>
            </Position>
            <AltitudeMeters>33.59999847412109375</AltitudeMeters>
            <DistanceMeters>15491.242315516</DistanceMeters>
          </Trackpoint>
          <Trackpoint>
            <Time>2018-04-21T08:53:50.000Z</Time>
            <Position>
              <LatitudeDegrees>43.28802066855132579803466796875</LatitudeDegrees>
              <LongitudeDegrees>-8.36375107057392597198486328125</LongitudeDegrees>
            </Position>
            <AltitudeMeters>33.799999237060546875</AltitudeMeters>
            <DistanceMeters>15493.752891816</DistanceMeters>
          </Trackpoint>
          <Trackpoint>
            <Time>2018-04-21T08:53:53.000Z</Time>
            <Position>
              <LatitudeDegrees>43.2879609055817127227783203125</LatitudeDegrees>
              <LongitudeDegrees>-8.36379549466073513031005859375</LongitudeDegrees>
            </Position>
            <AltitudeMeters>35</AltitudeMeters>
            <DistanceMeters>15501.315728863</DistanceMeters>
          </Trackpoint>
          <Trackpoint>
            <Time>2018-04-21T08:53:57.000Z</Time>
            <Position>
              <LatitudeDegrees>43.2879153080284595489501953125</LatitudeDegrees>
              <LongitudeDegrees>-8.36390915326774120330810546875</LongitudeDegrees>
            </Position>
            <AltitudeMeters>35.799999237060546875</AltitudeMeters>
            <DistanceMeters>15511.829823965</DistanceMeters>
          </Trackpoint>
          <Trackpoint>
            <Time>2018-04-21T08:53:58.000Z</Time>
            <Position>
              <LatitudeDegrees>43.28790851868689060211181640625</LatitudeDegrees>
              <LongitudeDegrees>-8.3639417588710784912109375</LongitudeDegrees>
            </Position>
            <AltitudeMeters>36</AltitudeMeters>
            <DistanceMeters>15514.579037305</DistanceMeters>
          </Trackpoint>
          <Trackpoint>
            <Time>2018-04-21T08:54:02.000Z</Time>
            <Position>
              <LatitudeDegrees>43.28789443708956241607666015625</LatitudeDegrees>
              <LongitudeDegrees>-8.36407075636088848114013671875</LongitudeDegrees>
            </Position>
            <AltitudeMeters>37.200000762939453125</AltitudeMeters>
            <DistanceMeters>15525.147101719</DistanceMeters>
          </Trackpoint>
          <Trackpoint>
            <Time>2018-04-21T08:54:05.000Z</Time>
            <Position>
              <LatitudeDegrees>43.28790097497403621673583984375</LatitudeDegrees>
              <LongitudeDegrees>-8.36418324150145053863525390625</LongitudeDegrees>
            </Position>
            <AltitudeMeters>37.799999237060546875</AltitudeMeters>
            <DistanceMeters>15534.289442095</DistanceMeters>
          </Trackpoint>
          <Trackpoint>
            <Time>2018-04-21T08:54:06.000Z</Time>
            <Position>
              <LatitudeDegrees>43.287902735173702239990234375</LatitudeDegrees>
              <LongitudeDegrees>-8.36422028951346874237060546875</LongitudeDegrees>
            </Position>
            <AltitudeMeters>38.200000762939453125</AltitudeMeters>
            <DistanceMeters>15537.297454163</DistanceMeters>
          </Trackpoint>
          <Trackpoint>
            <Time>2018-04-21T08:54:12.000Z</Time>
            <Position>
              <LatitudeDegrees>43.287894688546657562255859375</LatitudeDegrees>
              <LongitudeDegrees>-8.36446252651512622833251953125</LongitudeDegrees>
            </Position>
            <AltitudeMeters>39.40000152587890625</AltitudeMeters>
            <DistanceMeters>15556.94363846</DistanceMeters>
          </Trackpoint>
          <Trackpoint>
            <Time>2018-04-21T08:54:18.000Z</Time>
            <Position>
              <LatitudeDegrees>43.2877912558615207672119140625</LatitudeDegrees>
              <LongitudeDegrees>-8.3646674640476703643798828125</LongitudeDegrees>
            </Position>
            <AltitudeMeters>40.59999847412109375</AltitudeMeters>
            <DistanceMeters>15577.14838285</DistanceMeters>
          </Trackpoint>
          <Trackpoint>
            <Time>2018-04-21T08:54:24.000Z</Time>
            <Position>
              <LatitudeDegrees>43.28754809685051441192626953125</LatitudeDegrees>
              <LongitudeDegrees>-8.3648253791034221649169921875</LongitudeDegrees>
            </Position>
            <AltitudeMeters>41.59999847412109375</AltitudeMeters>
            <DistanceMeters>15607.08436198</DistanceMeters>
          </Trackpoint>
          <Trackpoint>
            <Time>2018-04-21T08:54:25.000Z</Time>
            <Position>
              <LatitudeDegrees>43.2875146530568599700927734375</LatitudeDegrees>
              <LongitudeDegrees>-8.36485060863196849822998046875</LongitudeDegrees>
            </Position>
            <AltitudeMeters>41.799999237060546875</AltitudeMeters>
            <DistanceMeters>15611.331960447</DistanceMeters>
          </Trackpoint>
          <Trackpoint>
            <Time>2018-04-21T08:54:31.000Z</Time>
            <Position>
              <LatitudeDegrees>43.287298567593097686767578125</LatitudeDegrees>
              <LongitudeDegrees>-8.36492839269340038299560546875</LongitudeDegrees>
            </Position>
            <AltitudeMeters>42.40000152587890625</AltitudeMeters>
            <DistanceMeters>15636.194661084</DistanceMeters>
          </Trackpoint>
          <Trackpoint>
            <Time>2018-04-21T08:54:36.000Z</Time>
            <Position>
              <LatitudeDegrees>43.2871052809059619903564453125</LatitudeDegrees>
              <LongitudeDegrees>-8.36495739407837390899658203125</LongitudeDegrees>
            </Position>
            <AltitudeMeters>42.799999237060546875</AltitudeMeters>
            <DistanceMeters>15657.835730482</DistanceMeters>
          </Trackpoint>
          <Trackpoint>
            <Time>2018-04-21T08:54:39.000Z</Time>
            <Position>
              <LatitudeDegrees>43.2869829051196575164794921875</LatitudeDegrees>
              <LongitudeDegrees>-8.3649837970733642578125</LongitudeDegrees>
            </Position>
            <AltitudeMeters>43.200000762939453125</AltitudeMeters>
            <DistanceMeters>15671.623448542</DistanceMeters>
          </Trackpoint>
          <Trackpoint>
            <Time>2018-04-21T08:54:44.000Z</Time>
            <Position>
              <LatitudeDegrees>43.28677528537809848785400390625</LatitudeDegrees>
              <LongitudeDegrees>-8.3650496788322925567626953125</LongitudeDegrees>
            </Position>
            <AltitudeMeters>43.799999237060546875</AltitudeMeters>
            <DistanceMeters>15695.340372705</DistanceMeters>
          </Trackpoint>
          <Trackpoint>
            <Time>2018-04-21T08:54:45.000Z</Time>
            <Position>
              <LatitudeDegrees>43.28673505224287509918212890625</LatitudeDegrees>
              <LongitudeDegrees>-8.3650681190192699432373046875</LongitudeDegrees>
            </Position>
            <AltitudeMeters>44</AltitudeMeters>
            <DistanceMeters>15700.06120194</DistanceMeters>
          </Trackpoint>
          <Trackpoint>
            <Time>2018-04-21T08:54:46.000Z</Time>
            <Position>
              <LatitudeDegrees>43.28669196926057338714599609375</LatitudeDegrees>
              <LongitudeDegrees>-8.3650899119675159454345703125</LongitudeDegrees>
            </Position>
            <AltitudeMeters>44.200000762939453125</AltitudeMeters>
            <DistanceMeters>15705.171483838</DistanceMeters>
          </Trackpoint>
          <Trackpoint>
            <Time>2018-04-21T08:54:52.000Z</Time>
            <Position>
              <LatitudeDegrees>43.28647814691066741943359375</LatitudeDegrees>
              <LongitudeDegrees>-8.3651861362159252166748046875</LongitudeDegrees>
            </Position>
            <AltitudeMeters>45</AltitudeMeters>
            <DistanceMeters>15730.214584069</DistanceMeters>
          </Trackpoint>
          <Trackpoint>
            <Time>2018-04-21T08:54:53.000Z</Time>
            <Position>
              <LatitudeDegrees>43.286441601812839508056640625</LatitudeDegrees>
              <LongitudeDegrees>-8.36519828997552394866943359375</LongitudeDegrees>
            </Position>
            <AltitudeMeters>45.200000762939453125</AltitudeMeters>
            <DistanceMeters>15734.400076668</DistanceMeters>
          </Trackpoint>
          <Trackpoint>
            <Time>2018-04-21T08:54:58.000Z</Time>
            <Position>
              <LatitudeDegrees>43.28623448498547077178955078125</LatitudeDegrees>
              <LongitudeDegrees>-8.36524589918553829193115234375</LongitudeDegrees>
            </Position>
            <AltitudeMeters>46.200000762939453125</AltitudeMeters>
            <DistanceMeters>15757.773171558</DistanceMeters>
          </Trackpoint>
          <Trackpoint>
            <Time>2018-04-21T08:54:59.000Z</Time>
            <Position>
              <LatitudeDegrees>43.28619307838380336761474609375</LatitudeDegrees>
              <LongitudeDegrees>-8.3652555383741855621337890625</LongitudeDegrees>
            </Position>
            <AltitudeMeters>46.40000152587890625</AltitudeMeters>
            <DistanceMeters>15762.447867804</DistanceMeters>
          </Trackpoint>
          <Trackpoint>
            <Time>2018-04-21T08:55:02.000Z</Time>
            <Position>
              <LatitudeDegrees>43.28607388772070407867431640625</LatitudeDegrees>
              <LongitudeDegrees>-8.36528730578720569610595703125</LongitudeDegrees>
            </Position>
            <AltitudeMeters>47.200000762939453125</AltitudeMeters>
            <DistanceMeters>15775.961054173</DistanceMeters>
          </Trackpoint>
          <Trackpoint>
            <Time>2018-04-21T08:55:05.000Z</Time>
            <Position>
              <LatitudeDegrees>43.28596676699817180633544921875</LatitudeDegrees>
              <LongitudeDegrees>-8.36533810012042522430419921875</LongitudeDegrees>
            </Position>
            <AltitudeMeters>47.59999847412109375</AltitudeMeters>
            <DistanceMeters>15788.574217408</DistanceMeters>
          </Trackpoint>
          <Trackpoint>
            <Time>2018-04-21T08:55:10.000Z</Time>
            <Position>
              <LatitudeDegrees>43.285784460604190826416015625</LatitudeDegrees>
              <LongitudeDegrees>-8.36542074568569660186767578125</LongitudeDegrees>
            </Position>
            <AltitudeMeters>48.40000152587890625</AltitudeMeters>
            <DistanceMeters>15809.941497652</DistanceMeters>
          </Trackpoint>
          <Trackpoint>
            <Time>2018-04-21T08:55:12.000Z</Time>
            <Position>
              <LatitudeDegrees>43.2856996357440948486328125</LatitudeDegrees>
              <LongitudeDegrees>-8.3654660917818546295166015625</LongitudeDegrees>
            </Position>
            <AltitudeMeters>48.799999237060546875</AltitudeMeters>
            <DistanceMeters>15820.072432893</DistanceMeters>
          </Trackpoint>
          <Trackpoint>
            <Time>2018-04-21T08:55:16.000Z</Time>
            <Position>
              <LatitudeDegrees>43.28551682643592357635498046875</LatitudeDegrees>
              <LongitudeDegrees>-8.365528620779514312744140625</LongitudeDegrees>
            </Position>
            <AltitudeMeters>49.40000152587890625</AltitudeMeters>
            <DistanceMeters>15841.04084776</DistanceMeters>
          </Trackpoint>
          <Trackpoint>
            <Time>2018-04-21T08:55:21.000Z</Time>
            <Position>
              <LatitudeDegrees>43.2852820493280887603759765625</LatitudeDegrees>
              <LongitudeDegrees>-8.36560246534645557403564453125</LongitudeDegrees>
            </Position>
            <AltitudeMeters>50.40000152587890625</AltitudeMeters>
            <DistanceMeters>15867.848151682</DistanceMeters>
          </Trackpoint>
          <Trackpoint>
            <Time>2018-04-21T08:55:26.000Z</Time>
            <Position>
              <LatitudeDegrees>43.28505179844796657562255859375</LatitudeDegrees>
              <LongitudeDegrees>-8.36565501987934112548828125</LongitudeDegrees>
            </Position>
            <AltitudeMeters>51.40000152587890625</AltitudeMeters>
            <DistanceMeters>15893.826967732</DistanceMeters>
          </Trackpoint>
          <Trackpoint>
            <Time>2018-04-21T08:55:28.000Z</Time>
            <Position>
              <LatitudeDegrees>43.28496295027434825897216796875</LatitudeDegrees>
              <LongitudeDegrees>-8.3656699396669864654541015625</LongitudeDegrees>
            </Position>
            <AltitudeMeters>51.799999237060546875</AltitudeMeters>
            <DistanceMeters>15903.789828781</DistanceMeters>
          </Trackpoint>
          <Trackpoint>
            <Time>2018-04-21T08:55:31.000Z</Time>
            <Position>
              <LatitudeDegrees>43.2848314382135868072509765625</LatitudeDegrees>
              <LongitudeDegrees>-8.36568326689302921295166015625</LongitudeDegrees>
            </Position>
            <AltitudeMeters>51</AltitudeMeters>
            <DistanceMeters>15918.467073197</DistanceMeters>
          </Trackpoint>
          <Trackpoint>
            <Time>2018-04-21T08:55:34.000Z</Time>
            <Position>
              <LatitudeDegrees>43.28468685038387775421142578125</LatitudeDegrees>
              <LongitudeDegrees>-8.36566080339252948760986328125</LongitudeDegrees>
            </Position>
            <AltitudeMeters>52.40000152587890625</AltitudeMeters>
            <DistanceMeters>15934.662368822</DistanceMeters>
          </Trackpoint>
          <Trackpoint>
            <Time>2018-04-21T08:55:35.000Z</Time>
            <Position>
              <LatitudeDegrees>43.28463152982294559478759765625</LatitudeDegrees>
              <LongitudeDegrees>-8.3656451292335987091064453125</LongitudeDegrees>
            </Position>
            <AltitudeMeters>51.799999237060546875</AltitudeMeters>
            <DistanceMeters>15940.949949809</DistanceMeters>
          </Trackpoint>
          <Trackpoint>
            <Time>2018-04-21T08:55:38.000Z</Time>
            <Position>
              <LatitudeDegrees>43.28448593616485595703125</LatitudeDegrees>
              <LongitudeDegrees>-8.3655321411788463592529296875</LongitudeDegrees>
            </Position>
            <AltitudeMeters>51.40000152587890625</AltitudeMeters>
            <DistanceMeters>15959.562090808</DistanceMeters>
          </Trackpoint>
          <Trackpoint>
            <Time>2018-04-21T08:55:42.000Z</Time>
            <Position>
              <LatitudeDegrees>43.28434688039124011993408203125</LatitudeDegrees>
              <LongitudeDegrees>-8.3653199113905429840087890625</LongitudeDegrees>
            </Position>
            <AltitudeMeters>52</AltitudeMeters>
            <DistanceMeters>15982.697144103</DistanceMeters>
          </Trackpoint>
          <Trackpoint>
            <Time>2018-04-21T08:55:43.000Z</Time>
            <Position>
              <LatitudeDegrees>43.28432659618556499481201171875</LatitudeDegrees>
              <LongitudeDegrees>-8.3652769960463047027587890625</LongitudeDegrees>
            </Position>
            <AltitudeMeters>52.40000152587890625</AltitudeMeters>
            <DistanceMeters>15986.843620384</DistanceMeters>
          </Trackpoint>
          <Trackpoint>
            <Time>2018-04-21T08:55:44.000Z</Time>
            <Position>
              <LatitudeDegrees>43.2843134365975856781005859375</LatitudeDegrees>
              <LongitudeDegrees>-8.365235589444637298583984375</LongitudeDegrees>
            </Position>
            <AltitudeMeters>52.799999237060546875</AltitudeMeters>
            <DistanceMeters>15990.504307948</DistanceMeters>
          </Trackpoint>
          <Trackpoint>
            <Time>2018-04-21T08:55:46.000Z</Time>
            <Position>
              <LatitudeDegrees>43.284262977540493011474609375</LatitudeDegrees>
              <LongitudeDegrees>-8.36519275791943073272705078125</LongitudeDegrees>
            </Position>
            <AltitudeMeters>53.59999847412109375</AltitudeMeters>
            <DistanceMeters>15997.105758465</DistanceMeters>
          </Trackpoint>
          <Trackpoint>
            <Time>2018-04-21T08:55:47.000Z</Time>
            <Position>
              <LatitudeDegrees>43.2842322997748851776123046875</LatitudeDegrees>
              <LongitudeDegrees>-8.36517834104597568511962890625</LongitudeDegrees>
            </Position>
            <AltitudeMeters>54</AltitudeMeters>
            <DistanceMeters>16000.714272041</DistanceMeters>
          </Trackpoint>
          <Trackpoint>
            <Time>2018-04-21T08:55:50.000Z</Time>
            <Position>
              <LatitudeDegrees>43.28412056900560855865478515625</LatitudeDegrees>
              <LongitudeDegrees>-8.3651593141257762908935546875</LongitudeDegrees>
            </Position>
            <AltitudeMeters>54.40000152587890625</AltitudeMeters>
            <DistanceMeters>16013.245193766</DistanceMeters>
          </Trackpoint>
          <Trackpoint>
            <Time>2018-04-21T08:55:51.000Z</Time>
            <Position>
              <LatitudeDegrees>43.28407865948975086212158203125</LatitudeDegrees>
              <LongitudeDegrees>-8.36515252478420734405517578125</LongitudeDegrees>
            </Position>
            <AltitudeMeters>54.40000152587890625</AltitudeMeters>
            <DistanceMeters>16017.941090558</DistanceMeters>
          </Trackpoint>
          <Trackpoint>
            <Time>2018-04-21T08:55:59.000Z</Time>
            <Position>
              <LatitudeDegrees>43.28374765813350677490234375</LatitudeDegrees>
              <LongitudeDegrees>-8.36503417231142520904541015625</LongitudeDegrees>
            </Position>
            <AltitudeMeters>55</AltitudeMeters>
            <DistanceMeters>16056.00969847</DistanceMeters>
          </Trackpoint>
          <Trackpoint>
            <Time>2018-04-21T08:56:00.000Z</Time>
            <Position>
              <LatitudeDegrees>43.283710777759552001953125</LatitudeDegrees>
              <LongitudeDegrees>-8.365017659962177276611328125</LongitudeDegrees>
            </Position>
            <AltitudeMeters>55</AltitudeMeters>
            <DistanceMeters>16060.32688248</DistanceMeters>
          </Trackpoint>
          <Trackpoint>
            <Time>2018-04-21T08:56:03.000Z</Time>
            <Position>
              <LatitudeDegrees>43.28360156156122684478759765625</LatitudeDegrees>
              <LongitudeDegrees>-8.3649846352636814117431640625</LongitudeDegrees>
            </Position>
            <AltitudeMeters>56</AltitudeMeters>
            <DistanceMeters>16072.773568444</DistanceMeters>
          </Trackpoint>
          <Trackpoint>
            <Time>2018-04-21T08:56:06.000Z</Time>
            <Position>
              <LatitudeDegrees>43.28350625932216644287109375</LatitudeDegrees>
              <LongitudeDegrees>-8.36496300995349884033203125</LongitudeDegrees>
            </Position>
            <AltitudeMeters>56.59999847412109375</AltitudeMeters>
            <DistanceMeters>16083.524613904</DistanceMeters>
          </Trackpoint>
          <Trackpoint>
            <Time>2018-04-21T08:56:08.000Z</Time>
            <Position>
              <LatitudeDegrees>43.28344322741031646728515625</LatitudeDegrees>
              <LongitudeDegrees>-8.36495186202228069305419921875</LongitudeDegrees>
            </Position>
            <AltitudeMeters>57.200000762939453125</AltitudeMeters>
            <DistanceMeters>16090.597564031</DistanceMeters>
          </Trackpoint>
          <Trackpoint>
            <Time>2018-04-21T08:56:13.000Z</Time>
            <Position>
              <LatitudeDegrees>43.283274583518505096435546875</LatitudeDegrees>
              <LongitudeDegrees>-8.36493090726435184478759765625</LongitudeDegrees>
            </Position>
            <AltitudeMeters>58.200000762939453125</AltitudeMeters>
            <DistanceMeters>16109.444502429</DistanceMeters>
          </Trackpoint>
          <Trackpoint>
            <Time>2018-04-21T08:56:17.000Z</Time>
            <Position>
              <LatitudeDegrees>43.28315480612218379974365234375</LatitudeDegrees>
              <LongitudeDegrees>-8.3648699708282947540283203125</LongitudeDegrees>
            </Position>
            <AltitudeMeters>59.40000152587890625</AltitudeMeters>
            <DistanceMeters>16123.661083276</DistanceMeters>
          </Trackpoint>
          <Trackpoint>
            <Time>2018-04-21T08:56:20.000Z</Time>
            <Position>
              <LatitudeDegrees>43.28308154828846454620361328125</LatitudeDegrees>
              <LongitudeDegrees>-8.36483015678822994232177734375</LongitudeDegrees>
            </Position>
            <AltitudeMeters>59.799999237060546875</AltitudeMeters>
            <DistanceMeters>16132.430355252</DistanceMeters>
          </Trackpoint>
          <Trackpoint>
            <Time>2018-04-21T08:56:23.000Z</Time>
            <Position>
              <LatitudeDegrees>43.28299705870449542999267578125</LatitudeDegrees>
              <LongitudeDegrees>-8.364814482629299163818359375</LongitudeDegrees>
            </Position>
            <AltitudeMeters>60.40000152587890625</AltitudeMeters>
            <DistanceMeters>16141.919713624</DistanceMeters>
          </Trackpoint>
          <Trackpoint>
            <Time>2018-04-21T08:56:26.000Z</Time>
            <Position>
              <LatitudeDegrees>43.28288532793521881103515625</LatitudeDegrees>
              <LongitudeDegrees>-8.364802412688732147216796875</LongitudeDegrees>
            </Position>
            <AltitudeMeters>61.40000152587890625</AltitudeMeters>
            <DistanceMeters>16154.39393814</DistanceMeters>
          </Trackpoint>
          <Trackpoint>
            <Time>2018-04-21T08:56:27.000Z</Time>
            <Position>
              <LatitudeDegrees>43.2828484475612640380859375</LatitudeDegrees>
              <LongitudeDegrees>-8.36479562334716320037841796875</LongitudeDegrees>
            </Position>
            <AltitudeMeters>61.40000152587890625</AltitudeMeters>
            <DistanceMeters>16158.533875952</DistanceMeters>
          </Trackpoint>
          <Trackpoint>
            <Time>2018-04-21T08:56:33.000Z</Time>
            <Position>
              <LatitudeDegrees>43.282607384026050567626953125</LatitudeDegrees>
              <LongitudeDegrees>-8.3648086152970790863037109375</LongitudeDegrees>
            </Position>
            <AltitudeMeters>61.799999237060546875</AltitudeMeters>
            <DistanceMeters>16185.385607437</DistanceMeters>
          </Trackpoint>
          <Trackpoint>
            <Time>2018-04-21T08:56:40.000Z</Time>
            <Position>
              <LatitudeDegrees>43.2822776399552822113037109375</LatitudeDegrees>
              <LongitudeDegrees>-8.36478958837687969207763671875</LongitudeDegrees>
            </Position>
            <AltitudeMeters>62.40000152587890625</AltitudeMeters>
            <DistanceMeters>16222.119302093</DistanceMeters>
          </Trackpoint>
          <Trackpoint>
            <Time>2018-04-21T08:56:41.000Z</Time>
            <Position>
              <LatitudeDegrees>43.2822307012975215911865234375</LatitudeDegrees>
              <LongitudeDegrees>-8.36478053592145442962646484375</LongitudeDegrees>
            </Position>
            <AltitudeMeters>62.799999237060546875</AltitudeMeters>
            <DistanceMeters>16227.393926773</DistanceMeters>
          </Trackpoint>
          <Trackpoint>
            <Time>2018-04-21T08:56:47.000Z</Time>
            <Position>
              <LatitudeDegrees>43.281960971653461456298828125</LatitudeDegrees>
              <LongitudeDegrees>-8.36477383039891719818115234375</LongitudeDegrees>
            </Position>
            <AltitudeMeters>63.200000762939453125</AltitudeMeters>
            <DistanceMeters>16257.420263418</DistanceMeters>
          </Trackpoint>
          <Trackpoint>
            <Time>2018-04-21T08:56:52.000Z</Time>
            <Position>
              <LatitudeDegrees>43.2816979475319385528564453125</LatitudeDegrees>
              <LongitudeDegrees>-8.3647600002586841583251953125</LongitudeDegrees>
            </Position>
            <AltitudeMeters>63.200000762939453125</AltitudeMeters>
            <DistanceMeters>16286.716862297</DistanceMeters>
          </Trackpoint>
          <Trackpoint>
            <Time>2018-04-21T08:56:53.000Z</Time>
            <Position>
              <LatitudeDegrees>43.2816456444561481475830078125</LatitudeDegrees>
              <LongitudeDegrees>-8.3647464215755462646484375</LongitudeDegrees>
            </Position>
            <AltitudeMeters>63.200000762939453125</AltitudeMeters>
            <DistanceMeters>16292.642141802</DistanceMeters>
          </Trackpoint>
          <Trackpoint>
            <Time>2018-04-21T08:56:55.000Z</Time>
            <Position>
              <LatitudeDegrees>43.2815448939800262451171875</LatitudeDegrees>
              <LongitudeDegrees>-8.3647003211081027984619140625</LongitudeDegrees>
            </Position>
            <AltitudeMeters>63.200000762939453125</AltitudeMeters>
            <DistanceMeters>16304.462181681</DistanceMeters>
          </Trackpoint>
          <Trackpoint>
            <Time>2018-04-21T08:56:58.000Z</Time>
            <Position>
              <LatitudeDegrees>43.28140365891158580780029296875</LatitudeDegrees>
              <LongitudeDegrees>-8.3645893447101116180419921875</LongitudeDegrees>
            </Position>
            <AltitudeMeters>63.200000762939453125</AltitudeMeters>
            <DistanceMeters>16322.572189313</DistanceMeters>
          </Trackpoint>
          <Trackpoint>
            <Time>2018-04-21T08:56:59.000Z</Time>
            <Position>
              <LatitudeDegrees>43.2813616655766963958740234375</LatitudeDegrees>
              <LongitudeDegrees>-8.3645457588136196136474609375</LongitudeDegrees>
            </Position>
            <AltitudeMeters>63.200000762939453125</AltitudeMeters>
            <DistanceMeters>16328.430029401</DistanceMeters>
          </Trackpoint>
          <Trackpoint>
            <Time>2018-04-21T08:57:04.000Z</Time>
            <Position>
              <LatitudeDegrees>43.2811195962131023406982421875</LatitudeDegrees>
              <LongitudeDegrees>-8.3642939664423465728759765625</LongitudeDegrees>
            </Position>
            <AltitudeMeters>62.59999847412109375</AltitudeMeters>
            <DistanceMeters>16362.226023527</DistanceMeters>
          </Trackpoint>
          <Trackpoint>
            <Time>2018-04-21T08:57:06.000Z</Time>
            <Position>
              <LatitudeDegrees>43.28099780716001987457275390625</LatitudeDegrees>
              <LongitudeDegrees>-8.36416480131447315216064453125</LongitudeDegrees>
            </Position>
            <AltitudeMeters>61.799999237060546875</AltitudeMeters>
            <DistanceMeters>16379.351672503</DistanceMeters>
          </Trackpoint>
          <Trackpoint>
            <Time>2018-04-21T08:57:09.000Z</Time>
            <Position>
              <LatitudeDegrees>43.2808019220829010009765625</LatitudeDegrees>
              <LongitudeDegrees>-8.3639888651669025421142578125</LongitudeDegrees>
            </Position>
            <AltitudeMeters>60.799999237060546875</AltitudeMeters>
            <DistanceMeters>16405.400954535</DistanceMeters>
          </Trackpoint>
          <Trackpoint>
            <Time>2018-04-21T08:57:12.000Z</Time>
            <Position>
              <LatitudeDegrees>43.2805801369249820709228515625</LatitudeDegrees>
              <LongitudeDegrees>-8.363869003951549530029296875</LongitudeDegrees>
            </Position>
            <AltitudeMeters>60</AltitudeMeters>
            <DistanceMeters>16431.928049495</DistanceMeters>
          </Trackpoint>
          <Trackpoint>
            <Time>2018-04-21T08:57:14.000Z</Time>
            <Position>
              <LatitudeDegrees>43.2804359681904315948486328125</LatitudeDegrees>
              <LongitudeDegrees>-8.3638183772563934326171875</LongitudeDegrees>
            </Position>
            <AltitudeMeters>60</AltitudeMeters>
            <DistanceMeters>16448.490254425</DistanceMeters>
          </Trackpoint>
          <Trackpoint>
            <Time>2018-04-21T08:57:18.000Z</Time>
            <Position>
              <LatitudeDegrees>43.2801742851734161376953125</LatitudeDegrees>
              <LongitudeDegrees>-8.363725841045379638671875</LongitudeDegrees>
            </Position>
            <AltitudeMeters>59.59999847412109375</AltitudeMeters>
            <DistanceMeters>16478.565571501</DistanceMeters>
          </Trackpoint>
          <Trackpoint>
            <Time>2018-04-21T08:57:20.000Z</Time>
            <Position>
              <LatitudeDegrees>43.28004679642617702484130859375</LatitudeDegrees>
              <LongitudeDegrees>-8.3636639825999736785888671875</LongitudeDegrees>
            </Position>
            <AltitudeMeters>59.40000152587890625</AltitudeMeters>
            <DistanceMeters>16493.614035113</DistanceMeters>
          </Trackpoint>
          <Trackpoint>
            <Time>2018-04-21T08:57:25.000Z</Time>
            <Position>
              <LatitudeDegrees>43.27972778119146823883056640625</LatitudeDegrees>
              <LongitudeDegrees>-8.3635298721492290496826171875</LongitudeDegrees>
            </Position>
            <AltitudeMeters>59.40000152587890625</AltitudeMeters>
            <DistanceMeters>16530.746628107</DistanceMeters>
          </Trackpoint>
          <Trackpoint>
            <Time>2018-04-21T08:57:26.000Z</Time>
            <Position>
              <LatitudeDegrees>43.279659636318683624267578125</LatitudeDegrees>
              <LongitudeDegrees>-8.36352341808378696441650390625</LongitudeDegrees>
            </Position>
            <AltitudeMeters>59.40000152587890625</AltitudeMeters>
            <DistanceMeters>16538.348765256</DistanceMeters>
          </Trackpoint>
          <Trackpoint>
            <Time>2018-04-21T08:57:30.000Z</Time>
            <Position>
              <LatitudeDegrees>43.279408849775791168212890625</LatitudeDegrees>
              <LongitudeDegrees>-8.3635067380964756011962890625</LongitudeDegrees>
            </Position>
            <AltitudeMeters>59</AltitudeMeters>
            <DistanceMeters>16566.294537052</DistanceMeters>
          </Trackpoint>
          <Trackpoint>
            <Time>2018-04-21T08:57:33.000Z</Time>
            <Position>
              <LatitudeDegrees>43.27925520949065685272216796875</LatitudeDegrees>
              <LongitudeDegrees>-8.36351252160966396331787109375</LongitudeDegrees>
            </Position>
            <AltitudeMeters>58.200000762939453125</AltitudeMeters>
            <DistanceMeters>16583.401457213</DistanceMeters>
          </Trackpoint>
          <Trackpoint>
            <Time>2018-04-21T08:57:36.000Z</Time>
            <Position>
              <LatitudeDegrees>43.27915169298648834228515625</LatitudeDegrees>
              <LongitudeDegrees>-8.36354906670749187469482421875</LongitudeDegrees>
            </Position>
            <AltitudeMeters>58.59999847412109375</AltitudeMeters>
            <DistanceMeters>16595.297648117</DistanceMeters>
          </Trackpoint>
          <Trackpoint>
            <Time>2018-04-21T08:57:40.000Z</Time>
            <Position>
              <LatitudeDegrees>43.279020600020885467529296875</LatitudeDegrees>
              <LongitudeDegrees>-8.36355191655457019805908203125</LongitudeDegrees>
            </Position>
            <AltitudeMeters>59</AltitudeMeters>
            <DistanceMeters>16609.890670175</DistanceMeters>
          </Trackpoint>
          <Trackpoint>
            <Time>2018-04-21T08:57:41.000Z</Time>
            <Position>
              <LatitudeDegrees>43.27898045070469379425048828125</LatitudeDegrees>
              <LongitudeDegrees>-8.363547138869762420654296875</LongitudeDegrees>
            </Position>
            <AltitudeMeters>59</AltitudeMeters>
            <DistanceMeters>16614.376092153</DistanceMeters>
          </Trackpoint>
          <Trackpoint>
            <Time>2018-04-21T08:57:42.000Z</Time>
            <Position>
              <LatitudeDegrees>43.27893753536045551300048828125</LatitudeDegrees>
              <LongitudeDegrees>-8.36355619132518768310546875</LongitudeDegrees>
            </Position>
            <AltitudeMeters>59.200000762939453125</AltitudeMeters>
            <DistanceMeters>16619.208459863</DistanceMeters>
          </Trackpoint>
          <Trackpoint>
            <Time>2018-04-21T08:57:43.000Z</Time>
            <Position>
              <LatitudeDegrees>43.2788948714733123779296875</LatitudeDegrees>
              <LongitudeDegrees>-8.363573290407657623291015625</LongitudeDegrees>
            </Position>
            <AltitudeMeters>59.40000152587890625</AltitudeMeters>
            <DistanceMeters>16624.156240905</DistanceMeters>
          </Trackpoint>
          <Trackpoint>
            <Time>2018-04-21T08:57:45.000Z</Time>
            <Position>
              <LatitudeDegrees>43.27881130389869213104248046875</LatitudeDegrees>
              <LongitudeDegrees>-8.36364805698394775390625</LongitudeDegrees>
            </Position>
            <AltitudeMeters>59.799999237060546875</AltitudeMeters>
            <DistanceMeters>16635.256890577</DistanceMeters>
          </Trackpoint>
          <Trackpoint>
            <Time>2018-04-21T08:57:49.000Z</Time>
            <Position>
              <LatitudeDegrees>43.27867417596280574798583984375</LatitudeDegrees>
              <LongitudeDegrees>-8.36386062204837799072265625</LongitudeDegrees>
            </Position>
            <AltitudeMeters>60.200000762939453125</AltitudeMeters>
            <DistanceMeters>16658.270626554</DistanceMeters>
          </Trackpoint>
          <Trackpoint>
            <Time>2018-04-21T08:57:50.000Z</Time>
            <Position>
              <LatitudeDegrees>43.27863872051239013671875</LatitudeDegrees>
              <LongitudeDegrees>-8.36391284130513668060302734375</LongitudeDegrees>
            </Position>
            <AltitudeMeters>60.200000762939453125</AltitudeMeters>
            <DistanceMeters>16664.057121473</DistanceMeters>
          </Trackpoint>
          <Trackpoint>
            <Time>2018-04-21T08:57:54.000Z</Time>
            <Position>
              <LatitudeDegrees>43.27846446074545383453369140625</LatitudeDegrees>
              <LongitudeDegrees>-8.36408752016723155975341796875</LongitudeDegrees>
            </Position>
            <AltitudeMeters>60</AltitudeMeters>
            <DistanceMeters>16688.068249323</DistanceMeters>
          </Trackpoint>
          <Trackpoint>
            <Time>2018-04-21T08:57:56.000Z</Time>
            <Position>
              <LatitudeDegrees>43.2783629558980464935302734375</LatitudeDegrees>
              <LongitudeDegrees>-8.36415574885904788970947265625</LongitudeDegrees>
            </Position>
            <AltitudeMeters>59.799999237060546875</AltitudeMeters>
            <DistanceMeters>16700.646283323</DistanceMeters>
          </Trackpoint>
          <Trackpoint>
            <Time>2018-04-21T08:57:57.000Z</Time>
            <Position>
              <LatitudeDegrees>43.2783089764416217803955078125</LatitudeDegrees>
              <LongitudeDegrees>-8.3641739375889301300048828125</LongitudeDegrees>
            </Position>
            <AltitudeMeters>59.799999237060546875</AltitudeMeters>
            <DistanceMeters>16706.83324494</DistanceMeters>
          </Trackpoint>
          <Trackpoint>
            <Time>2018-04-21T08:58:01.000Z</Time>
            <Position>
              <LatitudeDegrees>43.2780955731868743896484375</LatitudeDegrees>
              <LongitudeDegrees>-8.36426739580929279327392578125</LongitudeDegrees>
            </Position>
            <AltitudeMeters>59.799999237060546875</AltitudeMeters>
            <DistanceMeters>16731.763589933</DistanceMeters>
          </Trackpoint>
          <Trackpoint>
            <Time>2018-04-21T08:58:02.000Z</Time>
            <Position>
              <LatitudeDegrees>43.2780404202640056610107421875</LatitudeDegrees>
              <LongitudeDegrees>-8.3642743527889251708984375</LongitudeDegrees>
            </Position>
            <AltitudeMeters>60</AltitudeMeters>
            <DistanceMeters>16737.927887271</DistanceMeters>
          </Trackpoint>
          <Trackpoint>
            <Time>2018-04-21T08:58:05.000Z</Time>
            <Position>
              <LatitudeDegrees>43.27787688933312892913818359375</LatitudeDegrees>
              <LongitudeDegrees>-8.36430394090712070465087890625</LongitudeDegrees>
            </Position>
            <AltitudeMeters>60.59999847412109375</AltitudeMeters>
            <DistanceMeters>16756.2864976</DistanceMeters>
          </Trackpoint>
          <Trackpoint>
            <Time>2018-04-21T08:58:07.000Z</Time>
            <Position>
              <LatitudeDegrees>43.27777278609573841094970703125</LatitudeDegrees>
              <LongitudeDegrees>-8.36433269083499908447265625</LongitudeDegrees>
            </Position>
            <AltitudeMeters>60.799999237060546875</AltitudeMeters>
            <DistanceMeters>16768.105391478</DistanceMeters>
          </Trackpoint>
          <Trackpoint>
            <Time>2018-04-21T08:58:12.000Z</Time>
            <Position>
              <LatitudeDegrees>43.2775242626667022705078125</LatitudeDegrees>
              <LongitudeDegrees>-8.3643472753465175628662109375</LongitudeDegrees>
            </Position>
            <AltitudeMeters>61.799999237060546875</AltitudeMeters>
            <DistanceMeters>16795.791942892</DistanceMeters>
          </Trackpoint>
          <Trackpoint>
            <Time>2018-04-21T08:58:14.000Z</Time>
            <Position>
              <LatitudeDegrees>43.27743365429341793060302734375</LatitudeDegrees>
              <LongitudeDegrees>-8.36433830671012401580810546875</LongitudeDegrees>
            </Position>
            <AltitudeMeters>61.799999237060546875</AltitudeMeters>
            <DistanceMeters>16805.903249707</DistanceMeters>
          </Trackpoint>
          <Trackpoint>
            <Time>2018-04-21T08:58:15.000Z</Time>
            <Position>
              <LatitudeDegrees>43.27738721854984760284423828125</LatitudeDegrees>
              <LongitudeDegrees>-8.3643127419054508209228515625</LongitudeDegrees>
            </Position>
            <AltitudeMeters>62.200000762939453125</AltitudeMeters>
            <DistanceMeters>16811.471847601</DistanceMeters>
          </Trackpoint>
          <Trackpoint>
            <Time>2018-04-21T08:58:18.000Z</Time>
            <Position>
              <LatitudeDegrees>43.277257047593593597412109375</LatitudeDegrees>
              <LongitudeDegrees>-8.36423470638692378997802734375</LongitudeDegrees>
            </Position>
            <AltitudeMeters>62.59999847412109375</AltitudeMeters>
            <DistanceMeters>16827.280020661</DistanceMeters>
          </Trackpoint>
          <Trackpoint>
            <Time>2018-04-21T08:58:19.000Z</Time>
            <Position>
              <LatitudeDegrees>43.27720801346004009246826171875</LatitudeDegrees>
              <LongitudeDegrees>-8.36421408690512180328369140625</LongitudeDegrees>
            </Position>
            <AltitudeMeters>62.799999237060546875</AltitudeMeters>
            <DistanceMeters>16832.987955122</DistanceMeters>
          </Trackpoint>
          <Trackpoint>
            <Time>2018-04-21T08:58:21.000Z</Time>
            <Position>
              <LatitudeDegrees>43.2771174050867557525634765625</LatitudeDegrees>
              <LongitudeDegrees>-8.36416211910545825958251953125</LongitudeDegrees>
            </Position>
            <AltitudeMeters>63.59999847412109375</AltitudeMeters>
            <DistanceMeters>16843.917266683</DistanceMeters>
          </Trackpoint>
          <Trackpoint>
            <Time>2018-04-21T08:58:23.000Z</Time>
            <Position>
              <LatitudeDegrees>43.27702947892248630523681640625</LatitudeDegrees>
              <LongitudeDegrees>-8.36411350406706333160400390625</LongitudeDegrees>
            </Position>
            <AltitudeMeters>63.799999237060546875</AltitudeMeters>
            <DistanceMeters>16854.466516045</DistanceMeters>
          </Trackpoint>
          <Trackpoint>
            <Time>2018-04-21T08:58:25.000Z</Time>
            <Position>
              <LatitudeDegrees>43.2769353501498699188232421875</LatitudeDegrees>
              <LongitudeDegrees>-8.36406103335320949554443359375</LongitudeDegrees>
            </Position>
            <AltitudeMeters>63.59999847412109375</AltitudeMeters>
            <DistanceMeters>16865.773497176</DistanceMeters>
          </Trackpoint>
          <Trackpoint>
            <Time>2018-04-21T08:58:29.000Z</Time>
            <Position>
              <LatitudeDegrees>43.2767408899962902069091796875</LatitudeDegrees>
              <LongitudeDegrees>-8.363976292312145233154296875</LongitudeDegrees>
            </Position>
            <AltitudeMeters>64.40000152587890625</AltitudeMeters>
            <DistanceMeters>16888.480706713</DistanceMeters>
          </Trackpoint>
          <Trackpoint>
            <Time>2018-04-21T08:58:32.000Z</Time>
            <Position>
              <LatitudeDegrees>43.2765801250934600830078125</LatitudeDegrees>
              <LongitudeDegrees>-8.36395810358226299285888671875</LongitudeDegrees>
            </Position>
            <AltitudeMeters>64.8000030517578125</AltitudeMeters>
            <DistanceMeters>16906.434972749</DistanceMeters>
          </Trackpoint>
          <Trackpoint>
            <Time>2018-04-21T08:58:33.000Z</Time>
            <Position>
              <LatitudeDegrees>43.27652589417994022369384765625</LatitudeDegrees>
              <LongitudeDegrees>-8.3639551699161529541015625</LongitudeDegrees>
            </Position>
            <AltitudeMeters>65</AltitudeMeters>
            <DistanceMeters>16912.474965202</DistanceMeters>
          </Trackpoint>
          <Trackpoint>
            <Time>2018-04-21T08:58:39.000Z</Time>
            <Position>
              <LatitudeDegrees>43.27623839490115642547607421875</LatitudeDegrees>
              <LongitudeDegrees>-8.36392491124570369720458984375</LongitudeDegrees>
            </Position>
            <AltitudeMeters>65.59999847412109375</AltitudeMeters>
            <DistanceMeters>16944.567978291</DistanceMeters>
          </Trackpoint>
          <Trackpoint>
            <Time>2018-04-21T08:58:42.000Z</Time>
            <Position>
              <LatitudeDegrees>43.27617041766643524169921875</LatitudeDegrees>
              <LongitudeDegrees>-8.3638540841639041900634765625</LongitudeDegrees>
            </Position>
            <AltitudeMeters>66.40000152587890625</AltitudeMeters>
            <DistanceMeters>16954.063995528</DistanceMeters>
          </Trackpoint>
          <Trackpoint>
            <Time>2018-04-21T08:58:43.000Z</Time>
            <Position>
              <LatitudeDegrees>43.27615759335458278656005859375</LatitudeDegrees>
              <LongitudeDegrees>-8.3638188801705837249755859375</LongitudeDegrees>
            </Position>
            <AltitudeMeters>67.1999969482421875</AltitudeMeters>
            <DistanceMeters>16957.252704683</DistanceMeters>
          </Trackpoint>
          <Trackpoint>
            <Time>2018-04-21T08:58:48.000Z</Time>
            <Position>
              <LatitudeDegrees>43.276103697717189788818359375</LatitudeDegrees>
              <LongitudeDegrees>-8.36370664648711681365966796875</LongitudeDegrees>
            </Position>
            <AltitudeMeters>67</AltitudeMeters>
            <DistanceMeters>16968.147673929</DistanceMeters>
          </Trackpoint>
          <Trackpoint>
            <Time>2018-04-21T08:58:49.000Z</Time>
            <Position>
              <LatitudeDegrees>43.27609623782336711883544921875</LatitudeDegrees>
              <LongitudeDegrees>-8.3636897988617420196533203125</LongitudeDegrees>
            </Position>
            <AltitudeMeters>67.40000152587890625</AltitudeMeters>
            <DistanceMeters>16969.743443823</DistanceMeters>
          </Trackpoint>
          <Trackpoint>
            <Time>2018-04-21T08:58:52.000Z</Time>
            <Position>
              <LatitudeDegrees>43.27606773935258388519287109375</LatitudeDegrees>
              <LongitudeDegrees>-8.36365987546741962432861328125</LongitudeDegrees>
            </Position>
            <AltitudeMeters>67.8000030517578125</AltitudeMeters>
            <DistanceMeters>16973.734565827</DistanceMeters>
          </Trackpoint>
          <Trackpoint>
            <Time>2018-04-21T08:58:54.000Z</Time>
            <Position>
              <LatitudeDegrees>43.27602935023605823516845703125</LatitudeDegrees>
              <LongitudeDegrees>-8.36365400813519954681396484375</LongitudeDegrees>
            </Position>
            <AltitudeMeters>68</AltitudeMeters>
            <DistanceMeters>16978.032883684</DistanceMeters>
          </Trackpoint>
          <Trackpoint>
            <Time>2018-04-21T08:58:57.000Z</Time>
            <Position>
              <LatitudeDegrees>43.27593413181602954864501953125</LatitudeDegrees>
              <LongitudeDegrees>-8.36368133313953876495361328125</LongitudeDegrees>
            </Position>
            <AltitudeMeters>68.40000152587890625</AltitudeMeters>
            <DistanceMeters>16988.85967556</DistanceMeters>
          </Trackpoint>
          <Trackpoint>
            <Time>2018-04-21T08:58:59.000Z</Time>
            <Position>
              <LatitudeDegrees>43.27586623840034008026123046875</LatitudeDegrees>
              <LongitudeDegrees>-8.36369876749813556671142578125</LongitudeDegrees>
            </Position>
            <AltitudeMeters>68.59999847412109375</AltitudeMeters>
            <DistanceMeters>16996.546861017</DistanceMeters>
          </Trackpoint>
          <Trackpoint>
            <Time>2018-04-21T08:59:06.000Z</Time>
            <Position>
              <LatitudeDegrees>43.275602124631404876708984375</LatitudeDegrees>
              <LongitudeDegrees>-8.36380605585873126983642578125</LongitudeDegrees>
            </Position>
            <AltitudeMeters>69.40000152587890625</AltitudeMeters>
            <DistanceMeters>17027.20207257</DistanceMeters>
          </Trackpoint>
          <Trackpoint>
            <Time>2018-04-21T08:59:14.000Z</Time>
            <Position>
              <LatitudeDegrees>43.27528302557766437530517578125</LatitudeDegrees>
              <LongitudeDegrees>-8.3639268390834331512451171875</LongitudeDegrees>
            </Position>
            <AltitudeMeters>70.8000030517578125</AltitudeMeters>
            <DistanceMeters>17064.042546095</DistanceMeters>
          </Trackpoint>
          <Trackpoint>
            <Time>2018-04-21T08:59:21.000Z</Time>
            <Position>
              <LatitudeDegrees>43.27501178719103336334228515625</LatitudeDegrees>
              <LongitudeDegrees>-8.36402557790279388427734375</LongitudeDegrees>
            </Position>
            <AltitudeMeters>72</AltitudeMeters>
            <DistanceMeters>17095.274402548</DistanceMeters>
          </Trackpoint>
          <Trackpoint>
            <Time>2018-04-21T08:59:22.000Z</Time>
            <Position>
              <LatitudeDegrees>43.27497289516031742095947265625</LatitudeDegrees>
              <LongitudeDegrees>-8.364042341709136962890625</LongitudeDegrees>
            </Position>
            <AltitudeMeters>72.1999969482421875</AltitudeMeters>
            <DistanceMeters>17099.811865968</DistanceMeters>
          </Trackpoint>
          <Trackpoint>
            <Time>2018-04-21T08:59:28.000Z</Time>
            <Position>
              <LatitudeDegrees>43.27474406920373439788818359375</LatitudeDegrees>
              <LongitudeDegrees>-8.3641709201037883758544921875</LongitudeDegrees>
            </Position>
            <AltitudeMeters>73.1999969482421875</AltitudeMeters>
            <DistanceMeters>17127.329279185</DistanceMeters>
          </Trackpoint>
          <Trackpoint>
            <Time>2018-04-21T08:59:29.000Z</Time>
            <Position>
              <LatitudeDegrees>43.27470702119171619415283203125</LatitudeDegrees>
              <LongitudeDegrees>-8.3641930483281612396240234375</LongitudeDegrees>
            </Position>
            <AltitudeMeters>73</AltitudeMeters>
            <DistanceMeters>17131.82475592</DistanceMeters>
          </Trackpoint>
          <Trackpoint>
            <Time>2018-04-21T08:59:35.000Z</Time>
            <Position>
              <LatitudeDegrees>43.2745156623423099517822265625</LatitudeDegrees>
              <LongitudeDegrees>-8.36436512880027294158935546875</LongitudeDegrees>
            </Position>
            <AltitudeMeters>75.1999969482421875</AltitudeMeters>
            <DistanceMeters>17157.282339985</DistanceMeters>
          </Trackpoint>
          <Trackpoint>
            <Time>2018-04-21T08:59:37.000Z</Time>
            <Position>
              <LatitudeDegrees>43.27445455826818943023681640625</LatitudeDegrees>
              <LongitudeDegrees>-8.36441458202898502349853515625</LongitudeDegrees>
            </Position>
            <AltitudeMeters>75</AltitudeMeters>
            <DistanceMeters>17165.175851717</DistanceMeters>
          </Trackpoint>
          <Trackpoint>
            <Time>2018-04-21T08:59:38.000Z</Time>
            <Position>
              <LatitudeDegrees>43.27442622743546962738037109375</LatitudeDegrees>
              <LongitudeDegrees>-8.3644424937665462493896484375</LongitudeDegrees>
            </Position>
            <AltitudeMeters>73.1999969482421875</AltitudeMeters>
            <DistanceMeters>17169.055689011</DistanceMeters>
          </Trackpoint>
          <Trackpoint>
            <Time>2018-04-21T08:59:40.000Z</Time>
            <Position>
              <LatitudeDegrees>43.27436084859073162078857421875</LatitudeDegrees>
              <LongitudeDegrees>-8.364495970308780670166015625</LongitudeDegrees>
            </Position>
            <AltitudeMeters>74.1999969482421875</AltitudeMeters>
            <DistanceMeters>17177.525336422</DistanceMeters>
          </Trackpoint>
          <Trackpoint>
            <Time>2018-04-21T08:59:44.000Z</Time>
            <Position>
              <LatitudeDegrees>43.27424417249858379364013671875</LatitudeDegrees>
              <LongitudeDegrees>-8.3646064437925815582275390625</LongitudeDegrees>
            </Position>
            <AltitudeMeters>75</AltitudeMeters>
            <DistanceMeters>17193.298053564</DistanceMeters>
          </Trackpoint>
          <Trackpoint>
            <Time>2018-04-21T08:59:46.000Z</Time>
            <Position>
              <LatitudeDegrees>43.27419270761311054229736328125</LatitudeDegrees>
              <LongitudeDegrees>-8.3646724931895732879638671875</LongitudeDegrees>
            </Position>
            <AltitudeMeters>75.1999969482421875</AltitudeMeters>
            <DistanceMeters>17201.137613518</DistanceMeters>
          </Trackpoint>
          <Trackpoint>
            <Time>2018-04-21T08:59:51.000Z</Time>
            <Position>
              <LatitudeDegrees>43.27404451556503772735595703125</LatitudeDegrees>
              <LongitudeDegrees>-8.36480082012712955474853515625</LongitudeDegrees>
            </Position>
            <AltitudeMeters>76</AltitudeMeters>
            <DistanceMeters>17220.635928277</DistanceMeters>
          </Trackpoint>
          <Trackpoint>
            <Time>2018-04-21T08:59:54.000Z</Time>
            <Position>
              <LatitudeDegrees>43.27393345534801483154296875</LatitudeDegrees>
              <LongitudeDegrees>-8.3648022450506687164306640625</LongitudeDegrees>
            </Position>
            <AltitudeMeters>76.59999847412109375</AltitudeMeters>
            <DistanceMeters>17232.997804497</DistanceMeters>
          </Trackpoint>
          <Trackpoint>
            <Time>2018-04-21T08:59:56.000Z</Time>
            <Position>
              <LatitudeDegrees>43.273872770369052886962890625</LatitudeDegrees>
              <LongitudeDegrees>-8.36479897610843181610107421875</LongitudeDegrees>
            </Position>
            <AltitudeMeters>77</AltitudeMeters>
            <DistanceMeters>17239.757404101</DistanceMeters>
          </Trackpoint>
          <Trackpoint>
            <Time>2018-04-21T08:59:58.000Z</Time>
            <Position>
              <LatitudeDegrees>43.27381007373332977294921875</LatitudeDegrees>
              <LongitudeDegrees>-8.3648136444389820098876953125</LongitudeDegrees>
            </Position>
            <AltitudeMeters>77.59999847412109375</AltitudeMeters>
            <DistanceMeters>17246.836097072</DistanceMeters>
          </Trackpoint>
          <Trackpoint>
            <Time>2018-04-21T09:00:01.000Z</Time>
            <Position>
              <LatitudeDegrees>43.27370387502014636993408203125</LatitudeDegrees>
              <LongitudeDegrees>-8.36486653424799442291259765625</LongitudeDegrees>
            </Position>
            <AltitudeMeters>78.40000152587890625</AltitudeMeters>
            <DistanceMeters>17259.409822788</DistanceMeters>
          </Trackpoint>
          <Trackpoint>
            <Time>2018-04-21T09:00:02.000Z</Time>
            <Position>
              <LatitudeDegrees>43.2736697606742382049560546875</LatitudeDegrees>
              <LongitudeDegrees>-8.36488522589206695556640625</LongitudeDegrees>
            </Position>
            <AltitudeMeters>78.8000030517578125</AltitudeMeters>
            <DistanceMeters>17263.497076319</DistanceMeters>
          </Trackpoint>
          <Trackpoint>
            <Time>2018-04-21T09:00:07.000Z</Time>
            <Position>
              <LatitudeDegrees>43.27350220642983913421630859375</LatitudeDegrees>
              <LongitudeDegrees>-8.36498555727303028106689453125</LongitudeDegrees>
            </Position>
            <AltitudeMeters>80</AltitudeMeters>
            <DistanceMeters>17283.841672257</DistanceMeters>
          </Trackpoint>
          <Trackpoint>
            <Time>2018-04-21T09:00:11.000Z</Time>
            <Position>
              <LatitudeDegrees>43.27336725778877735137939453125</LatitudeDegrees>
              <LongitudeDegrees>-8.36505965329706668853759765625</LongitudeDegrees>
            </Position>
            <AltitudeMeters>81.1999969482421875</AltitudeMeters>
            <DistanceMeters>17300.017441019</DistanceMeters>
          </Trackpoint>
          <Trackpoint>
            <Time>2018-04-21T09:00:14.000Z</Time>
            <Position>
              <LatitudeDegrees>43.27326801605522632598876953125</LatitudeDegrees>
              <LongitudeDegrees>-8.36510441266000270843505859375</LongitudeDegrees>
            </Position>
            <AltitudeMeters>82.1999969482421875</AltitudeMeters>
            <DistanceMeters>17311.64336826</DistanceMeters>
          </Trackpoint>
          <Trackpoint>
            <Time>2018-04-21T09:00:18.000Z</Time>
            <Position>
              <LatitudeDegrees>43.2731390185654163360595703125</LatitudeDegrees>
              <LongitudeDegrees>-8.365149758756160736083984375</LongitudeDegrees>
            </Position>
            <AltitudeMeters>82.59999847412109375</AltitudeMeters>
            <DistanceMeters>17326.463880377</DistanceMeters>
          </Trackpoint>
          <Trackpoint>
            <Time>2018-04-21T09:00:25.000Z</Time>
            <Position>
              <LatitudeDegrees>43.27288739383220672607421875</LatitudeDegrees>
              <LongitudeDegrees>-8.36522988975048065185546875</LongitudeDegrees>
            </Position>
            <AltitudeMeters>83</AltitudeMeters>
            <DistanceMeters>17355.213348668</DistanceMeters>
          </Trackpoint>
          <Trackpoint>
            <Time>2018-04-21T09:00:30.000Z</Time>
            <Position>
              <LatitudeDegrees>43.2726560533046722412109375</LatitudeDegrees>
              <LongitudeDegrees>-8.3653252758085727691650390625</LongitudeDegrees>
            </Position>
            <AltitudeMeters>83</AltitudeMeters>
            <DistanceMeters>17382.097344993</DistanceMeters>
          </Trackpoint>
          <Trackpoint>
            <Time>2018-04-21T09:00:32.000Z</Time>
            <Position>
              <LatitudeDegrees>43.27255186624825000762939453125</LatitudeDegrees>
              <LongitudeDegrees>-8.3653695322573184967041015625</LongitudeDegrees>
            </Position>
            <AltitudeMeters>82.8000030517578125</AltitudeMeters>
            <DistanceMeters>17394.235496717</DistanceMeters>
          </Trackpoint>
          <Trackpoint>
            <Time>2018-04-21T09:00:37.000Z</Time>
            <Position>
              <LatitudeDegrees>43.27228867448866367340087890625</LatitudeDegrees>
              <LongitudeDegrees>-8.36550607345998287200927734375</LongitudeDegrees>
            </Position>
            <AltitudeMeters>82.59999847412109375</AltitudeMeters>
            <DistanceMeters>17425.549358518</DistanceMeters>
          </Trackpoint>
          <Trackpoint>
            <Time>2018-04-21T09:00:40.000Z</Time>
            <Position>
              <LatitudeDegrees>43.272131346166133880615234375</LatitudeDegrees>
              <LongitudeDegrees>-8.36560330353677272796630859375</LongitudeDegrees>
            </Position>
            <AltitudeMeters>82.59999847412109375</AltitudeMeters>
            <DistanceMeters>17444.751339701</DistanceMeters>
          </Trackpoint>
          <Trackpoint>
            <Time>2018-04-21T09:00:45.000Z</Time>
            <Position>
              <LatitudeDegrees>43.27187377028167247772216796875</LatitudeDegrees>
              <LongitudeDegrees>-8.36575954221189022064208984375</LongitudeDegrees>
            </Position>
            <AltitudeMeters>82.8000030517578125</AltitudeMeters>
            <DistanceMeters>17476.091576536</DistanceMeters>
          </Trackpoint>
          <Trackpoint>
            <Time>2018-04-21T09:00:47.000Z</Time>
            <Position>
              <LatitudeDegrees>43.27177804894745349884033203125</LatitudeDegrees>
              <LongitudeDegrees>-8.36583179421722888946533203125</LongitudeDegrees>
            </Position>
            <AltitudeMeters>82.8000030517578125</AltitudeMeters>
            <DistanceMeters>17488.24868397</DistanceMeters>
          </Trackpoint>
          <Trackpoint>
            <Time>2018-04-21T09:00:49.000Z</Time>
            <Position>
              <LatitudeDegrees>43.271684087812900543212890625</LatitudeDegrees>
              <LongitudeDegrees>-8.36590186692774295806884765625</LongitudeDegrees>
            </Position>
            <AltitudeMeters>82.8000030517578125</AltitudeMeters>
            <DistanceMeters>17500.149049043</DistanceMeters>
          </Trackpoint>
          <Trackpoint>
            <Time>2018-04-21T09:00:56.000Z</Time>
            <Position>
              <LatitudeDegrees>43.27140220440924167633056640625</LatitudeDegrees>
              <LongitudeDegrees>-8.3661641366779804229736328125</LongitudeDegrees>
            </Position>
            <AltitudeMeters>83.40000152587890625</AltitudeMeters>
            <DistanceMeters>17538.045054602</DistanceMeters>
          </Trackpoint>
          <Trackpoint>
            <Time>2018-04-21T09:01:03.000Z</Time>
            <Position>
              <LatitudeDegrees>43.27113800682127475738525390625</LatitudeDegrees>
              <LongitudeDegrees>-8.3663884364068508148193359375</LongitudeDegrees>
            </Position>
            <AltitudeMeters>84.59999847412109375</AltitudeMeters>
            <DistanceMeters>17572.615454617</DistanceMeters>
          </Trackpoint>
          <Trackpoint>
            <Time>2018-04-21T09:01:05.000Z</Time>
            <Position>
              <LatitudeDegrees>43.27105888165533542633056640625</LatitudeDegrees>
              <LongitudeDegrees>-8.3664464391767978668212890625</LongitudeDegrees>
            </Position>
            <AltitudeMeters>85</AltitudeMeters>
            <DistanceMeters>17582.598235975</DistanceMeters>
          </Trackpoint>
          <Trackpoint>
            <Time>2018-04-21T09:01:07.000Z</Time>
            <Position>
              <LatitudeDegrees>43.27098109759390354156494140625</LatitudeDegrees>
              <LongitudeDegrees>-8.36650536395609378814697265625</LongitudeDegrees>
            </Position>
            <AltitudeMeters>85.40000152587890625</AltitudeMeters>
            <DistanceMeters>17592.484668468</DistanceMeters>
          </Trackpoint>
          <Trackpoint>
            <Time>2018-04-21T09:01:08.000Z</Time>
            <Position>
              <LatitudeDegrees>43.27093935571610927581787109375</LatitudeDegrees>
              <LongitudeDegrees>-8.3665285818278789520263671875</LongitudeDegrees>
            </Position>
            <AltitudeMeters>85.59999847412109375</AltitudeMeters>
            <DistanceMeters>17597.496820966</DistanceMeters>
          </Trackpoint>
          <Trackpoint>
            <Time>2018-04-21T09:01:11.000Z</Time>
            <Position>
              <LatitudeDegrees>43.27080071903765201568603515625</LatitudeDegrees>
              <LongitudeDegrees>-8.36657426320016384124755859375</LongitudeDegrees>
            </Position>
            <AltitudeMeters>86.59999847412109375</AltitudeMeters>
            <DistanceMeters>17613.365428709</DistanceMeters>
          </Trackpoint>
          <Trackpoint>
            <Time>2018-04-21T09:01:13.000Z</Time>
            <Position>
              <LatitudeDegrees>43.2707096077501773834228515625</LatitudeDegrees>
              <LongitudeDegrees>-8.36658499203622341156005859375</LongitudeDegrees>
            </Position>
            <AltitudeMeters>86.8000030517578125</AltitudeMeters>
            <DistanceMeters>17623.543495174</DistanceMeters>
          </Trackpoint>
          <Trackpoint>
            <Time>2018-04-21T09:01:16.000Z</Time>
            <Position>
              <LatitudeDegrees>43.27057155780494213104248046875</LatitudeDegrees>
              <LongitudeDegrees>-8.36656487546861171722412109375</LongitudeDegrees>
            </Position>
            <AltitudeMeters>87.59999847412109375</AltitudeMeters>
            <DistanceMeters>17638.99461685</DistanceMeters>
          </Trackpoint>
          <Trackpoint>
            <Time>2018-04-21T09:01:19.000Z</Time>
            <Position>
              <LatitudeDegrees>43.27042914927005767822265625</LatitudeDegrees>
              <LongitudeDegrees>-8.366556577384471893310546875</LongitudeDegrees>
            </Position>
            <AltitudeMeters>88</AltitudeMeters>
            <DistanceMeters>17654.859240723</DistanceMeters>
          </Trackpoint>
          <Trackpoint>
            <Time>2018-04-21T09:01:23.000Z</Time>
            <Position>
              <LatitudeDegrees>43.27024315483868122100830078125</LatitudeDegrees>
              <LongitudeDegrees>-8.36659270338714122772216796875</LongitudeDegrees>
            </Position>
            <AltitudeMeters>88.59999847412109375</AltitudeMeters>
            <DistanceMeters>17675.766629619</DistanceMeters>
          </Trackpoint>
          <Trackpoint>
            <Time>2018-04-21T09:01:25.000Z</Time>
            <Position>
              <LatitudeDegrees>43.2701553963124752044677734375</LatitudeDegrees>
              <LongitudeDegrees>-8.366633020341396331787109375</LongitudeDegrees>
            </Position>
            <AltitudeMeters>89.1999969482421875</AltitudeMeters>
            <DistanceMeters>17686.066403308</DistanceMeters>
          </Trackpoint>
          <Trackpoint>
            <Time>2018-04-21T09:01:30.000Z</Time>
            <Position>
              <LatitudeDegrees>43.2699284143745899200439453125</LatitudeDegrees>
              <LongitudeDegrees>-8.366700746119022369384765625</LongitudeDegrees>
            </Position>
            <AltitudeMeters>89.8000030517578125</AltitudeMeters>
            <DistanceMeters>17711.91925882</DistanceMeters>
          </Trackpoint>
          <Trackpoint>
            <Time>2018-04-21T09:01:33.000Z</Time>
            <Position>
              <LatitudeDegrees>43.2697902806103229522705078125</LatitudeDegrees>
              <LongitudeDegrees>-8.36674039252102375030517578125</LongitudeDegrees>
            </Position>
            <AltitudeMeters>90.1999969482421875</AltitudeMeters>
            <DistanceMeters>17727.625999043</DistanceMeters>
          </Trackpoint>
          <Trackpoint>
            <Time>2018-04-21T09:01:34.000Z</Time>
            <Position>
              <LatitudeDegrees>43.26974384486675262451171875</LatitudeDegrees>
              <LongitudeDegrees>-8.3667468465864658355712890625</LongitudeDegrees>
            </Position>
            <AltitudeMeters>90.40000152587890625</AltitudeMeters>
            <DistanceMeters>17732.82040646</DistanceMeters>
          </Trackpoint>
          <Trackpoint>
            <Time>2018-04-21T09:01:37.000Z</Time>
            <Position>
              <LatitudeDegrees>43.26960680074989795684814453125</LatitudeDegrees>
              <LongitudeDegrees>-8.3667595870792865753173828125</LongitudeDegrees>
            </Position>
            <AltitudeMeters>90.8000030517578125</AltitudeMeters>
            <DistanceMeters>17748.108784356</DistanceMeters>
          </Trackpoint>
          <Trackpoint>
            <Time>2018-04-21T09:01:40.000Z</Time>
            <Position>
              <LatitudeDegrees>43.2694680802524089813232421875</LatitudeDegrees>
              <LongitudeDegrees>-8.366770483553409576416015625</LongitudeDegrees>
            </Position>
            <AltitudeMeters>91.40000152587890625</AltitudeMeters>
            <DistanceMeters>17763.573342045</DistanceMeters>
          </Trackpoint>
          <Trackpoint>
            <Time>2018-04-21T09:01:41.000Z</Time>
            <Position>
              <LatitudeDegrees>43.2694231532514095306396484375</LatitudeDegrees>
              <LongitudeDegrees>-8.36676654405891895294189453125</LongitudeDegrees>
            </Position>
            <AltitudeMeters>91.40000152587890625</AltitudeMeters>
            <DistanceMeters>17768.583692584</DistanceMeters>
          </Trackpoint>
          <Trackpoint>
            <Time>2018-04-21T09:01:43.000Z</Time>
            <Position>
              <LatitudeDegrees>43.26932810246944427490234375</LatitudeDegrees>
              <LongitudeDegrees>-8.3667512051761150360107421875</LongitudeDegrees>
            </Position>
            <AltitudeMeters>91.1999969482421875</AltitudeMeters>
            <DistanceMeters>17779.236013485</DistanceMeters>
          </Trackpoint>
          <Trackpoint>
            <Time>2018-04-21T09:01:45.000Z</Time>
            <Position>
              <LatitudeDegrees>43.2692357338964939117431640625</LatitudeDegrees>
              <LongitudeDegrees>-8.36672044359147548675537109375</LongitudeDegrees>
            </Position>
            <AltitudeMeters>91.1999969482421875</AltitudeMeters>
            <DistanceMeters>17789.815180156</DistanceMeters>
          </Trackpoint>
          <Trackpoint>
            <Time>2018-04-21T09:01:48.000Z</Time>
            <Position>
              <LatitudeDegrees>43.26909835450351238250732421875</LatitudeDegrees>
              <LongitudeDegrees>-8.3666154183447360992431640625</LongitudeDegrees>
            </Position>
            <AltitudeMeters>91</AltitudeMeters>
            <DistanceMeters>17807.315066228</DistanceMeters>
          </Trackpoint>
          <Trackpoint>
            <Time>2018-04-21T09:01:49.000Z</Time>
            <Position>
              <LatitudeDegrees>43.26905275695025920867919921875</LatitudeDegrees>
              <LongitudeDegrees>-8.36656956933438777923583984375</LongitudeDegrees>
            </Position>
            <AltitudeMeters>90.8000030517578125</AltitudeMeters>
            <DistanceMeters>17813.605518912</DistanceMeters>
          </Trackpoint>
          <Trackpoint>
            <Time>2018-04-21T09:01:52.000Z</Time>
            <Position>
              <LatitudeDegrees>43.26891395263373851776123046875</LatitudeDegrees>
              <LongitudeDegrees>-8.3664105646312236785888671875</LongitudeDegrees>
            </Position>
            <AltitudeMeters>90.59999847412109375</AltitudeMeters>
            <DistanceMeters>17833.72359676</DistanceMeters>
          </Trackpoint>
          <Trackpoint>
            <Time>2018-04-21T09:01:54.000Z</Time>
            <Position>
              <LatitudeDegrees>43.26881689019501209259033203125</LatitudeDegrees>
              <LongitudeDegrees>-8.3663150109350681304931640625</LongitudeDegrees>
            </Position>
            <AltitudeMeters>90.40000152587890625</AltitudeMeters>
            <DistanceMeters>17847.015453125</DistanceMeters>
          </Trackpoint>
          <Trackpoint>
            <Time>2018-04-21T09:01:55.000Z</Time>
            <Position>
              <LatitudeDegrees>43.26876081526279449462890625</LatitudeDegrees>
              <LongitudeDegrees>-8.36627687327563762664794921875</LongitudeDegrees>
            </Position>
            <AltitudeMeters>90</AltitudeMeters>
            <DistanceMeters>17853.980334363</DistanceMeters>
          </Trackpoint>
          <Trackpoint>
            <Time>2018-04-21T09:01:58.000Z</Time>
            <Position>
              <LatitudeDegrees>43.2685764133930206298828125</LatitudeDegrees>
              <LongitudeDegrees>-8.3662177808582782745361328125</LongitudeDegrees>
            </Position>
            <AltitudeMeters>89.8000030517578125</AltitudeMeters>
            <DistanceMeters>17875.055922853</DistanceMeters>
          </Trackpoint>
          <Trackpoint>
            <Time>2018-04-21T09:01:59.000Z</Time>
            <Position>
              <LatitudeDegrees>43.26851732097566127777099609375</LatitudeDegrees>
              <LongitudeDegrees>-8.36621182970702648162841796875</LongitudeDegrees>
            </Position>
            <AltitudeMeters>89.8000030517578125</AltitudeMeters>
            <DistanceMeters>17881.650530359</DistanceMeters>
          </Trackpoint>
          <Trackpoint>
            <Time>2018-04-21T09:02:04.000Z</Time>
            <Position>
              <LatitudeDegrees>43.2682357728481292724609375</LatitudeDegrees>
              <LongitudeDegrees>-8.36615080945193767547607421875</LongitudeDegrees>
            </Position>
            <AltitudeMeters>90.59999847412109375</AltitudeMeters>
            <DistanceMeters>17913.375224213</DistanceMeters>
          </Trackpoint>
          <Trackpoint>
            <Time>2018-04-21T09:02:05.000Z</Time>
            <Position>
              <LatitudeDegrees>43.26818221248686313629150390625</LatitudeDegrees>
              <LongitudeDegrees>-8.36613488383591175079345703125</LongitudeDegrees>
            </Position>
            <AltitudeMeters>90.59999847412109375</AltitudeMeters>
            <DistanceMeters>17919.474725418</DistanceMeters>
          </Trackpoint>
          <Trackpoint>
            <Time>2018-04-21T09:02:10.000Z</Time>
            <Position>
              <LatitudeDegrees>43.26791114173829555511474609375</LatitudeDegrees>
              <LongitudeDegrees>-8.3660447783768177032470703125</LongitudeDegrees>
            </Position>
            <AltitudeMeters>91</AltitudeMeters>
            <DistanceMeters>17950.516623835</DistanceMeters>
          </Trackpoint>
          <Trackpoint>
            <Time>2018-04-21T09:02:11.000Z</Time>
            <Position>
              <LatitudeDegrees>43.2678520493209362030029296875</LatitudeDegrees>
              <LongitudeDegrees>-8.36601401679217815399169921875</LongitudeDegrees>
            </Position>
            <AltitudeMeters>91</AltitudeMeters>
            <DistanceMeters>17957.550526652</DistanceMeters>
          </Trackpoint>
          <Trackpoint>
            <Time>2018-04-21T09:02:15.000Z</Time>
            <Position>
              <LatitudeDegrees>43.26764493249356746673583984375</LatitudeDegrees>
              <LongitudeDegrees>-8.36585660465061664581298828125</LongitudeDegrees>
            </Position>
            <AltitudeMeters>91.1999969482421875</AltitudeMeters>
            <DistanceMeters>17983.897786406</DistanceMeters>
          </Trackpoint>
          <Trackpoint>
            <Time>2018-04-21T09:02:16.000Z</Time>
            <Position>
              <LatitudeDegrees>43.26760168187320232391357421875</LatitudeDegrees>
              <LongitudeDegrees>-8.36580916307866573333740234375</LongitudeDegrees>
            </Position>
            <AltitudeMeters>91.1999969482421875</AltitudeMeters>
            <DistanceMeters>17990.058420407</DistanceMeters>
          </Trackpoint>
          <Trackpoint>
            <Time>2018-04-21T09:02:19.000Z</Time>
            <Position>
              <LatitudeDegrees>43.2674688287079334259033203125</LatitudeDegrees>
              <LongitudeDegrees>-8.36565309204161167144775390625</LongitudeDegrees>
            </Position>
            <AltitudeMeters>90.59999847412109375</AltitudeMeters>
            <DistanceMeters>18009.517562102</DistanceMeters>
          </Trackpoint>
          <Trackpoint>
            <Time>2018-04-21T09:02:20.000Z</Time>
            <Position>
              <LatitudeDegrees>43.2674383185803890228271484375</LatitudeDegrees>
              <LongitudeDegrees>-8.36559039540588855743408203125</LongitudeDegrees>
            </Position>
            <AltitudeMeters>90.1999969482421875</AltitudeMeters>
            <DistanceMeters>18015.628895522</DistanceMeters>
          </Trackpoint>
          <Trackpoint>
            <Time>2018-04-21T09:02:21.000Z</Time>
            <Position>
              <LatitudeDegrees>43.267420046031475067138671875</LatitudeDegrees>
              <LongitudeDegrees>-8.3655157126486301422119140625</LongitudeDegrees>
            </Position>
            <AltitudeMeters>90</AltitudeMeters>
            <DistanceMeters>18022.013389635</DistanceMeters>
          </Trackpoint>
          <Trackpoint>
            <Time>2018-04-21T09:02:23.000Z</Time>
            <Position>
              <LatitudeDegrees>43.26738274656236171722412109375</LatitudeDegrees>
              <LongitudeDegrees>-8.3653494156897068023681640625</LongitudeDegrees>
            </Position>
            <AltitudeMeters>89.40000152587890625</AltitudeMeters>
            <DistanceMeters>18036.115815086</DistanceMeters>
          </Trackpoint>
          <Trackpoint>
            <Time>2018-04-21T09:02:24.000Z</Time>
            <Position>
              <LatitudeDegrees>43.267373107373714447021484375</LatitudeDegrees>
              <LongitudeDegrees>-8.36526207625865936279296875</LongitudeDegrees>
            </Position>
            <AltitudeMeters>89.1999969482421875</AltitudeMeters>
            <DistanceMeters>18043.276316049</DistanceMeters>
          </Trackpoint>
          <Trackpoint>
            <Time>2018-04-21T09:02:26.000Z</Time>
            <Position>
              <LatitudeDegrees>43.26737335883080959320068359375</LatitudeDegrees>
              <LongitudeDegrees>-8.36507775820791721343994140625</LongitudeDegrees>
            </Position>
            <AltitudeMeters>88.8000030517578125</AltitudeMeters>
            <DistanceMeters>18058.214563908</DistanceMeters>
          </Trackpoint>
          <Trackpoint>
            <Time>2018-04-21T09:02:30.000Z</Time>
            <Position>
              <LatitudeDegrees>43.26742314733564853668212890625</LatitudeDegrees>
              <LongitudeDegrees>-8.3646610938012599945068359375</LongitudeDegrees>
            </Position>
            <AltitudeMeters>88.1999969482421875</AltitudeMeters>
            <DistanceMeters>18092.435265735</DistanceMeters>
          </Trackpoint>
          <Trackpoint>
            <Time>2018-04-21T09:02:33.000Z</Time>
            <Position>
              <LatitudeDegrees>43.26745918951928615570068359375</LatitudeDegrees>
              <LongitudeDegrees>-8.36435942910611629486083984375</LongitudeDegrees>
            </Position>
            <AltitudeMeters>88</AltitudeMeters>
            <DistanceMeters>18117.210827815</DistanceMeters>
          </Trackpoint>
          <Trackpoint>
            <Time>2018-04-21T09:02:35.000Z</Time>
            <Position>
              <LatitudeDegrees>43.26748534105718135833740234375</LatitudeDegrees>
              <LongitudeDegrees>-8.36416379548609256744384765625</LongitudeDegrees>
            </Position>
            <AltitudeMeters>88</AltitudeMeters>
            <DistanceMeters>18133.33095529</DistanceMeters>
          </Trackpoint>
          <Trackpoint>
            <Time>2018-04-21T09:02:38.000Z</Time>
            <Position>
              <LatitudeDegrees>43.2675251550972461700439453125</LatitudeDegrees>
              <LongitudeDegrees>-8.3638773858547210693359375</LongitudeDegrees>
            </Position>
            <AltitudeMeters>88</AltitudeMeters>
            <DistanceMeters>18156.962821016</DistanceMeters>
          </Trackpoint>
          <Trackpoint>
            <Time>2018-04-21T09:02:40.000Z</Time>
            <Position>
              <LatitudeDegrees>43.26752993278205394744873046875</LatitudeDegrees>
              <LongitudeDegrees>-8.36369189433753490447998046875</LongitudeDegrees>
            </Position>
            <AltitudeMeters>87.8000030517578125</AltitudeMeters>
            <DistanceMeters>18172.005282767</DistanceMeters>
          </Trackpoint>
          <Trackpoint>
            <Time>2018-04-21T09:02:43.000Z</Time>
            <Position>
              <LatitudeDegrees>43.26750847510993480682373046875</LatitudeDegrees>
              <LongitudeDegrees>-8.363445885479450225830078125</LongitudeDegrees>
            </Position>
            <AltitudeMeters>88</AltitudeMeters>
            <DistanceMeters>18192.085846343</DistanceMeters>
          </Trackpoint>
          <Trackpoint>
            <Time>2018-04-21T09:02:48.000Z</Time>
            <Position>
              <LatitudeDegrees>43.26744812540709972381591796875</LatitudeDegrees>
              <LongitudeDegrees>-8.36308487690985202789306640625</LongitudeDegrees>
            </Position>
            <AltitudeMeters>89</AltitudeMeters>
            <DistanceMeters>18222.105566011</DistanceMeters>
          </Trackpoint>
          <Trackpoint>
            <Time>2018-04-21T09:02:50.000Z</Time>
            <Position>
              <LatitudeDegrees>43.2674245722591876983642578125</LatitudeDegrees>
              <LongitudeDegrees>-8.36295076645910739898681640625</LongitudeDegrees>
            </Position>
            <AltitudeMeters>89.40000152587890625</AltitudeMeters>
            <DistanceMeters>18233.286863269</DistanceMeters>
          </Trackpoint>
          <Trackpoint>
            <Time>2018-04-21T09:02:52.000Z</Time>
            <Position>
              <LatitudeDegrees>43.2673873566091060638427734375</LatitudeDegrees>
              <LongitudeDegrees>-8.36283056996762752532958984375</LongitudeDegrees>
            </Position>
            <AltitudeMeters>89.59999847412109375</AltitudeMeters>
            <DistanceMeters>18243.87285631</DistanceMeters>
          </Trackpoint>
          <Trackpoint>
            <Time>2018-04-21T09:02:54.000Z</Time>
            <Position>
              <LatitudeDegrees>43.26732893474400043487548828125</LatitudeDegrees>
              <LongitudeDegrees>-8.36274725385010242462158203125</LongitudeDegrees>
            </Position>
            <AltitudeMeters>90</AltitudeMeters>
            <DistanceMeters>18253.246845529</DistanceMeters>
          </Trackpoint>
          <Trackpoint>
            <Time>2018-04-21T09:02:57.000Z</Time>
            <Position>
              <LatitudeDegrees>43.26722935773432254791259765625</LatitudeDegrees>
              <LongitudeDegrees>-8.362719677388668060302734375</LongitudeDegrees>
            </Position>
            <AltitudeMeters>90.40000152587890625</AltitudeMeters>
            <DistanceMeters>18264.553028003</DistanceMeters>
          </Trackpoint>
          <Trackpoint>
            <Time>2018-04-21T09:02:58.000Z</Time>
            <Position>
              <LatitudeDegrees>43.267196752130985260009765625</LatitudeDegrees>
              <LongitudeDegrees>-8.3627319149672985076904296875</LongitudeDegrees>
            </Position>
            <AltitudeMeters>90.40000152587890625</AltitudeMeters>
            <DistanceMeters>18268.315893914</DistanceMeters>
          </Trackpoint>
          <Trackpoint>
            <Time>2018-04-21T09:03:01.000Z</Time>
            <Position>
              <LatitudeDegrees>43.2670966722071170806884765625</LatitudeDegrees>
              <LongitudeDegrees>-8.36277273483574390411376953125</LongitudeDegrees>
            </Position>
            <AltitudeMeters>91</AltitudeMeters>
            <DistanceMeters>18279.935994304</DistanceMeters>
          </Trackpoint>
          <Trackpoint>
            <Time>2018-04-21T09:03:03.000Z</Time>
            <Position>
              <LatitudeDegrees>43.26702366583049297332763671875</LatitudeDegrees>
              <LongitudeDegrees>-8.36279620416462421417236328125</LongitudeDegrees>
            </Position>
            <AltitudeMeters>91.59999847412109375</AltitudeMeters>
            <DistanceMeters>18288.281590724</DistanceMeters>
          </Trackpoint>
          <Trackpoint>
            <Time>2018-04-21T09:03:04.000Z</Time>
            <Position>
              <LatitudeDegrees>43.2669873721897602081298828125</LatitudeDegrees>
              <LongitudeDegrees>-8.36280508898198604583740234375</LongitudeDegrees>
            </Position>
            <AltitudeMeters>92</AltitudeMeters>
            <DistanceMeters>18292.38428039</DistanceMeters>
          </Trackpoint>
          <Trackpoint>
            <Time>2018-04-21T09:03:06.000Z</Time>
            <Position>
              <LatitudeDegrees>43.2669156230986118316650390625</LatitudeDegrees>
              <LongitudeDegrees>-8.362814895808696746826171875</LongitudeDegrees>
            </Position>
            <AltitudeMeters>92.40000152587890625</AltitudeMeters>
            <DistanceMeters>18300.409397535</DistanceMeters>
          </Trackpoint>
          <Trackpoint>
            <Time>2018-04-21T09:03:08.000Z</Time>
            <Position>
              <LatitudeDegrees>43.26684161089360713958740234375</LatitudeDegrees>
              <LongitudeDegrees>-8.3628247864544391632080078125</LongitudeDegrees>
            </Position>
            <AltitudeMeters>92.8000030517578125</AltitudeMeters>
            <DistanceMeters>18308.686000697</DistanceMeters>
          </Trackpoint>
          <Trackpoint>
            <Time>2018-04-21T09:03:11.000Z</Time>
            <Position>
              <LatitudeDegrees>43.26672828756272792816162109375</LatitudeDegrees>
              <LongitudeDegrees>-8.36282051168382167816162109375</LongitudeDegrees>
            </Position>
            <AltitudeMeters>93.1999969482421875</AltitudeMeters>
            <DistanceMeters>18321.30345875</DistanceMeters>
          </Trackpoint>
          <Trackpoint>
            <Time>2018-04-21T09:03:15.000Z</Time>
            <Position>
              <LatitudeDegrees>43.2665813528001308441162109375</LatitudeDegrees>
              <LongitudeDegrees>-8.36283191107213497161865234375</LongitudeDegrees>
            </Position>
            <AltitudeMeters>95.40000152587890625</AltitudeMeters>
            <DistanceMeters>18337.683649878</DistanceMeters>
          </Trackpoint>
          <Trackpoint>
            <Time>2018-04-21T09:03:18.000Z</Time>
            <Position>
              <LatitudeDegrees>43.26648387126624584197998046875</LatitudeDegrees>
              <LongitudeDegrees>-8.36283610202372074127197265625</LongitudeDegrees>
            </Position>
            <AltitudeMeters>93.40000152587890625</AltitudeMeters>
            <DistanceMeters>18348.539178312</DistanceMeters>
          </Trackpoint>
          <Trackpoint>
            <Time>2018-04-21T09:03:21.000Z</Time>
            <Position>
              <LatitudeDegrees>43.26638680882751941680908203125</LatitudeDegrees>
              <LongitudeDegrees>-8.36277239955961704254150390625</LongitudeDegrees>
            </Position>
            <AltitudeMeters>94.40000152587890625</AltitudeMeters>
            <DistanceMeters>18360.512544323</DistanceMeters>
          </Trackpoint>
          <Trackpoint>
            <Time>2018-04-21T09:03:23.000Z</Time>
            <Position>
              <LatitudeDegrees>43.26632813550531864166259765625</LatitudeDegrees>
              <LongitudeDegrees>-8.3626972138881683349609375</LongitudeDegrees>
            </Position>
            <AltitudeMeters>94.59999847412109375</AltitudeMeters>
            <DistanceMeters>18369.444044494</DistanceMeters>
          </Trackpoint>
          <Trackpoint>
            <Time>2018-04-21T09:03:28.000Z</Time>
            <Position>
              <LatitudeDegrees>43.26615295372903347015380859375</LatitudeDegrees>
              <LongitudeDegrees>-8.36257877759635448455810546875</LongitudeDegrees>
            </Position>
            <AltitudeMeters>94.8000030517578125</AltitudeMeters>
            <DistanceMeters>18391.17651072</DistanceMeters>
          </Trackpoint>
          <Trackpoint>
            <Time>2018-04-21T09:03:31.000Z</Time>
            <Position>
              <LatitudeDegrees>43.26603393070399761199951171875</LatitudeDegrees>
              <LongitudeDegrees>-8.3625525422394275665283203125</LongitudeDegrees>
            </Position>
            <AltitudeMeters>95</AltitudeMeters>
            <DistanceMeters>18404.593461711</DistanceMeters>
          </Trackpoint>
          <Trackpoint>
            <Time>2018-04-21T09:03:34.000Z</Time>
            <Position>
              <LatitudeDegrees>43.2659272290766239166259765625</LatitudeDegrees>
              <LongitudeDegrees>-8.36247433908283710479736328125</LongitudeDegrees>
            </Position>
            <AltitudeMeters>95.8000030517578125</AltitudeMeters>
            <DistanceMeters>18418.055095122</DistanceMeters>
          </Trackpoint>
          <Trackpoint>
            <Time>2018-04-21T09:03:37.000Z</Time>
            <Position>
              <LatitudeDegrees>43.26583385467529296875</LatitudeDegrees>
              <LongitudeDegrees>-8.36234844289720058441162109375</LongitudeDegrees>
            </Position>
            <AltitudeMeters>96</AltitudeMeters>
            <DistanceMeters>18432.619624834</DistanceMeters>
          </Trackpoint>
          <Trackpoint>
            <Time>2018-04-21T09:03:40.000Z</Time>
            <Position>
              <LatitudeDegrees>43.26574475504457950592041015625</LatitudeDegrees>
              <LongitudeDegrees>-8.36221634410321712493896484375</LongitudeDegrees>
            </Position>
            <AltitudeMeters>96</AltitudeMeters>
            <DistanceMeters>18447.213265673</DistanceMeters>
          </Trackpoint>
          <Trackpoint>
            <Time>2018-04-21T09:03:41.000Z</Time>
            <Position>
              <LatitudeDegrees>43.26571105979382991790771484375</LatitudeDegrees>
              <LongitudeDegrees>-8.362181894481182098388671875</LongitudeDegrees>
            </Position>
            <AltitudeMeters>96.1999969482421875</AltitudeMeters>
            <DistanceMeters>18451.887961919</DistanceMeters>
          </Trackpoint>
          <Trackpoint>
            <Time>2018-04-21T09:03:43.000Z</Time>
            <Position>
              <LatitudeDegrees>43.26563595794141292572021484375</LatitudeDegrees>
              <LongitudeDegrees>-8.36214132606983184814453125</LongitudeDegrees>
            </Position>
            <AltitudeMeters>96.8000030517578125</AltitudeMeters>
            <DistanceMeters>18460.86987168</DistanceMeters>
          </Trackpoint>
          <Trackpoint>
            <Time>2018-04-21T09:03:44.000Z</Time>
            <Position>
              <LatitudeDegrees>43.2655939646065235137939453125</LatitudeDegrees>
              <LongitudeDegrees>-8.3621354587376117706298828125</LongitudeDegrees>
            </Position>
            <AltitudeMeters>97</AltitudeMeters>
            <DistanceMeters>18465.567691049</DistanceMeters>
          </Trackpoint>
          <Trackpoint>
            <Time>2018-04-21T09:03:45.000Z</Time>
            <Position>
              <LatitudeDegrees>43.2655513845384120941162109375</LatitudeDegrees>
              <LongitudeDegrees>-8.362131603062152862548828125</LongitudeDegrees>
            </Position>
            <AltitudeMeters>97.1999969482421875</AltitudeMeters>
            <DistanceMeters>18470.318076406</DistanceMeters>
          </Trackpoint>
          <Trackpoint>
            <Time>2018-04-21T09:03:49.000Z</Time>
            <Position>
              <LatitudeDegrees>43.26541869901120662689208984375</LatitudeDegrees>
              <LongitudeDegrees>-8.36216739378869533538818359375</LongitudeDegrees>
            </Position>
            <AltitudeMeters>97.8000030517578125</AltitudeMeters>
            <DistanceMeters>18485.368340108</DistanceMeters>
          </Trackpoint>
          <Trackpoint>
            <Time>2018-04-21T09:03:53.000Z</Time>
            <Position>
              <LatitudeDegrees>43.26531610451638698577880859375</LatitudeDegrees>
              <LongitudeDegrees>-8.36231030523777008056640625</LongitudeDegrees>
            </Position>
            <AltitudeMeters>99</AltitudeMeters>
            <DistanceMeters>18501.633460753</DistanceMeters>
          </Trackpoint>
          <Trackpoint>
            <Time>2018-04-21T09:03:55.000Z</Time>
            <Position>
              <LatitudeDegrees>43.2652801461517810821533203125</LatitudeDegrees>
              <LongitudeDegrees>-8.36238146759569644927978515625</LongitudeDegrees>
            </Position>
            <AltitudeMeters>99.1999969482421875</AltitudeMeters>
            <DistanceMeters>18508.6538708</DistanceMeters>
          </Trackpoint>
          <Trackpoint>
            <Time>2018-04-21T09:03:58.000Z</Time>
            <Position>
              <LatitudeDegrees>43.2652476243674755096435546875</LatitudeDegrees>
              <LongitudeDegrees>-8.3624982275068759918212890625</LongitudeDegrees>
            </Position>
            <AltitudeMeters>100</AltitudeMeters>
            <DistanceMeters>18518.786142958</DistanceMeters>
          </Trackpoint>
          <Trackpoint>
            <Time>2018-04-21T09:04:02.000Z</Time>
            <Position>
              <LatitudeDegrees>43.26520621776580810546875</LatitudeDegrees>
              <LongitudeDegrees>-8.36265270598232746124267578125</LongitudeDegrees>
            </Position>
            <AltitudeMeters>100.40000152587890625</AltitudeMeters>
            <DistanceMeters>18532.127839509</DistanceMeters>
          </Trackpoint>
          <Trackpoint>
            <Time>2018-04-21T09:04:04.000Z</Time>
            <Position>
              <LatitudeDegrees>43.2651678286492824554443359375</LatitudeDegrees>
              <LongitudeDegrees>-8.3627481758594512939453125</LongitudeDegrees>
            </Position>
            <AltitudeMeters>101.40000152587890625</AltitudeMeters>
            <DistanceMeters>18540.966856502</DistanceMeters>
          </Trackpoint>
          <Trackpoint>
            <Time>2018-04-21T09:04:07.000Z</Time>
            <Position>
              <LatitudeDegrees>43.26509851031005382537841796875</LatitudeDegrees>
              <LongitudeDegrees>-8.36286845616996288299560546875</LongitudeDegrees>
            </Position>
            <AltitudeMeters>101.8000030517578125</AltitudeMeters>
            <DistanceMeters>18553.399023989</DistanceMeters>
          </Trackpoint>
          <Trackpoint>
            <Time>2018-04-21T09:04:10.000Z</Time>
            <Position>
              <LatitudeDegrees>43.2650105841457843780517578125</LatitudeDegrees>
              <LongitudeDegrees>-8.36294875480234622955322265625</LongitudeDegrees>
            </Position>
            <AltitudeMeters>102.40000152587890625</AltitudeMeters>
            <DistanceMeters>18565.151642815</DistanceMeters>
          </Trackpoint>
          <Trackpoint>
            <Time>2018-04-21T09:04:13.000Z</Time>
            <Position>
              <LatitudeDegrees>43.264928273856639862060546875</LatitudeDegrees>
              <LongitudeDegrees>-8.36303877644240856170654296875</LongitudeDegrees>
            </Position>
            <AltitudeMeters>103.1999969482421875</AltitudeMeters>
            <DistanceMeters>18576.863082996</DistanceMeters>
          </Trackpoint>
          <Trackpoint>
            <Time>2018-04-21T09:04:14.000Z</Time>
            <Position>
              <LatitudeDegrees>43.2648986019194126129150390625</LatitudeDegrees>
              <LongitudeDegrees>-8.36306878365576267242431640625</LongitudeDegrees>
            </Position>
            <AltitudeMeters>103.40000152587890625</AltitudeMeters>
            <DistanceMeters>18580.964672007</DistanceMeters>
          </Trackpoint>
          <Trackpoint>
            <Time>2018-04-21T09:04:19.000Z</Time>
            <Position>
              <LatitudeDegrees>43.26473054476082324981689453125</LatitudeDegrees>
              <LongitudeDegrees>-8.36317489854991436004638671875</LongitudeDegrees>
            </Position>
            <AltitudeMeters>104.40000152587890625</AltitudeMeters>
            <DistanceMeters>18601.552380188</DistanceMeters>
          </Trackpoint>
          <Trackpoint>
            <Time>2018-04-21T09:04:20.000Z</Time>
            <Position>
              <LatitudeDegrees>43.26469869352877140045166015625</LatitudeDegrees>
              <LongitudeDegrees>-8.36320272646844387054443359375</LongitudeDegrees>
            </Position>
            <AltitudeMeters>104.59999847412109375</AltitudeMeters>
            <DistanceMeters>18605.754022658</DistanceMeters>
          </Trackpoint>
          <Trackpoint>
            <Time>2018-04-21T09:04:23.000Z</Time>
            <Position>
              <LatitudeDegrees>43.26462459750473499298095703125</LatitudeDegrees>
              <LongitudeDegrees>-8.3633015491068363189697265625</LongitudeDegrees>
            </Position>
            <AltitudeMeters>105.8000030517578125</AltitudeMeters>
            <DistanceMeters>18617.250291567</DistanceMeters>
          </Trackpoint>
          <Trackpoint>
            <Time>2018-04-21T09:04:25.000Z</Time>
            <Position>
              <LatitudeDegrees>43.26458394527435302734375</LatitudeDegrees>
              <LongitudeDegrees>-8.3633612282574176788330078125</LongitudeDegrees>
            </Position>
            <AltitudeMeters>106</AltitudeMeters>
            <DistanceMeters>18623.873592207</DistanceMeters>
          </Trackpoint>
          <Trackpoint>
            <Time>2018-04-21T09:04:27.000Z</Time>
            <Position>
              <LatitudeDegrees>43.26453222893178462982177734375</LatitudeDegrees>
              <LongitudeDegrees>-8.36340992711484432220458984375</LongitudeDegrees>
            </Position>
            <AltitudeMeters>106.8000030517578125</AltitudeMeters>
            <DistanceMeters>18630.853367448</DistanceMeters>
          </Trackpoint>
          <Trackpoint>
            <Time>2018-04-21T09:04:30.000Z</Time>
            <Position>
              <LatitudeDegrees>43.2644265331327915191650390625</LatitudeDegrees>
              <LongitudeDegrees>-8.36345770396292209625244140625</LongitudeDegrees>
            </Position>
            <AltitudeMeters>107</AltitudeMeters>
            <DistanceMeters>18643.238232343</DistanceMeters>
          </Trackpoint>
          <Trackpoint>
            <Time>2018-04-21T09:04:33.000Z</Time>
            <Position>
              <LatitudeDegrees>43.26432972215116024017333984375</LatitudeDegrees>
              <LongitudeDegrees>-8.3635060675442218780517578125</LongitudeDegrees>
            </Position>
            <AltitudeMeters>107.8000030517578125</AltitudeMeters>
            <DistanceMeters>18654.704614206</DistanceMeters>
          </Trackpoint>
          <Trackpoint>
            <Time>2018-04-21T09:04:38.000Z</Time>
            <Position>
              <LatitudeDegrees>43.2641566358506679534912109375</LatitudeDegrees>
              <LongitudeDegrees>-8.36359868757426738739013671875</LongitudeDegrees>
            </Position>
            <AltitudeMeters>108.8000030517578125</AltitudeMeters>
            <DistanceMeters>18675.380514403</DistanceMeters>
          </Trackpoint>
          <Trackpoint>
            <Time>2018-04-21T09:04:47.000Z</Time>
            <Position>
              <LatitudeDegrees>43.26379470527172088623046875</LatitudeDegrees>
              <LongitudeDegrees>-8.3637253381311893463134765625</LongitudeDegrees>
            </Position>
            <AltitudeMeters>109.8000030517578125</AltitudeMeters>
            <DistanceMeters>18716.9514166</DistanceMeters>
          </Trackpoint>
          <Trackpoint>
            <Time>2018-04-21T09:04:48.000Z</Time>
            <Position>
              <LatitudeDegrees>43.26375623233616352081298828125</LatitudeDegrees>
              <LongitudeDegrees>-8.36373816244304180145263671875</LongitudeDegrees>
            </Position>
            <AltitudeMeters>109.8000030517578125</AltitudeMeters>
            <DistanceMeters>18721.35762408</DistanceMeters>
          </Trackpoint>
          <Trackpoint>
            <Time>2018-04-21T09:04:52.000Z</Time>
            <Position>
              <LatitudeDegrees>43.26362111605703830718994140625</LatitudeDegrees>
              <LongitudeDegrees>-8.363825418055057525634765625</LongitudeDegrees>
            </Position>
            <AltitudeMeters>110</AltitudeMeters>
            <DistanceMeters>18737.976163666</DistanceMeters>
          </Trackpoint>
          <Trackpoint>
            <Time>2018-04-21T09:04:58.000Z</Time>
            <Position>
              <LatitudeDegrees>43.26342095620930194854736328125</LatitudeDegrees>
              <LongitudeDegrees>-8.36398936808109283447265625</LongitudeDegrees>
            </Position>
            <AltitudeMeters>110.59999847412109375</AltitudeMeters>
            <DistanceMeters>18763.916194049</DistanceMeters>
          </Trackpoint>
          <Trackpoint>
            <Time>2018-04-21T09:04:59.000Z</Time>
            <Position>
              <LatitudeDegrees>43.26338700950145721435546875</LatitudeDegrees>
              <LongitudeDegrees>-8.3640237338840961456298828125</LongitudeDegrees>
            </Position>
            <AltitudeMeters>110.59999847412109375</AltitudeMeters>
            <DistanceMeters>18768.610167475</DistanceMeters>
          </Trackpoint>
          <Trackpoint>
            <Time>2018-04-21T09:05:00.000Z</Time>
            <Position>
              <LatitudeDegrees>43.26335406862199306488037109375</LatitudeDegrees>
              <LongitudeDegrees>-8.36406572721898555755615234375</LongitudeDegrees>
            </Position>
            <AltitudeMeters>110.59999847412109375</AltitudeMeters>
            <DistanceMeters>18773.612401159</DistanceMeters>
          </Trackpoint>
          <Trackpoint>
            <Time>2018-04-21T09:05:04.000Z</Time>
            <Position>
              <LatitudeDegrees>43.26323018409311771392822265625</LatitudeDegrees>
              <LongitudeDegrees>-8.3642567507922649383544921875</LongitudeDegrees>
            </Position>
            <AltitudeMeters>110.8000030517578125</AltitudeMeters>
            <DistanceMeters>18794.344782564</DistanceMeters>
          </Trackpoint>
          <Trackpoint>
            <Time>2018-04-21T09:05:05.000Z</Time>
            <Position>
              <LatitudeDegrees>43.26319992542266845703125</LatitudeDegrees>
              <LongitudeDegrees>-8.36430327035486698150634765625</LongitudeDegrees>
            </Position>
            <AltitudeMeters>111</AltitudeMeters>
            <DistanceMeters>18799.399989418</DistanceMeters>
          </Trackpoint>
          <Trackpoint>
            <Time>2018-04-21T09:05:11.000Z</Time>
            <Position>
              <LatitudeDegrees>43.26301594264805316925048828125</LatitudeDegrees>
              <LongitudeDegrees>-8.3645551465451717376708984375</LongitudeDegrees>
            </Position>
            <AltitudeMeters>111.8000030517578125</AltitudeMeters>
            <DistanceMeters>18828.315605236</DistanceMeters>
          </Trackpoint>
          <Trackpoint>
            <Time>2018-04-21T09:05:13.000Z</Time>
            <Position>
              <LatitudeDegrees>43.2629610411822795867919921875</LatitudeDegrees>
              <LongitudeDegrees>-8.3646369539201259613037109375</LongitudeDegrees>
            </Position>
            <AltitudeMeters>112.1999969482421875</AltitudeMeters>
            <DistanceMeters>18837.332634031</DistanceMeters>
          </Trackpoint>
          <Trackpoint>
            <Time>2018-04-21T09:05:18.000Z</Time>
            <Position>
              <LatitudeDegrees>43.26282064430415630340576171875</LatitudeDegrees>
              <LongitudeDegrees>-8.3647827990353107452392578125</LongitudeDegrees>
            </Position>
            <AltitudeMeters>112.40000152587890625</AltitudeMeters>
            <DistanceMeters>18856.926580293</DistanceMeters>
          </Trackpoint>
          <Trackpoint>
            <Time>2018-04-21T09:05:21.000Z</Time>
            <Position>
              <LatitudeDegrees>43.26271553523838520050048828125</LatitudeDegrees>
              <LongitudeDegrees>-8.3647921867668628692626953125</LongitudeDegrees>
            </Position>
            <AltitudeMeters>113</AltitudeMeters>
            <DistanceMeters>18868.649965618</DistanceMeters>
          </Trackpoint>
          <Trackpoint>
            <Time>2018-04-21T09:05:22.000Z</Time>
            <Position>
              <LatitudeDegrees>43.26268670149147510528564453125</LatitudeDegrees>
              <LongitudeDegrees>-8.3647757582366466522216796875</LongitudeDegrees>
            </Position>
            <AltitudeMeters>113.1999969482421875</AltitudeMeters>
            <DistanceMeters>18872.123318771</DistanceMeters>
          </Trackpoint>
          <Trackpoint>
            <Time>2018-04-21T09:05:23.000Z</Time>
            <Position>
              <LatitudeDegrees>43.26266105286777019500732421875</LatitudeDegrees>
              <LongitudeDegrees>-8.36475606076419353485107421875</LongitudeDegrees>
            </Position>
            <AltitudeMeters>113.40000152587890625</AltitudeMeters>
            <DistanceMeters>18875.394502133</DistanceMeters>
          </Trackpoint>
          <Trackpoint>
            <Time>2018-04-21T09:05:25.000Z</Time>
            <Position>
              <LatitudeDegrees>43.26261696405708789825439453125</LatitudeDegrees>
              <LongitudeDegrees>-8.36471314541995525360107421875</LongitudeDegrees>
            </Position>
            <AltitudeMeters>113.8000030517578125</AltitudeMeters>
            <DistanceMeters>18881.409025076</DistanceMeters>
          </Trackpoint>
          <Trackpoint>
            <Time>2018-04-21T09:05:28.000Z</Time>
            <Position>
              <LatitudeDegrees>43.2625503279268741607666015625</LatitudeDegrees>
              <LongitudeDegrees>-8.36464139632880687713623046875</LongitudeDegrees>
            </Position>
            <AltitudeMeters>114.59999847412109375</AltitudeMeters>
            <DistanceMeters>18890.83345248</DistanceMeters>
          </Trackpoint>
          <Trackpoint>
            <Time>2018-04-21T09:05:33.000Z</Time>
            <Position>
              <LatitudeDegrees>43.26244262047111988067626953125</LatitudeDegrees>
              <LongitudeDegrees>-8.364518098533153533935546875</LongitudeDegrees>
            </Position>
            <AltitudeMeters>115.59999847412109375</AltitudeMeters>
            <DistanceMeters>18906.440704387</DistanceMeters>
          </Trackpoint>
          <Trackpoint>
            <Time>2018-04-21T09:05:37.000Z</Time>
            <Position>
              <LatitudeDegrees>43.262371122837066650390625</LatitudeDegrees>
              <LongitudeDegrees>-8.36439169943332672119140625</LongitudeDegrees>
            </Position>
            <AltitudeMeters>116.59999847412109375</AltitudeMeters>
            <DistanceMeters>18919.413156145</DistanceMeters>
          </Trackpoint>
          <Trackpoint>
            <Time>2018-04-21T09:05:38.000Z</Time>
            <Position>
              <LatitudeDegrees>43.26235444284975528717041015625</LatitudeDegrees>
              <LongitudeDegrees>-8.36435540579259395599365234375</LongitudeDegrees>
            </Position>
            <AltitudeMeters>117</AltitudeMeters>
            <DistanceMeters>18922.891705043</DistanceMeters>
          </Trackpoint>
          <Trackpoint>
            <Time>2018-04-21T09:05:42.000Z</Time>
            <Position>
              <LatitudeDegrees>43.26229090802371501922607421875</LatitudeDegrees>
              <LongitudeDegrees>-8.36420939303934574127197265625</LongitudeDegrees>
            </Position>
            <AltitudeMeters>118</AltitudeMeters>
            <DistanceMeters>18936.678113168</DistanceMeters>
          </Trackpoint>
          <Trackpoint>
            <Time>2018-04-21T09:05:44.000Z</Time>
            <Position>
              <LatitudeDegrees>43.262262828648090362548828125</LatitudeDegrees>
              <LongitudeDegrees>-8.36413177661597728729248046875</LongitudeDegrees>
            </Position>
            <AltitudeMeters>118.59999847412109375</AltitudeMeters>
            <DistanceMeters>18943.703023685</DistanceMeters>
          </Trackpoint>
          <Trackpoint>
            <Time>2018-04-21T09:05:46.000Z</Time>
            <Position>
              <LatitudeDegrees>43.26223977841436862945556640625</LatitudeDegrees>
              <LongitudeDegrees>-8.36404695175588130950927734375</LongitudeDegrees>
            </Position>
            <AltitudeMeters>119</AltitudeMeters>
            <DistanceMeters>18951.041645893</DistanceMeters>
          </Trackpoint>
          <Trackpoint>
            <Time>2018-04-21T09:05:51.000Z</Time>
            <Position>
              <LatitudeDegrees>43.262162916362285614013671875</LatitudeDegrees>
              <LongitudeDegrees>-8.3638534136116504669189453125</LongitudeDegrees>
            </Position>
            <AltitudeMeters>120.1999969482421875</AltitudeMeters>
            <DistanceMeters>18968.909700704</DistanceMeters>
          </Trackpoint>
          <Trackpoint>
            <Time>2018-04-21T09:05:52.000Z</Time>
            <Position>
              <LatitudeDegrees>43.2621416263282299041748046875</LatitudeDegrees>
              <LongitudeDegrees>-8.36382038891315460205078125</LongitudeDegrees>
            </Position>
            <AltitudeMeters>120.40000152587890625</AltitudeMeters>
            <DistanceMeters>18972.485534627</DistanceMeters>
          </Trackpoint>
          <Trackpoint>
            <Time>2018-04-21T09:05:53.000Z</Time>
            <Position>
              <LatitudeDegrees>43.2621211744844913482666015625</LatitudeDegrees>
              <LongitudeDegrees>-8.36378811858594417572021484375</LongitudeDegrees>
            </Position>
            <AltitudeMeters>120.59999847412109375</AltitudeMeters>
            <DistanceMeters>18975.953684252</DistanceMeters>
          </Trackpoint>
          <Trackpoint>
            <Time>2018-04-21T09:05:59.000Z</Time>
            <Position>
              <LatitudeDegrees>43.26198614202439785003662109375</LatitudeDegrees>
              <LongitudeDegrees>-8.363584689795970916748046875</LongitudeDegrees>
            </Position>
            <AltitudeMeters>121.1999969482421875</AltitudeMeters>
            <DistanceMeters>18998.264127407</DistanceMeters>
          </Trackpoint>
          <Trackpoint>
            <Time>2018-04-21T09:06:00.000Z</Time>
            <Position>
              <LatitudeDegrees>43.26195931993424892425537109375</LatitudeDegrees>
              <LongitudeDegrees>-8.36355795152485370635986328125</LongitudeDegrees>
            </Position>
            <AltitudeMeters>121.59999847412109375</AltitudeMeters>
            <DistanceMeters>19001.953073761</DistanceMeters>
          </Trackpoint>
          <Trackpoint>
            <Time>2018-04-21T09:06:08.000Z</Time>
            <Position>
              <LatitudeDegrees>43.26172295026481151580810546875</LatitudeDegrees>
              <LongitudeDegrees>-8.363356031477451324462890625</LongitudeDegrees>
            </Position>
            <AltitudeMeters>122</AltitudeMeters>
            <DistanceMeters>19032.93673763</DistanceMeters>
          </Trackpoint>
          <Trackpoint>
            <Time>2018-04-21T09:06:10.000Z</Time>
            <Position>
              <LatitudeDegrees>43.2616563141345977783203125</LatitudeDegrees>
              <LongitudeDegrees>-8.36331739090383052825927734375</LongitudeDegrees>
            </Position>
            <AltitudeMeters>122.40000152587890625</AltitudeMeters>
            <DistanceMeters>19040.9865717</DistanceMeters>
          </Trackpoint>
          <Trackpoint>
            <Time>2018-04-21T09:06:18.000Z</Time>
            <Position>
              <LatitudeDegrees>43.26138666830956935882568359375</LatitudeDegrees>
              <LongitudeDegrees>-8.363172970712184906005859375</LongitudeDegrees>
            </Position>
            <AltitudeMeters>123.40000152587890625</AltitudeMeters>
            <DistanceMeters>19073.200627872</DistanceMeters>
          </Trackpoint>
          <Trackpoint>
            <Time>2018-04-21T09:06:19.000Z</Time>
            <Position>
              <LatitudeDegrees>43.26134878210723400115966796875</LatitudeDegrees>
              <LongitudeDegrees>-8.36315997876226902008056640625</LongitudeDegrees>
            </Position>
            <AltitudeMeters>123.59999847412109375</AltitudeMeters>
            <DistanceMeters>19077.546996462</DistanceMeters>
          </Trackpoint>
          <Trackpoint>
            <Time>2018-04-21T09:06:24.000Z</Time>
            <Position>
              <LatitudeDegrees>43.26117158867418766021728515625</LatitudeDegrees>
              <LongitudeDegrees>-8.36308990605175495147705078125</LongitudeDegrees>
            </Position>
            <AltitudeMeters>124.1999969482421875</AltitudeMeters>
            <DistanceMeters>19098.070566955</DistanceMeters>
          </Trackpoint>
          <Trackpoint>
            <Time>2018-04-21T09:06:25.000Z</Time>
            <Position>
              <LatitudeDegrees>43.26113973744213581085205078125</LatitudeDegrees>
              <LongitudeDegrees>-8.36307347752153873443603515625</LongitudeDegrees>
            </Position>
            <AltitudeMeters>124.8000030517578125</AltitudeMeters>
            <DistanceMeters>19101.857354696</DistanceMeters>
          </Trackpoint>
          <Trackpoint>
            <Time>2018-04-21T09:06:31.000Z</Time>
            <Position>
              <LatitudeDegrees>43.26095500029623508453369140625</LatitudeDegrees>
              <LongitudeDegrees>-8.363008685410022735595703125</LongitudeDegrees>
            </Position>
            <AltitudeMeters>125.40000152587890625</AltitudeMeters>
            <DistanceMeters>19123.078758335</DistanceMeters>
          </Trackpoint>
          <Trackpoint>
            <Time>2018-04-21T09:06:33.000Z</Time>
            <Position>
              <LatitudeDegrees>43.26089398004114627838134765625</LatitudeDegrees>
              <LongitudeDegrees>-8.36300457827746868133544921875</LongitudeDegrees>
            </Position>
            <AltitudeMeters>126</AltitudeMeters>
            <DistanceMeters>19129.878316511</DistanceMeters>
          </Trackpoint>
          <Trackpoint>
            <Time>2018-04-21T09:06:38.000Z</Time>
            <Position>
              <LatitudeDegrees>43.2607455365359783172607421875</LatitudeDegrees>
              <LongitudeDegrees>-8.36303207091987133026123046875</LongitudeDegrees>
            </Position>
            <AltitudeMeters>126.59999847412109375</AltitudeMeters>
            <DistanceMeters>19146.550021672</DistanceMeters>
          </Trackpoint>
          <Trackpoint>
            <Time>2018-04-21T09:06:39.000Z</Time>
            <Position>
              <LatitudeDegrees>43.26071527786552906036376953125</LatitudeDegrees>
              <LongitudeDegrees>-8.36303852498531341552734375</LongitudeDegrees>
            </Position>
            <AltitudeMeters>127</AltitudeMeters>
            <DistanceMeters>19149.957759676</DistanceMeters>
          </Trackpoint>
          <Trackpoint>
            <Time>2018-04-21T09:06:45.000Z</Time>
            <Position>
              <LatitudeDegrees>43.26052349992096424102783203125</LatitudeDegrees>
              <LongitudeDegrees>-8.363096527755260467529296875</LongitudeDegrees>
            </Position>
            <AltitudeMeters>128.1999969482421875</AltitudeMeters>
            <DistanceMeters>19171.814730285</DistanceMeters>
          </Trackpoint>
          <Trackpoint>
            <Time>2018-04-21T09:06:47.000Z</Time>
            <Position>
              <LatitudeDegrees>43.2604679279029369354248046875</LatitudeDegrees>
              <LongitudeDegrees>-8.36313231848180294036865234375</LongitudeDegrees>
            </Position>
            <AltitudeMeters>129</AltitudeMeters>
            <DistanceMeters>19178.646087036</DistanceMeters>
          </Trackpoint>
          <Trackpoint>
            <Time>2018-04-21T09:06:50.000Z</Time>
            <Position>
              <LatitudeDegrees>43.26040347106754779815673828125</LatitudeDegrees>
              <LongitudeDegrees>-8.36317875422537326812744140625</LongitudeDegrees>
            </Position>
            <AltitudeMeters>129.1999969482421875</AltitudeMeters>
            <DistanceMeters>19186.747358269</DistanceMeters>
          </Trackpoint>
          <Trackpoint>
            <Time>2018-04-21T09:06:52.000Z</Time>
            <Position>
              <LatitudeDegrees>43.2603623159229755401611328125</LatitudeDegrees>
              <LongitudeDegrees>-8.36320817470550537109375</LongitudeDegrees>
            </Position>
            <AltitudeMeters>130</AltitudeMeters>
            <DistanceMeters>19191.912127946</DistanceMeters>
          </Trackpoint>
          <Trackpoint>
            <Time>2018-04-21T09:06:54.000Z</Time>
            <Position>
              <LatitudeDegrees>43.26033105142414569854736328125</LatitudeDegrees>
              <LongitudeDegrees>-8.36323658935725688934326171875</LongitudeDegrees>
            </Position>
            <AltitudeMeters>130.1999969482421875</AltitudeMeters>
            <DistanceMeters>19196.08573759</DistanceMeters>
          </Trackpoint>
          <Trackpoint>
            <Time>2018-04-21T09:06:57.000Z</Time>
            <Position>
              <LatitudeDegrees>43.26029651798307895660400390625</LatitudeDegrees>
              <LongitudeDegrees>-8.3632673509418964385986328125</LongitudeDegrees>
            </Position>
            <AltitudeMeters>131.399993896484375</AltitudeMeters>
            <DistanceMeters>19200.666774335</DistanceMeters>
          </Trackpoint>
          <Trackpoint>
            <Time>2018-04-21T09:06:58.000Z</Time>
            <Position>
              <LatitudeDegrees>43.2602857053279876708984375</LatitudeDegrees>
              <LongitudeDegrees>-8.363282941281795501708984375</LongitudeDegrees>
            </Position>
            <AltitudeMeters>131.8000030517578125</AltitudeMeters>
            <DistanceMeters>19202.411232922</DistanceMeters>
          </Trackpoint>
          <Trackpoint>
            <Time>2018-04-21T09:07:01.000Z</Time>
            <Position>
              <LatitudeDegrees>43.26025527901947498321533203125</LatitudeDegrees>
              <LongitudeDegrees>-8.36332325823605060577392578125</LongitudeDegrees>
            </Position>
            <AltitudeMeters>132.600006103515625</AltitudeMeters>
            <DistanceMeters>19207.116734748</DistanceMeters>
          </Trackpoint>
          <Trackpoint>
            <Time>2018-04-21T09:07:05.000Z</Time>
            <Position>
              <LatitudeDegrees>43.2602134533226490020751953125</LatitudeDegrees>
              <LongitudeDegrees>-8.36339668370783329010009765625</LongitudeDegrees>
            </Position>
            <AltitudeMeters>133.600006103515625</AltitudeMeters>
            <DistanceMeters>19214.671806767</DistanceMeters>
          </Trackpoint>
          <Trackpoint>
            <Time>2018-04-21T09:07:08.000Z</Time>
            <Position>
              <LatitudeDegrees>43.2601886428892612457275390625</LatitudeDegrees>
              <LongitudeDegrees>-8.36345787160098552703857421875</LongitudeDegrees>
            </Position>
            <AltitudeMeters>134.8000030517578125</AltitudeMeters>
            <DistanceMeters>19220.348012608</DistanceMeters>
          </Trackpoint>
          <Trackpoint>
            <Time>2018-04-21T09:07:11.000Z</Time>
            <Position>
              <LatitudeDegrees>43.260153941810131072998046875</LatitudeDegrees>
              <LongitudeDegrees>-8.36350749246776103973388671875</LongitudeDegrees>
            </Position>
            <AltitudeMeters>136</AltitudeMeters>
            <DistanceMeters>19225.925522209</DistanceMeters>
          </Trackpoint>
          <Trackpoint>
            <Time>2018-04-21T09:07:12.000Z</Time>
            <Position>
              <LatitudeDegrees>43.26014153659343719482421875</LatitudeDegrees>
              <LongitudeDegrees>-8.3635261841118335723876953125</LongitudeDegrees>
            </Position>
            <AltitudeMeters>136.1999969482421875</AltitudeMeters>
            <DistanceMeters>19227.976867042</DistanceMeters>
          </Trackpoint>
          <Trackpoint>
            <Time>2018-04-21T09:07:15.000Z</Time>
            <Position>
              <LatitudeDegrees>43.26011178083717823028564453125</LatitudeDegrees>
              <LongitudeDegrees>-8.36358192376792430877685546875</LongitudeDegrees>
            </Position>
            <AltitudeMeters>137.1999969482421875</AltitudeMeters>
            <DistanceMeters>19233.577803175</DistanceMeters>
          </Trackpoint>
          <Trackpoint>
            <Time>2018-04-21T09:07:19.000Z</Time>
            <Position>
              <LatitudeDegrees>43.26005729846656322479248046875</LatitudeDegrees>
              <LongitudeDegrees>-8.36367127485573291778564453125</LongitudeDegrees>
            </Position>
            <AltitudeMeters>138.1999969482421875</AltitudeMeters>
            <DistanceMeters>19243.024242473</DistanceMeters>
          </Trackpoint>
          <Trackpoint>
            <Time>2018-04-21T09:07:20.000Z</Time>
            <Position>
              <LatitudeDegrees>43.26002444140613079071044921875</LatitudeDegrees>
              <LongitudeDegrees>-8.36369206197559833526611328125</LongitudeDegrees>
            </Position>
            <AltitudeMeters>138.1999969482421875</AltitudeMeters>
            <DistanceMeters>19247.051402427</DistanceMeters>
          </Trackpoint>
          <Trackpoint>
            <Time>2018-04-21T09:07:24.000Z</Time>
            <Position>
              <LatitudeDegrees>43.25991128571331501007080078125</LatitudeDegrees>
              <LongitudeDegrees>-8.363750986754894256591796875</LongitudeDegrees>
            </Position>
            <AltitudeMeters>139.600006103515625</AltitudeMeters>
            <DistanceMeters>19260.521083043</DistanceMeters>
          </Trackpoint>
          <Trackpoint>
            <Time>2018-04-21T09:07:27.000Z</Time>
            <Position>
              <LatitudeDegrees>43.259831406176090240478515625</LatitudeDegrees>
              <LongitudeDegrees>-8.36378996260464191436767578125</LongitudeDegrees>
            </Position>
            <AltitudeMeters>140.600006103515625</AltitudeMeters>
            <DistanceMeters>19269.956044283</DistanceMeters>
          </Trackpoint>
          <Trackpoint>
            <Time>2018-04-21T09:07:28.000Z</Time>
            <Position>
              <LatitudeDegrees>43.25979695655405521392822265625</LatitudeDegrees>
              <LongitudeDegrees>-8.363805972039699554443359375</LongitudeDegrees>
            </Position>
            <AltitudeMeters>140.8000030517578125</AltitudeMeters>
            <DistanceMeters>19274.005565097</DistanceMeters>
          </Trackpoint>
          <Trackpoint>
            <Time>2018-04-21T09:07:33.000Z</Time>
            <Position>
              <LatitudeDegrees>43.259663768112659454345703125</LatitudeDegrees>
              <LongitudeDegrees>-8.3638819120824337005615234375</LongitudeDegrees>
            </Position>
            <AltitudeMeters>142</AltitudeMeters>
            <DistanceMeters>19290.056924575</DistanceMeters>
          </Trackpoint>
          <Trackpoint>
            <Time>2018-04-21T09:07:34.000Z</Time>
            <Position>
              <LatitudeDegrees>43.2596384547650814056396484375</LatitudeDegrees>
              <LongitudeDegrees>-8.363897502422332763671875</LongitudeDegrees>
            </Position>
            <AltitudeMeters>142.1999969482421875</AltitudeMeters>
            <DistanceMeters>19293.144927283</DistanceMeters>
          </Trackpoint>
          <Trackpoint>
            <Time>2018-04-21T09:07:38.000Z</Time>
            <Position>
              <LatitudeDegrees>43.25953460298478603363037109375</LatitudeDegrees>
              <LongitudeDegrees>-8.363948129117488861083984375</LongitudeDegrees>
            </Position>
            <AltitudeMeters>143.1999969482421875</AltitudeMeters>
            <DistanceMeters>19305.410737636</DistanceMeters>
          </Trackpoint>
          <Trackpoint>
            <Time>2018-04-21T09:07:42.000Z</Time>
            <Position>
              <LatitudeDegrees>43.25944659300148487091064453125</LatitudeDegrees>
              <LongitudeDegrees>-8.364003784954547882080078125</LongitudeDegrees>
            </Position>
            <AltitudeMeters>144</AltitudeMeters>
            <DistanceMeters>19316.194909117</DistanceMeters>
          </Trackpoint>
          <Trackpoint>
            <Time>2018-04-21T09:07:43.000Z</Time>
            <Position>
              <LatitudeDegrees>43.259426057338714599609375</LatitudeDegrees>
              <LongitudeDegrees>-8.36401510052382946014404296875</LongitudeDegrees>
            </Position>
            <AltitudeMeters>144.1999969482421875</AltitudeMeters>
            <DistanceMeters>19318.656449548</DistanceMeters>
          </Trackpoint>
          <Trackpoint>
            <Time>2018-04-21T09:07:47.000Z</Time>
            <Position>
              <LatitudeDegrees>43.2593357004225254058837890625</LatitudeDegrees>
              <LongitudeDegrees>-8.364069163799285888671875</LongitudeDegrees>
            </Position>
            <AltitudeMeters>145.399993896484375</AltitudeMeters>
            <DistanceMeters>19329.626583037</DistanceMeters>
          </Trackpoint>
          <Trackpoint>
            <Time>2018-04-21T09:07:49.000Z</Time>
            <Position>
              <LatitudeDegrees>43.25929261744022369384765625</LatitudeDegrees>
              <LongitudeDegrees>-8.364094309508800506591796875</LongitudeDegrees>
            </Position>
            <AltitudeMeters>145.8000030517578125</AltitudeMeters>
            <DistanceMeters>19334.8374793</DistanceMeters>
          </Trackpoint>
          <Trackpoint>
            <Time>2018-04-21T09:07:52.000Z</Time>
            <Position>
              <LatitudeDegrees>43.25921542011201381683349609375</LatitudeDegrees>
              <LongitudeDegrees>-8.36410545744001865386962890625</LongitudeDegrees>
            </Position>
            <AltitudeMeters>146.399993896484375</AltitudeMeters>
            <DistanceMeters>19343.477074886</DistanceMeters>
          </Trackpoint>
          <Trackpoint>
            <Time>2018-04-21T09:07:54.000Z</Time>
            <Position>
              <LatitudeDegrees>43.25916764326393604278564453125</LatitudeDegrees>
              <LongitudeDegrees>-8.36407880298793315887451171875</LongitudeDegrees>
            </Position>
            <AltitudeMeters>146.8000030517578125</AltitudeMeters>
            <DistanceMeters>19349.218135679</DistanceMeters>
          </Trackpoint>
          <Trackpoint>
            <Time>2018-04-21T09:07:58.000Z</Time>
            <Position>
              <LatitudeDegrees>43.25909941457211971282958984375</LatitudeDegrees>
              <LongitudeDegrees>-8.363974951207637786865234375</LongitudeDegrees>
            </Position>
            <AltitudeMeters>147.399993896484375</AltitudeMeters>
            <DistanceMeters>19360.555424071</DistanceMeters>
          </Trackpoint>
          <Trackpoint>
            <Time>2018-04-21T09:08:00.000Z</Time>
            <Position>
              <LatitudeDegrees>43.2590647973120212554931640625</LatitudeDegrees>
              <LongitudeDegrees>-8.36392097175121307373046875</LongitudeDegrees>
            </Position>
            <AltitudeMeters>147.600006103515625</AltitudeMeters>
            <DistanceMeters>19366.385450464</DistanceMeters>
          </Trackpoint>
          <Trackpoint>
            <Time>2018-04-21T09:08:05.000Z</Time>
            <Position>
              <LatitudeDegrees>43.25897200964391231536865234375</LatitudeDegrees>
              <LongitudeDegrees>-8.36377671919763088226318359375</LongitudeDegrees>
            </Position>
            <AltitudeMeters>148.399993896484375</AltitudeMeters>
            <DistanceMeters>19381.986047257</DistanceMeters>
          </Trackpoint>
          <Trackpoint>
            <Time>2018-04-21T09:08:06.000Z</Time>
            <Position>
              <LatitudeDegrees>43.25894921086728572845458984375</LatitudeDegrees>
              <LongitudeDegrees>-8.3637447841465473175048828125</LongitudeDegrees>
            </Position>
            <AltitudeMeters>148.8000030517578125</AltitudeMeters>
            <DistanceMeters>19385.609544346</DistanceMeters>
          </Trackpoint>
          <Trackpoint>
            <Time>2018-04-21T09:08:13.000Z</Time>
            <Position>
              <LatitudeDegrees>43.258818201720714569091796875</LatitudeDegrees>
              <LongitudeDegrees>-8.3635099232196807861328125</LongitudeDegrees>
            </Position>
            <AltitudeMeters>149.8000030517578125</AltitudeMeters>
            <DistanceMeters>19409.589437339</DistanceMeters>
          </Trackpoint>
          <Trackpoint>
            <Time>2018-04-21T09:08:15.000Z</Time>
            <Position>
              <LatitudeDegrees>43.2587809860706329345703125</LatitudeDegrees>
              <LongitudeDegrees>-8.3634423650801181793212890625</LongitudeDegrees>
            </Position>
            <AltitudeMeters>150</AltitudeMeters>
            <DistanceMeters>19416.456391481</DistanceMeters>
          </Trackpoint>
          <Trackpoint>
            <Time>2018-04-21T09:08:19.000Z</Time>
            <Position>
              <LatitudeDegrees>43.25869448482990264892578125</LatitudeDegrees>
              <LongitudeDegrees>-8.3633525110781192779541015625</LongitudeDegrees>
            </Position>
            <AltitudeMeters>151</AltitudeMeters>
            <DistanceMeters>19428.528150825</DistanceMeters>
          </Trackpoint>
          <Trackpoint>
            <Time>2018-04-21T09:08:21.000Z</Time>
            <Position>
              <LatitudeDegrees>43.258657269179821014404296875</LatitudeDegrees>
              <LongitudeDegrees>-8.3633290417492389678955078125</LongitudeDegrees>
            </Position>
            <AltitudeMeters>151.600006103515625</AltitudeMeters>
            <DistanceMeters>19433.087452961</DistanceMeters>
          </Trackpoint>
          <Trackpoint>
            <Time>2018-04-21T09:08:23.000Z</Time>
            <Position>
              <LatitudeDegrees>43.25862131081521511077880859375</LatitudeDegrees>
              <LongitudeDegrees>-8.3633082546293735504150390625</LongitudeDegrees>
            </Position>
            <AltitudeMeters>152.1999969482421875</AltitudeMeters>
            <DistanceMeters>19437.430704012</DistanceMeters>
          </Trackpoint>
          <Trackpoint>
            <Time>2018-04-21T09:08:28.000Z</Time>
            <Position>
              <LatitudeDegrees>43.2585179619491100311279296875</LatitudeDegrees>
              <LongitudeDegrees>-8.36324497126042842864990234375</LongitudeDegrees>
            </Position>
            <AltitudeMeters>153.399993896484375</AltitudeMeters>
            <DistanceMeters>19450.025597934</DistanceMeters>
          </Trackpoint>
          <Trackpoint>
            <Time>2018-04-21T09:08:29.000Z</Time>
            <Position>
              <LatitudeDegrees>43.2584998570382595062255859375</LatitudeDegrees>
              <LongitudeDegrees>-8.3632311411201953887939453125</LongitudeDegrees>
            </Position>
            <AltitudeMeters>153.600006103515625</AltitudeMeters>
            <DistanceMeters>19452.331831882</DistanceMeters>
          </Trackpoint>
          <Trackpoint>
            <Time>2018-04-21T09:08:31.000Z</Time>
            <Position>
              <LatitudeDegrees>43.2584602944552898406982421875</LatitudeDegrees>
              <LongitudeDegrees>-8.36320557631552219390869140625</LongitudeDegrees>
            </Position>
            <AltitudeMeters>154.1999969482421875</AltitudeMeters>
            <DistanceMeters>19457.199574746</DistanceMeters>
          </Trackpoint>
          <Trackpoint>
            <Time>2018-04-21T09:08:32.000Z</Time>
            <Position>
              <LatitudeDegrees>43.2584421895444393157958984375</LatitudeDegrees>
              <LongitudeDegrees>-8.36318981833755970001220703125</LongitudeDegrees>
            </Position>
            <AltitudeMeters>154.399993896484375</AltitudeMeters>
            <DistanceMeters>19459.586618574</DistanceMeters>
          </Trackpoint>
          <Trackpoint>
            <Time>2018-04-21T09:08:36.000Z</Time>
            <Position>
              <LatitudeDegrees>43.2583690993487834930419921875</LatitudeDegrees>
              <LongitudeDegrees>-8.36313231848180294036865234375</LongitudeDegrees>
            </Position>
            <AltitudeMeters>155.600006103515625</AltitudeMeters>
            <DistanceMeters>19468.963015764</DistanceMeters>
          </Trackpoint>
          <Trackpoint>
            <Time>2018-04-21T09:08:37.000Z</Time>
            <Position>
              <LatitudeDegrees>43.25835241936147212982177734375</LatitudeDegrees>
              <LongitudeDegrees>-8.36311538703739643096923828125</LongitudeDegrees>
            </Position>
            <AltitudeMeters>156</AltitudeMeters>
            <DistanceMeters>19471.271206636</DistanceMeters>
          </Trackpoint>
          <Trackpoint>
            <Time>2018-04-21T09:08:41.000Z</Time>
            <Position>
              <LatitudeDegrees>43.2582862861454486846923828125</LatitudeDegrees>
              <LongitudeDegrees>-8.36301497183740139007568359375</LongitudeDegrees>
            </Position>
            <AltitudeMeters>157</AltitudeMeters>
            <DistanceMeters>19482.245866521</DistanceMeters>
          </Trackpoint>
          <Trackpoint>
            <Time>2018-04-21T09:08:43.000Z</Time>
            <Position>
              <LatitudeDegrees>43.25825954787433147430419921875</LatitudeDegrees>
              <LongitudeDegrees>-8.3629471622407436370849609375</LongitudeDegrees>
            </Position>
            <AltitudeMeters>157.1999969482421875</AltitudeMeters>
            <DistanceMeters>19488.497439991</DistanceMeters>
          </Trackpoint>
          <Trackpoint>
            <Time>2018-04-21T09:08:47.000Z</Time>
            <Position>
              <LatitudeDegrees>43.258212693035602569580078125</LatitudeDegrees>
              <LongitudeDegrees>-8.36279553361237049102783203125</LongitudeDegrees>
            </Position>
            <AltitudeMeters>158.1999969482421875</AltitudeMeters>
            <DistanceMeters>19501.849285151</DistanceMeters>
          </Trackpoint>
          <Trackpoint>
            <Time>2018-04-21T09:08:52.000Z</Time>
            <Position>
              <LatitudeDegrees>43.25813801027834415435791015625</LatitudeDegrees>
              <LongitudeDegrees>-8.3626293204724788665771484375</LongitudeDegrees>
            </Position>
            <AltitudeMeters>158.600006103515625</AltitudeMeters>
            <DistanceMeters>19517.680290855</DistanceMeters>
          </Trackpoint>
          <Trackpoint>
            <Time>2018-04-21T09:08:58.000Z</Time>
            <Position>
              <LatitudeDegrees>43.25800457037985324859619140625</LatitudeDegrees>
              <LongitudeDegrees>-8.36240543983876705169677734375</LongitudeDegrees>
            </Position>
            <AltitudeMeters>159</AltitudeMeters>
            <DistanceMeters>19541.130527427</DistanceMeters>
          </Trackpoint>
          <Trackpoint>
            <Time>2018-04-21T09:08:59.000Z</Time>
            <Position>
              <LatitudeDegrees>43.25798193924129009246826171875</LatitudeDegrees>
              <LongitudeDegrees>-8.3623584173619747161865234375</LongitudeDegrees>
            </Position>
            <AltitudeMeters>159.1999969482421875</AltitudeMeters>
            <DistanceMeters>19545.699721748</DistanceMeters>
          </Trackpoint>
          <Trackpoint>
            <Time>2018-04-21T09:09:06.000Z</Time>
            <Position>
              <LatitudeDegrees>43.257823102176189422607421875</LatitudeDegrees>
              <LongitudeDegrees>-8.36203311569988727569580078125</LongitudeDegrees>
            </Position>
            <AltitudeMeters>159.399993896484375</AltitudeMeters>
            <DistanceMeters>19577.446325218</DistanceMeters>
          </Trackpoint>
          <Trackpoint>
            <Time>2018-04-21T09:09:08.000Z</Time>
            <Position>
              <LatitudeDegrees>43.257759399712085723876953125</LatitudeDegrees>
              <LongitudeDegrees>-8.361917026340961456298828125</LongitudeDegrees>
            </Position>
            <AltitudeMeters>159</AltitudeMeters>
            <DistanceMeters>19589.228488227</DistanceMeters>
          </Trackpoint>
          <Trackpoint>
            <Time>2018-04-21T09:09:10.000Z</Time>
            <Position>
              <LatitudeDegrees>43.25768656097352504730224609375</LatitudeDegrees>
              <LongitudeDegrees>-8.36177562363445758819580078125</LongitudeDegrees>
            </Position>
            <AltitudeMeters>158.399993896484375</AltitudeMeters>
            <DistanceMeters>19603.268022002</DistanceMeters>
          </Trackpoint>
          <Trackpoint>
            <Time>2018-04-21T09:09:11.000Z</Time>
            <Position>
              <LatitudeDegrees>43.2576465792953968048095703125</LatitudeDegrees>
              <LongitudeDegrees>-8.361702449619770050048828125</LongitudeDegrees>
            </Position>
            <AltitudeMeters>158.1999969482421875</AltitudeMeters>
            <DistanceMeters>19610.683150826</DistanceMeters>
          </Trackpoint>
          <Trackpoint>
            <Time>2018-04-21T09:09:13.000Z</Time>
            <Position>
              <LatitudeDegrees>43.25756116770207881927490234375</LatitudeDegrees>
              <LongitudeDegrees>-8.36155593395233154296875</LongitudeDegrees>
            </Position>
            <AltitudeMeters>157.399993896484375</AltitudeMeters>
            <DistanceMeters>19625.89573769</DistanceMeters>
          </Trackpoint>
          <Trackpoint>
            <Time>2018-04-21T09:09:17.000Z</Time>
            <Position>
              <LatitudeDegrees>43.25737995095551013946533203125</LatitudeDegrees>
              <LongitudeDegrees>-8.36127572692930698394775390625</LongitudeDegrees>
            </Position>
            <AltitudeMeters>157.399993896484375</AltitudeMeters>
            <DistanceMeters>19656.272197842</DistanceMeters>
          </Trackpoint>
          <Trackpoint>
            <Time>2018-04-21T09:09:18.000Z</Time>
            <Position>
              <LatitudeDegrees>43.25733871199190616607666015625</LatitudeDegrees>
              <LongitudeDegrees>-8.36119911633431911468505859375</LongitudeDegrees>
            </Position>
            <AltitudeMeters>156.8000030517578125</AltitudeMeters>
            <DistanceMeters>19663.994543654</DistanceMeters>
          </Trackpoint>
          <Trackpoint>
            <Time>2018-04-21T09:09:21.000Z</Time>
            <Position>
              <LatitudeDegrees>43.25722857378423213958740234375</LatitudeDegrees>
              <LongitudeDegrees>-8.36100515909492969512939453125</LongitudeDegrees>
            </Position>
            <AltitudeMeters>156.8000030517578125</AltitudeMeters>
            <DistanceMeters>19683.930686325</DistanceMeters>
          </Trackpoint>
          <Trackpoint>
            <Time>2018-04-21T09:10:58.000Z</Time>
            <Position>
              <LatitudeDegrees>43.2571341097354888916015625</LatitudeDegrees>
              <LongitudeDegrees>-8.36083643138408660888671875</LongitudeDegrees>
            </Position>
            <AltitudeMeters>156.1999969482421875</AltitudeMeters>
            <DistanceMeters>19701.181895829</DistanceMeters>
          </Trackpoint>
          <Trackpoint>
            <Time>2018-04-21T09:10:59.000Z</Time>
            <Position>
              <LatitudeDegrees>43.257123716175556182861328125</LatitudeDegrees>
              <LongitudeDegrees>-8.36082612164318561553955078125</LongitudeDegrees>
            </Position>
            <AltitudeMeters>156.399993896484375</AltitudeMeters>
            <DistanceMeters>19702.61046059</DistanceMeters>
          </Trackpoint>
          <Trackpoint>
            <Time>2018-04-21T09:11:04.000Z</Time>
            <Position>
              <LatitudeDegrees>43.25706772506237030029296875</LatitudeDegrees>
              <LongitudeDegrees>-8.36075328290462493896484375</LongitudeDegrees>
            </Position>
            <AltitudeMeters>156.399993896484375</AltitudeMeters>
            <DistanceMeters>19711.195007978</DistanceMeters>
          </Trackpoint>
          <Trackpoint>
            <Time>2018-04-21T09:11:06.000Z</Time>
            <Position>
              <LatitudeDegrees>43.25704635120928287506103515625</LatitudeDegrees>
              <LongitudeDegrees>-8.360716067254543304443359375</LongitudeDegrees>
            </Position>
            <AltitudeMeters>154.8000030517578125</AltitudeMeters>
            <DistanceMeters>19715.036250604</DistanceMeters>
          </Trackpoint>
          <Trackpoint>
            <Time>2018-04-21T09:11:07.000Z</Time>
            <Position>
              <LatitudeDegrees>43.25703294016420841217041015625</LatitudeDegrees>
              <LongitudeDegrees>-8.36069452576339244842529296875</LongitudeDegrees>
            </Position>
            <AltitudeMeters>156</AltitudeMeters>
            <DistanceMeters>19717.332674921</DistanceMeters>
          </Trackpoint>
          <Trackpoint>
            <Time>2018-04-21T09:11:09.000Z</Time>
            <Position>
              <LatitudeDegrees>43.25700041837990283966064453125</LatitudeDegrees>
              <LongitudeDegrees>-8.36064733564853668212890625</LongitudeDegrees>
            </Position>
            <AltitudeMeters>159.600006103515625</AltitudeMeters>
            <DistanceMeters>19722.599590037</DistanceMeters>
          </Trackpoint>
          <Trackpoint>
            <Time>2018-04-21T09:11:10.000Z</Time>
            <Position>
              <LatitudeDegrees>43.25698248110711574554443359375</LatitudeDegrees>
              <LongitudeDegrees>-8.36062051355838775634765625</LongitudeDegrees>
            </Position>
            <AltitudeMeters>157.1999969482421875</AltitudeMeters>
            <DistanceMeters>19725.551542572</DistanceMeters>
          </Trackpoint>
          <Trackpoint>
            <Time>2018-04-21T09:11:12.000Z</Time>
            <Position>
              <LatitudeDegrees>43.256938643753528594970703125</LatitudeDegrees>
              <LongitudeDegrees>-8.3605663664638996124267578125</LongitudeDegrees>
            </Position>
            <AltitudeMeters>157.399993896484375</AltitudeMeters>
            <DistanceMeters>19732.113892346</DistanceMeters>
          </Trackpoint>
          <Trackpoint>
            <Time>2018-04-21T09:11:13.000Z</Time>
            <Position>
              <LatitudeDegrees>43.2569146715104579925537109375</LatitudeDegrees>
              <LongitudeDegrees>-8.36053225211799144744873046875</LongitudeDegrees>
            </Position>
            <AltitudeMeters>157.600006103515625</AltitudeMeters>
            <DistanceMeters>19735.957485074</DistanceMeters>
          </Trackpoint>
          <Trackpoint>
            <Time>2018-04-21T09:11:16.000Z</Time>
            <Position>
              <LatitudeDegrees>43.2568278349936008453369140625</LatitudeDegrees>
              <LongitudeDegrees>-8.36041138507425785064697265625</LongitudeDegrees>
            </Position>
            <AltitudeMeters>158</AltitudeMeters>
            <DistanceMeters>19749.719636917</DistanceMeters>
          </Trackpoint>
          <Trackpoint>
            <Time>2018-04-21T09:11:18.000Z</Time>
            <Position>
              <LatitudeDegrees>43.2567611150443553924560546875</LatitudeDegrees>
              <LongitudeDegrees>-8.36033309809863567352294921875</LongitudeDegrees>
            </Position>
            <AltitudeMeters>158.399993896484375</AltitudeMeters>
            <DistanceMeters>19759.487994905</DistanceMeters>
          </Trackpoint>
          <Trackpoint>
            <Time>2018-04-21T09:11:20.000Z</Time>
            <Position>
              <LatitudeDegrees>43.25669146142899990081787109375</LatitudeDegrees>
              <LongitudeDegrees>-8.3602569065988063812255859375</LongitudeDegrees>
            </Position>
            <AltitudeMeters>158.399993896484375</AltitudeMeters>
            <DistanceMeters>19769.399969063</DistanceMeters>
          </Trackpoint>
          <Trackpoint>
            <Time>2018-04-21T09:11:22.000Z</Time>
            <Position>
              <LatitudeDegrees>43.25661736540496349334716796875</LatitudeDegrees>
              <LongitudeDegrees>-8.36018457077443599700927734375</LongitudeDegrees>
            </Position>
            <AltitudeMeters>158</AltitudeMeters>
            <DistanceMeters>19779.518417893</DistanceMeters>
          </Trackpoint>
          <Trackpoint>
            <Time>2018-04-21T09:11:26.000Z</Time>
            <Position>
              <LatitudeDegrees>43.2564757950603961944580078125</LatitudeDegrees>
              <LongitudeDegrees>-8.3600426651537418365478515625</LongitudeDegrees>
            </Position>
            <AltitudeMeters>158.1999969482421875</AltitudeMeters>
            <DistanceMeters>19799.027381524</DistanceMeters>
          </Trackpoint>
          <Trackpoint>
            <Time>2018-04-21T09:11:31.000Z</Time>
            <Position>
              <LatitudeDegrees>43.256296925246715545654296875</LatitudeDegrees>
              <LongitudeDegrees>-8.35985080339014530181884765625</LongitudeDegrees>
            </Position>
            <AltitudeMeters>158.1999969482421875</AltitudeMeters>
            <DistanceMeters>19824.290551216</DistanceMeters>
          </Trackpoint>
          <Trackpoint>
            <Time>2018-04-21T09:11:33.000Z</Time>
            <Position>
              <LatitudeDegrees>43.2562219910323619842529296875</LatitudeDegrees>
              <LongitudeDegrees>-8.35976245813071727752685546875</LongitudeDegrees>
            </Position>
            <AltitudeMeters>157.8000030517578125</AltitudeMeters>
            <DistanceMeters>19835.283298051</DistanceMeters>
          </Trackpoint>
          <Trackpoint>
            <Time>2018-04-21T09:11:39.000Z</Time>
            <Position>
              <LatitudeDegrees>43.255986459553241729736328125</LatitudeDegrees>
              <LongitudeDegrees>-8.35947914980351924896240234375</LongitudeDegrees>
            </Position>
            <AltitudeMeters>157.600006103515625</AltitudeMeters>
            <DistanceMeters>19870.13492043</DistanceMeters>
          </Trackpoint>
          <Trackpoint>
            <Time>2018-04-21T09:11:40.000Z</Time>
            <Position>
              <LatitudeDegrees>43.25594966299831867218017578125</LatitudeDegrees>
              <LongitudeDegrees>-8.35943095386028289794921875</LongitudeDegrees>
            </Position>
            <AltitudeMeters>157.600006103515625</AltitudeMeters>
            <DistanceMeters>19875.794397539</DistanceMeters>
          </Trackpoint>
          <Trackpoint>
            <Time>2018-04-21T09:11:41.000Z</Time>
            <Position>
              <LatitudeDegrees>43.25591169297695159912109375</LatitudeDegrees>
              <LongitudeDegrees>-8.35938879288733005523681640625</LongitudeDegrees>
            </Position>
            <AltitudeMeters>157.600006103515625</AltitudeMeters>
            <DistanceMeters>19881.229227808</DistanceMeters>
          </Trackpoint>
          <Trackpoint>
            <Time>2018-04-21T09:11:44.000Z</Time>
            <Position>
              <LatitudeDegrees>43.25582963414490222930908203125</LatitudeDegrees>
              <LongitudeDegrees>-8.35928619839251041412353515625</LongitudeDegrees>
            </Position>
            <AltitudeMeters>157.1999969482421875</AltitudeMeters>
            <DistanceMeters>19893.58123864</DistanceMeters>
          </Trackpoint>
          <Trackpoint>
            <Time>2018-04-21T09:11:48.000Z</Time>
            <Position>
              <LatitudeDegrees>43.25569577515125274658203125</LatitudeDegrees>
              <LongitudeDegrees>-8.35920564830303192138671875</LongitudeDegrees>
            </Position>
            <AltitudeMeters>157.399993896484375</AltitudeMeters>
            <DistanceMeters>19909.848024741</DistanceMeters>
          </Trackpoint>
          <Trackpoint>
            <Time>2018-04-21T09:11:54.000Z</Time>
            <Position>
              <LatitudeDegrees>43.25545345433056354522705078125</LatitudeDegrees>
              <LongitudeDegrees>-8.35907153785228729248046875</LongitudeDegrees>
            </Position>
            <AltitudeMeters>157.600006103515625</AltitudeMeters>
            <DistanceMeters>19938.927441491</DistanceMeters>
          </Trackpoint>
          <Trackpoint>
            <Time>2018-04-21T09:11:59.000Z</Time>
            <Position>
              <LatitudeDegrees>43.25523368082940578460693359375</LatitudeDegrees>
              <LongitudeDegrees>-8.35890524089336395263671875</LongitudeDegrees>
            </Position>
            <AltitudeMeters>157.399993896484375</AltitudeMeters>
            <DistanceMeters>19966.857213844</DistanceMeters>
          </Trackpoint>
          <Trackpoint>
            <Time>2018-04-21T09:12:00.000Z</Time>
            <Position>
              <LatitudeDegrees>43.25518556870520114898681640625</LatitudeDegrees>
              <LongitudeDegrees>-8.35885100997984409332275390625</LongitudeDegrees>
            </Position>
            <AltitudeMeters>156.8000030517578125</AltitudeMeters>
            <DistanceMeters>19973.785045849</DistanceMeters>
          </Trackpoint>
          <Trackpoint>
            <Time>2018-04-21T09:12:02.000Z</Time>
            <Position>
              <LatitudeDegrees>43.25507693924009799957275390625</LatitudeDegrees>
              <LongitudeDegrees>-8.35873366333544254302978515625</LongitudeDegrees>
            </Position>
            <AltitudeMeters>156.1999969482421875</AltitudeMeters>
            <DistanceMeters>19989.16881143</DistanceMeters>
          </Trackpoint>
          <Trackpoint>
            <Time>2018-04-21T09:12:03.000Z</Time>
            <Position>
              <LatitudeDegrees>43.25502396561205387115478515625</LatitudeDegrees>
              <LongitudeDegrees>-8.35865872912108898162841796875</LongitudeDegrees>
            </Position>
            <AltitudeMeters>155.8000030517578125</AltitudeMeters>
            <DistanceMeters>19997.634193091</DistanceMeters>
          </Trackpoint>
          <Trackpoint>
            <Time>2018-04-21T09:12:04.000Z</Time>
            <Position>
              <LatitudeDegrees>43.25497400946915149688720703125</LatitudeDegrees>
              <LongitudeDegrees>-8.35857206024229526519775390625</LongitudeDegrees>
            </Position>
            <AltitudeMeters>154.1999969482421875</AltitudeMeters>
            <DistanceMeters>20006.593957573</DistanceMeters>
          </Trackpoint>
          <Trackpoint>
            <Time>2018-04-21T09:12:05.000Z</Time>
            <Position>
              <LatitudeDegrees>43.25492438860237598419189453125</LatitudeDegrees>
              <LongitudeDegrees>-8.3584754168987274169921875</LongitudeDegrees>
            </Position>
            <AltitudeMeters>152.600006103515625</AltitudeMeters>
            <DistanceMeters>20016.17941676</DistanceMeters>
          </Trackpoint>
          <Trackpoint>
            <Time>2018-04-21T09:12:06.000Z</Time>
            <Position>
              <LatitudeDegrees>43.25487426482141017913818359375</LatitudeDegrees>
              <LongitudeDegrees>-8.3583681285381317138671875</LongitudeDegrees>
            </Position>
            <AltitudeMeters>151.399993896484375</AltitudeMeters>
            <DistanceMeters>20026.511578379</DistanceMeters>
          </Trackpoint>
          <Trackpoint>
            <Time>2018-04-21T09:12:08.000Z</Time>
            <Position>
              <LatitudeDegrees>43.2547737658023834228515625</LatitudeDegrees>
              <LongitudeDegrees>-8.35813117213547229766845703125</LongitudeDegrees>
            </Position>
            <AltitudeMeters>149.399993896484375</AltitudeMeters>
            <DistanceMeters>20048.739502993</DistanceMeters>
          </Trackpoint>
          <Trackpoint>
            <Time>2018-04-21T09:12:10.000Z</Time>
            <Position>
              <LatitudeDegrees>43.25468600727617740631103515625</LatitudeDegrees>
              <LongitudeDegrees>-8.35786077193915843963623046875</LongitudeDegrees>
            </Position>
            <AltitudeMeters>147.399993896484375</AltitudeMeters>
            <DistanceMeters>20072.73690004</DistanceMeters>
          </Trackpoint>
          <Trackpoint>
            <Time>2018-04-21T09:12:11.000Z</Time>
            <Position>
              <LatitudeDegrees>43.25464426539838314056396484375</LatitudeDegrees>
              <LongitudeDegrees>-8.35771308280527591705322265625</LongitudeDegrees>
            </Position>
            <AltitudeMeters>145.600006103515625</AltitudeMeters>
            <DistanceMeters>20085.578873646</DistanceMeters>
          </Trackpoint>
          <Trackpoint>
            <Time>2018-04-21T09:12:12.000Z</Time>
            <Position>
              <LatitudeDegrees>43.25460143387317657470703125</LatitudeDegrees>
              <LongitudeDegrees>-8.35755717940628528594970703125</LongitudeDegrees>
            </Position>
            <AltitudeMeters>143.600006103515625</AltitudeMeters>
            <DistanceMeters>20099.086378766</DistanceMeters>
          </Trackpoint>
          <Trackpoint>
            <Time>2018-04-21T09:12:13.000Z</Time>
            <Position>
              <LatitudeDegrees>43.25455374084413051605224609375</LatitudeDegrees>
              <LongitudeDegrees>-8.3573986776173114776611328125</LongitudeDegrees>
            </Position>
            <AltitudeMeters>141.8000030517578125</AltitudeMeters>
            <DistanceMeters>20112.988562987</DistanceMeters>
          </Trackpoint>
          <Trackpoint>
            <Time>2018-04-21T09:12:15.000Z</Time>
            <Position>
              <LatitudeDegrees>43.25443446636199951171875</LatitudeDegrees>
              <LongitudeDegrees>-8.3570848591625690460205078125</LongitudeDegrees>
            </Position>
            <AltitudeMeters>140.600006103515625</AltitudeMeters>
            <DistanceMeters>20141.683483974</DistanceMeters>
          </Trackpoint>
          <Trackpoint>
            <Time>2018-04-21T09:12:16.000Z</Time>
            <Position>
              <LatitudeDegrees>43.25436430983245372772216796875</LatitudeDegrees>
              <LongitudeDegrees>-8.356937505304813385009765625</LongitudeDegrees>
            </Position>
            <AltitudeMeters>139.8000030517578125</AltitudeMeters>
            <DistanceMeters>20155.954269308</DistanceMeters>
          </Trackpoint>
          <Trackpoint>
            <Time>2018-04-21T09:12:17.000Z</Time>
            <Position>
              <LatitudeDegrees>43.25428870506584644317626953125</LatitudeDegrees>
              <LongitudeDegrees>-8.35679308511316776275634765625</LongitudeDegrees>
            </Position>
            <AltitudeMeters>138</AltitudeMeters>
            <DistanceMeters>20170.372048601</DistanceMeters>
          </Trackpoint>
          <Trackpoint>
            <Time>2018-04-21T09:12:18.000Z</Time>
            <Position>
              <LatitudeDegrees>43.25421226210892200469970703125</LatitudeDegrees>
              <LongitudeDegrees>-8.35665562190115451812744140625</LongitudeDegrees>
            </Position>
            <AltitudeMeters>136.600006103515625</AltitudeMeters>
            <DistanceMeters>20184.392273422</DistanceMeters>
          </Trackpoint>
          <Trackpoint>
            <Time>2018-04-21T09:12:19.000Z</Time>
            <Position>
              <LatitudeDegrees>43.25414001010358333587646484375</LatitudeDegrees>
              <LongitudeDegrees>-8.356545902788639068603515625</LongitudeDegrees>
            </Position>
            <AltitudeMeters>135</AltitudeMeters>
            <DistanceMeters>20196.382973032</DistanceMeters>
          </Trackpoint>
          <Trackpoint>
            <Time>2018-04-21T09:12:20.000Z</Time>
            <Position>
              <LatitudeDegrees>43.25406356714665889739990234375</LatitudeDegrees>
              <LongitudeDegrees>-8.35646300576627254486083984375</LongitudeDegrees>
            </Position>
            <AltitudeMeters>134</AltitudeMeters>
            <DistanceMeters>20207.225183838</DistanceMeters>
          </Trackpoint>
          <Trackpoint>
            <Time>2018-04-21T09:12:21.000Z</Time>
            <Position>
              <LatitudeDegrees>43.253980167210102081298828125</LatitudeDegrees>
              <LongitudeDegrees>-8.3563874848186969757080078125</LongitudeDegrees>
            </Position>
            <AltitudeMeters>132.399993896484375</AltitudeMeters>
            <DistanceMeters>20218.344527643</DistanceMeters>
          </Trackpoint>
          <Trackpoint>
            <Time>2018-04-21T09:12:22.000Z</Time>
            <Position>
              <LatitudeDegrees>43.2538908161222934722900390625</LatitudeDegrees>
              <LongitudeDegrees>-8.3563271351158618927001953125</LongitudeDegrees>
            </Position>
            <AltitudeMeters>131</AltitudeMeters>
            <DistanceMeters>20229.427266465</DistanceMeters>
          </Trackpoint>
          <Trackpoint>
            <Time>2018-04-21T09:12:24.000Z</Time>
            <Position>
              <LatitudeDegrees>43.25370532460510730743408203125</LatitudeDegrees>
              <LongitudeDegrees>-8.3562302403151988983154296875</LongitudeDegrees>
            </Position>
            <AltitudeMeters>130.399993896484375</AltitudeMeters>
            <DistanceMeters>20251.516430111</DistanceMeters>
          </Trackpoint>
          <Trackpoint>
            <Time>2018-04-21T09:12:26.000Z</Time>
            <Position>
              <LatitudeDegrees>43.253541626036167144775390625</LatitudeDegrees>
              <LongitudeDegrees>-8.35615254007279872894287109375</LongitudeDegrees>
            </Position>
            <AltitudeMeters>129.399993896484375</AltitudeMeters>
            <DistanceMeters>20270.794444172</DistanceMeters>
          </Trackpoint>
          <Trackpoint>
            <Time>2018-04-21T09:12:28.000Z</Time>
            <Position>
              <LatitudeDegrees>43.25339988805353641510009765625</LatitudeDegrees>
              <LongitudeDegrees>-8.35609705187380313873291015625</LongitudeDegrees>
            </Position>
            <AltitudeMeters>128.1999969482421875</AltitudeMeters>
            <DistanceMeters>20287.199148929</DistanceMeters>
          </Trackpoint>
          <Trackpoint>
            <Time>2018-04-21T09:12:34.000Z</Time>
            <Position>
              <LatitudeDegrees>43.25304348953068256378173828125</LatitudeDegrees>
              <LongitudeDegrees>-8.35592254064977169036865234375</LongitudeDegrees>
            </Position>
            <AltitudeMeters>128.1999969482421875</AltitudeMeters>
            <DistanceMeters>20329.314105358</DistanceMeters>
          </Trackpoint>
          <Trackpoint>
            <Time>2018-04-21T09:12:38.000Z</Time>
            <Position>
              <LatitudeDegrees>43.25280846096575260162353515625</LatitudeDegrees>
              <LongitudeDegrees>-8.3559113927185535430908203125</LongitudeDegrees>
            </Position>
            <AltitudeMeters>128</AltitudeMeters>
            <DistanceMeters>20355.488747663</DistanceMeters>
          </Trackpoint>
          <Trackpoint>
            <Time>2018-04-21T09:12:42.000Z</Time>
            <Position>
              <LatitudeDegrees>43.25260662473738193511962890625</LatitudeDegrees>
              <LongitudeDegrees>-8.355879373848438262939453125</LongitudeDegrees>
            </Position>
            <AltitudeMeters>129.1999969482421875</AltitudeMeters>
            <DistanceMeters>20378.102709925</DistanceMeters>
          </Trackpoint>
          <Trackpoint>
            <Time>2018-04-21T09:12:43.000Z</Time>
            <Position>
              <LatitudeDegrees>43.25255893170833587646484375</LatitudeDegrees>
              <LongitudeDegrees>-8.35587141104042530059814453125</LongitudeDegrees>
            </Position>
            <AltitudeMeters>129.399993896484375</AltitudeMeters>
            <DistanceMeters>20383.449598929</DistanceMeters>
          </Trackpoint>
          <Trackpoint>
            <Time>2018-04-21T09:12:45.000Z</Time>
            <Position>
              <LatitudeDegrees>43.25246916152536869049072265625</LatitudeDegrees>
              <LongitudeDegrees>-8.35585464723408222198486328125</LongitudeDegrees>
            </Position>
            <AltitudeMeters>129.600006103515625</AltitudeMeters>
            <DistanceMeters>20393.533182655</DistanceMeters>
          </Trackpoint>
          <Trackpoint>
            <Time>2018-04-21T09:12:47.000Z</Time>
            <Position>
              <LatitudeDegrees>43.25238701887428760528564453125</LatitudeDegrees>
              <LongitudeDegrees>-8.3558356203138828277587890625</LongitudeDegrees>
            </Position>
            <AltitudeMeters>130</AltitudeMeters>
            <DistanceMeters>20402.804985486</DistanceMeters>
          </Trackpoint>
          <Trackpoint>
            <Time>2018-04-21T09:12:48.000Z</Time>
            <Position>
              <LatitudeDegrees>43.2523478753864765167236328125</LatitudeDegrees>
              <LongitudeDegrees>-8.35582765750586986541748046875</LongitudeDegrees>
            </Position>
            <AltitudeMeters>130.600006103515625</AltitudeMeters>
            <DistanceMeters>20407.20914309</DistanceMeters>
          </Trackpoint>
          <Trackpoint>
            <Time>2018-04-21T09:12:51.000Z</Time>
            <Position>
              <LatitudeDegrees>43.25223798863589763641357421875</LatitudeDegrees>
              <LongitudeDegrees>-8.35579454898834228515625</LongitudeDegrees>
            </Position>
            <AltitudeMeters>131.399993896484375</AltitudeMeters>
            <DistanceMeters>20419.730693206</DistanceMeters>
          </Trackpoint>
          <Trackpoint>
            <Time>2018-04-21T09:12:52.000Z</Time>
            <Position>
              <LatitudeDegrees>43.25220496393740177154541015625</LatitudeDegrees>
              <LongitudeDegrees>-8.3557836525142192840576171875</LongitudeDegrees>
            </Position>
            <AltitudeMeters>131.600006103515625</AltitudeMeters>
            <DistanceMeters>20423.510320295</DistanceMeters>
          </Trackpoint>
          <Trackpoint>
            <Time>2018-04-21T09:12:55.000Z</Time>
            <Position>
              <LatitudeDegrees>43.2520940713584423065185546875</LatitudeDegrees>
              <LongitudeDegrees>-8.3557692356407642364501953125</LongitudeDegrees>
            </Position>
            <AltitudeMeters>132</AltitudeMeters>
            <DistanceMeters>20435.907574067</DistanceMeters>
          </Trackpoint>
          <Trackpoint>
            <Time>2018-04-21T09:12:57.000Z</Time>
            <Position>
              <LatitudeDegrees>43.2520193047821521759033203125</LatitudeDegrees>
              <LongitudeDegrees>-8.35577401332557201385498046875</LongitudeDegrees>
            </Position>
            <AltitudeMeters>133</AltitudeMeters>
            <DistanceMeters>20444.237466467</DistanceMeters>
          </Trackpoint>
          <Trackpoint>
            <Time>2018-04-21T09:12:58.000Z</Time>
            <Position>
              <LatitudeDegrees>43.251981921494007110595703125</LatitudeDegrees>
              <LongitudeDegrees>-8.35577384568750858306884765625</LongitudeDegrees>
            </Position>
            <AltitudeMeters>133.1999969482421875</AltitudeMeters>
            <DistanceMeters>20448.396988851</DistanceMeters>
          </Trackpoint>
          <Trackpoint>
            <Time>2018-04-21T09:13:01.000Z</Time>
            <Position>
              <LatitudeDegrees>43.25187538750469684600830078125</LatitudeDegrees>
              <LongitudeDegrees>-8.35576965473592281341552734375</LongitudeDegrees>
            </Position>
            <AltitudeMeters>134</AltitudeMeters>
            <DistanceMeters>20460.258972292</DistanceMeters>
          </Trackpoint>
          <Trackpoint>
            <Time>2018-04-21T09:13:04.000Z</Time>
            <Position>
              <LatitudeDegrees>43.2517836056649684906005859375</LatitudeDegrees>
              <LongitudeDegrees>-8.35572539828717708587646484375</LongitudeDegrees>
            </Position>
            <AltitudeMeters>134.399993896484375</AltitudeMeters>
            <DistanceMeters>20471.085764168</DistanceMeters>
          </Trackpoint>
          <Trackpoint>
            <Time>2018-04-21T09:13:07.000Z</Time>
            <Position>
              <LatitudeDegrees>43.2517375051975250244140625</LatitudeDegrees>
              <LongitudeDegrees>-8.35560235194861888885498046875</LongitudeDegrees>
            </Position>
            <AltitudeMeters>134.600006103515625</AltitudeMeters>
            <DistanceMeters>20482.302942296</DistanceMeters>
          </Trackpoint>
          <Trackpoint>
            <Time>2018-04-21T09:13:08.000Z</Time>
            <Position>
              <LatitudeDegrees>43.2517239265143871307373046875</LatitudeDegrees>
              <LongitudeDegrees>-8.35554954595863819122314453125</LongitudeDegrees>
            </Position>
            <AltitudeMeters>135</AltitudeMeters>
            <DistanceMeters>20486.842395396</DistanceMeters>
          </Trackpoint>
          <Trackpoint>
            <Time>2018-04-21T09:13:10.000Z</Time>
            <Position>
              <LatitudeDegrees>43.2516853697597980499267578125</LatitudeDegrees>
              <LongitudeDegrees>-8.355432115495204925537109375</LongitudeDegrees>
            </Position>
            <AltitudeMeters>134.8000030517578125</AltitudeMeters>
            <DistanceMeters>20497.284529903</DistanceMeters>
          </Trackpoint>
          <Trackpoint>
            <Time>2018-04-21T09:13:13.000Z</Time>
            <Position>
              <LatitudeDegrees>43.25159509666264057159423828125</LatitudeDegrees>
              <LongitudeDegrees>-8.3552515693008899688720703125</LongitudeDegrees>
            </Position>
            <AltitudeMeters>134.399993896484375</AltitudeMeters>
            <DistanceMeters>20515.037493826</DistanceMeters>
          </Trackpoint>
          <Trackpoint>
            <Time>2018-04-21T09:13:17.000Z</Time>
            <Position>
              <LatitudeDegrees>43.25146215967833995819091796875</LatitudeDegrees>
              <LongitudeDegrees>-8.3549873717129230499267578125</LongitudeDegrees>
            </Position>
            <AltitudeMeters>134.1999969482421875</AltitudeMeters>
            <DistanceMeters>20541.068917077</DistanceMeters>
          </Trackpoint>
          <Trackpoint>
            <Time>2018-04-21T09:13:19.000Z</Time>
            <Position>
              <LatitudeDegrees>43.25142142362892627716064453125</LatitudeDegrees>
              <LongitudeDegrees>-8.354834653437137603759765625</LongitudeDegrees>
            </Position>
            <AltitudeMeters>133.600006103515625</AltitudeMeters>
            <DistanceMeters>20554.253338625</DistanceMeters>
          </Trackpoint>
          <Trackpoint>
            <Time>2018-04-21T09:13:25.000Z</Time>
            <Position>
              <LatitudeDegrees>43.25134925544261932373046875</LatitudeDegrees>
              <LongitudeDegrees>-8.35439376533031463623046875</LongitudeDegrees>
            </Position>
            <AltitudeMeters>135</AltitudeMeters>
            <DistanceMeters>20590.886352704</DistanceMeters>
          </Trackpoint>
          <Trackpoint>
            <Time>2018-04-21T09:13:26.000Z</Time>
            <Position>
              <LatitudeDegrees>43.2513356767594814300537109375</LatitudeDegrees>
              <LongitudeDegrees>-8.3543245308101177215576171875</LongitudeDegrees>
            </Position>
            <AltitudeMeters>135.1999969482421875</AltitudeMeters>
            <DistanceMeters>20596.699316324</DistanceMeters>
          </Trackpoint>
          <Trackpoint>
            <Time>2018-04-21T09:13:33.000Z</Time>
            <Position>
              <LatitudeDegrees>43.2512300647795200347900390625</LatitudeDegrees>
              <LongitudeDegrees>-8.35383410565555095672607421875</LongitudeDegrees>
            </Position>
            <AltitudeMeters>135.399993896484375</AltitudeMeters>
            <DistanceMeters>20638.158198736</DistanceMeters>
          </Trackpoint>
          <Trackpoint>
            <Time>2018-04-21T09:13:41.000Z</Time>
            <Position>
              <LatitudeDegrees>43.251088075339794158935546875</LatitudeDegrees>
              <LongitudeDegrees>-8.35324108600616455078125</LongitudeDegrees>
            </Position>
            <AltitudeMeters>135.8000030517578125</AltitudeMeters>
            <DistanceMeters>20688.763827667</DistanceMeters>
          </Trackpoint>
          <Trackpoint>
            <Time>2018-04-21T09:13:49.000Z</Time>
            <Position>
              <LatitudeDegrees>43.250944912433624267578125</LatitudeDegrees>
              <LongitudeDegrees>-8.3525826036930084228515625</LongitudeDegrees>
            </Position>
            <AltitudeMeters>135.600006103515625</AltitudeMeters>
            <DistanceMeters>20744.472990762</DistanceMeters>
          </Trackpoint>
          <Trackpoint>
            <Time>2018-04-21T09:13:53.000Z</Time>
            <Position>
              <LatitudeDegrees>43.2508572377264499664306640625</LatitudeDegrees>
              <LongitudeDegrees>-8.35224489681422710418701171875</LongitudeDegrees>
            </Position>
            <AltitudeMeters>133.8000030517578125</AltitudeMeters>
            <DistanceMeters>20773.537498175</DistanceMeters>
          </Trackpoint>
          <Trackpoint>
            <Time>2018-04-21T09:13:55.000Z</Time>
            <Position>
              <LatitudeDegrees>43.250792361795902252197265625</LatitudeDegrees>
              <LongitudeDegrees>-8.35208312608301639556884765625</LongitudeDegrees>
            </Position>
            <AltitudeMeters>134.399993896484375</AltitudeMeters>
            <DistanceMeters>20788.508353105</DistanceMeters>
          </Trackpoint>
          <Trackpoint>
            <Time>2018-04-21T09:13:59.000Z</Time>
            <Position>
              <LatitudeDegrees>43.25065515004098415374755859375</LatitudeDegrees>
              <LongitudeDegrees>-8.351760841906070709228515625</LongitudeDegrees>
            </Position>
            <AltitudeMeters>133.600006103515625</AltitudeMeters>
            <DistanceMeters>20818.771340617</DistanceMeters>
          </Trackpoint>
          <Trackpoint>
            <Time>2018-04-21T09:14:03.000Z</Time>
            <Position>
              <LatitudeDegrees>43.25048826634883880615234375</LatitudeDegrees>
              <LongitudeDegrees>-8.35139614529907703399658203125</LongitudeDegrees>
            </Position>
            <AltitudeMeters>131.8000030517578125</AltitudeMeters>
            <DistanceMeters>20853.687160819</DistanceMeters>
          </Trackpoint>
          <Trackpoint>
            <Time>2018-04-21T09:14:05.000Z</Time>
            <Position>
              <LatitudeDegrees>43.2503948919475078582763671875</LatitudeDegrees>
              <LongitudeDegrees>-8.3511937223374843597412109375</LongitudeDegrees>
            </Position>
            <AltitudeMeters>130.1999969482421875</AltitudeMeters>
            <DistanceMeters>20873.111467346</DistanceMeters>
          </Trackpoint>
          <Trackpoint>
            <Time>2018-04-21T09:14:06.000Z</Time>
            <Position>
              <LatitudeDegrees>43.250356502830982208251953125</LatitudeDegrees>
              <LongitudeDegrees>-8.3510881103575229644775390625</LongitudeDegrees>
            </Position>
            <AltitudeMeters>130</AltitudeMeters>
            <DistanceMeters>20882.680426283</DistanceMeters>
          </Trackpoint>
          <Trackpoint>
            <Time>2018-04-21T09:14:07.000Z</Time>
            <Position>
              <LatitudeDegrees>43.25032691471278667449951171875</LatitudeDegrees>
              <LongitudeDegrees>-8.350974619388580322265625</LongitudeDegrees>
            </Position>
            <AltitudeMeters>128.8000030517578125</AltitudeMeters>
            <DistanceMeters>20892.452019209</DistanceMeters>
          </Trackpoint>
          <Trackpoint>
            <Time>2018-04-21T09:14:08.000Z</Time>
            <Position>
              <LatitudeDegrees>43.2503132522106170654296875</LatitudeDegrees>
              <LongitudeDegrees>-8.350848890841007232666015625</LongitudeDegrees>
            </Position>
            <AltitudeMeters>128</AltitudeMeters>
            <DistanceMeters>20902.757051911</DistanceMeters>
          </Trackpoint>
          <Trackpoint>
            <Time>2018-04-21T09:14:09.000Z</Time>
            <Position>
              <LatitudeDegrees>43.2503023557364940643310546875</LatitudeDegrees>
              <LongitudeDegrees>-8.350718133151531219482421875</LongitudeDegrees>
            </Position>
            <AltitudeMeters>127</AltitudeMeters>
            <DistanceMeters>20913.426313537</DistanceMeters>
          </Trackpoint>
          <Trackpoint>
            <Time>2018-04-21T09:14:11.000Z</Time>
            <Position>
              <LatitudeDegrees>43.25025667436420917510986328125</LatitudeDegrees>
              <LongitudeDegrees>-8.35045200772583484649658203125</LongitudeDegrees>
            </Position>
            <AltitudeMeters>125.59999847412109375</AltitudeMeters>
            <DistanceMeters>20935.591791181</DistanceMeters>
          </Trackpoint>
          <Trackpoint>
            <Time>2018-04-21T09:14:12.000Z</Time>
            <Position>
              <LatitudeDegrees>43.2502171956002712249755859375</LatitudeDegrees>
              <LongitudeDegrees>-8.3503280393779277801513671875</LongitudeDegrees>
            </Position>
            <AltitudeMeters>125</AltitudeMeters>
            <DistanceMeters>20946.560278244</DistanceMeters>
          </Trackpoint>
          <Trackpoint>
            <Time>2018-04-21T09:14:14.000Z</Time>
            <Position>
              <LatitudeDegrees>43.250121809542179107666015625</LatitudeDegrees>
              <LongitudeDegrees>-8.35009275935590267181396484375</LongitudeDegrees>
            </Position>
            <AltitudeMeters>124.1999969482421875</AltitudeMeters>
            <DistanceMeters>20968.389964319</DistanceMeters>
          </Trackpoint>
          <Trackpoint>
            <Time>2018-04-21T09:14:17.000Z</Time>
            <Position>
              <LatitudeDegrees>43.2499499805271625518798828125</LatitudeDegrees>
              <LongitudeDegrees>-8.34977843798696994781494140625</LongitudeDegrees>
            </Position>
            <AltitudeMeters>123.40000152587890625</AltitudeMeters>
            <DistanceMeters>21000.250283262</DistanceMeters>
          </Trackpoint>
          <Trackpoint>
            <Time>2018-04-21T09:14:18.000Z</Time>
            <Position>
              <LatitudeDegrees>43.24989055283367633819580078125</LatitudeDegrees>
              <LongitudeDegrees>-8.34968112409114837646484375</LongitudeDegrees>
            </Position>
            <AltitudeMeters>123.1999969482421875</AltitudeMeters>
            <DistanceMeters>21010.54567239</DistanceMeters>
          </Trackpoint>
          <Trackpoint>
            <Time>2018-04-21T09:14:20.000Z</Time>
            <Position>
              <LatitudeDegrees>43.24978410266339778900146484375</LatitudeDegrees>
              <LongitudeDegrees>-8.3494834788143634796142578125</LongitudeDegrees>
            </Position>
            <AltitudeMeters>121.59999847412109375</AltitudeMeters>
            <DistanceMeters>21030.473207152</DistanceMeters>
          </Trackpoint>
          <Trackpoint>
            <Time>2018-04-21T09:14:22.000Z</Time>
            <Position>
              <LatitudeDegrees>43.2497028820216655731201171875</LatitudeDegrees>
              <LongitudeDegrees>-8.34927133284509181976318359375</LongitudeDegrees>
            </Position>
            <AltitudeMeters>119.8000030517578125</AltitudeMeters>
            <DistanceMeters>21049.902859126</DistanceMeters>
          </Trackpoint>
          <Trackpoint>
            <Time>2018-04-21T09:14:25.000Z</Time>
            <Position>
              <LatitudeDegrees>43.24961294420063495635986328125</LatitudeDegrees>
              <LongitudeDegrees>-8.34893882274627685546875</LongitudeDegrees>
            </Position>
            <AltitudeMeters>121</AltitudeMeters>
            <DistanceMeters>21078.657823561</DistanceMeters>
          </Trackpoint>
          <Trackpoint>
            <Time>2018-04-21T09:14:27.000Z</Time>
            <Position>
              <LatitudeDegrees>43.24955494143068790435791015625</LatitudeDegrees>
              <LongitudeDegrees>-8.348723910748958587646484375</LongitudeDegrees>
            </Position>
            <AltitudeMeters>120</AltitudeMeters>
            <DistanceMeters>21097.238401663</DistanceMeters>
          </Trackpoint>
          <Trackpoint>
            <Time>2018-04-21T09:14:32.000Z</Time>
            <Position>
              <LatitudeDegrees>43.24940641410648822784423828125</LatitudeDegrees>
              <LongitudeDegrees>-8.348190821707248687744140625</LongitudeDegrees>
            </Position>
            <AltitudeMeters>119</AltitudeMeters>
            <DistanceMeters>21143.509679199</DistanceMeters>
          </Trackpoint>
          <Trackpoint>
            <Time>2018-04-21T09:14:33.000Z</Time>
            <Position>
              <LatitudeDegrees>43.2493706233799457550048828125</LatitudeDegrees>
              <LongitudeDegrees>-8.34808948449790477752685546875</LongitudeDegrees>
            </Position>
            <AltitudeMeters>117.8000030517578125</AltitudeMeters>
            <DistanceMeters>21152.640159238</DistanceMeters>
          </Trackpoint>
          <Trackpoint>
            <Time>2018-04-21T09:14:34.000Z</Time>
            <Position>
              <LatitudeDegrees>43.249327205121517181396484375</LatitudeDegrees>
              <LongitudeDegrees>-8.3479945175349712371826171875</LongitudeDegrees>
            </Position>
            <AltitudeMeters>117.59999847412109375</AltitudeMeters>
            <DistanceMeters>21161.729999691</DistanceMeters>
          </Trackpoint>
          <Trackpoint>
            <Time>2018-04-21T09:14:38.000Z</Time>
            <Position>
              <LatitudeDegrees>43.24912545271217823028564453125</LatitudeDegrees>
              <LongitudeDegrees>-8.34763334132730960845947265625</LongitudeDegrees>
            </Position>
            <AltitudeMeters>116.8000030517578125</AltitudeMeters>
            <DistanceMeters>21198.629987586</DistanceMeters>
          </Trackpoint>
          <Trackpoint>
            <Time>2018-04-21T09:14:39.000Z</Time>
            <Position>
              <LatitudeDegrees>43.24906158261001110076904296875</LatitudeDegrees>
              <LongitudeDegrees>-8.347559832036495208740234375</LongitudeDegrees>
            </Position>
            <AltitudeMeters>116.40000152587890625</AltitudeMeters>
            <DistanceMeters>21207.906658784</DistanceMeters>
          </Trackpoint>
          <Trackpoint>
            <Time>2018-04-21T09:14:44.000Z</Time>
            <Position>
              <LatitudeDegrees>43.24871675111353397369384765625</LatitudeDegrees>
              <LongitudeDegrees>-8.3472626097500324249267578125</LongitudeDegrees>
            </Position>
            <AltitudeMeters>115.40000152587890625</AltitudeMeters>
            <DistanceMeters>21253.224240311</DistanceMeters>
          </Trackpoint>
          <Trackpoint>
            <Time>2018-04-21T09:14:46.000Z</Time>
            <Position>
              <LatitudeDegrees>43.2485723309218883514404296875</LatitudeDegrees>
              <LongitudeDegrees>-8.34717367775738239288330078125</LongitudeDegrees>
            </Position>
            <AltitudeMeters>115.1999969482421875</AltitudeMeters>
            <DistanceMeters>21270.841383308</DistanceMeters>
          </Trackpoint>
          <Trackpoint>
            <Time>2018-04-21T09:14:48.000Z</Time>
            <Position>
              <LatitudeDegrees>43.2484274916350841522216796875</LatitudeDegrees>
              <LongitudeDegrees>-8.3471134118735790252685546875</LongitudeDegrees>
            </Position>
            <AltitudeMeters>114.59999847412109375</AltitudeMeters>
            <DistanceMeters>21287.686593968</DistanceMeters>
          </Trackpoint>
          <Trackpoint>
            <Time>2018-04-21T09:14:50.000Z</Time>
            <Position>
              <LatitudeDegrees>43.2482853345572948455810546875</LatitudeDegrees>
              <LongitudeDegrees>-8.3470518887042999267578125</LongitudeDegrees>
            </Position>
            <AltitudeMeters>113.8000030517578125</AltitudeMeters>
            <DistanceMeters>21304.276309753</DistanceMeters>
          </Trackpoint>
          <Trackpoint>
            <Time>2018-04-21T09:14:53.000Z</Time>
            <Position>
              <LatitudeDegrees>43.2480811513960361480712890625</LatitudeDegrees>
              <LongitudeDegrees>-8.3469860069453716278076171875</LongitudeDegrees>
            </Position>
            <AltitudeMeters>113.59999847412109375</AltitudeMeters>
            <DistanceMeters>21327.621377833</DistanceMeters>
          </Trackpoint>
          <Trackpoint>
            <Time>2018-04-21T09:14:55.000Z</Time>
            <Position>
              <LatitudeDegrees>43.2479379884898662567138671875</LatitudeDegrees>
              <LongitudeDegrees>-8.34698843769729137420654296875</LongitudeDegrees>
            </Position>
            <AltitudeMeters>113.1999969482421875</AltitudeMeters>
            <DistanceMeters>21343.556709008</DistanceMeters>
          </Trackpoint>
          <Trackpoint>
            <Time>2018-04-21T09:15:01.000Z</Time>
            <Position>
              <LatitudeDegrees>43.24753708206117153167724609375</LatitudeDegrees>
              <LongitudeDegrees>-8.34703621454536914825439453125</LongitudeDegrees>
            </Position>
            <AltitudeMeters>113</AltitudeMeters>
            <DistanceMeters>21388.346056654</DistanceMeters>
          </Trackpoint>
          <Trackpoint>
            <Time>2018-04-21T09:15:02.000Z</Time>
            <Position>
              <LatitudeDegrees>43.2474749721586704254150390625</LatitudeDegrees>
              <LongitudeDegrees>-8.3470138348639011383056640625</LongitudeDegrees>
            </Position>
            <AltitudeMeters>112.8000030517578125</AltitudeMeters>
            <DistanceMeters>21395.493303847</DistanceMeters>
          </Trackpoint>
          <Trackpoint>
            <Time>2018-04-21T09:15:05.000Z</Time>
            <Position>
              <LatitudeDegrees>43.247300796210765838623046875</LatitudeDegrees>
              <LongitudeDegrees>-8.3468723483383655548095703125</LongitudeDegrees>
            </Position>
            <AltitudeMeters>112.59999847412109375</AltitudeMeters>
            <DistanceMeters>21418.018844804</DistanceMeters>
          </Trackpoint>
          <Trackpoint>
            <Time>2018-04-21T09:15:09.000Z</Time>
            <Position>
              <LatitudeDegrees>43.24713005684316158294677734375</LatitudeDegrees>
              <LongitudeDegrees>-8.34659985266625881195068359375</LongitudeDegrees>
            </Position>
            <AltitudeMeters>112.59999847412109375</AltitudeMeters>
            <DistanceMeters>21447.159681936</DistanceMeters>
          </Trackpoint>
          <Trackpoint>
            <Time>2018-04-21T09:15:10.000Z</Time>
            <Position>
              <LatitudeDegrees>43.2470919191837310791015625</LatitudeDegrees>
              <LongitudeDegrees>-8.346527181565761566162109375</LongitudeDegrees>
            </Position>
            <AltitudeMeters>112.59999847412109375</AltitudeMeters>
            <DistanceMeters>21454.420369664</DistanceMeters>
          </Trackpoint>
          <Trackpoint>
            <Time>2018-04-21T09:15:15.000Z</Time>
            <Position>
              <LatitudeDegrees>43.24690357781946659088134765625</LatitudeDegrees>
              <LongitudeDegrees>-8.3461694419384002685546875</LongitudeDegrees>
            </Position>
            <AltitudeMeters>112.1999969482421875</AltitudeMeters>
            <DistanceMeters>21490.206097979</DistanceMeters>
          </Trackpoint>
          <Trackpoint>
            <Time>2018-04-21T09:15:20.000Z</Time>
            <Position>
              <LatitudeDegrees>43.24671666137874126434326171875</LatitudeDegrees>
              <LongitudeDegrees>-8.34581949748098850250244140625</LongitudeDegrees>
            </Position>
            <AltitudeMeters>112</AltitudeMeters>
            <DistanceMeters>21525.387549314</DistanceMeters>
          </Trackpoint>
          <Trackpoint>
            <Time>2018-04-21T09:15:26.000Z</Time>
            <Position>
              <LatitudeDegrees>43.24648766778409481048583984375</LatitudeDegrees>
              <LongitudeDegrees>-8.34540777839720249176025390625</LongitudeDegrees>
            </Position>
            <AltitudeMeters>111.59999847412109375</AltitudeMeters>
            <DistanceMeters>21567.385272008</DistanceMeters>
          </Trackpoint>
          <Trackpoint>
            <Time>2018-04-21T09:15:28.000Z</Time>
            <Position>
              <LatitudeDegrees>43.2464106380939483642578125</LatitudeDegrees>
              <LongitudeDegrees>-8.3452757634222507476806640625</LongitudeDegrees>
            </Position>
            <AltitudeMeters>111.8000030517578125</AltitudeMeters>
            <DistanceMeters>21581.098782574</DistanceMeters>
          </Trackpoint>
          <Trackpoint>
            <Time>2018-04-21T09:15:33.000Z</Time>
            <Position>
              <LatitudeDegrees>43.24622279964387416839599609375</LatitudeDegrees>
              <LongitudeDegrees>-8.34494492970407009124755859375</LongitudeDegrees>
            </Position>
            <AltitudeMeters>110.59999847412109375</AltitudeMeters>
            <DistanceMeters>21615.10613399</DistanceMeters>
          </Trackpoint>
          <Trackpoint>
            <Time>2018-04-21T09:15:36.000Z</Time>
            <Position>
              <LatitudeDegrees>43.2460832409560680389404296875</LatitudeDegrees>
              <LongitudeDegrees>-8.34471861831843852996826171875</LongitudeDegrees>
            </Position>
            <AltitudeMeters>110.1999969482421875</AltitudeMeters>
            <DistanceMeters>21639.146202467</DistanceMeters>
          </Trackpoint>
          <Trackpoint>
            <Time>2018-04-21T09:15:37.000Z</Time>
            <Position>
              <LatitudeDegrees>43.2460409961640834808349609375</LatitudeDegrees>
              <LongitudeDegrees>-8.34463697858154773712158203125</LongitudeDegrees>
            </Position>
            <AltitudeMeters>109.1999969482421875</AltitudeMeters>
            <DistanceMeters>21647.265288502</DistanceMeters>
          </Trackpoint>
          <Trackpoint>
            <Time>2018-04-21T09:15:39.000Z</Time>
            <Position>
              <LatitudeDegrees>43.245977126061916351318359375</LatitudeDegrees>
              <LongitudeDegrees>-8.34447839297354221343994140625</LongitudeDegrees>
            </Position>
            <AltitudeMeters>108</AltitudeMeters>
            <DistanceMeters>21661.957291338</DistanceMeters>
          </Trackpoint>
          <Trackpoint>
            <Time>2018-04-21T09:15:40.000Z</Time>
            <Position>
              <LatitudeDegrees>43.24595290236175060272216796875</LatitudeDegrees>
              <LongitudeDegrees>-8.3444013632833957672119140625</LongitudeDegrees>
            </Position>
            <AltitudeMeters>107.1999969482421875</AltitudeMeters>
            <DistanceMeters>21668.75884128</DistanceMeters>
          </Trackpoint>
          <Trackpoint>
            <Time>2018-04-21T09:15:41.000Z</Time>
            <Position>
              <LatitudeDegrees>43.2459357194602489471435546875</LatitudeDegrees>
              <LongitudeDegrees>-8.344319052994251251220703125</LongitudeDegrees>
            </Position>
            <AltitudeMeters>106.1999969482421875</AltitudeMeters>
            <DistanceMeters>21675.699695538</DistanceMeters>
          </Trackpoint>
          <Trackpoint>
            <Time>2018-04-21T09:15:43.000Z</Time>
            <Position>
              <LatitudeDegrees>43.24590663425624370574951171875</LatitudeDegrees>
              <LongitudeDegrees>-8.344158791005611419677734375</LongitudeDegrees>
            </Position>
            <AltitudeMeters>104.8000030517578125</AltitudeMeters>
            <DistanceMeters>21689.09003526</DistanceMeters>
          </Trackpoint>
          <Trackpoint>
            <Time>2018-04-21T09:15:45.000Z</Time>
            <Position>
              <LatitudeDegrees>43.2458768784999847412109375</LatitudeDegrees>
              <LongitudeDegrees>-8.3440074138343334197998046875</LongitudeDegrees>
            </Position>
            <AltitudeMeters>102.8000030517578125</AltitudeMeters>
            <DistanceMeters>21701.801612184</DistanceMeters>
          </Trackpoint>
          <Trackpoint>
            <Time>2018-04-21T09:15:46.000Z</Time>
            <Position>
              <LatitudeDegrees>43.24586279690265655517578125</LatitudeDegrees>
              <LongitudeDegrees>-8.3439366705715656280517578125</LongitudeDegrees>
            </Position>
            <AltitudeMeters>102</AltitudeMeters>
            <DistanceMeters>21707.748189296</DistanceMeters>
          </Trackpoint>
          <Trackpoint>
            <Time>2018-04-21T09:15:47.000Z</Time>
            <Position>
              <LatitudeDegrees>43.2458512298762798309326171875</LatitudeDegrees>
              <LongitudeDegrees>-8.3438659273087978363037109375</LongitudeDegrees>
            </Position>
            <AltitudeMeters>101.40000152587890625</AltitudeMeters>
            <DistanceMeters>21713.62757129</DistanceMeters>
          </Trackpoint>
          <Trackpoint>
            <Time>2018-04-21T09:15:49.000Z</Time>
            <Position>
              <LatitudeDegrees>43.245827592909336090087890625</LatitudeDegrees>
              <LongitudeDegrees>-8.3437313139438629150390625</LongitudeDegrees>
            </Position>
            <AltitudeMeters>100.40000152587890625</AltitudeMeters>
            <DistanceMeters>21724.854003356</DistanceMeters>
          </Trackpoint>
          <Trackpoint>
            <Time>2018-04-21T09:15:51.000Z</Time>
            <Position>
              <LatitudeDegrees>43.24579951353371143341064453125</LatitudeDegrees>
              <LongitudeDegrees>-8.34359745495021343231201171875</LongitudeDegrees>
            </Position>
            <AltitudeMeters>99</AltitudeMeters>
            <DistanceMeters>21736.14779943</DistanceMeters>
          </Trackpoint>
          <Trackpoint>
            <Time>2018-04-21T09:15:52.000Z</Time>
            <Position>
              <LatitudeDegrees>43.24577889405190944671630859375</LatitudeDegrees>
              <LongitudeDegrees>-8.34352185018360614776611328125</LongitudeDegrees>
            </Position>
            <AltitudeMeters>98.59999847412109375</AltitudeMeters>
            <DistanceMeters>21742.692926064</DistanceMeters>
          </Trackpoint>
          <Trackpoint>
            <Time>2018-04-21T09:15:54.000Z</Time>
            <Position>
              <LatitudeDegrees>43.24573405086994171142578125</LatitudeDegrees>
              <LongitudeDegrees>-8.34337927401065826416015625</LongitudeDegrees>
            </Position>
            <AltitudeMeters>97.8000030517578125</AltitudeMeters>
            <DistanceMeters>21755.283517471</DistanceMeters>
          </Trackpoint>
          <Trackpoint>
            <Time>2018-04-21T09:15:55.000Z</Time>
            <Position>
              <LatitudeDegrees>43.24571116827428340911865234375</LatitudeDegrees>
              <LongitudeDegrees>-8.343317247927188873291015625</LongitudeDegrees>
            </Position>
            <AltitudeMeters>96.1999969482421875</AltitudeMeters>
            <DistanceMeters>21760.920612379</DistanceMeters>
          </Trackpoint>
          <Trackpoint>
            <Time>2018-04-21T09:15:57.000Z</Time>
            <Position>
              <LatitudeDegrees>43.24565433897078037261962890625</LatitudeDegrees>
              <LongitudeDegrees>-8.34318607114255428314208984375</LongitudeDegrees>
            </Position>
            <AltitudeMeters>95.59999847412109375</AltitudeMeters>
            <DistanceMeters>21773.294535612</DistanceMeters>
          </Trackpoint>
          <Trackpoint>
            <Time>2018-04-21T09:15:59.000Z</Time>
            <Position>
              <LatitudeDegrees>43.2455920614302158355712890625</LatitudeDegrees>
              <LongitudeDegrees>-8.34303804673254489898681640625</LongitudeDegrees>
            </Position>
            <AltitudeMeters>94.8000030517578125</AltitudeMeters>
            <DistanceMeters>21787.153132074</DistanceMeters>
          </Trackpoint>
          <Trackpoint>
            <Time>2018-04-21T09:16:00.000Z</Time>
            <Position>
              <LatitudeDegrees>43.24555325321853160858154296875</LatitudeDegrees>
              <LongitudeDegrees>-8.34297250024974346160888671875</LongitudeDegrees>
            </Position>
            <AltitudeMeters>94.1999969482421875</AltitudeMeters>
            <DistanceMeters>21794.000332735</DistanceMeters>
          </Trackpoint>
          <Trackpoint>
            <Time>2018-04-21T09:16:01.000Z</Time>
            <Position>
              <LatitudeDegrees>43.245513774454593658447265625</LatitudeDegrees>
              <LongitudeDegrees>-8.34291097708046436309814453125</LongitudeDegrees>
            </Position>
            <AltitudeMeters>93.40000152587890625</AltitudeMeters>
            <DistanceMeters>21800.646770425</DistanceMeters>
          </Trackpoint>
          <Trackpoint>
            <Time>2018-04-21T09:16:02.000Z</Time>
            <Position>
              <LatitudeDegrees>43.245470859110355377197265625</LatitudeDegrees>
              <LongitudeDegrees>-8.3428624458611011505126953125</LongitudeDegrees>
            </Position>
            <AltitudeMeters>93</AltitudeMeters>
            <DistanceMeters>21806.834461765</DistanceMeters>
          </Trackpoint>
          <Trackpoint>
            <Time>2018-04-21T09:16:03.000Z</Time>
            <Position>
              <LatitudeDegrees>43.24542350135743618011474609375</LatitudeDegrees>
              <LongitudeDegrees>-8.34283000789582729339599609375</LongitudeDegrees>
            </Position>
            <AltitudeMeters>92</AltitudeMeters>
            <DistanceMeters>21812.724585168</DistanceMeters>
          </Trackpoint>
          <Trackpoint>
            <Time>2018-04-21T09:16:05.000Z</Time>
            <Position>
              <LatitudeDegrees>43.24530313722789287567138671875</LatitudeDegrees>
              <LongitudeDegrees>-8.34281961433589458465576171875</LongitudeDegrees>
            </Position>
            <AltitudeMeters>91</AltitudeMeters>
            <DistanceMeters>21826.147928468</DistanceMeters>
          </Trackpoint>
          <Trackpoint>
            <Time>2018-04-21T09:16:06.000Z</Time>
            <Position>
              <LatitudeDegrees>43.245234824717044830322265625</LatitudeDegrees>
              <LongitudeDegrees>-8.34283822216093540191650390625</LongitudeDegrees>
            </Position>
            <AltitudeMeters>90.8000030517578125</AltitudeMeters>
            <DistanceMeters>21833.899452748</DistanceMeters>
          </Trackpoint>
          <Trackpoint>
            <Time>2018-04-21T09:16:08.000Z</Time>
            <Position>
              <LatitudeDegrees>43.2451149635016918182373046875</LatitudeDegrees>
              <LongitudeDegrees>-8.34289739839732646942138671875</LongitudeDegrees>
            </Position>
            <AltitudeMeters>90.40000152587890625</AltitudeMeters>
            <DistanceMeters>21848.076597788</DistanceMeters>
          </Trackpoint>
          <Trackpoint>
            <Time>2018-04-21T09:16:09.000Z</Time>
            <Position>
              <LatitudeDegrees>43.2450561225414276123046875</LatitudeDegrees>
              <LongitudeDegrees>-8.34290988743305206298828125</LongitudeDegrees>
            </Position>
            <AltitudeMeters>90.1999969482421875</AltitudeMeters>
            <DistanceMeters>21854.703987306</DistanceMeters>
          </Trackpoint>
          <Trackpoint>
            <Time>2018-04-21T09:16:12.000Z</Time>
            <Position>
              <LatitudeDegrees>43.244900889694690704345703125</LatitudeDegrees>
              <LongitudeDegrees>-8.3428265713155269622802734375</LongitudeDegrees>
            </Position>
            <AltitudeMeters>89.59999847412109375</AltitudeMeters>
            <DistanceMeters>21873.255382764</DistanceMeters>
          </Trackpoint>
          <Trackpoint>
            <Time>2018-04-21T09:16:13.000Z</Time>
            <Position>
              <LatitudeDegrees>43.24485621415078639984130859375</LatitudeDegrees>
              <LongitudeDegrees>-8.34277250804007053375244140625</LongitudeDegrees>
            </Position>
            <AltitudeMeters>89.1999969482421875</AltitudeMeters>
            <DistanceMeters>21879.884134681</DistanceMeters>
          </Trackpoint>
          <Trackpoint>
            <Time>2018-04-21T09:16:15.000Z</Time>
            <Position>
              <LatitudeDegrees>43.24477390386164188385009765625</LatitudeDegrees>
              <LongitudeDegrees>-8.3426555804908275604248046875</LongitudeDegrees>
            </Position>
            <AltitudeMeters>88.59999847412109375</AltitudeMeters>
            <DistanceMeters>21893.067186347</DistanceMeters>
          </Trackpoint>
          <Trackpoint>
            <Time>2018-04-21T09:16:18.000Z</Time>
            <Position>
              <LatitudeDegrees>43.2446496002376079559326171875</LatitudeDegrees>
              <LongitudeDegrees>-8.34249255247414112091064453125</LongitudeDegrees>
            </Position>
            <AltitudeMeters>88</AltitudeMeters>
            <DistanceMeters>21912.201329112</DistanceMeters>
          </Trackpoint>
          <Trackpoint>
            <Time>2018-04-21T09:16:22.000Z</Time>
            <Position>
              <LatitudeDegrees>43.244434185326099395751953125</LatitudeDegrees>
              <LongitudeDegrees>-8.3423270098865032196044921875</LongitudeDegrees>
            </Position>
            <AltitudeMeters>87.8000030517578125</AltitudeMeters>
            <DistanceMeters>21939.678513491</DistanceMeters>
          </Trackpoint>
          <Trackpoint>
            <Time>2018-04-21T09:16:23.000Z</Time>
            <Position>
              <LatitudeDegrees>43.2443733327090740203857421875</LatitudeDegrees>
              <LongitudeDegrees>-8.34230194799602031707763671875</LongitudeDegrees>
            </Position>
            <AltitudeMeters>87.59999847412109375</AltitudeMeters>
            <DistanceMeters>21946.7495483</DistanceMeters>
          </Trackpoint>
          <Trackpoint>
            <Time>2018-04-21T09:16:27.000Z</Time>
            <Position>
              <LatitudeDegrees>43.24409547261893749237060546875</LatitudeDegrees>
              <LongitudeDegrees>-8.34225014783442020416259765625</LongitudeDegrees>
            </Position>
            <AltitudeMeters>87.1999969482421875</AltitudeMeters>
            <DistanceMeters>21977.95956778</DistanceMeters>
          </Trackpoint>
          <Trackpoint>
            <Time>2018-04-21T09:16:28.000Z</Time>
            <Position>
              <LatitudeDegrees>43.24401785619556903839111328125</LatitudeDegrees>
              <LongitudeDegrees>-8.34224469959735870361328125</LongitudeDegrees>
            </Position>
            <AltitudeMeters>87.1999969482421875</AltitudeMeters>
            <DistanceMeters>21986.609609018</DistanceMeters>
          </Trackpoint>
          <Trackpoint>
            <Time>2018-04-21T09:16:30.000Z</Time>
            <Position>
              <LatitudeDegrees>43.24386362917721271514892578125</LatitudeDegrees>
              <LongitudeDegrees>-8.3422448672354221343994140625</LongitudeDegrees>
            </Position>
            <AltitudeMeters>86.40000152587890625</AltitudeMeters>
            <DistanceMeters>22003.775284782</DistanceMeters>
          </Trackpoint>
          <Trackpoint>
            <Time>2018-04-21T09:16:32.000Z</Time>
            <Position>
              <LatitudeDegrees>43.2437078095972537994384765625</LatitudeDegrees>
              <LongitudeDegrees>-8.3422472141683101654052734375</LongitudeDegrees>
            </Position>
            <AltitudeMeters>87</AltitudeMeters>
            <DistanceMeters>22021.119417409</DistanceMeters>
          </Trackpoint>
          <Trackpoint>
            <Time>2018-04-21T09:16:34.000Z</Time>
            <Position>
              <LatitudeDegrees>43.24354846961796283721923828125</LatitudeDegrees>
              <LongitudeDegrees>-8.34222860634326934814453125</LongitudeDegrees>
            </Position>
            <AltitudeMeters>86.1999969482421875</AltitudeMeters>
            <DistanceMeters>22038.918608457</DistanceMeters>
          </Trackpoint>
          <Trackpoint>
            <Time>2018-04-21T09:16:35.000Z</Time>
            <Position>
              <LatitudeDegrees>43.24346934445202350616455078125</LatitudeDegrees>
              <LongitudeDegrees>-8.34221117198467254638671875</LongitudeDegrees>
            </Position>
            <AltitudeMeters>86</AltitudeMeters>
            <DistanceMeters>22047.837967934</DistanceMeters>
          </Trackpoint>
          <Trackpoint>
            <Time>2018-04-21T09:16:37.000Z</Time>
            <Position>
              <LatitudeDegrees>43.24332601390779018402099609375</LatitudeDegrees>
              <LongitudeDegrees>-8.34217219613492488861083984375</LongitudeDegrees>
            </Position>
            <AltitudeMeters>85.40000152587890625</AltitudeMeters>
            <DistanceMeters>22064.10114533</DistanceMeters>
          </Trackpoint>
          <Trackpoint>
            <Time>2018-04-21T09:16:40.000Z</Time>
            <Position>
              <LatitudeDegrees>43.2431160472333431243896484375</LatitudeDegrees>
              <LongitudeDegrees>-8.34209072403609752655029296875</LongitudeDegrees>
            </Position>
            <AltitudeMeters>84</AltitudeMeters>
            <DistanceMeters>22088.386374436</DistanceMeters>
          </Trackpoint>
          <Trackpoint>
            <Time>2018-04-21T09:16:42.000Z</Time>
            <Position>
              <LatitudeDegrees>43.2429762370884418487548828125</LatitudeDegrees>
              <LongitudeDegrees>-8.34202853031456470489501953125</LongitudeDegrees>
            </Position>
            <AltitudeMeters>82.1999969482421875</AltitudeMeters>
            <DistanceMeters>22104.744223475</DistanceMeters>
          </Trackpoint>
          <Trackpoint>
            <Time>2018-04-21T09:16:46.000Z</Time>
            <Position>
              <LatitudeDegrees>43.24267675168812274932861328125</LatitudeDegrees>
              <LongitudeDegrees>-8.3419530093669891357421875</LongitudeDegrees>
            </Position>
            <AltitudeMeters>82.8000030517578125</AltitudeMeters>
            <DistanceMeters>22138.635338292</DistanceMeters>
          </Trackpoint>
          <Trackpoint>
            <Time>2018-04-21T09:16:50.000Z</Time>
            <Position>
              <LatitudeDegrees>43.242345415055751800537109375</LatitudeDegrees>
              <LongitudeDegrees>-8.3419122733175754547119140625</LongitudeDegrees>
            </Position>
            <AltitudeMeters>81</AltitudeMeters>
            <DistanceMeters>22175.661385145</DistanceMeters>
          </Trackpoint>
          <Trackpoint>
            <Time>2018-04-21T09:16:53.000Z</Time>
            <Position>
              <LatitudeDegrees>43.24208783917129039764404296875</LatitudeDegrees>
              <LongitudeDegrees>-8.34187530912458896636962890625</LongitudeDegrees>
            </Position>
            <AltitudeMeters>79.8000030517578125</AltitudeMeters>
            <DistanceMeters>22204.486294404</DistanceMeters>
          </Trackpoint>
          <Trackpoint>
            <Time>2018-04-21T09:16:56.000Z</Time>
            <Position>
              <LatitudeDegrees>43.24182162992656230926513671875</LatitudeDegrees>
              <LongitudeDegrees>-8.34184111095964908599853515625</LongitudeDegrees>
            </Position>
            <AltitudeMeters>78.1999969482421875</AltitudeMeters>
            <DistanceMeters>22234.245439</DistanceMeters>
          </Trackpoint>
          <Trackpoint>
            <Time>2018-04-21T09:16:59.000Z</Time>
            <Position>
              <LatitudeDegrees>43.2415670715272426605224609375</LatitudeDegrees>
              <LongitudeDegrees>-8.3417593874037265777587890625</LongitudeDegrees>
            </Position>
            <AltitudeMeters>77.8000030517578125</AltitudeMeters>
            <DistanceMeters>22263.342861005</DistanceMeters>
          </Trackpoint>
          <Trackpoint>
            <Time>2018-04-21T09:17:00.000Z</Time>
            <Position>
              <LatitudeDegrees>43.24148585088551044464111328125</LatitudeDegrees>
              <LongitudeDegrees>-8.34170700050890445709228515625</LongitudeDegrees>
            </Position>
            <AltitudeMeters>76.8000030517578125</AltitudeMeters>
            <DistanceMeters>22273.33106828</DistanceMeters>
          </Trackpoint>
          <Trackpoint>
            <Time>2018-04-21T09:17:02.000Z</Time>
            <Position>
              <LatitudeDegrees>43.24132072739303112030029296875</LatitudeDegrees>
              <LongitudeDegrees>-8.34157758392393589019775390625</LongitudeDegrees>
            </Position>
            <AltitudeMeters>75.59999847412109375</AltitudeMeters>
            <DistanceMeters>22294.494095744</DistanceMeters>
          </Trackpoint>
          <Trackpoint>
            <Time>2018-04-21T09:17:03.000Z</Time>
            <Position>
              <LatitudeDegrees>43.24124000966548919677734375</LatitudeDegrees>
              <LongitudeDegrees>-8.341510780155658721923828125</LongitudeDegrees>
            </Position>
            <AltitudeMeters>75.1999969482421875</AltitudeMeters>
            <DistanceMeters>22304.984545764</DistanceMeters>
          </Trackpoint>
          <Trackpoint>
            <Time>2018-04-21T09:17:06.000Z</Time>
            <Position>
              <LatitudeDegrees>43.241026103496551513671875</LatitudeDegrees>
              <LongitudeDegrees>-8.3412682078778743743896484375</LongitudeDegrees>
            </Position>
            <AltitudeMeters>74</AltitudeMeters>
            <DistanceMeters>22335.866034933</DistanceMeters>
          </Trackpoint>
          <Trackpoint>
            <Time>2018-04-21T09:17:07.000Z</Time>
            <Position>
              <LatitudeDegrees>43.24097312986850738525390625</LatitudeDegrees>
              <LongitudeDegrees>-8.34117424674332141876220703125</LongitudeDegrees>
            </Position>
            <AltitudeMeters>73.1999969482421875</AltitudeMeters>
            <DistanceMeters>22345.49988804</DistanceMeters>
          </Trackpoint>
          <Trackpoint>
            <Time>2018-04-21T09:17:08.000Z</Time>
            <Position>
              <LatitudeDegrees>43.24092376045882701873779296875</LatitudeDegrees>
              <LongitudeDegrees>-8.341077268123626708984375</LongitudeDegrees>
            </Position>
            <AltitudeMeters>73</AltitudeMeters>
            <DistanceMeters>22355.093351393</DistanceMeters>
          </Trackpoint>
          <Trackpoint>
            <Time>2018-04-21T09:17:11.000Z</Time>
            <Position>
              <LatitudeDegrees>43.2407764904201030731201171875</LatitudeDegrees>
              <LongitudeDegrees>-8.3407626114785671234130859375</LongitudeDegrees>
            </Position>
            <AltitudeMeters>72.8000030517578125</AltitudeMeters>
            <DistanceMeters>22385.418042072</DistanceMeters>
          </Trackpoint>
          <Trackpoint>
            <Time>2018-04-21T09:17:13.000Z</Time>
            <Position>
              <LatitudeDegrees>43.24065905995666980743408203125</LatitudeDegrees>
              <LongitudeDegrees>-8.34055616520345211029052734375</LongitudeDegrees>
            </Position>
            <AltitudeMeters>71.8000030517578125</AltitudeMeters>
            <DistanceMeters>22406.655609216</DistanceMeters>
          </Trackpoint>
          <Trackpoint>
            <Time>2018-04-21T09:17:14.000Z</Time>
            <Position>
              <LatitudeDegrees>43.24059586040675640106201171875</LatitudeDegrees>
              <LongitudeDegrees>-8.3404508046805858612060546875</LongitudeDegrees>
            </Position>
            <AltitudeMeters>70.59999847412109375</AltitudeMeters>
            <DistanceMeters>22417.722040291</DistanceMeters>
          </Trackpoint>
          <Trackpoint>
            <Time>2018-04-21T09:17:16.000Z</Time>
            <Position>
              <LatitudeDegrees>43.24045487679541110992431640625</LatitudeDegrees>
              <LongitudeDegrees>-8.34025894291698932647705078125</LongitudeDegrees>
            </Position>
            <AltitudeMeters>69.1999969482421875</AltitudeMeters>
            <DistanceMeters>22439.818152465</DistanceMeters>
          </Trackpoint>
          <Trackpoint>
            <Time>2018-04-21T09:17:17.000Z</Time>
            <Position>
              <LatitudeDegrees>43.24037876911461353302001953125</LatitudeDegrees>
              <LongitudeDegrees>-8.34017244167625904083251953125</LongitudeDegrees>
            </Position>
            <AltitudeMeters>68</AltitudeMeters>
            <DistanceMeters>22450.816237478</DistanceMeters>
          </Trackpoint>
          <Trackpoint>
            <Time>2018-04-21T09:17:18.000Z</Time>
            <Position>
              <LatitudeDegrees>43.24030148796737194061279296875</LatitudeDegrees>
              <LongitudeDegrees>-8.3400923945009708404541015625</LongitudeDegrees>
            </Position>
            <AltitudeMeters>66.8000030517578125</AltitudeMeters>
            <DistanceMeters>22461.591613245</DistanceMeters>
          </Trackpoint>
          <Trackpoint>
            <Time>2018-04-21T09:17:19.000Z</Time>
            <Position>
              <LatitudeDegrees>43.240215070545673370361328125</LatitudeDegrees>
              <LongitudeDegrees>-8.3400286920368671417236328125</LongitudeDegrees>
            </Position>
            <AltitudeMeters>66.1999969482421875</AltitudeMeters>
            <DistanceMeters>22472.508524388</DistanceMeters>
          </Trackpoint>
          <Trackpoint>
            <Time>2018-04-21T09:17:20.000Z</Time>
            <Position>
              <LatitudeDegrees>43.24012496508657932281494140625</LatitudeDegrees>
              <LongitudeDegrees>-8.33996389992535114288330078125</LongitudeDegrees>
            </Position>
            <AltitudeMeters>65.40000152587890625</AltitudeMeters>
            <DistanceMeters>22483.829871704</DistanceMeters>
          </Trackpoint>
          <Trackpoint>
            <Time>2018-04-21T09:17:21.000Z</Time>
            <Position>
              <LatitudeDegrees>43.24003343470394611358642578125</LatitudeDegrees>
              <LongitudeDegrees>-8.33989852108061313629150390625</LongitudeDegrees>
            </Position>
            <AltitudeMeters>64</AltitudeMeters>
            <DistanceMeters>22495.313959237</DistanceMeters>
          </Trackpoint>
          <Trackpoint>
            <Time>2018-04-21T09:17:22.000Z</Time>
            <Position>
              <LatitudeDegrees>43.239936120808124542236328125</LatitudeDegrees>
              <LongitudeDegrees>-8.33982660435140132904052734375</LongitudeDegrees>
            </Position>
            <AltitudeMeters>62.799999237060546875</AltitudeMeters>
            <DistanceMeters>22507.615056382</DistanceMeters>
          </Trackpoint>
          <Trackpoint>
            <Time>2018-04-21T09:17:24.000Z</Time>
            <Position>
              <LatitudeDegrees>43.23973604477941989898681640625</LatitudeDegrees>
              <LongitudeDegrees>-8.33964505232870578765869140625</LongitudeDegrees>
            </Position>
            <AltitudeMeters>60.799999237060546875</AltitudeMeters>
            <DistanceMeters>22534.309614863</DistanceMeters>
          </Trackpoint>
          <Trackpoint>
            <Time>2018-04-21T09:17:25.000Z</Time>
            <Position>
              <LatitudeDegrees>43.2396305166184902191162109375</LatitudeDegrees>
              <LongitudeDegrees>-8.3395309746265411376953125</LongitudeDegrees>
            </Position>
            <AltitudeMeters>59</AltitudeMeters>
            <DistanceMeters>22549.2605517</DistanceMeters>
          </Trackpoint>
          <Trackpoint>
            <Time>2018-04-21T09:17:26.000Z</Time>
            <Position>
              <LatitudeDegrees>43.23952138423919677734375</LatitudeDegrees>
              <LongitudeDegrees>-8.339403234422206878662109375</LongitudeDegrees>
            </Position>
            <AltitudeMeters>57</AltitudeMeters>
            <DistanceMeters>22565.223908403</DistanceMeters>
          </Trackpoint>
          <Trackpoint>
            <Time>2018-04-21T09:17:27.000Z</Time>
            <Position>
              <LatitudeDegrees>43.23941300623118877410888671875</LatitudeDegrees>
              <LongitudeDegrees>-8.3392609097063541412353515625</LongitudeDegrees>
            </Position>
            <AltitudeMeters>55</AltitudeMeters>
            <DistanceMeters>22581.917806067</DistanceMeters>
          </Trackpoint>
          <Trackpoint>
            <Time>2018-04-21T09:17:28.000Z</Time>
            <Position>
              <LatitudeDegrees>43.23930504731833934783935546875</LatitudeDegrees>
              <LongitudeDegrees>-8.33911866880953311920166015625</LongitudeDegrees>
            </Position>
            <AltitudeMeters>53.59999847412109375</AltitudeMeters>
            <DistanceMeters>22598.573254076</DistanceMeters>
          </Trackpoint>
          <Trackpoint>
            <Time>2018-04-21T09:17:29.000Z</Time>
            <Position>
              <LatitudeDegrees>43.2392033748328685760498046875</LatitudeDegrees>
              <LongitudeDegrees>-8.3389843069016933441162109375</LongitudeDegrees>
            </Position>
            <AltitudeMeters>51.40000152587890625</AltitudeMeters>
            <DistanceMeters>22614.281718956</DistanceMeters>
          </Trackpoint>
          <Trackpoint>
            <Time>2018-04-21T09:17:30.000Z</Time>
            <Position>
              <LatitudeDegrees>43.23910622857511043548583984375</LatitudeDegrees>
              <LongitudeDegrees>-8.33885296247899532318115234375</LongitudeDegrees>
            </Position>
            <AltitudeMeters>50</AltitudeMeters>
            <DistanceMeters>22629.458350989</DistanceMeters>
          </Trackpoint>
          <Trackpoint>
            <Time>2018-04-21T09:17:32.000Z</Time>
            <Position>
              <LatitudeDegrees>43.2389567792415618896484375</LatitudeDegrees>
              <LongitudeDegrees>-8.338620029389858245849609375</LongitudeDegrees>
            </Position>
            <AltitudeMeters>49</AltitudeMeters>
            <DistanceMeters>22654.625903156</DistanceMeters>
          </Trackpoint>
          <Trackpoint>
            <Time>2018-04-21T09:17:33.000Z</Time>
            <Position>
              <LatitudeDegrees>43.2389063201844692230224609375</LatitudeDegrees>
              <LongitudeDegrees>-8.3385139144957065582275390625</LongitudeDegrees>
            </Position>
            <AltitudeMeters>48.40000152587890625</AltitudeMeters>
            <DistanceMeters>22664.901099202</DistanceMeters>
          </Trackpoint>
          <Trackpoint>
            <Time>2018-04-21T09:17:35.000Z</Time>
            <Position>
              <LatitudeDegrees>43.2388580404222011566162109375</LatitudeDegrees>
              <LongitudeDegrees>-8.33834216929972171783447265625</LongitudeDegrees>
            </Position>
            <AltitudeMeters>47.40000152587890625</AltitudeMeters>
            <DistanceMeters>22679.827857262</DistanceMeters>
          </Trackpoint>
          <Trackpoint>
            <Time>2018-04-21T09:17:36.000Z</Time>
            <Position>
              <LatitudeDegrees>43.238855861127376556396484375</LatitudeDegrees>
              <LongitudeDegrees>-8.3382892794907093048095703125</LongitudeDegrees>
            </Position>
            <AltitudeMeters>47</AltitudeMeters>
            <DistanceMeters>22684.124073766</DistanceMeters>
          </Trackpoint>
          <Trackpoint>
            <Time>2018-04-21T09:17:37.000Z</Time>
            <Position>
              <LatitudeDegrees>43.2388526760041713714599609375</LatitudeDegrees>
              <LongitudeDegrees>-8.338268660008907318115234375</LongitudeDegrees>
            </Position>
            <AltitudeMeters>46.40000152587890625</AltitudeMeters>
            <DistanceMeters>22685.829267191</DistanceMeters>
          </Trackpoint>
          <Trackpoint>
            <Time>2018-04-21T09:17:39.000Z</Time>
            <Position>
              <LatitudeDegrees>43.23883381672203540802001953125</LatitudeDegrees>
              <LongitudeDegrees>-8.33829171024262905120849609375</LongitudeDegrees>
            </Position>
            <AltitudeMeters>46</AltitudeMeters>
            <DistanceMeters>22688.640195309</DistanceMeters>
          </Trackpoint>
          <Trackpoint>
            <Time>2018-04-21T09:17:41.000Z</Time>
            <Position>
              <LatitudeDegrees>43.2388013787567615509033203125</LatitudeDegrees>
              <LongitudeDegrees>-8.3383509702980518341064453125</LongitudeDegrees>
            </Position>
            <AltitudeMeters>46.200000762939453125</AltitudeMeters>
            <DistanceMeters>22694.650212429</DistanceMeters>
          </Trackpoint>
          <Trackpoint>
            <Time>2018-04-21T09:17:44.000Z</Time>
            <Position>
              <LatitudeDegrees>43.23873507790267467498779296875</LatitudeDegrees>
              <LongitudeDegrees>-8.33845599554479122161865234375</LongitudeDegrees>
            </Position>
            <AltitudeMeters>46</AltitudeMeters>
            <DistanceMeters>22705.91839351</DistanceMeters>
          </Trackpoint>
          <Trackpoint>
            <Time>2018-04-21T09:17:48.000Z</Time>
            <Position>
              <LatitudeDegrees>43.23865695856511592864990234375</LatitudeDegrees>
              <LongitudeDegrees>-8.33866059780120849609375</LongitudeDegrees>
            </Position>
            <AltitudeMeters>46.59999847412109375</AltitudeMeters>
            <DistanceMeters>22724.648783253</DistanceMeters>
          </Trackpoint>
          <Trackpoint>
            <Time>2018-04-21T09:17:50.000Z</Time>
            <Position>
              <LatitudeDegrees>43.238616473972797393798828125</LatitudeDegrees>
              <LongitudeDegrees>-8.338765203952789306640625</LongitudeDegrees>
            </Position>
            <AltitudeMeters>46.799999237060546875</AltitudeMeters>
            <DistanceMeters>22734.253535251</DistanceMeters>
          </Trackpoint>
          <Trackpoint>
            <Time>2018-04-21T09:17:51.000Z</Time>
            <Position>
              <LatitudeDegrees>43.23859174735844135284423828125</LatitudeDegrees>
              <LongitudeDegrees>-8.33881205879151821136474609375</LongitudeDegrees>
            </Position>
            <AltitudeMeters>47.200000762939453125</AltitudeMeters>
            <DistanceMeters>22738.945584523</DistanceMeters>
          </Trackpoint>
          <Trackpoint>
            <Time>2018-04-21T09:17:52.000Z</Time>
            <Position>
              <LatitudeDegrees>43.23856827802956104278564453125</LatitudeDegrees>
              <LongitudeDegrees>-8.33885396830737590789794921875</LongitudeDegrees>
            </Position>
            <AltitudeMeters>47.40000152587890625</AltitudeMeters>
            <DistanceMeters>22743.231278806</DistanceMeters>
          </Trackpoint>
          <Trackpoint>
            <Time>2018-04-21T09:17:53.000Z</Time>
            <Position>
              <LatitudeDegrees>43.238544724881649017333984375</LatitudeDegrees>
              <LongitudeDegrees>-8.3388924412429332733154296875</LongitudeDegrees>
            </Position>
            <AltitudeMeters>46.40000152587890625</AltitudeMeters>
            <DistanceMeters>22747.307470737</DistanceMeters>
          </Trackpoint>
          <Trackpoint>
            <Time>2018-04-21T09:17:55.000Z</Time>
            <Position>
              <LatitudeDegrees>43.23850675486028194427490234375</LatitudeDegrees>
              <LongitudeDegrees>-8.33896159194409847259521484375</LongitudeDegrees>
            </Position>
            <AltitudeMeters>47.200000762939453125</AltitudeMeters>
            <DistanceMeters>22754.329166927</DistanceMeters>
          </Trackpoint>
          <Trackpoint>
            <Time>2018-04-21T09:17:56.000Z</Time>
            <Position>
              <LatitudeDegrees>43.238493762910366058349609375</LatitudeDegrees>
              <LongitudeDegrees>-8.33898581564426422119140625</LongitudeDegrees>
            </Position>
            <AltitudeMeters>49.200000762939453125</AltitudeMeters>
            <DistanceMeters>22756.766745705</DistanceMeters>
          </Trackpoint>
          <Trackpoint>
            <Time>2018-04-21T09:17:58.000Z</Time>
            <Position>
              <LatitudeDegrees>43.238460235297679901123046875</LatitudeDegrees>
              <LongitudeDegrees>-8.3390320837497711181640625</LongitudeDegrees>
            </Position>
            <AltitudeMeters>49</AltitudeMeters>
            <DistanceMeters>22762.059315698</DistanceMeters>
          </Trackpoint>
          <Trackpoint>
            <Time>2018-04-21T09:18:00.000Z</Time>
            <Position>
              <LatitudeDegrees>43.23843031190335750579833984375</LatitudeDegrees>
              <LongitudeDegrees>-8.3390828780829906463623046875</LongitudeDegrees>
            </Position>
            <AltitudeMeters>49.799999237060546875</AltitudeMeters>
            <DistanceMeters>22767.357001758</DistanceMeters>
          </Trackpoint>
          <Trackpoint>
            <Time>2018-04-21T09:18:01.000Z</Time>
            <Position>
              <LatitudeDegrees>43.2384198345243930816650390625</LatitudeDegrees>
              <LongitudeDegrees>-8.3391046710312366485595703125</LongitudeDegrees>
            </Position>
            <AltitudeMeters>50.200000762939453125</AltitudeMeters>
            <DistanceMeters>22769.477609706</DistanceMeters>
          </Trackpoint>
          <Trackpoint>
            <Time>2018-04-21T09:18:03.000Z</Time>
            <Position>
              <LatitudeDegrees>43.23840357363224029541015625</LatitudeDegrees>
              <LongitudeDegrees>-8.3391506038606166839599609375</LongitudeDegrees>
            </Position>
            <AltitudeMeters>50.799999237060546875</AltitudeMeters>
            <DistanceMeters>22773.61863798</DistanceMeters>
          </Trackpoint>
          <Trackpoint>
            <Time>2018-04-21T09:18:04.000Z</Time>
            <Position>
              <LatitudeDegrees>43.23839829303324222564697265625</LatitudeDegrees>
              <LongitudeDegrees>-8.3391715586185455322265625</LongitudeDegrees>
            </Position>
            <AltitudeMeters>51.40000152587890625</AltitudeMeters>
            <DistanceMeters>22775.416627793</DistanceMeters>
          </Trackpoint>
          <Trackpoint>
            <Time>2018-04-21T09:18:06.000Z</Time>
            <Position>
              <LatitudeDegrees>43.23838270269334316253662109375</LatitudeDegrees>
              <LongitudeDegrees>-8.33920332603156566619873046875</LongitudeDegrees>
            </Position>
            <AltitudeMeters>52.59999847412109375</AltitudeMeters>
            <DistanceMeters>22778.522126407</DistanceMeters>
          </Trackpoint>
          <Trackpoint>
            <Time>2018-04-21T09:18:09.000Z</Time>
            <Position>
              <LatitudeDegrees>43.2383420504629611968994140625</LatitudeDegrees>
              <LongitudeDegrees>-8.33921489305794239044189453125</LongitudeDegrees>
            </Position>
            <AltitudeMeters>53.200000762939453125</AltitudeMeters>
            <DistanceMeters>22783.143395799</DistanceMeters>
          </Trackpoint>
          <Trackpoint>
            <Time>2018-04-21T09:18:11.000Z</Time>
            <Position>
              <LatitudeDegrees>43.23830709792673587799072265625</LatitudeDegrees>
              <LongitudeDegrees>-8.3392119593918323516845703125</LongitudeDegrees>
            </Position>
            <AltitudeMeters>53.59999847412109375</AltitudeMeters>
            <DistanceMeters>22787.040649778</DistanceMeters>
          </Trackpoint>
          <Trackpoint>
            <Time>2018-04-21T09:18:14.000Z</Time>
            <Position>
              <LatitudeDegrees>43.238248340785503387451171875</LatitudeDegrees>
              <LongitudeDegrees>-8.33920198492705821990966796875</LongitudeDegrees>
            </Position>
            <AltitudeMeters>54</AltitudeMeters>
            <DistanceMeters>22793.629777758</DistanceMeters>
          </Trackpoint>
          <Trackpoint>
            <Time>2018-04-21T09:18:15.000Z</Time>
            <Position>
              <LatitudeDegrees>43.2381995581090450286865234375</LatitudeDegrees>
              <LongitudeDegrees>-8.3392243646085262298583984375</LongitudeDegrees>
            </Position>
            <AltitudeMeters>54.200000762939453125</AltitudeMeters>
            <DistanceMeters>22799.355088011</DistanceMeters>
          </Trackpoint>
          <Trackpoint>
            <Time>2018-04-21T09:18:17.000Z</Time>
            <Position>
              <LatitudeDegrees>43.2381264679133892059326171875</LatitudeDegrees>
              <LongitudeDegrees>-8.33926585502922534942626953125</LongitudeDegrees>
            </Position>
            <AltitudeMeters>54.799999237060546875</AltitudeMeters>
            <DistanceMeters>22808.158275845</DistanceMeters>
          </Trackpoint>
          <Trackpoint>
            <Time>2018-04-21T09:18:21.000Z</Time>
            <Position>
              <LatitudeDegrees>43.2380044274032115936279296875</LatitudeDegrees>
              <LongitudeDegrees>-8.3393705449998378753662109375</LongitudeDegrees>
            </Position>
            <AltitudeMeters>55.799999237060546875</AltitudeMeters>
            <DistanceMeters>22824.175845321</DistanceMeters>
          </Trackpoint>
          <Trackpoint>
            <Time>2018-04-21T09:18:25.000Z</Time>
            <Position>
              <LatitudeDegrees>43.23791004717350006103515625</LatitudeDegrees>
              <LongitudeDegrees>-8.33947674371302127838134765625</LongitudeDegrees>
            </Position>
            <AltitudeMeters>57</AltitudeMeters>
            <DistanceMeters>22837.759015861</DistanceMeters>
          </Trackpoint>
          <Trackpoint>
            <Time>2018-04-21T09:18:28.000Z</Time>
            <Position>
              <LatitudeDegrees>43.23783033527433872222900390625</LatitudeDegrees>
              <LongitudeDegrees>-8.33956022746860980987548828125</LongitudeDegrees>
            </Position>
            <AltitudeMeters>57.200000762939453125</AltitudeMeters>
            <DistanceMeters>22848.918081868</DistanceMeters>
          </Trackpoint>
          <Trackpoint>
            <Time>2018-04-21T09:18:35.000Z</Time>
            <Position>
              <LatitudeDegrees>43.23759346269071102142333984375</LatitudeDegrees>
              <LongitudeDegrees>-8.3397581242024898529052734375</LongitudeDegrees>
            </Position>
            <AltitudeMeters>57.59999847412109375</AltitudeMeters>
            <DistanceMeters>22879.781875122</DistanceMeters>
          </Trackpoint>
          <Trackpoint>
            <Time>2018-04-21T09:18:39.000Z</Time>
            <Position>
              <LatitudeDegrees>43.23744795285165309906005859375</LatitudeDegrees>
              <LongitudeDegrees>-8.33991511724889278411865234375</LongitudeDegrees>
            </Position>
            <AltitudeMeters>58</AltitudeMeters>
            <DistanceMeters>22900.381422502</DistanceMeters>
          </Trackpoint>
          <Trackpoint>
            <Time>2018-04-21T09:18:41.000Z</Time>
            <Position>
              <LatitudeDegrees>43.23740176856517791748046875</LatitudeDegrees>
              <LongitudeDegrees>-8.33999658934772014617919921875</LongitudeDegrees>
            </Position>
            <AltitudeMeters>58.200000762939453125</AltitudeMeters>
            <DistanceMeters>22908.751868316</DistanceMeters>
          </Trackpoint>
          <Trackpoint>
            <Time>2018-04-21T09:18:47.000Z</Time>
            <Position>
              <LatitudeDegrees>43.23725986294448375701904296875</LatitudeDegrees>
              <LongitudeDegrees>-8.34021954797208309173583984375</LongitudeDegrees>
            </Position>
            <AltitudeMeters>59.200000762939453125</AltitudeMeters>
            <DistanceMeters>22932.758106644</DistanceMeters>
          </Trackpoint>
          <Trackpoint>
            <Time>2018-04-21T09:18:50.000Z</Time>
            <Position>
              <LatitudeDegrees>43.23721024207770824432373046875</LatitudeDegrees>
              <LongitudeDegrees>-8.34033496677875518798828125</LongitudeDegrees>
            </Position>
            <AltitudeMeters>60.200000762939453125</AltitudeMeters>
            <DistanceMeters>22943.624443634</DistanceMeters>
          </Trackpoint>
          <Trackpoint>
            <Time>2018-04-21T09:18:53.000Z</Time>
            <Position>
              <LatitudeDegrees>43.237182833254337310791015625</LatitudeDegrees>
              <LongitudeDegrees>-8.3404370583593845367431640625</LongitudeDegrees>
            </Position>
            <AltitudeMeters>61</AltitudeMeters>
            <DistanceMeters>22952.447099637</DistanceMeters>
          </Trackpoint>
          <Trackpoint>
            <Time>2018-04-21T09:18:54.000Z</Time>
            <Position>
              <LatitudeDegrees>43.23717805556952953338623046875</LatitudeDegrees>
              <LongitudeDegrees>-8.340477459132671356201171875</LongitudeDegrees>
            </Position>
            <AltitudeMeters>61.59999847412109375</AltitudeMeters>
            <DistanceMeters>22955.764879495</DistanceMeters>
          </Trackpoint>
          <Trackpoint>
            <Time>2018-04-21T09:18:58.000Z</Time>
            <Position>
              <LatitudeDegrees>43.23716171085834503173828125</LatitudeDegrees>
              <LongitudeDegrees>-8.34060461260378360748291015625</LongitudeDegrees>
            </Position>
            <AltitudeMeters>62.59999847412109375</AltitudeMeters>
            <DistanceMeters>22966.234650168</DistanceMeters>
          </Trackpoint>
          <Trackpoint>
            <Time>2018-04-21T09:19:00.000Z</Time>
            <Position>
              <LatitudeDegrees>43.2371561788022518157958984375</LatitudeDegrees>
              <LongitudeDegrees>-8.34066596813499927520751953125</LongitudeDegrees>
            </Position>
            <AltitudeMeters>63</AltitudeMeters>
            <DistanceMeters>22971.246802667</DistanceMeters>
          </Trackpoint>
          <Trackpoint>
            <Time>2018-04-21T09:19:02.000Z</Time>
            <Position>
              <LatitudeDegrees>43.23715911246836185455322265625</LatitudeDegrees>
              <LongitudeDegrees>-8.34074324928224086761474609375</LongitudeDegrees>
            </Position>
            <AltitudeMeters>63.799999237060546875</AltitudeMeters>
            <DistanceMeters>22977.521444752</DistanceMeters>
          </Trackpoint>
          <Trackpoint>
            <Time>2018-04-21T09:19:05.000Z</Time>
            <Position>
              <LatitudeDegrees>43.2371752895414829254150390625</LatitudeDegrees>
              <LongitudeDegrees>-8.34085741080343723297119140625</LongitudeDegrees>
            </Position>
            <AltitudeMeters>64.59999847412109375</AltitudeMeters>
            <DistanceMeters>22986.951619343</DistanceMeters>
          </Trackpoint>
          <Trackpoint>
            <Time>2018-04-21T09:19:06.000Z</Time>
            <Position>
              <LatitudeDegrees>43.2371811568737030029296875</LatitudeDegrees>
              <LongitudeDegrees>-8.3408903516829013824462890625</LongitudeDegrees>
            </Position>
            <AltitudeMeters>64.8000030517578125</AltitudeMeters>
            <DistanceMeters>22989.702474493</DistanceMeters>
          </Trackpoint>
          <Trackpoint>
            <Time>2018-04-21T09:19:12.000Z</Time>
            <Position>
              <LatitudeDegrees>43.23715693317353725433349609375</LatitudeDegrees>
              <LongitudeDegrees>-8.34108120761811733245849609375</LongitudeDegrees>
            </Position>
            <AltitudeMeters>66</AltitudeMeters>
            <DistanceMeters>23005.411514218</DistanceMeters>
          </Trackpoint>
          <Trackpoint>
            <Time>2018-04-21T09:19:13.000Z</Time>
            <Position>
              <LatitudeDegrees>43.2371099106967449188232421875</LatitudeDegrees>
              <LongitudeDegrees>-8.34109830670058727264404296875</LongitudeDegrees>
            </Position>
            <AltitudeMeters>65.8000030517578125</AltitudeMeters>
            <DistanceMeters>23010.825535656</DistanceMeters>
          </Trackpoint>
          <Trackpoint>
            <Time>2018-04-21T09:19:15.000Z</Time>
            <Position>
              <LatitudeDegrees>43.23704998008906841278076171875</LatitudeDegrees>
              <LongitudeDegrees>-8.34110635332763195037841796875</LongitudeDegrees>
            </Position>
            <AltitudeMeters>66</AltitudeMeters>
            <DistanceMeters>23017.527445849</DistanceMeters>
          </Trackpoint>
          <Trackpoint>
            <Time>2018-04-21T09:19:18.000Z</Time>
            <Position>
              <LatitudeDegrees>43.23696766979992389678955078125</LatitudeDegrees>
              <LongitudeDegrees>-8.3410841412842273712158203125</LongitudeDegrees>
            </Position>
            <AltitudeMeters>66.8000030517578125</AltitudeMeters>
            <DistanceMeters>23026.863790311</DistanceMeters>
          </Trackpoint>
          <Trackpoint>
            <Time>2018-04-21T09:19:19.000Z</Time>
            <Position>
              <LatitudeDegrees>43.23693514801561832427978515625</LatitudeDegrees>
              <LongitudeDegrees>-8.34107634611427783966064453125</LongitudeDegrees>
            </Position>
            <AltitudeMeters>67</AltitudeMeters>
            <DistanceMeters>23030.53679102</DistanceMeters>
          </Trackpoint>
          <Trackpoint>
            <Time>2018-04-21T09:19:20.000Z</Time>
            <Position>
              <LatitudeDegrees>43.236905224621295928955078125</LatitudeDegrees>
              <LongitudeDegrees>-8.34106729365885257720947265625</LongitudeDegrees>
            </Position>
            <AltitudeMeters>67.1999969482421875</AltitudeMeters>
            <DistanceMeters>23033.944529024</DistanceMeters>
          </Trackpoint>
          <Trackpoint>
            <Time>2018-04-21T09:19:23.000Z</Time>
            <Position>
              <LatitudeDegrees>43.236815370619297027587890625</LatitudeDegrees>
              <LongitudeDegrees>-8.34102630615234375</LongitudeDegrees>
            </Position>
            <AltitudeMeters>68</AltitudeMeters>
            <DistanceMeters>23044.482644611</DistanceMeters>
          </Trackpoint>
          <Trackpoint>
            <Time>2018-04-21T09:19:26.000Z</Time>
            <Position>
              <LatitudeDegrees>43.2367256842553615570068359375</LatitudeDegrees>
              <LongitudeDegrees>-8.34099344909191131591796875</LongitudeDegrees>
            </Position>
            <AltitudeMeters>63.799999237060546875</AltitudeMeters>
            <DistanceMeters>23054.81480623</DistanceMeters>
          </Trackpoint>
          <Trackpoint>
            <Time>2018-04-21T09:19:27.000Z</Time>
            <Position>
              <LatitudeDegrees>43.2366924919188022613525390625</LatitudeDegrees>
              <LongitudeDegrees>-8.34098003804683685302734375</LongitudeDegrees>
            </Position>
            <AltitudeMeters>65</AltitudeMeters>
            <DistanceMeters>23058.665440661</DistanceMeters>
          </Trackpoint>
          <Trackpoint>
            <Time>2018-04-21T09:19:29.000Z</Time>
            <Position>
              <LatitudeDegrees>43.23662384413182735443115234375</LatitudeDegrees>
              <LongitudeDegrees>-8.34093041718006134033203125</LongitudeDegrees>
            </Position>
            <AltitudeMeters>68.59999847412109375</AltitudeMeters>
            <DistanceMeters>23067.30033158</DistanceMeters>
          </Trackpoint>
          <Trackpoint>
            <Time>2018-04-21T09:19:30.000Z</Time>
            <Position>
              <LatitudeDegrees>43.23659065179526805877685546875</LatitudeDegrees>
              <LongitudeDegrees>-8.3408935368061065673828125</LongitudeDegrees>
            </Position>
            <AltitudeMeters>67.59999847412109375</AltitudeMeters>
            <DistanceMeters>23072.053567453</DistanceMeters>
          </Trackpoint>
          <Trackpoint>
            <Time>2018-04-21T09:19:32.000Z</Time>
            <Position>
              <LatitudeDegrees>43.2365345768630504608154296875</LatitudeDegrees>
              <LongitudeDegrees>-8.3407988213002681732177734375</LongitudeDegrees>
            </Position>
            <AltitudeMeters>68.40000152587890625</AltitudeMeters>
            <DistanceMeters>23081.950042033</DistanceMeters>
          </Trackpoint>
          <Trackpoint>
            <Time>2018-04-21T09:19:35.000Z</Time>
            <Position>
              <LatitudeDegrees>43.23647975921630859375</LatitudeDegrees>
              <LongitudeDegrees>-8.3406440913677215576171875</LongitudeDegrees>
            </Position>
            <AltitudeMeters>68.59999847412109375</AltitudeMeters>
            <DistanceMeters>23095.901504241</DistanceMeters>
          </Trackpoint>
          <Trackpoint>
            <Time>2018-04-21T09:19:38.000Z</Time>
            <Position>
              <LatitudeDegrees>43.23646810837090015411376953125</LatitudeDegrees>
              <LongitudeDegrees>-8.3404940553009510040283203125</LongitudeDegrees>
            </Position>
            <AltitudeMeters>68.8000030517578125</AltitudeMeters>
            <DistanceMeters>23108.136355169</DistanceMeters>
          </Trackpoint>
          <Trackpoint>
            <Time>2018-04-21T09:19:44.000Z</Time>
            <Position>
              <LatitudeDegrees>43.23646760545670986175537109375</LatitudeDegrees>
              <LongitudeDegrees>-8.34015064872801303863525390625</LongitudeDegrees>
            </Position>
            <AltitudeMeters>68.1999969482421875</AltitudeMeters>
            <DistanceMeters>23135.98226338</DistanceMeters>
          </Trackpoint>
          <Trackpoint>
            <Time>2018-04-21T09:19:45.000Z</Time>
            <Position>
              <LatitudeDegrees>43.23646140284836292266845703125</LatitudeDegrees>
              <LongitudeDegrees>-8.34007873199880123138427734375</LongitudeDegrees>
            </Position>
            <AltitudeMeters>67.59999847412109375</AltitudeMeters>
            <DistanceMeters>23141.855498605</DistanceMeters>
          </Trackpoint>
          <Trackpoint>
            <Time>2018-04-21T09:19:46.000Z</Time>
            <Position>
              <LatitudeDegrees>43.23644698597490787506103515625</LatitudeDegrees>
              <LongitudeDegrees>-8.34000371396541595458984375</LongitudeDegrees>
            </Position>
            <AltitudeMeters>67.40000152587890625</AltitudeMeters>
            <DistanceMeters>23148.147386647</DistanceMeters>
          </Trackpoint>
          <Trackpoint>
            <Time>2018-04-21T09:19:47.000Z</Time>
            <Position>
              <LatitudeDegrees>43.23642653413116931915283203125</LatitudeDegrees>
              <LongitudeDegrees>-8.339918889105319976806640625</LongitudeDegrees>
            </Position>
            <AltitudeMeters>67.1999969482421875</AltitudeMeters>
            <DistanceMeters>23155.392511516</DistanceMeters>
          </Trackpoint>
          <Trackpoint>
            <Time>2018-04-21T09:19:50.000Z</Time>
            <Position>
              <LatitudeDegrees>43.23635679669678211212158203125</LatitudeDegrees>
              <LongitudeDegrees>-8.3396919071674346923828125</LongitudeDegrees>
            </Position>
            <AltitudeMeters>67.1999969482421875</AltitudeMeters>
            <DistanceMeters>23175.367569908</DistanceMeters>
          </Trackpoint>
          <Trackpoint>
            <Time>2018-04-21T09:19:52.000Z</Time>
            <Position>
              <LatitudeDegrees>43.2362968660891056060791015625</LatitudeDegrees>
              <LongitudeDegrees>-8.3395328186452388763427734375</LongitudeDegrees>
            </Position>
            <AltitudeMeters>65.59999847412109375</AltitudeMeters>
            <DistanceMeters>23189.890189004</DistanceMeters>
          </Trackpoint>
          <Trackpoint>
            <Time>2018-04-21T09:19:53.000Z</Time>
            <Position>
              <LatitudeDegrees>43.2362676970660686492919921875</LatitudeDegrees>
              <LongitudeDegrees>-8.3394557051360607147216796875</LongitudeDegrees>
            </Position>
            <AltitudeMeters>64.1999969482421875</AltitudeMeters>
            <DistanceMeters>23196.936277301</DistanceMeters>
          </Trackpoint>
          <Trackpoint>
            <Time>2018-04-21T09:19:54.000Z</Time>
            <Position>
              <LatitudeDegrees>43.2362397015094757080078125</LatitudeDegrees>
              <LongitudeDegrees>-8.3393807709217071533203125</LongitudeDegrees>
            </Position>
            <AltitudeMeters>63.799999237060546875</AltitudeMeters>
            <DistanceMeters>23203.764989827</DistanceMeters>
          </Trackpoint>
          <Trackpoint>
            <Time>2018-04-21T09:19:55.000Z</Time>
            <Position>
              <LatitudeDegrees>43.2362003065645694732666015625</LatitudeDegrees>
              <LongitudeDegrees>-8.33931648172438144683837890625</LongitudeDegrees>
            </Position>
            <AltitudeMeters>63.200000762939453125</AltitudeMeters>
            <DistanceMeters>23210.576489865</DistanceMeters>
          </Trackpoint>
          <Trackpoint>
            <Time>2018-04-21T09:19:56.000Z</Time>
            <Position>
              <LatitudeDegrees>43.23615998961031436920166015625</LatitudeDegrees>
              <LongitudeDegrees>-8.33926769904792308807373046875</LongitudeDegrees>
            </Position>
            <AltitudeMeters>62.799999237060546875</AltitudeMeters>
            <DistanceMeters>23216.558646077</DistanceMeters>
          </Trackpoint>
          <Trackpoint>
            <Time>2018-04-21T09:19:58.000Z</Time>
            <Position>
              <LatitudeDegrees>43.236069045960903167724609375</LatitudeDegrees>
              <LongitudeDegrees>-8.33917264826595783233642578125</LongitudeDegrees>
            </Position>
            <AltitudeMeters>62</AltitudeMeters>
            <DistanceMeters>23229.281229159</DistanceMeters>
          </Trackpoint>
          <Trackpoint>
            <Time>2018-04-21T09:20:00.000Z</Time>
            <Position>
              <LatitudeDegrees>43.2359967939555644989013671875</LatitudeDegrees>
              <LongitudeDegrees>-8.3390778489410877227783203125</LongitudeDegrees>
            </Position>
            <AltitudeMeters>62</AltitudeMeters>
            <DistanceMeters>23240.406256248</DistanceMeters>
          </Trackpoint>
          <Trackpoint>
            <Time>2018-04-21T09:20:01.000Z</Time>
            <Position>
              <LatitudeDegrees>43.23597609065473079681396484375</LatitudeDegrees>
              <LongitudeDegrees>-8.33903568796813488006591796875</LongitudeDegrees>
            </Position>
            <AltitudeMeters>62.200000762939453125</AltitudeMeters>
            <DistanceMeters>23244.52980253</DistanceMeters>
          </Trackpoint>
          <Trackpoint>
            <Time>2018-04-21T09:20:06.000Z</Time>
            <Position>
              <LatitudeDegrees>43.23595211841166019439697265625</LatitudeDegrees>
              <LongitudeDegrees>-8.33885011263191699981689453125</LongitudeDegrees>
            </Position>
            <AltitudeMeters>62.799999237060546875</AltitudeMeters>
            <DistanceMeters>23259.812272787</DistanceMeters>
          </Trackpoint>
          <Trackpoint>
            <Time>2018-04-21T09:20:08.000Z</Time>
            <Position>
              <LatitudeDegrees>43.2359687983989715576171875</LatitudeDegrees>
              <LongitudeDegrees>-8.33879613317549228668212890625</LongitudeDegrees>
            </Position>
            <AltitudeMeters>63.200000762939453125</AltitudeMeters>
            <DistanceMeters>23264.566458452</DistanceMeters>
          </Trackpoint>
          <Trackpoint>
            <Time>2018-04-21T09:20:11.000Z</Time>
            <Position>
              <LatitudeDegrees>43.2360063493251800537109375</LatitudeDegrees>
              <LongitudeDegrees>-8.338723294436931610107421875</LongitudeDegrees>
            </Position>
            <AltitudeMeters>64.40000152587890625</AltitudeMeters>
            <DistanceMeters>23271.802229539</DistanceMeters>
          </Trackpoint>
          <Trackpoint>
            <Time>2018-04-21T09:20:13.000Z</Time>
            <Position>
              <LatitudeDegrees>43.236034847795963287353515625</LatitudeDegrees>
              <LongitudeDegrees>-8.3386855758726596832275390625</LongitudeDegrees>
            </Position>
            <AltitudeMeters>65.1999969482421875</AltitudeMeters>
            <DistanceMeters>23276.208437019</DistanceMeters>
          </Trackpoint>
          <Trackpoint>
            <Time>2018-04-21T09:20:14.000Z</Time>
            <Position>
              <LatitudeDegrees>43.236050270497798919677734375</LatitudeDegrees>
              <LongitudeDegrees>-8.338667638599872589111328125</LongitudeDegrees>
            </Position>
            <AltitudeMeters>65.59999847412109375</AltitudeMeters>
            <DistanceMeters>23278.457179514</DistanceMeters>
          </Trackpoint>
          <Trackpoint>
            <Time>2018-04-21T09:20:17.000Z</Time>
            <Position>
              <LatitudeDegrees>43.23610198684036731719970703125</LatitudeDegrees>
              <LongitudeDegrees>-8.33861298859119415283203125</LongitudeDegrees>
            </Position>
            <AltitudeMeters>66.8000030517578125</AltitudeMeters>
            <DistanceMeters>23285.721597367</DistanceMeters>
          </Trackpoint>
          <Trackpoint>
            <Time>2018-04-21T09:20:20.000Z</Time>
            <Position>
              <LatitudeDegrees>43.236158229410648345947265625</LatitudeDegrees>
              <LongitudeDegrees>-8.3385492861270904541015625</LongitudeDegrees>
            </Position>
            <AltitudeMeters>68.1999969482421875</AltitudeMeters>
            <DistanceMeters>23293.837346105</DistanceMeters>
          </Trackpoint>
          <Trackpoint>
            <Time>2018-04-21T09:20:23.000Z</Time>
            <Position>
              <LatitudeDegrees>43.2362217642366886138916015625</LatitudeDegrees>
              <LongitudeDegrees>-8.3384934626519680023193359375</LongitudeDegrees>
            </Position>
            <AltitudeMeters>69</AltitudeMeters>
            <DistanceMeters>23302.234181037</DistanceMeters>
          </Trackpoint>
          <Trackpoint>
            <Time>2018-04-21T09:20:24.000Z</Time>
            <Position>
              <LatitudeDegrees>43.23624012060463428497314453125</LatitudeDegrees>
              <LongitudeDegrees>-8.33846957422792911529541015625</LongitudeDegrees>
            </Position>
            <AltitudeMeters>69.40000152587890625</AltitudeMeters>
            <DistanceMeters>23305.051526808</DistanceMeters>
          </Trackpoint>
          <Trackpoint>
            <Time>2018-04-21T09:20:27.000Z</Time>
            <Position>
              <LatitudeDegrees>43.23628890328109264373779296875</LatitudeDegrees>
              <LongitudeDegrees>-8.33839782513678073883056640625</LongitudeDegrees>
            </Position>
            <AltitudeMeters>70.40000152587890625</AltitudeMeters>
            <DistanceMeters>23313.009978679</DistanceMeters>
          </Trackpoint>
          <Trackpoint>
            <Time>2018-04-21T09:20:28.000Z</Time>
            <Position>
              <LatitudeDegrees>43.2363052479922771453857421875</LatitudeDegrees>
              <LongitudeDegrees>-8.3383727632462978363037109375</LongitudeDegrees>
            </Position>
            <AltitudeMeters>71</AltitudeMeters>
            <DistanceMeters>23315.737758543</DistanceMeters>
          </Trackpoint>
          <Trackpoint>
            <Time>2018-04-21T09:20:32.000Z</Time>
            <Position>
              <LatitudeDegrees>43.23636786080896854400634765625</LatitudeDegrees>
              <LongitudeDegrees>-8.33826254121959209442138671875</LongitudeDegrees>
            </Position>
            <AltitudeMeters>72.1999969482421875</AltitudeMeters>
            <DistanceMeters>23327.071063769</DistanceMeters>
          </Trackpoint>
          <Trackpoint>
            <Time>2018-04-21T09:20:34.000Z</Time>
            <Position>
              <LatitudeDegrees>43.23639518581330776214599609375</LatitudeDegrees>
              <LongitudeDegrees>-8.338202945888042449951171875</LongitudeDegrees>
            </Position>
            <AltitudeMeters>72.8000030517578125</AltitudeMeters>
            <DistanceMeters>23332.780580032</DistanceMeters>
          </Trackpoint>
          <Trackpoint>
            <Time>2018-04-21T09:20:36.000Z</Time>
            <Position>
              <LatitudeDegrees>43.23642049916088581085205078125</LatitudeDegrees>
              <LongitudeDegrees>-8.338142596185207366943359375</LongitudeDegrees>
            </Position>
            <AltitudeMeters>73.1999969482421875</AltitudeMeters>
            <DistanceMeters>23338.42647853</DistanceMeters>
          </Trackpoint>
          <Trackpoint>
            <Time>2018-04-21T09:20:39.000Z</Time>
            <Position>
              <LatitudeDegrees>43.23645520024001598358154296875</LatitudeDegrees>
              <LongitudeDegrees>-8.33805508911609649658203125</LongitudeDegrees>
            </Position>
            <AltitudeMeters>74.1999969482421875</AltitudeMeters>
            <DistanceMeters>23346.50542602</DistanceMeters>
          </Trackpoint>
          <Trackpoint>
            <Time>2018-04-21T09:20:44.000Z</Time>
            <Position>
              <LatitudeDegrees>43.23650054633617401123046875</LatitudeDegrees>
              <LongitudeDegrees>-8.3379090763628482818603515625</LongitudeDegrees>
            </Position>
            <AltitudeMeters>75.1999969482421875</AltitudeMeters>
            <DistanceMeters>23359.375846459</DistanceMeters>
          </Trackpoint>
          <Trackpoint>
            <Time>2018-04-21T09:20:45.000Z</Time>
            <Position>
              <LatitudeDegrees>43.23650280945003032684326171875</LatitudeDegrees>
              <LongitudeDegrees>-8.3378782309591770172119140625</LongitudeDegrees>
            </Position>
            <AltitudeMeters>75.59999847412109375</AltitudeMeters>
            <DistanceMeters>23361.890017</DistanceMeters>
          </Trackpoint>
          <Trackpoint>
            <Time>2018-04-21T09:20:49.000Z</Time>
            <Position>
              <LatitudeDegrees>43.236479423940181732177734375</LatitudeDegrees>
              <LongitudeDegrees>-8.33774806000292301177978515625</LongitudeDegrees>
            </Position>
            <AltitudeMeters>76.40000152587890625</AltitudeMeters>
            <DistanceMeters>23372.760923606</DistanceMeters>
          </Trackpoint>
          <Trackpoint>
            <Time>2018-04-21T09:20:51.000Z</Time>
            <Position>
              <LatitudeDegrees>43.23645872063934803009033203125</LatitudeDegrees>
              <LongitudeDegrees>-8.33768553100526332855224609375</LongitudeDegrees>
            </Position>
            <AltitudeMeters>77</AltitudeMeters>
            <DistanceMeters>23378.330332244</DistanceMeters>
          </Trackpoint>
          <Trackpoint>
            <Time>2018-04-21T09:20:55.000Z</Time>
            <Position>
              <LatitudeDegrees>43.2363994605839252471923828125</LatitudeDegrees>
              <LongitudeDegrees>-8.3375821821391582489013671875</LongitudeDegrees>
            </Position>
            <AltitudeMeters>77.59999847412109375</AltitudeMeters>
            <DistanceMeters>23388.994937854</DistanceMeters>
          </Trackpoint>
          <Trackpoint>
            <Time>2018-04-21T09:20:56.000Z</Time>
            <Position>
              <LatitudeDegrees>43.236385881900787353515625</LatitudeDegrees>
              <LongitudeDegrees>-8.33755762316286563873291015625</LongitudeDegrees>
            </Position>
            <AltitudeMeters>78.1999969482421875</AltitudeMeters>
            <DistanceMeters>23391.496505958</DistanceMeters>
          </Trackpoint>
          <Trackpoint>
            <Time>2018-04-21T09:21:00.000Z</Time>
            <Position>
              <LatitudeDegrees>43.23633156716823577880859375</LatitudeDegrees>
              <LongitudeDegrees>-8.3374661765992641448974609375</LongitudeDegrees>
            </Position>
            <AltitudeMeters>79.1999969482421875</AltitudeMeters>
            <DistanceMeters>23401.06357734</DistanceMeters>
          </Trackpoint>
          <Trackpoint>
            <Time>2018-04-21T09:21:03.000Z</Time>
            <Position>
              <LatitudeDegrees>43.23629460297524929046630859375</LatitudeDegrees>
              <LongitudeDegrees>-8.33739937283098697662353515625</LongitudeDegrees>
            </Position>
            <AltitudeMeters>80.40000152587890625</AltitudeMeters>
            <DistanceMeters>23407.865791075</DistanceMeters>
          </Trackpoint>
          <Trackpoint>
            <Time>2018-04-21T09:21:04.000Z</Time>
            <Position>
              <LatitudeDegrees>43.2362807728350162506103515625</LatitudeDegrees>
              <LongitudeDegrees>-8.33737439475953578948974609375</LongitudeDegrees>
            </Position>
            <AltitudeMeters>80.8000030517578125</AltitudeMeters>
            <DistanceMeters>23410.410307691</DistanceMeters>
          </Trackpoint>
          <Trackpoint>
            <Time>2018-04-21T09:21:06.000Z</Time>
            <Position>
              <LatitudeDegrees>43.236250765621662139892578125</LatitudeDegrees>
              <LongitudeDegrees>-8.337323851883411407470703125</LongitudeDegrees>
            </Position>
            <AltitudeMeters>81.40000152587890625</AltitudeMeters>
            <DistanceMeters>23415.697756667</DistanceMeters>
          </Trackpoint>
          <Trackpoint>
            <Time>2018-04-21T09:21:10.000Z</Time>
            <Position>
              <LatitudeDegrees>43.23619871400296688079833984375</LatitudeDegrees>
              <LongitudeDegrees>-8.3372519351541996002197265625</LongitudeDegrees>
            </Position>
            <AltitudeMeters>82.59999847412109375</AltitudeMeters>
            <DistanceMeters>23423.917979415</DistanceMeters>
          </Trackpoint>
          <Trackpoint>
            <Time>2018-04-21T09:21:11.000Z</Time>
            <Position>
              <LatitudeDegrees>43.236182369291782379150390625</LatitudeDegrees>
              <LongitudeDegrees>-8.33724103868007659912109375</LongitudeDegrees>
            </Position>
            <AltitudeMeters>82.59999847412109375</AltitudeMeters>
            <DistanceMeters>23425.940508681</DistanceMeters>
          </Trackpoint>
          <Trackpoint>
            <Time>2018-04-21T09:21:15.000Z</Time>
            <Position>
              <LatitudeDegrees>43.23608882725238800048828125</LatitudeDegrees>
              <LongitudeDegrees>-8.33722033537924289703369140625</LongitudeDegrees>
            </Position>
            <AltitudeMeters>83.8000030517578125</AltitudeMeters>
            <DistanceMeters>23436.486333517</DistanceMeters>
          </Trackpoint>
          <Trackpoint>
            <Time>2018-04-21T09:21:16.000Z</Time>
            <Position>
              <LatitudeDegrees>43.2360658608376979827880859375</LatitudeDegrees>
              <LongitudeDegrees>-8.33721262402832508087158203125</LongitudeDegrees>
            </Position>
            <AltitudeMeters>83.8000030517578125</AltitudeMeters>
            <DistanceMeters>23439.119791075</DistanceMeters>
          </Trackpoint>
          <Trackpoint>
            <Time>2018-04-21T09:21:20.000Z</Time>
            <Position>
              <LatitudeDegrees>43.2359921000897884368896484375</LatitudeDegrees>
              <LongitudeDegrees>-8.3371842093765735626220703125</LongitudeDegrees>
            </Position>
            <AltitudeMeters>85</AltitudeMeters>
            <DistanceMeters>23447.646287744</DistanceMeters>
          </Trackpoint>
          <Trackpoint>
            <Time>2018-04-21T09:21:22.000Z</Time>
            <Position>
              <LatitudeDegrees>43.235947676002979278564453125</LatitudeDegrees>
              <LongitudeDegrees>-8.33716015331447124481201171875</LongitudeDegrees>
            </Position>
            <AltitudeMeters>85.1999969482421875</AltitudeMeters>
            <DistanceMeters>23452.960991792</DistanceMeters>
          </Trackpoint>
          <Trackpoint>
            <Time>2018-04-21T09:21:26.000Z</Time>
            <Position>
              <LatitudeDegrees>43.235854469239711761474609375</LatitudeDegrees>
              <LongitudeDegrees>-8.3371111191809177398681640625</LongitudeDegrees>
            </Position>
            <AltitudeMeters>86</AltitudeMeters>
            <DistanceMeters>23464.070586062</DistanceMeters>
          </Trackpoint>
          <Trackpoint>
            <Time>2018-04-21T09:21:30.000Z</Time>
            <Position>
              <LatitudeDegrees>43.2357657887041568756103515625</LatitudeDegrees>
              <LongitudeDegrees>-8.33706325851380825042724609375</LongitudeDegrees>
            </Position>
            <AltitudeMeters>87.1999969482421875</AltitudeMeters>
            <DistanceMeters>23474.676606157</DistanceMeters>
          </Trackpoint>
          <Trackpoint>
            <Time>2018-04-21T09:21:31.000Z</Time>
            <Position>
              <LatitudeDegrees>43.2357456721365451812744140625</LatitudeDegrees>
              <LongitudeDegrees>-8.33705219440162181854248046875</LongitudeDegrees>
            </Position>
            <AltitudeMeters>87.1999969482421875</AltitudeMeters>
            <DistanceMeters>23477.088113824</DistanceMeters>
          </Trackpoint>
          <Trackpoint>
            <Time>2018-04-21T09:21:36.000Z</Time>
            <Position>
              <LatitudeDegrees>43.23564894497394561767578125</LatitudeDegrees>
              <LongitudeDegrees>-8.33698782138526439666748046875</LongitudeDegrees>
            </Position>
            <AltitudeMeters>88.40000152587890625</AltitudeMeters>
            <DistanceMeters>23489.052426249</DistanceMeters>
          </Trackpoint>
          <Trackpoint>
            <Time>2018-04-21T09:21:39.000Z</Time>
            <Position>
              <LatitudeDegrees>43.2355951331555843353271484375</LatitudeDegrees>
              <LongitudeDegrees>-8.3369464986026287078857421875</LongitudeDegrees>
            </Position>
            <AltitudeMeters>89</AltitudeMeters>
            <DistanceMeters>23495.915434243</DistanceMeters>
          </Trackpoint>
          <Trackpoint>
            <Time>2018-04-21T09:21:42.000Z</Time>
            <Position>
              <LatitudeDegrees>43.23553620837628841400146484375</LatitudeDegrees>
              <LongitudeDegrees>-8.33687416277825832366943359375</LongitudeDegrees>
            </Position>
            <AltitudeMeters>89.40000152587890625</AltitudeMeters>
            <DistanceMeters>23504.713491715</DistanceMeters>
          </Trackpoint>
          <Trackpoint>
            <Time>2018-04-21T09:21:46.000Z</Time>
            <Position>
              <LatitudeDegrees>43.23543411679565906524658203125</LatitudeDegrees>
              <LongitudeDegrees>-8.33679922856390476226806640625</LongitudeDegrees>
            </Position>
            <AltitudeMeters>89.40000152587890625</AltitudeMeters>
            <DistanceMeters>23517.599338434</DistanceMeters>
          </Trackpoint>
          <Trackpoint>
            <Time>2018-04-21T09:21:51.000Z</Time>
            <Position>
              <LatitudeDegrees>43.23524971492588520050048828125</LatitudeDegrees>
              <LongitudeDegrees>-8.33676360547542572021484375</LongitudeDegrees>
            </Position>
            <AltitudeMeters>89.40000152587890625</AltitudeMeters>
            <DistanceMeters>23538.32605686</DistanceMeters>
          </Trackpoint>
          <Trackpoint>
            <Time>2018-04-21T09:21:58.000Z</Time>
            <Position>
              <LatitudeDegrees>43.2350140996277332305908203125</LatitudeDegrees>
              <LongitudeDegrees>-8.33678917028009891510009765625</LongitudeDegrees>
            </Position>
            <AltitudeMeters>90.59999847412109375</AltitudeMeters>
            <DistanceMeters>23564.632156499</DistanceMeters>
          </Trackpoint>
          <Trackpoint>
            <Time>2018-04-21T09:21:59.000Z</Time>
            <Position>
              <LatitudeDegrees>43.23498107492923736572265625</LatitudeDegrees>
              <LongitudeDegrees>-8.33679084666073322296142578125</LongitudeDegrees>
            </Position>
            <AltitudeMeters>90.8000030517578125</AltitudeMeters>
            <DistanceMeters>23568.30884311</DistanceMeters>
          </Trackpoint>
          <Trackpoint>
            <Time>2018-04-21T09:22:07.000Z</Time>
            <Position>
              <LatitudeDegrees>43.2346875406801700592041015625</LatitudeDegrees>
              <LongitudeDegrees>-8.33683694712817668914794921875</LongitudeDegrees>
            </Position>
            <AltitudeMeters>91.40000152587890625</AltitudeMeters>
            <DistanceMeters>23601.193029497</DistanceMeters>
          </Trackpoint>
          <Trackpoint>
            <Time>2018-04-21T09:22:12.000Z</Time>
            <Position>
              <LatitudeDegrees>43.23441655375063419342041015625</LatitudeDegrees>
              <LongitudeDegrees>-8.3369535394012928009033203125</LongitudeDegrees>
            </Position>
            <AltitudeMeters>90.1999969482421875</AltitudeMeters>
            <DistanceMeters>23632.801663095</DistanceMeters>
          </Trackpoint>
          <Trackpoint>
            <Time>2018-04-21T09:22:14.000Z</Time>
            <Position>
              <LatitudeDegrees>43.23430239222943782806396484375</LatitudeDegrees>
              <LongitudeDegrees>-8.33703626878559589385986328125</LongitudeDegrees>
            </Position>
            <AltitudeMeters>89.8000030517578125</AltitudeMeters>
            <DistanceMeters>23647.170192516</DistanceMeters>
          </Trackpoint>
          <Trackpoint>
            <Time>2018-04-21T09:22:15.000Z</Time>
            <Position>
              <LatitudeDegrees>43.23425008915364742279052734375</LatitudeDegrees>
              <LongitudeDegrees>-8.33708773367106914520263671875</LongitudeDegrees>
            </Position>
            <AltitudeMeters>89.8000030517578125</AltitudeMeters>
            <DistanceMeters>23654.333215227</DistanceMeters>
          </Trackpoint>
          <Trackpoint>
            <Time>2018-04-21T09:22:16.000Z</Time>
            <Position>
              <LatitudeDegrees>43.234198875725269317626953125</LatitudeDegrees>
              <LongitudeDegrees>-8.337144143879413604736328125</LongitudeDegrees>
            </Position>
            <AltitudeMeters>89.59999847412109375</AltitudeMeters>
            <DistanceMeters>23661.642246096</DistanceMeters>
          </Trackpoint>
          <Trackpoint>
            <Time>2018-04-21T09:22:17.000Z</Time>
            <Position>
              <LatitudeDegrees>43.23414648883044719696044921875</LatitudeDegrees>
              <LongitudeDegrees>-8.3372028172016143798828125</LongitudeDegrees>
            </Position>
            <AltitudeMeters>89.40000152587890625</AltitudeMeters>
            <DistanceMeters>23669.167977918</DistanceMeters>
          </Trackpoint>
          <Trackpoint>
            <Time>2018-04-21T09:22:19.000Z</Time>
            <Position>
              <LatitudeDegrees>43.23404230177402496337890625</LatitudeDegrees>
              <LongitudeDegrees>-8.33730029873549938201904296875</LongitudeDegrees>
            </Position>
            <AltitudeMeters>89.1999969482421875</AltitudeMeters>
            <DistanceMeters>23683.201721796</DistanceMeters>
          </Trackpoint>
          <Trackpoint>
            <Time>2018-04-21T09:22:20.000Z</Time>
            <Position>
              <LatitudeDegrees>43.23398740030825138092041015625</LatitudeDegrees>
              <LongitudeDegrees>-8.337332569062709808349609375</LongitudeDegrees>
            </Position>
            <AltitudeMeters>89</AltitudeMeters>
            <DistanceMeters>23689.849517981</DistanceMeters>
          </Trackpoint>
          <Trackpoint>
            <Time>2018-04-21T09:22:22.000Z</Time>
            <Position>
              <LatitudeDegrees>43.23388061486184597015380859375</LatitudeDegrees>
              <LongitudeDegrees>-8.3373798429965972900390625</LongitudeDegrees>
            </Position>
            <AltitudeMeters>89</AltitudeMeters>
            <DistanceMeters>23702.337489001</DistanceMeters>
          </Trackpoint>
          <Trackpoint>
            <Time>2018-04-21T09:22:25.000Z</Time>
            <Position>
              <LatitudeDegrees>43.233719430863857269287109375</LatitudeDegrees>
              <LongitudeDegrees>-8.33740004338324069976806640625</LongitudeDegrees>
            </Position>
            <AltitudeMeters>89</AltitudeMeters>
            <DistanceMeters>23720.352007791</DistanceMeters>
          </Trackpoint>
          <Trackpoint>
            <Time>2018-04-21T09:22:28.000Z</Time>
            <Position>
              <LatitudeDegrees>43.2335687242448329925537109375</LatitudeDegrees>
              <LongitudeDegrees>-8.33742468617856502532958984375</LongitudeDegrees>
            </Position>
            <AltitudeMeters>89.1999969482421875</AltitudeMeters>
            <DistanceMeters>23737.244860593</DistanceMeters>
          </Trackpoint>
          <Trackpoint>
            <Time>2018-04-21T09:22:34.000Z</Time>
            <Position>
              <LatitudeDegrees>43.23330192826688289642333984375</LatitudeDegrees>
              <LongitudeDegrees>-8.33740758709609508514404296875</LongitudeDegrees>
            </Position>
            <AltitudeMeters>90.40000152587890625</AltitudeMeters>
            <DistanceMeters>23766.972278932</DistanceMeters>
          </Trackpoint>
          <Trackpoint>
            <Time>2018-04-21T09:22:36.000Z</Time>
            <Position>
              <LatitudeDegrees>43.23322364129126071929931640625</LatitudeDegrees>
              <LongitudeDegrees>-8.33738378249108791351318359375</LongitudeDegrees>
            </Position>
            <AltitudeMeters>90.59999847412109375</AltitudeMeters>
            <DistanceMeters>23775.896699039</DistanceMeters>
          </Trackpoint>
          <Trackpoint>
            <Time>2018-04-21T09:22:40.000Z</Time>
            <Position>
              <LatitudeDegrees>43.23308047838509082794189453125</LatitudeDegrees>
              <LongitudeDegrees>-8.33733768202364444732666015625</LongitudeDegrees>
            </Position>
            <AltitudeMeters>91.8000030517578125</AltitudeMeters>
            <DistanceMeters>23792.263929952</DistanceMeters>
          </Trackpoint>
          <Trackpoint>
            <Time>2018-04-21T09:22:43.000Z</Time>
            <Position>
              <LatitudeDegrees>43.23298509232699871063232421875</LatitudeDegrees>
              <LongitudeDegrees>-8.3372938446700572967529296875</LongitudeDegrees>
            </Position>
            <AltitudeMeters>92.59999847412109375</AltitudeMeters>
            <DistanceMeters>23803.460157942</DistanceMeters>
          </Trackpoint>
          <Trackpoint>
            <Time>2018-04-21T09:22:44.000Z</Time>
            <Position>
              <LatitudeDegrees>43.2329548336565494537353515625</LatitudeDegrees>
              <LongitudeDegrees>-8.3372827805578708648681640625</LongitudeDegrees>
            </Position>
            <AltitudeMeters>92.8000030517578125</AltitudeMeters>
            <DistanceMeters>23806.946485938</DistanceMeters>
          </Trackpoint>
          <Trackpoint>
            <Time>2018-04-21T09:22:47.000Z</Time>
            <Position>
              <LatitudeDegrees>43.23286539874970912933349609375</LatitudeDegrees>
              <LongitudeDegrees>-8.33722922019660472869873046875</LongitudeDegrees>
            </Position>
            <AltitudeMeters>93.1999969482421875</AltitudeMeters>
            <DistanceMeters>23817.807004273</DistanceMeters>
          </Trackpoint>
          <Trackpoint>
            <Time>2018-04-21T09:22:49.000Z</Time>
            <Position>
              <LatitudeDegrees>43.23280605487525463104248046875</LatitudeDegrees>
              <LongitudeDegrees>-8.33719099871814250946044921875</LongitudeDegrees>
            </Position>
            <AltitudeMeters>94</AltitudeMeters>
            <DistanceMeters>23825.103051191</DistanceMeters>
          </Trackpoint>
          <Trackpoint>
            <Time>2018-04-21T09:22:50.000Z</Time>
            <Position>
              <LatitudeDegrees>43.23277789168059825897216796875</LatitudeDegrees>
              <LongitudeDegrees>-8.3371677808463573455810546875</LongitudeDegrees>
            </Position>
            <AltitudeMeters>94</AltitudeMeters>
            <DistanceMeters>23828.760036728</DistanceMeters>
          </Trackpoint>
          <Trackpoint>
            <Time>2018-04-21T09:22:53.000Z</Time>
            <Position>
              <LatitudeDegrees>43.23269491083920001983642578125</LatitudeDegrees>
              <LongitudeDegrees>-8.33709795959293842315673828125</LongitudeDegrees>
            </Position>
            <AltitudeMeters>94.59999847412109375</AltitudeMeters>
            <DistanceMeters>23839.593082166</DistanceMeters>
          </Trackpoint>
          <Trackpoint>
            <Time>2018-04-21T09:22:54.000Z</Time>
            <Position>
              <LatitudeDegrees>43.23266691528260707855224609375</LatitudeDegrees>
              <LongitudeDegrees>-8.33707247860729694366455078125</LongitudeDegrees>
            </Position>
            <AltitudeMeters>95.1999969482421875</AltitudeMeters>
            <DistanceMeters>23843.331873192</DistanceMeters>
          </Trackpoint>
          <Trackpoint>
            <Time>2018-04-21T09:22:56.000Z</Time>
            <Position>
              <LatitudeDegrees>43.23261410929262638092041015625</LatitudeDegrees>
              <LongitudeDegrees>-8.33700860850512981414794921875</LongitudeDegrees>
            </Position>
            <AltitudeMeters>95.1999969482421875</AltitudeMeters>
            <DistanceMeters>23851.166248061</DistanceMeters>
          </Trackpoint>
          <Trackpoint>
            <Time>2018-04-21T09:23:00.000Z</Time>
            <Position>
              <LatitudeDegrees>43.23249994777143001556396484375</LatitudeDegrees>
              <LongitudeDegrees>-8.33686812780797481536865234375</LongitudeDegrees>
            </Position>
            <AltitudeMeters>94.8000030517578125</AltitudeMeters>
            <DistanceMeters>23868.231945394</DistanceMeters>
          </Trackpoint>
          <Trackpoint>
            <Time>2018-04-21T09:23:03.000Z</Time>
            <Position>
              <LatitudeDegrees>43.23240690864622592926025390625</LatitudeDegrees>
              <LongitudeDegrees>-8.33676536567509174346923828125</LongitudeDegrees>
            </Position>
            <AltitudeMeters>97.1999969482421875</AltitudeMeters>
            <DistanceMeters>23881.524141439</DistanceMeters>
          </Trackpoint>
          <Trackpoint>
            <Time>2018-04-21T09:23:04.000Z</Time>
            <Position>
              <LatitudeDegrees>43.23237321339547634124755859375</LatitudeDegrees>
              <LongitudeDegrees>-8.33673669956624507904052734375</LongitudeDegrees>
            </Position>
            <AltitudeMeters>96.59999847412109375</AltitudeMeters>
            <DistanceMeters>23885.936492832</DistanceMeters>
          </Trackpoint>
          <Trackpoint>
            <Time>2018-04-21T09:23:07.000Z</Time>
            <Position>
              <LatitudeDegrees>43.23225066997110843658447265625</LatitudeDegrees>
              <LongitudeDegrees>-8.3366678841412067413330078125</LongitudeDegrees>
            </Position>
            <AltitudeMeters>96.59999847412109375</AltitudeMeters>
            <DistanceMeters>23900.673295012</DistanceMeters>
          </Trackpoint>
          <Trackpoint>
            <Time>2018-04-21T09:23:09.000Z</Time>
            <Position>
              <LatitudeDegrees>43.23216182179749011993408203125</LatitudeDegrees>
              <LongitudeDegrees>-8.3366524614393711090087890625</LongitudeDegrees>
            </Position>
            <AltitudeMeters>96.40000152587890625</AltitudeMeters>
            <DistanceMeters>23910.64159282</DistanceMeters>
          </Trackpoint>
          <Trackpoint>
            <Time>2018-04-21T09:23:10.000Z</Time>
            <Position>
              <LatitudeDegrees>43.232131898403167724609375</LatitudeDegrees>
              <LongitudeDegrees>-8.33664022386074066162109375</LongitudeDegrees>
            </Position>
            <AltitudeMeters>96.1999969482421875</AltitudeMeters>
            <DistanceMeters>23914.117544816</DistanceMeters>
          </Trackpoint>
          <Trackpoint>
            <Time>2018-04-21T09:23:12.000Z</Time>
            <Position>
              <LatitudeDegrees>43.23210650123655796051025390625</LatitudeDegrees>
              <LongitudeDegrees>-8.33661097101867198944091796875</LongitudeDegrees>
            </Position>
            <AltitudeMeters>96</AltitudeMeters>
            <DistanceMeters>23917.807714904</DistanceMeters>
          </Trackpoint>
          <Trackpoint>
            <Time>2018-04-21T09:23:13.000Z</Time>
            <Position>
              <LatitudeDegrees>43.23210775852203369140625</LatitudeDegrees>
              <LongitudeDegrees>-8.33660275675356388092041015625</LongitudeDegrees>
            </Position>
            <AltitudeMeters>96</AltitudeMeters>
            <DistanceMeters>23918.486341384</DistanceMeters>
          </Trackpoint>
          <Trackpoint>
            <Time>2018-04-21T09:23:15.000Z</Time>
            <Position>
              <LatitudeDegrees>43.23213801719248294830322265625</LatitudeDegrees>
              <LongitudeDegrees>-8.33660577423870563507080078125</LongitudeDegrees>
            </Position>
            <AltitudeMeters>96.1999969482421875</AltitudeMeters>
            <DistanceMeters>23921.862131139</DistanceMeters>
          </Trackpoint>
          <Trackpoint>
            <Time>2018-04-21T09:23:16.000Z</Time>
            <Position>
              <LatitudeDegrees>43.2321505062282085418701171875</LatitudeDegrees>
              <LongitudeDegrees>-8.33662572316825389862060546875</LongitudeDegrees>
            </Position>
            <AltitudeMeters>96.1999969482421875</AltitudeMeters>
            <DistanceMeters>23923.995475585</DistanceMeters>
          </Trackpoint>
          <Trackpoint>
            <Time>2018-04-21T09:23:19.000Z</Time>
            <Position>
              <LatitudeDegrees>43.2321112789213657379150390625</LatitudeDegrees>
              <LongitudeDegrees>-8.3366596698760986328125</LongitudeDegrees>
            </Position>
            <AltitudeMeters>96</AltitudeMeters>
            <DistanceMeters>23929.15674728</DistanceMeters>
          </Trackpoint>
          <Trackpoint>
            <Time>2018-04-21T09:23:22.000Z</Time>
            <Position>
              <LatitudeDegrees>43.2320512644946575164794921875</LatitudeDegrees>
              <LongitudeDegrees>-8.33658398129045963287353515625</LongitudeDegrees>
            </Position>
            <AltitudeMeters>96</AltitudeMeters>
            <DistanceMeters>23938.228688457</DistanceMeters>
          </Trackpoint>
          <Trackpoint>
            <Time>2018-04-21T09:23:26.000Z</Time>
            <Position>
              <LatitudeDegrees>43.2319540344178676605224609375</LatitudeDegrees>
              <LongitudeDegrees>-8.33644400350749492645263671875</LongitudeDegrees>
            </Position>
            <AltitudeMeters>96.1999969482421875</AltitudeMeters>
            <DistanceMeters>23953.911839358</DistanceMeters>
          </Trackpoint>
          <Trackpoint>
            <Time>2018-04-21T09:23:28.000Z</Time>
            <Position>
              <LatitudeDegrees>43.231879770755767822265625</LatitudeDegrees>
              <LongitudeDegrees>-8.33639136515557765960693359375</LongitudeDegrees>
            </Position>
            <AltitudeMeters>96.40000152587890625</AltitudeMeters>
            <DistanceMeters>23963.214755709</DistanceMeters>
          </Trackpoint>
          <Trackpoint>
            <Time>2018-04-21T09:23:32.000Z</Time>
            <Position>
              <LatitudeDegrees>43.23169947601854801177978515625</LatitudeDegrees>
              <LongitudeDegrees>-8.33623998798429965972900390625</LongitudeDegrees>
            </Position>
            <AltitudeMeters>95.40000152587890625</AltitudeMeters>
            <DistanceMeters>23986.738810305</DistanceMeters>
          </Trackpoint>
          <Trackpoint>
            <Time>2018-04-21T09:23:34.000Z</Time>
            <Position>
              <LatitudeDegrees>43.231622613966464996337890625</LatitudeDegrees>
              <LongitudeDegrees>-8.33612297661602497100830078125</LongitudeDegrees>
            </Position>
            <AltitudeMeters>91.8000030517578125</AltitudeMeters>
            <DistanceMeters>23999.514868453</DistanceMeters>
          </Trackpoint>
          <Trackpoint>
            <Time>2018-04-21T09:23:35.000Z</Time>
            <Position>
              <LatitudeDegrees>43.231591098010540008544921875</LatitudeDegrees>
              <LongitudeDegrees>-8.336055167019367218017578125</LongitudeDegrees>
            </Position>
            <AltitudeMeters>93.1999969482421875</AltitudeMeters>
            <DistanceMeters>24006.037883109</DistanceMeters>
          </Trackpoint>
          <Trackpoint>
            <Time>2018-04-21T09:23:36.000Z</Time>
            <Position>
              <LatitudeDegrees>43.23156285099685192108154296875</LatitudeDegrees>
              <LongitudeDegrees>-8.33598635159432888031005859375</LongitudeDegrees>
            </Position>
            <AltitudeMeters>93.40000152587890625</AltitudeMeters>
            <DistanceMeters>24012.443557731</DistanceMeters>
          </Trackpoint>
          <Trackpoint>
            <Time>2018-04-21T09:23:37.000Z</Time>
            <Position>
              <LatitudeDegrees>43.2315315864980220794677734375</LatitudeDegrees>
              <LongitudeDegrees>-8.3359245769679546356201171875</LongitudeDegrees>
            </Position>
            <AltitudeMeters>96</AltitudeMeters>
            <DistanceMeters>24018.542318661</DistanceMeters>
          </Trackpoint>
          <Trackpoint>
            <Time>2018-04-21T09:23:38.000Z</Time>
            <Position>
              <LatitudeDegrees>43.23149076662957668304443359375</LatitudeDegrees>
              <LongitudeDegrees>-8.3358726091682910919189453125</LongitudeDegrees>
            </Position>
            <AltitudeMeters>94.8000030517578125</AltitudeMeters>
            <DistanceMeters>24024.739488588</DistanceMeters>
          </Trackpoint>
          <Trackpoint>
            <Time>2018-04-21T09:23:40.000Z</Time>
            <Position>
              <LatitudeDegrees>43.23138817213475704193115234375</LatitudeDegrees>
              <LongitudeDegrees>-8.33580161444842815399169921875</LongitudeDegrees>
            </Position>
            <AltitudeMeters>94.59999847412109375</AltitudeMeters>
            <DistanceMeters>24037.527909698</DistanceMeters>
          </Trackpoint>
          <Trackpoint>
            <Time>2018-04-21T09:23:44.000Z</Time>
            <Position>
              <LatitudeDegrees>43.231148533523082733154296875</LatitudeDegrees>
              <LongitudeDegrees>-8.33576926030218601226806640625</LongitudeDegrees>
            </Position>
            <AltitudeMeters>94.1999969482421875</AltitudeMeters>
            <DistanceMeters>24064.32881268</DistanceMeters>
          </Trackpoint>
          <Trackpoint>
            <Time>2018-04-21T09:23:45.000Z</Time>
            <Position>
              <LatitudeDegrees>43.23108893819153308868408203125</LatitudeDegrees>
              <LongitudeDegrees>-8.335771858692169189453125</LongitudeDegrees>
            </Position>
            <AltitudeMeters>94.40000152587890625</AltitudeMeters>
            <DistanceMeters>24070.965052792</DistanceMeters>
          </Trackpoint>
          <Trackpoint>
            <Time>2018-04-21T09:23:47.000Z</Time>
            <Position>
              <LatitudeDegrees>43.23097058571875095367431640625</LatitudeDegrees>
              <LongitudeDegrees>-8.33579440601170063018798828125</LongitudeDegrees>
            </Position>
            <AltitudeMeters>94.40000152587890625</AltitudeMeters>
            <DistanceMeters>24084.264040619</DistanceMeters>
          </Trackpoint>
          <Trackpoint>
            <Time>2018-04-21T09:23:49.000Z</Time>
            <Position>
              <LatitudeDegrees>43.2308610342442989349365234375</LatitudeDegrees>
              <LongitudeDegrees>-8.33580111153423786163330078125</LongitudeDegrees>
            </Position>
            <AltitudeMeters>94.40000152587890625</AltitudeMeters>
            <DistanceMeters>24096.469703287</DistanceMeters>
          </Trackpoint>
          <Trackpoint>
            <Time>2018-04-21T09:23:52.000Z</Time>
            <Position>
              <LatitudeDegrees>43.23074854910373687744140625</LatitudeDegrees>
              <LongitudeDegrees>-8.335734307765960693359375</LongitudeDegrees>
            </Position>
            <AltitudeMeters>94.8000030517578125</AltitudeMeters>
            <DistanceMeters>24110.111250683</DistanceMeters>
          </Trackpoint>
          <Trackpoint>
            <Time>2018-04-21T09:23:53.000Z</Time>
            <Position>
              <LatitudeDegrees>43.23071192018687725067138671875</LatitudeDegrees>
              <LongitudeDegrees>-8.33571025170385837554931640625</LongitudeDegrees>
            </Position>
            <AltitudeMeters>95</AltitudeMeters>
            <DistanceMeters>24114.631766472</DistanceMeters>
          </Trackpoint>
          <Trackpoint>
            <Time>2018-04-21T09:23:56.000Z</Time>
            <Position>
              <LatitudeDegrees>43.23061334900557994842529296875</LatitudeDegrees>
              <LongitudeDegrees>-8.3356402628123760223388671875</LongitudeDegrees>
            </Position>
            <AltitudeMeters>95.59999847412109375</AltitudeMeters>
            <DistanceMeters>24126.983777304</DistanceMeters>
          </Trackpoint>
          <Trackpoint>
            <Time>2018-04-21T09:23:58.000Z</Time>
            <Position>
              <LatitudeDegrees>43.230545036494731903076171875</LatitudeDegrees>
              <LongitudeDegrees>-8.3356030471622943878173828125</LongitudeDegrees>
            </Position>
            <AltitudeMeters>95.8000030517578125</AltitudeMeters>
            <DistanceMeters>24135.164357755</DistanceMeters>
          </Trackpoint>
          <Trackpoint>
            <Time>2018-04-21T09:24:00.000Z</Time>
            <Position>
              <LatitudeDegrees>43.23045476339757442474365234375</LatitudeDegrees>
              <LongitudeDegrees>-8.33557446487247943878173828125</LongitudeDegrees>
            </Position>
            <AltitudeMeters>95.40000152587890625</AltitudeMeters>
            <DistanceMeters>24145.47596045</DistanceMeters>
          </Trackpoint>
          <Trackpoint>
            <Time>2018-04-21T09:24:03.000Z</Time>
            <Position>
              <LatitudeDegrees>43.2302739657461643218994140625</LatitudeDegrees>
              <LongitudeDegrees>-8.3355344831943511962890625</LongitudeDegrees>
            </Position>
            <AltitudeMeters>94.1999969482421875</AltitudeMeters>
            <DistanceMeters>24165.858692284</DistanceMeters>
          </Trackpoint>
          <Trackpoint>
            <Time>2018-04-21T09:24:04.000Z</Time>
            <Position>
              <LatitudeDegrees>43.2302022166550159454345703125</LatitudeDegrees>
              <LongitudeDegrees>-8.33552534691989421844482421875</LongitudeDegrees>
            </Position>
            <AltitudeMeters>93.59999847412109375</AltitudeMeters>
            <DistanceMeters>24173.87930726</DistanceMeters>
          </Trackpoint>
          <Trackpoint>
            <Time>2018-04-21T09:24:05.000Z</Time>
            <Position>
              <LatitudeDegrees>43.23012686334550380706787109375</LatitudeDegrees>
              <LongitudeDegrees>-8.33551210351288318634033203125</LongitudeDegrees>
            </Position>
            <AltitudeMeters>93.1999969482421875</AltitudeMeters>
            <DistanceMeters>24182.335083113</DistanceMeters>
          </Trackpoint>
          <Trackpoint>
            <Time>2018-04-21T09:24:06.000Z</Time>
            <Position>
              <LatitudeDegrees>43.2300510071218013763427734375</LatitudeDegrees>
              <LongitudeDegrees>-8.3354930765926837921142578125</LongitudeDegrees>
            </Position>
            <AltitudeMeters>91.59999847412109375</AltitudeMeters>
            <DistanceMeters>24190.918052508</DistanceMeters>
          </Trackpoint>
          <Trackpoint>
            <Time>2018-04-21T09:24:09.000Z</Time>
            <Position>
              <LatitudeDegrees>43.22980650700628757476806640625</LatitudeDegrees>
              <LongitudeDegrees>-8.33540464751422405242919921875</LongitudeDegrees>
            </Position>
            <AltitudeMeters>91.40000152587890625</AltitudeMeters>
            <DistanceMeters>24219.060402882</DistanceMeters>
          </Trackpoint>
          <Trackpoint>
            <Time>2018-04-21T09:24:11.000Z</Time>
            <Position>
              <LatitudeDegrees>43.22963853366672992706298828125</LatitudeDegrees>
              <LongitudeDegrees>-8.33533273078501224517822265625</LongitudeDegrees>
            </Position>
            <AltitudeMeters>90.59999847412109375</AltitudeMeters>
            <DistanceMeters>24238.645129764</DistanceMeters>
          </Trackpoint>
          <Trackpoint>
            <Time>2018-04-21T09:24:13.000Z</Time>
            <Position>
              <LatitudeDegrees>43.22946888394653797149658203125</LatitudeDegrees>
              <LongitudeDegrees>-8.33523809909820556640625</LongitudeDegrees>
            </Position>
            <AltitudeMeters>88.8000030517578125</AltitudeMeters>
            <DistanceMeters>24259.027418568</DistanceMeters>
          </Trackpoint>
          <Trackpoint>
            <Time>2018-04-21T09:24:15.000Z</Time>
            <Position>
              <LatitudeDegrees>43.2292986474931240081787109375</LatitudeDegrees>
              <LongitudeDegrees>-8.33514221012592315673828125</LongitudeDegrees>
            </Position>
            <AltitudeMeters>87.40000152587890625</AltitudeMeters>
            <DistanceMeters>24279.508706885</DistanceMeters>
          </Trackpoint>
          <Trackpoint>
            <Time>2018-04-21T09:24:17.000Z</Time>
            <Position>
              <LatitudeDegrees>43.2291437499225139617919921875</LatitudeDegrees>
              <LongitudeDegrees>-8.33506568334996700286865234375</LongitudeDegrees>
            </Position>
            <AltitudeMeters>85.40000152587890625</AltitudeMeters>
            <DistanceMeters>24297.831868244</DistanceMeters>
          </Trackpoint>
          <Trackpoint>
            <Time>2018-04-21T09:24:18.000Z</Time>
            <Position>
              <LatitudeDegrees>43.2290669716894626617431640625</LatitudeDegrees>
              <LongitudeDegrees>-8.3350407890975475311279296875</LongitudeDegrees>
            </Position>
            <AltitudeMeters>84.1999969482421875</AltitudeMeters>
            <DistanceMeters>24306.612460062</DistanceMeters>
          </Trackpoint>
          <Trackpoint>
            <Time>2018-04-21T09:24:19.000Z</Time>
            <Position>
              <LatitudeDegrees>43.22898558340966701507568359375</LatitudeDegrees>
              <LongitudeDegrees>-8.33503601141273975372314453125</LongitudeDegrees>
            </Position>
            <AltitudeMeters>83</AltitudeMeters>
            <DistanceMeters>24315.679422947</DistanceMeters>
          </Trackpoint>
          <Trackpoint>
            <Time>2018-04-21T09:24:21.000Z</Time>
            <Position>
              <LatitudeDegrees>43.228811658918857574462890625</LatitudeDegrees>
              <LongitudeDegrees>-8.33506518043577671051025390625</LongitudeDegrees>
            </Position>
            <AltitudeMeters>81.8000030517578125</AltitudeMeters>
            <DistanceMeters>24335.181442321</DistanceMeters>
          </Trackpoint>
          <Trackpoint>
            <Time>2018-04-21T09:24:22.000Z</Time>
            <Position>
              <LatitudeDegrees>43.228727839887142181396484375</LatitudeDegrees>
              <LongitudeDegrees>-8.33509133197367191314697265625</LongitudeDegrees>
            </Position>
            <AltitudeMeters>80.59999847412109375</AltitudeMeters>
            <DistanceMeters>24344.748513703</DistanceMeters>
          </Trackpoint>
          <Trackpoint>
            <Time>2018-04-21T09:24:24.000Z</Time>
            <Position>
              <LatitudeDegrees>43.22856120765209197998046875</LatitudeDegrees>
              <LongitudeDegrees>-8.3351494185626506805419921875</LongitudeDegrees>
            </Position>
            <AltitudeMeters>78.1999969482421875</AltitudeMeters>
            <DistanceMeters>24363.884072221</DistanceMeters>
          </Trackpoint>
          <Trackpoint>
            <Time>2018-04-21T09:24:26.000Z</Time>
            <Position>
              <LatitudeDegrees>43.22838342748582363128662109375</LatitudeDegrees>
              <LongitudeDegrees>-8.33517498336732387542724609375</LongitudeDegrees>
            </Position>
            <AltitudeMeters>76.59999847412109375</AltitudeMeters>
            <DistanceMeters>24383.779407625</DistanceMeters>
          </Trackpoint>
          <Trackpoint>
            <Time>2018-04-21T09:24:28.000Z</Time>
            <Position>
              <LatitudeDegrees>43.22819483466446399688720703125</LatitudeDegrees>
              <LongitudeDegrees>-8.3351976983249187469482421875</LongitudeDegrees>
            </Position>
            <AltitudeMeters>75</AltitudeMeters>
            <DistanceMeters>24404.850925339</DistanceMeters>
          </Trackpoint>
          <Trackpoint>
            <Time>2018-04-21T09:24:29.000Z</Time>
            <Position>
              <LatitudeDegrees>43.2280953414738178253173828125</LatitudeDegrees>
              <LongitudeDegrees>-8.33520700223743915557861328125</LongitudeDegrees>
            </Position>
            <AltitudeMeters>73.8000030517578125</AltitudeMeters>
            <DistanceMeters>24415.950761509</DistanceMeters>
          </Trackpoint>
          <Trackpoint>
            <Time>2018-04-21T09:24:31.000Z</Time>
            <Position>
              <LatitudeDegrees>43.2278737239539623260498046875</LatitudeDegrees>
              <LongitudeDegrees>-8.3352332375943660736083984375</LongitudeDegrees>
            </Position>
            <AltitudeMeters>72</AltitudeMeters>
            <DistanceMeters>24440.7088226</DistanceMeters>
          </Trackpoint>
          <Trackpoint>
            <Time>2018-04-21T09:24:33.000Z</Time>
            <Position>
              <LatitudeDegrees>43.22763576172292232513427734375</LatitudeDegrees>
              <LongitudeDegrees>-8.33525083959102630615234375</LongitudeDegrees>
            </Position>
            <AltitudeMeters>69.8000030517578125</AltitudeMeters>
            <DistanceMeters>24467.233023922</DistanceMeters>
          </Trackpoint>
          <Trackpoint>
            <Time>2018-04-21T09:24:34.000Z</Time>
            <Position>
              <LatitudeDegrees>43.227516151964664459228515625</LatitudeDegrees>
              <LongitudeDegrees>-8.335261903703212738037109375</LongitudeDegrees>
            </Position>
            <AltitudeMeters>68.8000030517578125</AltitudeMeters>
            <DistanceMeters>24480.576074067</DistanceMeters>
          </Trackpoint>
          <Trackpoint>
            <Time>2018-04-21T09:24:36.000Z</Time>
            <Position>
              <LatitudeDegrees>43.22729252278804779052734375</LatitudeDegrees>
              <LongitudeDegrees>-8.33529836498200893402099609375</LongitudeDegrees>
            </Position>
            <AltitudeMeters>67</AltitudeMeters>
            <DistanceMeters>24505.641520376</DistanceMeters>
          </Trackpoint>
          <Trackpoint>
            <Time>2018-04-21T09:24:38.000Z</Time>
            <Position>
              <LatitudeDegrees>43.22708238847553730010986328125</LatitudeDegrees>
              <LongitudeDegrees>-8.33535603247582912445068359375</LongitudeDegrees>
            </Position>
            <AltitudeMeters>65.59999847412109375</AltitudeMeters>
            <DistanceMeters>24529.492847087</DistanceMeters>
          </Trackpoint>
          <Trackpoint>
            <Time>2018-04-21T09:24:40.000Z</Time>
            <Position>
              <LatitudeDegrees>43.22689178399741649627685546875</LatitudeDegrees>
              <LongitudeDegrees>-8.33539257757365703582763671875</LongitudeDegrees>
            </Position>
            <AltitudeMeters>64.59999847412109375</AltitudeMeters>
            <DistanceMeters>24550.913731859</DistanceMeters>
          </Trackpoint>
          <Trackpoint>
            <Time>2018-04-21T09:24:42.000Z</Time>
            <Position>
              <LatitudeDegrees>43.22672146372497081756591796875</LatitudeDegrees>
              <LongitudeDegrees>-8.33536357618868350982666015625</LongitudeDegrees>
            </Position>
            <AltitudeMeters>63.40000152587890625</AltitudeMeters>
            <DistanceMeters>24570.016228793</DistanceMeters>
          </Trackpoint>
          <Trackpoint>
            <Time>2018-04-21T09:24:44.000Z</Time>
            <Position>
              <LatitudeDegrees>43.226553909480571746826171875</LatitudeDegrees>
              <LongitudeDegrees>-8.335274644196033477783203125</LongitudeDegrees>
            </Position>
            <AltitudeMeters>62.40000152587890625</AltitudeMeters>
            <DistanceMeters>24590.011619878</DistanceMeters>
          </Trackpoint>
          <Trackpoint>
            <Time>2018-04-21T09:24:46.000Z</Time>
            <Position>
              <LatitudeDegrees>43.22638325393199920654296875</LatitudeDegrees>
              <LongitudeDegrees>-8.335176408290863037109375</LongitudeDegrees>
            </Position>
            <AltitudeMeters>62</AltitudeMeters>
            <DistanceMeters>24610.608975327</DistanceMeters>
          </Trackpoint>
          <Trackpoint>
            <Time>2018-04-21T09:24:49.000Z</Time>
            <Position>
              <LatitudeDegrees>43.22613121010363101959228515625</LatitudeDegrees>
              <LongitudeDegrees>-8.33504992537200450897216796875</LongitudeDegrees>
            </Position>
            <AltitudeMeters>60.59999847412109375</AltitudeMeters>
            <DistanceMeters>24640.478669716</DistanceMeters>
          </Trackpoint>
          <Trackpoint>
            <Time>2018-04-21T09:24:51.000Z</Time>
            <Position>
              <LatitudeDegrees>43.22597933001816272735595703125</LatitudeDegrees>
              <LongitudeDegrees>-8.33498538471758365631103515625</LongitudeDegrees>
            </Position>
            <AltitudeMeters>59.40000152587890625</AltitudeMeters>
            <DistanceMeters>24658.175083225</DistanceMeters>
          </Trackpoint>
          <Trackpoint>
            <Time>2018-04-21T09:24:52.000Z</Time>
            <Position>
              <LatitudeDegrees>43.2259063236415386199951171875</LatitudeDegrees>
              <LongitudeDegrees>-8.33495177328586578369140625</LongitudeDegrees>
            </Position>
            <AltitudeMeters>59</AltitudeMeters>
            <DistanceMeters>24666.745945018</DistanceMeters>
          </Trackpoint>
          <Trackpoint>
            <Time>2018-04-21T09:24:53.000Z</Time>
            <Position>
              <LatitudeDegrees>43.22583918459713459014892578125</LatitudeDegrees>
              <LongitudeDegrees>-8.33493031561374664306640625</LongitudeDegrees>
            </Position>
            <AltitudeMeters>58.40000152587890625</AltitudeMeters>
            <DistanceMeters>24674.41902122</DistanceMeters>
          </Trackpoint>
          <Trackpoint>
            <Time>2018-04-21T09:24:54.000Z</Time>
            <Position>
              <LatitudeDegrees>43.22578235529363155364990234375</LatitudeDegrees>
              <LongitudeDegrees>-8.3349043317139148712158203125</LongitudeDegrees>
            </Position>
            <AltitudeMeters>58</AltitudeMeters>
            <DistanceMeters>24681.085807272</DistanceMeters>
          </Trackpoint>
          <Trackpoint>
            <Time>2018-04-21T09:24:55.000Z</Time>
            <Position>
              <LatitudeDegrees>43.225723095238208770751953125</LatitudeDegrees>
              <LongitudeDegrees>-8.3348765037953853607177734375</LongitudeDegrees>
            </Position>
            <AltitudeMeters>57.59999847412109375</AltitudeMeters>
            <DistanceMeters>24688.057168073</DistanceMeters>
          </Trackpoint>
          <Trackpoint>
            <Time>2018-04-21T09:24:59.000Z</Time>
            <Position>
              <LatitudeDegrees>43.2254490070044994354248046875</LatitudeDegrees>
              <LongitudeDegrees>-8.3348104543983936309814453125</LongitudeDegrees>
            </Position>
            <AltitudeMeters>56.59999847412109375</AltitudeMeters>
            <DistanceMeters>24719.030338096</DistanceMeters>
          </Trackpoint>
          <Trackpoint>
            <Time>2018-04-21T09:25:00.000Z</Time>
            <Position>
              <LatitudeDegrees>43.22536745108664035797119140625</LatitudeDegrees>
              <LongitudeDegrees>-8.3348003961145877838134765625</LongitudeDegrees>
            </Position>
            <AltitudeMeters>56.200000762939453125</AltitudeMeters>
            <DistanceMeters>24728.144980343</DistanceMeters>
          </Trackpoint>
          <Trackpoint>
            <Time>2018-04-21T09:25:01.000Z</Time>
            <Position>
              <LatitudeDegrees>43.22528899647295475006103515625</LatitudeDegrees>
              <LongitudeDegrees>-8.3347903378307819366455078125</LongitudeDegrees>
            </Position>
            <AltitudeMeters>55.200000762939453125</AltitudeMeters>
            <DistanceMeters>24736.915281999</DistanceMeters>
          </Trackpoint>
          <Trackpoint>
            <Time>2018-04-21T09:25:03.000Z</Time>
            <Position>
              <LatitudeDegrees>43.225144408643245697021484375</LatitudeDegrees>
              <LongitudeDegrees>-8.33474650047719478607177734375</LongitudeDegrees>
            </Position>
            <AltitudeMeters>53.200000762939453125</AltitudeMeters>
            <DistanceMeters>24753.396322605</DistanceMeters>
          </Trackpoint>
          <Trackpoint>
            <Time>2018-04-21T09:25:05.000Z</Time>
            <Position>
              <LatitudeDegrees>43.22501809336245059967041015625</LatitudeDegrees>
              <LongitudeDegrees>-8.33466486074030399322509765625</LongitudeDegrees>
            </Position>
            <AltitudeMeters>51.40000152587890625</AltitudeMeters>
            <DistanceMeters>24768.936604597</DistanceMeters>
          </Trackpoint>
          <Trackpoint>
            <Time>2018-04-21T09:25:07.000Z</Time>
            <Position>
              <LatitudeDegrees>43.22494466789066791534423828125</LatitudeDegrees>
              <LongitudeDegrees>-8.33462496288120746612548828125</LongitudeDegrees>
            </Position>
            <AltitudeMeters>50</AltitudeMeters>
            <DistanceMeters>24777.726447261</DistanceMeters>
          </Trackpoint>
          <Trackpoint>
            <Time>2018-04-21T09:25:08.000Z</Time>
            <Position>
              <LatitudeDegrees>43.2249122299253940582275390625</LatitudeDegrees>
              <LongitudeDegrees>-8.33462320268154144287109375</LongitudeDegrees>
            </Position>
            <AltitudeMeters>49.40000152587890625</AltitudeMeters>
            <DistanceMeters>24781.339962245</DistanceMeters>
          </Trackpoint>
          <Trackpoint>
            <Time>2018-04-21T09:25:09.000Z</Time>
            <Position>
              <LatitudeDegrees>43.22487057186663150787353515625</LatitudeDegrees>
              <LongitudeDegrees>-8.33463929593563079833984375</LongitudeDegrees>
            </Position>
            <AltitudeMeters>49</AltitudeMeters>
            <DistanceMeters>24786.155482602</DistanceMeters>
          </Trackpoint>
          <Trackpoint>
            <Time>2018-04-21T09:25:10.000Z</Time>
            <Position>
              <LatitudeDegrees>43.22482757270336151123046875</LatitudeDegrees>
              <LongitudeDegrees>-8.33467240445315837860107421875</LongitudeDegrees>
            </Position>
            <AltitudeMeters>48.40000152587890625</AltitudeMeters>
            <DistanceMeters>24791.643223935</DistanceMeters>
          </Trackpoint>
          <Trackpoint>
            <Time>2018-04-21T09:25:11.000Z</Time>
            <Position>
              <LatitudeDegrees>43.224780298769474029541015625</LatitudeDegrees>
              <LongitudeDegrees>-8.33470626734197139739990234375</LongitudeDegrees>
            </Position>
            <AltitudeMeters>48</AltitudeMeters>
            <DistanceMeters>24797.578401119</DistanceMeters>
          </Trackpoint>
          <Trackpoint>
            <Time>2018-04-21T09:25:12.000Z</Time>
            <Position>
              <LatitudeDegrees>43.22473009116947650909423828125</LatitudeDegrees>
              <LongitudeDegrees>-8.33473124541342258453369140625</LongitudeDegrees>
            </Position>
            <AltitudeMeters>47.40000152587890625</AltitudeMeters>
            <DistanceMeters>24803.523459504</DistanceMeters>
          </Trackpoint>
          <Trackpoint>
            <Time>2018-04-21T09:25:14.000Z</Time>
            <Position>
              <LatitudeDegrees>43.22463688440620899200439453125</LatitudeDegrees>
              <LongitudeDegrees>-8.3347806148231029510498046875</LongitudeDegrees>
            </Position>
            <AltitudeMeters>45.799999237060546875</AltitudeMeters>
            <DistanceMeters>24814.643615386</DistanceMeters>
          </Trackpoint>
          <Trackpoint>
            <Time>2018-04-21T09:25:15.000Z</Time>
            <Position>
              <LatitudeDegrees>43.22458215057849884033203125</LatitudeDegrees>
              <LongitudeDegrees>-8.3348044194281101226806640625</LongitudeDegrees>
            </Position>
            <AltitudeMeters>45.40000152587890625</AltitudeMeters>
            <DistanceMeters>24821.035177466</DistanceMeters>
          </Trackpoint>
          <Trackpoint>
            <Time>2018-04-21T09:25:17.000Z</Time>
            <Position>
              <LatitudeDegrees>43.22445315308868885040283203125</LatitudeDegrees>
              <LongitudeDegrees>-8.33484104834496974945068359375</LongitudeDegrees>
            </Position>
            <AltitudeMeters>44.40000152587890625</AltitudeMeters>
            <DistanceMeters>24835.697648608</DistanceMeters>
          </Trackpoint>
          <Trackpoint>
            <Time>2018-04-21T09:25:18.000Z</Time>
            <Position>
              <LatitudeDegrees>43.22438777424395084381103515625</LatitudeDegrees>
              <LongitudeDegrees>-8.33487440831959247589111328125</LongitudeDegrees>
            </Position>
            <AltitudeMeters>43.59999847412109375</AltitudeMeters>
            <DistanceMeters>24843.461395143</DistanceMeters>
          </Trackpoint>
          <Trackpoint>
            <Time>2018-04-21T09:25:19.000Z</Time>
            <Position>
              <LatitudeDegrees>43.22432960383594036102294921875</LatitudeDegrees>
              <LongitudeDegrees>-8.33491346798837184906005859375</LongitudeDegrees>
            </Position>
            <AltitudeMeters>43.40000152587890625</AltitudeMeters>
            <DistanceMeters>24850.669658447</DistanceMeters>
          </Trackpoint>
          <Trackpoint>
            <Time>2018-04-21T09:25:22.000Z</Time>
            <Position>
              <LatitudeDegrees>43.2241494767367839813232421875</LatitudeDegrees>
              <LongitudeDegrees>-8.33497683517634868621826171875</LongitudeDegrees>
            </Position>
            <AltitudeMeters>42.59999847412109375</AltitudeMeters>
            <DistanceMeters>24871.366511741</DistanceMeters>
          </Trackpoint>
          <Trackpoint>
            <Time>2018-04-21T09:25:23.000Z</Time>
            <Position>
              <LatitudeDegrees>43.22410295717418193817138671875</LatitudeDegrees>
              <LongitudeDegrees>-8.33498840220272541046142578125</LongitudeDegrees>
            </Position>
            <AltitudeMeters>42.200000762939453125</AltitudeMeters>
            <DistanceMeters>24876.629996759</DistanceMeters>
          </Trackpoint>
          <Trackpoint>
            <Time>2018-04-21T09:25:26.000Z</Time>
            <Position>
              <LatitudeDegrees>43.22397471405565738677978515625</LatitudeDegrees>
              <LongitudeDegrees>-8.335010446608066558837890625</LongitudeDegrees>
            </Position>
            <AltitudeMeters>41.40000152587890625</AltitudeMeters>
            <DistanceMeters>24891.015170786</DistanceMeters>
          </Trackpoint>
          <Trackpoint>
            <Time>2018-04-21T09:25:27.000Z</Time>
            <Position>
              <LatitudeDegrees>43.22391754947602748870849609375</LatitudeDegrees>
              <LongitudeDegrees>-8.33500667475163936614990234375</LongitudeDegrees>
            </Position>
            <AltitudeMeters>41.200000762939453125</AltitudeMeters>
            <DistanceMeters>24897.385505435</DistanceMeters>
          </Trackpoint>
          <Trackpoint>
            <Time>2018-04-21T09:25:30.000Z</Time>
            <Position>
              <LatitudeDegrees>43.22373951785266399383544921875</LatitudeDegrees>
              <LongitudeDegrees>-8.335015811026096343994140625</LongitudeDegrees>
            </Position>
            <AltitudeMeters>41.200000762939453125</AltitudeMeters>
            <DistanceMeters>24917.214463767</DistanceMeters>
          </Trackpoint>
          <Trackpoint>
            <Time>2018-04-21T09:25:33.000Z</Time>
            <Position>
              <LatitudeDegrees>43.223573975265026092529296875</LatitudeDegrees>
              <LongitudeDegrees>-8.33504430949687957763671875</LongitudeDegrees>
            </Position>
            <AltitudeMeters>43</AltitudeMeters>
            <DistanceMeters>24935.784346891</DistanceMeters>
          </Trackpoint>
          <Trackpoint>
            <Time>2018-04-21T09:25:34.000Z</Time>
            <Position>
              <LatitudeDegrees>43.22352091781795024871826171875</LatitudeDegrees>
              <LongitudeDegrees>-8.33505772054195404052734375</LongitudeDegrees>
            </Position>
            <AltitudeMeters>42.40000152587890625</AltitudeMeters>
            <DistanceMeters>24941.789854806</DistanceMeters>
          </Trackpoint>
          <Trackpoint>
            <Time>2018-04-21T09:25:36.000Z</Time>
            <Position>
              <LatitudeDegrees>43.22341631166636943817138671875</LatitudeDegrees>
              <LongitudeDegrees>-8.33507113158702850341796875</LongitudeDegrees>
            </Position>
            <AltitudeMeters>41.59999847412109375</AltitudeMeters>
            <DistanceMeters>24953.483933549</DistanceMeters>
          </Trackpoint>
          <Trackpoint>
            <Time>2018-04-21T09:25:39.000Z</Time>
            <Position>
              <LatitudeDegrees>43.22325621731579303741455078125</LatitudeDegrees>
              <LongitudeDegrees>-8.33509367890655994415283203125</LongitudeDegrees>
            </Position>
            <AltitudeMeters>41.200000762939453125</AltitudeMeters>
            <DistanceMeters>24971.39615413</DistanceMeters>
          </Trackpoint>
          <Trackpoint>
            <Time>2018-04-21T09:25:41.000Z</Time>
            <Position>
              <LatitudeDegrees>43.22313845157623291015625</LatitudeDegrees>
              <LongitudeDegrees>-8.33511580713093280792236328125</LongitudeDegrees>
            </Position>
            <AltitudeMeters>41.40000152587890625</AltitudeMeters>
            <DistanceMeters>24984.626043461</DistanceMeters>
          </Trackpoint>
          <Trackpoint>
            <Time>2018-04-21T09:25:48.000Z</Time>
            <Position>
              <LatitudeDegrees>43.2226997427642345428466796875</LatitudeDegrees>
              <LongitudeDegrees>-8.3351145498454570770263671875</LongitudeDegrees>
            </Position>
            <AltitudeMeters>41.200000762939453125</AltitudeMeters>
            <DistanceMeters>25033.45516719</DistanceMeters>
          </Trackpoint>
          <Trackpoint>
            <Time>2018-04-21T09:25:51.000Z</Time>
            <Position>
              <LatitudeDegrees>43.22250704281032085418701171875</LatitudeDegrees>
              <LongitudeDegrees>-8.33506786264479160308837890625</LongitudeDegrees>
            </Position>
            <AltitudeMeters>41.59999847412109375</AltitudeMeters>
            <DistanceMeters>25055.234742842</DistanceMeters>
          </Trackpoint>
          <Trackpoint>
            <Time>2018-04-21T09:25:55.000Z</Time>
            <Position>
              <LatitudeDegrees>43.2222813181579113006591796875</LatitudeDegrees>
              <LongitudeDegrees>-8.335052020847797393798828125</LongitudeDegrees>
            </Position>
            <AltitudeMeters>43</AltitudeMeters>
            <DistanceMeters>25080.391169802</DistanceMeters>
          </Trackpoint>
          <Trackpoint>
            <Time>2018-04-21T09:26:00.000Z</Time>
            <Position>
              <LatitudeDegrees>43.222059197723865509033203125</LatitudeDegrees>
              <LongitudeDegrees>-8.33504321984946727752685546875</LongitudeDegrees>
            </Position>
            <AltitudeMeters>43.59999847412109375</AltitudeMeters>
            <DistanceMeters>25105.123868975</DistanceMeters>
          </Trackpoint>
          <Trackpoint>
            <Time>2018-04-21T09:26:02.000Z</Time>
            <Position>
              <LatitudeDegrees>43.22197764180600643157958984375</LatitudeDegrees>
              <LongitudeDegrees>-8.33503852598369121551513671875</LongitudeDegrees>
            </Position>
            <AltitudeMeters>44</AltitudeMeters>
            <DistanceMeters>25114.209237915</DistanceMeters>
          </Trackpoint>
          <Trackpoint>
            <Time>2018-04-21T09:26:07.000Z</Time>
            <Position>
              <LatitudeDegrees>43.221778236329555511474609375</LatitudeDegrees>
              <LongitudeDegrees>-8.33502310328185558319091796875</LongitudeDegrees>
            </Position>
            <AltitudeMeters>44.799999237060546875</AltitudeMeters>
            <DistanceMeters>25136.438584355</DistanceMeters>
          </Trackpoint>
          <Trackpoint>
            <Time>2018-04-21T09:26:09.000Z</Time>
            <Position>
              <LatitudeDegrees>43.22170740924775600433349609375</LatitudeDegrees>
              <LongitudeDegrees>-8.3350146375596523284912109375</LongitudeDegrees>
            </Position>
            <AltitudeMeters>45.40000152587890625</AltitudeMeters>
            <DistanceMeters>25144.351519971</DistanceMeters>
          </Trackpoint>
          <Trackpoint>
            <Time>2018-04-21T09:26:12.000Z</Time>
            <Position>
              <LatitudeDegrees>43.2215986959636211395263671875</LatitudeDegrees>
              <LongitudeDegrees>-8.33500701002776622772216796875</LongitudeDegrees>
            </Position>
            <AltitudeMeters>46.200000762939453125</AltitudeMeters>
            <DistanceMeters>25156.467332889</DistanceMeters>
          </Trackpoint>
          <Trackpoint>
            <Time>2018-04-21T09:26:14.000Z</Time>
            <Position>
              <LatitudeDegrees>43.221530802547931671142578125</LatitudeDegrees>
              <LongitudeDegrees>-8.3349926769733428955078125</LongitudeDegrees>
            </Position>
            <AltitudeMeters>46.799999237060546875</AltitudeMeters>
            <DistanceMeters>25164.113293581</DistanceMeters>
          </Trackpoint>
          <Trackpoint>
            <Time>2018-04-21T09:26:19.000Z</Time>
            <Position>
              <LatitudeDegrees>43.22134447284042835235595703125</LatitudeDegrees>
              <LongitudeDegrees>-8.33491950295865535736083984375</LongitudeDegrees>
            </Position>
            <AltitudeMeters>47.799999237060546875</AltitudeMeters>
            <DistanceMeters>25185.684985664</DistanceMeters>
          </Trackpoint>
          <Trackpoint>
            <Time>2018-04-21T09:26:20.000Z</Time>
            <Position>
              <LatitudeDegrees>43.2213076762855052947998046875</LatitudeDegrees>
              <LongitudeDegrees>-8.33489955402910709381103515625</LongitudeDegrees>
            </Position>
            <AltitudeMeters>48</AltitudeMeters>
            <DistanceMeters>25190.089143268</DistanceMeters>
          </Trackpoint>
          <Trackpoint>
            <Time>2018-04-21T09:26:25.000Z</Time>
            <Position>
              <LatitudeDegrees>43.22112218476831912994384765625</LatitudeDegrees>
              <LongitudeDegrees>-8.33485345356166362762451171875</LongitudeDegrees>
            </Position>
            <AltitudeMeters>48.40000152587890625</AltitudeMeters>
            <DistanceMeters>25211.070473698</DistanceMeters>
          </Trackpoint>
          <Trackpoint>
            <Time>2018-04-21T09:26:26.000Z</Time>
            <Position>
              <LatitudeDegrees>43.22108647786080837249755859375</LatitudeDegrees>
              <LongitudeDegrees>-8.334856219589710235595703125</LongitudeDegrees>
            </Position>
            <AltitudeMeters>49.200000762939453125</AltitudeMeters>
            <DistanceMeters>25215.051401249</DistanceMeters>
          </Trackpoint>
          <Trackpoint>
            <Time>2018-04-21T09:26:27.000Z</Time>
            <Position>
              <LatitudeDegrees>43.22105244733393192291259765625</LatitudeDegrees>
              <LongitudeDegrees>-8.334855549037456512451171875</LongitudeDegrees>
            </Position>
            <AltitudeMeters>48</AltitudeMeters>
            <DistanceMeters>25218.840572866</DistanceMeters>
          </Trackpoint>
          <Trackpoint>
            <Time>2018-04-21T09:26:28.000Z</Time>
            <Position>
              <LatitudeDegrees>43.22102042846381664276123046875</LatitudeDegrees>
              <LongitudeDegrees>-8.3348543755710124969482421875</LongitudeDegrees>
            </Position>
            <AltitudeMeters>49</AltitudeMeters>
            <DistanceMeters>25222.406291255</DistanceMeters>
          </Trackpoint>
          <Trackpoint>
            <Time>2018-04-21T09:26:30.000Z</Time>
            <Position>
              <LatitudeDegrees>43.22096477262675762176513671875</LatitudeDegrees>
              <LongitudeDegrees>-8.33484138362109661102294921875</LongitudeDegrees>
            </Position>
            <AltitudeMeters>50</AltitudeMeters>
            <DistanceMeters>25228.689562236</DistanceMeters>
          </Trackpoint>
          <Trackpoint>
            <Time>2018-04-21T09:26:31.000Z</Time>
            <Position>
              <LatitudeDegrees>43.220934681594371795654296875</LatitudeDegrees>
              <LongitudeDegrees>-8.33483534865081310272216796875</LongitudeDegrees>
            </Position>
            <AltitudeMeters>49.799999237060546875</AltitudeMeters>
            <DistanceMeters>25232.076034897</DistanceMeters>
          </Trackpoint>
          <Trackpoint>
            <Time>2018-04-21T09:26:36.000Z</Time>
            <Position>
              <LatitudeDegrees>43.2207900099456310272216796875</LatitudeDegrees>
              <LongitudeDegrees>-8.3348081074655055999755859375</LongitudeDegrees>
            </Position>
            <AltitudeMeters>51.200000762939453125</AltitudeMeters>
            <DistanceMeters>25248.329214779</DistanceMeters>
          </Trackpoint>
          <Trackpoint>
            <Time>2018-04-21T09:26:39.000Z</Time>
            <Position>
              <LatitudeDegrees>43.22068582288920879364013671875</LatitudeDegrees>
              <LongitudeDegrees>-8.3348047547042369842529296875</LongitudeDegrees>
            </Position>
            <AltitudeMeters>51.40000152587890625</AltitudeMeters>
            <DistanceMeters>25259.928703519</DistanceMeters>
          </Trackpoint>
          <Trackpoint>
            <Time>2018-04-21T09:26:44.000Z</Time>
            <Position>
              <LatitudeDegrees>43.2204882614314556121826171875</LatitudeDegrees>
              <LongitudeDegrees>-8.33481506444513797760009765625</LongitudeDegrees>
            </Position>
            <AltitudeMeters>52.200000762939453125</AltitudeMeters>
            <DistanceMeters>25281.93369816</DistanceMeters>
          </Trackpoint>
          <Trackpoint>
            <Time>2018-04-21T09:26:45.000Z</Time>
            <Position>
              <LatitudeDegrees>43.22045012377202510833740234375</LatitudeDegrees>
              <LongitudeDegrees>-8.3348185010254383087158203125</LongitudeDegrees>
            </Position>
            <AltitudeMeters>52.200000762939453125</AltitudeMeters>
            <DistanceMeters>25286.185546351</DistanceMeters>
          </Trackpoint>
          <Trackpoint>
            <Time>2018-04-21T09:26:51.000Z</Time>
            <Position>
              <LatitudeDegrees>43.220237977802753448486328125</LatitudeDegrees>
              <LongitudeDegrees>-8.3348476700484752655029296875</LongitudeDegrees>
            </Position>
            <AltitudeMeters>53.200000762939453125</AltitudeMeters>
            <DistanceMeters>25309.915983077</DistanceMeters>
          </Trackpoint>
          <Trackpoint>
            <Time>2018-04-21T09:26:53.000Z</Time>
            <Position>
              <LatitudeDegrees>43.22016656398773193359375</LatitudeDegrees>
              <LongitudeDegrees>-8.33488161675631999969482421875</LongitudeDegrees>
            </Position>
            <AltitudeMeters>53.59999847412109375</AltitudeMeters>
            <DistanceMeters>25318.327860335</DistanceMeters>
          </Trackpoint>
          <Trackpoint>
            <Time>2018-04-21T09:26:57.000Z</Time>
            <Position>
              <LatitudeDegrees>43.22002532891929149627685546875</LatitudeDegrees>
              <LongitudeDegrees>-8.33493031561374664306640625</LongitudeDegrees>
            </Position>
            <AltitudeMeters>54.200000762939453125</AltitudeMeters>
            <DistanceMeters>25334.536532214</DistanceMeters>
          </Trackpoint>
          <Trackpoint>
            <Time>2018-04-21T09:26:59.000Z</Time>
            <Position>
              <LatitudeDegrees>43.21995844133198261260986328125</LatitudeDegrees>
              <LongitudeDegrees>-8.33496141247451305389404296875</LongitudeDegrees>
            </Position>
            <AltitudeMeters>54.59999847412109375</AltitudeMeters>
            <DistanceMeters>25342.397947047</DistanceMeters>
          </Trackpoint>
          <Trackpoint>
            <Time>2018-04-21T09:27:04.000Z</Time>
            <Position>
              <LatitudeDegrees>43.21979231201112270355224609375</LatitudeDegrees>
              <LongitudeDegrees>-8.3350307308137416839599609375</LongitudeDegrees>
            </Position>
            <AltitudeMeters>55.40000152587890625</AltitudeMeters>
            <DistanceMeters>25361.724381068</DistanceMeters>
          </Trackpoint>
          <Trackpoint>
            <Time>2018-04-21T09:27:08.000Z</Time>
            <Position>
              <LatitudeDegrees>43.21966507472097873687744140625</LatitudeDegrees>
              <LongitudeDegrees>-8.33505503833293914794921875</LongitudeDegrees>
            </Position>
            <AltitudeMeters>56</AltitudeMeters>
            <DistanceMeters>25376.022665255</DistanceMeters>
          </Trackpoint>
          <Trackpoint>
            <Time>2018-04-21T09:27:10.000Z</Time>
            <Position>
              <LatitudeDegrees>43.21960573084652423858642578125</LatitudeDegrees>
              <LongitudeDegrees>-8.33506568334996700286865234375</LongitudeDegrees>
            </Position>
            <AltitudeMeters>56.40000152587890625</AltitudeMeters>
            <DistanceMeters>25382.683353325</DistanceMeters>
          </Trackpoint>
          <Trackpoint>
            <Time>2018-04-21T09:27:15.000Z</Time>
            <Position>
              <LatitudeDegrees>43.21946583688259124755859375</LatitudeDegrees>
              <LongitudeDegrees>-8.33506308495998382568359375</LongitudeDegrees>
            </Position>
            <AltitudeMeters>57.200000762939453125</AltitudeMeters>
            <DistanceMeters>25398.254981778</DistanceMeters>
          </Trackpoint>
          <Trackpoint>
            <Time>2018-04-21T09:27:16.000Z</Time>
            <Position>
              <LatitudeDegrees>43.21944027207791805267333984375</LatitudeDegrees>
              <LongitudeDegrees>-8.33505948074162006378173828125</LongitudeDegrees>
            </Position>
            <AltitudeMeters>57.59999847412109375</AltitudeMeters>
            <DistanceMeters>25401.116848185</DistanceMeters>
          </Trackpoint>
          <Trackpoint>
            <Time>2018-04-21T09:27:22.000Z</Time>
            <Position>
              <LatitudeDegrees>43.21927162818610668182373046875</LatitudeDegrees>
              <LongitudeDegrees>-8.3350434713065624237060546875</LongitudeDegrees>
            </Position>
            <AltitudeMeters>58.59999847412109375</AltitudeMeters>
            <DistanceMeters>25419.932137631</DistanceMeters>
          </Trackpoint>
          <Trackpoint>
            <Time>2018-04-21T09:27:23.000Z</Time>
            <Position>
              <LatitudeDegrees>43.21923977695405483245849609375</LatitudeDegrees>
              <LongitudeDegrees>-8.33504162728786468505859375</LongitudeDegrees>
            </Position>
            <AltitudeMeters>58.799999237060546875</AltitudeMeters>
            <DistanceMeters>25423.48008444</DistanceMeters>
          </Trackpoint>
          <Trackpoint>
            <Time>2018-04-21T09:27:28.000Z</Time>
            <Position>
              <LatitudeDegrees>43.2190847955644130706787109375</LatitudeDegrees>
              <LongitudeDegrees>-8.3350572176277637481689453125</LongitudeDegrees>
            </Position>
            <AltitudeMeters>59.799999237060546875</AltitudeMeters>
            <DistanceMeters>25440.775990673</DistanceMeters>
          </Trackpoint>
          <Trackpoint>
            <Time>2018-04-21T09:27:31.000Z</Time>
            <Position>
              <LatitudeDegrees>43.21899150498211383819580078125</LatitudeDegrees>
              <LongitudeDegrees>-8.33507188595831394195556640625</LongitudeDegrees>
            </Position>
            <AltitudeMeters>60.200000762939453125</AltitudeMeters>
            <DistanceMeters>25451.227201353</DistanceMeters>
          </Trackpoint>
          <Trackpoint>
            <Time>2018-04-21T09:27:35.000Z</Time>
            <Position>
              <LatitudeDegrees>43.218871392309665679931640625</LatitudeDegrees>
              <LongitudeDegrees>-8.33508211188018321990966796875</LongitudeDegrees>
            </Position>
            <AltitudeMeters>61</AltitudeMeters>
            <DistanceMeters>25464.621586699</DistanceMeters>
          </Trackpoint>
          <Trackpoint>
            <Time>2018-04-21T09:27:39.000Z</Time>
            <Position>
              <LatitudeDegrees>43.21876846253871917724609375</LatitudeDegrees>
              <LongitudeDegrees>-8.33512653596699237823486328125</LongitudeDegrees>
            </Position>
            <AltitudeMeters>61.40000152587890625</AltitudeMeters>
            <DistanceMeters>25476.631098802</DistanceMeters>
          </Trackpoint>
          <Trackpoint>
            <Time>2018-04-21T09:27:41.000Z</Time>
            <Position>
              <LatitudeDegrees>43.21872848086059093475341796875</LatitudeDegrees>
              <LongitudeDegrees>-8.33516039885580539703369140625</LongitudeDegrees>
            </Position>
            <AltitudeMeters>62</AltitudeMeters>
            <DistanceMeters>25481.860159088</DistanceMeters>
          </Trackpoint>
          <Trackpoint>
            <Time>2018-04-21T09:27:46.000Z</Time>
            <Position>
              <LatitudeDegrees>43.2186395488679409027099609375</LatitudeDegrees>
              <LongitudeDegrees>-8.335251845419406890869140625</LongitudeDegrees>
            </Position>
            <AltitudeMeters>63.200000762939453125</AltitudeMeters>
            <DistanceMeters>25494.2289729</DistanceMeters>
          </Trackpoint>
          <Trackpoint>
            <Time>2018-04-21T09:27:52.000Z</Time>
            <Position>
              <LatitudeDegrees>43.21855329908430576324462890625</LatitudeDegrees>
              <LongitudeDegrees>-8.3353871293365955352783203125</LongitudeDegrees>
            </Position>
            <AltitudeMeters>64.59999847412109375</AltitudeMeters>
            <DistanceMeters>25508.808684814</DistanceMeters>
          </Trackpoint>
          <Trackpoint>
            <Time>2018-04-21T09:27:53.000Z</Time>
            <Position>
              <LatitudeDegrees>43.21854181587696075439453125</LatitudeDegrees>
              <LongitudeDegrees>-8.33541587926447391510009765625</LongitudeDegrees>
            </Position>
            <AltitudeMeters>64.59999847412109375</AltitudeMeters>
            <DistanceMeters>25511.466036838</DistanceMeters>
          </Trackpoint>
          <Trackpoint>
            <Time>2018-04-21T09:27:57.000Z</Time>
            <Position>
              <LatitudeDegrees>43.21847878396511077880859375</LatitudeDegrees>
              <LongitudeDegrees>-8.33554445765912532806396484375</LongitudeDegrees>
            </Position>
            <AltitudeMeters>65.40000152587890625</AltitudeMeters>
            <DistanceMeters>25524.035452793</DistanceMeters>
          </Trackpoint>
          <Trackpoint>
            <Time>2018-04-21T09:27:58.000Z</Time>
            <Position>
              <LatitudeDegrees>43.21846394799649715423583984375</LatitudeDegrees>
              <LongitudeDegrees>-8.3355765603482723236083984375</LongitudeDegrees>
            </Position>
            <AltitudeMeters>65.59999847412109375</AltitudeMeters>
            <DistanceMeters>25527.12052987</DistanceMeters>
          </Trackpoint>
          <Trackpoint>
            <Time>2018-04-21T09:28:00.000Z</Time>
            <Position>
              <LatitudeDegrees>43.21842254139482975006103515625</LatitudeDegrees>
              <LongitudeDegrees>-8.33563934080302715301513671875</LongitudeDegrees>
            </Position>
            <AltitudeMeters>66</AltitudeMeters>
            <DistanceMeters>25533.989456236</DistanceMeters>
          </Trackpoint>
          <Trackpoint>
            <Time>2018-04-21T09:28:04.000Z</Time>
            <Position>
              <LatitudeDegrees>43.21831508539617061614990234375</LatitudeDegrees>
              <LongitudeDegrees>-8.3357475511729717254638671875</LongitudeDegrees>
            </Position>
            <AltitudeMeters>66.8000030517578125</AltitudeMeters>
            <DistanceMeters>25548.824584247</DistanceMeters>
          </Trackpoint>
          <Trackpoint>
            <Time>2018-04-21T09:28:07.000Z</Time>
            <Position>
              <LatitudeDegrees>43.2182295061647891998291015625</LatitudeDegrees>
              <LongitudeDegrees>-8.3357965014874935150146484375</LongitudeDegrees>
            </Position>
            <AltitudeMeters>67.40000152587890625</AltitudeMeters>
            <DistanceMeters>25559.144065411</DistanceMeters>
          </Trackpoint>
          <Trackpoint>
            <Time>2018-04-21T09:28:08.000Z</Time>
            <Position>
              <LatitudeDegrees>43.218200840055942535400390625</LatitudeDegrees>
              <LongitudeDegrees>-8.335809409618377685546875</LongitudeDegrees>
            </Position>
            <AltitudeMeters>67.8000030517578125</AltitudeMeters>
            <DistanceMeters>25562.502422968</DistanceMeters>
          </Trackpoint>
          <Trackpoint>
            <Time>2018-04-21T09:28:14.000Z</Time>
            <Position>
              <LatitudeDegrees>43.2180333696305751800537109375</LatitudeDegrees>
              <LongitudeDegrees>-8.33584955893456935882568359375</LongitudeDegrees>
            </Position>
            <AltitudeMeters>68.8000030517578125</AltitudeMeters>
            <DistanceMeters>25581.423957548</DistanceMeters>
          </Trackpoint>
          <Trackpoint>
            <Time>2018-04-21T09:28:21.000Z</Time>
            <Position>
              <LatitudeDegrees>43.2178171165287494659423828125</LatitudeDegrees>
              <LongitudeDegrees>-8.33587177097797393798828125</LongitudeDegrees>
            </Position>
            <AltitudeMeters>69.8000030517578125</AltitudeMeters>
            <DistanceMeters>25605.560742998</DistanceMeters>
          </Trackpoint>
          <Trackpoint>
            <Time>2018-04-21T09:28:23.000Z</Time>
            <Position>
              <LatitudeDegrees>43.21775634773075580596923828125</LatitudeDegrees>
              <LongitudeDegrees>-8.33587755449116230010986328125</LongitudeDegrees>
            </Position>
            <AltitudeMeters>70.40000152587890625</AltitudeMeters>
            <DistanceMeters>25612.340351327</DistanceMeters>
          </Trackpoint>
          <Trackpoint>
            <Time>2018-04-21T09:28:26.000Z</Time>
            <Position>
              <LatitudeDegrees>43.21765157394111156463623046875</LatitudeDegrees>
              <LongitudeDegrees>-8.33589054644107818603515625</LongitudeDegrees>
            </Position>
            <AltitudeMeters>70.8000030517578125</AltitudeMeters>
            <DistanceMeters>25624.049478137</DistanceMeters>
          </Trackpoint>
          <Trackpoint>
            <Time>2018-04-21T09:28:32.000Z</Time>
            <Position>
              <LatitudeDegrees>43.2174338959157466888427734375</LatitudeDegrees>
              <LongitudeDegrees>-8.33593119867146015167236328125</LongitudeDegrees>
            </Position>
            <AltitudeMeters>71.40000152587890625</AltitudeMeters>
            <DistanceMeters>25648.500721483</DistanceMeters>
          </Trackpoint>
          <Trackpoint>
            <Time>2018-04-21T09:28:34.000Z</Time>
            <Position>
              <LatitudeDegrees>43.21736306883394718170166015625</LatitudeDegrees>
              <LongitudeDegrees>-8.3359312824904918670654296875</LongitudeDegrees>
            </Position>
            <AltitudeMeters>72</AltitudeMeters>
            <DistanceMeters>25656.384503327</DistanceMeters>
          </Trackpoint>
          <Trackpoint>
            <Time>2018-04-21T09:28:39.000Z</Time>
            <Position>
              <LatitudeDegrees>43.2171807624399662017822265625</LatitudeDegrees>
              <LongitudeDegrees>-8.335934467613697052001953125</LongitudeDegrees>
            </Position>
            <AltitudeMeters>73</AltitudeMeters>
            <DistanceMeters>25676.677324129</DistanceMeters>
          </Trackpoint>
          <Trackpoint>
            <Time>2018-04-21T09:28:42.000Z</Time>
            <Position>
              <LatitudeDegrees>43.2170712947845458984375</LatitudeDegrees>
              <LongitudeDegrees>-8.33593455143272876739501953125</LongitudeDegrees>
            </Position>
            <AltitudeMeters>73.40000152587890625</AltitudeMeters>
            <DistanceMeters>25688.86151293</DistanceMeters>
          </Trackpoint>
          <Trackpoint>
            <Time>2018-04-21T09:28:46.000Z</Time>
            <Position>
              <LatitudeDegrees>43.2169236056506633758544921875</LatitudeDegrees>
              <LongitudeDegrees>-8.33593614399433135986328125</LongitudeDegrees>
            </Position>
            <AltitudeMeters>74.40000152587890625</AltitudeMeters>
            <DistanceMeters>25705.300035904</DistanceMeters>
          </Trackpoint>
          <Trackpoint>
            <Time>2018-04-21T09:28:50.000Z</Time>
            <Position>
              <LatitudeDegrees>43.21679301559925079345703125</LatitudeDegrees>
              <LongitudeDegrees>-8.3359299413859844207763671875</LongitudeDegrees>
            </Position>
            <AltitudeMeters>75</AltitudeMeters>
            <DistanceMeters>25719.843780629</DistanceMeters>
          </Trackpoint>
          <Trackpoint>
            <Time>2018-04-21T09:28:53.000Z</Time>
            <Position>
              <LatitudeDegrees>43.21670978330075740814208984375</LatitudeDegrees>
              <LongitudeDegrees>-8.3359319530427455902099609375</LongitudeDegrees>
            </Position>
            <AltitudeMeters>75.59999847412109375</AltitudeMeters>
            <DistanceMeters>25729.109738045</DistanceMeters>
          </Trackpoint>
          <Trackpoint>
            <Time>2018-04-21T09:28:57.000Z</Time>
            <Position>
              <LatitudeDegrees>43.2165983878076076507568359375</LatitudeDegrees>
              <LongitudeDegrees>-8.33591644652187824249267578125</LongitudeDegrees>
            </Position>
            <AltitudeMeters>76.1999969482421875</AltitudeMeters>
            <DistanceMeters>25741.571650205</DistanceMeters>
          </Trackpoint>
          <Trackpoint>
            <Time>2018-04-21T09:28:58.000Z</Time>
            <Position>
              <LatitudeDegrees>43.21657047607004642486572265625</LatitudeDegrees>
              <LongitudeDegrees>-8.335911668837070465087890625</LongitudeDegrees>
            </Position>
            <AltitudeMeters>76.59999847412109375</AltitudeMeters>
            <DistanceMeters>25744.701767286</DistanceMeters>
          </Trackpoint>
          <Trackpoint>
            <Time>2018-04-21T09:29:03.000Z</Time>
            <Position>
              <LatitudeDegrees>43.21644357405602931976318359375</LatitudeDegrees>
              <LongitudeDegrees>-8.33586799912154674530029296875</LongitudeDegrees>
            </Position>
            <AltitudeMeters>77.59999847412109375</AltitudeMeters>
            <DistanceMeters>25759.26350671</DistanceMeters>
          </Trackpoint>
          <Trackpoint>
            <Time>2018-04-21T09:29:08.000Z</Time>
            <Position>
              <LatitudeDegrees>43.2162842340767383575439453125</LatitudeDegrees>
              <LongitudeDegrees>-8.33579625003039836883544921875</LongitudeDegrees>
            </Position>
            <AltitudeMeters>78.8000030517578125</AltitudeMeters>
            <DistanceMeters>25777.929182145</DistanceMeters>
          </Trackpoint>
          <Trackpoint>
            <Time>2018-04-21T09:29:10.000Z</Time>
            <Position>
              <LatitudeDegrees>43.21621458046138286590576171875</LatitudeDegrees>
              <LongitudeDegrees>-8.335763476788997650146484375</LongitudeDegrees>
            </Position>
            <AltitudeMeters>79.40000152587890625</AltitudeMeters>
            <DistanceMeters>25786.125752693</DistanceMeters>
          </Trackpoint>
          <Trackpoint>
            <Time>2018-04-21T09:29:14.000Z</Time>
            <Position>
              <LatitudeDegrees>43.2160797156393527984619140625</LatitudeDegrees>
              <LongitudeDegrees>-8.3356825076043605804443359375</LongitudeDegrees>
            </Position>
            <AltitudeMeters>80</AltitudeMeters>
            <DistanceMeters>25802.510629033</DistanceMeters>
          </Trackpoint>
          <Trackpoint>
            <Time>2018-04-21T09:29:17.000Z</Time>
            <Position>
              <LatitudeDegrees>43.21598072536289691925048828125</LatitudeDegrees>
              <LongitudeDegrees>-8.33563297055661678314208984375</LongitudeDegrees>
            </Position>
            <AltitudeMeters>80.8000030517578125</AltitudeMeters>
            <DistanceMeters>25814.237865035</DistanceMeters>
          </Trackpoint>
          <Trackpoint>
            <Time>2018-04-21T09:29:22.000Z</Time>
            <Position>
              <LatitudeDegrees>43.2158339582383632659912109375</LatitudeDegrees>
              <LongitudeDegrees>-8.33552040159702301025390625</LongitudeDegrees>
            </Position>
            <AltitudeMeters>81.1999969482421875</AltitudeMeters>
            <DistanceMeters>25832.95209718</DistanceMeters>
          </Trackpoint>
          <Trackpoint>
            <Time>2018-04-21T09:29:25.000Z</Time>
            <Position>
              <LatitudeDegrees>43.21575961075723171234130859375</LatitudeDegrees>
              <LongitudeDegrees>-8.3354665897786617279052734375</LongitudeDegrees>
            </Position>
            <AltitudeMeters>81.8000030517578125</AltitudeMeters>
            <DistanceMeters>25842.307765567</DistanceMeters>
          </Trackpoint>
          <Trackpoint>
            <Time>2018-04-21T09:29:27.000Z</Time>
            <Position>
              <LatitudeDegrees>43.215714432299137115478515625</LatitudeDegrees>
              <LongitudeDegrees>-8.33541839383542537689208984375</LongitudeDegrees>
            </Position>
            <AltitudeMeters>82.59999847412109375</AltitudeMeters>
            <DistanceMeters>25848.677391417</DistanceMeters>
          </Trackpoint>
          <Trackpoint>
            <Time>2018-04-21T09:29:32.000Z</Time>
            <Position>
              <LatitudeDegrees>43.2156063057482242584228515625</LatitudeDegrees>
              <LongitudeDegrees>-8.33531462587416172027587890625</LongitudeDegrees>
            </Position>
            <AltitudeMeters>84.1999969482421875</AltitudeMeters>
            <DistanceMeters>25863.363861583</DistanceMeters>
          </Trackpoint>
          <Trackpoint>
            <Time>2018-04-21T09:29:33.000Z</Time>
            <Position>
              <LatitudeDegrees>43.2155861891806125640869140625</LatitudeDegrees>
              <LongitudeDegrees>-8.33528512157499790191650390625</LongitudeDegrees>
            </Position>
            <AltitudeMeters>84.1999969482421875</AltitudeMeters>
            <DistanceMeters>25866.641938911</DistanceMeters>
          </Trackpoint>
          <Trackpoint>
            <Time>2018-04-21T09:29:36.000Z</Time>
            <Position>
              <LatitudeDegrees>43.215493820607662200927734375</LatitudeDegrees>
              <LongitudeDegrees>-8.3352305553853511810302734375</LongitudeDegrees>
            </Position>
            <AltitudeMeters>85.1999969482421875</AltitudeMeters>
            <DistanceMeters>25877.834940322</DistanceMeters>
          </Trackpoint>
          <Trackpoint>
            <Time>2018-04-21T09:29:37.000Z</Time>
            <Position>
              <LatitudeDegrees>43.21546339429914951324462890625</LatitudeDegrees>
              <LongitudeDegrees>-8.33521462976932525634765625</LongitudeDegrees>
            </Position>
            <AltitudeMeters>85.1999969482421875</AltitudeMeters>
            <DistanceMeters>25881.45843741</DistanceMeters>
          </Trackpoint>
          <Trackpoint>
            <Time>2018-04-21T09:29:42.000Z</Time>
            <Position>
              <LatitudeDegrees>43.21532676927745342254638671875</LatitudeDegrees>
              <LongitudeDegrees>-8.3351326547563076019287109375</LongitudeDegrees>
            </Position>
            <AltitudeMeters>86.1999969482421875</AltitudeMeters>
            <DistanceMeters>25898.055499859</DistanceMeters>
          </Trackpoint>
          <Trackpoint>
            <Time>2018-04-21T09:29:44.000Z</Time>
            <Position>
              <LatitudeDegrees>43.21526725776493549346923828125</LatitudeDegrees>
              <LongitudeDegrees>-8.33510977216064929962158203125</LongitudeDegrees>
            </Position>
            <AltitudeMeters>86.8000030517578125</AltitudeMeters>
            <DistanceMeters>25904.934278861</DistanceMeters>
          </Trackpoint>
          <Trackpoint>
            <Time>2018-04-21T09:29:46.000Z</Time>
            <Position>
              <LatitudeDegrees>43.21520606987178325653076171875</LatitudeDegrees>
              <LongitudeDegrees>-8.33508362062275409698486328125</LongitudeDegrees>
            </Position>
            <AltitudeMeters>87.40000152587890625</AltitudeMeters>
            <DistanceMeters>25912.066981763</DistanceMeters>
          </Trackpoint>
          <Trackpoint>
            <Time>2018-04-21T09:29:51.000Z</Time>
            <Position>
              <LatitudeDegrees>43.21504631079733371734619140625</LatitudeDegrees>
              <LongitudeDegrees>-8.3350743167102336883544921875</LongitudeDegrees>
            </Position>
            <AltitudeMeters>88.40000152587890625</AltitudeMeters>
            <DistanceMeters>25929.864650754</DistanceMeters>
          </Trackpoint>
          <Trackpoint>
            <Time>2018-04-21T09:29:55.000Z</Time>
            <Position>
              <LatitudeDegrees>43.21491220034658908843994140625</LatitudeDegrees>
              <LongitudeDegrees>-8.33510826341807842254638671875</LongitudeDegrees>
            </Position>
            <AltitudeMeters>89.8000030517578125</AltitudeMeters>
            <DistanceMeters>25945.043365139</DistanceMeters>
          </Trackpoint>
          <Trackpoint>
            <Time>2018-04-21T09:29:57.000Z</Time>
            <Position>
              <LatitudeDegrees>43.2148455642163753509521484375</LatitudeDegrees>
              <LongitudeDegrees>-8.3351401984691619873046875</LongitudeDegrees>
            </Position>
            <AltitudeMeters>90.59999847412109375</AltitudeMeters>
            <DistanceMeters>25952.899609312</DistanceMeters>
          </Trackpoint>
          <Trackpoint>
            <Time>2018-04-21T09:30:05.000Z</Time>
            <Position>
              <LatitudeDegrees>43.2145889103412628173828125</LatitudeDegrees>
              <LongitudeDegrees>-8.33527757786214351654052734375</LongitudeDegrees>
            </Position>
            <AltitudeMeters>90.1999969482421875</AltitudeMeters>
            <DistanceMeters>25983.562478703</DistanceMeters>
          </Trackpoint>
          <Trackpoint>
            <Time>2018-04-21T09:30:07.000Z</Time>
            <Position>
              <LatitudeDegrees>43.21451925672590732574462890625</LatitudeDegrees>
              <LongitudeDegrees>-8.33528646267950534820556640625</LongitudeDegrees>
            </Position>
            <AltitudeMeters>91</AltitudeMeters>
            <DistanceMeters>25991.348872814</DistanceMeters>
          </Trackpoint>
          <Trackpoint>
            <Time>2018-04-21T09:30:11.000Z</Time>
            <Position>
              <LatitudeDegrees>43.21437877602875232696533203125</LatitudeDegrees>
              <LongitudeDegrees>-8.3352892287075519561767578125</LongitudeDegrees>
            </Position>
            <AltitudeMeters>91.59999847412109375</AltitudeMeters>
            <DistanceMeters>26006.985893309</DistanceMeters>
          </Trackpoint>
          <Trackpoint>
            <Time>2018-04-21T09:30:14.000Z</Time>
            <Position>
              <LatitudeDegrees>43.2142779417335987091064453125</LatitudeDegrees>
              <LongitudeDegrees>-8.33529115654528141021728515625</LongitudeDegrees>
            </Position>
            <AltitudeMeters>92</AltitudeMeters>
            <DistanceMeters>26018.209912039</DistanceMeters>
          </Trackpoint>
          <Trackpoint>
            <Time>2018-04-21T09:30:18.000Z</Time>
            <Position>
              <LatitudeDegrees>43.21415900252759456634521484375</LatitudeDegrees>
              <LongitudeDegrees>-8.33527741022408008575439453125</LongitudeDegrees>
            </Position>
            <AltitudeMeters>93</AltitudeMeters>
            <DistanceMeters>26031.49531283</DistanceMeters>
          </Trackpoint>
          <Trackpoint>
            <Time>2018-04-21T09:30:19.000Z</Time>
            <Position>
              <LatitudeDegrees>43.2141297496855258941650390625</LatitudeDegrees>
              <LongitudeDegrees>-8.33527271635830402374267578125</LongitudeDegrees>
            </Position>
            <AltitudeMeters>93.40000152587890625</AltitudeMeters>
            <DistanceMeters>26034.773390158</DistanceMeters>
          </Trackpoint>
          <Trackpoint>
            <Time>2018-04-21T09:30:24.000Z</Time>
            <Position>
              <LatitudeDegrees>43.21399086154997348785400390625</LatitudeDegrees>
              <LongitudeDegrees>-8.33523566834628582000732421875</LongitudeDegrees>
            </Position>
            <AltitudeMeters>94.59999847412109375</AltitudeMeters>
            <DistanceMeters>26050.521183317</DistanceMeters>
          </Trackpoint>
          <Trackpoint>
            <Time>2018-04-21T09:30:25.000Z</Time>
            <Position>
              <LatitudeDegrees>43.2139614410698413848876953125</LatitudeDegrees>
              <LongitudeDegrees>-8.335224352777004241943359375</LongitudeDegrees>
            </Position>
            <AltitudeMeters>94.59999847412109375</AltitudeMeters>
            <DistanceMeters>26053.922290185</DistanceMeters>
          </Trackpoint>
          <Trackpoint>
            <Time>2018-04-21T09:30:30.000Z</Time>
            <Position>
              <LatitudeDegrees>43.21381886489689350128173828125</LatitudeDegrees>
              <LongitudeDegrees>-8.335176408290863037109375</LongitudeDegrees>
            </Position>
            <AltitudeMeters>95.8000030517578125</AltitudeMeters>
            <DistanceMeters>26070.260806636</DistanceMeters>
          </Trackpoint>
          <Trackpoint>
            <Time>2018-04-21T09:30:33.000Z</Time>
            <Position>
              <LatitudeDegrees>43.2137341238558292388916015625</LatitudeDegrees>
              <LongitudeDegrees>-8.335143215954303741455078125</LongitudeDegrees>
            </Position>
            <AltitudeMeters>96.59999847412109375</AltitudeMeters>
            <DistanceMeters>26080.069754822</DistanceMeters>
          </Trackpoint>
          <Trackpoint>
            <Time>2018-04-21T09:30:34.000Z</Time>
            <Position>
              <LatitudeDegrees>43.21370487101376056671142578125</LatitudeDegrees>
              <LongitudeDegrees>-8.33513156510889530181884765625</LongitudeDegrees>
            </Position>
            <AltitudeMeters>97</AltitudeMeters>
            <DistanceMeters>26083.461556318</DistanceMeters>
          </Trackpoint>
          <Trackpoint>
            <Time>2018-04-21T09:30:40.000Z</Time>
            <Position>
              <LatitudeDegrees>43.21352734230458736419677734375</LatitudeDegrees>
              <LongitudeDegrees>-8.33505914546549320220947265625</LongitudeDegrees>
            </Position>
            <AltitudeMeters>98.1999969482421875</AltitudeMeters>
            <DistanceMeters>26104.075564597</DistanceMeters>
          </Trackpoint>
          <Trackpoint>
            <Time>2018-04-21T09:30:42.000Z</Time>
            <Position>
              <LatitudeDegrees>43.2134704291820526123046875</LatitudeDegrees>
              <LongitudeDegrees>-8.335033245384693145751953125</LongitudeDegrees>
            </Position>
            <AltitudeMeters>99.1999969482421875</AltitudeMeters>
            <DistanceMeters>26110.74979617</DistanceMeters>
          </Trackpoint>
          <Trackpoint>
            <Time>2018-04-21T09:30:45.000Z</Time>
            <Position>
              <LatitudeDegrees>43.21338568814098834991455078125</LatitudeDegrees>
              <LongitudeDegrees>-8.3350059203803539276123046875</LongitudeDegrees>
            </Position>
            <AltitudeMeters>99.1999969482421875</AltitudeMeters>
            <DistanceMeters>26120.438793782</DistanceMeters>
          </Trackpoint>
          <Trackpoint>
            <Time>2018-04-21T09:30:50.000Z</Time>
            <Position>
              <LatitudeDegrees>43.21324436925351619720458984375</LatitudeDegrees>
              <LongitudeDegrees>-8.33496543578803539276123046875</LongitudeDegrees>
            </Position>
            <AltitudeMeters>100</AltitudeMeters>
            <DistanceMeters>26136.507583588</DistanceMeters>
          </Trackpoint>
          <Trackpoint>
            <Time>2018-04-21T09:30:52.000Z</Time>
            <Position>
              <LatitudeDegrees>43.21318209171295166015625</LatitudeDegrees>
              <LongitudeDegrees>-8.334947414696216583251953125</LongitudeDegrees>
            </Position>
            <AltitudeMeters>100.40000152587890625</AltitudeMeters>
            <DistanceMeters>26143.592014749</DistanceMeters>
          </Trackpoint>
          <Trackpoint>
            <Time>2018-04-21T09:30:58.000Z</Time>
            <Position>
              <LatitudeDegrees>43.21299693547189235687255859375</LatitudeDegrees>
              <LongitudeDegrees>-8.33493861369788646697998046875</LongitudeDegrees>
            </Position>
            <AltitudeMeters>101.40000152587890625</AltitudeMeters>
            <DistanceMeters>26164.212592811</DistanceMeters>
          </Trackpoint>
          <Trackpoint>
            <Time>2018-04-21T09:30:59.000Z</Time>
            <Position>
              <LatitudeDegrees>43.2129650004208087921142578125</LatitudeDegrees>
              <LongitudeDegrees>-8.334937356412410736083984375</LongitudeDegrees>
            </Position>
            <AltitudeMeters>101.40000152587890625</AltitudeMeters>
            <DistanceMeters>26167.768166888</DistanceMeters>
          </Trackpoint>
          <Trackpoint>
            <Time>2018-04-21T09:31:04.000Z</Time>
            <Position>
              <LatitudeDegrees>43.21281219832599163055419921875</LatitudeDegrees>
              <LongitudeDegrees>-8.33493609912693500518798828125</LongitudeDegrees>
            </Position>
            <AltitudeMeters>102.59999847412109375</AltitudeMeters>
            <DistanceMeters>26184.775559653</DistanceMeters>
          </Trackpoint>
          <Trackpoint>
            <Time>2018-04-21T09:31:08.000Z</Time>
            <Position>
              <LatitudeDegrees>43.21268781088292598724365234375</LatitudeDegrees>
              <LongitudeDegrees>-8.33493970334529876708984375</LongitudeDegrees>
            </Position>
            <AltitudeMeters>102.8000030517578125</AltitudeMeters>
            <DistanceMeters>26198.623400761</DistanceMeters>
          </Trackpoint>
          <Trackpoint>
            <Time>2018-04-21T09:31:13.000Z</Time>
            <Position>
              <LatitudeDegrees>43.21254431270062923431396484375</LatitudeDegrees>
              <LongitudeDegrees>-8.33494297228753566741943359375</LongitudeDegrees>
            </Position>
            <AltitudeMeters>103.8000030517578125</AltitudeMeters>
            <DistanceMeters>26214.59750168</DistanceMeters>
          </Trackpoint>
          <Trackpoint>
            <Time>2018-04-21T09:31:15.000Z</Time>
            <Position>
              <LatitudeDegrees>43.21248949505388736724853515625</LatitudeDegrees>
              <LongitudeDegrees>-8.33495722152292728424072265625</LongitudeDegrees>
            </Position>
            <AltitudeMeters>104.40000152587890625</AltitudeMeters>
            <DistanceMeters>26220.807044853</DistanceMeters>
          </Trackpoint>
          <Trackpoint>
            <Time>2018-04-21T09:31:19.000Z</Time>
            <Position>
              <LatitudeDegrees>43.212375752627849578857421875</LatitudeDegrees>
              <LongitudeDegrees>-8.33496786653995513916015625</LongitudeDegrees>
            </Position>
            <AltitudeMeters>105</AltitudeMeters>
            <DistanceMeters>26233.495513354</DistanceMeters>
          </Trackpoint>
          <Trackpoint>
            <Time>2018-04-21T09:31:23.000Z</Time>
            <Position>
              <LatitudeDegrees>43.2122580707073211669921875</LatitudeDegrees>
              <LongitudeDegrees>-8.3349945209920406341552734375</LongitudeDegrees>
            </Position>
            <AltitudeMeters>106.1999969482421875</AltitudeMeters>
            <DistanceMeters>26246.771054848</DistanceMeters>
          </Trackpoint>
          <Trackpoint>
            <Time>2018-04-21T09:31:29.000Z</Time>
            <Position>
              <LatitudeDegrees>43.2120610959827899932861328125</LatitudeDegrees>
              <LongitudeDegrees>-8.335125111043453216552734375</LongitudeDegrees>
            </Position>
            <AltitudeMeters>106.8000030517578125</AltitudeMeters>
            <DistanceMeters>26271.120155427</DistanceMeters>
          </Trackpoint>
          <Trackpoint>
            <Time>2018-04-21T09:31:31.000Z</Time>
            <Position>
              <LatitudeDegrees>43.2119910232722759246826171875</LatitudeDegrees>
              <LongitudeDegrees>-8.335184790194034576416015625</LongitudeDegrees>
            </Position>
            <AltitudeMeters>107.1999969482421875</AltitudeMeters>
            <DistanceMeters>26280.29995245</DistanceMeters>
          </Trackpoint>
          <Trackpoint>
            <Time>2018-04-21T09:31:37.000Z</Time>
            <Position>
              <LatitudeDegrees>43.21178776212036609649658203125</LatitudeDegrees>
              <LongitudeDegrees>-8.3353172242641448974609375</LongitudeDegrees>
            </Position>
            <AltitudeMeters>108</AltitudeMeters>
            <DistanceMeters>26305.344675245</DistanceMeters>
          </Trackpoint>
          <Trackpoint>
            <Time>2018-04-21T09:31:38.000Z</Time>
            <Position>
              <LatitudeDegrees>43.21175582706928253173828125</LatitudeDegrees>
              <LongitudeDegrees>-8.33533239550888538360595703125</LongitudeDegrees>
            </Position>
            <AltitudeMeters>108.40000152587890625</AltitudeMeters>
            <DistanceMeters>26309.106341071</DistanceMeters>
          </Trackpoint>
          <Trackpoint>
            <Time>2018-04-21T09:31:43.000Z</Time>
            <Position>
              <LatitudeDegrees>43.21162247098982334136962890625</LatitudeDegrees>
              <LongitudeDegrees>-8.33537631668150424957275390625</LongitudeDegrees>
            </Position>
            <AltitudeMeters>109.40000152587890625</AltitudeMeters>
            <DistanceMeters>26324.371074693</DistanceMeters>
          </Trackpoint>
          <Trackpoint>
            <Time>2018-04-21T09:31:44.000Z</Time>
            <Position>
              <LatitudeDegrees>43.21160134859383106231689453125</LatitudeDegrees>
              <LongitudeDegrees>-8.335380256175994873046875</LongitudeDegrees>
            </Position>
            <AltitudeMeters>109.59999847412109375</AltitudeMeters>
            <DistanceMeters>26326.742938438</DistanceMeters>
          </Trackpoint>
          <Trackpoint>
            <Time>2018-04-21T09:31:47.000Z</Time>
            <Position>
              <LatitudeDegrees>43.21154301054775714874267578125</LatitudeDegrees>
              <LongitudeDegrees>-8.33538654260337352752685546875</LongitudeDegrees>
            </Position>
            <AltitudeMeters>110.59999847412109375</AltitudeMeters>
            <DistanceMeters>26333.256255499</DistanceMeters>
          </Trackpoint>
          <Trackpoint>
            <Time>2018-04-21T09:31:50.000Z</Time>
            <Position>
              <LatitudeDegrees>43.211489282548427581787109375</LatitudeDegrees>
              <LongitudeDegrees>-8.3353884704411029815673828125</LongitudeDegrees>
            </Position>
            <AltitudeMeters>111.8000030517578125</AltitudeMeters>
            <DistanceMeters>26339.238411711</DistanceMeters>
          </Trackpoint>
          <Trackpoint>
            <Time>2018-04-21T09:31:51.000Z</Time>
            <Position>
              <LatitudeDegrees>43.2114686630666255950927734375</LatitudeDegrees>
              <LongitudeDegrees>-8.3353847824037075042724609375</LongitudeDegrees>
            </Position>
            <AltitudeMeters>111.8000030517578125</AltitudeMeters>
            <DistanceMeters>26341.554413742</DistanceMeters>
          </Trackpoint>
          <Trackpoint>
            <Time>2018-04-21T09:31:52.000Z</Time>
            <Position>
              <LatitudeDegrees>43.2114498876035213470458984375</LatitudeDegrees>
              <LongitudeDegrees>-8.3353911526501178741455078125</LongitudeDegrees>
            </Position>
            <AltitudeMeters>112</AltitudeMeters>
            <DistanceMeters>26343.708818368</DistanceMeters>
          </Trackpoint>
          <Trackpoint>
            <Time>2018-04-21T09:31:55.000Z</Time>
            <Position>
              <LatitudeDegrees>43.21138995699584484100341796875</LatitudeDegrees>
              <LongitudeDegrees>-8.3353834412992000579833984375</LongitudeDegrees>
            </Position>
            <AltitudeMeters>113</AltitudeMeters>
            <DistanceMeters>26350.409381037</DistanceMeters>
          </Trackpoint>
          <Trackpoint>
            <Time>2018-04-21T09:31:56.000Z</Time>
            <Position>
              <LatitudeDegrees>43.21136900223791599273681640625</LatitudeDegrees>
              <LongitudeDegrees>-8.335378579795360565185546875</LongitudeDegrees>
            </Position>
            <AltitudeMeters>113.40000152587890625</AltitudeMeters>
            <DistanceMeters>26352.775527143</DistanceMeters>
          </Trackpoint>
          <Trackpoint>
            <Time>2018-04-21T09:31:59.000Z</Time>
            <Position>
              <LatitudeDegrees>43.21130923926830291748046875</LatitudeDegrees>
              <LongitudeDegrees>-8.3353733830153942108154296875</LongitudeDegrees>
            </Position>
            <AltitudeMeters>114.1999969482421875</AltitudeMeters>
            <DistanceMeters>26359.44095857</DistanceMeters>
          </Trackpoint>
          <Trackpoint>
            <Time>2018-04-21T09:32:04.000Z</Time>
            <Position>
              <LatitudeDegrees>43.21121175773441791534423828125</LatitudeDegrees>
              <LongitudeDegrees>-8.3353824354708194732666015625</LongitudeDegrees>
            </Position>
            <AltitudeMeters>115.1999969482421875</AltitudeMeters>
            <DistanceMeters>26370.315602523</DistanceMeters>
          </Trackpoint>
          <Trackpoint>
            <Time>2018-04-21T09:32:09.000Z</Time>
            <Position>
              <LatitudeDegrees>43.2111162878572940826416015625</LatitudeDegrees>
              <LongitudeDegrees>-8.335400037467479705810546875</LongitudeDegrees>
            </Position>
            <AltitudeMeters>116.40000152587890625</AltitudeMeters>
            <DistanceMeters>26381.037210291</DistanceMeters>
          </Trackpoint>
          <Trackpoint>
            <Time>2018-04-21T09:32:12.000Z</Time>
            <Position>
              <LatitudeDegrees>43.21105174720287322998046875</LatitudeDegrees>
              <LongitudeDegrees>-8.33541286177933216094970703125</LongitudeDegrees>
            </Position>
            <AltitudeMeters>117</AltitudeMeters>
            <DistanceMeters>26388.295410204</DistanceMeters>
          </Trackpoint>
          <Trackpoint>
            <Time>2018-04-21T09:32:14.000Z</Time>
            <Position>
              <LatitudeDegrees>43.211010508239269256591796875</LatitudeDegrees>
              <LongitudeDegrees>-8.3354293741285800933837890625</LongitudeDegrees>
            </Position>
            <AltitudeMeters>117.40000152587890625</AltitudeMeters>
            <DistanceMeters>26393.076113445</DistanceMeters>
          </Trackpoint>
          <Trackpoint>
            <Time>2018-04-21T09:32:18.000Z</Time>
            <Position>
              <LatitudeDegrees>43.21092434227466583251953125</LatitudeDegrees>
              <LongitudeDegrees>-8.33550439216196537017822265625</LongitudeDegrees>
            </Position>
            <AltitudeMeters>118.40000152587890625</AltitudeMeters>
            <DistanceMeters>26404.43409179</DistanceMeters>
          </Trackpoint>
          <Trackpoint>
            <Time>2018-04-21T09:32:19.000Z</Time>
            <Position>
              <LatitudeDegrees>43.21090296842157840728759765625</LatitudeDegrees>
              <LongitudeDegrees>-8.33552769385278224945068359375</LongitudeDegrees>
            </Position>
            <AltitudeMeters>118.59999847412109375</AltitudeMeters>
            <DistanceMeters>26407.471975613</DistanceMeters>
          </Trackpoint>
          <Trackpoint>
            <Time>2018-04-21T09:32:26.000Z</Time>
            <Position>
              <LatitudeDegrees>43.2107525132596492767333984375</LatitudeDegrees>
              <LongitudeDegrees>-8.3357227407395839691162109375</LongitudeDegrees>
            </Position>
            <AltitudeMeters>119.59999847412109375</AltitudeMeters>
            <DistanceMeters>26430.510418122</DistanceMeters>
          </Trackpoint>
          <Trackpoint>
            <Time>2018-04-21T09:32:32.000Z</Time>
            <Position>
              <LatitudeDegrees>43.210608847439289093017578125</LatitudeDegrees>
              <LongitudeDegrees>-8.33587068133056163787841796875</LongitudeDegrees>
            </Position>
            <AltitudeMeters>120.40000152587890625</AltitudeMeters>
            <DistanceMeters>26450.50355104</DistanceMeters>
          </Trackpoint>
          <Trackpoint>
            <Time>2018-04-21T09:32:34.000Z</Time>
            <Position>
              <LatitudeDegrees>43.21055998094379901885986328125</LatitudeDegrees>
              <LongitudeDegrees>-8.33590940572321414947509765625</LongitudeDegrees>
            </Position>
            <AltitudeMeters>120.59999847412109375</AltitudeMeters>
            <DistanceMeters>26456.785384694</DistanceMeters>
          </Trackpoint>
          <Trackpoint>
            <Time>2018-04-21T09:32:41.000Z</Time>
            <Position>
              <LatitudeDegrees>43.2103894092142581939697265625</LatitudeDegrees>
              <LongitudeDegrees>-8.33607754670083522796630859375</LongitudeDegrees>
            </Position>
            <AltitudeMeters>121.59999847412109375</AltitudeMeters>
            <DistanceMeters>26480.162342713</DistanceMeters>
          </Trackpoint>
          <Trackpoint>
            <Time>2018-04-21T09:32:42.000Z</Time>
            <Position>
              <LatitudeDegrees>43.210364766418933868408203125</LatitudeDegrees>
              <LongitudeDegrees>-8.3360979147255420684814453125</LongitudeDegrees>
            </Position>
            <AltitudeMeters>121.59999847412109375</AltitudeMeters>
            <DistanceMeters>26483.365180024</DistanceMeters>
          </Trackpoint>
          <Trackpoint>
            <Time>2018-04-21T09:32:46.000Z</Time>
            <Position>
              <LatitudeDegrees>43.2102653570473194122314453125</LatitudeDegrees>
              <LongitudeDegrees>-8.33616681396961212158203125</LongitudeDegrees>
            </Position>
            <AltitudeMeters>122.8000030517578125</AltitudeMeters>
            <DistanceMeters>26495.760976923</DistanceMeters>
          </Trackpoint>
          <Trackpoint>
            <Time>2018-04-21T09:32:49.000Z</Time>
            <Position>
              <LatitudeDegrees>43.2101905904710292816162109375</LatitudeDegrees>
              <LongitudeDegrees>-8.33621316589415073394775390625</LongitudeDegrees>
            </Position>
            <AltitudeMeters>123</AltitudeMeters>
            <DistanceMeters>26504.892445912</DistanceMeters>
          </Trackpoint>
          <Trackpoint>
            <Time>2018-04-21T09:32:57.000Z</Time>
            <Position>
              <LatitudeDegrees>43.209976516664028167724609375</LatitudeDegrees>
              <LongitudeDegrees>-8.33630050532519817352294921875</LongitudeDegrees>
            </Position>
            <AltitudeMeters>123.59999847412109375</AltitudeMeters>
            <DistanceMeters>26529.75042453</DistanceMeters>
          </Trackpoint>
          <Trackpoint>
            <Time>2018-04-21T09:32:58.000Z</Time>
            <Position>
              <LatitudeDegrees>43.20994667708873748779296875</LatitudeDegrees>
              <LongitudeDegrees>-8.33631274290382862091064453125</LongitudeDegrees>
            </Position>
            <AltitudeMeters>123.8000030517578125</AltitudeMeters>
            <DistanceMeters>26533.215969461</DistanceMeters>
          </Trackpoint>
          <Trackpoint>
            <Time>2018-04-21T09:33:04.000Z</Time>
            <Position>
              <LatitudeDegrees>43.20975330658257007598876953125</LatitudeDegrees>
              <LongitudeDegrees>-8.33638298325240612030029296875</LongitudeDegrees>
            </Position>
            <AltitudeMeters>124.8000030517578125</AltitudeMeters>
            <DistanceMeters>26555.479818099</DistanceMeters>
          </Trackpoint>
          <Trackpoint>
            <Time>2018-04-21T09:33:06.000Z</Time>
            <Position>
              <LatitudeDegrees>43.2096870057284832000732421875</LatitudeDegrees>
              <LongitudeDegrees>-8.33640058524906635284423828125</LongitudeDegrees>
            </Position>
            <AltitudeMeters>125</AltitudeMeters>
            <DistanceMeters>26562.995944643</DistanceMeters>
          </Trackpoint>
          <Trackpoint>
            <Time>2018-04-21T09:33:11.000Z</Time>
            <Position>
              <LatitudeDegrees>43.20952531881630420684814453125</LatitudeDegrees>
              <LongitudeDegrees>-8.3364415727555751800537109375</LongitudeDegrees>
            </Position>
            <AltitudeMeters>126</AltitudeMeters>
            <DistanceMeters>26581.2964221</DistanceMeters>
          </Trackpoint>
          <Trackpoint>
            <Time>2018-04-21T09:33:14.000Z</Time>
            <Position>
              <LatitudeDegrees>43.20943529717624187469482421875</LatitudeDegrees>
              <LongitudeDegrees>-8.3364737592637538909912109375</LongitudeDegrees>
            </Position>
            <AltitudeMeters>126.59999847412109375</AltitudeMeters>
            <DistanceMeters>26591.650846161</DistanceMeters>
          </Trackpoint>
          <Trackpoint>
            <Time>2018-04-21T09:33:19.000Z</Time>
            <Position>
              <LatitudeDegrees>43.2092850096523761749267578125</LatitudeDegrees>
              <LongitudeDegrees>-8.3365403115749359130859375</LongitudeDegrees>
            </Position>
            <AltitudeMeters>127.1999969482421875</AltitudeMeters>
            <DistanceMeters>26609.227962973</DistanceMeters>
          </Trackpoint>
          <Trackpoint>
            <Time>2018-04-21T09:33:22.000Z</Time>
            <Position>
              <LatitudeDegrees>43.209198005497455596923828125</LatitudeDegrees>
              <LongitudeDegrees>-8.33660510368645191192626953125</LongitudeDegrees>
            </Position>
            <AltitudeMeters>127.40000152587890625</AltitudeMeters>
            <DistanceMeters>26620.246145569</DistanceMeters>
          </Trackpoint>
          <Trackpoint>
            <Time>2018-04-21T09:33:27.000Z</Time>
            <Position>
              <LatitudeDegrees>43.20909666828811168670654296875</LatitudeDegrees>
              <LongitudeDegrees>-8.3367382921278476715087890625</LongitudeDegrees>
            </Position>
            <AltitudeMeters>128.600006103515625</AltitudeMeters>
            <DistanceMeters>26635.865253905</DistanceMeters>
          </Trackpoint>
          <Trackpoint>
            <Time>2018-04-21T09:33:28.000Z</Time>
            <Position>
              <LatitudeDegrees>43.209081999957561492919921875</LatitudeDegrees>
              <LongitudeDegrees>-8.3367664553225040435791015625</LongitudeDegrees>
            </Position>
            <AltitudeMeters>128.600006103515625</AltitudeMeters>
            <DistanceMeters>26638.671359152</DistanceMeters>
          </Trackpoint>
          <Trackpoint>
            <Time>2018-04-21T09:33:32.000Z</Time>
            <Position>
              <LatitudeDegrees>43.20903631858527660369873046875</LatitudeDegrees>
              <LongitudeDegrees>-8.33686645142734050750732421875</LongitudeDegrees>
            </Position>
            <AltitudeMeters>129.600006103515625</AltitudeMeters>
            <DistanceMeters>26648.245035348</DistanceMeters>
          </Trackpoint>
          <Trackpoint>
            <Time>2018-04-21T09:33:35.000Z</Time>
            <Position>
              <LatitudeDegrees>43.2090214826166629791259765625</LatitudeDegrees>
              <LongitudeDegrees>-8.33694691769778728485107421875</LongitudeDegrees>
            </Position>
            <AltitudeMeters>130.399993896484375</AltitudeMeters>
            <DistanceMeters>26654.978534723</DistanceMeters>
          </Trackpoint>
          <Trackpoint>
            <Time>2018-04-21T09:33:36.000Z</Time>
            <Position>
              <LatitudeDegrees>43.20901486091315746307373046875</LatitudeDegrees>
              <LongitudeDegrees>-8.33697407506406307220458984375</LongitudeDegrees>
            </Position>
            <AltitudeMeters>130.600006103515625</AltitudeMeters>
            <DistanceMeters>26657.302321657</DistanceMeters>
          </Trackpoint>
          <Trackpoint>
            <Time>2018-04-21T09:33:41.000Z</Time>
            <Position>
              <LatitudeDegrees>43.20896230638027191162109375</LatitudeDegrees>
              <LongitudeDegrees>-8.337090499699115753173828125</LongitudeDegrees>
            </Position>
            <AltitudeMeters>131.8000030517578125</AltitudeMeters>
            <DistanceMeters>26668.411915926</DistanceMeters>
          </Trackpoint>
          <Trackpoint>
            <Time>2018-04-21T09:33:45.000Z</Time>
            <Position>
              <LatitudeDegrees>43.20891327224671840667724609375</LatitudeDegrees>
              <LongitudeDegrees>-8.3371785096824169158935546875</LongitudeDegrees>
            </Position>
            <AltitudeMeters>133</AltitudeMeters>
            <DistanceMeters>26677.39834868</DistanceMeters>
          </Trackpoint>
          <Trackpoint>
            <Time>2018-04-21T09:33:47.000Z</Time>
            <Position>
              <LatitudeDegrees>43.208882510662078857421875</LatitudeDegrees>
              <LongitudeDegrees>-8.3372190780937671661376953125</LongitudeDegrees>
            </Position>
            <AltitudeMeters>133.399993896484375</AltitudeMeters>
            <DistanceMeters>26682.147783484</DistanceMeters>
          </Trackpoint>
          <Trackpoint>
            <Time>2018-04-21T09:33:50.000Z</Time>
            <Position>
              <LatitudeDegrees>43.2088367454707622528076171875</LatitudeDegrees>
              <LongitudeDegrees>-8.33726492710411548614501953125</LongitudeDegrees>
            </Position>
            <AltitudeMeters>134.1999969482421875</AltitudeMeters>
            <DistanceMeters>26688.455438897</DistanceMeters>
          </Trackpoint>
          <Trackpoint>
            <Time>2018-04-21T09:33:55.000Z</Time>
            <Position>
              <LatitudeDegrees>43.2087324745953083038330078125</LatitudeDegrees>
              <LongitudeDegrees>-8.33734455518424510955810546875</LongitudeDegrees>
            </Position>
            <AltitudeMeters>135.1999969482421875</AltitudeMeters>
            <DistanceMeters>26701.737440757</DistanceMeters>
          </Trackpoint>
          <Trackpoint>
            <Time>2018-04-21T09:33:56.000Z</Time>
            <Position>
              <LatitudeDegrees>43.2087100110948085784912109375</LatitudeDegrees>
              <LongitudeDegrees>-8.3373625762760639190673828125</LongitudeDegrees>
            </Position>
            <AltitudeMeters>135.600006103515625</AltitudeMeters>
            <DistanceMeters>26704.635366066</DistanceMeters>
          </Trackpoint>
          <Trackpoint>
            <Time>2018-04-21T09:34:00.000Z</Time>
            <Position>
              <LatitudeDegrees>43.20862946100533008575439453125</LatitudeDegrees>
              <LongitudeDegrees>-8.33744220435619354248046875</LongitudeDegrees>
            </Position>
            <AltitudeMeters>136.600006103515625</AltitudeMeters>
            <DistanceMeters>26715.685465326</DistanceMeters>
          </Trackpoint>
          <Trackpoint>
            <Time>2018-04-21T09:34:04.000Z</Time>
            <Position>
              <LatitudeDegrees>43.20855234749615192413330078125</LatitudeDegrees>
              <LongitudeDegrees>-8.3375449664890766143798828125</LongitudeDegrees>
            </Position>
            <AltitudeMeters>137.1999969482421875</AltitudeMeters>
            <DistanceMeters>26727.650532478</DistanceMeters>
          </Trackpoint>
          <Trackpoint>
            <Time>2018-04-21T09:34:06.000Z</Time>
            <Position>
              <LatitudeDegrees>43.20850959978997707366943359375</LatitudeDegrees>
              <LongitudeDegrees>-8.3375999517738819122314453125</LongitudeDegrees>
            </Position>
            <AltitudeMeters>137.600006103515625</AltitudeMeters>
            <DistanceMeters>26734.172162646</DistanceMeters>
          </Trackpoint>
          <Trackpoint>
            <Time>2018-04-21T09:34:10.000Z</Time>
            <Position>
              <LatitudeDegrees>43.20843986235558986663818359375</LatitudeDegrees>
              <LongitudeDegrees>-8.3376767300069332122802734375</LongitudeDegrees>
            </Position>
            <AltitudeMeters>139.1999969482421875</AltitudeMeters>
            <DistanceMeters>26744.124141266</DistanceMeters>
          </Trackpoint>
          <Trackpoint>
            <Time>2018-04-21T09:34:11.000Z</Time>
            <Position>
              <LatitudeDegrees>43.2084303908050060272216796875</LatitudeDegrees>
              <LongitudeDegrees>-8.33770103752613067626953125</LongitudeDegrees>
            </Position>
            <AltitudeMeters>139.600006103515625</AltitudeMeters>
            <DistanceMeters>26746.360804483</DistanceMeters>
          </Trackpoint>
          <Trackpoint>
            <Time>2018-04-21T09:34:13.000Z</Time>
            <Position>
              <LatitudeDegrees>43.20840432308614253997802734375</LatitudeDegrees>
              <LongitudeDegrees>-8.33774420432746410369873046875</LongitudeDegrees>
            </Position>
            <AltitudeMeters>140.1999969482421875</AltitudeMeters>
            <DistanceMeters>26750.908207595</DistanceMeters>
          </Trackpoint>
          <Trackpoint>
            <Time>2018-04-21T09:34:18.000Z</Time>
            <Position>
              <LatitudeDegrees>43.208317570388317108154296875</LatitudeDegrees>
              <LongitudeDegrees>-8.33784327842295169830322265625</LongitudeDegrees>
            </Position>
            <AltitudeMeters>141.1999969482421875</AltitudeMeters>
            <DistanceMeters>26763.471156137</DistanceMeters>
          </Trackpoint>
          <Trackpoint>
            <Time>2018-04-21T09:34:23.000Z</Time>
            <Position>
              <LatitudeDegrees>43.20821531116962432861328125</LatitudeDegrees>
              <LongitudeDegrees>-8.337901532649993896484375</LongitudeDegrees>
            </Position>
            <AltitudeMeters>142.1999969482421875</AltitudeMeters>
            <DistanceMeters>26775.794988971</DistanceMeters>
          </Trackpoint>
          <Trackpoint>
            <Time>2018-04-21T09:34:24.000Z</Time>
            <Position>
              <LatitudeDegrees>43.2081926800310611724853515625</LatitudeDegrees>
              <LongitudeDegrees>-8.3379127644002437591552734375</LongitudeDegrees>
            </Position>
            <AltitudeMeters>142.399993896484375</AltitudeMeters>
            <DistanceMeters>26778.472652261</DistanceMeters>
          </Trackpoint>
          <Trackpoint>
            <Time>2018-04-21T09:34:29.000Z</Time>
            <Position>
              <LatitudeDegrees>43.20810408331453800201416015625</LatitudeDegrees>
              <LongitudeDegrees>-8.33800236694514751434326171875</LongitudeDegrees>
            </Position>
            <AltitudeMeters>143.399993896484375</AltitudeMeters>
            <DistanceMeters>26790.723361241</DistanceMeters>
          </Trackpoint>
          <Trackpoint>
            <Time>2018-04-21T09:34:31.000Z</Time>
            <Position>
              <LatitudeDegrees>43.20807910524308681488037109375</LatitudeDegrees>
              <LongitudeDegrees>-8.33804092369973659515380859375</LongitudeDegrees>
            </Position>
            <AltitudeMeters>143.600006103515625</AltitudeMeters>
            <DistanceMeters>26794.906695814</DistanceMeters>
          </Trackpoint>
          <Trackpoint>
            <Time>2018-04-21T09:34:34.000Z</Time>
            <Position>
              <LatitudeDegrees>43.20803518407046794891357421875</LatitudeDegrees>
              <LongitudeDegrees>-8.3381001837551593780517578125</LongitudeDegrees>
            </Position>
            <AltitudeMeters>144.399993896484375</AltitudeMeters>
            <DistanceMeters>26801.763121848</DistanceMeters>
          </Trackpoint>
          <Trackpoint>
            <Time>2018-04-21T09:34:36.000Z</Time>
            <Position>
              <LatitudeDegrees>43.20800970308482646942138671875</LatitudeDegrees>
              <LongitudeDegrees>-8.3381380699574947357177734375</LongitudeDegrees>
            </Position>
            <AltitudeMeters>145.8000030517578125</AltitudeMeters>
            <DistanceMeters>26805.94429728</DistanceMeters>
          </Trackpoint>
          <Trackpoint>
            <Time>2018-04-21T09:34:39.000Z</Time>
            <Position>
              <LatitudeDegrees>43.20796511135995388031005859375</LatitudeDegrees>
              <LongitudeDegrees>-8.3381925523281097412109375</LongitudeDegrees>
            </Position>
            <AltitudeMeters>146</AltitudeMeters>
            <DistanceMeters>26812.590055618</DistanceMeters>
          </Trackpoint>
          <Trackpoint>
            <Time>2018-04-21T09:34:42.000Z</Time>
            <Position>
              <LatitudeDegrees>43.20793191902339458465576171875</LatitudeDegrees>
              <LongitudeDegrees>-8.33824778907001018524169921875</LongitudeDegrees>
            </Position>
            <AltitudeMeters>146.8000030517578125</AltitudeMeters>
            <DistanceMeters>26818.398357056</DistanceMeters>
          </Trackpoint>
          <Trackpoint>
            <Time>2018-04-21T09:34:45.000Z</Time>
            <Position>
              <LatitudeDegrees>43.2078969664871692657470703125</LatitudeDegrees>
              <LongitudeDegrees>-8.3382872678339481353759765625</LongitudeDegrees>
            </Position>
            <AltitudeMeters>147.600006103515625</AltitudeMeters>
            <DistanceMeters>26823.437461636</DistanceMeters>
          </Trackpoint>
          <Trackpoint>
            <Time>2018-04-21T09:34:48.000Z</Time>
            <Position>
              <LatitudeDegrees>43.20786905474960803985595703125</LatitudeDegrees>
              <LongitudeDegrees>-8.3383335359394550323486328125</LongitudeDegrees>
            </Position>
            <AltitudeMeters>148</AltitudeMeters>
            <DistanceMeters>26828.310766577</DistanceMeters>
          </Trackpoint>
          <Trackpoint>
            <Time>2018-04-21T09:34:52.000Z</Time>
            <Position>
              <LatitudeDegrees>43.20782982744276523590087890625</LatitudeDegrees>
              <LongitudeDegrees>-8.33839111961424350738525390625</LongitudeDegrees>
            </Position>
            <AltitudeMeters>149</AltitudeMeters>
            <DistanceMeters>26834.705859712</DistanceMeters>
          </Trackpoint>
          <Trackpoint>
            <Time>2018-04-21T09:34:55.000Z</Time>
            <Position>
              <LatitudeDegrees>43.20779697038233280181884765625</LatitudeDegrees>
              <LongitudeDegrees>-8.338430263102054595947265625</LongitudeDegrees>
            </Position>
            <AltitudeMeters>150.399993896484375</AltitudeMeters>
            <DistanceMeters>26839.550358518</DistanceMeters>
          </Trackpoint>
          <Trackpoint>
            <Time>2018-04-21T09:34:58.000Z</Time>
            <Position>
              <LatitudeDegrees>43.20777283050119876861572265625</LatitudeDegrees>
              <LongitudeDegrees>-8.33848633803427219390869140625</LongitudeDegrees>
            </Position>
            <AltitudeMeters>151</AltitudeMeters>
            <DistanceMeters>26844.833536188</DistanceMeters>
          </Trackpoint>
          <Trackpoint>
            <Time>2018-04-21T09:35:00.000Z</Time>
            <Position>
              <LatitudeDegrees>43.20776226930320262908935546875</LatitudeDegrees>
              <LongitudeDegrees>-8.3385219611227512359619140625</LongitudeDegrees>
            </Position>
            <AltitudeMeters>151.600006103515625</AltitudeMeters>
            <DistanceMeters>26847.953539778</DistanceMeters>
          </Trackpoint>
          <Trackpoint>
            <Time>2018-04-21T09:35:03.000Z</Time>
            <Position>
              <LatitudeDegrees>43.2077454216778278350830078125</LatitudeDegrees>
              <LongitudeDegrees>-8.3385735936462879180908203125</LongitudeDegrees>
            </Position>
            <AltitudeMeters>152.399993896484375</AltitudeMeters>
            <DistanceMeters>26852.54343829</DistanceMeters>
          </Trackpoint>
          <Trackpoint>
            <Time>2018-04-21T09:35:05.000Z</Time>
            <Position>
              <LatitudeDegrees>43.20773947052657604217529296875</LatitudeDegrees>
              <LongitudeDegrees>-8.33860888145864009857177734375</LongitudeDegrees>
            </Position>
            <AltitudeMeters>152.600006103515625</AltitudeMeters>
            <DistanceMeters>26855.480055902</DistanceMeters>
          </Trackpoint>
          <Trackpoint>
            <Time>2018-04-21T09:35:10.000Z</Time>
            <Position>
              <LatitudeDegrees>43.20772714912891387939453125</LatitudeDegrees>
              <LongitudeDegrees>-8.33870979957282543182373046875</LongitudeDegrees>
            </Position>
            <AltitudeMeters>153.600006103515625</AltitudeMeters>
            <DistanceMeters>26863.780627164</DistanceMeters>
          </Trackpoint>
          <Trackpoint>
            <Time>2018-04-21T09:35:11.000Z</Time>
            <Position>
              <LatitudeDegrees>43.20772773586213588714599609375</LatitudeDegrees>
              <LongitudeDegrees>-8.3387321792542934417724609375</LongitudeDegrees>
            </Position>
            <AltitudeMeters>153.8000030517578125</AltitudeMeters>
            <DistanceMeters>26865.596109993</DistanceMeters>
          </Trackpoint>
          <Trackpoint>
            <Time>2018-04-21T09:35:16.000Z</Time>
            <Position>
              <LatitudeDegrees>43.207746259868144989013671875</LatitudeDegrees>
              <LongitudeDegrees>-8.33883787505328655242919921875</LongitudeDegrees>
            </Position>
            <AltitudeMeters>155</AltitudeMeters>
            <DistanceMeters>26874.414671006</DistanceMeters>
          </Trackpoint>
          <Trackpoint>
            <Time>2018-04-21T09:35:18.000Z</Time>
            <Position>
              <LatitudeDegrees>43.2077517919242382049560546875</LatitudeDegrees>
              <LongitudeDegrees>-8.33888414315879344940185546875</LongitudeDegrees>
            </Position>
            <AltitudeMeters>155.399993896484375</AltitudeMeters>
            <DistanceMeters>26878.218114506</DistanceMeters>
          </Trackpoint>
          <Trackpoint>
            <Time>2018-04-21T09:35:21.000Z</Time>
            <Position>
              <LatitudeDegrees>43.20774064399302005767822265625</LatitudeDegrees>
              <LongitudeDegrees>-8.33895924501121044158935546875</LongitudeDegrees>
            </Position>
            <AltitudeMeters>156</AltitudeMeters>
            <DistanceMeters>26884.435650775</DistanceMeters>
          </Trackpoint>
          <Trackpoint>
            <Time>2018-04-21T09:35:25.000Z</Time>
            <Position>
              <LatitudeDegrees>43.2077390514314174652099609375</LatitudeDegrees>
              <LongitudeDegrees>-8.33906485699117183685302734375</LongitudeDegrees>
            </Position>
            <AltitudeMeters>156.8000030517578125</AltitudeMeters>
            <DistanceMeters>26893.004932055</DistanceMeters>
          </Trackpoint>
          <Trackpoint>
            <Time>2018-04-21T09:35:26.000Z</Time>
            <Position>
              <LatitudeDegrees>43.20773595012724399566650390625</LatitudeDegrees>
              <LongitudeDegrees>-8.3390926010906696319580078125</LongitudeDegrees>
            </Position>
            <AltitudeMeters>157</AltitudeMeters>
            <DistanceMeters>26895.28161031</DistanceMeters>
          </Trackpoint>
          <Trackpoint>
            <Time>2018-04-21T09:35:31.000Z</Time>
            <Position>
              <LatitudeDegrees>43.20770124904811382293701171875</LatitudeDegrees>
              <LongitudeDegrees>-8.33922411315143108367919921875</LongitudeDegrees>
            </Position>
            <AltitudeMeters>157.8000030517578125</AltitudeMeters>
            <DistanceMeters>26906.627656749</DistanceMeters>
          </Trackpoint>
          <Trackpoint>
            <Time>2018-04-21T09:35:32.000Z</Time>
            <Position>
              <LatitudeDegrees>43.2076904363930225372314453125</LatitudeDegrees>
              <LongitudeDegrees>-8.33925068378448486328125</LongitudeDegrees>
            </Position>
            <AltitudeMeters>158</AltitudeMeters>
            <DistanceMeters>26909.098351322</DistanceMeters>
          </Trackpoint>
          <Trackpoint>
            <Time>2018-04-21T09:35:38.000Z</Time>
            <Position>
              <LatitudeDegrees>43.20765472948551177978515625</LatitudeDegrees>
              <LongitudeDegrees>-8.33941094577312469482421875</LongitudeDegrees>
            </Position>
            <AltitudeMeters>159</AltitudeMeters>
            <DistanceMeters>26922.693482975</DistanceMeters>
          </Trackpoint>
          <Trackpoint>
            <Time>2018-04-21T09:35:40.000Z</Time>
            <Position>
              <LatitudeDegrees>43.207636289298534393310546875</LatitudeDegrees>
              <LongitudeDegrees>-8.33945729769766330718994140625</LongitudeDegrees>
            </Position>
            <AltitudeMeters>159.1999969482421875</AltitudeMeters>
            <DistanceMeters>26926.977069712</DistanceMeters>
          </Trackpoint>
          <Trackpoint>
            <Time>2018-04-21T09:35:42.000Z</Time>
            <Position>
              <LatitudeDegrees>43.207621537148952484130859375</LatitudeDegrees>
              <LongitudeDegrees>-8.33950373344123363494873046875</LongitudeDegrees>
            </Position>
            <AltitudeMeters>160.8000030517578125</AltitudeMeters>
            <DistanceMeters>26931.085258227</DistanceMeters>
          </Trackpoint>
          <Trackpoint>
            <Time>2018-04-21T09:35:43.000Z</Time>
            <Position>
              <LatitudeDegrees>43.2076183520257472991943359375</LatitudeDegrees>
              <LongitudeDegrees>-8.3395284600555896759033203125</LongitudeDegrees>
            </Position>
            <AltitudeMeters>159.8000030517578125</AltitudeMeters>
            <DistanceMeters>26933.123354192</DistanceMeters>
          </Trackpoint>
          <Trackpoint>
            <Time>2018-04-21T09:35:44.000Z</Time>
            <Position>
              <LatitudeDegrees>43.20760938338935375213623046875</LatitudeDegrees>
              <LongitudeDegrees>-8.3395549468696117401123046875</LongitudeDegrees>
            </Position>
            <AltitudeMeters>159.8000030517578125</AltitudeMeters>
            <DistanceMeters>26935.49331359</DistanceMeters>
          </Trackpoint>
          <Trackpoint>
            <Time>2018-04-21T09:35:47.000Z</Time>
            <Position>
              <LatitudeDegrees>43.2075885124504566192626953125</LatitudeDegrees>
              <LongitudeDegrees>-8.3396293781697750091552734375</LongitudeDegrees>
            </Position>
            <AltitudeMeters>160.8000030517578125</AltitudeMeters>
            <DistanceMeters>26941.963509445</DistanceMeters>
          </Trackpoint>
          <Trackpoint>
            <Time>2018-04-21T09:35:51.000Z</Time>
            <Position>
              <LatitudeDegrees>43.20754886604845523834228515625</LatitudeDegrees>
              <LongitudeDegrees>-8.33971847780048847198486328125</LongitudeDegrees>
            </Position>
            <AltitudeMeters>161.8000030517578125</AltitudeMeters>
            <DistanceMeters>26950.43209062</DistanceMeters>
          </Trackpoint>
          <Trackpoint>
            <Time>2018-04-21T09:35:52.000Z</Time>
            <Position>
              <LatitudeDegrees>43.20753713138401508331298828125</LatitudeDegrees>
              <LongitudeDegrees>-8.33974144421517848968505859375</LongitudeDegrees>
            </Position>
            <AltitudeMeters>162</AltitudeMeters>
            <DistanceMeters>26952.708768875</DistanceMeters>
          </Trackpoint>
          <Trackpoint>
            <Time>2018-04-21T09:35:56.000Z</Time>
            <Position>
              <LatitudeDegrees>43.2074678130447864532470703125</LatitudeDegrees>
              <LongitudeDegrees>-8.339819647371768951416015625</LongitudeDegrees>
            </Position>
            <AltitudeMeters>162.8000030517578125</AltitudeMeters>
            <DistanceMeters>26962.697428176</DistanceMeters>
          </Trackpoint>
          <Trackpoint>
            <Time>2018-04-21T09:35:59.000Z</Time>
            <Position>
              <LatitudeDegrees>43.20743436925113201141357421875</LatitudeDegrees>
              <LongitudeDegrees>-8.33989265374839305877685546875</LongitudeDegrees>
            </Position>
            <AltitudeMeters>163.399993896484375</AltitudeMeters>
            <DistanceMeters>26969.693356587</DistanceMeters>
          </Trackpoint>
          <Trackpoint>
            <Time>2018-04-21T09:36:01.000Z</Time>
            <Position>
              <LatitudeDegrees>43.20741442032158374786376953125</LatitudeDegrees>
              <LongitudeDegrees>-8.3399381674826145172119140625</LongitudeDegrees>
            </Position>
            <AltitudeMeters>164</AltitudeMeters>
            <DistanceMeters>26974.002165838</DistanceMeters>
          </Trackpoint>
          <Trackpoint>
            <Time>2018-04-21T09:36:04.000Z</Time>
            <Position>
              <LatitudeDegrees>43.2073632068932056427001953125</LatitudeDegrees>
              <LongitudeDegrees>-8.33999407477676868438720703125</LongitudeDegrees>
            </Position>
            <AltitudeMeters>164.399993896484375</AltitudeMeters>
            <DistanceMeters>26981.286445431</DistanceMeters>
          </Trackpoint>
          <Trackpoint>
            <Time>2018-04-21T09:36:10.000Z</Time>
            <Position>
              <LatitudeDegrees>43.20726840756833553314208984375</LatitudeDegrees>
              <LongitudeDegrees>-8.3401366509497165679931640625</LongitudeDegrees>
            </Position>
            <AltitudeMeters>165.399993896484375</AltitudeMeters>
            <DistanceMeters>26996.942511188</DistanceMeters>
          </Trackpoint>
          <Trackpoint>
            <Time>2018-04-21T09:36:11.000Z</Time>
            <Position>
              <LatitudeDegrees>43.20724996738135814666748046875</LatitudeDegrees>
              <LongitudeDegrees>-8.3401607908308506011962890625</LongitudeDegrees>
            </Position>
            <AltitudeMeters>165.600006103515625</AltitudeMeters>
            <DistanceMeters>26999.777430594</DistanceMeters>
          </Trackpoint>
          <Trackpoint>
            <Time>2018-04-21T09:36:16.000Z</Time>
            <Position>
              <LatitudeDegrees>43.207164891064167022705078125</LatitudeDegrees>
              <LongitudeDegrees>-8.34027822129428386688232421875</LongitudeDegrees>
            </Position>
            <AltitudeMeters>166.600006103515625</AltitudeMeters>
            <DistanceMeters>27013.209852469</DistanceMeters>
          </Trackpoint>
          <Trackpoint>
            <Time>2018-04-21T09:36:19.000Z</Time>
            <Position>
              <LatitudeDegrees>43.207113929092884063720703125</LatitudeDegrees>
              <LongitudeDegrees>-8.3403488807380199432373046875</LongitudeDegrees>
            </Position>
            <AltitudeMeters>167</AltitudeMeters>
            <DistanceMeters>27021.274256387</DistanceMeters>
          </Trackpoint>
          <Trackpoint>
            <Time>2018-04-21T09:36:22.000Z</Time>
            <Position>
              <LatitudeDegrees>43.2070641405880451202392578125</LatitudeDegrees>
              <LongitudeDegrees>-8.340420462191104888916015625</LongitudeDegrees>
            </Position>
            <AltitudeMeters>167.600006103515625</AltitudeMeters>
            <DistanceMeters>27029.301061195</DistanceMeters>
          </Trackpoint>
          <Trackpoint>
            <Time>2018-04-21T09:36:28.000Z</Time>
            <Position>
              <LatitudeDegrees>43.2069662399590015411376953125</LatitudeDegrees>
              <LongitudeDegrees>-8.3405711688101291656494140625</LongitudeDegrees>
            </Position>
            <AltitudeMeters>168.8000030517578125</AltitudeMeters>
            <DistanceMeters>27045.678495689</DistanceMeters>
          </Trackpoint>
          <Trackpoint>
            <Time>2018-04-21T09:36:30.000Z</Time>
            <Position>
              <LatitudeDegrees>43.20692592300474643707275390625</LatitudeDegrees>
              <LongitudeDegrees>-8.34062338806688785552978515625</LongitudeDegrees>
            </Position>
            <AltitudeMeters>169.399993896484375</AltitudeMeters>
            <DistanceMeters>27051.849381554</DistanceMeters>
          </Trackpoint>
          <Trackpoint>
            <Time>2018-04-21T09:36:36.000Z</Time>
            <Position>
              <LatitudeDegrees>43.2068324647843837738037109375</LatitudeDegrees>
              <LongitudeDegrees>-8.34080376662313938140869140625</LongitudeDegrees>
            </Position>
            <AltitudeMeters>170</AltitudeMeters>
            <DistanceMeters>27069.803647591</DistanceMeters>
          </Trackpoint>
          <Trackpoint>
            <Time>2018-04-21T09:36:37.000Z</Time>
            <Position>
              <LatitudeDegrees>43.20681544952094554901123046875</LatitudeDegrees>
              <LongitudeDegrees>-8.3408310078084468841552734375</LongitudeDegrees>
            </Position>
            <AltitudeMeters>170.1999969482421875</AltitudeMeters>
            <DistanceMeters>27072.714010404</DistanceMeters>
          </Trackpoint>
          <Trackpoint>
            <Time>2018-04-21T09:36:43.000Z</Time>
            <Position>
              <LatitudeDegrees>43.20669877342879772186279296875</LatitudeDegrees>
              <LongitudeDegrees>-8.34100208245217800140380859375</LongitudeDegrees>
            </Position>
            <AltitudeMeters>170.8000030517578125</AltitudeMeters>
            <DistanceMeters>27091.721016172</DistanceMeters>
          </Trackpoint>
          <Trackpoint>
            <Time>2018-04-21T09:36:44.000Z</Time>
            <Position>
              <LatitudeDegrees>43.20668284781277179718017578125</LatitudeDegrees>
              <LongitudeDegrees>-8.34103544242680072784423828125</LongitudeDegrees>
            </Position>
            <AltitudeMeters>171</AltitudeMeters>
            <DistanceMeters>27094.957509441</DistanceMeters>
          </Trackpoint>
          <Trackpoint>
            <Time>2018-04-21T09:36:45.000Z</Time>
            <Position>
              <LatitudeDegrees>43.2066683471202850341796875</LatitudeDegrees>
              <LongitudeDegrees>-8.3410710655152797698974609375</LongitudeDegrees>
            </Position>
            <AltitudeMeters>171.399993896484375</AltitudeMeters>
            <DistanceMeters>27098.267114059</DistanceMeters>
          </Trackpoint>
          <Trackpoint>
            <Time>2018-04-21T09:36:48.000Z</Time>
            <Position>
              <LatitudeDegrees>43.206625767052173614501953125</LatitudeDegrees>
              <LongitudeDegrees>-8.3411444909870624542236328125</LongitudeDegrees>
            </Position>
            <AltitudeMeters>172.1999969482421875</AltitudeMeters>
            <DistanceMeters>27105.878747948</DistanceMeters>
          </Trackpoint>
          <Trackpoint>
            <Time>2018-04-21T09:36:51.000Z</Time>
            <Position>
              <LatitudeDegrees>43.20658855140209197998046875</LatitudeDegrees>
              <LongitudeDegrees>-8.3412081934511661529541015625</LongitudeDegrees>
            </Position>
            <AltitudeMeters>173</AltitudeMeters>
            <DistanceMeters>27112.502048588</DistanceMeters>
          </Trackpoint>
          <Trackpoint>
            <Time>2018-04-21T09:36:53.000Z</Time>
            <Position>
              <LatitudeDegrees>43.2065652497112751007080078125</LatitudeDegrees>
              <LongitudeDegrees>-8.34125990979373455047607421875</LongitudeDegrees>
            </Position>
            <AltitudeMeters>173.600006103515625</AltitudeMeters>
            <DistanceMeters>27117.434292087</DistanceMeters>
          </Trackpoint>
          <Trackpoint>
            <Time>2018-04-21T09:36:57.000Z</Time>
            <Position>
              <LatitudeDegrees>43.2064998708665370941162109375</LatitudeDegrees>
              <LongitudeDegrees>-8.3413560502231121063232421875</LongitudeDegrees>
            </Position>
            <AltitudeMeters>174.399993896484375</AltitudeMeters>
            <DistanceMeters>27128.101860852</DistanceMeters>
          </Trackpoint>
          <Trackpoint>
            <Time>2018-04-21T09:36:59.000Z</Time>
            <Position>
              <LatitudeDegrees>43.20646441541612148284912109375</LatitudeDegrees>
              <LongitudeDegrees>-8.34140558727085590362548828125</LongitudeDegrees>
            </Position>
            <AltitudeMeters>174.600006103515625</AltitudeMeters>
            <DistanceMeters>27133.73334631</DistanceMeters>
          </Trackpoint>
          <Trackpoint>
            <Time>2018-04-21T09:37:04.000Z</Time>
            <Position>
              <LatitudeDegrees>43.2063761539757251739501953125</LatitudeDegrees>
              <LongitudeDegrees>-8.34153525531291961669921875</LongitudeDegrees>
            </Position>
            <AltitudeMeters>175.8000030517578125</AltitudeMeters>
            <DistanceMeters>27148.126364885</DistanceMeters>
          </Trackpoint>
          <Trackpoint>
            <Time>2018-04-21T09:37:05.000Z</Time>
            <Position>
              <LatitudeDegrees>43.20635654032230377197265625</LatitudeDegrees>
              <LongitudeDegrees>-8.34156216122210025787353515625</LongitudeDegrees>
            </Position>
            <AltitudeMeters>176</AltitudeMeters>
            <DistanceMeters>27151.214367594</DistanceMeters>
          </Trackpoint>
          <Trackpoint>
            <Time>2018-04-21T09:37:09.000Z</Time>
            <Position>
              <LatitudeDegrees>43.20628487505018711090087890625</LatitudeDegrees>
              <LongitudeDegrees>-8.34166743792593479156494140625</LongitudeDegrees>
            </Position>
            <AltitudeMeters>177.1999969482421875</AltitudeMeters>
            <DistanceMeters>27162.901108209</DistanceMeters>
          </Trackpoint>
          <Trackpoint>
            <Time>2018-04-21T09:37:13.000Z</Time>
            <Position>
              <LatitudeDegrees>43.2062192447483539581298828125</LatitudeDegrees>
              <LongitudeDegrees>-8.34177975542843341827392578125</LongitudeDegrees>
            </Position>
            <AltitudeMeters>177.8000030517578125</AltitudeMeters>
            <DistanceMeters>27174.580119498</DistanceMeters>
          </Trackpoint>
          <Trackpoint>
            <Time>2018-04-21T09:37:15.000Z</Time>
            <Position>
              <LatitudeDegrees>43.20618479512631893157958984375</LatitudeDegrees>
              <LongitudeDegrees>-8.34184127859771251678466796875</LongitudeDegrees>
            </Position>
            <AltitudeMeters>178.1999969482421875</AltitudeMeters>
            <DistanceMeters>27180.874159962</DistanceMeters>
          </Trackpoint>
          <Trackpoint>
            <Time>2018-04-21T09:37:20.000Z</Time>
            <Position>
              <LatitudeDegrees>43.206082619726657867431640625</LatitudeDegrees>
              <LongitudeDegrees>-8.34198192693293094635009765625</LongitudeDegrees>
            </Position>
            <AltitudeMeters>179.1999969482421875</AltitudeMeters>
            <DistanceMeters>27196.983920885</DistanceMeters>
          </Trackpoint>
          <Trackpoint>
            <Time>2018-04-21T09:37:21.000Z</Time>
            <Position>
              <LatitudeDegrees>43.20606158114969730377197265625</LatitudeDegrees>
              <LongitudeDegrees>-8.342004306614398956298828125</LongitudeDegrees>
            </Position>
            <AltitudeMeters>179.399993896484375</AltitudeMeters>
            <DistanceMeters>27199.946560637</DistanceMeters>
          </Trackpoint>
          <Trackpoint>
            <Time>2018-04-21T09:37:27.000Z</Time>
            <Position>
              <LatitudeDegrees>43.20595094002783298492431640625</LatitudeDegrees>
              <LongitudeDegrees>-8.34215677343308925628662109375</LongitudeDegrees>
            </Position>
            <AltitudeMeters>180.399993896484375</AltitudeMeters>
            <DistanceMeters>27217.400978962</DistanceMeters>
          </Trackpoint>
          <Trackpoint>
            <Time>2018-04-21T09:37:28.000Z</Time>
            <Position>
              <LatitudeDegrees>43.20593803189694881439208984375</LatitudeDegrees>
              <LongitudeDegrees>-8.34217906929552555084228515625</LongitudeDegrees>
            </Position>
            <AltitudeMeters>180.600006103515625</AltitudeMeters>
            <DistanceMeters>27219.7111251</DistanceMeters>
          </Trackpoint>
          <Trackpoint>
            <Time>2018-04-21T09:37:33.000Z</Time>
            <Position>
              <LatitudeDegrees>43.205867372453212738037109375</LatitudeDegrees>
              <LongitudeDegrees>-8.342300355434417724609375</LongitudeDegrees>
            </Position>
            <AltitudeMeters>181.399993896484375</AltitudeMeters>
            <DistanceMeters>27232.307452867</DistanceMeters>
          </Trackpoint>
          <Trackpoint>
            <Time>2018-04-21T09:37:35.000Z</Time>
            <Position>
              <LatitudeDegrees>43.20583526976406574249267578125</LatitudeDegrees>
              <LongitudeDegrees>-8.34235089831054210662841796875</LongitudeDegrees>
            </Position>
            <AltitudeMeters>181.8000030517578125</AltitudeMeters>
            <DistanceMeters>27237.746435348</DistanceMeters>
          </Trackpoint>
          <Trackpoint>
            <Time>2018-04-21T09:37:39.000Z</Time>
            <Position>
              <LatitudeDegrees>43.2057783566415309906005859375</LatitudeDegrees>
              <LongitudeDegrees>-8.3424532413482666015625</LongitudeDegrees>
            </Position>
            <AltitudeMeters>182.600006103515625</AltitudeMeters>
            <DistanceMeters>27248.189866934</DistanceMeters>
          </Trackpoint>
          <Trackpoint>
            <Time>2018-04-21T09:37:41.000Z</Time>
            <Position>
              <LatitudeDegrees>43.20574700832366943359375</LatitudeDegrees>
              <LongitudeDegrees>-8.34249607287347316741943359375</LongitudeDegrees>
            </Position>
            <AltitudeMeters>183</AltitudeMeters>
            <DistanceMeters>27253.113864827</DistanceMeters>
          </Trackpoint>
          <Trackpoint>
            <Time>2018-04-21T09:37:43.000Z</Time>
            <Position>
              <LatitudeDegrees>43.205711133778095245361328125</LatitudeDegrees>
              <LongitudeDegrees>-8.34255449473857879638671875</LongitudeDegrees>
            </Position>
            <AltitudeMeters>183.600006103515625</AltitudeMeters>
            <DistanceMeters>27259.311034755</DistanceMeters>
          </Trackpoint>
          <Trackpoint>
            <Time>2018-04-21T09:37:47.000Z</Time>
            <Position>
              <LatitudeDegrees>43.20566260255873203277587890625</LatitudeDegrees>
              <LongitudeDegrees>-8.34268483333289623260498046875</LongitudeDegrees>
            </Position>
            <AltitudeMeters>184.1999969482421875</AltitudeMeters>
            <DistanceMeters>27271.184431634</DistanceMeters>
          </Trackpoint>
          <Trackpoint>
            <Time>2018-04-21T09:37:50.000Z</Time>
            <Position>
              <LatitudeDegrees>43.2056061923503875732421875</LatitudeDegrees>
              <LongitudeDegrees>-8.3427722565829753875732421875</LongitudeDegrees>
            </Position>
            <AltitudeMeters>184.8000030517578125</AltitudeMeters>
            <DistanceMeters>27280.656645712</DistanceMeters>
          </Trackpoint>
          <Trackpoint>
            <Time>2018-04-21T09:37:53.000Z</Time>
            <Position>
              <LatitudeDegrees>43.20554123260080814361572265625</LatitudeDegrees>
              <LongitudeDegrees>-8.34285263903439044952392578125</LongitudeDegrees>
            </Position>
            <AltitudeMeters>185.1999969482421875</AltitudeMeters>
            <DistanceMeters>27290.393058938</DistanceMeters>
          </Trackpoint>
          <Trackpoint>
            <Time>2018-04-21T09:37:57.000Z</Time>
            <Position>
              <LatitudeDegrees>43.20545674301683902740478515625</LatitudeDegrees>
              <LongitudeDegrees>-8.34296294488012790679931640625</LongitudeDegrees>
            </Position>
            <AltitudeMeters>186</AltitudeMeters>
            <DistanceMeters>27303.374556795</DistanceMeters>
          </Trackpoint>
          <Trackpoint>
            <Time>2018-04-21T09:38:01.000Z</Time>
            <Position>
              <LatitudeDegrees>43.20537577383220195770263671875</LatitudeDegrees>
              <LongitudeDegrees>-8.34306403063237667083740234375</LongitudeDegrees>
            </Position>
            <AltitudeMeters>187</AltitudeMeters>
            <DistanceMeters>27315.559486704</DistanceMeters>
          </Trackpoint>
          <Trackpoint>
            <Time>2018-04-21T09:38:02.000Z</Time>
            <Position>
              <LatitudeDegrees>43.20535448379814624786376953125</LatitudeDegrees>
              <LongitudeDegrees>-8.34309068508446216583251953125</LongitudeDegrees>
            </Position>
            <AltitudeMeters>187</AltitudeMeters>
            <DistanceMeters>27318.766550325</DistanceMeters>
          </Trackpoint>
          <Trackpoint>
            <Time>2018-04-21T09:38:09.000Z</Time>
            <Position>
              <LatitudeDegrees>43.20515717379748821258544921875</LatitudeDegrees>
              <LongitudeDegrees>-8.34323083050549030303955078125</LongitudeDegrees>
            </Position>
            <AltitudeMeters>188.1999969482421875</AltitudeMeters>
            <DistanceMeters>27343.496145896</DistanceMeters>
          </Trackpoint>
          <Trackpoint>
            <Time>2018-04-21T09:38:10.000Z</Time>
            <Position>
              <LatitudeDegrees>43.20512674748897552490234375</LatitudeDegrees>
              <LongitudeDegrees>-8.34324625320732593536376953125</LongitudeDegrees>
            </Position>
            <AltitudeMeters>188</AltitudeMeters>
            <DistanceMeters>27347.105910474</DistanceMeters>
          </Trackpoint>
          <Trackpoint>
            <Time>2018-04-21T09:38:18.000Z</Time>
            <Position>
              <LatitudeDegrees>43.20485777221620082855224609375</LatitudeDegrees>
              <LongitudeDegrees>-8.34336896426975727081298828125</LongitudeDegrees>
            </Position>
            <AltitudeMeters>188.600006103515625</AltitudeMeters>
            <DistanceMeters>27378.655352089</DistanceMeters>
          </Trackpoint>
          <Trackpoint>
            <Time>2018-04-21T09:38:23.000Z</Time>
            <Position>
              <LatitudeDegrees>43.20466800592839717864990234375</LatitudeDegrees>
              <LongitudeDegrees>-8.343453705310821533203125</LongitudeDegrees>
            </Position>
            <AltitudeMeters>189.8000030517578125</AltitudeMeters>
            <DistanceMeters>27400.867630603</DistanceMeters>
          </Trackpoint>
          <Trackpoint>
            <Time>2018-04-21T09:38:26.000Z</Time>
            <Position>
              <LatitudeDegrees>43.20455434732139110565185546875</LatitudeDegrees>
              <LongitudeDegrees>-8.34351078607141971588134765625</LongitudeDegrees>
            </Position>
            <AltitudeMeters>189</AltitudeMeters>
            <DistanceMeters>27414.33932227</DistanceMeters>
          </Trackpoint>
          <Trackpoint>
            <Time>2018-04-21T09:38:27.000Z</Time>
            <Position>
              <LatitudeDegrees>43.20451411418616771697998046875</LatitudeDegrees>
              <LongitudeDegrees>-8.34352436475455760955810546875</LongitudeDegrees>
            </Position>
            <AltitudeMeters>188.1999969482421875</AltitudeMeters>
            <DistanceMeters>27418.951790167</DistanceMeters>
          </Trackpoint>
          <Trackpoint>
            <Time>2018-04-21T09:38:28.000Z</Time>
            <Position>
              <LatitudeDegrees>43.20447606034576892852783203125</LatitudeDegrees>
              <LongitudeDegrees>-8.34354029037058353424072265625</LongitudeDegrees>
            </Position>
            <AltitudeMeters>189.8000030517578125</AltitudeMeters>
            <DistanceMeters>27423.380483658</DistanceMeters>
          </Trackpoint>
          <Trackpoint>
            <Time>2018-04-21T09:38:33.000Z</Time>
            <Position>
              <LatitudeDegrees>43.2043106853961944580078125</LatitudeDegrees>
              <LongitudeDegrees>-8.3436671085655689239501953125</LongitudeDegrees>
            </Position>
            <AltitudeMeters>189.8000030517578125</AltitudeMeters>
            <DistanceMeters>27444.467423318</DistanceMeters>
          </Trackpoint>
          <Trackpoint>
            <Time>2018-04-21T09:38:39.000Z</Time>
            <Position>
              <LatitudeDegrees>43.204131983220577239990234375</LatitudeDegrees>
              <LongitudeDegrees>-8.3438759855926036834716796875</LongitudeDegrees>
            </Position>
            <AltitudeMeters>190.399993896484375</AltitudeMeters>
            <DistanceMeters>27470.597523588</DistanceMeters>
          </Trackpoint>
          <Trackpoint>
            <Time>2018-04-21T09:38:41.000Z</Time>
            <Position>
              <LatitudeDegrees>43.2040751539170742034912109375</LatitudeDegrees>
              <LongitudeDegrees>-8.343938179314136505126953125</LongitudeDegrees>
            </Position>
            <AltitudeMeters>191.1999969482421875</AltitudeMeters>
            <DistanceMeters>27478.688756758</DistanceMeters>
          </Trackpoint>
          <Trackpoint>
            <Time>2018-04-21T09:38:46.000Z</Time>
            <Position>
              <LatitudeDegrees>43.20392956025898456573486328125</LatitudeDegrees>
              <LongitudeDegrees>-8.3440800011157989501953125</LongitudeDegrees>
            </Position>
            <AltitudeMeters>192.600006103515625</AltitudeMeters>
            <DistanceMeters>27498.562975579</DistanceMeters>
          </Trackpoint>
          <Trackpoint>
            <Time>2018-04-21T09:38:48.000Z</Time>
            <Position>
              <LatitudeDegrees>43.203871138393878936767578125</LatitudeDegrees>
              <LongitudeDegrees>-8.34413054399192333221435546875</LongitudeDegrees>
            </Position>
            <AltitudeMeters>192.8000030517578125</AltitudeMeters>
            <DistanceMeters>27506.250748359</DistanceMeters>
          </Trackpoint>
          <Trackpoint>
            <Time>2018-04-21T09:38:52.000Z</Time>
            <Position>
              <LatitudeDegrees>43.20376292802393436431884765625</LatitudeDegrees>
              <LongitudeDegrees>-8.34425761364400386810302734375</LongitudeDegrees>
            </Position>
            <AltitudeMeters>193.8000030517578125</AltitudeMeters>
            <DistanceMeters>27522.103984231</DistanceMeters>
          </Trackpoint>
          <Trackpoint>
            <Time>2018-04-21T09:38:55.000Z</Time>
            <Position>
              <LatitudeDegrees>43.203691430389881134033203125</LatitudeDegrees>
              <LongitudeDegrees>-8.344360291957855224609375</LongitudeDegrees>
            </Position>
            <AltitudeMeters>194.1999969482421875</AltitudeMeters>
            <DistanceMeters>27533.624577252</DistanceMeters>
          </Trackpoint>
          <Trackpoint>
            <Time>2018-04-21T09:38:57.000Z</Time>
            <Position>
              <LatitudeDegrees>43.2036562263965606689453125</LatitudeDegrees>
              <LongitudeDegrees>-8.34443447180092334747314453125</LongitudeDegrees>
            </Position>
            <AltitudeMeters>194.8000030517578125</AltitudeMeters>
            <DistanceMeters>27540.806484843</DistanceMeters>
          </Trackpoint>
          <Trackpoint>
            <Time>2018-04-21T09:39:01.000Z</Time>
            <Position>
              <LatitudeDegrees>43.20360065437853336334228515625</LatitudeDegrees>
              <LongitudeDegrees>-8.34456338547170162200927734375</LongitudeDegrees>
            </Position>
            <AltitudeMeters>195.8000030517578125</AltitudeMeters>
            <DistanceMeters>27552.958020138</DistanceMeters>
          </Trackpoint>
          <Trackpoint>
            <Time>2018-04-21T09:39:02.000Z</Time>
            <Position>
              <LatitudeDegrees>43.20358808152377605438232421875</LatitudeDegrees>
              <LongitudeDegrees>-8.34459641017019748687744140625</LongitudeDegrees>
            </Position>
            <AltitudeMeters>196.399993896484375</AltitudeMeters>
            <DistanceMeters>27555.981004981</DistanceMeters>
          </Trackpoint>
          <Trackpoint>
            <Time>2018-04-21T09:39:04.000Z</Time>
            <Position>
              <LatitudeDegrees>43.20355723612010478973388671875</LatitudeDegrees>
              <LongitudeDegrees>-8.34466463886201381683349609375</LongitudeDegrees>
            </Position>
            <AltitudeMeters>197</AltitudeMeters>
            <DistanceMeters>27562.494322042</DistanceMeters>
          </Trackpoint>
          <Trackpoint>
            <Time>2018-04-21T09:39:06.000Z</Time>
            <Position>
              <LatitudeDegrees>43.2035274803638458251953125</LatitudeDegrees>
              <LongitudeDegrees>-8.34473404102027416229248046875</LongitudeDegrees>
            </Position>
            <AltitudeMeters>197.399993896484375</AltitudeMeters>
            <DistanceMeters>27569.027019897</DistanceMeters>
          </Trackpoint>
          <Trackpoint>
            <Time>2018-04-21T09:39:08.000Z</Time>
            <Position>
              <LatitudeDegrees>43.2034904323518276214599609375</LatitudeDegrees>
              <LongitudeDegrees>-8.34480344317853450775146484375</LongitudeDegrees>
            </Position>
            <AltitudeMeters>198</AltitudeMeters>
            <DistanceMeters>27576.006148234</DistanceMeters>
          </Trackpoint>
          <Trackpoint>
            <Time>2018-04-21T09:39:09.000Z</Time>
            <Position>
              <LatitudeDegrees>43.2034686394035816192626953125</LatitudeDegrees>
              <LongitudeDegrees>-8.34484241902828216552734375</LongitudeDegrees>
            </Position>
            <AltitudeMeters>198.600006103515625</AltitudeMeters>
            <DistanceMeters>27579.991609872</DistanceMeters>
          </Trackpoint>
          <Trackpoint>
            <Time>2018-04-21T09:39:12.000Z</Time>
            <Position>
              <LatitudeDegrees>43.20338733494281768798828125</LatitudeDegrees>
              <LongitudeDegrees>-8.34495834074914455413818359375</LongitudeDegrees>
            </Position>
            <AltitudeMeters>198.8000030517578125</AltitudeMeters>
            <DistanceMeters>27593.043175373</DistanceMeters>
          </Trackpoint>
          <Trackpoint>
            <Time>2018-04-21T09:39:15.000Z</Time>
            <Position>
              <LatitudeDegrees>43.2032889313995838165283203125</LatitudeDegrees>
              <LongitudeDegrees>-8.34506898187100887298583984375</LongitudeDegrees>
            </Position>
            <AltitudeMeters>198.8000030517578125</AltitudeMeters>
            <DistanceMeters>27607.204387809</DistanceMeters>
          </Trackpoint>
          <Trackpoint>
            <Time>2018-04-21T09:39:19.000Z</Time>
            <Position>
              <LatitudeDegrees>43.20317116566002368927001953125</LatitudeDegrees>
              <LongitudeDegrees>-8.3452248014509677886962890625</LongitudeDegrees>
            </Position>
            <AltitudeMeters>198.399993896484375</AltitudeMeters>
            <DistanceMeters>27625.414838856</DistanceMeters>
          </Trackpoint>
          <Trackpoint>
            <Time>2018-04-21T09:39:22.000Z</Time>
            <Position>
              <LatitudeDegrees>43.20306924171745777130126953125</LatitudeDegrees>
              <LongitudeDegrees>-8.34532379172742366790771484375</LongitudeDegrees>
            </Position>
            <AltitudeMeters>198.8000030517578125</AltitudeMeters>
            <DistanceMeters>27639.314099824</DistanceMeters>
          </Trackpoint>
          <Trackpoint>
            <Time>2018-04-21T09:39:23.000Z</Time>
            <Position>
              <LatitudeDegrees>43.20303353480994701385498046875</LatitudeDegrees>
              <LongitudeDegrees>-8.34534558467566967010498046875</LongitudeDegrees>
            </Position>
            <AltitudeMeters>199.1999969482421875</AltitudeMeters>
            <DistanceMeters>27643.664621657</DistanceMeters>
          </Trackpoint>
          <Trackpoint>
            <Time>2018-04-21T09:39:25.000Z</Time>
            <Position>
              <LatitudeDegrees>43.202967904508113861083984375</LatitudeDegrees>
              <LongitudeDegrees>-8.34537844173610210418701171875</LongitudeDegrees>
            </Position>
            <AltitudeMeters>200.399993896484375</AltitudeMeters>
            <DistanceMeters>27651.440571237</DistanceMeters>
          </Trackpoint>
          <Trackpoint>
            <Time>2018-04-21T09:39:28.000Z</Time>
            <Position>
              <LatitudeDegrees>43.2028792239725589752197265625</LatitudeDegrees>
              <LongitudeDegrees>-8.34543342702090740203857421875</LongitudeDegrees>
            </Position>
            <AltitudeMeters>200.600006103515625</AltitudeMeters>
            <DistanceMeters>27662.271949412</DistanceMeters>
          </Trackpoint>
          <Trackpoint>
            <Time>2018-04-21T09:39:33.000Z</Time>
            <Position>
              <LatitudeDegrees>43.20276900194585323333740234375</LatitudeDegrees>
              <LongitudeDegrees>-8.34562830626964569091796875</LongitudeDegrees>
            </Position>
            <AltitudeMeters>200.8000030517578125</AltitudeMeters>
            <DistanceMeters>27682.284268627</DistanceMeters>
          </Trackpoint>
          <Trackpoint>
            <Time>2018-04-21T09:39:36.000Z</Time>
            <Position>
              <LatitudeDegrees>43.202687613666057586669921875</LatitudeDegrees>
              <LongitudeDegrees>-8.34573081694543361663818359375</LongitudeDegrees>
            </Position>
            <AltitudeMeters>201.399993896484375</AltitudeMeters>
            <DistanceMeters>27694.582061936</DistanceMeters>
          </Trackpoint>
          <Trackpoint>
            <Time>2018-04-21T09:39:39.000Z</Time>
            <Position>
              <LatitudeDegrees>43.2026009447872638702392578125</LatitudeDegrees>
              <LongitudeDegrees>-8.34579368121922016143798828125</LongitudeDegrees>
            </Position>
            <AltitudeMeters>201.600006103515625</AltitudeMeters>
            <DistanceMeters>27705.494008967</DistanceMeters>
          </Trackpoint>
          <Trackpoint>
            <Time>2018-04-21T09:39:44.000Z</Time>
            <Position>
              <LatitudeDegrees>43.202466331422328948974609375</LatitudeDegrees>
              <LongitudeDegrees>-8.34584749303758144378662109375</LongitudeDegrees>
            </Position>
            <AltitudeMeters>202.600006103515625</AltitudeMeters>
            <DistanceMeters>27721.099814351</DistanceMeters>
          </Trackpoint>
          <Trackpoint>
            <Time>2018-04-21T09:39:45.000Z</Time>
            <Position>
              <LatitudeDegrees>43.20244261063635349273681640625</LatitudeDegrees>
              <LongitudeDegrees>-8.34585906006395816802978515625</LongitudeDegrees>
            </Position>
            <AltitudeMeters>203</AltitudeMeters>
            <DistanceMeters>27723.90269974</DistanceMeters>
          </Trackpoint>
          <Trackpoint>
            <Time>2018-04-21T09:39:48.000Z</Time>
            <Position>
              <LatitudeDegrees>43.2023732922971248626708984375</LatitudeDegrees>
              <LongitudeDegrees>-8.3458832837641239166259765625</LongitudeDegrees>
            </Position>
            <AltitudeMeters>203.8000030517578125</AltitudeMeters>
            <DistanceMeters>27731.864554841</DistanceMeters>
          </Trackpoint>
          <Trackpoint>
            <Time>2018-04-21T09:39:52.000Z</Time>
            <Position>
              <LatitudeDegrees>43.202285952866077423095703125</LatitudeDegrees>
              <LongitudeDegrees>-8.3458896540105342864990234375</LongitudeDegrees>
            </Position>
            <AltitudeMeters>205</AltitudeMeters>
            <DistanceMeters>27741.599576786</DistanceMeters>
          </Trackpoint>
          <Trackpoint>
            <Time>2018-04-21T09:39:53.000Z</Time>
            <Position>
              <LatitudeDegrees>43.202269189059734344482421875</LatitudeDegrees>
              <LongitudeDegrees>-8.34589250385761260986328125</LongitudeDegrees>
            </Position>
            <AltitudeMeters>205.399993896484375</AltitudeMeters>
            <DistanceMeters>27743.478608422</DistanceMeters>
          </Trackpoint>
          <Trackpoint>
            <Time>2018-04-21T09:39:57.000Z</Time>
            <Position>
              <LatitudeDegrees>43.2021966017782688140869140625</LatitudeDegrees>
              <LongitudeDegrees>-8.345891498029232025146484375</LongitudeDegrees>
            </Position>
            <AltitudeMeters>206.1999969482421875</AltitudeMeters>
            <DistanceMeters>27751.558673564</DistanceMeters>
          </Trackpoint>
          <Trackpoint>
            <Time>2018-04-21T09:39:59.000Z</Time>
            <Position>
              <LatitudeDegrees>43.202162571251392364501953125</LatitudeDegrees>
              <LongitudeDegrees>-8.34590666927397251129150390625</LongitudeDegrees>
            </Position>
            <AltitudeMeters>206.600006103515625</AltitudeMeters>
            <DistanceMeters>27755.541868803</DistanceMeters>
          </Trackpoint>
          <Trackpoint>
            <Time>2018-04-21T09:40:02.000Z</Time>
            <Position>
              <LatitudeDegrees>43.202101550996303558349609375</LatitudeDegrees>
              <LongitudeDegrees>-8.34591387771070003509521484375</LongitudeDegrees>
            </Position>
            <AltitudeMeters>207.399993896484375</AltitudeMeters>
            <DistanceMeters>27762.35866962</DistanceMeters>
          </Trackpoint>
          <Trackpoint>
            <Time>2018-04-21T09:40:05.000Z</Time>
            <Position>
              <LatitudeDegrees>43.20205025374889373779296875</LatitudeDegrees>
              <LongitudeDegrees>-8.3459396101534366607666015625</LongitudeDegrees>
            </Position>
            <AltitudeMeters>208.1999969482421875</AltitudeMeters>
            <DistanceMeters>27768.437409029</DistanceMeters>
          </Trackpoint>
          <Trackpoint>
            <Time>2018-04-21T09:40:06.000Z</Time>
            <Position>
              <LatitudeDegrees>43.20203281939029693603515625</LatitudeDegrees>
              <LongitudeDegrees>-8.3459468185901641845703125</LongitudeDegrees>
            </Position>
            <AltitudeMeters>208.600006103515625</AltitudeMeters>
            <DistanceMeters>27770.464398122</DistanceMeters>
          </Trackpoint>
          <Trackpoint>
            <Time>2018-04-21T09:40:10.000Z</Time>
            <Position>
              <LatitudeDegrees>43.2019612379372119903564453125</LatitudeDegrees>
              <LongitudeDegrees>-8.3459731377661228179931640625</LongitudeDegrees>
            </Position>
            <AltitudeMeters>209.8000030517578125</AltitudeMeters>
            <DistanceMeters>27778.712585555</DistanceMeters>
          </Trackpoint>
          <Trackpoint>
            <Time>2018-04-21T09:40:13.000Z</Time>
            <Position>
              <LatitudeDegrees>43.20191069506108760833740234375</LatitudeDegrees>
              <LongitudeDegrees>-8.3460106886923313140869140625</LongitudeDegrees>
            </Position>
            <AltitudeMeters>210.8000030517578125</AltitudeMeters>
            <DistanceMeters>27785.109796388</DistanceMeters>
          </Trackpoint>
          <Trackpoint>
            <Time>2018-04-21T09:40:14.000Z</Time>
            <Position>
              <LatitudeDegrees>43.20189577527344226837158203125</LatitudeDegrees>
              <LongitudeDegrees>-8.3460204117000102996826171875</LongitudeDegrees>
            </Position>
            <AltitudeMeters>211</AltitudeMeters>
            <DistanceMeters>27786.947525582</DistanceMeters>
          </Trackpoint>
          <Trackpoint>
            <Time>2018-04-21T09:40:18.000Z</Time>
            <Position>
              <LatitudeDegrees>43.20183307863771915435791015625</LatitudeDegrees>
              <LongitudeDegrees>-8.34604497067630290985107421875</LongitudeDegrees>
            </Position>
            <AltitudeMeters>212</AltitudeMeters>
            <DistanceMeters>27794.204481268</DistanceMeters>
          </Trackpoint>
          <Trackpoint>
            <Time>2018-04-21T09:40:21.000Z</Time>
            <Position>
              <LatitudeDegrees>43.2017872296273708343505859375</LatitudeDegrees>
              <LongitudeDegrees>-8.34605452604591846466064453125</LongitudeDegrees>
            </Position>
            <AltitudeMeters>213</AltitudeMeters>
            <DistanceMeters>27799.365752963</DistanceMeters>
          </Trackpoint>
          <Trackpoint>
            <Time>2018-04-21T09:40:22.000Z</Time>
            <Position>
              <LatitudeDegrees>43.20177407003939151763916015625</LatitudeDegrees>
              <LongitudeDegrees>-8.34605670534074306488037109375</LongitudeDegrees>
            </Position>
            <AltitudeMeters>213.1999969482421875</AltitudeMeters>
            <DistanceMeters>27800.844021713</DistanceMeters>
          </Trackpoint>
          <Trackpoint>
            <Time>2018-04-21T09:40:26.000Z</Time>
            <Position>
              <LatitudeDegrees>43.20170533843338489532470703125</LatitudeDegrees>
              <LongitudeDegrees>-8.346081934869289398193359375</LongitudeDegrees>
            </Position>
            <AltitudeMeters>214</AltitudeMeters>
            <DistanceMeters>27808.763231327</DistanceMeters>
          </Trackpoint>
          <Trackpoint>
            <Time>2018-04-21T09:40:28.000Z</Time>
            <Position>
              <LatitudeDegrees>43.20167876780033111572265625</LatitudeDegrees>
              <LongitudeDegrees>-8.3460891433060169219970703125</LongitudeDegrees>
            </Position>
            <AltitudeMeters>214.399993896484375</AltitudeMeters>
            <DistanceMeters>27811.77724143</DistanceMeters>
          </Trackpoint>
          <Trackpoint>
            <Time>2018-04-21T09:40:32.000Z</Time>
            <Position>
              <LatitudeDegrees>43.20160056464374065399169921875</LatitudeDegrees>
              <LongitudeDegrees>-8.34609341807663440704345703125</LongitudeDegrees>
            </Position>
            <AltitudeMeters>215.1999969482421875</AltitudeMeters>
            <DistanceMeters>27820.487620428</DistanceMeters>
          </Trackpoint>
          <Trackpoint>
            <Time>2018-04-21T09:40:35.000Z</Time>
            <Position>
              <LatitudeDegrees>43.2015525363385677337646484375</LatitudeDegrees>
              <LongitudeDegrees>-8.34610867314040660858154296875</LongitudeDegrees>
            </Position>
            <AltitudeMeters>216.1999969482421875</AltitudeMeters>
            <DistanceMeters>27825.974538949</DistanceMeters>
          </Trackpoint>
          <Trackpoint>
            <Time>2018-04-21T09:40:40.000Z</Time>
            <Position>
              <LatitudeDegrees>43.20146360434591770172119140625</LatitudeDegrees>
              <LongitudeDegrees>-8.34611068479716777801513671875</LongitudeDegrees>
            </Position>
            <AltitudeMeters>217.1999969482421875</AltitudeMeters>
            <DistanceMeters>27835.874662672</DistanceMeters>
          </Trackpoint>
          <Trackpoint>
            <Time>2018-04-21T09:40:44.000Z</Time>
            <Position>
              <LatitudeDegrees>43.20139353163540363311767578125</LatitudeDegrees>
              <LongitudeDegrees>-8.34613968618214130401611328125</LongitudeDegrees>
            </Position>
            <AltitudeMeters>218.1999969482421875</AltitudeMeters>
            <DistanceMeters>27844.020952121</DistanceMeters>
          </Trackpoint>
          <Trackpoint>
            <Time>2018-04-21T09:40:45.000Z</Time>
            <Position>
              <LatitudeDegrees>43.2013736665248870849609375</LatitudeDegrees>
              <LongitudeDegrees>-8.34614454768598079681396484375</LongitudeDegrees>
            </Position>
            <AltitudeMeters>218.1999969482421875</AltitudeMeters>
            <DistanceMeters>27846.265675413</DistanceMeters>
          </Trackpoint>
          <Trackpoint>
            <Time>2018-04-21T09:40:51.000Z</Time>
            <Position>
              <LatitudeDegrees>43.201265037059783935546875</LatitudeDegrees>
              <LongitudeDegrees>-8.34618980996310710906982421875</LongitudeDegrees>
            </Position>
            <AltitudeMeters>219.1999969482421875</AltitudeMeters>
            <DistanceMeters>27858.901727473</DistanceMeters>
          </Trackpoint>
          <Trackpoint>
            <Time>2018-04-21T09:40:52.000Z</Time>
            <Position>
              <LatitudeDegrees>43.201251290738582611083984375</LatitudeDegrees>
              <LongitudeDegrees>-8.34619752131402492523193359375</LongitudeDegrees>
            </Position>
            <AltitudeMeters>219.600006103515625</AltitudeMeters>
            <DistanceMeters>27860.55584753</DistanceMeters>
          </Trackpoint>
          <Trackpoint>
            <Time>2018-04-21T09:40:56.000Z</Time>
            <Position>
              <LatitudeDegrees>43.2011864148080348968505859375</LatitudeDegrees>
              <LongitudeDegrees>-8.34622099064290523529052734375</LongitudeDegrees>
            </Position>
            <AltitudeMeters>220.8000030517578125</AltitudeMeters>
            <DistanceMeters>27868.023157758</DistanceMeters>
          </Trackpoint>
          <Trackpoint>
            <Time>2018-04-21T09:40:58.000Z</Time>
            <Position>
              <LatitudeDegrees>43.20115883834660053253173828125</LatitudeDegrees>
              <LongitudeDegrees>-8.34624445997178554534912109375</LongitudeDegrees>
            </Position>
            <AltitudeMeters>221</AltitudeMeters>
            <DistanceMeters>27871.634172904</DistanceMeters>
          </Trackpoint>
          <Trackpoint>
            <Time>2018-04-21T09:41:02.000Z</Time>
            <Position>
              <LatitudeDegrees>43.20110066793859004974365234375</LatitudeDegrees>
              <LongitudeDegrees>-8.346273712813854217529296875</LongitudeDegrees>
            </Position>
            <AltitudeMeters>222</AltitudeMeters>
            <DistanceMeters>27878.529996463</DistanceMeters>
          </Trackpoint>
          <Trackpoint>
            <Time>2018-04-21T09:41:05.000Z</Time>
            <Position>
              <LatitudeDegrees>43.2010586746037006378173828125</LatitudeDegrees>
              <LongitudeDegrees>-8.3463013730943202972412109375</LongitudeDegrees>
            </Position>
            <AltitudeMeters>222.8000030517578125</AltitudeMeters>
            <DistanceMeters>27883.71396285</DistanceMeters>
          </Trackpoint>
          <Trackpoint>
            <Time>2018-04-21T09:41:06.000Z</Time>
            <Position>
              <LatitudeDegrees>43.20104719139635562896728515625</LatitudeDegrees>
              <LongitudeDegrees>-8.3463089168071746826171875</LongitudeDegrees>
            </Position>
            <AltitudeMeters>223</AltitudeMeters>
            <DistanceMeters>27885.129829005</DistanceMeters>
          </Trackpoint>
          <Trackpoint>
            <Time>2018-04-21T09:41:12.000Z</Time>
            <Position>
              <LatitudeDegrees>43.20095431990921497344970703125</LatitudeDegrees>
              <LongitudeDegrees>-8.3463623933494091033935546875</LongitudeDegrees>
            </Position>
            <AltitudeMeters>224.1999969482421875</AltitudeMeters>
            <DistanceMeters>27896.340565107</DistanceMeters>
          </Trackpoint>
          <Trackpoint>
            <Time>2018-04-21T09:41:15.000Z</Time>
            <Position>
              <LatitudeDegrees>43.20091006346046924591064453125</LatitudeDegrees>
              <LongitudeDegrees>-8.346407823264598846435546875</LongitudeDegrees>
            </Position>
            <AltitudeMeters>225.1999969482421875</AltitudeMeters>
            <DistanceMeters>27902.49166422</DistanceMeters>
          </Trackpoint>
          <Trackpoint>
            <Time>2018-04-21T09:41:19.000Z</Time>
            <Position>
              <LatitudeDegrees>43.20085256360471248626708984375</LatitudeDegrees>
              <LongitudeDegrees>-8.3464395068585872650146484375</LongitudeDegrees>
            </Position>
            <AltitudeMeters>226</AltitudeMeters>
            <DistanceMeters>27909.388797154</DistanceMeters>
          </Trackpoint>
          <Trackpoint>
            <Time>2018-04-21T09:41:20.000Z</Time>
            <Position>
              <LatitudeDegrees>43.2008394040167331695556640625</LatitudeDegrees>
              <LongitudeDegrees>-8.34644629620015621185302734375</LongitudeDegrees>
            </Position>
            <AltitudeMeters>226.1999969482421875</AltitudeMeters>
            <DistanceMeters>27910.956017877</DistanceMeters>
          </Trackpoint>
          <Trackpoint>
            <Time>2018-04-21T09:41:25.000Z</Time>
            <Position>
              <LatitudeDegrees>43.200752735137939453125</LatitudeDegrees>
              <LongitudeDegrees>-8.3465317077934741973876953125</LongitudeDegrees>
            </Position>
            <AltitudeMeters>227.1999969482421875</AltitudeMeters>
            <DistanceMeters>27922.833216798</DistanceMeters>
          </Trackpoint>
          <Trackpoint>
            <Time>2018-04-21T09:41:26.000Z</Time>
            <Position>
              <LatitudeDegrees>43.200734294950962066650390625</LatitudeDegrees>
              <LongitudeDegrees>-8.34655366837978363037109375</LongitudeDegrees>
            </Position>
            <AltitudeMeters>227.1999969482421875</AltitudeMeters>
            <DistanceMeters>27925.55104728</DistanceMeters>
          </Trackpoint>
          <Trackpoint>
            <Time>2018-04-21T09:41:31.000Z</Time>
            <Position>
              <LatitudeDegrees>43.20061929523944854736328125</LatitudeDegrees>
              <LongitudeDegrees>-8.346669673919677734375</LongitudeDegrees>
            </Position>
            <AltitudeMeters>228.1999969482421875</AltitudeMeters>
            <DistanceMeters>27941.438422669</DistanceMeters>
          </Trackpoint>
          <Trackpoint>
            <Time>2018-04-21T09:41:33.000Z</Time>
            <Position>
              <LatitudeDegrees>43.200563974678516387939453125</LatitudeDegrees>
              <LongitudeDegrees>-8.3467187918722629547119140625</LongitudeDegrees>
            </Position>
            <AltitudeMeters>228.1999969482421875</AltitudeMeters>
            <DistanceMeters>27948.773352488</DistanceMeters>
          </Trackpoint>
          <Trackpoint>
            <Time>2018-04-21T09:41:36.000Z</Time>
            <Position>
              <LatitudeDegrees>43.20048862136900424957275390625</LatitudeDegrees>
              <LongitudeDegrees>-8.346800766885280609130859375</LongitudeDegrees>
            </Position>
            <AltitudeMeters>228.399993896484375</AltitudeMeters>
            <DistanceMeters>27959.477680585</DistanceMeters>
          </Trackpoint>
          <Trackpoint>
            <Time>2018-04-21T09:41:40.000Z</Time>
            <Position>
              <LatitudeDegrees>43.20037999190390110015869140625</LatitudeDegrees>
              <LongitudeDegrees>-8.346897996962070465087890625</LongitudeDegrees>
            </Position>
            <AltitudeMeters>228.600006103515625</AltitudeMeters>
            <DistanceMeters>27973.914237111</DistanceMeters>
          </Trackpoint>
          <Trackpoint>
            <Time>2018-04-21T09:41:45.000Z</Time>
            <Position>
              <LatitudeDegrees>43.20023238658905029296875</LatitudeDegrees>
              <LongitudeDegrees>-8.346986509859561920166015625</LongitudeDegrees>
            </Position>
            <AltitudeMeters>228.399993896484375</AltitudeMeters>
            <DistanceMeters>27991.843841719</DistanceMeters>
          </Trackpoint>
          <Trackpoint>
            <Time>2018-04-21T09:41:51.000Z</Time>
            <Position>
              <LatitudeDegrees>43.2000431232154369354248046875</LatitudeDegrees>
              <LongitudeDegrees>-8.34703822620213031768798828125</LongitudeDegrees>
            </Position>
            <AltitudeMeters>229.399993896484375</AltitudeMeters>
            <DistanceMeters>28013.323032477</DistanceMeters>
          </Trackpoint>
          <Trackpoint>
            <Time>2018-04-21T09:41:52.000Z</Time>
            <Position>
              <LatitudeDegrees>43.2000112719833850860595703125</LatitudeDegrees>
              <LongitudeDegrees>-8.34703755564987659454345703125</LongitudeDegrees>
            </Position>
            <AltitudeMeters>229.600006103515625</AltitudeMeters>
            <DistanceMeters>28016.868433217</DistanceMeters>
          </Trackpoint>
          <Trackpoint>
            <Time>2018-04-21T09:41:58.000Z</Time>
            <Position>
              <LatitudeDegrees>43.19980633445084095001220703125</LatitudeDegrees>
              <LongitudeDegrees>-8.3470545709133148193359375</LongitudeDegrees>
            </Position>
            <AltitudeMeters>230</AltitudeMeters>
            <DistanceMeters>28039.720135357</DistanceMeters>
          </Trackpoint>
          <Trackpoint>
            <Time>2018-04-21T09:42:00.000Z</Time>
            <Position>
              <LatitudeDegrees>43.19974447600543498992919921875</LatitudeDegrees>
              <LongitudeDegrees>-8.347063958644866943359375</LongitudeDegrees>
            </Position>
            <AltitudeMeters>230.600006103515625</AltitudeMeters>
            <DistanceMeters>28046.647315607</DistanceMeters>
          </Trackpoint>
          <Trackpoint>
            <Time>2018-04-21T09:42:03.000Z</Time>
            <Position>
              <LatitudeDegrees>43.199646659195423126220703125</LatitudeDegrees>
              <LongitudeDegrees>-8.3471028506755828857421875</LongitudeDegrees>
            </Position>
            <AltitudeMeters>230.600006103515625</AltitudeMeters>
            <DistanceMeters>28057.983010901</DistanceMeters>
          </Trackpoint>
          <Trackpoint>
            <Time>2018-04-21T09:42:08.000Z</Time>
            <Position>
              <LatitudeDegrees>43.19947893731296062469482421875</LatitudeDegrees>
              <LongitudeDegrees>-8.347170241177082061767578125</LongitudeDegrees>
            </Position>
            <AltitudeMeters>231.1999969482421875</AltitudeMeters>
            <DistanceMeters>28077.435422662</DistanceMeters>
          </Trackpoint>
          <Trackpoint>
            <Time>2018-04-21T09:42:09.000Z</Time>
            <Position>
              <LatitudeDegrees>43.1994470022618770599365234375</LatitudeDegrees>
              <LongitudeDegrees>-8.347179628908634185791015625</LongitudeDegrees>
            </Position>
            <AltitudeMeters>231.600006103515625</AltitudeMeters>
            <DistanceMeters>28081.071358843</DistanceMeters>
          </Trackpoint>
          <Trackpoint>
            <Time>2018-04-21T09:42:13.000Z</Time>
            <Position>
              <LatitudeDegrees>43.19931297563016414642333984375</LatitudeDegrees>
              <LongitudeDegrees>-8.347203768789768218994140625</LongitudeDegrees>
            </Position>
            <AltitudeMeters>231</AltitudeMeters>
            <DistanceMeters>28096.116821824</DistanceMeters>
          </Trackpoint>
          <Trackpoint>
            <Time>2018-04-21T09:42:18.000Z</Time>
            <Position>
              <LatitudeDegrees>43.1991469301283359527587890625</LatitudeDegrees>
              <LongitudeDegrees>-8.3472190238535404205322265625</LongitudeDegrees>
            </Position>
            <AltitudeMeters>230.8000030517578125</AltitudeMeters>
            <DistanceMeters>28114.63947618</DistanceMeters>
          </Trackpoint>
          <Trackpoint>
            <Time>2018-04-21T09:42:21.000Z</Time>
            <Position>
              <LatitudeDegrees>43.19904173724353313446044921875</LatitudeDegrees>
              <LongitudeDegrees>-8.34721676073968410491943359375</LongitudeDegrees>
            </Position>
            <AltitudeMeters>231</AltitudeMeters>
            <DistanceMeters>28126.348988583</DistanceMeters>
          </Trackpoint>
          <Trackpoint>
            <Time>2018-04-21T09:42:28.000Z</Time>
            <Position>
              <LatitudeDegrees>43.1988041102886199951171875</LatitudeDegrees>
              <LongitudeDegrees>-8.347168900072574615478515625</LongitudeDegrees>
            </Position>
            <AltitudeMeters>231.8000030517578125</AltitudeMeters>
            <DistanceMeters>28153.080900213</DistanceMeters>
          </Trackpoint>
          <Trackpoint>
            <Time>2018-04-21T09:42:35.000Z</Time>
            <Position>
              <LatitudeDegrees>43.19860554300248622894287109375</LatitudeDegrees>
              <LongitudeDegrees>-8.34713009186089038848876953125</LongitudeDegrees>
            </Position>
            <AltitudeMeters>233</AltitudeMeters>
            <DistanceMeters>28175.405100511</DistanceMeters>
          </Trackpoint>
          <Trackpoint>
            <Time>2018-04-21T09:42:41.000Z</Time>
            <Position>
              <LatitudeDegrees>43.19844511337578296661376953125</LatitudeDegrees>
              <LongitudeDegrees>-8.3471610210835933685302734375</LongitudeDegrees>
            </Position>
            <AltitudeMeters>234</AltitudeMeters>
            <DistanceMeters>28193.436654311</DistanceMeters>
          </Trackpoint>
          <Trackpoint>
            <Time>2018-04-21T09:42:42.000Z</Time>
            <Position>
              <LatitudeDegrees>43.198419548571109771728515625</LatitudeDegrees>
              <LongitudeDegrees>-8.3471643738448619842529296875</LongitudeDegrees>
            </Position>
            <AltitudeMeters>234</AltitudeMeters>
            <DistanceMeters>28196.293783833</DistanceMeters>
          </Trackpoint>
          <Trackpoint>
            <Time>2018-04-21T09:42:47.000Z</Time>
            <Position>
              <LatitudeDegrees>43.198275379836559295654296875</LatitudeDegrees>
              <LongitudeDegrees>-8.34716923534870147705078125</LongitudeDegrees>
            </Position>
            <AltitudeMeters>235.399993896484375</AltitudeMeters>
            <DistanceMeters>28212.344580728</DistanceMeters>
          </Trackpoint>
          <Trackpoint>
            <Time>2018-04-21T09:42:50.000Z</Time>
            <Position>
              <LatitudeDegrees>43.1981873698532581329345703125</LatitudeDegrees>
              <LongitudeDegrees>-8.3471784554421901702880859375</LongitudeDegrees>
            </Position>
            <AltitudeMeters>236.1999969482421875</AltitudeMeters>
            <DistanceMeters>28222.168707001</DistanceMeters>
          </Trackpoint>
          <Trackpoint>
            <Time>2018-04-21T09:42:52.000Z</Time>
            <Position>
              <LatitudeDegrees>43.19813397713005542755126953125</LatitudeDegrees>
              <LongitudeDegrees>-8.347189687192440032958984375</LongitudeDegrees>
            </Position>
            <AltitudeMeters>236.399993896484375</AltitudeMeters>
            <DistanceMeters>28228.180226437</DistanceMeters>
          </Trackpoint>
          <Trackpoint>
            <Time>2018-04-21T09:42:56.000Z</Time>
            <Position>
              <LatitudeDegrees>43.19802886806428432464599609375</LatitudeDegrees>
              <LongitudeDegrees>-8.34719966165721416473388671875</LongitudeDegrees>
            </Position>
            <AltitudeMeters>237.399993896484375</AltitudeMeters>
            <DistanceMeters>28239.906692405</DistanceMeters>
          </Trackpoint>
          <Trackpoint>
            <Time>2018-04-21T09:42:58.000Z</Time>
            <Position>
              <LatitudeDegrees>43.19798779673874378204345703125</LatitudeDegrees>
              <LongitudeDegrees>-8.3472103066742420196533203125</LongitudeDegrees>
            </Position>
            <AltitudeMeters>238</AltitudeMeters>
            <DistanceMeters>28244.55815058</DistanceMeters>
          </Trackpoint>
          <Trackpoint>
            <Time>2018-04-21T09:43:00.000Z</Time>
            <Position>
              <LatitudeDegrees>43.19794270209968090057373046875</LatitudeDegrees>
              <LongitudeDegrees>-8.3472106419503688812255859375</LongitudeDegrees>
            </Position>
            <AltitudeMeters>238.399993896484375</AltitudeMeters>
            <DistanceMeters>28249.577504451</DistanceMeters>
          </Trackpoint>
          <Trackpoint>
            <Time>2018-04-21T09:43:05.000Z</Time>
            <Position>
              <LatitudeDegrees>43.19785368628799915313720703125</LatitudeDegrees>
              <LongitudeDegrees>-8.3472280763089656829833984375</LongitudeDegrees>
            </Position>
            <AltitudeMeters>239.399993896484375</AltitudeMeters>
            <DistanceMeters>28259.585581585</DistanceMeters>
          </Trackpoint>
          <Trackpoint>
            <Time>2018-04-21T09:43:06.000Z</Time>
            <Position>
              <LatitudeDegrees>43.1978376768529415130615234375</LatitudeDegrees>
              <LongitudeDegrees>-8.3472260646522045135498046875</LongitudeDegrees>
            </Position>
            <AltitudeMeters>239.8000030517578125</AltitudeMeters>
            <DistanceMeters>28261.373498546</DistanceMeters>
          </Trackpoint>
          <Trackpoint>
            <Time>2018-04-21T09:43:10.000Z</Time>
            <Position>
              <LatitudeDegrees>43.197759725153446197509765625</LatitudeDegrees>
              <LongitudeDegrees>-8.347207121551036834716796875</LongitudeDegrees>
            </Position>
            <AltitudeMeters>240.8000030517578125</AltitudeMeters>
            <DistanceMeters>28270.183863868</DistanceMeters>
          </Trackpoint>
          <Trackpoint>
            <Time>2018-04-21T09:43:11.000Z</Time>
            <Position>
              <LatitudeDegrees>43.197739608585834503173828125</LatitudeDegrees>
              <LongitudeDegrees>-8.3472059480845928192138671875</LongitudeDegrees>
            </Position>
            <AltitudeMeters>240.8000030517578125</AltitudeMeters>
            <DistanceMeters>28272.424560747</DistanceMeters>
          </Trackpoint>
          <Trackpoint>
            <Time>2018-04-21T09:43:13.000Z</Time>
            <Position>
              <LatitudeDegrees>43.1977005489170551300048828125</LatitudeDegrees>
              <LongitudeDegrees>-8.34720402024686336517333984375</LongitudeDegrees>
            </Position>
            <AltitudeMeters>241.399993896484375</AltitudeMeters>
            <DistanceMeters>28276.775082581</DistanceMeters>
          </Trackpoint>
          <Trackpoint>
            <Time>2018-04-21T09:43:16.000Z</Time>
            <Position>
              <LatitudeDegrees>43.19763927720487117767333984375</LatitudeDegrees>
              <LongitudeDegrees>-8.34719580598175525665283203125</LongitudeDegrees>
            </Position>
            <AltitudeMeters>242</AltitudeMeters>
            <DistanceMeters>28283.626238495</DistanceMeters>
          </Trackpoint>
          <Trackpoint>
            <Time>2018-04-21T09:43:20.000Z</Time>
            <Position>
              <LatitudeDegrees>43.19756417535245418548583984375</LatitudeDegrees>
              <LongitudeDegrees>-8.34719999693334102630615234375</LongitudeDegrees>
            </Position>
            <AltitudeMeters>243</AltitudeMeters>
            <DistanceMeters>28291.992367977</DistanceMeters>
          </Trackpoint>
          <Trackpoint>
            <Time>2018-04-21T09:43:21.000Z</Time>
            <Position>
              <LatitudeDegrees>43.19754674099385738372802734375</LatitudeDegrees>
              <LongitudeDegrees>-8.34720117039978504180908203125</LongitudeDegrees>
            </Position>
            <AltitudeMeters>243.1999969482421875</AltitudeMeters>
            <DistanceMeters>28293.932868397</DistanceMeters>
          </Trackpoint>
          <Trackpoint>
            <Time>2018-04-21T09:43:25.000Z</Time>
            <Position>
              <LatitudeDegrees>43.19747549481689929962158203125</LatitudeDegrees>
              <LongitudeDegrees>-8.34719748236238956451416015625</LongitudeDegrees>
            </Position>
            <AltitudeMeters>244.399993896484375</AltitudeMeters>
            <DistanceMeters>28301.868025802</DistanceMeters>
          </Trackpoint>
          <Trackpoint>
            <Time>2018-04-21T09:43:29.000Z</Time>
            <Position>
              <LatitudeDegrees>43.19740240462124347686767578125</LatitudeDegrees>
              <LongitudeDegrees>-8.3471841551363468170166015625</LongitudeDegrees>
            </Position>
            <AltitudeMeters>245.1999969482421875</AltitudeMeters>
            <DistanceMeters>28310.074505566</DistanceMeters>
          </Trackpoint>
          <Trackpoint>
            <Time>2018-04-21T09:43:30.000Z</Time>
            <Position>
              <LatitudeDegrees>43.19738748483359813690185546875</LatitudeDegrees>
              <LongitudeDegrees>-8.347184322774410247802734375</LongitudeDegrees>
            </Position>
            <AltitudeMeters>245.399993896484375</AltitudeMeters>
            <DistanceMeters>28311.734075786</DistanceMeters>
          </Trackpoint>
          <Trackpoint>
            <Time>2018-04-21T09:43:35.000Z</Time>
            <Position>
              <LatitudeDegrees>43.1973143108189105987548828125</LatitudeDegrees>
              <LongitudeDegrees>-8.3471672236919403076171875</LongitudeDegrees>
            </Position>
            <AltitudeMeters>246.600006103515625</AltitudeMeters>
            <DistanceMeters>28319.995390316</DistanceMeters>
          </Trackpoint>
          <Trackpoint>
            <Time>2018-04-21T09:43:36.000Z</Time>
            <Position>
              <LatitudeDegrees>43.19729603826999664306640625</LatitudeDegrees>
              <LongitudeDegrees>-8.34716697223484516143798828125</LongitudeDegrees>
            </Position>
            <AltitudeMeters>247</AltitudeMeters>
            <DistanceMeters>28322.029050811</DistanceMeters>
          </Trackpoint>
          <Trackpoint>
            <Time>2018-04-21T09:43:41.000Z</Time>
            <Position>
              <LatitudeDegrees>43.19723091088235378265380859375</LatitudeDegrees>
              <LongitudeDegrees>-8.34716320037841796875</LongitudeDegrees>
            </Position>
            <AltitudeMeters>247.8000030517578125</AltitudeMeters>
            <DistanceMeters>28329.284762056</DistanceMeters>
          </Trackpoint>
          <Trackpoint>
            <Time>2018-04-21T09:43:44.000Z</Time>
            <Position>
              <LatitudeDegrees>43.19718874990940093994140625</LatitudeDegrees>
              <LongitudeDegrees>-8.347153477370738983154296875</LongitudeDegrees>
            </Position>
            <AltitudeMeters>248.600006103515625</AltitudeMeters>
            <DistanceMeters>28334.042744995</DistanceMeters>
          </Trackpoint>
          <Trackpoint>
            <Time>2018-04-21T09:43:46.000Z</Time>
            <Position>
              <LatitudeDegrees>43.197159580886363983154296875</LatitudeDegrees>
              <LongitudeDegrees>-8.3471533097326755523681640625</LongitudeDegrees>
            </Position>
            <AltitudeMeters>249</AltitudeMeters>
            <DistanceMeters>28337.288988857</DistanceMeters>
          </Trackpoint>
          <Trackpoint>
            <Time>2018-04-21T09:43:50.000Z</Time>
            <Position>
              <LatitudeDegrees>43.1971007399260997772216796875</LatitudeDegrees>
              <LongitudeDegrees>-8.3471556566655635833740234375</LongitudeDegrees>
            </Position>
            <AltitudeMeters>250.1999969482421875</AltitudeMeters>
            <DistanceMeters>28343.84101018</DistanceMeters>
          </Trackpoint>
          <Trackpoint>
            <Time>2018-04-21T09:43:53.000Z</Time>
            <Position>
              <LatitudeDegrees>43.1970511190593242645263671875</LatitudeDegrees>
              <LongitudeDegrees>-8.347155153751373291015625</LongitudeDegrees>
            </Position>
            <AltitudeMeters>251.399993896484375</AltitudeMeters>
            <DistanceMeters>28349.36319889</DistanceMeters>
          </Trackpoint>
          <Trackpoint>
            <Time>2018-04-21T09:43:57.000Z</Time>
            <Position>
              <LatitudeDegrees>43.19696218706667423248291015625</LatitudeDegrees>
              <LongitudeDegrees>-8.34719614125788211822509765625</LongitudeDegrees>
            </Position>
            <AltitudeMeters>252.8000030517578125</AltitudeMeters>
            <DistanceMeters>28359.804901001</DistanceMeters>
          </Trackpoint>
          <Trackpoint>
            <Time>2018-04-21T09:44:00.000Z</Time>
            <Position>
              <LatitudeDegrees>43.19690720178186893463134765625</LatitudeDegrees>
              <LongitudeDegrees>-8.34721692837774753570556640625</LongitudeDegrees>
            </Position>
            <AltitudeMeters>253.399993896484375</AltitudeMeters>
            <DistanceMeters>28366.152514812</DistanceMeters>
          </Trackpoint>
          <Trackpoint>
            <Time>2018-04-21T09:44:01.000Z</Time>
            <Position>
              <LatitudeDegrees>43.196892030537128448486328125</LatitudeDegrees>
              <LongitudeDegrees>-8.34722346626222133636474609375</LongitudeDegrees>
            </Position>
            <AltitudeMeters>253.8000030517578125</AltitudeMeters>
            <DistanceMeters>28367.920113876</DistanceMeters>
          </Trackpoint>
          <Trackpoint>
            <Time>2018-04-21T09:44:02.000Z</Time>
            <Position>
              <LatitudeDegrees>43.19688322953879833221435546875</LatitudeDegrees>
              <LongitudeDegrees>-8.34723494946956634521484375</LongitudeDegrees>
            </Position>
            <AltitudeMeters>253.8000030517578125</AltitudeMeters>
            <DistanceMeters>28369.270697247</DistanceMeters>
          </Trackpoint>
          <Trackpoint>
            <Time>2018-04-21T09:44:06.000Z</Time>
            <Position>
              <LatitudeDegrees>43.1968476064503192901611328125</LatitudeDegrees>
              <LongitudeDegrees>-8.34728415124118328094482421875</LongitudeDegrees>
            </Position>
            <AltitudeMeters>255</AltitudeMeters>
            <DistanceMeters>28374.897370155</DistanceMeters>
          </Trackpoint>
          <Trackpoint>
            <Time>2018-04-21T09:44:11.000Z</Time>
            <Position>
              <LatitudeDegrees>43.196817934513092041015625</LatitudeDegrees>
              <LongitudeDegrees>-8.34737333469092845916748046875</LongitudeDegrees>
            </Position>
            <AltitudeMeters>256.399993896484375</AltitudeMeters>
            <DistanceMeters>28382.851282121</DistanceMeters>
          </Trackpoint>
          <Trackpoint>
            <Time>2018-04-21T09:44:14.000Z</Time>
            <Position>
              <LatitudeDegrees>43.19679555483162403106689453125</LatitudeDegrees>
              <LongitudeDegrees>-8.34741641767323017120361328125</LongitudeDegrees>
            </Position>
            <AltitudeMeters>256.79998779296875</AltitudeMeters>
            <DistanceMeters>28387.143292832</DistanceMeters>
          </Trackpoint>
          <Trackpoint>
            <Time>2018-04-21T09:44:18.000Z</Time>
            <Position>
              <LatitudeDegrees>43.19675666280090808868408203125</LatitudeDegrees>
              <LongitudeDegrees>-8.347483389079570770263671875</LongitudeDegrees>
            </Position>
            <AltitudeMeters>257.600006103515625</AltitudeMeters>
            <DistanceMeters>28394.090649063</DistanceMeters>
          </Trackpoint>
          <Trackpoint>
            <Time>2018-04-21T09:44:20.000Z</Time>
            <Position>
              <LatitudeDegrees>43.19673252291977405548095703125</LatitudeDegrees>
              <LongitudeDegrees>-8.3475060202181339263916015625</LongitudeDegrees>
            </Position>
            <AltitudeMeters>258</AltitudeMeters>
            <DistanceMeters>28397.346614318</DistanceMeters>
          </Trackpoint>
          <Trackpoint>
            <Time>2018-04-21T09:44:24.000Z</Time>
            <Position>
              <LatitudeDegrees>43.19669061340391635894775390625</LatitudeDegrees>
              <LongitudeDegrees>-8.3475601673126220703125</LongitudeDegrees>
            </Position>
            <AltitudeMeters>258.79998779296875</AltitudeMeters>
            <DistanceMeters>28403.75440314</DistanceMeters>
          </Trackpoint>
          <Trackpoint>
            <Time>2018-04-21T09:44:27.000Z</Time>
            <Position>
              <LatitudeDegrees>43.19665641523897647857666015625</LatitudeDegrees>
              <LongitudeDegrees>-8.3475722372531890869140625</LongitudeDegrees>
            </Position>
            <AltitudeMeters>259.399993896484375</AltitudeMeters>
            <DistanceMeters>28407.683961731</DistanceMeters>
          </Trackpoint>
          <Trackpoint>
            <Time>2018-04-21T09:44:28.000Z</Time>
            <Position>
              <LatitudeDegrees>43.196643926203250885009765625</LatitudeDegrees>
              <LongitudeDegrees>-8.34757567383348941802978515625</LongitudeDegrees>
            </Position>
            <AltitudeMeters>259.600006103515625</AltitudeMeters>
            <DistanceMeters>28409.106191362</DistanceMeters>
          </Trackpoint>
          <Trackpoint>
            <Time>2018-04-21T09:44:29.000Z</Time>
            <Position>
              <LatitudeDegrees>43.19663411937654018402099609375</LatitudeDegrees>
              <LongitudeDegrees>-8.3475829660892486572265625</LongitudeDegrees>
            </Position>
            <AltitudeMeters>259.79998779296875</AltitudeMeters>
            <DistanceMeters>28410.345188132</DistanceMeters>
          </Trackpoint>
          <Trackpoint>
            <Time>2018-04-21T09:44:33.000Z</Time>
            <Position>
              <LatitudeDegrees>43.19659707136452198028564453125</LatitudeDegrees>
              <LongitudeDegrees>-8.3475697226822376251220703125</LongitudeDegrees>
            </Position>
            <AltitudeMeters>260.600006103515625</AltitudeMeters>
            <DistanceMeters>28414.605523055</DistanceMeters>
          </Trackpoint>
          <Trackpoint>
            <Time>2018-04-21T09:44:34.000Z</Time>
            <Position>
              <LatitudeDegrees>43.196586258709430694580078125</LatitudeDegrees>
              <LongitudeDegrees>-8.34756276570260524749755859375</LongitudeDegrees>
            </Position>
            <AltitudeMeters>261</AltitudeMeters>
            <DistanceMeters>28415.929092029</DistanceMeters>
          </Trackpoint>
          <Trackpoint>
            <Time>2018-04-21T09:44:38.000Z</Time>
            <Position>
              <LatitudeDegrees>43.1965388171374797821044921875</LatitudeDegrees>
              <LongitudeDegrees>-8.3475392125546932220458984375</LongitudeDegrees>
            </Position>
            <AltitudeMeters>262.20001220703125</AltitudeMeters>
            <DistanceMeters>28421.543715513</DistanceMeters>
          </Trackpoint>
          <Trackpoint>
            <Time>2018-04-21T09:44:41.000Z</Time>
            <Position>
              <LatitudeDegrees>43.19649665616452693939208984375</LatitudeDegrees>
              <LongitudeDegrees>-8.3475174196064472198486328125</LongitudeDegrees>
            </Position>
            <AltitudeMeters>263</AltitudeMeters>
            <DistanceMeters>28426.557669324</DistanceMeters>
          </Trackpoint>
          <Trackpoint>
            <Time>2018-04-21T09:44:42.000Z</Time>
            <Position>
              <LatitudeDegrees>43.1964865140616893768310546875</LatitudeDegrees>
              <LongitudeDegrees>-8.34750928916037082672119140625</LongitudeDegrees>
            </Position>
            <AltitudeMeters>263.20001220703125</AltitudeMeters>
            <DistanceMeters>28427.860609987</DistanceMeters>
          </Trackpoint>
          <Trackpoint>
            <Time>2018-04-21T09:44:47.000Z</Time>
            <Position>
              <LatitudeDegrees>43.1964305229485034942626953125</LatitudeDegrees>
              <LongitudeDegrees>-8.34746737964451313018798828125</LongitudeDegrees>
            </Position>
            <AltitudeMeters>264.20001220703125</AltitudeMeters>
            <DistanceMeters>28434.960320313</DistanceMeters>
          </Trackpoint>
          <Trackpoint>
            <Time>2018-04-21T09:44:49.000Z</Time>
            <Position>
              <LatitudeDegrees>43.19640688598155975341796875</LatitudeDegrees>
              <LongitudeDegrees>-8.3474488556385040283203125</LongitudeDegrees>
            </Position>
            <AltitudeMeters>264.600006103515625</AltitudeMeters>
            <DistanceMeters>28437.989273542</DistanceMeters>
          </Trackpoint>
          <Trackpoint>
            <Time>2018-04-21T09:44:54.000Z</Time>
            <Position>
              <LatitudeDegrees>43.1963601149618625640869140625</LatitudeDegrees>
              <LongitudeDegrees>-8.34743209183216094970703125</LongitudeDegrees>
            </Position>
            <AltitudeMeters>265.600006103515625</AltitudeMeters>
            <DistanceMeters>28443.369833465</DistanceMeters>
          </Trackpoint>
          <Trackpoint>
            <Time>2018-04-21T09:44:56.000Z</Time>
            <Position>
              <LatitudeDegrees>43.19633756764233112335205078125</LatitudeDegrees>
              <LongitudeDegrees>-8.3474225364625453948974609375</LongitudeDegrees>
            </Position>
            <AltitudeMeters>265.79998779296875</AltitudeMeters>
            <DistanceMeters>28445.992983909</DistanceMeters>
          </Trackpoint>
          <Trackpoint>
            <Time>2018-04-21T09:44:57.000Z</Time>
            <Position>
              <LatitudeDegrees>43.19632063619792461395263671875</LatitudeDegrees>
              <LongitudeDegrees>-8.3474195189774036407470703125</LongitudeDegrees>
            </Position>
            <AltitudeMeters>266</AltitudeMeters>
            <DistanceMeters>28447.893518196</DistanceMeters>
          </Trackpoint>
          <Trackpoint>
            <Time>2018-04-21T09:44:59.000Z</Time>
            <Position>
              <LatitudeDegrees>43.19629163481295108795166015625</LatitudeDegrees>
              <LongitudeDegrees>-8.34740317426621913909912109375</LongitudeDegrees>
            </Position>
            <AltitudeMeters>266.600006103515625</AltitudeMeters>
            <DistanceMeters>28451.383729239</DistanceMeters>
          </Trackpoint>
          <Trackpoint>
            <Time>2018-04-21T09:45:02.000Z</Time>
            <Position>
              <LatitudeDegrees>43.19624871946871280670166015625</LatitudeDegrees>
              <LongitudeDegrees>-8.34739127196371555328369140625</LongitudeDegrees>
            </Position>
            <AltitudeMeters>267.20001220703125</AltitudeMeters>
            <DistanceMeters>28456.25703418</DistanceMeters>
          </Trackpoint>
          <Trackpoint>
            <Time>2018-04-21T09:45:05.000Z</Time>
            <Position>
              <LatitudeDegrees>43.1962119229137897491455078125</LatitudeDegrees>
              <LongitudeDegrees>-8.3473900146782398223876953125</LongitudeDegrees>
            </Position>
            <AltitudeMeters>267.600006103515625</AltitudeMeters>
            <DistanceMeters>28460.354217616</DistanceMeters>
          </Trackpoint>
          <Trackpoint>
            <Time>2018-04-21T09:45:10.000Z</Time>
            <Position>
              <LatitudeDegrees>43.19613774307072162628173828125</LatitudeDegrees>
              <LongitudeDegrees>-8.3474104665219783782958984375</LongitudeDegrees>
            </Position>
            <AltitudeMeters>269</AltitudeMeters>
            <DistanceMeters>28468.775750754</DistanceMeters>
          </Trackpoint>
          <Trackpoint>
            <Time>2018-04-21T09:45:11.000Z</Time>
            <Position>
              <LatitudeDegrees>43.19611595012247562408447265625</LatitudeDegrees>
              <LongitudeDegrees>-8.34741775877773761749267578125</LongitudeDegrees>
            </Position>
            <AltitudeMeters>269.399993896484375</AltitudeMeters>
            <DistanceMeters>28471.273706482</DistanceMeters>
          </Trackpoint>
          <Trackpoint>
            <Time>2018-04-21T09:45:15.000Z</Time>
            <Position>
              <LatitudeDegrees>43.19603833369910717010498046875</LatitudeDegrees>
              <LongitudeDegrees>-8.34742312319576740264892578125</LongitudeDegrees>
            </Position>
            <AltitudeMeters>270</AltitudeMeters>
            <DistanceMeters>28479.92374772</DistanceMeters>
          </Trackpoint>
          <Trackpoint>
            <Time>2018-04-21T09:45:20.000Z</Time>
            <Position>
              <LatitudeDegrees>43.19594948552548885345458984375</LatitudeDegrees>
              <LongitudeDegrees>-8.3474434912204742431640625</LongitudeDegrees>
            </Position>
            <AltitudeMeters>271</AltitudeMeters>
            <DistanceMeters>28489.949854191</DistanceMeters>
          </Trackpoint>
          <Trackpoint>
            <Time>2018-04-21T09:45:24.000Z</Time>
            <Position>
              <LatitudeDegrees>43.19589735008776187896728515625</LatitudeDegrees>
              <LongitudeDegrees>-8.3474488556385040283203125</LongitudeDegrees>
            </Position>
            <AltitudeMeters>272</AltitudeMeters>
            <DistanceMeters>28495.769028245</DistanceMeters>
          </Trackpoint>
          <Trackpoint>
            <Time>2018-04-21T09:45:27.000Z</Time>
            <Position>
              <LatitudeDegrees>43.19584689103066921234130859375</LatitudeDegrees>
              <LongitudeDegrees>-8.3474600873887538909912109375</LongitudeDegrees>
            </Position>
            <AltitudeMeters>272.600006103515625</AltitudeMeters>
            <DistanceMeters>28501.459533858</DistanceMeters>
          </Trackpoint>
          <Trackpoint>
            <Time>2018-04-21T09:45:30.000Z</Time>
            <Position>
              <LatitudeDegrees>43.19579089991748332977294921875</LatitudeDegrees>
              <LongitudeDegrees>-8.34746830165386199951171875</LongitudeDegrees>
            </Position>
            <AltitudeMeters>273.20001220703125</AltitudeMeters>
            <DistanceMeters>28507.726976122</DistanceMeters>
          </Trackpoint>
          <Trackpoint>
            <Time>2018-04-21T09:45:35.000Z</Time>
            <Position>
              <LatitudeDegrees>43.1957061588764190673828125</LatitudeDegrees>
              <LongitudeDegrees>-8.3474480174481868743896484375</LongitudeDegrees>
            </Position>
            <AltitudeMeters>274.20001220703125</AltitudeMeters>
            <DistanceMeters>28517.301123916</DistanceMeters>
          </Trackpoint>
          <Trackpoint>
            <Time>2018-04-21T09:45:40.000Z</Time>
            <Position>
              <LatitudeDegrees>43.19566081278026103973388671875</LatitudeDegrees>
              <LongitudeDegrees>-8.34744751453399658203125</LongitudeDegrees>
            </Position>
            <AltitudeMeters>275.399993896484375</AltitudeMeters>
            <DistanceMeters>28522.348286054</DistanceMeters>
          </Trackpoint>
          <Trackpoint>
            <Time>2018-04-21T09:45:43.000Z</Time>
            <Position>
              <LatitudeDegrees>43.1956258602440357208251953125</LatitudeDegrees>
              <LongitudeDegrees>-8.347438462078571319580078125</LongitudeDegrees>
            </Position>
            <AltitudeMeters>275.600006103515625</AltitudeMeters>
            <DistanceMeters>28526.307605781</DistanceMeters>
          </Trackpoint>
          <Trackpoint>
            <Time>2018-04-21T09:45:44.000Z</Time>
            <Position>
              <LatitudeDegrees>43.19560985080897808074951171875</LatitudeDegrees>
              <LongitudeDegrees>-8.34743737243115901947021484375</LongitudeDegrees>
            </Position>
            <AltitudeMeters>275.79998779296875</AltitudeMeters>
            <DistanceMeters>28528.090464976</DistanceMeters>
          </Trackpoint>
          <Trackpoint>
            <Time>2018-04-21T09:45:47.000Z</Time>
            <Position>
              <LatitudeDegrees>43.19556693546473979949951171875</LatitudeDegrees>
              <LongitudeDegrees>-8.34744013845920562744140625</LongitudeDegrees>
            </Position>
            <AltitudeMeters>276.399993896484375</AltitudeMeters>
            <DistanceMeters>28532.872112554</DistanceMeters>
          </Trackpoint>
          <Trackpoint>
            <Time>2018-04-21T09:45:50.000Z</Time>
            <Position>
              <LatitudeDegrees>43.1955256126821041107177734375</LatitudeDegrees>
              <LongitudeDegrees>-8.3474433235824108123779296875</LongitudeDegrees>
            </Position>
            <AltitudeMeters>277</AltitudeMeters>
            <DistanceMeters>28537.478703445</DistanceMeters>
          </Trackpoint>
          <Trackpoint>
            <Time>2018-04-21T09:45:52.000Z</Time>
            <Position>
              <LatitudeDegrees>43.19549267180263996124267578125</LatitudeDegrees>
              <LongitudeDegrees>-8.34745354950428009033203125</LongitudeDegrees>
            </Position>
            <AltitudeMeters>277.399993896484375</AltitudeMeters>
            <DistanceMeters>28541.239168804</DistanceMeters>
          </Trackpoint>
          <Trackpoint>
            <Time>2018-04-21T09:45:57.000Z</Time>
            <Position>
              <LatitudeDegrees>43.1954143010079860687255859375</LatitudeDegrees>
              <LongitudeDegrees>-8.34746025502681732177734375</LongitudeDegrees>
            </Position>
            <AltitudeMeters>278.399993896484375</AltitudeMeters>
            <DistanceMeters>28549.978527279</DistanceMeters>
          </Trackpoint>
          <Trackpoint>
            <Time>2018-04-21T09:45:59.000Z</Time>
            <Position>
              <LatitudeDegrees>43.19538471288979053497314453125</LatitudeDegrees>
              <LongitudeDegrees>-8.3474604226648807525634765625</LongitudeDegrees>
            </Position>
            <AltitudeMeters>278.79998779296875</AltitudeMeters>
            <DistanceMeters>28553.271720533</DistanceMeters>
          </Trackpoint>
          <Trackpoint>
            <Time>2018-04-21T09:46:03.000Z</Time>
            <Position>
              <LatitudeDegrees>43.19532729685306549072265625</LatitudeDegrees>
              <LongitudeDegrees>-8.3474701456725597381591796875</LongitudeDegrees>
            </Position>
            <AltitudeMeters>279.600006103515625</AltitudeMeters>
            <DistanceMeters>28559.711139065</DistanceMeters>
          </Trackpoint>
          <Trackpoint>
            <Time>2018-04-21T09:46:07.000Z</Time>
            <Position>
              <LatitudeDegrees>43.19525479339063167572021484375</LatitudeDegrees>
              <LongitudeDegrees>-8.34747727029025554656982421875</LongitudeDegrees>
            </Position>
            <AltitudeMeters>280.20001220703125</AltitudeMeters>
            <DistanceMeters>28567.801814201</DistanceMeters>
          </Trackpoint>
          <Trackpoint>
            <Time>2018-04-21T09:46:08.000Z</Time>
            <Position>
              <LatitudeDegrees>43.195237778127193450927734375</LatitudeDegrees>
              <LongitudeDegrees>-8.34747676737606525421142578125</LongitudeDegrees>
            </Position>
            <AltitudeMeters>280.79998779296875</AltitudeMeters>
            <DistanceMeters>28569.69282194</DistanceMeters>
          </Trackpoint>
          <Trackpoint>
            <Time>2018-04-21T09:46:13.000Z</Time>
            <Position>
              <LatitudeDegrees>43.19516628049314022064208984375</LatitudeDegrees>
              <LongitudeDegrees>-8.34746369160711765289306640625</LongitudeDegrees>
            </Position>
            <AltitudeMeters>281.79998779296875</AltitudeMeters>
            <DistanceMeters>28577.721314056</DistanceMeters>
          </Trackpoint>
          <Trackpoint>
            <Time>2018-04-21T09:46:16.000Z</Time>
            <Position>
              <LatitudeDegrees>43.19513618946075439453125</LatitudeDegrees>
              <LongitudeDegrees>-8.3474466763436794281005859375</LongitudeDegrees>
            </Position>
            <AltitudeMeters>282.399993896484375</AltitudeMeters>
            <DistanceMeters>28581.344811145</DistanceMeters>
          </Trackpoint>
          <Trackpoint>
            <Time>2018-04-21T09:46:18.000Z</Time>
            <Position>
              <LatitudeDegrees>43.19511867128312587738037109375</LatitudeDegrees>
              <LongitudeDegrees>-8.34743888117372989654541015625</LongitudeDegrees>
            </Position>
            <AltitudeMeters>282.79998779296875</AltitudeMeters>
            <DistanceMeters>28583.393953782</DistanceMeters>
          </Trackpoint>
          <Trackpoint>
            <Time>2018-04-21T09:46:23.000Z</Time>
            <Position>
              <LatitudeDegrees>43.19507223553955554962158203125</LatitudeDegrees>
              <LongitudeDegrees>-8.3474268950521945953369140625</LongitudeDegrees>
            </Position>
            <AltitudeMeters>284.20001220703125</AltitudeMeters>
            <DistanceMeters>28588.653148031</DistanceMeters>
          </Trackpoint>
          <Trackpoint>
            <Time>2018-04-21T09:46:24.000Z</Time>
            <Position>
              <LatitudeDegrees>43.19506519474089145660400390625</LatitudeDegrees>
              <LongitudeDegrees>-8.34742672741413116455078125</LongitudeDegrees>
            </Position>
            <AltitudeMeters>284.20001220703125</AltitudeMeters>
            <DistanceMeters>28589.436758392</DistanceMeters>
          </Trackpoint>
          <Trackpoint>
            <Time>2018-04-21T09:46:31.000Z</Time>
            <Position>
              <LatitudeDegrees>43.19498137570917606353759765625</LatitudeDegrees>
              <LongitudeDegrees>-8.3474195189774036407470703125</LongitudeDegrees>
            </Position>
            <AltitudeMeters>285.600006103515625</AltitudeMeters>
            <DistanceMeters>28598.784218992</DistanceMeters>
          </Trackpoint>
          <Trackpoint>
            <Time>2018-04-21T09:46:34.000Z</Time>
            <Position>
              <LatitudeDegrees>43.1949375383555889129638671875</LatitudeDegrees>
              <LongitudeDegrees>-8.34741340018808841705322265625</LongitudeDegrees>
            </Position>
            <AltitudeMeters>286</AltitudeMeters>
            <DistanceMeters>28603.688923228</DistanceMeters>
          </Trackpoint>
          <Trackpoint>
            <Time>2018-04-21T09:46:37.000Z</Time>
            <Position>
              <LatitudeDegrees>43.19489889778196811676025390625</LatitudeDegrees>
              <LongitudeDegrees>-8.3474027551710605621337890625</LongitudeDegrees>
            </Position>
            <AltitudeMeters>286.79998779296875</AltitudeMeters>
            <DistanceMeters>28608.074588836</DistanceMeters>
          </Trackpoint>
          <Trackpoint>
            <Time>2018-04-21T09:46:42.000Z</Time>
            <Position>
              <LatitudeDegrees>43.1948312558233737945556640625</LatitudeDegrees>
              <LongitudeDegrees>-8.347396887838840484619140625</LongitudeDegrees>
            </Position>
            <AltitudeMeters>287.79998779296875</AltitudeMeters>
            <DistanceMeters>28615.618297589</DistanceMeters>
          </Trackpoint>
          <Trackpoint>
            <Time>2018-04-21T09:46:43.000Z</Time>
            <Position>
              <LatitudeDegrees>43.19481591694056987762451171875</LatitudeDegrees>
              <LongitudeDegrees>-8.34739428944885730743408203125</LongitudeDegrees>
            </Position>
            <AltitudeMeters>288.20001220703125</AltitudeMeters>
            <DistanceMeters>28617.336679095</DistanceMeters>
          </Trackpoint>
          <Trackpoint>
            <Time>2018-04-21T09:46:47.000Z</Time>
            <Position>
              <LatitudeDegrees>43.19475120864808559417724609375</LatitudeDegrees>
              <LongitudeDegrees>-8.34739613346755504608154296875</LongitudeDegrees>
            </Position>
            <AltitudeMeters>289</AltitudeMeters>
            <DistanceMeters>28624.540556476</DistanceMeters>
          </Trackpoint>
          <Trackpoint>
            <Time>2018-04-21T09:46:51.000Z</Time>
            <Position>
              <LatitudeDegrees>43.194677196443080902099609375</LatitudeDegrees>
              <LongitudeDegrees>-8.34740920923650264739990234375</LongitudeDegrees>
            </Position>
            <AltitudeMeters>290</AltitudeMeters>
            <DistanceMeters>28632.846021782</DistanceMeters>
          </Trackpoint>
          <Trackpoint>
            <Time>2018-04-21T09:46:52.000Z</Time>
            <Position>
              <LatitudeDegrees>43.19466085173189640045166015625</LatitudeDegrees>
              <LongitudeDegrees>-8.34740987978875637054443359375</LongitudeDegrees>
            </Position>
            <AltitudeMeters>290.20001220703125</AltitudeMeters>
            <DistanceMeters>28634.663989873</DistanceMeters>
          </Trackpoint>
          <Trackpoint>
            <Time>2018-04-21T09:46:58.000Z</Time>
            <Position>
              <LatitudeDegrees>43.19455624558031558990478515625</LatitudeDegrees>
              <LongitudeDegrees>-8.34741407074034214019775390625</LongitudeDegrees>
            </Position>
            <AltitudeMeters>291.20001220703125</AltitudeMeters>
            <DistanceMeters>28646.312032565</DistanceMeters>
          </Trackpoint>
          <Trackpoint>
            <Time>2018-04-21T09:47:00.000Z</Time>
            <Position>
              <LatitudeDegrees>43.19452841766178607940673828125</LatitudeDegrees>
              <LongitudeDegrees>-8.347409628331661224365234375</LongitudeDegrees>
            </Position>
            <AltitudeMeters>291.600006103515625</AltitudeMeters>
            <DistanceMeters>28649.429140561</DistanceMeters>
          </Trackpoint>
          <Trackpoint>
            <Time>2018-04-21T09:47:03.000Z</Time>
            <Position>
              <LatitudeDegrees>43.194479048252105712890625</LatitudeDegrees>
              <LongitudeDegrees>-8.347402922809123992919921875</LongitudeDegrees>
            </Position>
            <AltitudeMeters>292.20001220703125</AltitudeMeters>
            <DistanceMeters>28654.950511593</DistanceMeters>
          </Trackpoint>
          <Trackpoint>
            <Time>2018-04-21T09:47:09.000Z</Time>
            <Position>
              <LatitudeDegrees>43.1943990848958492279052734375</LatitudeDegrees>
              <LongitudeDegrees>-8.3474151603877544403076171875</LongitudeDegrees>
            </Position>
            <AltitudeMeters>293.20001220703125</AltitudeMeters>
            <DistanceMeters>28663.90523542</DistanceMeters>
          </Trackpoint>
          <Trackpoint>
            <Time>2018-04-21T09:47:10.000Z</Time>
            <Position>
              <LatitudeDegrees>43.19437217898666858673095703125</LatitudeDegrees>
              <LongitudeDegrees>-8.3474220335483551025390625</LongitudeDegrees>
            </Position>
            <AltitudeMeters>293.399993896484375</AltitudeMeters>
            <DistanceMeters>28666.952023661</DistanceMeters>
          </Trackpoint>
          <Trackpoint>
            <Time>2018-04-21T09:47:16.000Z</Time>
            <Position>
              <LatitudeDegrees>43.1942740269005298614501953125</LatitudeDegrees>
              <LongitudeDegrees>-8.34741289727389812469482421875</LongitudeDegrees>
            </Position>
            <AltitudeMeters>294.399993896484375</AltitudeMeters>
            <DistanceMeters>28677.901971379</DistanceMeters>
          </Trackpoint>
          <Trackpoint>
            <Time>2018-04-21T09:47:20.000Z</Time>
            <Position>
              <LatitudeDegrees>43.1942032836377620697021484375</LatitudeDegrees>
              <LongitudeDegrees>-8.3473843149840831756591796875</LongitudeDegrees>
            </Position>
            <AltitudeMeters>295.20001220703125</AltitudeMeters>
            <DistanceMeters>28686.110651566</DistanceMeters>
          </Trackpoint>
          <Trackpoint>
            <Time>2018-04-21T09:47:22.000Z</Time>
            <Position>
              <LatitudeDegrees>43.19416464306414127349853515625</LatitudeDegrees>
              <LongitudeDegrees>-8.3473766036331653594970703125</LongitudeDegrees>
            </Position>
            <AltitudeMeters>295.399993896484375</AltitudeMeters>
            <DistanceMeters>28690.457020156</DistanceMeters>
          </Trackpoint>
          <Trackpoint>
            <Time>2018-04-21T09:47:27.000Z</Time>
            <Position>
              <LatitudeDegrees>43.19407470524311065673828125</LatitudeDegrees>
              <LongitudeDegrees>-8.34733645431697368621826171875</LongitudeDegrees>
            </Position>
            <AltitudeMeters>296.600006103515625</AltitudeMeters>
            <DistanceMeters>28700.983990192</DistanceMeters>
          </Trackpoint>
          <Trackpoint>
            <Time>2018-04-21T09:47:28.000Z</Time>
            <Position>
              <LatitudeDegrees>43.1940560974180698394775390625</LatitudeDegrees>
              <LongitudeDegrees>-8.3473303355276584625244140625</LongitudeDegrees>
            </Position>
            <AltitudeMeters>296.79998779296875</AltitudeMeters>
            <DistanceMeters>28703.113097604</DistanceMeters>
          </Trackpoint>
          <Trackpoint>
            <Time>2018-04-21T09:47:34.000Z</Time>
            <Position>
              <LatitudeDegrees>43.1939494796097278594970703125</LatitudeDegrees>
              <LongitudeDegrees>-8.34729504771530628204345703125</LongitudeDegrees>
            </Position>
            <AltitudeMeters>297.79998779296875</AltitudeMeters>
            <DistanceMeters>28715.320239837</DistanceMeters>
          </Trackpoint>
          <Trackpoint>
            <Time>2018-04-21T09:47:35.000Z</Time>
            <Position>
              <LatitudeDegrees>43.19394185207784175872802734375</LatitudeDegrees>
              <LongitudeDegrees>-8.34728582762181758880615234375</LongitudeDegrees>
            </Position>
            <AltitudeMeters>298.20001220703125</AltitudeMeters>
            <DistanceMeters>28716.452613827</DistanceMeters>
          </Trackpoint>
          <Trackpoint>
            <Time>2018-04-21T09:47:38.000Z</Time>
            <Position>
              <LatitudeDegrees>43.193908743560314178466796875</LatitudeDegrees>
              <LongitudeDegrees>-8.3472585864365100860595703125</LongitudeDegrees>
            </Position>
            <AltitudeMeters>298.79998779296875</AltitudeMeters>
            <DistanceMeters>28720.748830332</DistanceMeters>
          </Trackpoint>
          <Trackpoint>
            <Time>2018-04-21T09:47:41.000Z</Time>
            <Position>
              <LatitudeDegrees>43.19386876188218593597412109375</LatitudeDegrees>
              <LongitudeDegrees>-8.34723469801247119903564453125</LongitudeDegrees>
            </Position>
            <AltitudeMeters>299.399993896484375</AltitudeMeters>
            <DistanceMeters>28725.602640118</DistanceMeters>
          </Trackpoint>
          <Trackpoint>
            <Time>2018-04-21T09:47:44.000Z</Time>
            <Position>
              <LatitudeDegrees>43.1938230805099010467529296875</LatitudeDegrees>
              <LongitudeDegrees>-8.34719697944819927215576171875</LongitudeDegrees>
            </Position>
            <AltitudeMeters>299.79998779296875</AltitudeMeters>
            <DistanceMeters>28731.537056528</DistanceMeters>
          </Trackpoint>
          <Trackpoint>
            <Time>2018-04-21T09:47:46.000Z</Time>
            <Position>
              <LatitudeDegrees>43.19379114545881748199462890625</LatitudeDegrees>
              <LongitudeDegrees>-8.347181640565395355224609375</LongitudeDegrees>
            </Position>
            <AltitudeMeters>300.399993896484375</AltitudeMeters>
            <DistanceMeters>28735.304718956</DistanceMeters>
          </Trackpoint>
          <Trackpoint>
            <Time>2018-04-21T09:47:49.000Z</Time>
            <Position>
              <LatitudeDegrees>43.19374538026750087738037109375</LatitudeDegrees>
              <LongitudeDegrees>-8.3471549861133098602294921875</LongitudeDegrees>
            </Position>
            <AltitudeMeters>300.79998779296875</AltitudeMeters>
            <DistanceMeters>28740.83915834</DistanceMeters>
          </Trackpoint>
          <Trackpoint>
            <Time>2018-04-21T09:47:52.000Z</Time>
            <Position>
              <LatitudeDegrees>43.193693496286869049072265625</LatitudeDegrees>
              <LongitudeDegrees>-8.3471181057393550872802734375</LongitudeDegrees>
            </Position>
            <AltitudeMeters>301.399993896484375</AltitudeMeters>
            <DistanceMeters>28747.342763346</DistanceMeters>
          </Trackpoint>
          <Trackpoint>
            <Time>2018-04-21T09:47:55.000Z</Time>
            <Position>
              <LatitudeDegrees>43.19365049712359905242919921875</LatitudeDegrees>
              <LongitudeDegrees>-8.34708566777408123016357421875</LongitudeDegrees>
            </Position>
            <AltitudeMeters>302</AltitudeMeters>
            <DistanceMeters>28752.804939887</DistanceMeters>
          </Trackpoint>
          <Trackpoint>
            <Time>2018-04-21T09:47:58.000Z</Time>
            <Position>
              <LatitudeDegrees>43.1936167180538177490234375</LatitudeDegrees>
              <LongitudeDegrees>-8.3470487035810947418212890625</LongitudeDegrees>
            </Position>
            <AltitudeMeters>302.399993896484375</AltitudeMeters>
            <DistanceMeters>28757.614831346</DistanceMeters>
          </Trackpoint>
          <Trackpoint>
            <Time>2018-04-21T09:48:03.000Z</Time>
            <Position>
              <LatitudeDegrees>43.19355226121842861175537109375</LatitudeDegrees>
              <LongitudeDegrees>-8.34697653539478778839111328125</LongitudeDegrees>
            </Position>
            <AltitudeMeters>303.20001220703125</AltitudeMeters>
            <DistanceMeters>28766.875914764</DistanceMeters>
          </Trackpoint>
          <Trackpoint>
            <Time>2018-04-21T09:48:05.000Z</Time>
            <Position>
              <LatitudeDegrees>43.1935297138988971710205078125</LatitudeDegrees>
              <LongitudeDegrees>-8.34695465862751007080078125</LongitudeDegrees>
            </Position>
            <AltitudeMeters>303.600006103515625</AltitudeMeters>
            <DistanceMeters>28769.949261467</DistanceMeters>
          </Trackpoint>
          <Trackpoint>
            <Time>2018-04-21T09:48:10.000Z</Time>
            <Position>
              <LatitudeDegrees>43.19347816519439220428466796875</LatitudeDegrees>
              <LongitudeDegrees>-8.3468988351523876190185546875</LongitudeDegrees>
            </Position>
            <AltitudeMeters>304.20001220703125</AltitudeMeters>
            <DistanceMeters>28777.2595277</DistanceMeters>
          </Trackpoint>
          <Trackpoint>
            <Time>2018-04-21T09:48:11.000Z</Time>
            <Position>
              <LatitudeDegrees>43.1934700347483158111572265625</LatitudeDegrees>
              <LongitudeDegrees>-8.3468834124505519866943359375</LongitudeDegrees>
            </Position>
            <AltitudeMeters>304.399993896484375</AltitudeMeters>
            <DistanceMeters>28778.803529054</DistanceMeters>
          </Trackpoint>
          <Trackpoint>
            <Time>2018-04-21T09:48:15.000Z</Time>
            <Position>
              <LatitudeDegrees>43.19343499839305877685546875</LatitudeDegrees>
              <LongitudeDegrees>-8.34682297892868518829345703125</LongitudeDegrees>
            </Position>
            <AltitudeMeters>305.20001220703125</AltitudeMeters>
            <DistanceMeters>28785.068089073</DistanceMeters>
          </Trackpoint>
          <Trackpoint>
            <Time>2018-04-21T09:48:17.000Z</Time>
            <Position>
              <LatitudeDegrees>43.193411864340305328369140625</LatitudeDegrees>
              <LongitudeDegrees>-8.34680219180881977081298828125</LongitudeDegrees>
            </Position>
            <AltitudeMeters>305.600006103515625</AltitudeMeters>
            <DistanceMeters>28788.145839906</DistanceMeters>
          </Trackpoint>
          <Trackpoint>
            <Time>2018-04-21T09:48:19.000Z</Time>
            <Position>
              <LatitudeDegrees>43.19339702837169170379638671875</LatitudeDegrees>
              <LongitudeDegrees>-8.34677687846124172210693359375</LongitudeDegrees>
            </Position>
            <AltitudeMeters>306</AltitudeMeters>
            <DistanceMeters>28790.782724215</DistanceMeters>
          </Trackpoint>
          <Trackpoint>
            <Time>2018-04-21T09:48:20.000Z</Time>
            <Position>
              <LatitudeDegrees>43.1933845393359661102294921875</LatitudeDegrees>
              <LongitudeDegrees>-8.3467687480151653289794921875</LongitudeDegrees>
            </Position>
            <AltitudeMeters>306.20001220703125</AltitudeMeters>
            <DistanceMeters>28792.32379855</DistanceMeters>
          </Trackpoint>
          <Trackpoint>
            <Time>2018-04-21T09:48:21.000Z</Time>
            <Position>
              <LatitudeDegrees>43.19337422959506511688232421875</LatitudeDegrees>
              <LongitudeDegrees>-8.34674418903887271881103515625</LongitudeDegrees>
            </Position>
            <AltitudeMeters>306.600006103515625</AltitudeMeters>
            <DistanceMeters>28794.624151739</DistanceMeters>
          </Trackpoint>
          <Trackpoint>
            <Time>2018-04-21T09:48:22.000Z</Time>
            <Position>
              <LatitudeDegrees>43.193368278443813323974609375</LatitudeDegrees>
              <LongitudeDegrees>-8.34672407247126102447509765625</LongitudeDegrees>
            </Position>
            <AltitudeMeters>307</AltitudeMeters>
            <DistanceMeters>28796.386634731</DistanceMeters>
          </Trackpoint>
          <Trackpoint>
            <Time>2018-04-21T09:48:25.000Z</Time>
            <Position>
              <LatitudeDegrees>43.19333575665950775146484375</LatitudeDegrees>
              <LongitudeDegrees>-8.34667948074638843536376953125</LongitudeDegrees>
            </Position>
            <AltitudeMeters>307.399993896484375</AltitudeMeters>
            <DistanceMeters>28801.505744208</DistanceMeters>
          </Trackpoint>
          <Trackpoint>
            <Time>2018-04-21T09:48:29.000Z</Time>
            <Position>
              <LatitudeDegrees>43.1932909972965717315673828125</LatitudeDegrees>
              <LongitudeDegrees>-8.34662231616675853729248046875</LongitudeDegrees>
            </Position>
            <AltitudeMeters>308.399993896484375</AltitudeMeters>
            <DistanceMeters>28808.311939339</DistanceMeters>
          </Trackpoint>
          <Trackpoint>
            <Time>2018-04-21T09:48:33.000Z</Time>
            <Position>
              <LatitudeDegrees>43.193246908485889434814453125</LatitudeDegrees>
              <LongitudeDegrees>-8.34654620848596096038818359375</LongitudeDegrees>
            </Position>
            <AltitudeMeters>309.600006103515625</AltitudeMeters>
            <DistanceMeters>28816.199729061</DistanceMeters>
          </Trackpoint>
          <Trackpoint>
            <Time>2018-04-21T09:48:36.000Z</Time>
            <Position>
              <LatitudeDegrees>43.1932192482054233551025390625</LatitudeDegrees>
              <LongitudeDegrees>-8.3464985154569149017333984375</LongitudeDegrees>
            </Position>
            <AltitudeMeters>310.600006103515625</AltitudeMeters>
            <DistanceMeters>28821.14568469</DistanceMeters>
          </Trackpoint>
          <Trackpoint>
            <Time>2018-04-21T09:48:37.000Z</Time>
            <Position>
              <LatitudeDegrees>43.193206675350666046142578125</LatitudeDegrees>
              <LongitudeDegrees>-8.346483595669269561767578125</LongitudeDegrees>
            </Position>
            <AltitudeMeters>310.79998779296875</AltitudeMeters>
            <DistanceMeters>28822.995657385</DistanceMeters>
          </Trackpoint>
          <Trackpoint>
            <Time>2018-04-21T09:48:41.000Z</Time>
            <Position>
              <LatitudeDegrees>43.19316945970058441162109375</LatitudeDegrees>
              <LongitudeDegrees>-8.346431963145732879638671875</LongitudeDegrees>
            </Position>
            <AltitudeMeters>312</AltitudeMeters>
            <DistanceMeters>28828.887313676</DistanceMeters>
          </Trackpoint>
          <Trackpoint>
            <Time>2018-04-21T09:48:44.000Z</Time>
            <Position>
              <LatitudeDegrees>43.19314355961978435516357421875</LatitudeDegrees>
              <LongitudeDegrees>-8.34639198146760463714599609375</LongitudeDegrees>
            </Position>
            <AltitudeMeters>313.20001220703125</AltitudeMeters>
            <DistanceMeters>28833.227444949</DistanceMeters>
          </Trackpoint>
          <Trackpoint>
            <Time>2018-04-21T09:48:46.000Z</Time>
            <Position>
              <LatitudeDegrees>43.193131573498249053955078125</LatitudeDegrees>
              <LongitudeDegrees>-8.34636834450066089630126953125</LongitudeDegrees>
            </Position>
            <AltitudeMeters>313.600006103515625</AltitudeMeters>
            <DistanceMeters>28835.56286058</DistanceMeters>
          </Trackpoint>
          <Trackpoint>
            <Time>2018-04-21T09:48:47.000Z</Time>
            <Position>
              <LatitudeDegrees>43.1931231915950775146484375</LatitudeDegrees>
              <LongitudeDegrees>-8.34635275416076183319091796875</LongitudeDegrees>
            </Position>
            <AltitudeMeters>314.20001220703125</AltitudeMeters>
            <DistanceMeters>28837.135832591</DistanceMeters>
          </Trackpoint>
          <Trackpoint>
            <Time>2018-04-21T09:48:50.000Z</Time>
            <Position>
              <LatitudeDegrees>43.193090669810771942138671875</LatitudeDegrees>
              <LongitudeDegrees>-8.3463214896619319915771484375</LongitudeDegrees>
            </Position>
            <AltitudeMeters>315.399993896484375</AltitudeMeters>
            <DistanceMeters>28841.556362584</DistanceMeters>
          </Trackpoint>
          <Trackpoint>
            <Time>2018-04-21T09:48:53.000Z</Time>
            <Position>
              <LatitudeDegrees>43.19306309334933757781982421875</LatitudeDegrees>
              <LongitudeDegrees>-8.3462869562208652496337890625</LongitudeDegrees>
            </Position>
            <AltitudeMeters>315.79998779296875</AltitudeMeters>
            <DistanceMeters>28845.713713461</DistanceMeters>
          </Trackpoint>
          <Trackpoint>
            <Time>2018-04-21T09:48:55.000Z</Time>
            <Position>
              <LatitudeDegrees>43.19304406642913818359375</LatitudeDegrees>
              <LongitudeDegrees>-8.346260972321033477783203125</LongitudeDegrees>
            </Position>
            <AltitudeMeters>316.600006103515625</AltitudeMeters>
            <DistanceMeters>28848.702148771</DistanceMeters>
          </Trackpoint>
          <Trackpoint>
            <Time>2018-04-21T09:48:58.000Z</Time>
            <Position>
              <LatitudeDegrees>43.19301397539675235748291015625</LatitudeDegrees>
              <LongitudeDegrees>-8.34621847607195377349853515625</LongitudeDegrees>
            </Position>
            <AltitudeMeters>317.600006103515625</AltitudeMeters>
            <DistanceMeters>28853.510162467</DistanceMeters>
          </Trackpoint>
          <Trackpoint>
            <Time>2018-04-21T09:49:01.000Z</Time>
            <Position>
              <LatitudeDegrees>43.1929875724017620086669921875</LatitudeDegrees>
              <LongitudeDegrees>-8.3461944200098514556884765625</LongitudeDegrees>
            </Position>
            <AltitudeMeters>318.20001220703125</AltitudeMeters>
            <DistanceMeters>28857.038968981</DistanceMeters>
          </Trackpoint>
          <Trackpoint>
            <Time>2018-04-21T09:49:03.000Z</Time>
            <Position>
              <LatitudeDegrees>43.19297525100409984588623046875</LatitudeDegrees>
              <LongitudeDegrees>-8.346180506050586700439453125</LongitudeDegrees>
            </Position>
            <AltitudeMeters>318.79998779296875</AltitudeMeters>
            <DistanceMeters>28858.81675602</DistanceMeters>
          </Trackpoint>
          <Trackpoint>
            <Time>2018-04-21T09:49:07.000Z</Time>
            <Position>
              <LatitudeDegrees>43.192944489419460296630859375</LatitudeDegrees>
              <LongitudeDegrees>-8.34613583050668239593505859375</LongitudeDegrees>
            </Position>
            <AltitudeMeters>319.79998779296875</AltitudeMeters>
            <DistanceMeters>28863.803621822</DistanceMeters>
          </Trackpoint>
          <Trackpoint>
            <Time>2018-04-21T09:49:08.000Z</Time>
            <Position>
              <LatitudeDegrees>43.1929379515349864959716796875</LatitudeDegrees>
              <LongitudeDegrees>-8.34613482467830181121826171875</LongitudeDegrees>
            </Position>
            <AltitudeMeters>319.79998779296875</AltitudeMeters>
            <DistanceMeters>28864.539695587</DistanceMeters>
          </Trackpoint>
          <Trackpoint>
            <Time>2018-04-21T09:49:13.000Z</Time>
            <Position>
              <LatitudeDegrees>43.19286846555769443511962890625</LatitudeDegrees>
              <LongitudeDegrees>-8.34609140641987323760986328125</LongitudeDegrees>
            </Position>
            <AltitudeMeters>321.20001220703125</AltitudeMeters>
            <DistanceMeters>28873.03808081</DistanceMeters>
          </Trackpoint>
          <Trackpoint>
            <Time>2018-04-21T09:49:14.000Z</Time>
            <Position>
              <LatitudeDegrees>43.19286159239709377288818359375</LatitudeDegrees>
              <LongitudeDegrees>-8.3460831083357334136962890625</LongitudeDegrees>
            </Position>
            <AltitudeMeters>321.399993896484375</AltitudeMeters>
            <DistanceMeters>28874.057128792</DistanceMeters>
          </Trackpoint>
          <Trackpoint>
            <Time>2018-04-21T09:49:17.000Z</Time>
            <Position>
              <LatitudeDegrees>43.19282638840377330780029296875</LatitudeDegrees>
              <LongitudeDegrees>-8.34605268202722072601318359375</LongitudeDegrees>
            </Position>
            <AltitudeMeters>322.20001220703125</AltitudeMeters>
            <DistanceMeters>28878.689132854</DistanceMeters>
          </Trackpoint>
          <Trackpoint>
            <Time>2018-04-21T09:49:18.000Z</Time>
            <Position>
              <LatitudeDegrees>43.1928135640919208526611328125</LatitudeDegrees>
              <LongitudeDegrees>-8.34604673087596893310546875</LongitudeDegrees>
            </Position>
            <AltitudeMeters>322.399993896484375</AltitudeMeters>
            <DistanceMeters>28880.197635179</DistanceMeters>
          </Trackpoint>
          <Trackpoint>
            <Time>2018-04-21T09:49:21.000Z</Time>
            <Position>
              <LatitudeDegrees>43.19277207367122173309326171875</LatitudeDegrees>
              <LongitudeDegrees>-8.3460366725921630859375</LongitudeDegrees>
            </Position>
            <AltitudeMeters>323</AltitudeMeters>
            <DistanceMeters>28884.887759508</DistanceMeters>
          </Trackpoint>
          <Trackpoint>
            <Time>2018-04-21T09:49:23.000Z</Time>
            <Position>
              <LatitudeDegrees>43.19274307228624820709228515625</LatitudeDegrees>
              <LongitudeDegrees>-8.34603331983089447021484375</LongitudeDegrees>
            </Position>
            <AltitudeMeters>323.600006103515625</AltitudeMeters>
            <DistanceMeters>28888.127041655</DistanceMeters>
          </Trackpoint>
          <Trackpoint>
            <Time>2018-04-21T09:49:29.000Z</Time>
            <Position>
              <LatitudeDegrees>43.19265841506421566009521484375</LatitudeDegrees>
              <LongitudeDegrees>-8.3460019715130329132080078125</LongitudeDegrees>
            </Position>
            <AltitudeMeters>324.600006103515625</AltitudeMeters>
            <DistanceMeters>28897.886613691</DistanceMeters>
          </Trackpoint>
          <Trackpoint>
            <Time>2018-04-21T09:49:35.000Z</Time>
            <Position>
              <LatitudeDegrees>43.19258079864084720611572265625</LatitudeDegrees>
              <LongitudeDegrees>-8.34595662541687488555908203125</LongitudeDegrees>
            </Position>
            <AltitudeMeters>325.79998779296875</AltitudeMeters>
            <DistanceMeters>28907.276003252</DistanceMeters>
          </Trackpoint>
          <Trackpoint>
            <Time>2018-04-21T09:49:36.000Z</Time>
            <Position>
              <LatitudeDegrees>43.1925661303102970123291015625</LatitudeDegrees>
              <LongitudeDegrees>-8.34594991989433765411376953125</LongitudeDegrees>
            </Position>
            <AltitudeMeters>326.20001220703125</AltitudeMeters>
            <DistanceMeters>28908.997010246</DistanceMeters>
          </Trackpoint>
          <Trackpoint>
            <Time>2018-04-21T09:49:40.000Z</Time>
            <Position>
              <LatitudeDegrees>43.19250050000846385955810546875</LatitudeDegrees>
              <LongitudeDegrees>-8.34591907449066638946533203125</LongitudeDegrees>
            </Position>
            <AltitudeMeters>326.79998779296875</AltitudeMeters>
            <DistanceMeters>28916.719356057</DistanceMeters>
          </Trackpoint>
          <Trackpoint>
            <Time>2018-04-21T09:49:43.000Z</Time>
            <Position>
              <LatitudeDegrees>43.19246630184352397918701171875</LatitudeDegrees>
              <LongitudeDegrees>-8.3458930067718029022216796875</LongitudeDegrees>
            </Position>
            <AltitudeMeters>327.399993896484375</AltitudeMeters>
            <DistanceMeters>28921.074027174</DistanceMeters>
          </Trackpoint>
          <Trackpoint>
            <Time>2018-04-21T09:49:44.000Z</Time>
            <Position>
              <LatitudeDegrees>43.19246160797774791717529296875</LatitudeDegrees>
              <LongitudeDegrees>-8.34588051773607730865478515625</LongitudeDegrees>
            </Position>
            <AltitudeMeters>327.399993896484375</AltitudeMeters>
            <DistanceMeters>28922.214347746</DistanceMeters>
          </Trackpoint>
          <Trackpoint>
            <Time>2018-04-21T09:49:46.000Z</Time>
            <Position>
              <LatitudeDegrees>43.19243721663951873779296875</LatitudeDegrees>
              <LongitudeDegrees>-8.34586593322455883026123046875</LongitudeDegrees>
            </Position>
            <AltitudeMeters>328.20001220703125</AltitudeMeters>
            <DistanceMeters>28925.176987499</DistanceMeters>
          </Trackpoint>
          <Trackpoint>
            <Time>2018-04-21T09:49:48.000Z</Time>
            <Position>
              <LatitudeDegrees>43.19241366349160671234130859375</LatitudeDegrees>
              <LongitudeDegrees>-8.34586643613874912261962890625</LongitudeDegrees>
            </Position>
            <AltitudeMeters>328.600006103515625</AltitudeMeters>
            <DistanceMeters>28927.800137943</DistanceMeters>
          </Trackpoint>
          <Trackpoint>
            <Time>2018-04-21T09:49:49.000Z</Time>
            <Position>
              <LatitudeDegrees>43.19239924661815166473388671875</LatitudeDegrees>
              <LongitudeDegrees>-8.34585939534008502960205078125</LongitudeDegrees>
            </Position>
            <AltitudeMeters>328.600006103515625</AltitudeMeters>
            <DistanceMeters>28929.505331367</DistanceMeters>
          </Trackpoint>
          <Trackpoint>
            <Time>2018-04-21T09:49:50.000Z</Time>
            <Position>
              <LatitudeDegrees>43.1923874281346797943115234375</LatitudeDegrees>
              <LongitudeDegrees>-8.34585336036980152130126953125</LongitudeDegrees>
            </Position>
            <AltitudeMeters>328.79998779296875</AltitudeMeters>
            <DistanceMeters>28930.908383991</DistanceMeters>
          </Trackpoint>
          <Trackpoint>
            <Time>2018-04-21T09:49:53.000Z</Time>
            <Position>
              <LatitudeDegrees>43.19235566072165966033935546875</LatitudeDegrees>
              <LongitudeDegrees>-8.3458329923450946807861328125</LongitudeDegrees>
            </Position>
            <AltitudeMeters>329.20001220703125</AltitudeMeters>
            <DistanceMeters>28934.811426261</DistanceMeters>
          </Trackpoint>
          <Trackpoint>
            <Time>2018-04-21T09:49:56.000Z</Time>
            <Position>
              <LatitudeDegrees>43.1923247314989566802978515625</LatitudeDegrees>
              <LongitudeDegrees>-8.3458061702549457550048828125</LongitudeDegrees>
            </Position>
            <AltitudeMeters>329.79998779296875</AltitudeMeters>
            <DistanceMeters>28938.885402268</DistanceMeters>
          </Trackpoint>
          <Trackpoint>
            <Time>2018-04-21T09:50:00.000Z</Time>
            <Position>
              <LatitudeDegrees>43.192278631031513214111328125</LatitudeDegrees>
              <LongitudeDegrees>-8.345795609056949615478515625</LongitudeDegrees>
            </Position>
            <AltitudeMeters>330.399993896484375</AltitudeMeters>
            <DistanceMeters>28944.086758728</DistanceMeters>
          </Trackpoint>
          <Trackpoint>
            <Time>2018-04-21T09:50:01.000Z</Time>
            <Position>
              <LatitudeDegrees>43.1922670640051364898681640625</LatitudeDegrees>
              <LongitudeDegrees>-8.34577850997447967529296875</LongitudeDegrees>
            </Position>
            <AltitudeMeters>330.600006103515625</AltitudeMeters>
            <DistanceMeters>28945.977766467</DistanceMeters>
          </Trackpoint>
          <Trackpoint>
            <Time>2018-04-21T09:50:05.000Z</Time>
            <Position>
              <LatitudeDegrees>43.19221920333802700042724609375</LatitudeDegrees>
              <LongitudeDegrees>-8.34575981833040714263916015625</LongitudeDegrees>
            </Position>
            <AltitudeMeters>331.79998779296875</AltitudeMeters>
            <DistanceMeters>28951.516283388</DistanceMeters>
          </Trackpoint>
          <Trackpoint>
            <Time>2018-04-21T09:50:08.000Z</Time>
            <Position>
              <LatitudeDegrees>43.1921617873013019561767578125</LatitudeDegrees>
              <LongitudeDegrees>-8.345754034817218780517578125</LongitudeDegrees>
            </Position>
            <AltitudeMeters>332.600006103515625</AltitudeMeters>
            <DistanceMeters>28957.92407221</DistanceMeters>
          </Trackpoint>
          <Trackpoint>
            <Time>2018-04-21T09:50:10.000Z</Time>
            <Position>
              <LatitudeDegrees>43.19212473928928375244140625</LatitudeDegrees>
              <LongitudeDegrees>-8.34575059823691844940185546875</LongitudeDegrees>
            </Position>
            <AltitudeMeters>332.79998779296875</AltitudeMeters>
            <DistanceMeters>28962.057461211</DistanceMeters>
          </Trackpoint>
          <Trackpoint>
            <Time>2018-04-21T09:50:12.000Z</Time>
            <Position>
              <LatitudeDegrees>43.1920876912772655487060546875</LatitudeDegrees>
              <LongitudeDegrees>-8.3457548730075359344482421875</LongitudeDegrees>
            </Position>
            <AltitudeMeters>334</AltitudeMeters>
            <DistanceMeters>28966.195217238</DistanceMeters>
          </Trackpoint>
          <Trackpoint>
            <Time>2018-04-21T09:50:14.000Z</Time>
            <Position>
              <LatitudeDegrees>43.19205424748361110687255859375</LatitudeDegrees>
              <LongitudeDegrees>-8.34576752968132495880126953125</LongitudeDegrees>
            </Position>
            <AltitudeMeters>332.79998779296875</AltitudeMeters>
            <DistanceMeters>28970.057559311</DistanceMeters>
          </Trackpoint>
          <Trackpoint>
            <Time>2018-04-21T09:50:20.000Z</Time>
            <Position>
              <LatitudeDegrees>43.1919696740806102752685546875</LatitudeDegrees>
              <LongitudeDegrees>-8.34578655660152435302734375</LongitudeDegrees>
            </Position>
            <AltitudeMeters>333.79998779296875</AltitudeMeters>
            <DistanceMeters>28979.596272549</DistanceMeters>
          </Trackpoint>
          <Trackpoint>
            <Time>2018-04-21T09:50:21.000Z</Time>
            <Position>
              <LatitudeDegrees>43.19196045398712158203125</LatitudeDegrees>
              <LongitudeDegrees>-8.345785550773143768310546875</LongitudeDegrees>
            </Position>
            <AltitudeMeters>333.79998779296875</AltitudeMeters>
            <DistanceMeters>28980.628526888</DistanceMeters>
          </Trackpoint>
          <Trackpoint>
            <Time>2018-04-21T09:50:26.000Z</Time>
            <Position>
              <LatitudeDegrees>43.19189004600048065185546875</LatitudeDegrees>
              <LongitudeDegrees>-8.34578714333474636077880859375</LongitudeDegrees>
            </Position>
            <AltitudeMeters>334.79998779296875</AltitudeMeters>
            <DistanceMeters>28988.465782784</DistanceMeters>
          </Trackpoint>
          <Trackpoint>
            <Time>2018-04-21T09:50:29.000Z</Time>
            <Position>
              <LatitudeDegrees>43.19185006432235240936279296875</LatitudeDegrees>
              <LongitudeDegrees>-8.34578781388700008392333984375</LongitudeDegrees>
            </Position>
            <AltitudeMeters>335.399993896484375</AltitudeMeters>
            <DistanceMeters>28992.916848692</DistanceMeters>
          </Trackpoint>
          <Trackpoint>
            <Time>2018-04-21T09:50:32.000Z</Time>
            <Position>
              <LatitudeDegrees>43.19180446676909923553466796875</LatitudeDegrees>
              <LongitudeDegrees>-8.34578546695411205291748046875</LongitudeDegrees>
            </Position>
            <AltitudeMeters>336.20001220703125</AltitudeMeters>
            <DistanceMeters>28997.995224251</DistanceMeters>
          </Trackpoint>
          <Trackpoint>
            <Time>2018-04-21T09:50:36.000Z</Time>
            <Position>
              <LatitudeDegrees>43.19173824973404407501220703125</LatitudeDegrees>
              <LongitudeDegrees>-8.34579854272305965423583984375</LongitudeDegrees>
            </Position>
            <AltitudeMeters>337.20001220703125</AltitudeMeters>
            <DistanceMeters>29005.441341989</DistanceMeters>
          </Trackpoint>
          <Trackpoint>
            <Time>2018-04-21T09:50:43.000Z</Time>
            <Position>
              <LatitudeDegrees>43.19164470769464969635009765625</LatitudeDegrees>
              <LongitudeDegrees>-8.345816396176815032958984375</LongitudeDegrees>
            </Position>
            <AltitudeMeters>338.399993896484375</AltitudeMeters>
            <DistanceMeters>29015.952860213</DistanceMeters>
          </Trackpoint>
          <Trackpoint>
            <Time>2018-04-21T09:50:47.000Z</Time>
            <Position>
              <LatitudeDegrees>43.191583938896656036376953125</LatitudeDegrees>
              <LongitudeDegrees>-8.3458261191844940185546875</LongitudeDegrees>
            </Position>
            <AltitudeMeters>339.399993896484375</AltitudeMeters>
            <DistanceMeters>29022.763034412</DistanceMeters>
          </Trackpoint>
          <Trackpoint>
            <Time>2018-04-21T09:50:49.000Z</Time>
            <Position>
              <LatitudeDegrees>43.19155837409198284149169921875</LatitudeDegrees>
              <LongitudeDegrees>-8.34583039395511150360107421875</LongitudeDegrees>
            </Position>
            <AltitudeMeters>339.600006103515625</AltitudeMeters>
            <DistanceMeters>29025.629629877</DistanceMeters>
          </Trackpoint>
          <Trackpoint>
            <Time>2018-04-21T09:50:53.000Z</Time>
            <Position>
              <LatitudeDegrees>43.19150959141552448272705078125</LatitudeDegrees>
              <LongitudeDegrees>-8.3458422124385833740234375</LongitudeDegrees>
            </Position>
            <AltitudeMeters>340.600006103515625</AltitudeMeters>
            <DistanceMeters>29031.142817459</DistanceMeters>
          </Trackpoint>
          <Trackpoint>
            <Time>2018-04-21T09:50:56.000Z</Time>
            <Position>
              <LatitudeDegrees>43.19147690199315547943115234375</LatitudeDegrees>
              <LongitudeDegrees>-8.3458504267036914825439453125</LongitudeDegrees>
            </Position>
            <AltitudeMeters>341</AltitudeMeters>
            <DistanceMeters>29034.840321446</DistanceMeters>
          </Trackpoint>
          <Trackpoint>
            <Time>2018-04-21T09:50:59.000Z</Time>
            <Position>
              <LatitudeDegrees>43.19143046624958515167236328125</LatitudeDegrees>
              <LongitudeDegrees>-8.34586023353040218353271484375</LongitudeDegrees>
            </Position>
            <AltitudeMeters>341.79998779296875</AltitudeMeters>
            <DistanceMeters>29040.069381732</DistanceMeters>
          </Trackpoint>
          <Trackpoint>
            <Time>2018-04-21T09:51:03.000Z</Time>
            <Position>
              <LatitudeDegrees>43.191384114325046539306640625</LatitudeDegrees>
              <LongitudeDegrees>-8.34587096236646175384521484375</LongitudeDegrees>
            </Position>
            <AltitudeMeters>343</AltitudeMeters>
            <DistanceMeters>29045.30103173</DistanceMeters>
          </Trackpoint>
          <Trackpoint>
            <Time>2018-04-21T09:51:08.000Z</Time>
            <Position>
              <LatitudeDegrees>43.1913209147751331329345703125</LatitudeDegrees>
              <LongitudeDegrees>-8.34588286466896533966064453125</LongitudeDegrees>
            </Position>
            <AltitudeMeters>344.20001220703125</AltitudeMeters>
            <DistanceMeters>29052.400742056</DistanceMeters>
          </Trackpoint>
          <Trackpoint>
            <Time>2018-04-21T09:51:10.000Z</Time>
            <Position>
              <LatitudeDegrees>43.1912971101701259613037109375</LatitudeDegrees>
              <LongitudeDegrees>-8.345886133611202239990234375</LongitudeDegrees>
            </Position>
            <AltitudeMeters>344.20001220703125</AltitudeMeters>
            <DistanceMeters>29055.061490058</DistanceMeters>
          </Trackpoint>
          <Trackpoint>
            <Time>2018-04-21T09:51:14.000Z</Time>
            <Position>
              <LatitudeDegrees>43.1912375986576080322265625</LatitudeDegrees>
              <LongitudeDegrees>-8.3459173142910003662109375</LongitudeDegrees>
            </Position>
            <AltitudeMeters>345.20001220703125</AltitudeMeters>
            <DistanceMeters>29062.152291539</DistanceMeters>
          </Trackpoint>
          <Trackpoint>
            <Time>2018-04-21T09:51:18.000Z</Time>
            <Position>
              <LatitudeDegrees>43.1911861337721347808837890625</LatitudeDegrees>
              <LongitudeDegrees>-8.34595126099884510040283203125</LongitudeDegrees>
            </Position>
            <AltitudeMeters>345.79998779296875</AltitudeMeters>
            <DistanceMeters>29068.5077248</DistanceMeters>
          </Trackpoint>
          <Trackpoint>
            <Time>2018-04-21T09:51:21.000Z</Time>
            <Position>
              <LatitudeDegrees>43.19114648737013339996337890625</LatitudeDegrees>
              <LongitudeDegrees>-8.3459761552512645721435546875</LongitudeDegrees>
            </Position>
            <AltitudeMeters>346.20001220703125</AltitudeMeters>
            <DistanceMeters>29073.362464702</DistanceMeters>
          </Trackpoint>
          <Trackpoint>
            <Time>2018-04-21T09:51:25.000Z</Time>
            <Position>
              <LatitudeDegrees>43.191089741885662078857421875</LatitudeDegrees>
              <LongitudeDegrees>-8.346004150807857513427734375</LongitudeDegrees>
            </Position>
            <AltitudeMeters>347.399993896484375</AltitudeMeters>
            <DistanceMeters>29080.073799987</DistanceMeters>
          </Trackpoint>
          <Trackpoint>
            <Time>2018-04-21T09:51:31.000Z</Time>
            <Position>
              <LatitudeDegrees>43.19101371802389621734619140625</LatitudeDegrees>
              <LongitudeDegrees>-8.34599249996244907379150390625</LongitudeDegrees>
            </Position>
            <AltitudeMeters>348.399993896484375</AltitudeMeters>
            <DistanceMeters>29088.588108749</DistanceMeters>
          </Trackpoint>
          <Trackpoint>
            <Time>2018-04-21T09:51:32.000Z</Time>
            <Position>
              <LatitudeDegrees>43.19100013934075832366943359375</LatitudeDegrees>
              <LongitudeDegrees>-8.34599266760051250457763671875</LongitudeDegrees>
            </Position>
            <AltitudeMeters>349</AltitudeMeters>
            <DistanceMeters>29090.09960117</DistanceMeters>
          </Trackpoint>
          <Trackpoint>
            <Time>2018-04-21T09:51:35.000Z</Time>
            <Position>
              <LatitudeDegrees>43.1909640133380889892578125</LatitudeDegrees>
              <LongitudeDegrees>-8.345973305404186248779296875</LongitudeDegrees>
            </Position>
            <AltitudeMeters>349.20001220703125</AltitudeMeters>
            <DistanceMeters>29094.415739224</DistanceMeters>
          </Trackpoint>
          <Trackpoint>
            <Time>2018-04-21T09:51:36.000Z</Time>
            <Position>
              <LatitudeDegrees>43.19095253013074398040771484375</LatitudeDegrees>
              <LongitudeDegrees>-8.3459694497287273406982421875</LongitudeDegrees>
            </Position>
            <AltitudeMeters>349.600006103515625</AltitudeMeters>
            <DistanceMeters>29095.732468003</DistanceMeters>
          </Trackpoint>
          <Trackpoint>
            <Time>2018-04-21T09:51:38.000Z</Time>
            <Position>
              <LatitudeDegrees>43.19092537276446819305419921875</LatitudeDegrees>
              <LongitudeDegrees>-8.34597154520452022552490234375</LongitudeDegrees>
            </Position>
            <AltitudeMeters>350.20001220703125</AltitudeMeters>
            <DistanceMeters>29098.758438511</DistanceMeters>
          </Trackpoint>
          <Trackpoint>
            <Time>2018-04-21T09:51:41.000Z</Time>
            <Position>
              <LatitudeDegrees>43.19087910465896129608154296875</LatitudeDegrees>
              <LongitudeDegrees>-8.3459801785647869110107421875</LongitudeDegrees>
            </Position>
            <AltitudeMeters>351</AltitudeMeters>
            <DistanceMeters>29103.95458406</DistanceMeters>
          </Trackpoint>
          <Trackpoint>
            <Time>2018-04-21T09:51:45.000Z</Time>
            <Position>
              <LatitudeDegrees>43.19082194007933139801025390625</LatitudeDegrees>
              <LongitudeDegrees>-8.34597766399383544921875</LongitudeDegrees>
            </Position>
            <AltitudeMeters>351.79998779296875</AltitudeMeters>
            <DistanceMeters>29110.320664729</DistanceMeters>
          </Trackpoint>
          <Trackpoint>
            <Time>2018-04-21T09:51:46.000Z</Time>
            <Position>
              <LatitudeDegrees>43.1908102892339229583740234375</LatitudeDegrees>
              <LongitudeDegrees>-8.345975987613201141357421875</LongitudeDegrees>
            </Position>
            <AltitudeMeters>352</AltitudeMeters>
            <DistanceMeters>29111.627066064</DistanceMeters>
          </Trackpoint>
          <Trackpoint>
            <Time>2018-04-21T09:51:50.000Z</Time>
            <Position>
              <LatitudeDegrees>43.190769888460636138916015625</LatitudeDegrees>
              <LongitudeDegrees>-8.34594824351370334625244140625</LongitudeDegrees>
            </Position>
            <AltitudeMeters>353.20001220703125</AltitudeMeters>
            <DistanceMeters>29116.655407147</DistanceMeters>
          </Trackpoint>
          <Trackpoint>
            <Time>2018-04-21T09:51:52.000Z</Time>
            <Position>
              <LatitudeDegrees>43.1907472573220729827880859375</LatitudeDegrees>
              <LongitudeDegrees>-8.34593944251537322998046875</LongitudeDegrees>
            </Position>
            <AltitudeMeters>353.600006103515625</AltitudeMeters>
            <DistanceMeters>29119.271663622</DistanceMeters>
          </Trackpoint>
          <Trackpoint>
            <Time>2018-04-21T09:51:54.000Z</Time>
            <Position>
              <LatitudeDegrees>43.1907217763364315032958984375</LatitudeDegrees>
              <LongitudeDegrees>-8.345924355089664459228515625</LongitudeDegrees>
            </Position>
            <AltitudeMeters>354.20001220703125</AltitudeMeters>
            <DistanceMeters>29122.361128106</DistanceMeters>
          </Trackpoint>
          <Trackpoint>
            <Time>2018-04-21T09:51:58.000Z</Time>
            <Position>
              <LatitudeDegrees>43.19066972471773624420166015625</LatitudeDegrees>
              <LongitudeDegrees>-8.3458983711898326873779296875</LongitudeDegrees>
            </Position>
            <AltitudeMeters>354.79998779296875</AltitudeMeters>
            <DistanceMeters>29128.526157851</DistanceMeters>
          </Trackpoint>
          <Trackpoint>
            <Time>2018-04-21T09:52:01.000Z</Time>
            <Position>
              <LatitudeDegrees>43.190637789666652679443359375</LatitudeDegrees>
              <LongitudeDegrees>-8.34588923491537570953369140625</LongitudeDegrees>
            </Position>
            <AltitudeMeters>355.600006103515625</AltitudeMeters>
            <DistanceMeters>29132.157123509</DistanceMeters>
          </Trackpoint>
          <Trackpoint>
            <Time>2018-04-21T09:52:03.000Z</Time>
            <Position>
              <LatitudeDegrees>43.19061574526131153106689453125</LatitudeDegrees>
              <LongitudeDegrees>-8.34587917663156986236572265625</LongitudeDegrees>
            </Position>
            <AltitudeMeters>356</AltitudeMeters>
            <DistanceMeters>29134.742129615</DistanceMeters>
          </Trackpoint>
          <Trackpoint>
            <Time>2018-04-21T09:52:06.000Z</Time>
            <Position>
              <LatitudeDegrees>43.190574087202548980712890625</LatitudeDegrees>
              <LongitudeDegrees>-8.34586299955844879150390625</LongitudeDegrees>
            </Position>
            <AltitudeMeters>356.79998779296875</AltitudeMeters>
            <DistanceMeters>29139.561398918</DistanceMeters>
          </Trackpoint>
          <Trackpoint>
            <Time>2018-04-21T09:52:09.000Z</Time>
            <Position>
              <LatitudeDegrees>43.19053259678184986114501953125</LatitudeDegrees>
              <LongitudeDegrees>-8.34584422409534454345703125</LongitudeDegrees>
            </Position>
            <AltitudeMeters>357.600006103515625</AltitudeMeters>
            <DistanceMeters>29144.424501858</DistanceMeters>
          </Trackpoint>
          <Trackpoint>
            <Time>2018-04-21T09:52:11.000Z</Time>
            <Position>
              <LatitudeDegrees>43.1905071996152400970458984375</LatitudeDegrees>
              <LongitudeDegrees>-8.3458333276212215423583984375</LongitudeDegrees>
            </Position>
            <AltitudeMeters>358.399993896484375</AltitudeMeters>
            <DistanceMeters>29147.387141611</DistanceMeters>
          </Trackpoint>
          <Trackpoint>
            <Time>2018-04-21T09:52:15.000Z</Time>
            <Position>
              <LatitudeDegrees>43.190461099147796630859375</LatitudeDegrees>
              <LongitudeDegrees>-8.34581782110035419464111328125</LongitudeDegrees>
            </Position>
            <AltitudeMeters>359.79998779296875</AltitudeMeters>
            <DistanceMeters>29152.669464605</DistanceMeters>
          </Trackpoint>
          <Trackpoint>
            <Time>2018-04-21T09:52:16.000Z</Time>
            <Position>
              <LatitudeDegrees>43.1904478557407855987548828125</LatitudeDegrees>
              <LongitudeDegrees>-8.34581513889133930206298828125</LongitudeDegrees>
            </Position>
            <AltitudeMeters>359.79998779296875</AltitudeMeters>
            <DistanceMeters>29154.159900381</DistanceMeters>
          </Trackpoint>
          <Trackpoint>
            <Time>2018-04-21T09:52:21.000Z</Time>
            <Position>
              <LatitudeDegrees>43.1903865002095699310302734375</LatitudeDegrees>
              <LongitudeDegrees>-8.34579485468566417694091796875</LongitudeDegrees>
            </Position>
            <AltitudeMeters>360.79998779296875</AltitudeMeters>
            <DistanceMeters>29161.18416815</DistanceMeters>
          </Trackpoint>
          <Trackpoint>
            <Time>2018-04-21T09:52:23.000Z</Time>
            <Position>
              <LatitudeDegrees>43.19036244414746761322021484375</LatitudeDegrees>
              <LongitudeDegrees>-8.34579099901020526885986328125</LongitudeDegrees>
            </Position>
            <AltitudeMeters>361</AltitudeMeters>
            <DistanceMeters>29163.87864054</DistanceMeters>
          </Trackpoint>
          <Trackpoint>
            <Time>2018-04-21T09:52:26.000Z</Time>
            <Position>
              <LatitudeDegrees>43.19032724015414714813232421875</LatitudeDegrees>
              <LongitudeDegrees>-8.34577943198382854461669921875</LongitudeDegrees>
            </Position>
            <AltitudeMeters>362</AltitudeMeters>
            <DistanceMeters>29167.908042164</DistanceMeters>
          </Trackpoint>
          <Trackpoint>
            <Time>2018-04-21T09:52:28.000Z</Time>
            <Position>
              <LatitudeDegrees>43.19030142389237880706787109375</LatitudeDegrees>
              <LongitudeDegrees>-8.3457749895751476287841796875</LongitudeDegrees>
            </Position>
            <AltitudeMeters>362.20001220703125</AltitudeMeters>
            <DistanceMeters>29170.802849747</DistanceMeters>
          </Trackpoint>
          <Trackpoint>
            <Time>2018-04-21T09:52:30.000Z</Time>
            <Position>
              <LatitudeDegrees>43.19027602672576904296875</LatitudeDegrees>
              <LongitudeDegrees>-8.345768451690673828125</LongitudeDegrees>
            </Position>
            <AltitudeMeters>363</AltitudeMeters>
            <DistanceMeters>29173.677309687</DistanceMeters>
          </Trackpoint>
          <Trackpoint>
            <Time>2018-04-21T09:52:36.000Z</Time>
            <Position>
              <LatitudeDegrees>43.19019757211208343505859375</LatitudeDegrees>
              <LongitudeDegrees>-8.34573500789701938629150390625</LongitudeDegrees>
            </Position>
            <AltitudeMeters>363.79998779296875</AltitudeMeters>
            <DistanceMeters>29182.821131524</DistanceMeters>
          </Trackpoint>
          <Trackpoint>
            <Time>2018-04-21T09:52:37.000Z</Time>
            <Position>
              <LatitudeDegrees>43.19018458016216754913330078125</LatitudeDegrees>
              <LongitudeDegrees>-8.34573064930737018585205078125</LongitudeDegrees>
            </Position>
            <AltitudeMeters>364.20001220703125</AltitudeMeters>
            <DistanceMeters>29184.308534875</DistanceMeters>
          </Trackpoint>
          <Trackpoint>
            <Time>2018-04-21T09:52:43.000Z</Time>
            <Position>
              <LatitudeDegrees>43.19010126404464244842529296875</LatitudeDegrees>
              <LongitudeDegrees>-8.34570466540753841400146484375</LongitudeDegrees>
            </Position>
            <AltitudeMeters>365.399993896484375</AltitudeMeters>
            <DistanceMeters>29193.818330645</DistanceMeters>
          </Trackpoint>
          <Trackpoint>
            <Time>2018-04-21T09:52:45.000Z</Time>
            <Position>
              <LatitudeDegrees>43.1900723464787006378173828125</LatitudeDegrees>
              <LongitudeDegrees>-8.34569460712373256683349609375</LongitudeDegrees>
            </Position>
            <AltitudeMeters>365.399993896484375</AltitudeMeters>
            <DistanceMeters>29197.140190578</DistanceMeters>
          </Trackpoint>
          <Trackpoint>
            <Time>2018-04-21T09:52:49.000Z</Time>
            <Position>
              <LatitudeDegrees>43.1900153495371341705322265625</LatitudeDegrees>
              <LongitudeDegrees>-8.345661498606204986572265625</LongitudeDegrees>
            </Position>
            <AltitudeMeters>366.399993896484375</AltitudeMeters>
            <DistanceMeters>29204.029463529</DistanceMeters>
          </Trackpoint>
          <Trackpoint>
            <Time>2018-04-21T09:52:52.000Z</Time>
            <Position>
              <LatitudeDegrees>43.18997469730675220489501953125</LatitudeDegrees>
              <LongitudeDegrees>-8.345639370381832122802734375</LongitudeDegrees>
            </Position>
            <AltitudeMeters>367</AltitudeMeters>
            <DistanceMeters>29208.897206393</DistanceMeters>
          </Trackpoint>
          <Trackpoint>
            <Time>2018-04-21T09:52:56.000Z</Time>
            <Position>
              <LatitudeDegrees>43.18989850580692291259765625</LatitudeDegrees>
              <LongitudeDegrees>-8.34561129100620746612548828125</LongitudeDegrees>
            </Position>
            <AltitudeMeters>367.600006103515625</AltitudeMeters>
            <DistanceMeters>29217.678312403</DistanceMeters>
          </Trackpoint>
          <Trackpoint>
            <Time>2018-04-21T09:53:00.000Z</Time>
            <Position>
              <LatitudeDegrees>43.18981694988906383514404296875</LatitudeDegrees>
              <LongitudeDegrees>-8.34557658992707729339599609375</LongitudeDegrees>
            </Position>
            <AltitudeMeters>368.20001220703125</AltitudeMeters>
            <DistanceMeters>29227.182409133</DistanceMeters>
          </Trackpoint>
          <Trackpoint>
            <Time>2018-04-21T09:53:02.000Z</Time>
            <Position>
              <LatitudeDegrees>43.18977822549641132354736328125</LatitudeDegrees>
              <LongitudeDegrees>-8.345562927424907684326171875</LongitudeDegrees>
            </Position>
            <AltitudeMeters>369</AltitudeMeters>
            <DistanceMeters>29231.632460554</DistanceMeters>
          </Trackpoint>
          <Trackpoint>
            <Time>2018-04-21T09:53:10.000Z</Time>
            <Position>
              <LatitudeDegrees>43.1896327994763851165771484375</LatitudeDegrees>
              <LongitudeDegrees>-8.34548522718250751495361328125</LongitudeDegrees>
            </Position>
            <AltitudeMeters>370</AltitudeMeters>
            <DistanceMeters>29249.003385528</DistanceMeters>
          </Trackpoint>
          <Trackpoint>
            <Time>2018-04-21T09:53:16.000Z</Time>
            <Position>
              <LatitudeDegrees>43.189520649611949920654296875</LatitudeDegrees>
              <LongitudeDegrees>-8.34540844894945621490478515625</LongitudeDegrees>
            </Position>
            <AltitudeMeters>371</AltitudeMeters>
            <DistanceMeters>29262.954524107</DistanceMeters>
          </Trackpoint>
          <Trackpoint>
            <Time>2018-04-21T09:53:17.000Z</Time>
            <Position>
              <LatitudeDegrees>43.18949826993048191070556640625</LatitudeDegrees>
              <LongitudeDegrees>-8.34539369679987430572509765625</LongitudeDegrees>
            </Position>
            <AltitudeMeters>371.20001220703125</AltitudeMeters>
            <DistanceMeters>29265.718478642</DistanceMeters>
          </Trackpoint>
          <Trackpoint>
            <Time>2018-04-21T09:53:24.000Z</Time>
            <Position>
              <LatitudeDegrees>43.18935401737689971923828125</LatitudeDegrees>
              <LongitudeDegrees>-8.34529898129403591156005859375</LongitudeDegrees>
            </Position>
            <AltitudeMeters>372.20001220703125</AltitudeMeters>
            <DistanceMeters>29283.518937972</DistanceMeters>
          </Trackpoint>
          <Trackpoint>
            <Time>2018-04-21T09:53:25.000Z</Time>
            <Position>
              <LatitudeDegrees>43.18933465518057346343994140625</LatitudeDegrees>
              <LongitudeDegrees>-8.34528406150639057159423828125</LongitudeDegrees>
            </Position>
            <AltitudeMeters>372.399993896484375</AltitudeMeters>
            <DistanceMeters>29285.989632545</DistanceMeters>
          </Trackpoint>
          <Trackpoint>
            <Time>2018-04-21T09:53:30.000Z</Time>
            <Position>
              <LatitudeDegrees>43.1892415322363376617431640625</LatitudeDegrees>
              <LongitudeDegrees>-8.34521616809070110321044921875</LongitudeDegrees>
            </Position>
            <AltitudeMeters>373.399993896484375</AltitudeMeters>
            <DistanceMeters>29297.727643722</DistanceMeters>
          </Trackpoint>
          <Trackpoint>
            <Time>2018-04-21T09:53:32.000Z</Time>
            <Position>
              <LatitudeDegrees>43.18920490331947803497314453125</LatitudeDegrees>
              <LongitudeDegrees>-8.3451984822750091552734375</LongitudeDegrees>
            </Position>
            <AltitudeMeters>373.600006103515625</AltitudeMeters>
            <DistanceMeters>29302.049009026</DistanceMeters>
          </Trackpoint>
          <Trackpoint>
            <Time>2018-04-21T09:53:39.000Z</Time>
            <Position>
              <LatitudeDegrees>43.18908839486539363861083984375</LatitudeDegrees>
              <LongitudeDegrees>-8.34512497298419475555419921875</LongitudeDegrees>
            </Position>
            <AltitudeMeters>374.20001220703125</AltitudeMeters>
            <DistanceMeters>29316.323274151</DistanceMeters>
          </Trackpoint>
          <Trackpoint>
            <Time>2018-04-21T09:53:40.000Z</Time>
            <Position>
              <LatitudeDegrees>43.18907196633517742156982421875</LatitudeDegrees>
              <LongitudeDegrees>-8.34511642344295978546142578125</LongitudeDegrees>
            </Position>
            <AltitudeMeters>374.399993896484375</AltitudeMeters>
            <DistanceMeters>29318.277685146</DistanceMeters>
          </Trackpoint>
          <Trackpoint>
            <Time>2018-04-21T09:53:46.000Z</Time>
            <Position>
              <LatitudeDegrees>43.1889711320400238037109375</LatitudeDegrees>
              <LongitudeDegrees>-8.3450643718242645263671875</LongitudeDegrees>
            </Position>
            <AltitudeMeters>375.20001220703125</AltitudeMeters>
            <DistanceMeters>29330.269137822</DistanceMeters>
          </Trackpoint>
          <Trackpoint>
            <Time>2018-04-21T09:53:47.000Z</Time>
            <Position>
              <LatitudeDegrees>43.18895193748176097869873046875</LatitudeDegrees>
              <LongitudeDegrees>-8.3450548164546489715576171875</LongitudeDegrees>
            </Position>
            <AltitudeMeters>375.600006103515625</AltitudeMeters>
            <DistanceMeters>29332.541846278</DistanceMeters>
          </Trackpoint>
          <Trackpoint>
            <Time>2018-04-21T09:53:53.000Z</Time>
            <Position>
              <LatitudeDegrees>43.1888341717422008514404296875</LatitudeDegrees>
              <LongitudeDegrees>-8.34501047618687152862548828125</LongitudeDegrees>
            </Position>
            <AltitudeMeters>376.600006103515625</AltitudeMeters>
            <DistanceMeters>29346.134320816</DistanceMeters>
          </Trackpoint>
          <Trackpoint>
            <Time>2018-04-21T09:53:58.000Z</Time>
            <Position>
              <LatitudeDegrees>43.18873970769345760345458984375</LatitudeDegrees>
              <LongitudeDegrees>-8.34495549090206623077392578125</LongitudeDegrees>
            </Position>
            <AltitudeMeters>377.600006103515625</AltitudeMeters>
            <DistanceMeters>29357.556516071</DistanceMeters>
          </Trackpoint>
          <Trackpoint>
            <Time>2018-04-21T09:54:00.000Z</Time>
            <Position>
              <LatitudeDegrees>43.18870550952851772308349609375</LatitudeDegrees>
              <LongitudeDegrees>-8.34493034519255161285400390625</LongitudeDegrees>
            </Position>
            <AltitudeMeters>378</AltitudeMeters>
            <DistanceMeters>29361.875791234</DistanceMeters>
          </Trackpoint>
          <Trackpoint>
            <Time>2018-04-21T09:54:05.000Z</Time>
            <Position>
              <LatitudeDegrees>43.1886197626590728759765625</LatitudeDegrees>
              <LongitudeDegrees>-8.344870246946811676025390625</LongitudeDegrees>
            </Position>
            <AltitudeMeters>378.79998779296875</AltitudeMeters>
            <DistanceMeters>29372.593187017</DistanceMeters>
          </Trackpoint>
          <Trackpoint>
            <Time>2018-04-21T09:54:07.000Z</Time>
            <Position>
              <LatitudeDegrees>43.18858095444738864898681640625</LatitudeDegrees>
              <LongitudeDegrees>-8.34485474042594432830810546875</LongitudeDegrees>
            </Position>
            <AltitudeMeters>379.399993896484375</AltitudeMeters>
            <DistanceMeters>29377.091675798</DistanceMeters>
          </Trackpoint>
          <Trackpoint>
            <Time>2018-04-21T09:54:12.000Z</Time>
            <Position>
              <LatitudeDegrees>43.188492693006992340087890625</LatitudeDegrees>
              <LongitudeDegrees>-8.34481517784297466278076171875</LongitudeDegrees>
            </Position>
            <AltitudeMeters>380.20001220703125</AltitudeMeters>
            <DistanceMeters>29387.426459017</DistanceMeters>
          </Trackpoint>
          <Trackpoint>
            <Time>2018-04-21T09:54:13.000Z</Time>
            <Position>
              <LatitudeDegrees>43.18847752176225185394287109375</LatitudeDegrees>
              <LongitudeDegrees>-8.34480461664497852325439453125</LongitudeDegrees>
            </Position>
            <AltitudeMeters>380.399993896484375</AltitudeMeters>
            <DistanceMeters>29389.317466757</DistanceMeters>
          </Trackpoint>
          <Trackpoint>
            <Time>2018-04-21T09:54:17.000Z</Time>
            <Position>
              <LatitudeDegrees>43.1884090416133403778076171875</LatitudeDegrees>
              <LongitudeDegrees>-8.34476270712912082672119140625</LongitudeDegrees>
            </Position>
            <AltitudeMeters>381.399993896484375</AltitudeMeters>
            <DistanceMeters>29397.663604168</DistanceMeters>
          </Trackpoint>
          <Trackpoint>
            <Time>2018-04-21T09:54:19.000Z</Time>
            <Position>
              <LatitudeDegrees>43.18837475962936878204345703125</LatitudeDegrees>
              <LongitudeDegrees>-8.34474929608404636383056640625</LongitudeDegrees>
            </Position>
            <AltitudeMeters>381.600006103515625</AltitudeMeters>
            <DistanceMeters>29401.632036266</DistanceMeters>
          </Trackpoint>
          <Trackpoint>
            <Time>2018-04-21T09:54:25.000Z</Time>
            <Position>
              <LatitudeDegrees>43.18828155286610126495361328125</LatitudeDegrees>
              <LongitudeDegrees>-8.34469162859022617340087890625</LongitudeDegrees>
            </Position>
            <AltitudeMeters>382.600006103515625</AltitudeMeters>
            <DistanceMeters>29413.013047492</DistanceMeters>
          </Trackpoint>
          <Trackpoint>
            <Time>2018-04-21T09:54:29.000Z</Time>
            <Position>
              <LatitudeDegrees>43.1882186047732830047607421875</LatitudeDegrees>
              <LongitudeDegrees>-8.34465424530208110809326171875</LongitudeDegrees>
            </Position>
            <AltitudeMeters>383.79998779296875</AltitudeMeters>
            <DistanceMeters>29420.648371553</DistanceMeters>
          </Trackpoint>
          <Trackpoint>
            <Time>2018-04-21T09:54:33.000Z</Time>
            <Position>
              <LatitudeDegrees>43.1881619431078433990478515625</LatitudeDegrees>
              <LongitudeDegrees>-8.344620130956172943115234375</LongitudeDegrees>
            </Position>
            <AltitudeMeters>384.20001220703125</AltitudeMeters>
            <DistanceMeters>29427.536333634</DistanceMeters>
          </Trackpoint>
          <Trackpoint>
            <Time>2018-04-21T09:54:34.000Z</Time>
            <Position>
              <LatitudeDegrees>43.1881476938724517822265625</LatitudeDegrees>
              <LongitudeDegrees>-8.344616778194904327392578125</LongitudeDegrees>
            </Position>
            <AltitudeMeters>384.79998779296875</AltitudeMeters>
            <DistanceMeters>29429.143381195</DistanceMeters>
          </Trackpoint>
          <Trackpoint>
            <Time>2018-04-21T09:54:39.000Z</Time>
            <Position>
              <LatitudeDegrees>43.1880699098110198974609375</LatitudeDegrees>
              <LongitudeDegrees>-8.34457545541226863861083984375</LongitudeDegrees>
            </Position>
            <AltitudeMeters>385.399993896484375</AltitudeMeters>
            <DistanceMeters>29438.427836469</DistanceMeters>
          </Trackpoint>
          <Trackpoint>
            <Time>2018-04-21T09:54:41.000Z</Time>
            <Position>
              <LatitudeDegrees>43.18803981877863407135009765625</LatitudeDegrees>
              <LongitudeDegrees>-8.34455399774014949798583984375</LongitudeDegrees>
            </Position>
            <AltitudeMeters>385.79998779296875</AltitudeMeters>
            <DistanceMeters>29442.202682245</DistanceMeters>
          </Trackpoint>
          <Trackpoint>
            <Time>2018-04-21T09:54:46.000Z</Time>
            <Position>
              <LatitudeDegrees>43.1879637949168682098388671875</LatitudeDegrees>
              <LongitudeDegrees>-8.3445172011852264404296875</LongitudeDegrees>
            </Position>
            <AltitudeMeters>386.600006103515625</AltitudeMeters>
            <DistanceMeters>29451.17553918</DistanceMeters>
          </Trackpoint>
          <Trackpoint>
            <Time>2018-04-21T09:54:47.000Z</Time>
            <Position>
              <LatitudeDegrees>43.18794795311987400054931640625</LatitudeDegrees>
              <LongitudeDegrees>-8.34450781345367431640625</LongitudeDegrees>
            </Position>
            <AltitudeMeters>387</AltitudeMeters>
            <DistanceMeters>29453.094984722</DistanceMeters>
          </Trackpoint>
          <Trackpoint>
            <Time>2018-04-21T09:54:52.000Z</Time>
            <Position>
              <LatitudeDegrees>43.18787276744842529296875</LatitudeDegrees>
              <LongitudeDegrees>-8.3444717712700366973876953125</LongitudeDegrees>
            </Position>
            <AltitudeMeters>387.79998779296875</AltitudeMeters>
            <DistanceMeters>29461.959505308</DistanceMeters>
          </Trackpoint>
          <Trackpoint>
            <Time>2018-04-21T09:54:53.000Z</Time>
            <Position>
              <LatitudeDegrees>43.18786002695560455322265625</LatitudeDegrees>
              <LongitudeDegrees>-8.344466574490070343017578125</LongitudeDegrees>
            </Position>
            <AltitudeMeters>388.399993896484375</AltitudeMeters>
            <DistanceMeters>29463.437774058</DistanceMeters>
          </Trackpoint>
          <Trackpoint>
            <Time>2018-04-21T09:54:58.000Z</Time>
            <Position>
              <LatitudeDegrees>43.18779355846345424652099609375</LatitudeDegrees>
              <LongitudeDegrees>-8.344420306384563446044921875</LongitudeDegrees>
            </Position>
            <AltitudeMeters>388.79998779296875</AltitudeMeters>
            <DistanceMeters>29471.733992634</DistanceMeters>
          </Trackpoint>
          <Trackpoint>
            <Time>2018-04-21T09:55:02.000Z</Time>
            <Position>
              <LatitudeDegrees>43.18774226121604442596435546875</LatitudeDegrees>
              <LongitudeDegrees>-8.34438242018222808837890625</LongitudeDegrees>
            </Position>
            <AltitudeMeters>389.399993896484375</AltitudeMeters>
            <DistanceMeters>29478.218826171</DistanceMeters>
          </Trackpoint>
          <Trackpoint>
            <Time>2018-04-21T09:55:05.000Z</Time>
            <Position>
              <LatitudeDegrees>43.1877006031572818756103515625</LatitudeDegrees>
              <LongitudeDegrees>-8.344355262815952301025390625</LongitudeDegrees>
            </Position>
            <AltitudeMeters>390</AltitudeMeters>
            <DistanceMeters>29483.352028199</DistanceMeters>
          </Trackpoint>
          <Trackpoint>
            <Time>2018-04-21T09:55:09.000Z</Time>
            <Position>
              <LatitudeDegrees>43.18764938972890377044677734375</LatitudeDegrees>
              <LongitudeDegrees>-8.3443235792219638824462890625</LongitudeDegrees>
            </Position>
            <AltitudeMeters>390.399993896484375</AltitudeMeters>
            <DistanceMeters>29489.605767966</DistanceMeters>
          </Trackpoint>
          <Trackpoint>
            <Time>2018-04-21T09:55:11.000Z</Time>
            <Position>
              <LatitudeDegrees>43.1876224838197231292724609375</LatitudeDegrees>
              <LongitudeDegrees>-8.344312012195587158203125</LongitudeDegrees>
            </Position>
            <AltitudeMeters>391</AltitudeMeters>
            <DistanceMeters>29492.744527817</DistanceMeters>
          </Trackpoint>
          <Trackpoint>
            <Time>2018-04-21T09:55:14.000Z</Time>
            <Position>
              <LatitudeDegrees>43.187580741941928863525390625</LatitudeDegrees>
              <LongitudeDegrees>-8.34430371411144733428955078125</LongitudeDegrees>
            </Position>
            <AltitudeMeters>391.79998779296875</AltitudeMeters>
            <DistanceMeters>29497.438501243</DistanceMeters>
          </Trackpoint>
          <Trackpoint>
            <Time>2018-04-21T09:55:17.000Z</Time>
            <Position>
              <LatitudeDegrees>43.18753740750253200531005859375</LatitudeDegrees>
              <LongitudeDegrees>-8.34429248236119747161865234375</LongitudeDegrees>
            </Position>
            <AltitudeMeters>392.20001220703125</AltitudeMeters>
            <DistanceMeters>29502.346886309</DistanceMeters>
          </Trackpoint>
          <Trackpoint>
            <Time>2018-04-21T09:55:20.000Z</Time>
            <Position>
              <LatitudeDegrees>43.18749398924410343170166015625</LatitudeDegrees>
              <LongitudeDegrees>-8.3442779816687107086181640625</LongitudeDegrees>
            </Position>
            <AltitudeMeters>393.20001220703125</AltitudeMeters>
            <DistanceMeters>29507.320152779</DistanceMeters>
          </Trackpoint>
          <Trackpoint>
            <Time>2018-04-21T09:55:24.000Z</Time>
            <Position>
              <LatitudeDegrees>43.18742685019969940185546875</LatitudeDegrees>
              <LongitudeDegrees>-8.3442628942430019378662109375</LongitudeDegrees>
            </Position>
            <AltitudeMeters>394</AltitudeMeters>
            <DistanceMeters>29514.892535853</DistanceMeters>
          </Trackpoint>
          <Trackpoint>
            <Time>2018-04-21T09:55:25.000Z</Time>
            <Position>
              <LatitudeDegrees>43.187409080564975738525390625</LatitudeDegrees>
              <LongitudeDegrees>-8.3442602120339870452880859375</LongitudeDegrees>
            </Position>
            <AltitudeMeters>394.20001220703125</AltitudeMeters>
            <DistanceMeters>29516.883566631</DistanceMeters>
          </Trackpoint>
          <Trackpoint>
            <Time>2018-04-21T09:55:31.000Z</Time>
            <Position>
              <LatitudeDegrees>43.187303133308887481689453125</LatitudeDegrees>
              <LongitudeDegrees>-8.34425610490143299102783203125</LongitudeDegrees>
            </Position>
            <AltitudeMeters>395</AltitudeMeters>
            <DistanceMeters>29528.680665348</DistanceMeters>
          </Trackpoint>
          <Trackpoint>
            <Time>2018-04-21T09:55:32.000Z</Time>
            <Position>
              <LatitudeDegrees>43.18728645332157611846923828125</LatitudeDegrees>
              <LongitudeDegrees>-8.34425032138824462890625</LongitudeDegrees>
            </Position>
            <AltitudeMeters>395</AltitudeMeters>
            <DistanceMeters>29530.595400587</DistanceMeters>
          </Trackpoint>
          <Trackpoint>
            <Time>2018-04-21T09:55:35.000Z</Time>
            <Position>
              <LatitudeDegrees>43.1872365809977054595947265625</LatitudeDegrees>
              <LongitudeDegrees>-8.34423196502029895782470703125</LongitudeDegrees>
            </Position>
            <AltitudeMeters>395.399993896484375</AltitudeMeters>
            <DistanceMeters>29536.342749509</DistanceMeters>
          </Trackpoint>
          <Trackpoint>
            <Time>2018-04-21T09:55:38.000Z</Time>
            <Position>
              <LatitudeDegrees>43.1871767342090606689453125</LatitudeDegrees>
              <LongitudeDegrees>-8.34422961808741092681884765625</LongitudeDegrees>
            </Position>
            <AltitudeMeters>395.79998779296875</AltitudeMeters>
            <DistanceMeters>29543.006826036</DistanceMeters>
          </Trackpoint>
          <Trackpoint>
            <Time>2018-04-21T09:55:41.000Z</Time>
            <Position>
              <LatitudeDegrees>43.18711169064044952392578125</LatitudeDegrees>
              <LongitudeDegrees>-8.34422559477388858795166015625</LongitudeDegrees>
            </Position>
            <AltitudeMeters>396.399993896484375</AltitudeMeters>
            <DistanceMeters>29550.254443208</DistanceMeters>
          </Trackpoint>
          <Trackpoint>
            <Time>2018-04-21T09:55:46.000Z</Time>
            <Position>
              <LatitudeDegrees>43.18699300289154052734375</LatitudeDegrees>
              <LongitudeDegrees>-8.34419793449342250823974609375</LongitudeDegrees>
            </Position>
            <AltitudeMeters>397</AltitudeMeters>
            <DistanceMeters>29563.654220819</DistanceMeters>
          </Trackpoint>
          <Trackpoint>
            <Time>2018-04-21T09:55:52.000Z</Time>
            <Position>
              <LatitudeDegrees>43.18682829849421977996826171875</LatitudeDegrees>
              <LongitudeDegrees>-8.34416809491813182830810546875</LongitudeDegrees>
            </Position>
            <AltitudeMeters>397.600006103515625</AltitudeMeters>
            <DistanceMeters>29582.145647876</DistanceMeters>
          </Trackpoint>
          <Trackpoint>
            <Time>2018-04-21T09:55:55.000Z</Time>
            <Position>
              <LatitudeDegrees>43.18674422800540924072265625</LatitudeDegrees>
              <LongitudeDegrees>-8.344144709408283233642578125</LongitudeDegrees>
            </Position>
            <AltitudeMeters>397.79998779296875</AltitudeMeters>
            <DistanceMeters>29591.693350307</DistanceMeters>
          </Trackpoint>
          <Trackpoint>
            <Time>2018-04-21T09:56:04.000Z</Time>
            <Position>
              <LatitudeDegrees>43.18647240288555622100830078125</LatitudeDegrees>
              <LongitudeDegrees>-8.34409282542765140533447265625</LongitudeDegrees>
            </Position>
            <AltitudeMeters>398.399993896484375</AltitudeMeters>
            <DistanceMeters>29622.239524681</DistanceMeters>
          </Trackpoint>
          <Trackpoint>
            <Time>2018-04-21T09:56:06.000Z</Time>
            <Position>
              <LatitudeDegrees>43.18639327771961688995361328125</LatitudeDegrees>
              <LongitudeDegrees>-8.34407958202064037322998046875</LongitudeDegrees>
            </Position>
            <AltitudeMeters>399</AltitudeMeters>
            <DistanceMeters>29631.111173134</DistanceMeters>
          </Trackpoint>
          <Trackpoint>
            <Time>2018-04-21T09:56:12.000Z</Time>
            <Position>
              <LatitudeDegrees>43.18615254946053028106689453125</LatitudeDegrees>
              <LongitudeDegrees>-8.3440290391445159912109375</LongitudeDegrees>
            </Position>
            <AltitudeMeters>400</AltitudeMeters>
            <DistanceMeters>29658.216950006</DistanceMeters>
          </Trackpoint>
          <Trackpoint>
            <Time>2018-04-21T09:56:13.000Z</Time>
            <Position>
              <LatitudeDegrees>43.1861117295920848846435546875</LatitudeDegrees>
              <LongitudeDegrees>-8.34402359090745449066162109375</LongitudeDegrees>
            </Position>
            <AltitudeMeters>400.20001220703125</AltitudeMeters>
            <DistanceMeters>29662.782190025</DistanceMeters>
          </Trackpoint>
          <Trackpoint>
            <Time>2018-04-21T09:56:18.000Z</Time>
            <Position>
              <LatitudeDegrees>43.18590595386922359466552734375</LatitudeDegrees>
              <LongitudeDegrees>-8.34397849626839160919189453125</LongitudeDegrees>
            </Position>
            <AltitudeMeters>400.399993896484375</AltitudeMeters>
            <DistanceMeters>29685.975912106</DistanceMeters>
          </Trackpoint>
          <Trackpoint>
            <Time>2018-04-21T09:56:21.000Z</Time>
            <Position>
              <LatitudeDegrees>43.18578533828258514404296875</LatitudeDegrees>
              <LongitudeDegrees>-8.343956954777240753173828125</LongitudeDegrees>
            </Position>
            <AltitudeMeters>400.399993896484375</AltitudeMeters>
            <DistanceMeters>29699.514134352</DistanceMeters>
          </Trackpoint>
          <Trackpoint>
            <Time>2018-04-21T09:56:26.000Z</Time>
            <Position>
              <LatitudeDegrees>43.18559464998543262481689453125</LatitudeDegrees>
              <LongitudeDegrees>-8.3438736386597156524658203125</LongitudeDegrees>
            </Position>
            <AltitudeMeters>400.20001220703125</AltitudeMeters>
            <DistanceMeters>29721.788931328</DistanceMeters>
          </Trackpoint>
          <Trackpoint>
            <Time>2018-04-21T09:56:27.000Z</Time>
            <Position>
              <LatitudeDegrees>43.185574114322662353515625</LatitudeDegrees>
              <LongitudeDegrees>-8.34382829256355762481689453125</LongitudeDegrees>
            </Position>
            <AltitudeMeters>399.79998779296875</AltitudeMeters>
            <DistanceMeters>29726.120732206</DistanceMeters>
          </Trackpoint>
          <Trackpoint>
            <Time>2018-04-21T09:56:31.000Z</Time>
            <Position>
              <LatitudeDegrees>43.1855065561830997467041015625</LatitudeDegrees>
              <LongitudeDegrees>-8.3436443097889423370361328125</LongitudeDegrees>
            </Position>
            <AltitudeMeters>399.79998779296875</AltitudeMeters>
            <DistanceMeters>29742.838413443</DistanceMeters>
          </Trackpoint>
          <Trackpoint>
            <Time>2018-04-21T09:56:35.000Z</Time>
            <Position>
              <LatitudeDegrees>43.18538158200681209564208984375</LatitudeDegrees>
              <LongitudeDegrees>-8.343543894588947296142578125</LongitudeDegrees>
            </Position>
            <AltitudeMeters>400.399993896484375</AltitudeMeters>
            <DistanceMeters>29758.959661228</DistanceMeters>
          </Trackpoint>
          <Trackpoint>
            <Time>2018-04-21T09:56:36.000Z</Time>
            <Position>
              <LatitudeDegrees>43.18534922786056995391845703125</LatitudeDegrees>
              <LongitudeDegrees>-8.34352989681065082550048828125</LongitudeDegrees>
            </Position>
            <AltitudeMeters>400.600006103515625</AltitudeMeters>
            <DistanceMeters>29762.735702899</DistanceMeters>
          </Trackpoint>
          <Trackpoint>
            <Time>2018-04-21T09:56:42.000Z</Time>
            <Position>
              <LatitudeDegrees>43.18518091924488544464111328125</LatitudeDegrees>
              <LongitudeDegrees>-8.34344875998795032501220703125</LongitudeDegrees>
            </Position>
            <AltitudeMeters>400.600006103515625</AltitudeMeters>
            <DistanceMeters>29782.592193721</DistanceMeters>
          </Trackpoint>
          <Trackpoint>
            <Time>2018-04-21T09:56:46.000Z</Time>
            <Position>
              <LatitudeDegrees>43.18509140051901340484619140625</LatitudeDegrees>
              <LongitudeDegrees>-8.34339075721800327301025390625</LongitudeDegrees>
            </Position>
            <AltitudeMeters>400.399993896484375</AltitudeMeters>
            <DistanceMeters>29793.61160559</DistanceMeters>
          </Trackpoint>
          <Trackpoint>
            <Time>2018-04-21T09:56:50.000Z</Time>
            <Position>
              <LatitudeDegrees>43.184997104108333587646484375</LatitudeDegrees>
              <LongitudeDegrees>-8.34333476610481739044189453125</LongitudeDegrees>
            </Position>
            <AltitudeMeters>401.20001220703125</AltitudeMeters>
            <DistanceMeters>29805.048417091</DistanceMeters>
          </Trackpoint>
          <Trackpoint>
            <Time>2018-04-21T09:56:51.000Z</Time>
            <Position>
              <LatitudeDegrees>43.18497531116008758544921875</LatitudeDegrees>
              <LongitudeDegrees>-8.34332026541233062744140625</LongitudeDegrees>
            </Position>
            <AltitudeMeters>401.399993896484375</AltitudeMeters>
            <DistanceMeters>29807.742889481</DistanceMeters>
          </Trackpoint>
          <Trackpoint>
            <Time>2018-04-21T09:56:57.000Z</Time>
            <Position>
              <LatitudeDegrees>43.18484597839415073394775390625</LatitudeDegrees>
              <LongitudeDegrees>-8.343193531036376953125</LongitudeDegrees>
            </Position>
            <AltitudeMeters>401.79998779296875</AltitudeMeters>
            <DistanceMeters>29825.434709899</DistanceMeters>
          </Trackpoint>
          <Trackpoint>
            <Time>2018-04-21T09:57:01.000Z</Time>
            <Position>
              <LatitudeDegrees>43.1847573816776275634765625</LatitudeDegrees>
              <LongitudeDegrees>-8.34311239421367645263671875</LongitudeDegrees>
            </Position>
            <AltitudeMeters>402.20001220703125</AltitudeMeters>
            <DistanceMeters>29837.291744104</DistanceMeters>
          </Trackpoint>
          <Trackpoint>
            <Time>2018-04-21T09:57:02.000Z</Time>
            <Position>
              <LatitudeDegrees>43.18473231978714466094970703125</LatitudeDegrees>
              <LongitudeDegrees>-8.34309185855090618133544921875</LongitudeDegrees>
            </Position>
            <AltitudeMeters>402.399993896484375</AltitudeMeters>
            <DistanceMeters>29840.542157838</DistanceMeters>
          </Trackpoint>
          <Trackpoint>
            <Time>2018-04-21T09:57:08.000Z</Time>
            <Position>
              <LatitudeDegrees>43.18456250242888927459716796875</LatitudeDegrees>
              <LongitudeDegrees>-8.34299303591251373291015625</LongitudeDegrees>
            </Position>
            <AltitudeMeters>403.20001220703125</AltitudeMeters>
            <DistanceMeters>29861.074526159</DistanceMeters>
          </Trackpoint>
          <Trackpoint>
            <Time>2018-04-21T09:57:10.000Z</Time>
            <Position>
              <LatitudeDegrees>43.18450324237346649169921875</LatitudeDegrees>
              <LongitudeDegrees>-8.342965207993984222412109375</LongitudeDegrees>
            </Position>
            <AltitudeMeters>404.20001220703125</AltitudeMeters>
            <DistanceMeters>29868.04588696</DistanceMeters>
          </Trackpoint>
          <Trackpoint>
            <Time>2018-04-21T09:57:11.000Z</Time>
            <Position>
              <LatitudeDegrees>43.18447449244558811187744140625</LatitudeDegrees>
              <LongitudeDegrees>-8.34295204840600490570068359375</LongitudeDegrees>
            </Position>
            <AltitudeMeters>404.600006103515625</AltitudeMeters>
            <DistanceMeters>29871.419000703</DistanceMeters>
          </Trackpoint>
          <Trackpoint>
            <Time>2018-04-21T09:57:15.000Z</Time>
            <Position>
              <LatitudeDegrees>43.18434507586061954498291015625</LatitudeDegrees>
              <LongitudeDegrees>-8.34291835315525531768798828125</LongitudeDegrees>
            </Position>
            <AltitudeMeters>405.600006103515625</AltitudeMeters>
            <DistanceMeters>29886.080855968</DistanceMeters>
          </Trackpoint>
          <Trackpoint>
            <Time>2018-04-21T09:57:16.000Z</Time>
            <Position>
              <LatitudeDegrees>43.18431037478148937225341796875</LatitudeDegrees>
              <LongitudeDegrees>-8.34291600622236728668212890625</LongitudeDegrees>
            </Position>
            <AltitudeMeters>405.79998779296875</AltitudeMeters>
            <DistanceMeters>29889.947871172</DistanceMeters>
          </Trackpoint>
          <Trackpoint>
            <Time>2018-04-21T09:57:17.000Z</Time>
            <Position>
              <LatitudeDegrees>43.1842772662639617919921875</LatitudeDegrees>
              <LongitudeDegrees>-8.3429174311459064483642578125</LongitudeDegrees>
            </Position>
            <AltitudeMeters>406.20001220703125</AltitudeMeters>
            <DistanceMeters>29893.635593386</DistanceMeters>
          </Trackpoint>
          <Trackpoint>
            <Time>2018-04-21T09:57:19.000Z</Time>
            <Position>
              <LatitudeDegrees>43.1842130608856678009033203125</LatitudeDegrees>
              <LongitudeDegrees>-8.34292572923004627227783203125</LongitudeDegrees>
            </Position>
            <AltitudeMeters>407.399993896484375</AltitudeMeters>
            <DistanceMeters>29900.813098949</DistanceMeters>
          </Trackpoint>
          <Trackpoint>
            <Time>2018-04-21T09:57:22.000Z</Time>
            <Position>
              <LatitudeDegrees>43.1841163337230682373046875</LatitudeDegrees>
              <LongitudeDegrees>-8.3429400622844696044921875</LongitudeDegrees>
            </Position>
            <AltitudeMeters>408</AltitudeMeters>
            <DistanceMeters>29911.641975747</DistanceMeters>
          </Trackpoint>
          <Trackpoint>
            <Time>2018-04-21T09:57:25.000Z</Time>
            <Position>
              <LatitudeDegrees>43.184018433094024658203125</LatitudeDegrees>
              <LongitudeDegrees>-8.34295255132019519805908203125</LongitudeDegrees>
            </Position>
            <AltitudeMeters>408.20001220703125</AltitudeMeters>
            <DistanceMeters>29922.585736704</DistanceMeters>
          </Trackpoint>
          <Trackpoint>
            <Time>2018-04-21T09:57:26.000Z</Time>
            <Position>
              <LatitudeDegrees>43.1839870847761631011962890625</LatitudeDegrees>
              <LongitudeDegrees>-8.34296260960400104522705078125</LongitudeDegrees>
            </Position>
            <AltitudeMeters>408.600006103515625</AltitudeMeters>
            <DistanceMeters>29926.169138538</DistanceMeters>
          </Trackpoint>
          <Trackpoint>
            <Time>2018-04-21T09:57:31.000Z</Time>
            <Position>
              <LatitudeDegrees>43.18384082056581974029541015625</LatitudeDegrees>
              <LongitudeDegrees>-8.3430111408233642578125</LongitudeDegrees>
            </Position>
            <AltitudeMeters>409.399993896484375</AltitudeMeters>
            <DistanceMeters>29942.918119247</DistanceMeters>
          </Trackpoint>
          <Trackpoint>
            <Time>2018-04-21T09:57:32.000Z</Time>
            <Position>
              <LatitudeDegrees>43.1838114000856876373291015625</LatitudeDegrees>
              <LongitudeDegrees>-8.34302329458296298980712890625</LongitudeDegrees>
            </Position>
            <AltitudeMeters>409.600006103515625</AltitudeMeters>
            <DistanceMeters>29946.337760894</DistanceMeters>
          </Trackpoint>
          <Trackpoint>
            <Time>2018-04-21T09:57:35.000Z</Time>
            <Position>
              <LatitudeDegrees>43.18372213281691074371337890625</LatitudeDegrees>
              <LongitudeDegrees>-8.343056738376617431640625</LongitudeDegrees>
            </Position>
            <AltitudeMeters>411</AltitudeMeters>
            <DistanceMeters>29956.637096212</DistanceMeters>
          </Trackpoint>
          <Trackpoint>
            <Time>2018-04-21T09:57:39.000Z</Time>
            <Position>
              <LatitudeDegrees>43.18360512144863605499267578125</LatitudeDegrees>
              <LongitudeDegrees>-8.34310426376760005950927734375</LongitudeDegrees>
            </Position>
            <AltitudeMeters>411.399993896484375</AltitudeMeters>
            <DistanceMeters>29970.219934348</DistanceMeters>
          </Trackpoint>
          <Trackpoint>
            <Time>2018-04-21T09:57:40.000Z</Time>
            <Position>
              <LatitudeDegrees>43.18357209675014019012451171875</LatitudeDegrees>
              <LongitudeDegrees>-8.34311599843204021453857421875</LongitudeDegrees>
            </Position>
            <AltitudeMeters>412</AltitudeMeters>
            <DistanceMeters>29974.016248614</DistanceMeters>
          </Trackpoint>
          <Trackpoint>
            <Time>2018-04-21T09:57:44.000Z</Time>
            <Position>
              <LatitudeDegrees>43.1834409199655055999755859375</LatitudeDegrees>
              <LongitudeDegrees>-8.34316628985106945037841796875</LongitudeDegrees>
            </Position>
            <AltitudeMeters>412.600006103515625</AltitudeMeters>
            <DistanceMeters>29989.176211529</DistanceMeters>
          </Trackpoint>
          <Trackpoint>
            <Time>2018-04-21T09:57:51.000Z</Time>
            <Position>
              <LatitudeDegrees>43.1831810809671878814697265625</LatitudeDegrees>
              <LongitudeDegrees>-8.3431491069495677947998046875</LongitudeDegrees>
            </Position>
            <AltitudeMeters>411.600006103515625</AltitudeMeters>
            <DistanceMeters>30018.130213616</DistanceMeters>
          </Trackpoint>
          <Trackpoint>
            <Time>2018-04-21T09:57:57.000Z</Time>
            <Position>
              <LatitudeDegrees>43.18295652978122234344482421875</LatitudeDegrees>
              <LongitudeDegrees>-8.343153633177280426025390625</LongitudeDegrees>
            </Position>
            <AltitudeMeters>411.600006103515625</AltitudeMeters>
            <DistanceMeters>30043.125671784</DistanceMeters>
          </Trackpoint>
          <Trackpoint>
            <Time>2018-04-21T09:58:03.000Z</Time>
            <Position>
              <LatitudeDegrees>43.18274371325969696044921875</LatitudeDegrees>
              <LongitudeDegrees>-8.34317274391651153564453125</LongitudeDegrees>
            </Position>
            <AltitudeMeters>412.20001220703125</AltitudeMeters>
            <DistanceMeters>30066.862957011</DistanceMeters>
          </Trackpoint>
          <Trackpoint>
            <Time>2018-04-21T09:58:09.000Z</Time>
            <Position>
              <LatitudeDegrees>43.18253441713750362396240234375</LatitudeDegrees>
              <LongitudeDegrees>-8.34317198954522609710693359375</LongitudeDegrees>
            </Position>
            <AltitudeMeters>412.600006103515625</AltitudeMeters>
            <DistanceMeters>30090.158267139</DistanceMeters>
          </Trackpoint>
          <Trackpoint>
            <Time>2018-04-21T09:58:13.000Z</Time>
            <Position>
              <LatitudeDegrees>43.182381279766559600830078125</LatitudeDegrees>
              <LongitudeDegrees>-8.343183137476444244384765625</LongitudeDegrees>
            </Position>
            <AltitudeMeters>412.79998779296875</AltitudeMeters>
            <DistanceMeters>30107.226609948</DistanceMeters>
          </Trackpoint>
          <Trackpoint>
            <Time>2018-04-21T09:58:15.000Z</Time>
            <Position>
              <LatitudeDegrees>43.182308860123157501220703125</LatitudeDegrees>
              <LongitudeDegrees>-8.34318171255290508270263671875</LongitudeDegrees>
            </Position>
            <AltitudeMeters>413.20001220703125</AltitudeMeters>
            <DistanceMeters>30115.288214017</DistanceMeters>
          </Trackpoint>
          <Trackpoint>
            <Time>2018-04-21T09:58:17.000Z</Time>
            <Position>
              <LatitudeDegrees>43.18224205635488033294677734375</LatitudeDegrees>
              <LongitudeDegrees>-8.34318255074322223663330078125</LongitudeDegrees>
            </Position>
            <AltitudeMeters>413.79998779296875</AltitudeMeters>
            <DistanceMeters>30122.724016467</DistanceMeters>
          </Trackpoint>
          <Trackpoint>
            <Time>2018-04-21T09:58:22.000Z</Time>
            <Position>
              <LatitudeDegrees>43.1821108795702457427978515625</LatitudeDegrees>
              <LongitudeDegrees>-8.343205265700817108154296875</LongitudeDegrees>
            </Position>
            <AltitudeMeters>414.20001220703125</AltitudeMeters>
            <DistanceMeters>30137.439970166</DistanceMeters>
          </Trackpoint>
          <Trackpoint>
            <Time>2018-04-21T09:58:24.000Z</Time>
            <Position>
              <LatitudeDegrees>43.1820609234273433685302734375</LatitudeDegrees>
              <LongitudeDegrees>-8.3432067744433879852294921875</LongitudeDegrees>
            </Position>
            <AltitudeMeters>414.79998779296875</AltitudeMeters>
            <DistanceMeters>30143.002077851</DistanceMeters>
          </Trackpoint>
          <Trackpoint>
            <Time>2018-04-21T09:58:28.000Z</Time>
            <Position>
              <LatitudeDegrees>43.18196143023669719696044921875</LatitudeDegrees>
              <LongitudeDegrees>-8.34321289323270320892333984375</LongitudeDegrees>
            </Position>
            <AltitudeMeters>415.600006103515625</AltitudeMeters>
            <DistanceMeters>30154.087260765</DistanceMeters>
          </Trackpoint>
          <Trackpoint>
            <Time>2018-04-21T09:58:32.000Z</Time>
            <Position>
              <LatitudeDegrees>43.18185598589479923248291015625</LatitudeDegrees>
              <LongitudeDegrees>-8.34321591071784496307373046875</LongitudeDegrees>
            </Position>
            <AltitudeMeters>416</AltitudeMeters>
            <DistanceMeters>30165.826041219</DistanceMeters>
          </Trackpoint>
          <Trackpoint>
            <Time>2018-04-21T09:58:36.000Z</Time>
            <Position>
              <LatitudeDegrees>43.1817578338086605072021484375</LatitudeDegrees>
              <LongitudeDegrees>-8.34322370588779449462890625</LongitudeDegrees>
            </Position>
            <AltitudeMeters>416.600006103515625</AltitudeMeters>
            <DistanceMeters>30176.76897701</DistanceMeters>
          </Trackpoint>
          <Trackpoint>
            <Time>2018-04-21T09:58:38.000Z</Time>
            <Position>
              <LatitudeDegrees>43.18170678801834583282470703125</LatitudeDegrees>
              <LongitudeDegrees>-8.34322077222168445587158203125</LongitudeDegrees>
            </Position>
            <AltitudeMeters>417</AltitudeMeters>
            <DistanceMeters>30182.45551407</DistanceMeters>
          </Trackpoint>
          <Trackpoint>
            <Time>2018-04-21T09:58:43.000Z</Time>
            <Position>
              <LatitudeDegrees>43.18158231675624847412109375</LatitudeDegrees>
              <LongitudeDegrees>-8.34321792237460613250732421875</LongitudeDegrees>
            </Position>
            <AltitudeMeters>417.79998779296875</AltitudeMeters>
            <DistanceMeters>30196.31150394</DistanceMeters>
          </Trackpoint>
          <Trackpoint>
            <Time>2018-04-21T09:58:44.000Z</Time>
            <Position>
              <LatitudeDegrees>43.181553147733211517333984375</LatitudeDegrees>
              <LongitudeDegrees>-8.3432144857943058013916015625</LongitudeDegrees>
            </Position>
            <AltitudeMeters>417.79998779296875</AltitudeMeters>
            <DistanceMeters>30199.57024141</DistanceMeters>
          </Trackpoint>
          <Trackpoint>
            <Time>2018-04-21T09:58:49.000Z</Time>
            <Position>
              <LatitudeDegrees>43.18140260875225067138671875</LatitudeDegrees>
              <LongitudeDegrees>-8.3432067744433879852294921875</LongitudeDegrees>
            </Position>
            <AltitudeMeters>418.79998779296875</AltitudeMeters>
            <DistanceMeters>30216.337542923</DistanceMeters>
          </Trackpoint>
          <Trackpoint>
            <Time>2018-04-21T09:58:52.000Z</Time>
            <Position>
              <LatitudeDegrees>43.18131132982671260833740234375</LatitudeDegrees>
              <LongitudeDegrees>-8.3432074449956417083740234375</LongitudeDegrees>
            </Position>
            <AltitudeMeters>419</AltitudeMeters>
            <DistanceMeters>30226.497849705</DistanceMeters>
          </Trackpoint>
          <Trackpoint>
            <Time>2018-04-21T09:58:58.000Z</Time>
            <Position>
              <LatitudeDegrees>43.18110781721770763397216796875</LatitudeDegrees>
              <LongitudeDegrees>-8.34320627152919769287109375</LongitudeDegrees>
            </Position>
            <AltitudeMeters>419.600006103515625</AltitudeMeters>
            <DistanceMeters>30249.149316402</DistanceMeters>
          </Trackpoint>
          <Trackpoint>
            <Time>2018-04-21T09:58:59.000Z</Time>
            <Position>
              <LatitudeDegrees>43.181073032319545745849609375</LatitudeDegrees>
              <LongitudeDegrees>-8.34320358932018280029296875</LongitudeDegrees>
            </Position>
            <AltitudeMeters>419.79998779296875</AltitudeMeters>
            <DistanceMeters>30253.027989804</DistanceMeters>
          </Trackpoint>
          <Trackpoint>
            <Time>2018-04-21T09:59:00.000Z</Time>
            <Position>
              <LatitudeDegrees>43.18103707395493984222412109375</LatitudeDegrees>
              <LongitudeDegrees>-8.34319663234055042266845703125</LongitudeDegrees>
            </Position>
            <AltitudeMeters>419.79998779296875</AltitudeMeters>
            <DistanceMeters>30257.069698389</DistanceMeters>
          </Trackpoint>
          <Trackpoint>
            <Time>2018-04-21T09:59:06.000Z</Time>
            <Position>
              <LatitudeDegrees>43.1808359920978546142578125</LatitudeDegrees>
              <LongitudeDegrees>-8.343150280416011810302734375</LongitudeDegrees>
            </Position>
            <AltitudeMeters>420.20001220703125</AltitudeMeters>
            <DistanceMeters>30279.764377724</DistanceMeters>
          </Trackpoint>
          <Trackpoint>
            <Time>2018-04-21T09:59:08.000Z</Time>
            <Position>
              <LatitudeDegrees>43.18076734431087970733642578125</LatitudeDegrees>
              <LongitudeDegrees>-8.34313192404806613922119140625</LongitudeDegrees>
            </Position>
            <AltitudeMeters>421</AltitudeMeters>
            <DistanceMeters>30287.548452039</DistanceMeters>
          </Trackpoint>
          <Trackpoint>
            <Time>2018-04-21T09:59:09.000Z</Time>
            <Position>
              <LatitudeDegrees>43.18073499016463756561279296875</LatitudeDegrees>
              <LongitudeDegrees>-8.34312069229781627655029296875</LongitudeDegrees>
            </Position>
            <AltitudeMeters>415.79998779296875</AltitudeMeters>
            <DistanceMeters>30291.263012149</DistanceMeters>
          </Trackpoint>
          <Trackpoint>
            <Time>2018-04-21T09:59:10.000Z</Time>
            <Position>
              <LatitudeDegrees>43.180703558027744293212890625</LatitudeDegrees>
              <LongitudeDegrees>-8.3431122265756130218505859375</LongitudeDegrees>
            </Position>
            <AltitudeMeters>418</AltitudeMeters>
            <DistanceMeters>30294.827464078</DistanceMeters>
          </Trackpoint>
          <Trackpoint>
            <Time>2018-04-21T09:59:12.000Z</Time>
            <Position>
              <LatitudeDegrees>43.18064622581005096435546875</LatitudeDegrees>
              <LongitudeDegrees>-8.34309286437928676605224609375</LongitudeDegrees>
            </Position>
            <AltitudeMeters>421.79998779296875</AltitudeMeters>
            <DistanceMeters>30301.398752046</DistanceMeters>
          </Trackpoint>
          <Trackpoint>
            <Time>2018-04-21T09:59:13.000Z</Time>
            <Position>
              <LatitudeDegrees>43.18062099628150463104248046875</LatitudeDegrees>
              <LongitudeDegrees>-8.34307844750583171844482421875</LongitudeDegrees>
            </Position>
            <AltitudeMeters>420.79998779296875</AltitudeMeters>
            <DistanceMeters>30304.442575042</DistanceMeters>
          </Trackpoint>
          <Trackpoint>
            <Time>2018-04-21T09:59:18.000Z</Time>
            <Position>
              <LatitudeDegrees>43.18052896298468112945556640625</LatitudeDegrees>
              <LongitudeDegrees>-8.343016840517520904541015625</LongitudeDegrees>
            </Position>
            <AltitudeMeters>421.399993896484375</AltitudeMeters>
            <DistanceMeters>30315.841820632</DistanceMeters>
          </Trackpoint>
          <Trackpoint>
            <Time>2018-04-21T09:59:52.000Z</Time>
            <Position>
              <LatitudeDegrees>43.1805240176618099212646484375</LatitudeDegrees>
              <LongitudeDegrees>-8.343002088367938995361328125</LongitudeDegrees>
            </Position>
            <AltitudeMeters>421.20001220703125</AltitudeMeters>
            <DistanceMeters>30317.161973939</DistanceMeters>
          </Trackpoint>
          <Trackpoint>
            <Time>2018-04-21T09:59:54.000Z</Time>
            <Position>
              <LatitudeDegrees>43.1805102713406085968017578125</LatitudeDegrees>
              <LongitudeDegrees>-8.34299948997795581817626953125</LongitudeDegrees>
            </Position>
            <AltitudeMeters>421.20001220703125</AltitudeMeters>
            <DistanceMeters>30318.705975293</DistanceMeters>
          </Trackpoint>
          <Trackpoint>
            <Time>2018-04-21T09:59:57.000Z</Time>
            <Position>
              <LatitudeDegrees>43.18045847117900848388671875</LatitudeDegrees>
              <LongitudeDegrees>-8.3430206961929798126220703125</LongitudeDegrees>
            </Position>
            <AltitudeMeters>417</AltitudeMeters>
            <DistanceMeters>30324.721999427</DistanceMeters>
          </Trackpoint>
          <Trackpoint>
            <Time>2018-04-21T09:59:58.000Z</Time>
            <Position>
              <LatitudeDegrees>43.18043843843042850494384765625</LatitudeDegrees>
              <LongitudeDegrees>-8.3430320955812931060791015625</LongitudeDegrees>
            </Position>
            <AltitudeMeters>420</AltitudeMeters>
            <DistanceMeters>30327.137248769</DistanceMeters>
          </Trackpoint>
          <Trackpoint>
            <Time>2018-04-21T09:59:59.000Z</Time>
            <Position>
              <LatitudeDegrees>43.18041916005313396453857421875</LatitudeDegrees>
              <LongitudeDegrees>-8.34304626099765300750732421875</LongitudeDegrees>
            </Position>
            <AltitudeMeters>419.399993896484375</AltitudeMeters>
            <DistanceMeters>30329.571120201</DistanceMeters>
          </Trackpoint>
          <Trackpoint>
            <Time>2018-04-21T10:00:00.000Z</Time>
            <Position>
              <LatitudeDegrees>43.18039854057133197784423828125</LatitudeDegrees>
              <LongitudeDegrees>-8.34306084550917148590087890625</LongitudeDegrees>
            </Position>
            <AltitudeMeters>423.399993896484375</AltitudeMeters>
            <DistanceMeters>30332.152630692</DistanceMeters>
          </Trackpoint>
          <Trackpoint>
            <Time>2018-04-21T10:00:03.000Z</Time>
            <Position>
              <LatitudeDegrees>43.18032628856599330902099609375</LatitudeDegrees>
              <LongitudeDegrees>-8.3430947922170162200927734375</LongitudeDegrees>
            </Position>
            <AltitudeMeters>422.399993896484375</AltitudeMeters>
            <DistanceMeters>30340.65367191</DistanceMeters>
          </Trackpoint>
          <Trackpoint>
            <Time>2018-04-21T10:00:05.000Z</Time>
            <Position>
              <LatitudeDegrees>43.18026996217668056488037109375</LatitudeDegrees>
              <LongitudeDegrees>-8.34311365149915218353271484375</LongitudeDegrees>
            </Position>
            <AltitudeMeters>423.399993896484375</AltitudeMeters>
            <DistanceMeters>30347.10709833</DistanceMeters>
          </Trackpoint>
          <Trackpoint>
            <Time>2018-04-21T10:00:06.000Z</Time>
            <Position>
              <LatitudeDegrees>43.18024045787751674652099609375</LatitudeDegrees>
              <LongitudeDegrees>-8.34312370978295803070068359375</LongitudeDegrees>
            </Position>
            <AltitudeMeters>422.399993896484375</AltitudeMeters>
            <DistanceMeters>30350.490903426</DistanceMeters>
          </Trackpoint>
          <Trackpoint>
            <Time>2018-04-21T10:00:12.000Z</Time>
            <Position>
              <LatitudeDegrees>43.18009595386683940887451171875</LatitudeDegrees>
              <LongitudeDegrees>-8.343223035335540771484375</LongitudeDegrees>
            </Position>
            <AltitudeMeters>421.79998779296875</AltitudeMeters>
            <DistanceMeters>30368.48134533</DistanceMeters>
          </Trackpoint>
          <Trackpoint>
            <Time>2018-04-21T10:00:13.000Z</Time>
            <Position>
              <LatitudeDegrees>43.18007600493729114532470703125</LatitudeDegrees>
              <LongitudeDegrees>-8.34323669783771038055419921875</LongitudeDegrees>
            </Position>
            <AltitudeMeters>423</AltitudeMeters>
            <DistanceMeters>30370.962980302</DistanceMeters>
          </Trackpoint>
          <Trackpoint>
            <Time>2018-04-21T10:00:15.000Z</Time>
            <Position>
              <LatitudeDegrees>43.18004650063812732696533203125</LatitudeDegrees>
              <LongitudeDegrees>-8.34326083771884441375732421875</LongitudeDegrees>
            </Position>
            <AltitudeMeters>424.399993896484375</AltitudeMeters>
            <DistanceMeters>30374.787731777</DistanceMeters>
          </Trackpoint>
          <Trackpoint>
            <Time>2018-04-21T10:00:17.000Z</Time>
            <Position>
              <LatitudeDegrees>43.180019594728946685791015625</LatitudeDegrees>
              <LongitudeDegrees>-8.34327064454555511474609375</LongitudeDegrees>
            </Position>
            <AltitudeMeters>423.399993896484375</AltitudeMeters>
            <DistanceMeters>30377.885952437</DistanceMeters>
          </Trackpoint>
          <Trackpoint>
            <Time>2018-04-21T10:00:20.000Z</Time>
            <Position>
              <LatitudeDegrees>43.17997592501342296600341796875</LatitudeDegrees>
              <LongitudeDegrees>-8.34326662123203277587890625</LongitudeDegrees>
            </Position>
            <AltitudeMeters>423.399993896484375</AltitudeMeters>
            <DistanceMeters>30382.757404058</DistanceMeters>
          </Trackpoint>
          <Trackpoint>
            <Time>2018-04-21T10:00:21.000Z</Time>
            <Position>
              <LatitudeDegrees>43.17997206933796405792236328125</LatitudeDegrees>
              <LongitudeDegrees>-8.3432377874851226806640625</LongitudeDegrees>
            </Position>
            <AltitudeMeters>423.20001220703125</AltitudeMeters>
            <DistanceMeters>30385.138766694</DistanceMeters>
          </Trackpoint>
          <Trackpoint>
            <Time>2018-04-21T10:00:24.000Z</Time>
            <Position>
              <LatitudeDegrees>43.1800395436584949493408203125</LatitudeDegrees>
              <LongitudeDegrees>-8.3431826345622539520263671875</LongitudeDegrees>
            </Position>
            <AltitudeMeters>425</AltitudeMeters>
            <DistanceMeters>30393.882257255</DistanceMeters>
          </Trackpoint>
          <Trackpoint>
            <Time>2018-04-21T10:00:26.000Z</Time>
            <Position>
              <LatitudeDegrees>43.18009930662810802459716796875</LatitudeDegrees>
              <LongitudeDegrees>-8.34314801730215549468994140625</LongitudeDegrees>
            </Position>
            <AltitudeMeters>423.399993896484375</AltitudeMeters>
            <DistanceMeters>30401.103037087</DistanceMeters>
          </Trackpoint>
          <Trackpoint>
            <Time>2018-04-21T10:00:27.000Z</Time>
            <Position>
              <LatitudeDegrees>43.18013392388820648193359375</LatitudeDegrees>
              <LongitudeDegrees>-8.343128822743892669677734375</LongitudeDegrees>
            </Position>
            <AltitudeMeters>422.20001220703125</AltitudeMeters>
            <DistanceMeters>30405.258215321</DistanceMeters>
          </Trackpoint>
          <Trackpoint>
            <Time>2018-04-21T10:00:28.000Z</Time>
            <Position>
              <LatitudeDegrees>43.18017155863344669342041015625</LatitudeDegrees>
              <LongitudeDegrees>-8.343108706176280975341796875</LongitudeDegrees>
            </Position>
            <AltitudeMeters>422.399993896484375</AltitudeMeters>
            <DistanceMeters>30409.753692057</DistanceMeters>
          </Trackpoint>
          <Trackpoint>
            <Time>2018-04-21T10:00:29.000Z</Time>
            <Position>
              <LatitudeDegrees>43.1802128814160823822021484375</LatitudeDegrees>
              <LongitudeDegrees>-8.343089260160923004150390625</LongitudeDegrees>
            </Position>
            <AltitudeMeters>422.399993896484375</AltitudeMeters>
            <DistanceMeters>30414.616794997</DistanceMeters>
          </Trackpoint>
          <Trackpoint>
            <Time>2018-04-21T10:00:34.000Z</Time>
            <Position>
              <LatitudeDegrees>43.18034715950489044189453125</LatitudeDegrees>
              <LongitudeDegrees>-8.34297032095491886138916015625</LongitudeDegrees>
            </Position>
            <AltitudeMeters>421.600006103515625</AltitudeMeters>
            <DistanceMeters>30432.408374457</DistanceMeters>
          </Trackpoint>
          <Trackpoint>
            <Time>2018-04-21T10:00:36.000Z</Time>
            <Position>
              <LatitudeDegrees>43.18032570183277130126953125</LatitudeDegrees>
              <LongitudeDegrees>-8.3429167605936527252197265625</LongitudeDegrees>
            </Position>
            <AltitudeMeters>421</AltitudeMeters>
            <DistanceMeters>30437.368004305</DistanceMeters>
          </Trackpoint>
          <Trackpoint>
            <Time>2018-04-21T10:00:38.000Z</Time>
            <Position>
              <LatitudeDegrees>43.1802806071937084197998046875</LatitudeDegrees>
              <LongitudeDegrees>-8.3428523875772953033447265625</LongitudeDegrees>
            </Position>
            <AltitudeMeters>420.79998779296875</AltitudeMeters>
            <DistanceMeters>30444.612505965</DistanceMeters>
          </Trackpoint>
          <Trackpoint>
            <Time>2018-04-21T10:00:42.000Z</Time>
            <Position>
              <LatitudeDegrees>43.18015672266483306884765625</LatitudeDegrees>
              <LongitudeDegrees>-8.34277569316327571868896484375</LongitudeDegrees>
            </Position>
            <AltitudeMeters>421</AltitudeMeters>
            <DistanceMeters>30459.740866334</DistanceMeters>
          </Trackpoint>
          <Trackpoint>
            <Time>2018-04-21T10:00:45.000Z</Time>
            <Position>
              <LatitudeDegrees>43.18005613982677459716796875</LatitudeDegrees>
              <LongitudeDegrees>-8.34279547445476055145263671875</LongitudeDegrees>
            </Position>
            <AltitudeMeters>421.79998779296875</AltitudeMeters>
            <DistanceMeters>30471.050642319</DistanceMeters>
          </Trackpoint>
          <Trackpoint>
            <Time>2018-04-21T10:00:46.000Z</Time>
            <Position>
              <LatitudeDegrees>43.1800227798521518707275390625</LatitudeDegrees>
              <LongitudeDegrees>-8.34281307645142078399658203125</LongitudeDegrees>
            </Position>
            <AltitudeMeters>422.20001220703125</AltitudeMeters>
            <DistanceMeters>30475.028165912</DistanceMeters>
          </Trackpoint>
          <Trackpoint>
            <Time>2018-04-21T10:00:47.000Z</Time>
            <Position>
              <LatitudeDegrees>43.1799937784671783447265625</LatitudeDegrees>
              <LongitudeDegrees>-8.34282414056360721588134765625</LongitudeDegrees>
            </Position>
            <AltitudeMeters>420.399993896484375</AltitudeMeters>
            <DistanceMeters>30478.377099316</DistanceMeters>
          </Trackpoint>
          <Trackpoint>
            <Time>2018-04-21T10:00:48.000Z</Time>
            <Position>
              <LatitudeDegrees>43.17996938712894916534423828125</LatitudeDegrees>
              <LongitudeDegrees>-8.3428300917148590087890625</LongitudeDegrees>
            </Position>
            <AltitudeMeters>422.399993896484375</AltitudeMeters>
            <DistanceMeters>30481.134511937</DistanceMeters>
          </Trackpoint>
          <Trackpoint>
            <Time>2018-04-21T10:00:50.000Z</Time>
            <Position>
              <LatitudeDegrees>43.179926387965679168701171875</LatitudeDegrees>
              <LongitudeDegrees>-8.34284258075058460235595703125</LongitudeDegrees>
            </Position>
            <AltitudeMeters>424.20001220703125</AltitudeMeters>
            <DistanceMeters>30486.026311461</DistanceMeters>
          </Trackpoint>
          <Trackpoint>
            <Time>2018-04-21T10:00:51.000Z</Time>
            <Position>
              <LatitudeDegrees>43.17990233190357685089111328125</LatitudeDegrees>
              <LongitudeDegrees>-8.3428486995398998260498046875</LongitudeDegrees>
            </Position>
            <AltitudeMeters>422.20001220703125</AltitudeMeters>
            <DistanceMeters>30488.749121179</DistanceMeters>
          </Trackpoint>
          <Trackpoint>
            <Time>2018-04-21T10:00:53.000Z</Time>
            <Position>
              <LatitudeDegrees>43.17985053174197673797607421875</LatitudeDegrees>
              <LongitudeDegrees>-8.34286755882203578948974609375</LongitudeDegrees>
            </Position>
            <AltitudeMeters>422.399993896484375</AltitudeMeters>
            <DistanceMeters>30494.713892858</DistanceMeters>
          </Trackpoint>
          <Trackpoint>
            <Time>2018-04-21T10:01:00.000Z</Time>
            <Position>
              <LatitudeDegrees>43.1796382181346416473388671875</LatitudeDegrees>
              <LongitudeDegrees>-8.34292589686810970306396484375</LongitudeDegrees>
            </Position>
            <AltitudeMeters>422.79998779296875</AltitudeMeters>
            <DistanceMeters>30518.814735938</DistanceMeters>
          </Trackpoint>
          <Trackpoint>
            <Time>2018-04-21T10:01:06.000Z</Time>
            <Position>
              <LatitudeDegrees>43.17947678267955780029296875</LatitudeDegrees>
              <LongitudeDegrees>-8.34296948276460170745849609375</LongitudeDegrees>
            </Position>
            <AltitudeMeters>423.20001220703125</AltitudeMeters>
            <DistanceMeters>30537.128038184</DistanceMeters>
          </Trackpoint>
          <Trackpoint>
            <Time>2018-04-21T10:01:07.000Z</Time>
            <Position>
              <LatitudeDegrees>43.17945239134132862091064453125</LatitudeDegrees>
              <LongitudeDegrees>-8.34297367371618747711181640625</LongitudeDegrees>
            </Position>
            <AltitudeMeters>423.20001220703125</AltitudeMeters>
            <DistanceMeters>30539.865731273</DistanceMeters>
          </Trackpoint>
          <Trackpoint>
            <Time>2018-04-21T10:01:13.000Z</Time>
            <Position>
              <LatitudeDegrees>43.179295398294925689697265625</LatitudeDegrees>
              <LongitudeDegrees>-8.34301851689815521240234375</LongitudeDegrees>
            </Position>
            <AltitudeMeters>424.399993896484375</AltitudeMeters>
            <DistanceMeters>30557.714318524</DistanceMeters>
          </Trackpoint>
          <Trackpoint>
            <Time>2018-04-21T10:01:15.000Z</Time>
            <Position>
              <LatitudeDegrees>43.17923798225820064544677734375</LatitudeDegrees>
              <LongitudeDegrees>-8.3430325984954833984375</LongitudeDegrees>
            </Position>
            <AltitudeMeters>424.399993896484375</AltitudeMeters>
            <DistanceMeters>30564.206806247</DistanceMeters>
          </Trackpoint>
          <Trackpoint>
            <Time>2018-04-21T10:01:20.000Z</Time>
            <Position>
              <LatitudeDegrees>43.17907218821346759796142578125</LatitudeDegrees>
              <LongitudeDegrees>-8.34310074336826801300048828125</LongitudeDegrees>
            </Position>
            <AltitudeMeters>424</AltitudeMeters>
            <DistanceMeters>30583.471231536</DistanceMeters>
          </Trackpoint>
          <Trackpoint>
            <Time>2018-04-21T10:01:23.000Z</Time>
            <Position>
              <LatitudeDegrees>43.1789485551416873931884765625</LatitudeDegrees>
              <LongitudeDegrees>-8.34314667619764804840087890625</LongitudeDegrees>
            </Position>
            <AltitudeMeters>424.20001220703125</AltitudeMeters>
            <DistanceMeters>30597.727772512</DistanceMeters>
          </Trackpoint>
          <Trackpoint>
            <Time>2018-04-21T10:01:29.000Z</Time>
            <Position>
              <LatitudeDegrees>43.178692571818828582763671875</LatitudeDegrees>
              <LongitudeDegrees>-8.34321892820298671722412109375</LongitudeDegrees>
            </Position>
            <AltitudeMeters>423.20001220703125</AltitudeMeters>
            <DistanceMeters>30626.816503717</DistanceMeters>
          </Trackpoint>
          <Trackpoint>
            <Time>2018-04-21T10:01:33.000Z</Time>
            <Position>
              <LatitudeDegrees>43.17850104533135890960693359375</LatitudeDegrees>
              <LongitudeDegrees>-8.3432753384113311767578125</LongitudeDegrees>
            </Position>
            <AltitudeMeters>423</AltitudeMeters>
            <DistanceMeters>30648.619906533</DistanceMeters>
          </Trackpoint>
          <Trackpoint>
            <Time>2018-04-21T10:01:36.000Z</Time>
            <Position>
              <LatitudeDegrees>43.17834564484655857086181640625</LatitudeDegrees>
              <LongitudeDegrees>-8.34331515245139598846435546875</LongitudeDegrees>
            </Position>
            <AltitudeMeters>422.20001220703125</AltitudeMeters>
            <DistanceMeters>30666.215508284</DistanceMeters>
          </Trackpoint>
          <Trackpoint>
            <Time>2018-04-21T10:01:37.000Z</Time>
            <Position>
              <LatitudeDegrees>43.17830474115908145904541015625</LatitudeDegrees>
              <LongitudeDegrees>-8.34332026541233062744140625</LongitudeDegrees>
            </Position>
            <AltitudeMeters>422.20001220703125</AltitudeMeters>
            <DistanceMeters>30670.787666086</DistanceMeters>
          </Trackpoint>
          <Trackpoint>
            <Time>2018-04-21T10:01:41.000Z</Time>
            <Position>
              <LatitudeDegrees>43.17819007672369480133056640625</LatitudeDegrees>
              <LongitudeDegrees>-8.34336125291883945465087890625</LongitudeDegrees>
            </Position>
            <AltitudeMeters>422.600006103515625</AltitudeMeters>
            <DistanceMeters>30683.976881097</DistanceMeters>
          </Trackpoint>
          <Trackpoint>
            <Time>2018-04-21T10:01:48.000Z</Time>
            <Position>
              <LatitudeDegrees>43.177943564951419830322265625</LatitudeDegrees>
              <LongitudeDegrees>-8.34343786351382732391357421875</LongitudeDegrees>
            </Position>
            <AltitudeMeters>422.79998779296875</AltitudeMeters>
            <DistanceMeters>30712.109924661</DistanceMeters>
          </Trackpoint>
          <Trackpoint>
            <Time>2018-04-21T10:01:56.000Z</Time>
            <Position>
              <LatitudeDegrees>43.17760384641587734222412109375</LatitudeDegrees>
              <LongitudeDegrees>-8.34352545440196990966796875</LongitudeDegrees>
            </Position>
            <AltitudeMeters>422.20001220703125</AltitudeMeters>
            <DistanceMeters>30750.58365844</DistanceMeters>
          </Trackpoint>
          <Trackpoint>
            <Time>2018-04-21T10:02:02.000Z</Time>
            <Position>
              <LatitudeDegrees>43.17736177705228328704833984375</LatitudeDegrees>
              <LongitudeDegrees>-8.34359963424503803253173828125</LongitudeDegrees>
            </Position>
            <AltitudeMeters>423</AltitudeMeters>
            <DistanceMeters>30778.190840694</DistanceMeters>
          </Trackpoint>
          <Trackpoint>
            <Time>2018-04-21T10:02:03.000Z</Time>
            <Position>
              <LatitudeDegrees>43.17732355557382106781005859375</LatitudeDegrees>
              <LongitudeDegrees>-8.343606926500797271728515625</LongitudeDegrees>
            </Position>
            <AltitudeMeters>423</AltitudeMeters>
            <DistanceMeters>30782.487057198</DistanceMeters>
          </Trackpoint>
          <Trackpoint>
            <Time>2018-04-21T10:02:10.000Z</Time>
            <Position>
              <LatitudeDegrees>43.1770130060613155364990234375</LatitudeDegrees>
              <LongitudeDegrees>-8.34370139054954051971435546875</LongitudeDegrees>
            </Position>
            <AltitudeMeters>422</AltitudeMeters>
            <DistanceMeters>30817.892128751</DistanceMeters>
          </Trackpoint>
          <Trackpoint>
            <Time>2018-04-21T10:02:12.000Z</Time>
            <Position>
              <LatitudeDegrees>43.17691124975681304931640625</LatitudeDegrees>
              <LongitudeDegrees>-8.343731649219989776611328125</LongitudeDegrees>
            </Position>
            <AltitudeMeters>421.20001220703125</AltitudeMeters>
            <DistanceMeters>30829.481103121</DistanceMeters>
          </Trackpoint>
          <Trackpoint>
            <Time>2018-04-21T10:02:15.000Z</Time>
            <Position>
              <LatitudeDegrees>43.17675543017685413360595703125</LatitudeDegrees>
              <LongitudeDegrees>-8.34378688596189022064208984375</LongitudeDegrees>
            </Position>
            <AltitudeMeters>421</AltitudeMeters>
            <DistanceMeters>30847.394331932</DistanceMeters>
          </Trackpoint>
          <Trackpoint>
            <Time>2018-04-21T10:02:16.000Z</Time>
            <Position>
              <LatitudeDegrees>43.17672123201191425323486328125</LatitudeDegrees>
              <LongitudeDegrees>-8.3438183180987834930419921875</LongitudeDegrees>
            </Position>
            <AltitudeMeters>421.399993896484375</AltitudeMeters>
            <DistanceMeters>30851.977339439</DistanceMeters>
          </Trackpoint>
          <Trackpoint>
            <Time>2018-04-21T10:02:19.000Z</Time>
            <Position>
              <LatitudeDegrees>43.176699019968509674072265625</LatitudeDegrees>
              <LongitudeDegrees>-8.3439217507839202880859375</LongitudeDegrees>
            </Position>
            <AltitudeMeters>422</AltitudeMeters>
            <DistanceMeters>30860.729088315</DistanceMeters>
          </Trackpoint>
          <Trackpoint>
            <Time>2018-04-21T10:02:20.000Z</Time>
            <Position>
              <LatitudeDegrees>43.17669667303562164306640625</LatitudeDegrees>
              <LongitudeDegrees>-8.34395385347306728363037109375</LongitudeDegrees>
            </Position>
            <AltitudeMeters>422</AltitudeMeters>
            <DistanceMeters>30863.348794043</DistanceMeters>
          </Trackpoint>
          <Trackpoint>
            <Time>2018-04-21T10:02:21.000Z</Time>
            <Position>
              <LatitudeDegrees>43.17669390700757503509521484375</LatitudeDegrees>
              <LongitudeDegrees>-8.34398872219026088714599609375</LongitudeDegrees>
            </Position>
            <AltitudeMeters>422.20001220703125</AltitudeMeters>
            <DistanceMeters>30866.196426155</DistanceMeters>
          </Trackpoint>
          <Trackpoint>
            <Time>2018-04-21T10:02:26.000Z</Time>
            <Position>
              <LatitudeDegrees>43.176642023026943206787109375</LatitudeDegrees>
              <LongitudeDegrees>-8.34416876547038555145263671875</LongitudeDegrees>
            </Position>
            <AltitudeMeters>422.79998779296875</AltitudeMeters>
            <DistanceMeters>30881.909776536</DistanceMeters>
          </Trackpoint>
          <Trackpoint>
            <Time>2018-04-21T10:02:28.000Z</Time>
            <Position>
              <LatitudeDegrees>43.1765969283878803253173828125</LatitudeDegrees>
              <LongitudeDegrees>-8.34423716180026531219482421875</LongitudeDegrees>
            </Position>
            <AltitudeMeters>423.399993896484375</AltitudeMeters>
            <DistanceMeters>30889.3946008</DistanceMeters>
          </Trackpoint>
          <Trackpoint>
            <Time>2018-04-21T10:02:31.000Z</Time>
            <Position>
              <LatitudeDegrees>43.17650950513780117034912109375</LatitudeDegrees>
              <LongitudeDegrees>-8.3443255908787250518798828125</LongitudeDegrees>
            </Position>
            <AltitudeMeters>423.20001220703125</AltitudeMeters>
            <DistanceMeters>30901.485793364</DistanceMeters>
          </Trackpoint>
          <Trackpoint>
            <Time>2018-04-21T10:02:37.000Z</Time>
            <Position>
              <LatitudeDegrees>43.17633952014148235321044921875</LatitudeDegrees>
              <LongitudeDegrees>-8.3444597013294696807861328125</LongitudeDegrees>
            </Position>
            <AltitudeMeters>424.600006103515625</AltitudeMeters>
            <DistanceMeters>30923.313411039</DistanceMeters>
          </Trackpoint>
          <Trackpoint>
            <Time>2018-04-21T10:02:38.000Z</Time>
            <Position>
              <LatitudeDegrees>43.17631437443196773529052734375</LatitudeDegrees>
              <LongitudeDegrees>-8.34448124282062053680419921875</LongitudeDegrees>
            </Position>
            <AltitudeMeters>425</AltitudeMeters>
            <DistanceMeters>30926.613452279</DistanceMeters>
          </Trackpoint>
          <Trackpoint>
            <Time>2018-04-21T10:02:40.000Z</Time>
            <Position>
              <LatitudeDegrees>43.17626844160258769989013671875</LatitudeDegrees>
              <LongitudeDegrees>-8.34452616982161998748779296875</LongitudeDegrees>
            </Position>
            <AltitudeMeters>425.399993896484375</AltitudeMeters>
            <DistanceMeters>30932.893848279</DistanceMeters>
          </Trackpoint>
          <Trackpoint>
            <Time>2018-04-21T10:02:42.000Z</Time>
            <Position>
              <LatitudeDegrees>43.17622351460158824920654296875</LatitudeDegrees>
              <LongitudeDegrees>-8.34457931108772754669189453125</LongitudeDegrees>
            </Position>
            <AltitudeMeters>425.600006103515625</AltitudeMeters>
            <DistanceMeters>30939.498034014</DistanceMeters>
          </Trackpoint>
          <Trackpoint>
            <Time>2018-04-21T10:02:43.000Z</Time>
            <Position>
              <LatitudeDegrees>43.17620540969073772430419921875</LatitudeDegrees>
              <LongitudeDegrees>-8.3446095697581768035888671875</LongitudeDegrees>
            </Position>
            <AltitudeMeters>425.79998779296875</AltitudeMeters>
            <DistanceMeters>30942.675395413</DistanceMeters>
          </Trackpoint>
          <Trackpoint>
            <Time>2018-04-21T10:02:44.000Z</Time>
            <Position>
              <LatitudeDegrees>43.17618730477988719940185546875</LatitudeDegrees>
              <LongitudeDegrees>-8.344641588628292083740234375</LongitudeDegrees>
            </Position>
            <AltitudeMeters>426</AltitudeMeters>
            <DistanceMeters>30945.964473032</DistanceMeters>
          </Trackpoint>
          <Trackpoint>
            <Time>2018-04-21T10:02:46.000Z</Time>
            <Position>
              <LatitudeDegrees>43.17614816129207611083984375</LatitudeDegrees>
              <LongitudeDegrees>-8.34469330497086048126220703125</LongitudeDegrees>
            </Position>
            <AltitudeMeters>423.20001220703125</AltitudeMeters>
            <DistanceMeters>30952.01417549</DistanceMeters>
          </Trackpoint>
          <Trackpoint>
            <Time>2018-04-21T10:02:47.000Z</Time>
            <Position>
              <LatitudeDegrees>43.17612695507705211639404296875</LatitudeDegrees>
              <LongitudeDegrees>-8.34471778012812137603759765625</LongitudeDegrees>
            </Position>
            <AltitudeMeters>425.20001220703125</AltitudeMeters>
            <DistanceMeters>30955.100715729</DistanceMeters>
          </Trackpoint>
          <Trackpoint>
            <Time>2018-04-21T10:02:49.000Z</Time>
            <Position>
              <LatitudeDegrees>43.176074065268039703369140625</LatitudeDegrees>
              <LongitudeDegrees>-8.3447641320526599884033203125</LongitudeDegrees>
            </Position>
            <AltitudeMeters>429.399993896484375</AltitudeMeters>
            <DistanceMeters>30962.08695672</DistanceMeters>
          </Trackpoint>
          <Trackpoint>
            <Time>2018-04-21T10:02:50.000Z</Time>
            <Position>
              <LatitudeDegrees>43.176045902073383331298828125</LatitudeDegrees>
              <LongitudeDegrees>-8.34478567354381084442138671875</LongitudeDegrees>
            </Position>
            <AltitudeMeters>426.79998779296875</AltitudeMeters>
            <DistanceMeters>30965.676652958</DistanceMeters>
          </Trackpoint>
          <Trackpoint>
            <Time>2018-04-21T10:02:57.000Z</Time>
            <Position>
              <LatitudeDegrees>43.17582520656287670135498046875</LatitudeDegrees>
              <LongitudeDegrees>-8.34491291083395481109619140625</LongitudeDegrees>
            </Position>
            <AltitudeMeters>427.79998779296875</AltitudeMeters>
            <DistanceMeters>30992.32330267</DistanceMeters>
          </Trackpoint>
          <Trackpoint>
            <Time>2018-04-21T10:02:59.000Z</Time>
            <Position>
              <LatitudeDegrees>43.17575798369944095611572265625</LatitudeDegrees>
              <LongitudeDegrees>-8.3449436724185943603515625</LongitudeDegrees>
            </Position>
            <AltitudeMeters>427.79998779296875</AltitudeMeters>
            <DistanceMeters>31000.211092392</DistanceMeters>
          </Trackpoint>
          <Trackpoint>
            <Time>2018-04-21T10:03:05.000Z</Time>
            <Position>
              <LatitudeDegrees>43.1755654513835906982421875</LatitudeDegrees>
              <LongitudeDegrees>-8.3450631983578205108642578125</LongitudeDegrees>
            </Position>
            <AltitudeMeters>427.79998779296875</AltitudeMeters>
            <DistanceMeters>31023.733995363</DistanceMeters>
          </Trackpoint>
          <Trackpoint>
            <Time>2018-04-21T10:03:11.000Z</Time>
            <Position>
              <LatitudeDegrees>43.17535816691815853118896484375</LatitudeDegrees>
              <LongitudeDegrees>-8.3451835624873638153076171875</LongitudeDegrees>
            </Position>
            <AltitudeMeters>428.600006103515625</AltitudeMeters>
            <DistanceMeters>31048.788271124</DistanceMeters>
          </Trackpoint>
          <Trackpoint>
            <Time>2018-04-21T10:03:17.000Z</Time>
            <Position>
              <LatitudeDegrees>43.1751532293856143951416015625</LatitudeDegrees>
              <LongitudeDegrees>-8.345304764807224273681640625</LongitudeDegrees>
            </Position>
            <AltitudeMeters>428.79998779296875</AltitudeMeters>
            <DistanceMeters>31073.629352097</DistanceMeters>
          </Trackpoint>
          <Trackpoint>
            <Time>2018-04-21T10:03:18.000Z</Time>
            <Position>
              <LatitudeDegrees>43.1751156784594058990478515625</LatitudeDegrees>
              <LongitudeDegrees>-8.345330916345119476318359375</LongitudeDegrees>
            </Position>
            <AltitudeMeters>429</AltitudeMeters>
            <DistanceMeters>31078.317550691</DistanceMeters>
          </Trackpoint>
          <Trackpoint>
            <Time>2018-04-21T10:03:24.000Z</Time>
            <Position>
              <LatitudeDegrees>43.1748685799539089202880859375</LatitudeDegrees>
              <LongitudeDegrees>-8.34550132043659687042236328125</LongitudeDegrees>
            </Position>
            <AltitudeMeters>428.79998779296875</AltitudeMeters>
            <DistanceMeters>31109.102393111</DistanceMeters>
          </Trackpoint>
          <Trackpoint>
            <Time>2018-04-21T10:03:25.000Z</Time>
            <Position>
              <LatitudeDegrees>43.17481937818229198455810546875</LatitudeDegrees>
              <LongitudeDegrees>-8.34552110172808170318603515625</LongitudeDegrees>
            </Position>
            <AltitudeMeters>428.600006103515625</AltitudeMeters>
            <DistanceMeters>31114.810327572</DistanceMeters>
          </Trackpoint>
          <Trackpoint>
            <Time>2018-04-21T10:03:30.000Z</Time>
            <Position>
              <LatitudeDegrees>43.17455224692821502685546875</LatitudeDegrees>
              <LongitudeDegrees>-8.3456137217581272125244140625</LongitudeDegrees>
            </Position>
            <AltitudeMeters>427.600006103515625</AltitudeMeters>
            <DistanceMeters>31145.478350202</DistanceMeters>
          </Trackpoint>
          <Trackpoint>
            <Time>2018-04-21T10:03:33.000Z</Time>
            <Position>
              <LatitudeDegrees>43.17437790334224700927734375</LatitudeDegrees>
              <LongitudeDegrees>-8.34566761739552021026611328125</LongitudeDegrees>
            </Position>
            <AltitudeMeters>427</AltitudeMeters>
            <DistanceMeters>31165.36982726</DistanceMeters>
          </Trackpoint>
          <Trackpoint>
            <Time>2018-04-21T10:03:36.000Z</Time>
            <Position>
              <LatitudeDegrees>43.1742000393569469451904296875</LatitudeDegrees>
              <LongitudeDegrees>-8.3457357622683048248291015625</LongitudeDegrees>
            </Position>
            <AltitudeMeters>426.79998779296875</AltitudeMeters>
            <DistanceMeters>31185.924612996</DistanceMeters>
          </Trackpoint>
          <Trackpoint>
            <Time>2018-04-21T10:03:38.000Z</Time>
            <Position>
              <LatitudeDegrees>43.17408562637865543365478515625</LatitudeDegrees>
              <LongitudeDegrees>-8.34579384885728359222412109375</LongitudeDegrees>
            </Position>
            <AltitudeMeters>427</AltitudeMeters>
            <DistanceMeters>31199.503794156</DistanceMeters>
          </Trackpoint>
          <Trackpoint>
            <Time>2018-04-21T10:03:39.000Z</Time>
            <Position>
              <LatitudeDegrees>43.17402896471321582794189453125</LatitudeDegrees>
              <LongitudeDegrees>-8.34581580944359302520751953125</LongitudeDegrees>
            </Position>
            <AltitudeMeters>427.20001220703125</AltitudeMeters>
            <DistanceMeters>31206.057193546</DistanceMeters>
          </Trackpoint>
          <Trackpoint>
            <Time>2018-04-21T10:03:40.000Z</Time>
            <Position>
              <LatitudeDegrees>43.17397213540971279144287109375</LatitudeDegrees>
              <LongitudeDegrees>-8.34583626128733158111572265625</LongitudeDegrees>
            </Position>
            <AltitudeMeters>426.79998779296875</AltitudeMeters>
            <DistanceMeters>31212.596799195</DistanceMeters>
          </Trackpoint>
          <Trackpoint>
            <Time>2018-04-21T10:03:43.000Z</Time>
            <Position>
              <LatitudeDegrees>43.1738104484975337982177734375</LatitudeDegrees>
              <LongitudeDegrees>-8.3459070883691310882568359375</LongitudeDegrees>
            </Position>
            <AltitudeMeters>426.399993896484375</AltitudeMeters>
            <DistanceMeters>31231.488960835</DistanceMeters>
          </Trackpoint>
          <Trackpoint>
            <Time>2018-04-21T10:03:46.000Z</Time>
            <Position>
              <LatitudeDegrees>43.17365127615630626678466796875</LatitudeDegrees>
              <LongitudeDegrees>-8.3459774963557720184326171875</LongitudeDegrees>
            </Position>
            <AltitudeMeters>425.600006103515625</AltitudeMeters>
            <DistanceMeters>31250.104012634</DistanceMeters>
          </Trackpoint>
          <Trackpoint>
            <Time>2018-04-21T10:03:48.000Z</Time>
            <Position>
              <LatitudeDegrees>43.17354566417634487152099609375</LatitudeDegrees>
              <LongitudeDegrees>-8.3460210822522640228271484375</LongitudeDegrees>
            </Position>
            <AltitudeMeters>425.79998779296875</AltitudeMeters>
            <DistanceMeters>31262.379022025</DistanceMeters>
          </Trackpoint>
          <Trackpoint>
            <Time>2018-04-21T10:03:53.000Z</Time>
            <Position>
              <LatitudeDegrees>43.17328414879739284515380859375</LatitudeDegrees>
              <LongitudeDegrees>-8.34617572836577892303466796875</LongitudeDegrees>
            </Position>
            <AltitudeMeters>425.20001220703125</AltitudeMeters>
            <DistanceMeters>31294.077518299</DistanceMeters>
          </Trackpoint>
          <Trackpoint>
            <Time>2018-04-21T10:03:54.000Z</Time>
            <Position>
              <LatitudeDegrees>43.17323260009288787841796875</LatitudeDegrees>
              <LongitudeDegrees>-8.34621696732938289642333984375</LongitudeDegrees>
            </Position>
            <AltitudeMeters>425.20001220703125</AltitudeMeters>
            <DistanceMeters>31300.721238165</DistanceMeters>
          </Trackpoint>
          <Trackpoint>
            <Time>2018-04-21T10:03:56.000Z</Time>
            <Position>
              <LatitudeDegrees>43.17312908358871936798095703125</LatitudeDegrees>
              <LongitudeDegrees>-8.3463008701801300048828125</LongitudeDegrees>
            </Position>
            <AltitudeMeters>424.399993896484375</AltitudeMeters>
            <DistanceMeters>31314.105507159</DistanceMeters>
          </Trackpoint>
          <Trackpoint>
            <Time>2018-04-21T10:03:57.000Z</Time>
            <Position>
              <LatitudeDegrees>43.17308063618838787078857421875</LatitudeDegrees>
              <LongitudeDegrees>-8.34634973667562007904052734375</LongitudeDegrees>
            </Position>
            <AltitudeMeters>423.79998779296875</AltitudeMeters>
            <DistanceMeters>31320.799328139</DistanceMeters>
          </Trackpoint>
          <Trackpoint>
            <Time>2018-04-21T10:03:59.000Z</Time>
            <Position>
              <LatitudeDegrees>43.17299396730959415435791015625</LatitudeDegrees>
              <LongitudeDegrees>-8.3464658260345458984375</LongitudeDegrees>
            </Position>
            <AltitudeMeters>423.600006103515625</AltitudeMeters>
            <DistanceMeters>31334.284419145</DistanceMeters>
          </Trackpoint>
          <Trackpoint>
            <Time>2018-04-21T10:04:02.000Z</Time>
            <Position>
              <LatitudeDegrees>43.17286421544849872589111328125</LatitudeDegrees>
              <LongitudeDegrees>-8.346632458269596099853515625</LongitudeDegrees>
            </Position>
            <AltitudeMeters>423.20001220703125</AltitudeMeters>
            <DistanceMeters>31354.070980097</DistanceMeters>
          </Trackpoint>
          <Trackpoint>
            <Time>2018-04-21T10:04:05.000Z</Time>
            <Position>
              <LatitudeDegrees>43.1727228127419948577880859375</LatitudeDegrees>
              <LongitudeDegrees>-8.346761874854564666748046875</LongitudeDegrees>
            </Position>
            <AltitudeMeters>423</AltitudeMeters>
            <DistanceMeters>31372.99323052</DistanceMeters>
          </Trackpoint>
          <Trackpoint>
            <Time>2018-04-21T10:04:07.000Z</Time>
            <Position>
              <LatitudeDegrees>43.17265064455568790435791015625</LatitudeDegrees>
              <LongitudeDegrees>-8.34683253429830074310302734375</LongitudeDegrees>
            </Position>
            <AltitudeMeters>422.79998779296875</AltitudeMeters>
            <DistanceMeters>31382.863208467</DistanceMeters>
          </Trackpoint>
          <Trackpoint>
            <Time>2018-04-21T10:04:08.000Z</Time>
            <Position>
              <LatitudeDegrees>43.1726379878818988800048828125</LatitudeDegrees>
              <LongitudeDegrees>-8.34686874412000179290771484375</LongitudeDegrees>
            </Position>
            <AltitudeMeters>422.79998779296875</AltitudeMeters>
            <DistanceMeters>31386.121945937</DistanceMeters>
          </Trackpoint>
          <Trackpoint>
            <Time>2018-04-21T10:04:09.000Z</Time>
            <Position>
              <LatitudeDegrees>43.172642178833484649658203125</LatitudeDegrees>
              <LongitudeDegrees>-8.346903361380100250244140625</LongitudeDegrees>
            </Position>
            <AltitudeMeters>422.600006103515625</AltitudeMeters>
            <DistanceMeters>31388.969578049</DistanceMeters>
          </Trackpoint>
          <Trackpoint>
            <Time>2018-04-21T10:04:14.000Z</Time>
            <Position>
              <LatitudeDegrees>43.17269858904182910919189453125</LatitudeDegrees>
              <LongitudeDegrees>-8.3470235578715801239013671875</LongitudeDegrees>
            </Position>
            <AltitudeMeters>423</AltitudeMeters>
            <DistanceMeters>31400.571402021</DistanceMeters>
          </Trackpoint>
          <Trackpoint>
            <Time>2018-04-21T10:04:15.000Z</Time>
            <Position>
              <LatitudeDegrees>43.1727037020027637481689453125</LatitudeDegrees>
              <LongitudeDegrees>-8.3470352925360202789306640625</LongitudeDegrees>
            </Position>
            <AltitudeMeters>423.20001220703125</AltitudeMeters>
            <DistanceMeters>31401.679594421</DistanceMeters>
          </Trackpoint>
          <Trackpoint>
            <Time>2018-04-21T10:04:17.000Z</Time>
            <Position>
              <LatitudeDegrees>43.17270345054566860198974609375</LatitudeDegrees>
              <LongitudeDegrees>-8.34703638218343257904052734375</LongitudeDegrees>
            </Position>
            <AltitudeMeters>423.399993896484375</AltitudeMeters>
            <DistanceMeters>31401.679594421</DistanceMeters>
          </Trackpoint>
          <Trackpoint>
            <Time>2018-04-21T10:04:18.000Z</Time>
            <Position>
              <LatitudeDegrees>43.17269473336637020111083984375</LatitudeDegrees>
              <LongitudeDegrees>-8.34704141132533550262451171875</LongitudeDegrees>
            </Position>
            <AltitudeMeters>423.399993896484375</AltitudeMeters>
            <DistanceMeters>31402.733491666</DistanceMeters>
          </Trackpoint>
          <Trackpoint>
            <Time>2018-04-21T10:04:22.000Z</Time>
            <Position>
              <LatitudeDegrees>43.17258727736771106719970703125</LatitudeDegrees>
              <LongitudeDegrees>-8.34710578434169292449951171875</LongitudeDegrees>
            </Position>
            <AltitudeMeters>423.600006103515625</AltitudeMeters>
            <DistanceMeters>31415.785403102</DistanceMeters>
          </Trackpoint>
          <Trackpoint>
            <Time>2018-04-21T10:04:28.000Z</Time>
            <Position>
              <LatitudeDegrees>43.1723469682037830352783203125</LatitudeDegrees>
              <LongitudeDegrees>-8.34725582040846347808837890625</LongitudeDegrees>
            </Position>
            <AltitudeMeters>422.600006103515625</AltitudeMeters>
            <DistanceMeters>31445.174325363</DistanceMeters>
          </Trackpoint>
          <Trackpoint>
            <Time>2018-04-21T10:04:31.000Z</Time>
            <Position>
              <LatitudeDegrees>43.17222719080746173858642578125</LatitudeDegrees>
              <LongitudeDegrees>-8.34737299941480159759521484375</LongitudeDegrees>
            </Position>
            <AltitudeMeters>423</AltitudeMeters>
            <DistanceMeters>31461.550932777</DistanceMeters>
          </Trackpoint>
          <Trackpoint>
            <Time>2018-04-21T10:04:34.000Z</Time>
            <Position>
              <LatitudeDegrees>43.17210414446890354156494140625</LatitudeDegrees>
              <LongitudeDegrees>-8.3475133962929248809814453125</LongitudeDegrees>
            </Position>
            <AltitudeMeters>422.20001220703125</AltitudeMeters>
            <DistanceMeters>31479.367618138</DistanceMeters>
          </Trackpoint>
          <Trackpoint>
            <Time>2018-04-21T10:04:37.000Z</Time>
            <Position>
              <LatitudeDegrees>43.171984367072582244873046875</LatitudeDegrees>
              <LongitudeDegrees>-8.347677178680896759033203125</LongitudeDegrees>
            </Position>
            <AltitudeMeters>421.79998779296875</AltitudeMeters>
            <DistanceMeters>31498.194902082</DistanceMeters>
          </Trackpoint>
          <Trackpoint>
            <Time>2018-04-21T10:04:39.000Z</Time>
            <Position>
              <LatitudeDegrees>43.17191504873335361480712890625</LatitudeDegrees>
              <LongitudeDegrees>-8.347767032682895660400390625</LongitudeDegrees>
            </Position>
            <AltitudeMeters>421.79998779296875</AltitudeMeters>
            <DistanceMeters>31508.811984744</DistanceMeters>
          </Trackpoint>
          <Trackpoint>
            <Time>2018-04-21T10:04:40.000Z</Time>
            <Position>
              <LatitudeDegrees>43.1718827784061431884765625</LatitudeDegrees>
              <LongitudeDegrees>-8.34777566604316234588623046875</LongitudeDegrees>
            </Position>
            <AltitudeMeters>421.399993896484375</AltitudeMeters>
            <DistanceMeters>31512.470204706</DistanceMeters>
          </Trackpoint>
          <Trackpoint>
            <Time>2018-04-21T10:04:41.000Z</Time>
            <Position>
              <LatitudeDegrees>43.17184765823185443878173828125</LatitudeDegrees>
              <LongitudeDegrees>-8.347767032682895660400390625</LongitudeDegrees>
            </Position>
            <AltitudeMeters>420.600006103515625</AltitudeMeters>
            <DistanceMeters>31516.438636804</DistanceMeters>
          </Trackpoint>
          <Trackpoint>
            <Time>2018-04-21T10:04:43.000Z</Time>
            <Position>
              <LatitudeDegrees>43.17178965546190738677978515625</LatitudeDegrees>
              <LongitudeDegrees>-8.34770693443715572357177734375</LongitudeDegrees>
            </Position>
            <AltitudeMeters>420.399993896484375</AltitudeMeters>
            <DistanceMeters>31524.529869975</DistanceMeters>
          </Trackpoint>
          <Trackpoint>
            <Time>2018-04-21T10:04:45.000Z</Time>
            <Position>
              <LatitudeDegrees>43.1717441417276859283447265625</LatitudeDegrees>
              <LongitudeDegrees>-8.3476052619516849517822265625</LongitudeDegrees>
            </Position>
            <AltitudeMeters>420.20001220703125</AltitudeMeters>
            <DistanceMeters>31534.213274014</DistanceMeters>
          </Trackpoint>
          <Trackpoint>
            <Time>2018-04-21T10:04:48.000Z</Time>
            <Position>
              <LatitudeDegrees>43.17167499102652072906494140625</LatitudeDegrees>
              <LongitudeDegrees>-8.3474279008805751800537109375</LongitudeDegrees>
            </Position>
            <AltitudeMeters>420.399993896484375</AltitudeMeters>
            <DistanceMeters>31550.538244033</DistanceMeters>
          </Trackpoint>
          <Trackpoint>
            <Time>2018-04-21T10:04:52.000Z</Time>
            <Position>
              <LatitudeDegrees>43.17156954668462276458740234375</LatitudeDegrees>
              <LongitudeDegrees>-8.34714584983885288238525390625</LongitudeDegrees>
            </Position>
            <AltitudeMeters>420.600006103515625</AltitudeMeters>
            <DistanceMeters>31576.265750778</DistanceMeters>
          </Trackpoint>
          <Trackpoint>
            <Time>2018-04-21T10:04:53.000Z</Time>
            <Position>
              <LatitudeDegrees>43.171551190316677093505859375</LatitudeDegrees>
              <LongitudeDegrees>-8.34706521593034267425537109375</LongitudeDegrees>
            </Position>
            <AltitudeMeters>420</AltitudeMeters>
            <DistanceMeters>31583.122176813</DistanceMeters>
          </Trackpoint>
          <Trackpoint>
            <Time>2018-04-21T10:04:54.000Z</Time>
            <Position>
              <LatitudeDegrees>43.171533755958080291748046875</LatitudeDegrees>
              <LongitudeDegrees>-8.34698005579411983489990234375</LongitudeDegrees>
            </Position>
            <AltitudeMeters>419.399993896484375</AltitudeMeters>
            <DistanceMeters>31590.302826957</DistanceMeters>
          </Trackpoint>
          <Trackpoint>
            <Time>2018-04-21T10:05:00.000Z</Time>
            <Position>
              <LatitudeDegrees>43.17142135463654994964599609375</LatitudeDegrees>
              <LongitudeDegrees>-8.34643573500216007232666015625</LongitudeDegrees>
            </Position>
            <AltitudeMeters>418.79998779296875</AltitudeMeters>
            <DistanceMeters>31636.224234729</DistanceMeters>
          </Trackpoint>
          <Trackpoint>
            <Time>2018-04-21T10:05:02.000Z</Time>
            <Position>
              <LatitudeDegrees>43.17137676291167736053466796875</LatitudeDegrees>
              <LongitudeDegrees>-8.3462504111230373382568359375</LongitudeDegrees>
            </Position>
            <AltitudeMeters>418.20001220703125</AltitudeMeters>
            <DistanceMeters>31652.064934342</DistanceMeters>
          </Trackpoint>
          <Trackpoint>
            <Time>2018-04-21T10:05:05.000Z</Time>
            <Position>
              <LatitudeDegrees>43.1713169999420642852783203125</LatitudeDegrees>
              <LongitudeDegrees>-8.34595243446528911590576171875</LongitudeDegrees>
            </Position>
            <AltitudeMeters>417</AltitudeMeters>
            <DistanceMeters>31677.150907064</DistanceMeters>
          </Trackpoint>
          <Trackpoint>
            <Time>2018-04-21T10:05:06.000Z</Time>
            <Position>
              <LatitudeDegrees>43.17129696719348430633544921875</LatitudeDegrees>
              <LongitudeDegrees>-8.3458497561514377593994140625</LongitudeDegrees>
            </Position>
            <AltitudeMeters>417.79998779296875</AltitudeMeters>
            <DistanceMeters>31685.778997826</DistanceMeters>
          </Trackpoint>
          <Trackpoint>
            <Time>2018-04-21T10:05:09.000Z</Time>
            <Position>
              <LatitudeDegrees>43.17124374210834503173828125</LatitudeDegrees>
              <LongitudeDegrees>-8.3455463312566280364990234375</LongitudeDegrees>
            </Position>
            <AltitudeMeters>416</AltitudeMeters>
            <DistanceMeters>31711.111594271</DistanceMeters>
          </Trackpoint>
          <Trackpoint>
            <Time>2018-04-21T10:05:10.000Z</Time>
            <Position>
              <LatitudeDegrees>43.17122287116944789886474609375</LatitudeDegrees>
              <LongitudeDegrees>-8.34545454941689968109130859375</LongitudeDegrees>
            </Position>
            <AltitudeMeters>415.600006103515625</AltitudeMeters>
            <DistanceMeters>31718.915364869</DistanceMeters>
          </Trackpoint>
          <Trackpoint>
            <Time>2018-04-21T10:05:12.000Z</Time>
            <Position>
              <LatitudeDegrees>43.171197138726711273193359375</LatitudeDegrees>
              <LongitudeDegrees>-8.3452717401087284088134765625</LongitudeDegrees>
            </Position>
            <AltitudeMeters>415.399993896484375</AltitudeMeters>
            <DistanceMeters>31734.02879544</DistanceMeters>
          </Trackpoint>
          <Trackpoint>
            <Time>2018-04-21T10:05:15.000Z</Time>
            <Position>
              <LatitudeDegrees>43.171250112354755401611328125</LatitudeDegrees>
              <LongitudeDegrees>-8.34501986391842365264892578125</LongitudeDegrees>
            </Position>
            <AltitudeMeters>415.600006103515625</AltitudeMeters>
            <DistanceMeters>31755.307566388</DistanceMeters>
          </Trackpoint>
          <Trackpoint>
            <Time>2018-04-21T10:05:18.000Z</Time>
            <Position>
              <LatitudeDegrees>43.17136419005692005157470703125</LatitudeDegrees>
              <LongitudeDegrees>-8.34482691250741481781005859375</LongitudeDegrees>
            </Position>
            <AltitudeMeters>416.600006103515625</AltitudeMeters>
            <DistanceMeters>31775.47025573</DistanceMeters>
          </Trackpoint>
          <Trackpoint>
            <Time>2018-04-21T10:05:20.000Z</Time>
            <Position>
              <LatitudeDegrees>43.17142889834940433502197265625</LatitudeDegrees>
              <LongitudeDegrees>-8.3447151817381381988525390625</LongitudeDegrees>
            </Position>
            <AltitudeMeters>417.20001220703125</AltitudeMeters>
            <DistanceMeters>31787.051045658</DistanceMeters>
          </Trackpoint>
          <Trackpoint>
            <Time>2018-04-21T10:05:22.000Z</Time>
            <Position>
              <LatitudeDegrees>43.17147516645491123199462890625</LatitudeDegrees>
              <LongitudeDegrees>-8.34459423087537288665771484375</LongitudeDegrees>
            </Position>
            <AltitudeMeters>418</AltitudeMeters>
            <DistanceMeters>31798.137857668</DistanceMeters>
          </Trackpoint>
          <Trackpoint>
            <Time>2018-04-21T10:05:23.000Z</Time>
            <Position>
              <LatitudeDegrees>43.17149779759347438812255859375</LatitudeDegrees>
              <LongitudeDegrees>-8.3445378206670284271240234375</LongitudeDegrees>
            </Position>
            <AltitudeMeters>418.600006103515625</AltitudeMeters>
            <DistanceMeters>31803.363463008</DistanceMeters>
          </Trackpoint>
          <Trackpoint>
            <Time>2018-04-21T10:05:25.000Z</Time>
            <Position>
              <LatitudeDegrees>43.17153652198612689971923828125</LatitudeDegrees>
              <LongitudeDegrees>-8.344427682459354400634765625</LongitudeDegrees>
            </Position>
            <AltitudeMeters>418.600006103515625</AltitudeMeters>
            <DistanceMeters>31813.288183349</DistanceMeters>
          </Trackpoint>
          <Trackpoint>
            <Time>2018-04-21T10:05:26.000Z</Time>
            <Position>
              <LatitudeDegrees>43.171555884182453155517578125</LatitudeDegrees>
              <LongitudeDegrees>-8.34437428973615169525146484375</LongitudeDegrees>
            </Position>
            <AltitudeMeters>418.79998779296875</AltitudeMeters>
            <DistanceMeters>31818.128019947</DistanceMeters>
          </Trackpoint>
          <Trackpoint>
            <Time>2018-04-21T10:05:28.000Z</Time>
            <Position>
              <LatitudeDegrees>43.1715828739106655120849609375</LatitudeDegrees>
              <LongitudeDegrees>-8.34426666609942913055419921875</LongitudeDegrees>
            </Position>
            <AltitudeMeters>419.600006103515625</AltitudeMeters>
            <DistanceMeters>31827.366649854</DistanceMeters>
          </Trackpoint>
          <Trackpoint>
            <Time>2018-04-21T10:05:29.000Z</Time>
            <Position>
              <LatitudeDegrees>43.17159620113670825958251953125</LatitudeDegrees>
              <LongitudeDegrees>-8.34421402774751186370849609375</LongitudeDegrees>
            </Position>
            <AltitudeMeters>419.79998779296875</AltitudeMeters>
            <DistanceMeters>31831.890161015</DistanceMeters>
          </Trackpoint>
          <Trackpoint>
            <Time>2018-04-21T10:05:31.000Z</Time>
            <Position>
              <LatitudeDegrees>43.17162587307393550872802734375</LatitudeDegrees>
              <LongitudeDegrees>-8.34411419928073883056640625</LongitudeDegrees>
            </Position>
            <AltitudeMeters>420.20001220703125</AltitudeMeters>
            <DistanceMeters>31840.640878028</DistanceMeters>
          </Trackpoint>
          <Trackpoint>
            <Time>2018-04-21T10:05:33.000Z</Time>
            <Position>
              <LatitudeDegrees>43.17165772430598735809326171875</LatitudeDegrees>
              <LongitudeDegrees>-8.34402090869843959808349609375</LongitudeDegrees>
            </Position>
            <AltitudeMeters>420.79998779296875</AltitudeMeters>
            <DistanceMeters>31849.00268895</DistanceMeters>
          </Trackpoint>
          <Trackpoint>
            <Time>2018-04-21T10:05:36.000Z</Time>
            <Position>
              <LatitudeDegrees>43.17170910537242889404296875</LatitudeDegrees>
              <LongitudeDegrees>-8.3438947610557079315185546875</LongitudeDegrees>
            </Position>
            <AltitudeMeters>421.79998779296875</AltitudeMeters>
            <DistanceMeters>31860.731079909</DistanceMeters>
          </Trackpoint>
          <Trackpoint>
            <Time>2018-04-21T10:05:37.000Z</Time>
            <Position>
              <LatitudeDegrees>43.17172410897910594940185546875</LatitudeDegrees>
              <LongitudeDegrees>-8.34385000169277191162109375</LongitudeDegrees>
            </Position>
            <AltitudeMeters>422</AltitudeMeters>
            <DistanceMeters>31864.730112965</DistanceMeters>
          </Trackpoint>
          <Trackpoint>
            <Time>2018-04-21T10:05:38.000Z</Time>
            <Position>
              <LatitudeDegrees>43.17173886112868785858154296875</LatitudeDegrees>
              <LongitudeDegrees>-8.34380432032048702239990234375</LongitudeDegrees>
            </Position>
            <AltitudeMeters>422.20001220703125</AltitudeMeters>
            <DistanceMeters>31868.786317999</DistanceMeters>
          </Trackpoint>
          <Trackpoint>
            <Time>2018-04-21T10:05:42.000Z</Time>
            <Position>
              <LatitudeDegrees>43.171794600784778594970703125</LatitudeDegrees>
              <LongitudeDegrees>-8.34361874498426914215087890625</LongitudeDegrees>
            </Position>
            <AltitudeMeters>423.20001220703125</AltitudeMeters>
            <DistanceMeters>31885.07778837</DistanceMeters>
          </Trackpoint>
          <Trackpoint>
            <Time>2018-04-21T10:05:47.000Z</Time>
            <Position>
              <LatitudeDegrees>43.17186995409429073333740234375</LatitudeDegrees>
              <LongitudeDegrees>-8.34336628206074237823486328125</LongitudeDegrees>
            </Position>
            <AltitudeMeters>423.79998779296875</AltitudeMeters>
            <DistanceMeters>31907.220848022</DistanceMeters>
          </Trackpoint>
          <Trackpoint>
            <Time>2018-04-21T10:05:49.000Z</Time>
            <Position>
              <LatitudeDegrees>43.17190356552600860595703125</LatitudeDegrees>
              <LongitudeDegrees>-8.34326796233654022216796875</LongitudeDegrees>
            </Position>
            <AltitudeMeters>424.399993896484375</AltitudeMeters>
            <DistanceMeters>31916.035312142</DistanceMeters>
          </Trackpoint>
          <Trackpoint>
            <Time>2018-04-21T10:05:55.000Z</Time>
            <Position>
              <LatitudeDegrees>43.17197405733168125152587890625</LatitudeDegrees>
              <LongitudeDegrees>-8.34295355714857578277587890625</LongitudeDegrees>
            </Position>
            <AltitudeMeters>425.20001220703125</AltitudeMeters>
            <DistanceMeters>31942.735282459</DistanceMeters>
          </Trackpoint>
          <Trackpoint>
            <Time>2018-04-21T10:06:01.000Z</Time>
            <Position>
              <LatitudeDegrees>43.1720410287380218505859375</LatitudeDegrees>
              <LongitudeDegrees>-8.34258257411420345306396484375</LongitudeDegrees>
            </Position>
            <AltitudeMeters>424.79998779296875</AltitudeMeters>
            <DistanceMeters>31973.757684479</DistanceMeters>
          </Trackpoint>
          <Trackpoint>
            <Time>2018-04-21T10:06:04.000Z</Time>
            <Position>
              <LatitudeDegrees>43.17208863794803619384765625</LatitudeDegrees>
              <LongitudeDegrees>-8.34237051196396350860595703125</LongitudeDegrees>
            </Position>
            <AltitudeMeters>423.79998779296875</AltitudeMeters>
            <DistanceMeters>31991.768694061</DistanceMeters>
          </Trackpoint>
          <Trackpoint>
            <Time>2018-04-21T10:06:06.000Z</Time>
            <Position>
              <LatitudeDegrees>43.17212350666522979736328125</LatitudeDegrees>
              <LongitudeDegrees>-8.3422173745930194854736328125</LongitudeDegrees>
            </Position>
            <AltitudeMeters>423.399993896484375</AltitudeMeters>
            <DistanceMeters>32004.791168312</DistanceMeters>
          </Trackpoint>
          <Trackpoint>
            <Time>2018-04-21T10:06:07.000Z</Time>
            <Position>
              <LatitudeDegrees>43.17214018665254116058349609375</LatitudeDegrees>
              <LongitudeDegrees>-8.34213363938033580780029296875</LongitudeDegrees>
            </Position>
            <AltitudeMeters>423.20001220703125</AltitudeMeters>
            <DistanceMeters>32011.837256609</DistanceMeters>
          </Trackpoint>
          <Trackpoint>
            <Time>2018-04-21T10:06:12.000Z</Time>
            <Position>
              <LatitudeDegrees>43.172249235212802886962890625</LatitudeDegrees>
              <LongitudeDegrees>-8.34168068133294582366943359375</LongitudeDegrees>
            </Position>
            <AltitudeMeters>422.20001220703125</AltitudeMeters>
            <DistanceMeters>32050.556415836</DistanceMeters>
          </Trackpoint>
          <Trackpoint>
            <Time>2018-04-21T10:06:15.000Z</Time>
            <Position>
              <LatitudeDegrees>43.17229709587991237640380859375</LatitudeDegrees>
              <LongitudeDegrees>-8.3414060063660144805908203125</LongitudeDegrees>
            </Position>
            <AltitudeMeters>422.20001220703125</AltitudeMeters>
            <DistanceMeters>32073.479924261</DistanceMeters>
          </Trackpoint>
          <Trackpoint>
            <Time>2018-04-21T10:06:17.000Z</Time>
            <Position>
              <LatitudeDegrees>43.17229240201413631439208984375</LatitudeDegrees>
              <LongitudeDegrees>-8.34122814238071441650390625</LongitudeDegrees>
            </Position>
            <AltitudeMeters>422</AltitudeMeters>
            <DistanceMeters>32087.927110386</DistanceMeters>
          </Trackpoint>
          <Trackpoint>
            <Time>2018-04-21T10:06:21.000Z</Time>
            <Position>
              <LatitudeDegrees>43.17228041589260101318359375</LatitudeDegrees>
              <LongitudeDegrees>-8.34089060313999652862548828125</LongitudeDegrees>
            </Position>
            <AltitudeMeters>422.20001220703125</AltitudeMeters>
            <DistanceMeters>32115.358411304</DistanceMeters>
          </Trackpoint>
          <Trackpoint>
            <Time>2018-04-21T10:06:23.000Z</Time>
            <Position>
              <LatitudeDegrees>43.172296844422817230224609375</LatitudeDegrees>
              <LongitudeDegrees>-8.34073050878942012786865234375</LongitudeDegrees>
            </Position>
            <AltitudeMeters>422.399993896484375</AltitudeMeters>
            <DistanceMeters>32128.481734738</DistanceMeters>
          </Trackpoint>
          <Trackpoint>
            <Time>2018-04-21T10:06:26.000Z</Time>
            <Position>
              <LatitudeDegrees>43.17235493101179599761962890625</LatitudeDegrees>
              <LongitudeDegrees>-8.34052314050495624542236328125</LongitudeDegrees>
            </Position>
            <AltitudeMeters>423.20001220703125</AltitudeMeters>
            <DistanceMeters>32146.513288538</DistanceMeters>
          </Trackpoint>
          <Trackpoint>
            <Time>2018-04-21T10:06:28.000Z</Time>
            <Position>
              <LatitudeDegrees>43.17240019328892230987548828125</LatitudeDegrees>
              <LongitudeDegrees>-8.34040009416639804840087890625</LongitudeDegrees>
            </Position>
            <AltitudeMeters>423.399993896484375</AltitudeMeters>
            <DistanceMeters>32157.699833999</DistanceMeters>
          </Trackpoint>
          <Trackpoint>
            <Time>2018-04-21T10:06:31.000Z</Time>
            <Position>
              <LatitudeDegrees>43.17247043363749980926513671875</LatitudeDegrees>
              <LongitudeDegrees>-8.34021653048694133758544921875</LongitudeDegrees>
            </Position>
            <AltitudeMeters>423</AltitudeMeters>
            <DistanceMeters>32174.526540358</DistanceMeters>
          </Trackpoint>
          <Trackpoint>
            <Time>2018-04-21T10:06:34.000Z</Time>
            <Position>
              <LatitudeDegrees>43.1725276820361614227294921875</LatitudeDegrees>
              <LongitudeDegrees>-8.34003129042685031890869140625</LongitudeDegrees>
            </Position>
            <AltitudeMeters>424.20001220703125</AltitudeMeters>
            <DistanceMeters>32190.85704089</DistanceMeters>
          </Trackpoint>
          <Trackpoint>
            <Time>2018-04-21T10:06:35.000Z</Time>
            <Position>
              <LatitudeDegrees>43.1725467927753925323486328125</LatitudeDegrees>
              <LongitudeDegrees>-8.33996976725757122039794921875</LongitudeDegrees>
            </Position>
            <AltitudeMeters>424.399993896484375</AltitudeMeters>
            <DistanceMeters>32196.284389171</DistanceMeters>
          </Trackpoint>
          <Trackpoint>
            <Time>2018-04-21T10:06:36.000Z</Time>
            <Position>
              <LatitudeDegrees>43.17256095819175243377685546875</LatitudeDegrees>
              <LongitudeDegrees>-8.339910171926021575927734375</LongitudeDegrees>
            </Position>
            <AltitudeMeters>424.399993896484375</AltitudeMeters>
            <DistanceMeters>32201.371647675</DistanceMeters>
          </Trackpoint>
          <Trackpoint>
            <Time>2018-04-21T10:06:39.000Z</Time>
            <Position>
              <LatitudeDegrees>43.1725776381790637969970703125</LatitudeDegrees>
              <LongitudeDegrees>-8.3397182263433933258056640625</LongitudeDegrees>
            </Position>
            <AltitudeMeters>425</AltitudeMeters>
            <DistanceMeters>32217.062569708</DistanceMeters>
          </Trackpoint>
          <Trackpoint>
            <Time>2018-04-21T10:06:40.000Z</Time>
            <Position>
              <LatitudeDegrees>43.17257420159876346588134765625</LatitudeDegrees>
              <LongitudeDegrees>-8.3396551944315433502197265625</LongitudeDegrees>
            </Position>
            <AltitudeMeters>425.20001220703125</AltitudeMeters>
            <DistanceMeters>32222.193132332</DistanceMeters>
          </Trackpoint>
          <Trackpoint>
            <Time>2018-04-21T10:06:41.000Z</Time>
            <Position>
              <LatitudeDegrees>43.17256749607622623443603515625</LatitudeDegrees>
              <LongitudeDegrees>-8.33959400653839111328125</LongitudeDegrees>
            </Position>
            <AltitudeMeters>425.399993896484375</AltitudeMeters>
            <DistanceMeters>32227.215184055</DistanceMeters>
          </Trackpoint>
          <Trackpoint>
            <Time>2018-04-21T10:06:46.000Z</Time>
            <Position>
              <LatitudeDegrees>43.1725115887820720672607421875</LatitudeDegrees>
              <LongitudeDegrees>-8.33927742205560207366943359375</LongitudeDegrees>
            </Position>
            <AltitudeMeters>425.399993896484375</AltitudeMeters>
            <DistanceMeters>32253.655844377</DistanceMeters>
          </Trackpoint>
          <Trackpoint>
            <Time>2018-04-21T10:06:51.000Z</Time>
            <Position>
              <LatitudeDegrees>43.17243204452097415924072265625</LatitudeDegrees>
              <LongitudeDegrees>-8.33888883702456951141357421875</LongitudeDegrees>
            </Position>
            <AltitudeMeters>424.399993896484375</AltitudeMeters>
            <DistanceMeters>32286.417053542</DistanceMeters>
          </Trackpoint>
          <Trackpoint>
            <Time>2018-04-21T10:06:52.000Z</Time>
            <Position>
              <LatitudeDegrees>43.172410838305950164794921875</LatitudeDegrees>
              <LongitudeDegrees>-8.338805101811885833740234375</LongitudeDegrees>
            </Position>
            <AltitudeMeters>423.600006103515625</AltitudeMeters>
            <DistanceMeters>32293.612151058</DistanceMeters>
          </Trackpoint>
          <Trackpoint>
            <Time>2018-04-21T10:06:54.000Z</Time>
            <Position>
              <LatitudeDegrees>43.172358535230159759521484375</LatitudeDegrees>
              <LongitudeDegrees>-8.33862237632274627685546875</LongitudeDegrees>
            </Position>
            <AltitudeMeters>423</AltitudeMeters>
            <DistanceMeters>32309.546065495</DistanceMeters>
          </Trackpoint>
          <Trackpoint>
            <Time>2018-04-21T10:06:57.000Z</Time>
            <Position>
              <LatitudeDegrees>43.17230044864118099212646484375</LatitudeDegrees>
              <LongitudeDegrees>-8.338310234248638153076171875</LongitudeDegrees>
            </Position>
            <AltitudeMeters>421</AltitudeMeters>
            <DistanceMeters>32335.694993167</DistanceMeters>
          </Trackpoint>
          <Trackpoint>
            <Time>2018-04-21T10:06:59.000Z</Time>
            <Position>
              <LatitudeDegrees>43.172300867736339569091796875</LatitudeDegrees>
              <LongitudeDegrees>-8.338095657527446746826171875</LongitudeDegrees>
            </Position>
            <AltitudeMeters>419.79998779296875</AltitudeMeters>
            <DistanceMeters>32353.112640776</DistanceMeters>
          </Trackpoint>
          <Trackpoint>
            <Time>2018-04-21T10:07:01.000Z</Time>
            <Position>
              <LatitudeDegrees>43.17232442088425159454345703125</LatitudeDegrees>
              <LongitudeDegrees>-8.33787512965500354766845703125</LongitudeDegrees>
            </Position>
            <AltitudeMeters>420</AltitudeMeters>
            <DistanceMeters>32371.204689055</DistanceMeters>
          </Trackpoint>
          <Trackpoint>
            <Time>2018-04-21T10:07:05.000Z</Time>
            <Position>
              <LatitudeDegrees>43.17245869897305965423583984375</LatitudeDegrees>
              <LongitudeDegrees>-8.33747346885502338409423828125</LongitudeDegrees>
            </Position>
            <AltitudeMeters>418.600006103515625</AltitudeMeters>
            <DistanceMeters>32407.070696775</DistanceMeters>
          </Trackpoint>
          <Trackpoint>
            <Time>2018-04-21T10:07:07.000Z</Time>
            <Position>
              <LatitudeDegrees>43.1725689209997653961181640625</LatitudeDegrees>
              <LongitudeDegrees>-8.33732661791145801544189453125</LongitudeDegrees>
            </Position>
            <AltitudeMeters>418.399993896484375</AltitudeMeters>
            <DistanceMeters>32424.17603328</DistanceMeters>
          </Trackpoint>
          <Trackpoint>
            <Time>2018-04-21T10:07:09.000Z</Time>
            <Position>
              <LatitudeDegrees>43.17268165759742259979248046875</LatitudeDegrees>
              <LongitudeDegrees>-8.3372006379067897796630859375</LongitudeDegrees>
            </Position>
            <AltitudeMeters>418.600006103515625</AltitudeMeters>
            <DistanceMeters>32440.362963134</DistanceMeters>
          </Trackpoint>
          <Trackpoint>
            <Time>2018-04-21T10:07:10.000Z</Time>
            <Position>
              <LatitudeDegrees>43.1727446056902408599853515625</LatitudeDegrees>
              <LongitudeDegrees>-8.33714925684034824371337890625</LongitudeDegrees>
            </Position>
            <AltitudeMeters>418.79998779296875</AltitudeMeters>
            <DistanceMeters>32448.516454581</DistanceMeters>
          </Trackpoint>
          <Trackpoint>
            <Time>2018-04-21T10:07:14.000Z</Time>
            <Position>
              <LatitudeDegrees>43.17298340611159801483154296875</LatitudeDegrees>
              <LongitudeDegrees>-8.33696435205638408660888671875</LongitudeDegrees>
            </Position>
            <AltitudeMeters>419.20001220703125</AltitudeMeters>
            <DistanceMeters>32479.040449362</DistanceMeters>
          </Trackpoint>
          <Trackpoint>
            <Time>2018-04-21T10:07:15.000Z</Time>
            <Position>
              <LatitudeDegrees>43.17303813993930816650390625</LatitudeDegrees>
              <LongitudeDegrees>-8.3369163237512111663818359375</LongitudeDegrees>
            </Position>
            <AltitudeMeters>419.79998779296875</AltitudeMeters>
            <DistanceMeters>32486.273724064</DistanceMeters>
          </Trackpoint>
          <Trackpoint>
            <Time>2018-04-21T10:07:18.000Z</Time>
            <Position>
              <LatitudeDegrees>43.17319865338504314422607421875</LatitudeDegrees>
              <LongitudeDegrees>-8.3367812074720859527587890625</LongitudeDegrees>
            </Position>
            <AltitudeMeters>420</AltitudeMeters>
            <DistanceMeters>32507.237401232</DistanceMeters>
          </Trackpoint>
          <Trackpoint>
            <Time>2018-04-21T10:07:21.000Z</Time>
            <Position>
              <LatitudeDegrees>43.17334399558603763580322265625</LatitudeDegrees>
              <LongitudeDegrees>-8.33662505261600017547607421875</LongitudeDegrees>
            </Position>
            <AltitudeMeters>420.20001220703125</AltitudeMeters>
            <DistanceMeters>32527.788672127</DistanceMeters>
          </Trackpoint>
          <Trackpoint>
            <Time>2018-04-21T10:07:24.000Z</Time>
            <Position>
              <LatitudeDegrees>43.1734688021242618560791015625</LatitudeDegrees>
              <LongitudeDegrees>-8.33642698824405670166015625</LongitudeDegrees>
            </Position>
            <AltitudeMeters>420.79998779296875</AltitudeMeters>
            <DistanceMeters>32549.035803973</DistanceMeters>
          </Trackpoint>
          <Trackpoint>
            <Time>2018-04-21T10:07:27.000Z</Time>
            <Position>
              <LatitudeDegrees>43.17358070053160190582275390625</LatitudeDegrees>
              <LongitudeDegrees>-8.336196653544902801513671875</LongitudeDegrees>
            </Position>
            <AltitudeMeters>420</AltitudeMeters>
            <DistanceMeters>32571.500931223</DistanceMeters>
          </Trackpoint>
          <Trackpoint>
            <Time>2018-04-21T10:07:32.000Z</Time>
            <Position>
              <LatitudeDegrees>43.1737102009356021881103515625</LatitudeDegrees>
              <LongitudeDegrees>-8.33580178208649158477783203125</LongitudeDegrees>
            </Position>
            <AltitudeMeters>419.399993896484375</AltitudeMeters>
            <DistanceMeters>32606.644760065</DistanceMeters>
          </Trackpoint>
          <Trackpoint>
            <Time>2018-04-21T10:07:33.000Z</Time>
            <Position>
              <LatitudeDegrees>43.17373174242675304412841796875</LatitudeDegrees>
              <LongitudeDegrees>-8.3357167057693004608154296875</LongitudeDegrees>
            </Position>
            <AltitudeMeters>419</AltitudeMeters>
            <DistanceMeters>32613.955026298</DistanceMeters>
          </Trackpoint>
          <Trackpoint>
            <Time>2018-04-21T10:07:37.000Z</Time>
            <Position>
              <LatitudeDegrees>43.17381019704043865203857421875</LatitudeDegrees>
              <LongitudeDegrees>-8.33534538745880126953125</LongitudeDegrees>
            </Position>
            <AltitudeMeters>418.399993896484375</AltitudeMeters>
            <DistanceMeters>32645.334568292</DistanceMeters>
          </Trackpoint>
          <Trackpoint>
            <Time>2018-04-21T10:07:39.000Z</Time>
            <Position>
              <LatitudeDegrees>43.17385579459369182586669921875</LatitudeDegrees>
              <LongitudeDegrees>-8.33513324148952960968017578125</LongitudeDegrees>
            </Position>
            <AltitudeMeters>416.79998779296875</AltitudeMeters>
            <DistanceMeters>32663.28682242</DistanceMeters>
          </Trackpoint>
          <Trackpoint>
            <Time>2018-04-21T10:07:41.000Z</Time>
            <Position>
              <LatitudeDegrees>43.1739026494324207305908203125</LatitudeDegrees>
              <LongitudeDegrees>-8.334899805486202239990234375</LongitudeDegrees>
            </Position>
            <AltitudeMeters>415.79998779296875</AltitudeMeters>
            <DistanceMeters>32682.939670296</DistanceMeters>
          </Trackpoint>
          <Trackpoint>
            <Time>2018-04-21T10:07:44.000Z</Time>
            <Position>
              <LatitudeDegrees>43.1739670224487781524658203125</LatitudeDegrees>
              <LongitudeDegrees>-8.3345100469887256622314453125</LongitudeDegrees>
            </Position>
            <AltitudeMeters>414.79998779296875</AltitudeMeters>
            <DistanceMeters>32715.377899097</DistanceMeters>
          </Trackpoint>
          <Trackpoint>
            <Time>2018-04-21T10:07:45.000Z</Time>
            <Position>
              <LatitudeDegrees>43.173975236713886260986328125</LatitudeDegrees>
              <LongitudeDegrees>-8.33437618799507617950439453125</LongitudeDegrees>
            </Position>
            <AltitudeMeters>413</AltitudeMeters>
            <DistanceMeters>32726.281567583</DistanceMeters>
          </Trackpoint>
          <Trackpoint>
            <Time>2018-04-21T10:07:46.000Z</Time>
            <Position>
              <LatitudeDegrees>43.17397263832390308380126953125</LatitudeDegrees>
              <LongitudeDegrees>-8.3342470228672027587890625</LongitudeDegrees>
            </Position>
            <AltitudeMeters>411.79998779296875</AltitudeMeters>
            <DistanceMeters>32736.769865407</DistanceMeters>
          </Trackpoint>
          <Trackpoint>
            <Time>2018-04-21T10:07:47.000Z</Time>
            <Position>
              <LatitudeDegrees>43.173957802355289459228515625</LatitudeDegrees>
              <LongitudeDegrees>-8.33412020467221736907958984375</LongitudeDegrees>
            </Position>
            <AltitudeMeters>411.399993896484375</AltitudeMeters>
            <DistanceMeters>32747.195556279</DistanceMeters>
          </Trackpoint>
          <Trackpoint>
            <Time>2018-04-21T10:07:48.000Z</Time>
            <Position>
              <LatitudeDegrees>43.17392838187515735626220703125</LatitudeDegrees>
              <LongitudeDegrees>-8.33399279974400997161865234375</LongitudeDegrees>
            </Position>
            <AltitudeMeters>410.20001220703125</AltitudeMeters>
            <DistanceMeters>32758.042763111</DistanceMeters>
          </Trackpoint>
          <Trackpoint>
            <Time>2018-04-21T10:07:49.000Z</Time>
            <Position>
              <LatitudeDegrees>43.1738828681409358978271484375</LatitudeDegrees>
              <LongitudeDegrees>-8.33386573009192943572998046875</LongitudeDegrees>
            </Position>
            <AltitudeMeters>409.20001220703125</AltitudeMeters>
            <DistanceMeters>32769.533532353</DistanceMeters>
          </Trackpoint>
          <Trackpoint>
            <Time>2018-04-21T10:07:50.000Z</Time>
            <Position>
              <LatitudeDegrees>43.17382612265646457672119140625</LatitudeDegrees>
              <LongitudeDegrees>-8.3337375707924365997314453125</LongitudeDegrees>
            </Position>
            <AltitudeMeters>408.600006103515625</AltitudeMeters>
            <DistanceMeters>32781.703260524</DistanceMeters>
          </Trackpoint>
          <Trackpoint>
            <Time>2018-04-21T10:07:51.000Z</Time>
            <Position>
              <LatitudeDegrees>43.17376644350588321685791015625</LatitudeDegrees>
              <LongitudeDegrees>-8.3336225710809230804443359375</LongitudeDegrees>
            </Position>
            <AltitudeMeters>407.399993896484375</AltitudeMeters>
            <DistanceMeters>32793.15979408</DistanceMeters>
          </Trackpoint>
          <Trackpoint>
            <Time>2018-04-21T10:07:52.000Z</Time>
            <Position>
              <LatitudeDegrees>43.1737165711820125579833984375</LatitudeDegrees>
              <LongitudeDegrees>-8.33352215588092803955078125</LongitudeDegrees>
            </Position>
            <AltitudeMeters>406</AltitudeMeters>
            <DistanceMeters>32803.021076614</DistanceMeters>
          </Trackpoint>
          <Trackpoint>
            <Time>2018-04-21T10:07:53.000Z</Time>
            <Position>
              <LatitudeDegrees>43.1736813671886920928955078125</LatitudeDegrees>
              <LongitudeDegrees>-8.333422578871250152587890625</LongitudeDegrees>
            </Position>
            <AltitudeMeters>404.600006103515625</AltitudeMeters>
            <DistanceMeters>32812.003489042</DistanceMeters>
          </Trackpoint>
          <Trackpoint>
            <Time>2018-04-21T10:07:55.000Z</Time>
            <Position>
              <LatitudeDegrees>43.17369519732892513275146484375</LatitudeDegrees>
              <LongitudeDegrees>-8.33324898965656757354736328125</LongitudeDegrees>
            </Position>
            <AltitudeMeters>404</AltitudeMeters>
            <DistanceMeters>32826.177448994</DistanceMeters>
          </Trackpoint>
          <Trackpoint>
            <Time>2018-04-21T10:07:58.000Z</Time>
            <Position>
              <LatitudeDegrees>43.17382025532424449920654296875</LatitudeDegrees>
              <LongitudeDegrees>-8.33309928886592388153076171875</LongitudeDegrees>
            </Position>
            <AltitudeMeters>403.600006103515625</AltitudeMeters>
            <DistanceMeters>32844.654220088</DistanceMeters>
          </Trackpoint>
          <Trackpoint>
            <Time>2018-04-21T10:07:59.000Z</Time>
            <Position>
              <LatitudeDegrees>43.17384506575763225555419921875</LatitudeDegrees>
              <LongitudeDegrees>-8.333067186176776885986328125</LongitudeDegrees>
            </Position>
            <AltitudeMeters>403.600006103515625</AltitudeMeters>
            <DistanceMeters>32848.451723489</DistanceMeters>
          </Trackpoint>
          <Trackpoint>
            <Time>2018-04-21T10:08:01.000Z</Time>
            <Position>
              <LatitudeDegrees>43.1738573871552944183349609375</LatitudeDegrees>
              <LongitudeDegrees>-8.3330163918435573577880859375</LongitudeDegrees>
            </Position>
            <AltitudeMeters>403.399993896484375</AltitudeMeters>
            <DistanceMeters>32852.797053148</DistanceMeters>
          </Trackpoint>
          <Trackpoint>
            <Time>2018-04-21T10:08:05.000Z</Time>
            <Position>
              <LatitudeDegrees>43.17379578016698360443115234375</LatitudeDegrees>
              <LongitudeDegrees>-8.33299216814339160919189453125</LongitudeDegrees>
            </Position>
            <AltitudeMeters>405.399993896484375</AltitudeMeters>
            <DistanceMeters>32859.92975605</DistanceMeters>
          </Trackpoint>
          <Trackpoint>
            <Time>2018-04-21T10:08:09.000Z</Time>
            <Position>
              <LatitudeDegrees>43.1737172417342662811279296875</LatitudeDegrees>
              <LongitudeDegrees>-8.332973979413509368896484375</LongitudeDegrees>
            </Position>
            <AltitudeMeters>406.79998779296875</AltitudeMeters>
            <DistanceMeters>32868.794785959</DistanceMeters>
          </Trackpoint>
          <Trackpoint>
            <Time>2018-04-21T10:08:11.000Z</Time>
            <Position>
              <LatitudeDegrees>43.17368027754127979278564453125</LatitudeDegrees>
              <LongitudeDegrees>-8.33296702243387699127197265625</LongitudeDegrees>
            </Position>
            <AltitudeMeters>406.600006103515625</AltitudeMeters>
            <DistanceMeters>32872.946703098</DistanceMeters>
          </Trackpoint>
          <Trackpoint>
            <Time>2018-04-21T10:08:12.000Z</Time>
            <Position>
              <LatitudeDegrees>43.17366150207817554473876953125</LatitudeDegrees>
              <LongitudeDegrees>-8.332966603338718414306640625</LongitudeDegrees>
            </Position>
            <AltitudeMeters>405.600006103515625</AltitudeMeters>
            <DistanceMeters>32875.037290814</DistanceMeters>
          </Trackpoint>
          <Trackpoint>
            <Time>2018-04-21T10:08:15.000Z</Time>
            <Position>
              <LatitudeDegrees>43.17360341548919677734375</LatitudeDegrees>
              <LongitudeDegrees>-8.332955539226531982421875</LongitudeDegrees>
            </Position>
            <AltitudeMeters>406.600006103515625</AltitudeMeters>
            <DistanceMeters>32881.564457172</DistanceMeters>
          </Trackpoint>
          <Trackpoint>
            <Time>2018-04-21T10:08:18.000Z</Time>
            <Position>
              <LatitudeDegrees>43.17355002276599407196044921875</LatitudeDegrees>
              <LongitudeDegrees>-8.33293969742953777313232421875</LongitudeDegrees>
            </Position>
            <AltitudeMeters>407.79998779296875</AltitudeMeters>
            <DistanceMeters>32887.644681918</DistanceMeters>
          </Trackpoint>
          <Trackpoint>
            <Time>2018-04-21T10:08:19.000Z</Time>
            <Position>
              <LatitudeDegrees>43.173532672226428985595703125</LatitudeDegrees>
              <LongitudeDegrees>-8.3329355902969837188720703125</LongitudeDegrees>
            </Position>
            <AltitudeMeters>408</AltitudeMeters>
            <DistanceMeters>32889.606011203</DistanceMeters>
          </Trackpoint>
          <Trackpoint>
            <Time>2018-04-21T10:08:22.000Z</Time>
            <Position>
              <LatitudeDegrees>43.1734775193035602569580078125</LatitudeDegrees>
              <LongitudeDegrees>-8.33291572518646717071533203125</LongitudeDegrees>
            </Position>
            <AltitudeMeters>408.20001220703125</AltitudeMeters>
            <DistanceMeters>32895.953625014</DistanceMeters>
          </Trackpoint>
          <Trackpoint>
            <Time>2018-04-21T10:08:25.000Z</Time>
            <Position>
              <LatitudeDegrees>43.173423707485198974609375</LatitudeDegrees>
              <LongitudeDegrees>-8.332901559770107269287109375</LongitudeDegrees>
            </Position>
            <AltitudeMeters>408.79998779296875</AltitudeMeters>
            <DistanceMeters>32902.051645578</DistanceMeters>
          </Trackpoint>
          <Trackpoint>
            <Time>2018-04-21T10:08:27.000Z</Time>
            <Position>
              <LatitudeDegrees>43.173391520977020263671875</LatitudeDegrees>
              <LongitudeDegrees>-8.33288890309631824493408203125</LongitudeDegrees>
            </Position>
            <AltitudeMeters>409.20001220703125</AltitudeMeters>
            <DistanceMeters>32905.778340839</DistanceMeters>
          </Trackpoint>
          <Trackpoint>
            <Time>2018-04-21T10:08:29.000Z</Time>
            <Position>
              <LatitudeDegrees>43.173361010849475860595703125</LatitudeDegrees>
              <LongitudeDegrees>-8.33287708461284637451171875</LongitudeDegrees>
            </Position>
            <AltitudeMeters>409.600006103515625</AltitudeMeters>
            <DistanceMeters>32909.307147354</DistanceMeters>
          </Trackpoint>
          <Trackpoint>
            <Time>2018-04-21T10:08:30.000Z</Time>
            <Position>
              <LatitudeDegrees>43.17333980463445186614990234375</LatitudeDegrees>
              <LongitudeDegrees>-8.3328728936612606048583984375</LongitudeDegrees>
            </Position>
            <AltitudeMeters>410.20001220703125</AltitudeMeters>
            <DistanceMeters>32911.692298955</DistanceMeters>
          </Trackpoint>
          <Trackpoint>
            <Time>2018-04-21T10:08:33.000Z</Time>
            <Position>
              <LatitudeDegrees>43.17328146658837795257568359375</LatitudeDegrees>
              <LongitudeDegrees>-8.33285705186426639556884765625</LongitudeDegrees>
            </Position>
            <AltitudeMeters>410.79998779296875</AltitudeMeters>
            <DistanceMeters>32918.31150819</DistanceMeters>
          </Trackpoint>
          <Trackpoint>
            <Time>2018-04-21T10:08:34.000Z</Time>
            <Position>
              <LatitudeDegrees>43.17326453514397144317626953125</LatitudeDegrees>
              <LongitudeDegrees>-8.33285051397979259490966796875</LongitudeDegrees>
            </Position>
            <AltitudeMeters>411</AltitudeMeters>
            <DistanceMeters>32920.268228</DistanceMeters>
          </Trackpoint>
          <Trackpoint>
            <Time>2018-04-21T10:08:37.000Z</Time>
            <Position>
              <LatitudeDegrees>43.1732103042304515838623046875</LatitudeDegrees>
              <LongitudeDegrees>-8.3328415453433990478515625</LongitudeDegrees>
            </Position>
            <AltitudeMeters>411.79998779296875</AltitudeMeters>
            <DistanceMeters>32926.348452746</DistanceMeters>
          </Trackpoint>
          <Trackpoint>
            <Time>2018-04-21T10:08:41.000Z</Time>
            <Position>
              <LatitudeDegrees>43.17313143052160739898681640625</LatitudeDegrees>
              <LongitudeDegrees>-8.332821428775787353515625</LongitudeDegrees>
            </Position>
            <AltitudeMeters>412.79998779296875</AltitudeMeters>
            <DistanceMeters>32935.277424967</DistanceMeters>
          </Trackpoint>
          <Trackpoint>
            <Time>2018-04-21T10:08:42.000Z</Time>
            <Position>
              <LatitudeDegrees>43.1731134094297885894775390625</LatitudeDegrees>
              <LongitudeDegrees>-8.33281581290066242218017578125</LongitudeDegrees>
            </Position>
            <AltitudeMeters>413</AltitudeMeters>
            <DistanceMeters>32937.333167114</DistanceMeters>
          </Trackpoint>
          <Trackpoint>
            <Time>2018-04-21T10:08:46.000Z</Time>
            <Position>
              <LatitudeDegrees>43.17303302697837352752685546875</LatitudeDegrees>
              <LongitudeDegrees>-8.33278597332537174224853515625</LongitudeDegrees>
            </Position>
            <AltitudeMeters>414.20001220703125</AltitudeMeters>
            <DistanceMeters>32946.602047698</DistanceMeters>
          </Trackpoint>
          <Trackpoint>
            <Time>2018-04-21T10:08:48.000Z</Time>
            <Position>
              <LatitudeDegrees>43.17299748770892620086669921875</LatitudeDegrees>
              <LongitudeDegrees>-8.3327669464051723480224609375</LongitudeDegrees>
            </Position>
            <AltitudeMeters>414.600006103515625</AltitudeMeters>
            <DistanceMeters>32950.849646165</DistanceMeters>
          </Trackpoint>
          <Trackpoint>
            <Time>2018-04-21T10:08:52.000Z</Time>
            <Position>
              <LatitudeDegrees>43.17292087711393833160400390625</LatitudeDegrees>
              <LongitudeDegrees>-8.3327374421060085296630859375</LongitudeDegrees>
            </Position>
            <AltitudeMeters>415.20001220703125</AltitudeMeters>
            <DistanceMeters>32959.706013592</DistanceMeters>
          </Trackpoint>
          <Trackpoint>
            <Time>2018-04-21T10:08:57.000Z</Time>
            <Position>
              <LatitudeDegrees>43.172824569046497344970703125</LatitudeDegrees>
              <LongitudeDegrees>-8.3327049203217029571533203125</LongitudeDegrees>
            </Position>
            <AltitudeMeters>416.20001220703125</AltitudeMeters>
            <DistanceMeters>32970.745484217</DistanceMeters>
          </Trackpoint>
          <Trackpoint>
            <Time>2018-04-21T10:09:02.000Z</Time>
            <Position>
              <LatitudeDegrees>43.17272365093231201171875</LatitudeDegrees>
              <LongitudeDegrees>-8.33265756256878376007080078125</LongitudeDegrees>
            </Position>
            <AltitudeMeters>417.20001220703125</AltitudeMeters>
            <DistanceMeters>32982.618120541</DistanceMeters>
          </Trackpoint>
          <Trackpoint>
            <Time>2018-04-21T10:09:04.000Z</Time>
            <Position>
              <LatitudeDegrees>43.17267662845551967620849609375</LatitudeDegrees>
              <LongitudeDegrees>-8.3326428942382335662841796875</LongitudeDegrees>
            </Position>
            <AltitudeMeters>417.79998779296875</AltitudeMeters>
            <DistanceMeters>32987.985237445</DistanceMeters>
          </Trackpoint>
          <Trackpoint>
            <Time>2018-04-21T10:09:07.000Z</Time>
            <Position>
              <LatitudeDegrees>43.17259800620377063751220703125</LatitudeDegrees>
              <LongitudeDegrees>-8.3326355181634426116943359375</LongitudeDegrees>
            </Position>
            <AltitudeMeters>418.399993896484375</AltitudeMeters>
            <DistanceMeters>32996.756568661</DistanceMeters>
          </Trackpoint>
          <Trackpoint>
            <Time>2018-04-21T10:09:11.000Z</Time>
            <Position>
              <LatitudeDegrees>43.17252315580844879150390625</LatitudeDegrees>
              <LongitudeDegrees>-8.33259536884725093841552734375</LongitudeDegrees>
            </Position>
            <AltitudeMeters>419.399993896484375</AltitudeMeters>
            <DistanceMeters>33005.702212151</DistanceMeters>
          </Trackpoint>
          <Trackpoint>
            <Time>2018-04-21T10:09:12.000Z</Time>
            <Position>
              <LatitudeDegrees>43.1725038774311542510986328125</LatitudeDegrees>
              <LongitudeDegrees>-8.33258765749633312225341796875</LongitudeDegrees>
            </Position>
            <AltitudeMeters>419.600006103515625</AltitudeMeters>
            <DistanceMeters>33007.938875368</DistanceMeters>
          </Trackpoint>
          <Trackpoint>
            <Time>2018-04-21T10:09:16.000Z</Time>
            <Position>
              <LatitudeDegrees>43.1724219024181365966796875</LatitudeDegrees>
              <LongitudeDegrees>-8.33255027420818805694580078125</LongitudeDegrees>
            </Position>
            <AltitudeMeters>420.79998779296875</AltitudeMeters>
            <DistanceMeters>33017.55490276</DistanceMeters>
          </Trackpoint>
          <Trackpoint>
            <Time>2018-04-21T10:09:18.000Z</Time>
            <Position>
              <LatitudeDegrees>43.1723821721971035003662109375</LatitudeDegrees>
              <LongitudeDegrees>-8.33253149874508380889892578125</LongitudeDegrees>
            </Position>
            <AltitudeMeters>421.20001220703125</AltitudeMeters>
            <DistanceMeters>33022.231530299</DistanceMeters>
          </Trackpoint>
          <Trackpoint>
            <Time>2018-04-21T10:09:22.000Z</Time>
            <Position>
              <LatitudeDegrees>43.1723090820014476776123046875</LatitudeDegrees>
              <LongitudeDegrees>-8.33248908631503582000732421875</LongitudeDegrees>
            </Position>
            <AltitudeMeters>421.79998779296875</AltitudeMeters>
            <DistanceMeters>33031.065437738</DistanceMeters>
          </Trackpoint>
          <Trackpoint>
            <Time>2018-04-21T10:09:25.000Z</Time>
            <Position>
              <LatitudeDegrees>43.17225049249827861785888671875</LatitudeDegrees>
              <LongitudeDegrees>-8.332469724118709564208984375</LongitudeDegrees>
            </Position>
            <AltitudeMeters>423.20001220703125</AltitudeMeters>
            <DistanceMeters>33037.772735319</DistanceMeters>
          </Trackpoint>
          <Trackpoint>
            <Time>2018-04-21T10:09:27.000Z</Time>
            <Position>
              <LatitudeDegrees>43.172210343182086944580078125</LatitudeDegrees>
              <LongitudeDegrees>-8.33245287649333477020263671875</LongitudeDegrees>
            </Position>
            <AltitudeMeters>423.79998779296875</AltitudeMeters>
            <DistanceMeters>33042.445499473</DistanceMeters>
          </Trackpoint>
          <Trackpoint>
            <Time>2018-04-21T10:09:33.000Z</Time>
            <Position>
              <LatitudeDegrees>43.17210095934569835662841796875</LatitudeDegrees>
              <LongitudeDegrees>-8.33240526728332042694091796875</LongitudeDegrees>
            </Position>
            <AltitudeMeters>424.20001220703125</AltitudeMeters>
            <DistanceMeters>33055.218730121</DistanceMeters>
          </Trackpoint>
          <Trackpoint>
            <Time>2018-04-21T10:09:34.000Z</Time>
            <Position>
              <LatitudeDegrees>43.17208302207291126251220703125</LatitudeDegrees>
              <LongitudeDegrees>-8.3323978073894977569580078125</LongitudeDegrees>
            </Position>
            <AltitudeMeters>424.399993896484375</AltitudeMeters>
            <DistanceMeters>33057.30499397</DistanceMeters>
          </Trackpoint>
          <Trackpoint>
            <Time>2018-04-21T10:09:39.000Z</Time>
            <Position>
              <LatitudeDegrees>43.17198076285421848297119140625</LatitudeDegrees>
              <LongitudeDegrees>-8.33236478269100189208984375</LongitudeDegrees>
            </Position>
            <AltitudeMeters>425.399993896484375</AltitudeMeters>
            <DistanceMeters>33068.997914368</DistanceMeters>
          </Trackpoint>
          <Trackpoint>
            <Time>2018-04-21T10:09:40.000Z</Time>
            <Position>
              <LatitudeDegrees>43.1719587184488773345947265625</LatitudeDegrees>
              <LongitudeDegrees>-8.3323589153587818145751953125</LongitudeDegrees>
            </Position>
            <AltitudeMeters>425.600006103515625</AltitudeMeters>
            <DistanceMeters>33071.495870097</DistanceMeters>
          </Trackpoint>
          <Trackpoint>
            <Time>2018-04-21T10:09:43.000Z</Time>
            <Position>
              <LatitudeDegrees>43.171895854175090789794921875</LatitudeDegrees>
              <LongitudeDegrees>-8.33233100362122058868408203125</LongitudeDegrees>
            </Position>
            <AltitudeMeters>426.399993896484375</AltitudeMeters>
            <DistanceMeters>33078.850471235</DistanceMeters>
          </Trackpoint>
          <Trackpoint>
            <Time>2018-04-21T10:09:48.000Z</Time>
            <Position>
              <LatitudeDegrees>43.171773143112659454345703125</LatitudeDegrees>
              <LongitudeDegrees>-8.332283310592174530029296875</LongitudeDegrees>
            </Position>
            <AltitudeMeters>426.600006103515625</AltitudeMeters>
            <DistanceMeters>33093.046711796</DistanceMeters>
          </Trackpoint>
          <Trackpoint>
            <Time>2018-04-21T10:09:51.000Z</Time>
            <Position>
              <LatitudeDegrees>43.17169435322284698486328125</LatitudeDegrees>
              <LongitudeDegrees>-8.3322502858936786651611328125</LongitudeDegrees>
            </Position>
            <AltitudeMeters>427.399993896484375</AltitudeMeters>
            <DistanceMeters>33102.217159</DistanceMeters>
          </Trackpoint>
          <Trackpoint>
            <Time>2018-04-21T10:09:57.000Z</Time>
            <Position>
              <LatitudeDegrees>43.1715355999767780303955078125</LatitudeDegrees>
              <LongitudeDegrees>-8.3321916125714778900146484375</LongitudeDegrees>
            </Position>
            <AltitudeMeters>428</AltitudeMeters>
            <DistanceMeters>33120.517143017</DistanceMeters>
          </Trackpoint>
          <Trackpoint>
            <Time>2018-04-21T10:09:59.000Z</Time>
            <Position>
              <LatitudeDegrees>43.1714802794158458709716796875</LatitudeDegrees>
              <LongitudeDegrees>-8.3321802131831645965576171875</LongitudeDegrees>
            </Position>
            <AltitudeMeters>428.79998779296875</AltitudeMeters>
            <DistanceMeters>33126.744112444</DistanceMeters>
          </Trackpoint>
          <Trackpoint>
            <Time>2018-04-21T10:10:04.000Z</Time>
            <Position>
              <LatitudeDegrees>43.17133787088096141815185546875</LatitudeDegrees>
              <LongitudeDegrees>-8.332123719155788421630859375</LongitudeDegrees>
            </Position>
            <AltitudeMeters>428.600006103515625</AltitudeMeters>
            <DistanceMeters>33143.244592282</DistanceMeters>
          </Trackpoint>
          <Trackpoint>
            <Time>2018-04-21T10:10:11.000Z</Time>
            <Position>
              <LatitudeDegrees>43.17112631164491176605224609375</LatitudeDegrees>
              <LongitudeDegrees>-8.33205364644527435302734375</LongitudeDegrees>
            </Position>
            <AltitudeMeters>429</AltitudeMeters>
            <DistanceMeters>33167.468950224</DistanceMeters>
          </Trackpoint>
          <Trackpoint>
            <Time>2018-04-21T10:10:15.000Z</Time>
            <Position>
              <LatitudeDegrees>43.1710008345544338226318359375</LatitudeDegrees>
              <LongitudeDegrees>-8.33217359147965908050537109375</LongitudeDegrees>
            </Position>
            <AltitudeMeters>429</AltitudeMeters>
            <DistanceMeters>33184.493855325</DistanceMeters>
          </Trackpoint>
          <Trackpoint>
            <Time>2018-04-21T10:10:19.000Z</Time>
            <Position>
              <LatitudeDegrees>43.1708717532455921173095703125</LatitudeDegrees>
              <LongitudeDegrees>-8.33236084319651126861572265625</LongitudeDegrees>
            </Position>
            <AltitudeMeters>428.399993896484375</AltitudeMeters>
            <DistanceMeters>33205.409232999</DistanceMeters>
          </Trackpoint>
          <Trackpoint>
            <Time>2018-04-21T10:10:22.000Z</Time>
            <Position>
              <LatitudeDegrees>43.17076924256980419158935546875</LatitudeDegrees>
              <LongitudeDegrees>-8.33253233693540096282958984375</LongitudeDegrees>
            </Position>
            <AltitudeMeters>427.79998779296875</AltitudeMeters>
            <DistanceMeters>33223.408456665</DistanceMeters>
          </Trackpoint>
          <Trackpoint>
            <Time>2018-04-21T10:10:24.000Z</Time>
            <Position>
              <LatitudeDegrees>43.17067771218717098236083984375</LatitudeDegrees>
              <LongitudeDegrees>-8.332631997764110565185546875</LongitudeDegrees>
            </Position>
            <AltitudeMeters>427.600006103515625</AltitudeMeters>
            <DistanceMeters>33236.417749217</DistanceMeters>
          </Trackpoint>
          <Trackpoint>
            <Time>2018-04-21T10:10:26.000Z</Time>
            <Position>
              <LatitudeDegrees>43.17055785097181797027587890625</LatitudeDegrees>
              <LongitudeDegrees>-8.33268421702086925506591796875</LongitudeDegrees>
            </Position>
            <AltitudeMeters>426.79998779296875</AltitudeMeters>
            <DistanceMeters>33250.415413261</DistanceMeters>
          </Trackpoint>
          <Trackpoint>
            <Time>2018-04-21T10:10:27.000Z</Time>
            <Position>
              <LatitudeDegrees>43.17049129866063594818115234375</LatitudeDegrees>
              <LongitudeDegrees>-8.332702405750751495361328125</LongitudeDegrees>
            </Position>
            <AltitudeMeters>426.399993896484375</AltitudeMeters>
            <DistanceMeters>33257.968094434</DistanceMeters>
          </Trackpoint>
          <Trackpoint>
            <Time>2018-04-21T10:10:28.000Z</Time>
            <Position>
              <LatitudeDegrees>43.17042298614978790283203125</LatitudeDegrees>
              <LongitudeDegrees>-8.3327176608145236968994140625</LongitudeDegrees>
            </Position>
            <AltitudeMeters>426</AltitudeMeters>
            <DistanceMeters>33265.671708027</DistanceMeters>
          </Trackpoint>
          <Trackpoint>
            <Time>2018-04-21T10:10:29.000Z</Time>
            <Position>
              <LatitudeDegrees>43.170351572334766387939453125</LatitudeDegrees>
              <LongitudeDegrees>-8.332735262811183929443359375</LongitudeDegrees>
            </Position>
            <AltitudeMeters>425.600006103515625</AltitudeMeters>
            <DistanceMeters>33273.747301632</DistanceMeters>
          </Trackpoint>
          <Trackpoint>
            <Time>2018-04-21T10:10:30.000Z</Time>
            <Position>
              <LatitudeDegrees>43.17028141580522060394287109375</LatitudeDegrees>
              <LongitudeDegrees>-8.33276736550033092498779296875</LongitudeDegrees>
            </Position>
            <AltitudeMeters>424.79998779296875</AltitudeMeters>
            <DistanceMeters>33281.979599228</DistanceMeters>
          </Trackpoint>
          <Trackpoint>
            <Time>2018-04-21T10:10:31.000Z</Time>
            <Position>
              <LatitudeDegrees>43.170213438570499420166015625</LatitudeDegrees>
              <LongitudeDegrees>-8.33281530998647212982177734375</LongitudeDegrees>
            </Position>
            <AltitudeMeters>424.399993896484375</AltitudeMeters>
            <DistanceMeters>33290.487542151</DistanceMeters>
          </Trackpoint>
          <Trackpoint>
            <Time>2018-04-21T10:10:34.000Z</Time>
            <Position>
              <LatitudeDegrees>43.17003004252910614013671875</LatitudeDegrees>
              <LongitudeDegrees>-8.33297557197511196136474609375</LongitudeDegrees>
            </Position>
            <AltitudeMeters>423.79998779296875</AltitudeMeters>
            <DistanceMeters>33314.693067966</DistanceMeters>
          </Trackpoint>
          <Trackpoint>
            <Time>2018-04-21T10:10:35.000Z</Time>
            <Position>
              <LatitudeDegrees>43.16997379995882511138916015625</LatitudeDegrees>
              <LongitudeDegrees>-8.332996778190135955810546875</LongitudeDegrees>
            </Position>
            <AltitudeMeters>423.399993896484375</AltitudeMeters>
            <DistanceMeters>33321.18555569</DistanceMeters>
          </Trackpoint>
          <Trackpoint>
            <Time>2018-04-21T10:10:37.000Z</Time>
            <Position>
              <LatitudeDegrees>43.1698605604469776153564453125</LatitudeDegrees>
              <LongitudeDegrees>-8.33296014927327632904052734375</LongitudeDegrees>
            </Position>
            <AltitudeMeters>422.600006103515625</AltitudeMeters>
            <DistanceMeters>33334.135364555</DistanceMeters>
          </Trackpoint>
          <Trackpoint>
            <Time>2018-04-21T10:10:38.000Z</Time>
            <Position>
              <LatitudeDegrees>43.16980205476284027099609375</LatitudeDegrees>
              <LongitudeDegrees>-8.33291865885257720947265625</LongitudeDegrees>
            </Position>
            <AltitudeMeters>422</AltitudeMeters>
            <DistanceMeters>33341.466600125</DistanceMeters>
          </Trackpoint>
          <Trackpoint>
            <Time>2018-04-21T10:10:39.000Z</Time>
            <Position>
              <LatitudeDegrees>43.1697381846606731414794921875</LatitudeDegrees>
              <LongitudeDegrees>-8.3328688703477382659912109375</LongitudeDegrees>
            </Position>
            <AltitudeMeters>421.600006103515625</AltitudeMeters>
            <DistanceMeters>33349.643868377</DistanceMeters>
          </Trackpoint>
          <Trackpoint>
            <Time>2018-04-21T10:10:40.000Z</Time>
            <Position>
              <LatitudeDegrees>43.16966928541660308837890625</LatitudeDegrees>
              <LongitudeDegrees>-8.33281145431101322174072265625</LongitudeDegrees>
            </Position>
            <AltitudeMeters>421.399993896484375</AltitudeMeters>
            <DistanceMeters>33358.617731633</DistanceMeters>
          </Trackpoint>
          <Trackpoint>
            <Time>2018-04-21T10:10:42.000Z</Time>
            <Position>
              <LatitudeDegrees>43.169529139995574951171875</LatitudeDegrees>
              <LongitudeDegrees>-8.33269326947629451751708984375</LongitudeDegrees>
            </Position>
            <AltitudeMeters>420</AltitudeMeters>
            <DistanceMeters>33376.930294231</DistanceMeters>
          </Trackpoint>
          <Trackpoint>
            <Time>2018-04-21T10:10:44.000Z</Time>
            <Position>
              <LatitudeDegrees>43.1693837977945804595947265625</LatitudeDegrees>
              <LongitudeDegrees>-8.332566283643245697021484375</LongitudeDegrees>
            </Position>
            <AltitudeMeters>418.79998779296875</AltitudeMeters>
            <DistanceMeters>33396.112043233</DistanceMeters>
          </Trackpoint>
          <Trackpoint>
            <Time>2018-04-21T10:10:46.000Z</Time>
            <Position>
              <LatitudeDegrees>43.1692461669445037841796875</LatitudeDegrees>
              <LongitudeDegrees>-8.332469053566455841064453125</LongitudeDegrees>
            </Position>
            <AltitudeMeters>417.20001220703125</AltitudeMeters>
            <DistanceMeters>33413.344398378</DistanceMeters>
          </Trackpoint>
          <Trackpoint>
            <Time>2018-04-21T10:10:47.000Z</Time>
            <Position>
              <LatitudeDegrees>43.16920098848640918731689453125</LatitudeDegrees>
              <LongitudeDegrees>-8.33243695087730884552001953125</LongitudeDegrees>
            </Position>
            <AltitudeMeters>416.399993896484375</AltitudeMeters>
            <DistanceMeters>33419.007863001</DistanceMeters>
          </Trackpoint>
          <Trackpoint>
            <Time>2018-04-21T10:10:48.000Z</Time>
            <Position>
              <LatitudeDegrees>43.1691682152450084686279296875</LatitudeDegrees>
              <LongitudeDegrees>-8.33240610547363758087158203125</LongitudeDegrees>
            </Position>
            <AltitudeMeters>415.20001220703125</AltitudeMeters>
            <DistanceMeters>33423.432476626</DistanceMeters>
          </Trackpoint>
          <Trackpoint>
            <Time>2018-04-21T10:10:50.000Z</Time>
            <Position>
              <LatitudeDegrees>43.16912957467138767242431640625</LatitudeDegrees>
              <LongitudeDegrees>-8.33233050070703029632568359375</LongitudeDegrees>
            </Position>
            <AltitudeMeters>414.600006103515625</AltitudeMeters>
            <DistanceMeters>33430.926946286</DistanceMeters>
          </Trackpoint>
          <Trackpoint>
            <Time>2018-04-21T10:10:51.000Z</Time>
            <Position>
              <LatitudeDegrees>43.16912521608173847198486328125</LatitudeDegrees>
              <LongitudeDegrees>-8.33227761089801788330078125</LongitudeDegrees>
            </Position>
            <AltitudeMeters>414.20001220703125</AltitudeMeters>
            <DistanceMeters>33435.247266645</DistanceMeters>
          </Trackpoint>
          <Trackpoint>
            <Time>2018-04-21T10:10:52.000Z</Time>
            <Position>
              <LatitudeDegrees>43.16913510672748088836669921875</LatitudeDegrees>
              <LongitudeDegrees>-8.33222354762256145477294921875</LongitudeDegrees>
            </Position>
            <AltitudeMeters>414.20001220703125</AltitudeMeters>
            <DistanceMeters>33439.770777806</DistanceMeters>
          </Trackpoint>
          <Trackpoint>
            <Time>2018-04-21T10:10:53.000Z</Time>
            <Position>
              <LatitudeDegrees>43.16914097405970096588134765625</LatitudeDegrees>
              <LongitudeDegrees>-8.33216671831905841827392578125</LongitudeDegrees>
            </Position>
            <AltitudeMeters>414.20001220703125</AltitudeMeters>
            <DistanceMeters>33444.429994883</DistanceMeters>
          </Trackpoint>
          <Trackpoint>
            <Time>2018-04-21T10:10:58.000Z</Time>
            <Position>
              <LatitudeDegrees>43.16919243894517421722412109375</LatitudeDegrees>
              <LongitudeDegrees>-8.33184200339019298553466796875</LongitudeDegrees>
            </Position>
            <AltitudeMeters>414.20001220703125</AltitudeMeters>
            <DistanceMeters>33471.404194399</DistanceMeters>
          </Trackpoint>
          <Trackpoint>
            <Time>2018-04-21T10:10:59.000Z</Time>
            <Position>
              <LatitudeDegrees>43.1692071072757244110107421875</LatitudeDegrees>
              <LongitudeDegrees>-8.3317745290696620941162109375</LongitudeDegrees>
            </Position>
            <AltitudeMeters>414</AltitudeMeters>
            <DistanceMeters>33477.119243524</DistanceMeters>
          </Trackpoint>
          <Trackpoint>
            <Time>2018-04-21T10:11:07.000Z</Time>
            <Position>
              <LatitudeDegrees>43.16933426074683666229248046875</LatitudeDegrees>
              <LongitudeDegrees>-8.33118905313313007354736328125</LongitudeDegrees>
            </Position>
            <AltitudeMeters>414.399993896484375</AltitudeMeters>
            <DistanceMeters>33526.708622806</DistanceMeters>
          </Trackpoint>
          <Trackpoint>
            <Time>2018-04-21T10:11:15.000Z</Time>
            <Position>
              <LatitudeDegrees>43.16947088576853275299072265625</LatitudeDegrees>
              <LongitudeDegrees>-8.330549262464046478271484375</LongitudeDegrees>
            </Position>
            <AltitudeMeters>413.79998779296875</AltitudeMeters>
            <DistanceMeters>33580.824897454</DistanceMeters>
          </Trackpoint>
          <Trackpoint>
            <Time>2018-04-21T10:11:19.000Z</Time>
            <Position>
              <LatitudeDegrees>43.16954900510609149932861328125</LatitudeDegrees>
              <LongitudeDegrees>-8.33018389530479907989501953125</LongitudeDegrees>
            </Position>
            <AltitudeMeters>413.20001220703125</AltitudeMeters>
            <DistanceMeters>33611.732108048</DistanceMeters>
          </Trackpoint>
          <Trackpoint>
            <Time>2018-04-21T10:11:23.000Z</Time>
            <Position>
              <LatitudeDegrees>43.1696329079568386077880859375</LatitudeDegrees>
              <LongitudeDegrees>-8.3298074640333652496337890625</LongitudeDegrees>
            </Position>
            <AltitudeMeters>412.20001220703125</AltitudeMeters>
            <DistanceMeters>33643.684549315</DistanceMeters>
          </Trackpoint>
          <Trackpoint>
            <Time>2018-04-21T10:11:31.000Z</Time>
            <Position>
              <LatitudeDegrees>43.16978872753679752349853515625</LatitudeDegrees>
              <LongitudeDegrees>-8.32908670417964458465576171875</LongitudeDegrees>
            </Position>
            <AltitudeMeters>412.20001220703125</AltitudeMeters>
            <DistanceMeters>33704.709237397</DistanceMeters>
          </Trackpoint>
          <Trackpoint>
            <Time>2018-04-21T10:11:38.000Z</Time>
            <Position>
              <LatitudeDegrees>43.1699088402092456817626953125</LatitudeDegrees>
              <LongitudeDegrees>-8.328524865210056304931640625</LongitudeDegrees>
            </Position>
            <AltitudeMeters>412.399993896484375</AltitudeMeters>
            <DistanceMeters>33752.235896461</DistanceMeters>
          </Trackpoint>
          <Trackpoint>
            <Time>2018-04-21T10:11:41.000Z</Time>
            <Position>
              <LatitudeDegrees>43.16996156238019466400146484375</LatitudeDegrees>
              <LongitudeDegrees>-8.32827148027718067169189453125</LongitudeDegrees>
            </Position>
            <AltitudeMeters>412.20001220703125</AltitudeMeters>
            <DistanceMeters>33773.625141257</DistanceMeters>
          </Trackpoint>
          <Trackpoint>
            <Time>2018-04-21T10:11:43.000Z</Time>
            <Position>
              <LatitudeDegrees>43.170004226267337799072265625</LatitudeDegrees>
              <LongitudeDegrees>-8.32809009589254856109619140625</LongitudeDegrees>
            </Position>
            <AltitudeMeters>411</AltitudeMeters>
            <DistanceMeters>33789.095537052</DistanceMeters>
          </Trackpoint>
          <Trackpoint>
            <Time>2018-04-21T10:11:45.000Z</Time>
            <Position>
              <LatitudeDegrees>43.17005560733377933502197265625</LatitudeDegrees>
              <LongitudeDegrees>-8.32790016196668148040771484375</LongitudeDegrees>
            </Position>
            <AltitudeMeters>410.399993896484375</AltitudeMeters>
            <DistanceMeters>33805.539826918</DistanceMeters>
          </Trackpoint>
          <Trackpoint>
            <Time>2018-04-21T10:11:50.000Z</Time>
            <Position>
              <LatitudeDegrees>43.17022089846432209014892578125</LatitudeDegrees>
              <LongitudeDegrees>-8.32736439071595668792724609375</LongitudeDegrees>
            </Position>
            <AltitudeMeters>408.79998779296875</AltitudeMeters>
            <DistanceMeters>33852.762271981</DistanceMeters>
          </Trackpoint>
          <Trackpoint>
            <Time>2018-04-21T10:11:52.000Z</Time>
            <Position>
              <LatitudeDegrees>43.1702991016209125518798828125</LatitudeDegrees>
              <LongitudeDegrees>-8.32712776958942413330078125</LongitudeDegrees>
            </Position>
            <AltitudeMeters>407.79998779296875</AltitudeMeters>
            <DistanceMeters>33873.850282191</DistanceMeters>
          </Trackpoint>
          <Trackpoint>
            <Time>2018-04-21T10:11:54.000Z</Time>
            <Position>
              <LatitudeDegrees>43.17039557732641696929931640625</LatitudeDegrees>
              <LongitudeDegrees>-8.32689802162349224090576171875</LongitudeDegrees>
            </Position>
            <AltitudeMeters>407.399993896484375</AltitudeMeters>
            <DistanceMeters>33895.370423931</DistanceMeters>
          </Trackpoint>
          <Trackpoint>
            <Time>2018-04-21T10:11:55.000Z</Time>
            <Position>
              <LatitudeDegrees>43.170454502105712890625</LatitudeDegrees>
              <LongitudeDegrees>-8.3267929963767528533935546875</LongitudeDegrees>
            </Position>
            <AltitudeMeters>406.79998779296875</AltitudeMeters>
            <DistanceMeters>33906.126507763</DistanceMeters>
          </Trackpoint>
          <Trackpoint>
            <Time>2018-04-21T10:11:57.000Z</Time>
            <Position>
              <LatitudeDegrees>43.17057360894978046417236328125</LatitudeDegrees>
              <LongitudeDegrees>-8.32658017985522747039794921875</LongitudeDegrees>
            </Position>
            <AltitudeMeters>405.600006103515625</AltitudeMeters>
            <DistanceMeters>33927.901936899</DistanceMeters>
          </Trackpoint>
          <Trackpoint>
            <Time>2018-04-21T10:12:01.000Z</Time>
            <Position>
              <LatitudeDegrees>43.170826323330402374267578125</LatitudeDegrees>
              <LongitudeDegrees>-8.32616779021918773651123046875</LongitudeDegrees>
            </Position>
            <AltitudeMeters>404</AltitudeMeters>
            <DistanceMeters>33971.625792449</DistanceMeters>
          </Trackpoint>
          <Trackpoint>
            <Time>2018-04-21T10:12:03.000Z</Time>
            <Position>
              <LatitudeDegrees>43.17095448262989521026611328125</LatitudeDegrees>
              <LongitudeDegrees>-8.32595891319215297698974609375</LongitudeDegrees>
            </Position>
            <AltitudeMeters>403.399993896484375</AltitudeMeters>
            <DistanceMeters>33993.78352826</DistanceMeters>
          </Trackpoint>
          <Trackpoint>
            <Time>2018-04-21T10:12:05.000Z</Time>
            <Position>
              <LatitudeDegrees>43.171083144843578338623046875</LatitudeDegrees>
              <LongitudeDegrees>-8.32574534229934215545654296875</LongitudeDegrees>
            </Position>
            <AltitudeMeters>402.600006103515625</AltitudeMeters>
            <DistanceMeters>34016.269748493</DistanceMeters>
          </Trackpoint>
          <Trackpoint>
            <Time>2018-04-21T10:12:09.000Z</Time>
            <Position>
              <LatitudeDegrees>43.17133099772036075592041015625</LatitudeDegrees>
              <LongitudeDegrees>-8.32531250081956386566162109375</LongitudeDegrees>
            </Position>
            <AltitudeMeters>401.399993896484375</AltitudeMeters>
            <DistanceMeters>34060.940896262</DistanceMeters>
          </Trackpoint>
          <Trackpoint>
            <Time>2018-04-21T10:12:10.000Z</Time>
            <Position>
              <LatitudeDegrees>43.17138950340449810028076171875</LatitudeDegrees>
              <LongitudeDegrees>-8.32519465126097202301025390625</LongitudeDegrees>
            </Position>
            <AltitudeMeters>400.20001220703125</AltitudeMeters>
            <DistanceMeters>34072.512715635</DistanceMeters>
          </Trackpoint>
          <Trackpoint>
            <Time>2018-04-21T10:12:11.000Z</Time>
            <Position>
              <LatitudeDegrees>43.17144197411835193634033203125</LatitudeDegrees>
              <LongitudeDegrees>-8.32506590522825717926025390625</LongitudeDegrees>
            </Position>
            <AltitudeMeters>399</AltitudeMeters>
            <DistanceMeters>34084.48457319</DistanceMeters>
          </Trackpoint>
          <Trackpoint>
            <Time>2018-04-21T10:12:13.000Z</Time>
            <Position>
              <LatitudeDegrees>43.1715319119393825531005859375</LatitudeDegrees>
              <LongitudeDegrees>-8.3247692696750164031982421875</LongitudeDegrees>
            </Position>
            <AltitudeMeters>397.399993896484375</AltitudeMeters>
            <DistanceMeters>34110.561399617</DistanceMeters>
          </Trackpoint>
          <Trackpoint>
            <Time>2018-04-21T10:12:14.000Z</Time>
            <Position>
              <LatitudeDegrees>43.1715738214552402496337890625</LatitudeDegrees>
              <LongitudeDegrees>-8.32460490055382251739501953125</LongitudeDegrees>
            </Position>
            <AltitudeMeters>396</AltitudeMeters>
            <DistanceMeters>34124.695485409</DistanceMeters>
          </Trackpoint>
          <Trackpoint>
            <Time>2018-04-21T10:12:15.000Z</Time>
            <Position>
              <LatitudeDegrees>43.1716145575046539306640625</LatitudeDegrees>
              <LongitudeDegrees>-8.3244316466152667999267578125</LongitudeDegrees>
            </Position>
            <AltitudeMeters>394.399993896484375</AltitudeMeters>
            <DistanceMeters>34139.471451985</DistanceMeters>
          </Trackpoint>
          <Trackpoint>
            <Time>2018-04-21T10:12:16.000Z</Time>
            <Position>
              <LatitudeDegrees>43.17164615727961063385009765625</LatitudeDegrees>
              <LongitudeDegrees>-8.324241377413272857666015625</LongitudeDegrees>
            </Position>
            <AltitudeMeters>393</AltitudeMeters>
            <DistanceMeters>34155.311581532</DistanceMeters>
          </Trackpoint>
          <Trackpoint>
            <Time>2018-04-21T10:12:17.000Z</Time>
            <Position>
              <LatitudeDegrees>43.1716789305210113525390625</LatitudeDegrees>
              <LongitudeDegrees>-8.3240464143455028533935546875</LongitudeDegrees>
            </Position>
            <AltitudeMeters>391.399993896484375</AltitudeMeters>
            <DistanceMeters>34171.552533873</DistanceMeters>
          </Trackpoint>
          <Trackpoint>
            <Time>2018-04-21T10:12:18.000Z</Time>
            <Position>
              <LatitudeDegrees>43.17171220667660236358642578125</LatitudeDegrees>
              <LongitudeDegrees>-8.3238479308784008026123046875</LongitudeDegrees>
            </Position>
            <AltitudeMeters>390</AltitudeMeters>
            <DistanceMeters>34188.084178183</DistanceMeters>
          </Trackpoint>
          <Trackpoint>
            <Time>2018-04-21T10:12:19.000Z</Time>
            <Position>
              <LatitudeDegrees>43.1717406213283538818359375</LatitudeDegrees>
              <LongitudeDegrees>-8.323644585907459259033203125</LongitudeDegrees>
            </Position>
            <AltitudeMeters>388</AltitudeMeters>
            <DistanceMeters>34204.890479414</DistanceMeters>
          </Trackpoint>
          <Trackpoint>
            <Time>2018-04-21T10:12:20.000Z</Time>
            <Position>
              <LatitudeDegrees>43.171765767037868499755859375</LatitudeDegrees>
              <LongitudeDegrees>-8.323439396917819976806640625</LongitudeDegrees>
            </Position>
            <AltitudeMeters>386.600006103515625</AltitudeMeters>
            <DistanceMeters>34221.779589951</DistanceMeters>
          </Trackpoint>
          <Trackpoint>
            <Time>2018-04-21T10:12:22.000Z</Time>
            <Position>
              <LatitudeDegrees>43.1718044914305210113525390625</LatitudeDegrees>
              <LongitudeDegrees>-8.32303781993687152862548828125</LongitudeDegrees>
            </Position>
            <AltitudeMeters>385.20001220703125</AltitudeMeters>
            <DistanceMeters>34254.660480944</DistanceMeters>
          </Trackpoint>
          <Trackpoint>
            <Time>2018-04-21T10:12:23.000Z</Time>
            <Position>
              <LatitudeDegrees>43.1718128733336925506591796875</LatitudeDegrees>
              <LongitudeDegrees>-8.32284470088779926300048828125</LongitudeDegrees>
            </Position>
            <AltitudeMeters>384.20001220703125</AltitudeMeters>
            <DistanceMeters>34270.364346318</DistanceMeters>
          </Trackpoint>
          <Trackpoint>
            <Time>2018-04-21T10:12:24.000Z</Time>
            <Position>
              <LatitudeDegrees>43.17180155776441097259521484375</LatitudeDegrees>
              <LongitudeDegrees>-8.32265426404774188995361328125</LongitudeDegrees>
            </Position>
            <AltitudeMeters>383.20001220703125</AltitudeMeters>
            <DistanceMeters>34285.874091847</DistanceMeters>
          </Trackpoint>
          <Trackpoint>
            <Time>2018-04-21T10:12:26.000Z</Time>
            <Position>
              <LatitudeDegrees>43.171749003231525421142578125</LatitudeDegrees>
              <LongitudeDegrees>-8.32230172120034694671630859375</LongitudeDegrees>
            </Position>
            <AltitudeMeters>381.600006103515625</AltitudeMeters>
            <DistanceMeters>34315.082713216</DistanceMeters>
          </Trackpoint>
          <Trackpoint>
            <Time>2018-04-21T10:12:27.000Z</Time>
            <Position>
              <LatitudeDegrees>43.17172209732234477996826171875</LatitudeDegrees>
              <LongitudeDegrees>-8.32213508896529674530029296875</LongitudeDegrees>
            </Position>
            <AltitudeMeters>380</AltitudeMeters>
            <DistanceMeters>34328.936421916</DistanceMeters>
          </Trackpoint>
          <Trackpoint>
            <Time>2018-04-21T10:12:28.000Z</Time>
            <Position>
              <LatitudeDegrees>43.17169192247092723846435546875</LatitudeDegrees>
              <LongitudeDegrees>-8.32197365351021289825439453125</LongitudeDegrees>
            </Position>
            <AltitudeMeters>378.399993896484375</AltitudeMeters>
            <DistanceMeters>34342.464301617</DistanceMeters>
          </Trackpoint>
          <Trackpoint>
            <Time>2018-04-21T10:12:31.000Z</Time>
            <Position>
              <LatitudeDegrees>43.17159133963286876678466796875</LatitudeDegrees>
              <LongitudeDegrees>-8.32152605988085269927978515625</LongitudeDegrees>
            </Position>
            <AltitudeMeters>377</AltitudeMeters>
            <DistanceMeters>34380.482469982</DistanceMeters>
          </Trackpoint>
          <Trackpoint>
            <Time>2018-04-21T10:12:32.000Z</Time>
            <Position>
              <LatitudeDegrees>43.17154104821383953094482421875</LatitudeDegrees>
              <LongitudeDegrees>-8.3213977329432964324951171875</LongitudeDegrees>
            </Position>
            <AltitudeMeters>376.399993896484375</AltitudeMeters>
            <DistanceMeters>34392.30747458</DistanceMeters>
          </Trackpoint>
          <Trackpoint>
            <Time>2018-04-21T10:12:33.000Z</Time>
            <Position>
              <LatitudeDegrees>43.17147977650165557861328125</LatitudeDegrees>
              <LongitudeDegrees>-8.32128566689789295196533203125</LongitudeDegrees>
            </Position>
            <AltitudeMeters>375.79998779296875</AltitudeMeters>
            <DistanceMeters>34403.676578072</DistanceMeters>
          </Trackpoint>
          <Trackpoint>
            <Time>2018-04-21T10:12:34.000Z</Time>
            <Position>
              <LatitudeDegrees>43.17141473293304443359375</LatitudeDegrees>
              <LongitudeDegrees>-8.32118240185081958770751953125</LongitudeDegrees>
            </Position>
            <AltitudeMeters>376.20001220703125</AltitudeMeters>
            <DistanceMeters>34414.751981379</DistanceMeters>
          </Trackpoint>
          <Trackpoint>
            <Time>2018-04-21T10:12:38.000Z</Time>
            <Position>
              <LatitudeDegrees>43.17119487561285495758056640625</LatitudeDegrees>
              <LongitudeDegrees>-8.32075484097003936767578125</LongitudeDegrees>
            </Position>
            <AltitudeMeters>374.399993896484375</AltitudeMeters>
            <DistanceMeters>34457.218079345</DistanceMeters>
          </Trackpoint>
          <Trackpoint>
            <Time>2018-04-21T10:12:39.000Z</Time>
            <Position>
              <LatitudeDegrees>43.17114525474607944488525390625</LatitudeDegrees>
              <LongitudeDegrees>-8.32064352929592132568359375</LongitudeDegrees>
            </Position>
            <AltitudeMeters>373.79998779296875</AltitudeMeters>
            <DistanceMeters>34467.807910286</DistanceMeters>
          </Trackpoint>
          <Trackpoint>
            <Time>2018-04-21T10:12:40.000Z</Time>
            <Position>
              <LatitudeDegrees>43.171091191470623016357421875</LatitudeDegrees>
              <LongitudeDegrees>-8.320531882345676422119140625</LongitudeDegrees>
            </Position>
            <AltitudeMeters>373.20001220703125</AltitudeMeters>
            <DistanceMeters>34478.685875248</DistanceMeters>
          </Trackpoint>
          <Trackpoint>
            <Time>2018-04-21T10:12:42.000Z</Time>
            <Position>
              <LatitudeDegrees>43.1709709949791431427001953125</LatitudeDegrees>
              <LongitudeDegrees>-8.320310600101947784423828125</LongitudeDegrees>
            </Position>
            <AltitudeMeters>372.20001220703125</AltitudeMeters>
            <DistanceMeters>34501.082565101</DistanceMeters>
          </Trackpoint>
          <Trackpoint>
            <Time>2018-04-21T10:12:43.000Z</Time>
            <Position>
              <LatitudeDegrees>43.17090285010635852813720703125</LatitudeDegrees>
              <LongitudeDegrees>-8.32019920460879802703857421875</LongitudeDegrees>
            </Position>
            <AltitudeMeters>371</AltitudeMeters>
            <DistanceMeters>34512.885020745</DistanceMeters>
          </Trackpoint>
          <Trackpoint>
            <Time>2018-04-21T10:12:44.000Z</Time>
            <Position>
              <LatitudeDegrees>43.17083177156746387481689453125</LatitudeDegrees>
              <LongitudeDegrees>-8.3200841210782527923583984375</LongitudeDegrees>
            </Position>
            <AltitudeMeters>369.79998779296875</AltitudeMeters>
            <DistanceMeters>34525.126512427</DistanceMeters>
          </Trackpoint>
          <Trackpoint>
            <Time>2018-04-21T10:12:45.000Z</Time>
            <Position>
              <LatitudeDegrees>43.1707594357430934906005859375</LatitudeDegrees>
              <LongitudeDegrees>-8.31996870227158069610595703125</LongitudeDegrees>
            </Position>
            <AltitudeMeters>368.399993896484375</AltitudeMeters>
            <DistanceMeters>34537.479619802</DistanceMeters>
          </Trackpoint>
          <Trackpoint>
            <Time>2018-04-21T10:12:47.000Z</Time>
            <Position>
              <LatitudeDegrees>43.1706028617918491363525390625</LatitudeDegrees>
              <LongitudeDegrees>-8.3197470009326934814453125</LongitudeDegrees>
            </Position>
            <AltitudeMeters>366.79998779296875</AltitudeMeters>
            <DistanceMeters>34562.531012033</DistanceMeters>
          </Trackpoint>
          <Trackpoint>
            <Time>2018-04-21T10:12:48.000Z</Time>
            <Position>
              <LatitudeDegrees>43.1705136783421039581298828125</LatitudeDegrees>
              <LongitudeDegrees>-8.31964910030364990234375</LongitudeDegrees>
            </Position>
            <AltitudeMeters>366</AltitudeMeters>
            <DistanceMeters>34575.246495458</DistanceMeters>
          </Trackpoint>
          <Trackpoint>
            <Time>2018-04-21T10:12:49.000Z</Time>
            <Position>
              <LatitudeDegrees>43.1704198010265827178955078125</LatitudeDegrees>
              <LongitudeDegrees>-8.31956771202385425567626953125</LongitudeDegrees>
            </Position>
            <AltitudeMeters>365.79998779296875</AltitudeMeters>
            <DistanceMeters>34587.608371677</DistanceMeters>
          </Trackpoint>
          <Trackpoint>
            <Time>2018-04-21T10:12:50.000Z</Time>
            <Position>
              <LatitudeDegrees>43.17033288069069385528564453125</LatitudeDegrees>
              <LongitudeDegrees>-8.31948607228696346282958984375</LongitudeDegrees>
            </Position>
            <AltitudeMeters>365.20001220703125</AltitudeMeters>
            <DistanceMeters>34599.334837645</DistanceMeters>
          </Trackpoint>
          <Trackpoint>
            <Time>2018-04-21T10:12:51.000Z</Time>
            <Position>
              <LatitudeDegrees>43.170253336429595947265625</LatitudeDegrees>
              <LongitudeDegrees>-8.3194175921380519866943359375</LongitudeDegrees>
            </Position>
            <AltitudeMeters>364</AltitudeMeters>
            <DistanceMeters>34609.788640069</DistanceMeters>
          </Trackpoint>
          <Trackpoint>
            <Time>2018-04-21T10:12:52.000Z</Time>
            <Position>
              <LatitudeDegrees>43.17018418572843074798583984375</LatitudeDegrees>
              <LongitudeDegrees>-8.31936336122453212738037109375</LongitudeDegrees>
            </Position>
            <AltitudeMeters>362.79998779296875</AltitudeMeters>
            <DistanceMeters>34618.655197773</DistanceMeters>
          </Trackpoint>
          <Trackpoint>
            <Time>2018-04-21T10:12:53.000Z</Time>
            <Position>
              <LatitudeDegrees>43.17012316547334194183349609375</LatitudeDegrees>
              <LongitudeDegrees>-8.31932698376476764678955078125</LongitudeDegrees>
            </Position>
            <AltitudeMeters>361.399993896484375</AltitudeMeters>
            <DistanceMeters>34626.061187533</DistanceMeters>
          </Trackpoint>
          <Trackpoint>
            <Time>2018-04-21T10:12:54.000Z</Time>
            <Position>
              <LatitudeDegrees>43.17006750963628292083740234375</LatitudeDegrees>
              <LongitudeDegrees>-8.31932815723121166229248046875</LongitudeDegrees>
            </Position>
            <AltitudeMeters>360.20001220703125</AltitudeMeters>
            <DistanceMeters>34632.256171381</DistanceMeters>
          </Trackpoint>
          <Trackpoint>
            <Time>2018-04-21T10:12:55.000Z</Time>
            <Position>
              <LatitudeDegrees>43.17001604475080966949462890625</LatitudeDegrees>
              <LongitudeDegrees>-8.3193636126816272735595703125</LongitudeDegrees>
            </Position>
            <AltitudeMeters>360.399993896484375</AltitudeMeters>
            <DistanceMeters>34638.666778053</DistanceMeters>
          </Trackpoint>
          <Trackpoint>
            <Time>2018-04-21T10:12:58.000Z</Time>
            <Position>
              <LatitudeDegrees>43.1699199043214321136474609375</LatitudeDegrees>
              <LongitudeDegrees>-8.31957441754639148712158203125</LongitudeDegrees>
            </Position>
            <AltitudeMeters>360.79998779296875</AltitudeMeters>
            <DistanceMeters>34658.849387357</DistanceMeters>
          </Trackpoint>
          <Trackpoint>
            <Time>2018-04-21T10:12:59.000Z</Time>
            <Position>
              <LatitudeDegrees>43.1698944233357906341552734375</LatitudeDegrees>
              <LongitudeDegrees>-8.31965890713036060333251953125</LongitudeDegrees>
            </Position>
            <AltitudeMeters>360.79998779296875</AltitudeMeters>
            <DistanceMeters>34666.271211008</DistanceMeters>
          </Trackpoint>
          <Trackpoint>
            <Time>2018-04-21T10:13:02.000Z</Time>
            <Position>
              <LatitudeDegrees>43.16982946358621120452880859375</LatitudeDegrees>
              <LongitudeDegrees>-8.31993433646857738494873046875</LongitudeDegrees>
            </Position>
            <AltitudeMeters>360</AltitudeMeters>
            <DistanceMeters>34689.769148242</DistanceMeters>
          </Trackpoint>
          <Trackpoint>
            <Time>2018-04-21T10:13:04.000Z</Time>
            <Position>
              <LatitudeDegrees>43.169799037277698516845703125</LatitudeDegrees>
              <LongitudeDegrees>-8.320134915411472320556640625</LongitudeDegrees>
            </Position>
            <AltitudeMeters>359.399993896484375</AltitudeMeters>
            <DistanceMeters>34706.399909241</DistanceMeters>
          </Trackpoint>
          <Trackpoint>
            <Time>2018-04-21T10:13:05.000Z</Time>
            <Position>
              <LatitudeDegrees>43.1697881408035755157470703125</LatitudeDegrees>
              <LongitudeDegrees>-8.32023591734468936920166015625</LongitudeDegrees>
            </Position>
            <AltitudeMeters>359.20001220703125</AltitudeMeters>
            <DistanceMeters>34714.688505116</DistanceMeters>
          </Trackpoint>
          <Trackpoint>
            <Time>2018-04-21T10:13:08.000Z</Time>
            <Position>
              <LatitudeDegrees>43.1697589717805385589599609375</LatitudeDegrees>
              <LongitudeDegrees>-8.32053146325051784515380859375</LongitudeDegrees>
            </Position>
            <AltitudeMeters>358.600006103515625</AltitudeMeters>
            <DistanceMeters>34738.898507219</DistanceMeters>
          </Trackpoint>
          <Trackpoint>
            <Time>2018-04-21T10:13:09.000Z</Time>
            <Position>
              <LatitudeDegrees>43.169726617634296417236328125</LatitudeDegrees>
              <LongitudeDegrees>-8.3206071518361568450927734375</LongitudeDegrees>
            </Position>
            <AltitudeMeters>359</AltitudeMeters>
            <DistanceMeters>34746.019806911</DistanceMeters>
          </Trackpoint>
          <Trackpoint>
            <Time>2018-04-21T10:13:12.000Z</Time>
            <Position>
              <LatitudeDegrees>43.1695854663848876953125</LatitudeDegrees>
              <LongitudeDegrees>-8.32064621150493621826171875</LongitudeDegrees>
            </Position>
            <AltitudeMeters>358.399993896484375</AltitudeMeters>
            <DistanceMeters>34762.046957454</DistanceMeters>
          </Trackpoint>
          <Trackpoint>
            <Time>2018-04-21T10:13:13.000Z</Time>
            <Position>
              <LatitudeDegrees>43.1695296429097652435302734375</LatitudeDegrees>
              <LongitudeDegrees>-8.320568762719631195068359375</LongitudeDegrees>
            </Position>
            <AltitudeMeters>356.79998779296875</AltitudeMeters>
            <DistanceMeters>34770.885974447</DistanceMeters>
          </Trackpoint>
          <Trackpoint>
            <Time>2018-04-21T10:13:14.000Z</Time>
            <Position>
              <LatitudeDegrees>43.169503323733806610107421875</LatitudeDegrees>
              <LongitudeDegrees>-8.32048251293599605560302734375</LongitudeDegrees>
            </Position>
            <AltitudeMeters>355.20001220703125</AltitudeMeters>
            <DistanceMeters>34778.475034175</DistanceMeters>
          </Trackpoint>
          <Trackpoint>
            <Time>2018-04-21T10:13:15.000Z</Time>
            <Position>
              <LatitudeDegrees>43.169506005942821502685546875</LatitudeDegrees>
              <LongitudeDegrees>-8.32038645632565021514892578125</LongitudeDegrees>
            </Position>
            <AltitudeMeters>354</AltitudeMeters>
            <DistanceMeters>34786.27822618</DistanceMeters>
          </Trackpoint>
          <Trackpoint>
            <Time>2018-04-21T10:13:16.000Z</Time>
            <Position>
              <LatitudeDegrees>43.16952310502529144287109375</LatitudeDegrees>
              <LongitudeDegrees>-8.3202933333814144134521484375</LongitudeDegrees>
            </Position>
            <AltitudeMeters>353.600006103515625</AltitudeMeters>
            <DistanceMeters>34794.07389257</DistanceMeters>
          </Trackpoint>
          <Trackpoint>
            <Time>2018-04-21T10:13:17.000Z</Time>
            <Position>
              <LatitudeDegrees>43.1695492565631866455078125</LatitudeDegrees>
              <LongitudeDegrees>-8.32020021043717861175537109375</LongitudeDegrees>
            </Position>
            <AltitudeMeters>352.399993896484375</AltitudeMeters>
            <DistanceMeters>34802.174606459</DistanceMeters>
          </Trackpoint>
          <Trackpoint>
            <Time>2018-04-21T10:13:18.000Z</Time>
            <Position>
              <LatitudeDegrees>43.1695799343287944793701171875</LatitudeDegrees>
              <LongitudeDegrees>-8.32010029815137386322021484375</LongitudeDegrees>
            </Position>
            <AltitudeMeters>351.600006103515625</AltitudeMeters>
            <DistanceMeters>34810.974716435</DistanceMeters>
          </Trackpoint>
          <Trackpoint>
            <Time>2018-04-21T10:13:19.000Z</Time>
            <Position>
              <LatitudeDegrees>43.16960566677153110504150390625</LatitudeDegrees>
              <LongitudeDegrees>-8.3199966140091419219970703125</LongitudeDegrees>
            </Position>
            <AltitudeMeters>351.20001220703125</AltitudeMeters>
            <DistanceMeters>34819.865175316</DistanceMeters>
          </Trackpoint>
          <Trackpoint>
            <Time>2018-04-21T10:13:20.000Z</Time>
            <Position>
              <LatitudeDegrees>43.16960985772311687469482421875</LatitudeDegrees>
              <LongitudeDegrees>-8.3199050836265087127685546875</LongitudeDegrees>
            </Position>
            <AltitudeMeters>350.600006103515625</AltitudeMeters>
            <DistanceMeters>34827.309473747</DistanceMeters>
          </Trackpoint>
          <Trackpoint>
            <Time>2018-04-21T10:13:21.000Z</Time>
            <Position>
              <LatitudeDegrees>43.169586472213268280029296875</LatitudeDegrees>
              <LongitudeDegrees>-8.3198272995650768280029296875</LongitudeDegrees>
            </Position>
            <AltitudeMeters>350</AltitudeMeters>
            <DistanceMeters>34834.138847425</DistanceMeters>
          </Trackpoint>
          <Trackpoint>
            <Time>2018-04-21T10:13:22.000Z</Time>
            <Position>
              <LatitudeDegrees>43.16954129375517368316650390625</LatitudeDegrees>
              <LongitudeDegrees>-8.3197632618248462677001953125</LongitudeDegrees>
            </Position>
            <AltitudeMeters>349.20001220703125</AltitudeMeters>
            <DistanceMeters>34841.370873612</DistanceMeters>
          </Trackpoint>
          <Trackpoint>
            <Time>2018-04-21T10:13:23.000Z</Time>
            <Position>
              <LatitudeDegrees>43.16948094405233860015869140625</LatitudeDegrees>
              <LongitudeDegrees>-8.31970970146358013153076171875</LongitudeDegrees>
            </Position>
            <AltitudeMeters>348.399993896484375</AltitudeMeters>
            <DistanceMeters>34849.372890362</DistanceMeters>
          </Trackpoint>
          <Trackpoint>
            <Time>2018-04-21T10:13:24.000Z</Time>
            <Position>
              <LatitudeDegrees>43.16941858269274234771728515625</LatitudeDegrees>
              <LongitudeDegrees>-8.31965555436909198760986328125</LongitudeDegrees>
            </Position>
            <AltitudeMeters>348</AltitudeMeters>
            <DistanceMeters>34857.588717856</DistanceMeters>
          </Trackpoint>
          <Trackpoint>
            <Time>2018-04-21T10:13:25.000Z</Time>
            <Position>
              <LatitudeDegrees>43.1693539582192897796630859375</LatitudeDegrees>
              <LongitudeDegrees>-8.3195996470749378204345703125</LongitudeDegrees>
            </Position>
            <AltitudeMeters>347.600006103515625</AltitudeMeters>
            <DistanceMeters>34866.093476072</DistanceMeters>
          </Trackpoint>
          <Trackpoint>
            <Time>2018-04-21T10:13:26.000Z</Time>
            <Position>
              <LatitudeDegrees>43.169289417564868927001953125</LatitudeDegrees>
              <LongitudeDegrees>-8.31954273395240306854248046875</LongitudeDegrees>
            </Position>
            <AltitudeMeters>347.399993896484375</AltitudeMeters>
            <DistanceMeters>34874.634786721</DistanceMeters>
          </Trackpoint>
          <Trackpoint>
            <Time>2018-04-21T10:13:30.000Z</Time>
            <Position>
              <LatitudeDegrees>43.1690176762640476226806640625</LatitudeDegrees>
              <LongitudeDegrees>-8.31931591965258121490478515625</LongitudeDegrees>
            </Position>
            <AltitudeMeters>346.600006103515625</AltitudeMeters>
            <DistanceMeters>34910.043683822</DistanceMeters>
          </Trackpoint>
          <Trackpoint>
            <Time>2018-04-21T10:13:32.000Z</Time>
            <Position>
              <LatitudeDegrees>43.16887459717690944671630859375</LatitudeDegrees>
              <LongitudeDegrees>-8.31918935291469097137451171875</LongitudeDegrees>
            </Position>
            <AltitudeMeters>345.399993896484375</AltitudeMeters>
            <DistanceMeters>34928.99526055</DistanceMeters>
          </Trackpoint>
          <Trackpoint>
            <Time>2018-04-21T10:13:33.000Z</Time>
            <Position>
              <LatitudeDegrees>43.1688061170279979705810546875</LatitudeDegrees>
              <LongitudeDegrees>-8.31911777146160602569580078125</LongitudeDegrees>
            </Position>
            <AltitudeMeters>343.79998779296875</AltitudeMeters>
            <DistanceMeters>34938.579306543</DistanceMeters>
          </Trackpoint>
          <Trackpoint>
            <Time>2018-04-21T10:13:34.000Z</Time>
            <Position>
              <LatitudeDegrees>43.1687450967729091644287109375</LatitudeDegrees>
              <LongitudeDegrees>-8.319050632417201995849609375</LongitudeDegrees>
            </Position>
            <AltitudeMeters>342.79998779296875</AltitudeMeters>
            <DistanceMeters>34947.287611887</DistanceMeters>
          </Trackpoint>
          <Trackpoint>
            <Time>2018-04-21T10:13:35.000Z</Time>
            <Position>
              <LatitudeDegrees>43.168693296611309051513671875</LatitudeDegrees>
              <LongitudeDegrees>-8.31899464130401611328125</LongitudeDegrees>
            </Position>
            <AltitudeMeters>341.399993896484375</AltitudeMeters>
            <DistanceMeters>34954.628694656</DistanceMeters>
          </Trackpoint>
          <Trackpoint>
            <Time>2018-04-21T10:13:36.000Z</Time>
            <Position>
              <LatitudeDegrees>43.16865230910480022430419921875</LatitudeDegrees>
              <LongitudeDegrees>-8.31892666406929492950439453125</LongitudeDegrees>
            </Position>
            <AltitudeMeters>340.79998779296875</AltitudeMeters>
            <DistanceMeters>34961.787934413</DistanceMeters>
          </Trackpoint>
          <Trackpoint>
            <Time>2018-04-21T10:13:40.000Z</Time>
            <Position>
              <LatitudeDegrees>43.1685489602386951446533203125</LatitudeDegrees>
              <LongitudeDegrees>-8.31861167214810848236083984375</LongitudeDegrees>
            </Position>
            <AltitudeMeters>341.20001220703125</AltitudeMeters>
            <DistanceMeters>34989.826451763</DistanceMeters>
          </Trackpoint>
          <Trackpoint>
            <Time>2018-04-21T10:13:42.000Z</Time>
            <Position>
              <LatitudeDegrees>43.16852775402367115020751953125</LatitudeDegrees>
              <LongitudeDegrees>-8.31845057196915149688720703125</LongitudeDegrees>
            </Position>
            <AltitudeMeters>341.600006103515625</AltitudeMeters>
            <DistanceMeters>35003.115590374</DistanceMeters>
          </Trackpoint>
          <Trackpoint>
            <Time>2018-04-21T10:13:43.000Z</Time>
            <Position>
              <LatitudeDegrees>43.16851434297859668731689453125</LatitudeDegrees>
              <LongitudeDegrees>-8.31837178207933902740478515625</LongitudeDegrees>
            </Position>
            <AltitudeMeters>342</AltitudeMeters>
            <DistanceMeters>35009.683442015</DistanceMeters>
          </Trackpoint>
          <Trackpoint>
            <Time>2018-04-21T10:13:46.000Z</Time>
            <Position>
              <LatitudeDegrees>43.168482072651386260986328125</LatitudeDegrees>
              <LongitudeDegrees>-8.3181349933147430419921875</LongitudeDegrees>
            </Position>
            <AltitudeMeters>342.20001220703125</AltitudeMeters>
            <DistanceMeters>35029.238175894</DistanceMeters>
          </Trackpoint>
          <Trackpoint>
            <Time>2018-04-21T10:13:47.000Z</Time>
            <Position>
              <LatitudeDegrees>43.16847209818661212921142578125</LatitudeDegrees>
              <LongitudeDegrees>-8.31805679015815258026123046875</LongitudeDegrees>
            </Position>
            <AltitudeMeters>342.399993896484375</AltitudeMeters>
            <DistanceMeters>35035.683201235</DistanceMeters>
          </Trackpoint>
          <Trackpoint>
            <Time>2018-04-21T10:13:50.000Z</Time>
            <Position>
              <LatitudeDegrees>43.16845131106674671173095703125</LatitudeDegrees>
              <LongitudeDegrees>-8.317836262285709381103515625</LongitudeDegrees>
            </Position>
            <AltitudeMeters>342.79998779296875</AltitudeMeters>
            <DistanceMeters>35053.733775139</DistanceMeters>
          </Trackpoint>
          <Trackpoint>
            <Time>2018-04-21T10:13:51.000Z</Time>
            <Position>
              <LatitudeDegrees>43.168442510068416595458984375</LatitudeDegrees>
              <LongitudeDegrees>-8.31776493228971958160400390625</LongitudeDegrees>
            </Position>
            <AltitudeMeters>343.20001220703125</AltitudeMeters>
            <DistanceMeters>35059.607010364</DistanceMeters>
          </Trackpoint>
          <Trackpoint>
            <Time>2018-04-21T10:13:52.000Z</Time>
            <Position>
              <LatitudeDegrees>43.1684329546988010406494140625</LatitudeDegrees>
              <LongitudeDegrees>-8.31769703887403011322021484375</LongitudeDegrees>
            </Position>
            <AltitudeMeters>343.399993896484375</AltitudeMeters>
            <DistanceMeters>35065.220829634</DistanceMeters>
          </Trackpoint>
          <Trackpoint>
            <Time>2018-04-21T10:13:54.000Z</Time>
            <Position>
              <LatitudeDegrees>43.1684185378253459930419921875</LatitudeDegrees>
              <LongitudeDegrees>-8.31756703555583953857421875</LongitudeDegrees>
            </Position>
            <AltitudeMeters>344.20001220703125</AltitudeMeters>
            <DistanceMeters>35075.895591207</DistanceMeters>
          </Trackpoint>
          <Trackpoint>
            <Time>2018-04-21T10:13:55.000Z</Time>
            <Position>
              <LatitudeDegrees>43.1684068031609058380126953125</LatitudeDegrees>
              <LongitudeDegrees>-8.317504338920116424560546875</LongitudeDegrees>
            </Position>
            <AltitudeMeters>344.600006103515625</AltitudeMeters>
            <DistanceMeters>35081.150491184</DistanceMeters>
          </Trackpoint>
          <Trackpoint>
            <Time>2018-04-21T10:13:57.000Z</Time>
            <Position>
              <LatitudeDegrees>43.16837101243436336517333984375</LatitudeDegrees>
              <LongitudeDegrees>-8.3173764310777187347412109375</LongitudeDegrees>
            </Position>
            <AltitudeMeters>345</AltitudeMeters>
            <DistanceMeters>35092.271459081</DistanceMeters>
          </Trackpoint>
          <Trackpoint>
            <Time>2018-04-21T10:13:58.000Z</Time>
            <Position>
              <LatitudeDegrees>43.168345950543880462646484375</LatitudeDegrees>
              <LongitudeDegrees>-8.317315913736820220947265625</LongitudeDegrees>
            </Position>
            <AltitudeMeters>345.600006103515625</AltitudeMeters>
            <DistanceMeters>35097.920555483</DistanceMeters>
          </Trackpoint>
          <Trackpoint>
            <Time>2018-04-21T10:14:01.000Z</Time>
            <Position>
              <LatitudeDegrees>43.168226592242717742919921875</LatitudeDegrees>
              <LongitudeDegrees>-8.31714383326470851898193359375</LongitudeDegrees>
            </Position>
            <AltitudeMeters>345.399993896484375</AltitudeMeters>
            <DistanceMeters>35117.198101124</DistanceMeters>
          </Trackpoint>
          <Trackpoint>
            <Time>2018-04-21T10:14:02.000Z</Time>
            <Position>
              <LatitudeDegrees>43.1681774742901325225830078125</LatitudeDegrees>
              <LongitudeDegrees>-8.3170880936086177825927734375</LongitudeDegrees>
            </Position>
            <AltitudeMeters>345</AltitudeMeters>
            <DistanceMeters>35124.293994743</DistanceMeters>
          </Trackpoint>
          <Trackpoint>
            <Time>2018-04-21T10:14:03.000Z</Time>
            <Position>
              <LatitudeDegrees>43.16813774406909942626953125</LatitudeDegrees>
              <LongitudeDegrees>-8.3170438371598720550537109375</LongitudeDegrees>
            </Position>
            <AltitudeMeters>344.20001220703125</AltitudeMeters>
            <DistanceMeters>35129.990844288</DistanceMeters>
          </Trackpoint>
          <Trackpoint>
            <Time>2018-04-21T10:14:05.000Z</Time>
            <Position>
              <LatitudeDegrees>43.16811494529247283935546875</LatitudeDegrees>
              <LongitudeDegrees>-8.316996395587921142578125</LongitudeDegrees>
            </Position>
            <AltitudeMeters>343.20001220703125</AltitudeMeters>
            <DistanceMeters>35134.603312186</DistanceMeters>
          </Trackpoint>
          <Trackpoint>
            <Time>2018-04-21T10:14:09.000Z</Time>
            <Position>
              <LatitudeDegrees>43.168139420449733734130859375</LatitudeDegrees>
              <LongitudeDegrees>-8.3170057833194732666015625</LongitudeDegrees>
            </Position>
            <AltitudeMeters>342.600006103515625</AltitudeMeters>
            <DistanceMeters>35137.430257118</DistanceMeters>
          </Trackpoint>
          <Trackpoint>
            <Time>2018-04-21T10:14:10.000Z</Time>
            <Position>
              <LatitudeDegrees>43.16815090365707874298095703125</LatitudeDegrees>
              <LongitudeDegrees>-8.3170186914503574371337890625</LongitudeDegrees>
            </Position>
            <AltitudeMeters>342.79998779296875</AltitudeMeters>
            <DistanceMeters>35139.081645348</DistanceMeters>
          </Trackpoint>
          <Trackpoint>
            <Time>2018-04-21T10:14:14.000Z</Time>
            <Position>
              <LatitudeDegrees>43.16824360750615596771240234375</LatitudeDegrees>
              <LongitudeDegrees>-8.31713385879993438720703125</LongitudeDegrees>
            </Position>
            <AltitudeMeters>343.600006103515625</AltitudeMeters>
            <DistanceMeters>35153.005248013</DistanceMeters>
          </Trackpoint>
          <Trackpoint>
            <Time>2018-04-21T10:14:19.000Z</Time>
            <Position>
              <LatitudeDegrees>43.168362714350223541259765625</LatitudeDegrees>
              <LongitudeDegrees>-8.3172825537621974945068359375</LongitudeDegrees>
            </Position>
            <AltitudeMeters>344.399993896484375</AltitudeMeters>
            <DistanceMeters>35170.934348974</DistanceMeters>
          </Trackpoint>
          <Trackpoint>
            <Time>2018-04-21T10:14:22.000Z</Time>
            <Position>
              <LatitudeDegrees>43.1684242375195026397705078125</LatitudeDegrees>
              <LongitudeDegrees>-8.31737986765801906585693359375</LongitudeDegrees>
            </Position>
            <AltitudeMeters>345.20001220703125</AltitudeMeters>
            <DistanceMeters>35181.38901517</DistanceMeters>
          </Trackpoint>
          <Trackpoint>
            <Time>2018-04-21T10:14:27.000Z</Time>
            <Position>
              <LatitudeDegrees>43.1685885228216648101806640625</LatitudeDegrees>
              <LongitudeDegrees>-8.31750995479524135589599609375</LongitudeDegrees>
            </Position>
            <AltitudeMeters>345.399993896484375</AltitudeMeters>
            <DistanceMeters>35202.5046268</DistanceMeters>
          </Trackpoint>
          <Trackpoint>
            <Time>2018-04-21T10:14:28.000Z</Time>
            <Position>
              <LatitudeDegrees>43.168618194758892059326171875</LatitudeDegrees>
              <LongitudeDegrees>-8.31754214130342006683349609375</LongitudeDegrees>
            </Position>
            <AltitudeMeters>345.600006103515625</AltitudeMeters>
            <DistanceMeters>35206.715929465</DistanceMeters>
          </Trackpoint>
          <Trackpoint>
            <Time>2018-04-21T10:14:34.000Z</Time>
            <Position>
              <LatitudeDegrees>43.16879228688776493072509765625</LatitudeDegrees>
              <LongitudeDegrees>-8.3177298121154308319091796875</LongitudeDegrees>
            </Position>
            <AltitudeMeters>346.600006103515625</AltitudeMeters>
            <DistanceMeters>35231.364327854</DistanceMeters>
          </Trackpoint>
          <Trackpoint>
            <Time>2018-04-21T10:14:38.000Z</Time>
            <Position>
              <LatitudeDegrees>43.1689080409705638885498046875</LatitudeDegrees>
              <LongitudeDegrees>-8.31785964779555797576904296875</LongitudeDegrees>
            </Position>
            <AltitudeMeters>347.20001220703125</AltitudeMeters>
            <DistanceMeters>35248.009742704</DistanceMeters>
          </Trackpoint>
          <Trackpoint>
            <Time>2018-04-21T10:14:40.000Z</Time>
            <Position>
              <LatitudeDegrees>43.168958835303783416748046875</LatitudeDegrees>
              <LongitudeDegrees>-8.31792368553578853607177734375</LongitudeDegrees>
            </Position>
            <AltitudeMeters>347.79998779296875</AltitudeMeters>
            <DistanceMeters>35255.689876774</DistanceMeters>
          </Trackpoint>
          <Trackpoint>
            <Time>2018-04-21T10:14:42.000Z</Time>
            <Position>
              <LatitudeDegrees>43.16899730823934078216552734375</LatitudeDegrees>
              <LongitudeDegrees>-8.31800063140690326690673828125</LongitudeDegrees>
            </Position>
            <AltitudeMeters>348.600006103515625</AltitudeMeters>
            <DistanceMeters>35263.262856075</DistanceMeters>
          </Trackpoint>
          <Trackpoint>
            <Time>2018-04-21T10:14:43.000Z</Time>
            <Position>
              <LatitudeDegrees>43.1690103001892566680908203125</LatitudeDegrees>
              <LongitudeDegrees>-8.3180419541895389556884765625</LongitudeDegrees>
            </Position>
            <AltitudeMeters>348.79998779296875</AltitudeMeters>
            <DistanceMeters>35266.914899737</DistanceMeters>
          </Trackpoint>
          <Trackpoint>
            <Time>2018-04-21T10:14:48.000Z</Time>
            <Position>
              <LatitudeDegrees>43.169060759246349334716796875</LatitudeDegrees>
              <LongitudeDegrees>-8.31824831664562225341796875</LongitudeDegrees>
            </Position>
            <AltitudeMeters>350</AltitudeMeters>
            <DistanceMeters>35284.583225709</DistanceMeters>
          </Trackpoint>
          <Trackpoint>
            <Time>2018-04-21T10:14:50.000Z</Time>
            <Position>
              <LatitudeDegrees>43.1690704822540283203125</LatitudeDegrees>
              <LongitudeDegrees>-8.3183239214122295379638671875</LongitudeDegrees>
            </Position>
            <AltitudeMeters>350.600006103515625</AltitudeMeters>
            <DistanceMeters>35290.815268616</DistanceMeters>
          </Trackpoint>
          <Trackpoint>
            <Time>2018-04-21T10:14:52.000Z</Time>
            <Position>
              <LatitudeDegrees>43.16907509230077266693115234375</LatitudeDegrees>
              <LongitudeDegrees>-8.31839877180755138397216796875</LongitudeDegrees>
            </Position>
            <AltitudeMeters>351</AltitudeMeters>
            <DistanceMeters>35296.913289179</DistanceMeters>
          </Trackpoint>
          <Trackpoint>
            <Time>2018-04-21T10:14:58.000Z</Time>
            <Position>
              <LatitudeDegrees>43.1690879166126251220703125</LatitudeDegrees>
              <LongitudeDegrees>-8.31861267797648906707763671875</LongitudeDegrees>
            </Position>
            <AltitudeMeters>352.20001220703125</AltitudeMeters>
            <DistanceMeters>35314.336120457</DistanceMeters>
          </Trackpoint>
          <Trackpoint>
            <Time>2018-04-21T10:15:04.000Z</Time>
            <Position>
              <LatitudeDegrees>43.16916444338858127593994140625</LatitudeDegrees>
              <LongitudeDegrees>-8.31880345009267330169677734375</LongitudeDegrees>
            </Position>
            <AltitudeMeters>353.399993896484375</AltitudeMeters>
            <DistanceMeters>35332.010067508</DistanceMeters>
          </Trackpoint>
          <Trackpoint>
            <Time>2018-04-21T10:15:07.000Z</Time>
            <Position>
              <LatitudeDegrees>43.169232420623302459716796875</LatitudeDegrees>
              <LongitudeDegrees>-8.31881836988031864166259765625</LongitudeDegrees>
            </Position>
            <AltitudeMeters>354.399993896484375</AltitudeMeters>
            <DistanceMeters>35339.67136615</DistanceMeters>
          </Trackpoint>
          <Trackpoint>
            <Time>2018-04-21T10:15:08.000Z</Time>
            <Position>
              <LatitudeDegrees>43.16925513558089733123779296875</LatitudeDegrees>
              <LongitudeDegrees>-8.31881300546228885650634765625</LongitudeDegrees>
            </Position>
            <AltitudeMeters>354.600006103515625</AltitudeMeters>
            <DistanceMeters>35342.237087438</DistanceMeters>
          </Trackpoint>
          <Trackpoint>
            <Time>2018-04-21T10:15:12.000Z</Time>
            <Position>
              <LatitudeDegrees>43.16933359019458293914794921875</LatitudeDegrees>
              <LongitudeDegrees>-8.31872667185962200164794921875</LongitudeDegrees>
            </Position>
            <AltitudeMeters>355.399993896484375</AltitudeMeters>
            <DistanceMeters>35353.433315428</DistanceMeters>
          </Trackpoint>
          <Trackpoint>
            <Time>2018-04-21T10:15:13.000Z</Time>
            <Position>
              <LatitudeDegrees>43.16934783942997455596923828125</LatitudeDegrees>
              <LongitudeDegrees>-8.31869264133274555206298828125</LongitudeDegrees>
            </Position>
            <AltitudeMeters>355.600006103515625</AltitudeMeters>
            <DistanceMeters>35356.617773914</DistanceMeters>
          </Trackpoint>
          <Trackpoint>
            <Time>2018-04-21T10:15:19.000Z</Time>
            <Position>
              <LatitudeDegrees>43.1694588996469974517822265625</LatitudeDegrees>
              <LongitudeDegrees>-8.31847689114511013031005859375</LongitudeDegrees>
            </Position>
            <AltitudeMeters>355.600006103515625</AltitudeMeters>
            <DistanceMeters>35378.054250538</DistanceMeters>
          </Trackpoint>
          <Trackpoint>
            <Time>2018-04-21T10:15:23.000Z</Time>
            <Position>
              <LatitudeDegrees>43.16957063041627407073974609375</LatitudeDegrees>
              <LongitudeDegrees>-8.31827136687934398651123046875</LongitudeDegrees>
            </Position>
            <AltitudeMeters>354.600006103515625</AltitudeMeters>
            <DistanceMeters>35398.862714333</DistanceMeters>
          </Trackpoint>
          <Trackpoint>
            <Time>2018-04-21T10:15:24.000Z</Time>
            <Position>
              <LatitudeDegrees>43.16960491240024566650390625</LatitudeDegrees>
              <LongitudeDegrees>-8.3182092569768428802490234375</LongitudeDegrees>
            </Position>
            <AltitudeMeters>354</AltitudeMeters>
            <DistanceMeters>35405.185383739</DistanceMeters>
          </Trackpoint>
          <Trackpoint>
            <Time>2018-04-21T10:15:25.000Z</Time>
            <Position>
              <LatitudeDegrees>43.1696466542780399322509765625</LatitudeDegrees>
              <LongitudeDegrees>-8.3181495778262615203857421875</LongitudeDegrees>
            </Position>
            <AltitudeMeters>353.600006103515625</AltitudeMeters>
            <DistanceMeters>35411.897391738</DistanceMeters>
          </Trackpoint>
          <Trackpoint>
            <Time>2018-04-21T10:15:27.000Z</Time>
            <Position>
              <LatitudeDegrees>43.16973030567169189453125</LatitudeDegrees>
              <LongitudeDegrees>-8.31800146959722042083740234375</LongitudeDegrees>
            </Position>
            <AltitudeMeters>352.79998779296875</AltitudeMeters>
            <DistanceMeters>35427.104041519</DistanceMeters>
          </Trackpoint>
          <Trackpoint>
            <Time>2018-04-21T10:15:28.000Z</Time>
            <Position>
              <LatitudeDegrees>43.1697743944823741912841796875</LatitudeDegrees>
              <LongitudeDegrees>-8.317919075489044189453125</LongitudeDegrees>
            </Position>
            <AltitudeMeters>352.399993896484375</AltitudeMeters>
            <DistanceMeters>35435.399171567</DistanceMeters>
          </Trackpoint>
          <Trackpoint>
            <Time>2018-04-21T10:15:30.000Z</Time>
            <Position>
              <LatitudeDegrees>43.1698716245591640472412109375</LatitudeDegrees>
              <LongitudeDegrees>-8.3177448995411396026611328125</LongitudeDegrees>
            </Position>
            <AltitudeMeters>351.600006103515625</AltitudeMeters>
            <DistanceMeters>35453.204449542</DistanceMeters>
          </Trackpoint>
          <Trackpoint>
            <Time>2018-04-21T10:15:31.000Z</Time>
            <Position>
              <LatitudeDegrees>43.1699225865304470062255859375</LatitudeDegrees>
              <LongitudeDegrees>-8.317657224833965301513671875</LongitudeDegrees>
            </Position>
            <AltitudeMeters>350.600006103515625</AltitudeMeters>
            <DistanceMeters>35462.305211112</DistanceMeters>
          </Trackpoint>
          <Trackpoint>
            <Time>2018-04-21T10:15:33.000Z</Time>
            <Position>
              <LatitudeDegrees>43.17001772113144397735595703125</LatitudeDegrees>
              <LongitudeDegrees>-8.31748480908572673797607421875</LongitudeDegrees>
            </Position>
            <AltitudeMeters>349.20001220703125</AltitudeMeters>
            <DistanceMeters>35479.855335824</DistanceMeters>
          </Trackpoint>
          <Trackpoint>
            <Time>2018-04-21T10:15:34.000Z</Time>
            <Position>
              <LatitudeDegrees>43.17006683908402919769287109375</LatitudeDegrees>
              <LongitudeDegrees>-8.3174045942723751068115234375</LongitudeDegrees>
            </Position>
            <AltitudeMeters>349.399993896484375</AltitudeMeters>
            <DistanceMeters>35488.357439207</DistanceMeters>
          </Trackpoint>
          <Trackpoint>
            <Time>2018-04-21T10:15:37.000Z</Time>
            <Position>
              <LatitudeDegrees>43.17021779716014862060546875</LatitudeDegrees>
              <LongitudeDegrees>-8.31716068089008331298828125</LongitudeDegrees>
            </Position>
            <AltitudeMeters>348.20001220703125</AltitudeMeters>
            <DistanceMeters>35514.325651481</DistanceMeters>
          </Trackpoint>
          <Trackpoint>
            <Time>2018-04-21T10:15:39.000Z</Time>
            <Position>
              <LatitudeDegrees>43.170319385826587677001953125</LatitudeDegrees>
              <LongitudeDegrees>-8.31699295900762081146240234375</LongitudeDegrees>
            </Position>
            <AltitudeMeters>348</AltitudeMeters>
            <DistanceMeters>35532.023595755</DistanceMeters>
          </Trackpoint>
          <Trackpoint>
            <Time>2018-04-21T10:15:42.000Z</Time>
            <Position>
              <LatitudeDegrees>43.1704908795654773712158203125</LatitudeDegrees>
              <LongitudeDegrees>-8.3167176134884357452392578125</LongitudeDegrees>
            </Position>
            <AltitudeMeters>346.600006103515625</AltitudeMeters>
            <DistanceMeters>35561.416051309</DistanceMeters>
          </Trackpoint>
          <Trackpoint>
            <Time>2018-04-21T10:15:43.000Z</Time>
            <Position>
              <LatitudeDegrees>43.17054611630737781524658203125</LatitudeDegrees>
              <LongitudeDegrees>-8.31662633456289768218994140625</LongitudeDegrees>
            </Position>
            <AltitudeMeters>345.600006103515625</AltitudeMeters>
            <DistanceMeters>35571.044278808</DistanceMeters>
          </Trackpoint>
          <Trackpoint>
            <Time>2018-04-21T10:15:44.000Z</Time>
            <Position>
              <LatitudeDegrees>43.1705958209931850433349609375</LatitudeDegrees>
              <LongitudeDegrees>-8.31653849221765995025634765625</LongitudeDegrees>
            </Position>
            <AltitudeMeters>344.600006103515625</AltitudeMeters>
            <DistanceMeters>35580.070316126</DistanceMeters>
          </Trackpoint>
          <Trackpoint>
            <Time>2018-04-21T10:15:45.000Z</Time>
            <Position>
              <LatitudeDegrees>43.17064133472740650177001953125</LatitudeDegrees>
              <LongitudeDegrees>-8.316448219120502471923828125</LongitudeDegrees>
            </Position>
            <AltitudeMeters>342.600006103515625</AltitudeMeters>
            <DistanceMeters>35588.979038923</DistanceMeters>
          </Trackpoint>
          <Trackpoint>
            <Time>2018-04-21T10:15:46.000Z</Time>
            <Position>
              <LatitudeDegrees>43.17067419178783893585205078125</LatitudeDegrees>
              <LongitudeDegrees>-8.31633632071316242218017578125</LongitudeDegrees>
            </Position>
            <AltitudeMeters>342</AltitudeMeters>
            <DistanceMeters>35598.770941276</DistanceMeters>
          </Trackpoint>
          <Trackpoint>
            <Time>2018-04-21T10:15:47.000Z</Time>
            <Position>
              <LatitudeDegrees>43.17070193588733673095703125</LatitudeDegrees>
              <LongitudeDegrees>-8.316213525831699371337890625</LongitudeDegrees>
            </Position>
            <AltitudeMeters>341</AltitudeMeters>
            <DistanceMeters>35609.206587969</DistanceMeters>
          </Trackpoint>
          <Trackpoint>
            <Time>2018-04-21T10:15:48.000Z</Time>
            <Position>
              <LatitudeDegrees>43.17072875797748565673828125</LatitudeDegrees>
              <LongitudeDegrees>-8.31608712673187255859375</LongitudeDegrees>
            </Position>
            <AltitudeMeters>339.79998779296875</AltitudeMeters>
            <DistanceMeters>35619.891918407</DistanceMeters>
          </Trackpoint>
          <Trackpoint>
            <Time>2018-04-21T10:15:49.000Z</Time>
            <Position>
              <LatitudeDegrees>43.17075180821120738983154296875</LatitudeDegrees>
              <LongitudeDegrees>-8.31595678813755512237548828125</LongitudeDegrees>
            </Position>
            <AltitudeMeters>338</AltitudeMeters>
            <DistanceMeters>35630.77901092</DistanceMeters>
          </Trackpoint>
          <Trackpoint>
            <Time>2018-04-21T10:15:52.000Z</Time>
            <Position>
              <LatitudeDegrees>43.17084400914609432220458984375</LatitudeDegrees>
              <LongitudeDegrees>-8.3155766688287258148193359375</LongitudeDegrees>
            </Position>
            <AltitudeMeters>337</AltitudeMeters>
            <DistanceMeters>35663.296758251</DistanceMeters>
          </Trackpoint>
          <Trackpoint>
            <Time>2018-04-21T10:15:53.000Z</Time>
            <Position>
              <LatitudeDegrees>43.17087066359817981719970703125</LatitudeDegrees>
              <LongitudeDegrees>-8.31544683314859867095947265625</LongitudeDegrees>
            </Position>
            <AltitudeMeters>337</AltitudeMeters>
            <DistanceMeters>35674.245881269</DistanceMeters>
          </Trackpoint>
          <Trackpoint>
            <Time>2018-04-21T10:15:56.000Z</Time>
            <Position>
              <LatitudeDegrees>43.1709398142993450164794921875</LatitudeDegrees>
              <LongitudeDegrees>-8.31514189951121807098388671875</LongitudeDegrees>
            </Position>
            <AltitudeMeters>334.79998779296875</AltitudeMeters>
            <DistanceMeters>35700.167629248</DistanceMeters>
          </Trackpoint>
          <Trackpoint>
            <Time>2018-04-21T10:15:58.000Z</Time>
            <Position>
              <LatitudeDegrees>43.1709815561771392822265625</LatitudeDegrees>
              <LongitudeDegrees>-8.31500376574695110321044921875</LongitudeDegrees>
            </Position>
            <AltitudeMeters>333.20001220703125</AltitudeMeters>
            <DistanceMeters>35712.305037007</DistanceMeters>
          </Trackpoint>
          <Trackpoint>
            <Time>2018-04-21T10:16:00.000Z</Time>
            <Position>
              <LatitudeDegrees>43.1710231304168701171875</LatitudeDegrees>
              <LongitudeDegrees>-8.3148801326751708984375</LongitudeDegrees>
            </Position>
            <AltitudeMeters>332.20001220703125</AltitudeMeters>
            <DistanceMeters>35723.355953431</DistanceMeters>
          </Trackpoint>
          <Trackpoint>
            <Time>2018-04-21T10:16:01.000Z</Time>
            <Position>
              <LatitudeDegrees>43.1710467673838138580322265625</LatitudeDegrees>
              <LongitudeDegrees>-8.31484333612024784088134765625</LongitudeDegrees>
            </Position>
            <AltitudeMeters>332</AltitudeMeters>
            <DistanceMeters>35727.336880982</DistanceMeters>
          </Trackpoint>
          <Trackpoint>
            <Time>2018-04-21T10:16:04.000Z</Time>
            <Position>
              <LatitudeDegrees>43.17113636992871761322021484375</LatitudeDegrees>
              <LongitudeDegrees>-8.31477343104779720306396484375</LongitudeDegrees>
            </Position>
            <AltitudeMeters>331</AltitudeMeters>
            <DistanceMeters>35738.811135404</DistanceMeters>
          </Trackpoint>
          <Trackpoint>
            <Time>2018-04-21T10:16:09.000Z</Time>
            <Position>
              <LatitudeDegrees>43.17129671573638916015625</LatitudeDegrees>
              <LongitudeDegrees>-8.31466228701174259185791015625</LongitudeDegrees>
            </Position>
            <AltitudeMeters>331</AltitudeMeters>
            <DistanceMeters>35758.808784401</DistanceMeters>
          </Trackpoint>
          <Trackpoint>
            <Time>2018-04-21T10:16:10.000Z</Time>
            <Position>
              <LatitudeDegrees>43.17133166827261447906494140625</LatitudeDegrees>
              <LongitudeDegrees>-8.31464049406349658966064453125</LongitudeDegrees>
            </Position>
            <AltitudeMeters>330.79998779296875</AltitudeMeters>
            <DistanceMeters>35763.082874321</DistanceMeters>
          </Trackpoint>
          <Trackpoint>
            <Time>2018-04-21T10:16:15.000Z</Time>
            <Position>
              <LatitudeDegrees>43.17153752781450748443603515625</LatitudeDegrees>
              <LongitudeDegrees>-8.3144940622150897979736328125</LongitudeDegrees>
            </Position>
            <AltitudeMeters>330</AltitudeMeters>
            <DistanceMeters>35788.895180695</DistanceMeters>
          </Trackpoint>
          <Trackpoint>
            <Time>2018-04-21T10:16:16.000Z</Time>
            <Position>
              <LatitudeDegrees>43.17158664576709270477294921875</LatitudeDegrees>
              <LongitudeDegrees>-8.3144477941095829010009765625</LongitudeDegrees>
            </Position>
            <AltitudeMeters>329.79998779296875</AltitudeMeters>
            <DistanceMeters>35795.52801813</DistanceMeters>
          </Trackpoint>
          <Trackpoint>
            <Time>2018-04-21T10:16:18.000Z</Time>
            <Position>
              <LatitudeDegrees>43.17169778980314731597900390625</LatitudeDegrees>
              <LongitudeDegrees>-8.3143438585102558135986328125</LongitudeDegrees>
            </Position>
            <AltitudeMeters>328.399993896484375</AltitudeMeters>
            <DistanceMeters>35810.501888641</DistanceMeters>
          </Trackpoint>
          <Trackpoint>
            <Time>2018-04-21T10:16:20.000Z</Time>
            <Position>
              <LatitudeDegrees>43.171792924404144287109375</LatitudeDegrees>
              <LongitudeDegrees>-8.3142600394785404205322265625</LongitudeDegrees>
            </Position>
            <AltitudeMeters>326.600006103515625</AltitudeMeters>
            <DistanceMeters>35823.087817331</DistanceMeters>
          </Trackpoint>
          <Trackpoint>
            <Time>2018-04-21T10:16:21.000Z</Time>
            <Position>
              <LatitudeDegrees>43.17183659411966800689697265625</LatitudeDegrees>
              <LongitudeDegrees>-8.31423330120742321014404296875</LongitudeDegrees>
            </Position>
            <AltitudeMeters>325.600006103515625</AltitudeMeters>
            <DistanceMeters>35828.411009971</DistanceMeters>
          </Trackpoint>
          <Trackpoint>
            <Time>2018-04-21T10:16:23.000Z</Time>
            <Position>
              <LatitudeDegrees>43.1718846224248409271240234375</LatitudeDegrees>
              <LongitudeDegrees>-8.31419222988188266754150390625</LongitudeDegrees>
            </Position>
            <AltitudeMeters>323.79998779296875</AltitudeMeters>
            <DistanceMeters>35834.711503289</DistanceMeters>
          </Trackpoint>
          <Trackpoint>
            <Time>2018-04-21T10:16:24.000Z</Time>
            <Position>
              <LatitudeDegrees>43.17188302986323833465576171875</LatitudeDegrees>
              <LongitudeDegrees>-8.3141782321035861968994140625</LongitudeDegrees>
            </Position>
            <AltitudeMeters>323.600006103515625</AltitudeMeters>
            <DistanceMeters>35835.867553164</DistanceMeters>
          </Trackpoint>
          <Trackpoint>
            <Time>2018-04-21T10:16:25.000Z</Time>
            <Position>
              <LatitudeDegrees>43.17187448032200336456298828125</LatitudeDegrees>
              <LongitudeDegrees>-8.3141735382378101348876953125</LongitudeDegrees>
            </Position>
            <AltitudeMeters>323.20001220703125</AltitudeMeters>
            <DistanceMeters>35836.8910222</DistanceMeters>
          </Trackpoint>
          <Trackpoint>
            <Time>2018-04-21T10:16:27.000Z</Time>
            <Position>
              <LatitudeDegrees>43.1718470714986324310302734375</LatitudeDegrees>
              <LongitudeDegrees>-8.31416775472462177276611328125</LongitudeDegrees>
            </Position>
            <AltitudeMeters>323.20001220703125</AltitudeMeters>
            <DistanceMeters>35839.976099277</DistanceMeters>
          </Trackpoint>
          <Trackpoint>
            <Time>2018-04-21T10:16:28.000Z</Time>
            <Position>
              <LatitudeDegrees>43.17181639373302459716796875</LatitudeDegrees>
              <LongitudeDegrees>-8.3141661621630191802978515625</LongitudeDegrees>
            </Position>
            <AltitudeMeters>323</AltitudeMeters>
            <DistanceMeters>35843.393099254</DistanceMeters>
          </Trackpoint>
          <Trackpoint>
            <Time>2018-04-21T10:16:29.000Z</Time>
            <Position>
              <LatitudeDegrees>43.1717847101390361785888671875</LatitudeDegrees>
              <LongitudeDegrees>-8.314171023666858673095703125</LongitudeDegrees>
            </Position>
            <AltitudeMeters>322.79998779296875</AltitudeMeters>
            <DistanceMeters>35846.941046063</DistanceMeters>
          </Trackpoint>
          <Trackpoint>
            <Time>2018-04-21T10:16:33.000Z</Time>
            <Position>
              <LatitudeDegrees>43.17161522805690765380859375</LatitudeDegrees>
              <LongitudeDegrees>-8.31416892819106578826904296875</LongitudeDegrees>
            </Position>
            <AltitudeMeters>321.79998779296875</AltitudeMeters>
            <DistanceMeters>35865.805225147</DistanceMeters>
          </Trackpoint>
          <Trackpoint>
            <Time>2018-04-21T10:16:35.000Z</Time>
            <Position>
              <LatitudeDegrees>43.1715399585664272308349609375</LatitudeDegrees>
              <LongitudeDegrees>-8.3141202293336391448974609375</LongitudeDegrees>
            </Position>
            <AltitudeMeters>321.600006103515625</AltitudeMeters>
            <DistanceMeters>35875.069233271</DistanceMeters>
          </Trackpoint>
          <Trackpoint>
            <Time>2018-04-21T10:16:36.000Z</Time>
            <Position>
              <LatitudeDegrees>43.17151338793337345123291015625</LatitudeDegrees>
              <LongitudeDegrees>-8.31407614052295684814453125</LongitudeDegrees>
            </Position>
            <AltitudeMeters>320.20001220703125</AltitudeMeters>
            <DistanceMeters>35879.712919581</DistanceMeters>
          </Trackpoint>
          <Trackpoint>
            <Time>2018-04-21T10:16:37.000Z</Time>
            <Position>
              <LatitudeDegrees>43.17148522473871707916259765625</LatitudeDegrees>
              <LongitudeDegrees>-8.31401713192462921142578125</LongitudeDegrees>
            </Position>
            <AltitudeMeters>318.79998779296875</AltitudeMeters>
            <DistanceMeters>35885.438229834</DistanceMeters>
          </Trackpoint>
          <Trackpoint>
            <Time>2018-04-21T10:16:40.000Z</Time>
            <Position>
              <LatitudeDegrees>43.17138682119548320770263671875</LatitudeDegrees>
              <LongitudeDegrees>-8.31383482553064823150634765625</LongitudeDegrees>
            </Position>
            <AltitudeMeters>318.600006103515625</AltitudeMeters>
            <DistanceMeters>35903.849149949</DistanceMeters>
          </Trackpoint>
          <Trackpoint>
            <Time>2018-04-21T10:16:43.000Z</Time>
            <Position>
              <LatitudeDegrees>43.1712700612843036651611328125</LatitudeDegrees>
              <LongitudeDegrees>-8.313645310699939727783203125</LongitudeDegrees>
            </Position>
            <AltitudeMeters>317.79998779296875</AltitudeMeters>
            <DistanceMeters>35923.987191887</DistanceMeters>
          </Trackpoint>
          <Trackpoint>
            <Time>2018-04-21T10:16:46.000Z</Time>
            <Position>
              <LatitudeDegrees>43.171181716024875640869140625</LatitudeDegrees>
              <LongitudeDegrees>-8.3134355954825878143310546875</LongitudeDegrees>
            </Position>
            <AltitudeMeters>317.399993896484375</AltitudeMeters>
            <DistanceMeters>35943.646471421</DistanceMeters>
          </Trackpoint>
          <Trackpoint>
            <Time>2018-04-21T10:16:48.000Z</Time>
            <Position>
              <LatitudeDegrees>43.1711436621844768524169921875</LatitudeDegrees>
              <LongitudeDegrees>-8.3132914267480373382568359375</LongitudeDegrees>
            </Position>
            <AltitudeMeters>317.20001220703125</AltitudeMeters>
            <DistanceMeters>35956.092069086</DistanceMeters>
          </Trackpoint>
          <Trackpoint>
            <Time>2018-04-21T10:16:51.000Z</Time>
            <Position>
              <LatitudeDegrees>43.17112161777913570404052734375</LatitudeDegrees>
              <LongitudeDegrees>-8.31309445202350616455078125</LongitudeDegrees>
            </Position>
            <AltitudeMeters>316.399993896484375</AltitudeMeters>
            <DistanceMeters>35972.268396086</DistanceMeters>
          </Trackpoint>
          <Trackpoint>
            <Time>2018-04-21T10:16:56.000Z</Time>
            <Position>
              <LatitudeDegrees>43.1711138226091861724853515625</LatitudeDegrees>
              <LongitudeDegrees>-8.31279580481350421905517578125</LongitudeDegrees>
            </Position>
            <AltitudeMeters>316.600006103515625</AltitudeMeters>
            <DistanceMeters>35996.526466115</DistanceMeters>
          </Trackpoint>
          <Trackpoint>
            <Time>2018-04-21T10:16:57.000Z</Time>
            <Position>
              <LatitudeDegrees>43.17110535688698291778564453125</LatitudeDegrees>
              <LongitudeDegrees>-8.3127368800342082977294921875</LongitudeDegrees>
            </Position>
            <AltitudeMeters>317.79998779296875</AltitudeMeters>
            <DistanceMeters>36001.401623672</DistanceMeters>
          </Trackpoint>
          <Trackpoint>
            <Time>2018-04-21T10:17:00.000Z</Time>
            <Position>
              <LatitudeDegrees>43.171055652201175689697265625</LatitudeDegrees>
              <LongitudeDegrees>-8.31256597302854061126708984375</LongitudeDegrees>
            </Position>
            <AltitudeMeters>316.399993896484375</AltitudeMeters>
            <DistanceMeters>36016.33745336</DistanceMeters>
          </Trackpoint>
          <Trackpoint>
            <Time>2018-04-21T10:17:01.000Z</Time>
            <Position>
              <LatitudeDegrees>43.17103360779583454132080078125</LatitudeDegrees>
              <LongitudeDegrees>-8.3125023543834686279296875</LongitudeDegrees>
            </Position>
            <AltitudeMeters>317</AltitudeMeters>
            <DistanceMeters>36022.054872072</DistanceMeters>
          </Trackpoint>
          <Trackpoint>
            <Time>2018-04-21T10:17:02.000Z</Time>
            <Position>
              <LatitudeDegrees>43.171015083789825439453125</LatitudeDegrees>
              <LongitudeDegrees>-8.312439657747745513916015625</LongitudeDegrees>
            </Position>
            <AltitudeMeters>317.399993896484375</AltitudeMeters>
            <DistanceMeters>36027.546725613</DistanceMeters>
          </Trackpoint>
          <Trackpoint>
            <Time>2018-04-21T10:17:05.000Z</Time>
            <Position>
              <LatitudeDegrees>43.1709518842399120330810546875</LatitudeDegrees>
              <LongitudeDegrees>-8.31225751899182796478271484375</LongitudeDegrees>
            </Position>
            <AltitudeMeters>318</AltitudeMeters>
            <DistanceMeters>36043.919748529</DistanceMeters>
          </Trackpoint>
          <Trackpoint>
            <Time>2018-04-21T10:17:07.000Z</Time>
            <Position>
              <LatitudeDegrees>43.1709052808582782745361328125</LatitudeDegrees>
              <LongitudeDegrees>-8.31212894059717655181884765625</LongitudeDegrees>
            </Position>
            <AltitudeMeters>318.600006103515625</AltitudeMeters>
            <DistanceMeters>36055.575153714</DistanceMeters>
          </Trackpoint>
          <Trackpoint>
            <Time>2018-04-21T10:17:09.000Z</Time>
            <Position>
              <LatitudeDegrees>43.17085373215377330780029296875</LatitudeDegrees>
              <LongitudeDegrees>-8.31199298612773418426513671875</LongitudeDegrees>
            </Position>
            <AltitudeMeters>318.600006103515625</AltitudeMeters>
            <DistanceMeters>36068.013856612</DistanceMeters>
          </Trackpoint>
          <Trackpoint>
            <Time>2018-04-21T10:17:12.000Z</Time>
            <Position>
              <LatitudeDegrees>43.170792125165462493896484375</LatitudeDegrees>
              <LongitudeDegrees>-8.31176944077014923095703125</LongitudeDegrees>
            </Position>
            <AltitudeMeters>319.20001220703125</AltitudeMeters>
            <DistanceMeters>36087.412344841</DistanceMeters>
          </Trackpoint>
          <Trackpoint>
            <Time>2018-04-21T10:17:14.000Z</Time>
            <Position>
              <LatitudeDegrees>43.170786090195178985595703125</LatitudeDegrees>
              <LongitudeDegrees>-8.3116039820015430450439453125</LongitudeDegrees>
            </Position>
            <AltitudeMeters>318</AltitudeMeters>
            <DistanceMeters>36100.859884053</DistanceMeters>
          </Trackpoint>
          <Trackpoint>
            <Time>2018-04-21T10:17:15.000Z</Time>
            <Position>
              <LatitudeDegrees>43.170789442956447601318359375</LatitudeDegrees>
              <LongitudeDegrees>-8.31151253543794155120849609375</LongitudeDegrees>
            </Position>
            <AltitudeMeters>317.399993896484375</AltitudeMeters>
            <DistanceMeters>36108.292042394</DistanceMeters>
          </Trackpoint>
          <Trackpoint>
            <Time>2018-04-21T10:17:19.000Z</Time>
            <Position>
              <LatitudeDegrees>43.170823641121387481689453125</LatitudeDegrees>
              <LongitudeDegrees>-8.31113032065331935882568359375</LongitudeDegrees>
            </Position>
            <AltitudeMeters>316</AltitudeMeters>
            <DistanceMeters>36139.550920842</DistanceMeters>
          </Trackpoint>
          <Trackpoint>
            <Time>2018-04-21T10:17:20.000Z</Time>
            <Position>
              <LatitudeDegrees>43.1708348728716373443603515625</LatitudeDegrees>
              <LongitudeDegrees>-8.31103409640491008758544921875</LongitudeDegrees>
            </Position>
            <AltitudeMeters>316.600006103515625</AltitudeMeters>
            <DistanceMeters>36147.461002995</DistanceMeters>
          </Trackpoint>
          <Trackpoint>
            <Time>2018-04-21T10:17:26.000Z</Time>
            <Position>
              <LatitudeDegrees>43.1709082983434200286865234375</LatitudeDegrees>
              <LongitudeDegrees>-8.31048063933849334716796875</LongitudeDegrees>
            </Position>
            <AltitudeMeters>314.79998779296875</AltitudeMeters>
            <DistanceMeters>36193.124775311</DistanceMeters>
          </Trackpoint>
          <Trackpoint>
            <Time>2018-04-21T10:17:27.000Z</Time>
            <Position>
              <LatitudeDegrees>43.17092112265527248382568359375</LatitudeDegrees>
              <LongitudeDegrees>-8.31039086915552616119384765625</LongitudeDegrees>
            </Position>
            <AltitudeMeters>314.399993896484375</AltitudeMeters>
            <DistanceMeters>36200.550856164</DistanceMeters>
          </Trackpoint>
          <Trackpoint>
            <Time>2018-04-21T10:17:33.000Z</Time>
            <Position>
              <LatitudeDegrees>43.1709934584796428680419921875</LatitudeDegrees>
              <LongitudeDegrees>-8.3098769746720790863037109375</LongitudeDegrees>
            </Position>
            <AltitudeMeters>314.399993896484375</AltitudeMeters>
            <DistanceMeters>36243.035662505</DistanceMeters>
          </Trackpoint>
          <Trackpoint>
            <Time>2018-04-21T10:17:36.000Z</Time>
            <Position>
              <LatitudeDegrees>43.171028159558773040771484375</LatitudeDegrees>
              <LongitudeDegrees>-8.3096281997859477996826171875</LongitudeDegrees>
            </Position>
            <AltitudeMeters>314.399993896484375</AltitudeMeters>
            <DistanceMeters>36263.595719375</DistanceMeters>
          </Trackpoint>
          <Trackpoint>
            <Time>2018-04-21T10:17:41.000Z</Time>
            <Position>
              <LatitudeDegrees>43.1710913591086864471435546875</LatitudeDegrees>
              <LongitudeDegrees>-8.3092231862246990203857421875</LongitudeDegrees>
            </Position>
            <AltitudeMeters>314.20001220703125</AltitudeMeters>
            <DistanceMeters>36297.216380418</DistanceMeters>
          </Trackpoint>
          <Trackpoint>
            <Time>2018-04-21T10:17:45.000Z</Time>
            <Position>
              <LatitudeDegrees>43.1711371243000030517578125</LatitudeDegrees>
              <LongitudeDegrees>-8.30891800113022327423095703125</LongitudeDegrees>
            </Position>
            <AltitudeMeters>315</AltitudeMeters>
            <DistanceMeters>36322.507772135</DistanceMeters>
          </Trackpoint>
          <Trackpoint>
            <Time>2018-04-21T10:17:52.000Z</Time>
            <Position>
              <LatitudeDegrees>43.171198479831218719482421875</LatitudeDegrees>
              <LongitudeDegrees>-8.3084000833332538604736328125</LongitudeDegrees>
            </Position>
            <AltitudeMeters>316</AltitudeMeters>
            <DistanceMeters>36365.100310184</DistanceMeters>
          </Trackpoint>
          <Trackpoint>
            <Time>2018-04-21T10:17:55.000Z</Time>
            <Position>
              <LatitudeDegrees>43.17123225890100002288818359375</LatitudeDegrees>
              <LongitudeDegrees>-8.30817662179470062255859375</LongitudeDegrees>
            </Position>
            <AltitudeMeters>316.399993896484375</AltitudeMeters>
            <DistanceMeters>36383.625401956</DistanceMeters>
          </Trackpoint>
          <Trackpoint>
            <Time>2018-04-21T10:17:58.000Z</Time>
            <Position>
              <LatitudeDegrees>43.17126075737178325653076171875</LatitudeDegrees>
              <LongitudeDegrees>-8.30796078778803348541259765625</LongitudeDegrees>
            </Position>
            <AltitudeMeters>316.600006103515625</AltitudeMeters>
            <DistanceMeters>36401.430172768</DistanceMeters>
          </Trackpoint>
          <Trackpoint>
            <Time>2018-04-21T10:18:01.000Z</Time>
            <Position>
              <LatitudeDegrees>43.17129260860383510589599609375</LatitudeDegrees>
              <LongitudeDegrees>-8.30774076282978057861328125</LongitudeDegrees>
            </Position>
            <AltitudeMeters>317</AltitudeMeters>
            <DistanceMeters>36419.639136134</DistanceMeters>
          </Trackpoint>
          <Trackpoint>
            <Time>2018-04-21T10:18:02.000Z</Time>
            <Position>
              <LatitudeDegrees>43.1713029183447360992431640625</LatitudeDegrees>
              <LongitudeDegrees>-8.307666666805744171142578125</LongitudeDegrees>
            </Position>
            <AltitudeMeters>317.20001220703125</AltitudeMeters>
            <DistanceMeters>36425.762278905</DistanceMeters>
          </Trackpoint>
          <Trackpoint>
            <Time>2018-04-21T10:18:09.000Z</Time>
            <Position>
              <LatitudeDegrees>43.17137651145458221435546875</LatitudeDegrees>
              <LongitudeDegrees>-8.3071427978575229644775390625</LongitudeDegrees>
            </Position>
            <AltitudeMeters>318.20001220703125</AltitudeMeters>
            <DistanceMeters>36469.068403834</DistanceMeters>
          </Trackpoint>
          <Trackpoint>
            <Time>2018-04-21T10:18:12.000Z</Time>
            <Position>
              <LatitudeDegrees>43.1714014895260334014892578125</LatitudeDegrees>
              <LongitudeDegrees>-8.30691757611930370330810546875</LongitudeDegrees>
            </Position>
            <AltitudeMeters>319</AltitudeMeters>
            <DistanceMeters>36487.560807543</DistanceMeters>
          </Trackpoint>
          <Trackpoint>
            <Time>2018-04-21T10:18:14.000Z</Time>
            <Position>
              <LatitudeDegrees>43.17141808569431304931640625</LatitudeDegrees>
              <LongitudeDegrees>-8.306766785681247711181640625</LongitudeDegrees>
            </Position>
            <AltitudeMeters>319.399993896484375</AltitudeMeters>
            <DistanceMeters>36499.939838088</DistanceMeters>
          </Trackpoint>
          <Trackpoint>
            <Time>2018-04-21T10:18:19.000Z</Time>
            <Position>
              <LatitudeDegrees>43.17147147841751575469970703125</LatitudeDegrees>
              <LongitudeDegrees>-8.3063954673707485198974609375</LongitudeDegrees>
            </Position>
            <AltitudeMeters>320</AltitudeMeters>
            <DistanceMeters>36530.66140315</DistanceMeters>
          </Trackpoint>
          <Trackpoint>
            <Time>2018-04-21T10:18:21.000Z</Time>
            <Position>
              <LatitudeDegrees>43.1714957021176815032958984375</LatitudeDegrees>
              <LongitudeDegrees>-8.30625155009329319000244140625</LongitudeDegrees>
            </Position>
            <AltitudeMeters>320.399993896484375</AltitudeMeters>
            <DistanceMeters>36542.650596486</DistanceMeters>
          </Trackpoint>
          <Trackpoint>
            <Time>2018-04-21T10:18:27.000Z</Time>
            <Position>
              <LatitudeDegrees>43.17156485281884670257568359375</LatitudeDegrees>
              <LongitudeDegrees>-8.30583027563989162445068359375</LongitudeDegrees>
            </Position>
            <AltitudeMeters>321.399993896484375</AltitudeMeters>
            <DistanceMeters>36577.702446665</DistanceMeters>
          </Trackpoint>
          <Trackpoint>
            <Time>2018-04-21T10:18:28.000Z</Time>
            <Position>
              <LatitudeDegrees>43.17157641984522342681884765625</LatitudeDegrees>
              <LongitudeDegrees>-8.30576355569064617156982421875</LongitudeDegrees>
            </Position>
            <AltitudeMeters>321.600006103515625</AltitudeMeters>
            <DistanceMeters>36583.268611617</DistanceMeters>
          </Trackpoint>
          <Trackpoint>
            <Time>2018-04-21T10:18:30.000Z</Time>
            <Position>
              <LatitudeDegrees>43.17159720696508884429931640625</LatitudeDegrees>
              <LongitudeDegrees>-8.3056347258388996124267578125</LongitudeDegrees>
            </Position>
            <AltitudeMeters>322.399993896484375</AltitudeMeters>
            <DistanceMeters>36593.979264779</DistanceMeters>
          </Trackpoint>
          <Trackpoint>
            <Time>2018-04-21T10:18:34.000Z</Time>
            <Position>
              <LatitudeDegrees>43.171662501990795135498046875</LatitudeDegrees>
              <LongitudeDegrees>-8.30540514551103115081787109375</LongitudeDegrees>
            </Position>
            <AltitudeMeters>323</AltitudeMeters>
            <DistanceMeters>36613.981880285</DistanceMeters>
          </Trackpoint>
          <Trackpoint>
            <Time>2018-04-21T10:18:36.000Z</Time>
            <Position>
              <LatitudeDegrees>43.17170784808695316314697265625</LatitudeDegrees>
              <LongitudeDegrees>-8.305299282073974609375</LongitudeDegrees>
            </Position>
            <AltitudeMeters>323.20001220703125</AltitudeMeters>
            <DistanceMeters>36623.947913137</DistanceMeters>
          </Trackpoint>
          <Trackpoint>
            <Time>2018-04-21T10:18:39.000Z</Time>
            <Position>
              <LatitudeDegrees>43.17178688943386077880859375</LatitudeDegrees>
              <LongitudeDegrees>-8.305151425302028656005859375</LongitudeDegrees>
            </Position>
            <AltitudeMeters>324</AltitudeMeters>
            <DistanceMeters>36638.828926699</DistanceMeters>
          </Trackpoint>
          <Trackpoint>
            <Time>2018-04-21T10:18:43.000Z</Time>
            <Position>
              <LatitudeDegrees>43.1718919984996318817138671875</LatitudeDegrees>
              <LongitudeDegrees>-8.3049588091671466827392578125</LongitudeDegrees>
            </Position>
            <AltitudeMeters>324.79998779296875</AltitudeMeters>
            <DistanceMeters>36658.356396276</DistanceMeters>
          </Trackpoint>
          <Trackpoint>
            <Time>2018-04-21T10:18:45.000Z</Time>
            <Position>
              <LatitudeDegrees>43.17194974981248378753662109375</LatitudeDegrees>
              <LongitudeDegrees>-8.3048686198890209197998046875</LongitudeDegrees>
            </Position>
            <AltitudeMeters>325</AltitudeMeters>
            <DistanceMeters>36668.098372637</DistanceMeters>
          </Trackpoint>
          <Trackpoint>
            <Time>2018-04-21T10:18:50.000Z</Time>
            <Position>
              <LatitudeDegrees>43.1720774061977863311767578125</LatitudeDegrees>
              <LongitudeDegrees>-8.30466317944228649139404296875</LongitudeDegrees>
            </Position>
            <AltitudeMeters>325.399993896484375</AltitudeMeters>
            <DistanceMeters>36690.006719294</DistanceMeters>
          </Trackpoint>
          <Trackpoint>
            <Time>2018-04-21T10:18:56.000Z</Time>
            <Position>
              <LatitudeDegrees>43.17221981473267078399658203125</LatitudeDegrees>
              <LongitudeDegrees>-8.304355479776859283447265625</LongitudeDegrees>
            </Position>
            <AltitudeMeters>325.20001220703125</AltitudeMeters>
            <DistanceMeters>36719.588277533</DistanceMeters>
          </Trackpoint>
          <Trackpoint>
            <Time>2018-04-21T10:19:00.000Z</Time>
            <Position>
              <LatitudeDegrees>43.172318972647190093994140625</LatitudeDegrees>
              <LongitudeDegrees>-8.3041105605661869049072265625</LongitudeDegrees>
            </Position>
            <AltitudeMeters>325</AltitudeMeters>
            <DistanceMeters>36742.326881647</DistanceMeters>
          </Trackpoint>
          <Trackpoint>
            <Time>2018-04-21T10:19:02.000Z</Time>
            <Position>
              <LatitudeDegrees>43.17236381582915782928466796875</LatitudeDegrees>
              <LongitudeDegrees>-8.30398525111377239227294921875</LongitudeDegrees>
            </Position>
            <AltitudeMeters>324.600006103515625</AltitudeMeters>
            <DistanceMeters>36753.65699933</DistanceMeters>
          </Trackpoint>
          <Trackpoint>
            <Time>2018-04-21T10:19:03.000Z</Time>
            <Position>
              <LatitudeDegrees>43.172375299036502838134765625</LatitudeDegrees>
              <LongitudeDegrees>-8.30391417257487773895263671875</LongitudeDegrees>
            </Position>
            <AltitudeMeters>324.79998779296875</AltitudeMeters>
            <DistanceMeters>36759.565491146</DistanceMeters>
          </Trackpoint>
          <Trackpoint>
            <Time>2018-04-21T10:19:05.000Z</Time>
            <Position>
              <LatitudeDegrees>43.17238376475870609283447265625</LatitudeDegrees>
              <LongitudeDegrees>-8.30376530997455120086669921875</LongitudeDegrees>
            </Position>
            <AltitudeMeters>323.399993896484375</AltitudeMeters>
            <DistanceMeters>36771.685775119</DistanceMeters>
          </Trackpoint>
          <Trackpoint>
            <Time>2018-04-21T10:19:06.000Z</Time>
            <Position>
              <LatitudeDegrees>43.17238158546388149261474609375</LatitudeDegrees>
              <LongitudeDegrees>-8.30368869937956333160400390625</LongitudeDegrees>
            </Position>
            <AltitudeMeters>323.600006103515625</AltitudeMeters>
            <DistanceMeters>36777.909843559</DistanceMeters>
          </Trackpoint>
          <Trackpoint>
            <Time>2018-04-21T10:19:08.000Z</Time>
            <Position>
              <LatitudeDegrees>43.17237965762615203857421875</LatitudeDegrees>
              <LongitudeDegrees>-8.303523994982242584228515625</LongitudeDegrees>
            </Position>
            <AltitudeMeters>325.399993896484375</AltitudeMeters>
            <DistanceMeters>36791.280612177</DistanceMeters>
          </Trackpoint>
          <Trackpoint>
            <Time>2018-04-21T10:19:09.000Z</Time>
            <Position>
              <LatitudeDegrees>43.172393739223480224609375</LatitudeDegrees>
              <LongitudeDegrees>-8.30344260670244693756103515625</LongitudeDegrees>
            </Position>
            <AltitudeMeters>323.600006103515625</AltitudeMeters>
            <DistanceMeters>36798.06953773</DistanceMeters>
          </Trackpoint>
          <Trackpoint>
            <Time>2018-04-21T10:19:10.000Z</Time>
            <Position>
              <LatitudeDegrees>43.1724210642278194427490234375</LatitudeDegrees>
              <LongitudeDegrees>-8.30336214043200016021728515625</LongitudeDegrees>
            </Position>
            <AltitudeMeters>322.600006103515625</AltitudeMeters>
            <DistanceMeters>36805.274041835</DistanceMeters>
          </Trackpoint>
          <Trackpoint>
            <Time>2018-04-21T10:19:11.000Z</Time>
            <Position>
              <LatitudeDegrees>43.1724579446017742156982421875</LatitudeDegrees>
              <LongitudeDegrees>-8.30329122953116893768310546875</LongitudeDegrees>
            </Position>
            <AltitudeMeters>321.399993896484375</AltitudeMeters>
            <DistanceMeters>36812.343160807</DistanceMeters>
          </Trackpoint>
          <Trackpoint>
            <Time>2018-04-21T10:19:13.000Z</Time>
            <Position>
              <LatitudeDegrees>43.1725318729877471923828125</LatitudeDegrees>
              <LongitudeDegrees>-8.30316214822232723236083984375</LongitudeDegrees>
            </Position>
            <AltitudeMeters>319.20001220703125</AltitudeMeters>
            <DistanceMeters>36825.665892606</DistanceMeters>
          </Trackpoint>
          <Trackpoint>
            <Time>2018-04-21T10:19:14.000Z</Time>
            <Position>
              <LatitudeDegrees>43.17255190573632717132568359375</LatitudeDegrees>
              <LongitudeDegrees>-8.3031084202229976654052734375</LongitudeDegrees>
            </Position>
            <AltitudeMeters>317.79998779296875</AltitudeMeters>
            <DistanceMeters>36830.564148736</DistanceMeters>
          </Trackpoint>
          <Trackpoint>
            <Time>2018-04-21T10:19:15.000Z</Time>
            <Position>
              <LatitudeDegrees>43.17255676724016666412353515625</LatitudeDegrees>
              <LongitudeDegrees>-8.30306190066039562225341796875</LongitudeDegrees>
            </Position>
            <AltitudeMeters>316.600006103515625</AltitudeMeters>
            <DistanceMeters>36834.379444691</DistanceMeters>
          </Trackpoint>
          <Trackpoint>
            <Time>2018-04-21T10:19:16.000Z</Time>
            <Position>
              <LatitudeDegrees>43.17254939116537570953369140625</LatitudeDegrees>
              <LongitudeDegrees>-8.3030205778777599334716796875</LongitudeDegrees>
            </Position>
            <AltitudeMeters>316.79998779296875</AltitudeMeters>
            <DistanceMeters>36837.831936676</DistanceMeters>
          </Trackpoint>
          <Trackpoint>
            <Time>2018-04-21T10:19:17.000Z</Time>
            <Position>
              <LatitudeDegrees>43.17253430373966693878173828125</LatitudeDegrees>
              <LongitudeDegrees>-8.30298411659896373748779296875</LongitudeDegrees>
            </Position>
            <AltitudeMeters>317</AltitudeMeters>
            <DistanceMeters>36841.234370805</DistanceMeters>
          </Trackpoint>
          <Trackpoint>
            <Time>2018-04-21T10:19:20.000Z</Time>
            <Position>
              <LatitudeDegrees>43.17245341837406158447265625</LatitudeDegrees>
              <LongitudeDegrees>-8.30290851183235645294189453125</LongitudeDegrees>
            </Position>
            <AltitudeMeters>316.79998779296875</AltitudeMeters>
            <DistanceMeters>36852.129754457</DistanceMeters>
          </Trackpoint>
          <Trackpoint>
            <Time>2018-04-21T10:19:21.000Z</Time>
            <Position>
              <LatitudeDegrees>43.17242332734167575836181640625</LatitudeDegrees>
              <LongitudeDegrees>-8.30288453958928585052490234375</LongitudeDegrees>
            </Position>
            <AltitudeMeters>317</AltitudeMeters>
            <DistanceMeters>36856.00376879</DistanceMeters>
          </Trackpoint>
          <Trackpoint>
            <Time>2018-04-21T10:19:22.000Z</Time>
            <Position>
              <LatitudeDegrees>43.172393739223480224609375</LatitudeDegrees>
              <LongitudeDegrees>-8.30285101197659969329833984375</LongitudeDegrees>
            </Position>
            <AltitudeMeters>317.600006103515625</AltitudeMeters>
            <DistanceMeters>36860.274688412</DistanceMeters>
          </Trackpoint>
          <Trackpoint>
            <Time>2018-04-21T10:19:26.000Z</Time>
            <Position>
              <LatitudeDegrees>43.17228854633867740631103515625</LatitudeDegrees>
              <LongitudeDegrees>-8.30269577912986278533935546875</LongitudeDegrees>
            </Position>
            <AltitudeMeters>316.79998779296875</AltitudeMeters>
            <DistanceMeters>36877.475311209</DistanceMeters>
          </Trackpoint>
          <Trackpoint>
            <Time>2018-04-21T10:19:27.000Z</Time>
            <Position>
              <LatitudeDegrees>43.17226474173367023468017578125</LatitudeDegrees>
              <LongitudeDegrees>-8.3026398718357086181640625</LongitudeDegrees>
            </Position>
            <AltitudeMeters>316.600006103515625</AltitudeMeters>
            <DistanceMeters>36882.730211186</DistanceMeters>
          </Trackpoint>
          <Trackpoint>
            <Time>2018-04-21T10:19:28.000Z</Time>
            <Position>
              <LatitudeDegrees>43.17224462516605854034423828125</LatitudeDegrees>
              <LongitudeDegrees>-8.3025773428380489349365234375</LongitudeDegrees>
            </Position>
            <AltitudeMeters>316.20001220703125</AltitudeMeters>
            <DistanceMeters>36888.278501967</DistanceMeters>
          </Trackpoint>
          <Trackpoint>
            <Time>2018-04-21T10:19:30.000Z</Time>
            <Position>
              <LatitudeDegrees>43.1722038052976131439208984375</LatitudeDegrees>
              <LongitudeDegrees>-8.30243996344506740570068359375</LongitudeDegrees>
            </Position>
            <AltitudeMeters>315.399993896484375</AltitudeMeters>
            <DistanceMeters>36900.32030281</DistanceMeters>
          </Trackpoint>
          <Trackpoint>
            <Time>2018-04-21T10:19:31.000Z</Time>
            <Position>
              <LatitudeDegrees>43.1721753068268299102783203125</LatitudeDegrees>
              <LongitudeDegrees>-8.30236972309648990631103515625</LongitudeDegrees>
            </Position>
            <AltitudeMeters>315</AltitudeMeters>
            <DistanceMeters>36906.84470166</DistanceMeters>
          </Trackpoint>
          <Trackpoint>
            <Time>2018-04-21T10:19:32.000Z</Time>
            <Position>
              <LatitudeDegrees>43.17214538343250751495361328125</LatitudeDegrees>
              <LongitudeDegrees>-8.30229529179632663726806640625</LongitudeDegrees>
            </Position>
            <AltitudeMeters>314.20001220703125</AltitudeMeters>
            <DistanceMeters>36913.743143721</DistanceMeters>
          </Trackpoint>
          <Trackpoint>
            <Time>2018-04-21T10:19:34.000Z</Time>
            <Position>
              <LatitudeDegrees>43.17208318971097469329833984375</LatitudeDegrees>
              <LongitudeDegrees>-8.3021240495145320892333984375</LongitudeDegrees>
            </Position>
            <AltitudeMeters>312.79998779296875</AltitudeMeters>
            <DistanceMeters>36929.271799856</DistanceMeters>
          </Trackpoint>
          <Trackpoint>
            <Time>2018-04-21T10:19:36.000Z</Time>
            <Position>
              <LatitudeDegrees>43.17203423939645290374755859375</LatitudeDegrees>
              <LongitudeDegrees>-8.30197392962872982025146484375</LongitudeDegrees>
            </Position>
            <AltitudeMeters>312</AltitudeMeters>
            <DistanceMeters>36942.620263003</DistanceMeters>
          </Trackpoint>
          <Trackpoint>
            <Time>2018-04-21T10:19:37.000Z</Time>
            <Position>
              <LatitudeDegrees>43.17201630212366580963134765625</LatitudeDegrees>
              <LongitudeDegrees>-8.30191911198198795318603515625</LongitudeDegrees>
            </Position>
            <AltitudeMeters>311.20001220703125</AltitudeMeters>
            <DistanceMeters>36947.497272471</DistanceMeters>
          </Trackpoint>
          <Trackpoint>
            <Time>2018-04-21T10:19:39.000Z</Time>
            <Position>
              <LatitudeDegrees>43.17198696546256542205810546875</LatitudeDegrees>
              <LongitudeDegrees>-8.30184048973023891448974609375</LongitudeDegrees>
            </Position>
            <AltitudeMeters>309.600006103515625</AltitudeMeters>
            <DistanceMeters>36954.666595669</DistanceMeters>
          </Trackpoint>
          <Trackpoint>
            <Time>2018-04-21T10:19:43.000Z</Time>
            <Position>
              <LatitudeDegrees>43.1719578802585601806640625</LatitudeDegrees>
              <LongitudeDegrees>-8.3016928844153881072998046875</LongitudeDegrees>
            </Position>
            <AltitudeMeters>308.20001220703125</AltitudeMeters>
            <DistanceMeters>36967.077681197</DistanceMeters>
          </Trackpoint>
          <Trackpoint>
            <Time>2018-04-21T10:19:44.000Z</Time>
            <Position>
              <LatitudeDegrees>43.1719513423740863800048828125</LatitudeDegrees>
              <LongitudeDegrees>-8.30163815058767795562744140625</LongitudeDegrees>
            </Position>
            <AltitudeMeters>308</AltitudeMeters>
            <DistanceMeters>36971.581185576</DistanceMeters>
          </Trackpoint>
          <Trackpoint>
            <Time>2018-04-21T10:19:45.000Z</Time>
            <Position>
              <LatitudeDegrees>43.17193868570029735565185546875</LatitudeDegrees>
              <LongitudeDegrees>-8.30158316530287265777587890625</LongitudeDegrees>
            </Position>
            <AltitudeMeters>307.20001220703125</AltitudeMeters>
            <DistanceMeters>36976.261673313</DistanceMeters>
          </Trackpoint>
          <Trackpoint>
            <Time>2018-04-21T10:19:46.000Z</Time>
            <Position>
              <LatitudeDegrees>43.17192108370363712310791015625</LatitudeDegrees>
              <LongitudeDegrees>-8.3015267550945281982421875</LongitudeDegrees>
            </Position>
            <AltitudeMeters>306.600006103515625</AltitudeMeters>
            <DistanceMeters>36981.242197381</DistanceMeters>
          </Trackpoint>
          <Trackpoint>
            <Time>2018-04-21T10:19:47.000Z</Time>
            <Position>
              <LatitudeDegrees>43.17190700210630893707275390625</LatitudeDegrees>
              <LongitudeDegrees>-8.30146850086748600006103515625</LongitudeDegrees>
            </Position>
            <AltitudeMeters>305.79998779296875</AltitudeMeters>
            <DistanceMeters>36986.223627905</DistanceMeters>
          </Trackpoint>
          <Trackpoint>
            <Time>2018-04-21T10:19:49.000Z</Time>
            <Position>
              <LatitudeDegrees>43.171910941600799560546875</LatitudeDegrees>
              <LongitudeDegrees>-8.3013680018484592437744140625</LongitudeDegrees>
            </Position>
            <AltitudeMeters>304.600006103515625</AltitudeMeters>
            <DistanceMeters>36994.39316247</DistanceMeters>
          </Trackpoint>
          <Trackpoint>
            <Time>2018-04-21T10:19:50.000Z</Time>
            <Position>
              <LatitudeDegrees>43.17193063907325267791748046875</LatitudeDegrees>
              <LongitudeDegrees>-8.30132869072258472442626953125</LongitudeDegrees>
            </Position>
            <AltitudeMeters>304.399993896484375</AltitudeMeters>
            <DistanceMeters>36998.264845165</DistanceMeters>
          </Trackpoint>
          <Trackpoint>
            <Time>2018-04-21T10:19:52.000Z</Time>
            <Position>
              <LatitudeDegrees>43.17197657190263271331787109375</LatitudeDegrees>
              <LongitudeDegrees>-8.3012692630290985107421875</LongitudeDegrees>
            </Position>
            <AltitudeMeters>303.20001220703125</AltitudeMeters>
            <DistanceMeters>37005.29425327</DistanceMeters>
          </Trackpoint>
          <Trackpoint>
            <Time>2018-04-21T10:19:53.000Z</Time>
            <Position>
              <LatitudeDegrees>43.171997107565402984619140625</LatitudeDegrees>
              <LongitudeDegrees>-8.3012476377189159393310546875</LongitudeDegrees>
            </Position>
            <AltitudeMeters>303</AltitudeMeters>
            <DistanceMeters>37008.176556226</DistanceMeters>
          </Trackpoint>
          <Trackpoint>
            <Time>2018-04-21T10:19:58.000Z</Time>
            <Position>
              <LatitudeDegrees>43.17211185581982135772705078125</LatitudeDegrees>
              <LongitudeDegrees>-8.30117295496165752410888671875</LongitudeDegrees>
            </Position>
            <AltitudeMeters>302</AltitudeMeters>
            <DistanceMeters>37022.314155457</DistanceMeters>
          </Trackpoint>
          <Trackpoint>
            <Time>2018-04-21T10:20:02.000Z</Time>
            <Position>
              <LatitudeDegrees>43.17217656411230564117431640625</LatitudeDegrees>
              <LongitudeDegrees>-8.30115417949855327606201171875</LongitudeDegrees>
            </Position>
            <AltitudeMeters>301.600006103515625</AltitudeMeters>
            <DistanceMeters>37029.676119788</DistanceMeters>
          </Trackpoint>
          <Trackpoint>
            <Time>2018-04-21T10:20:04.000Z</Time>
            <Position>
              <LatitudeDegrees>43.17220439203083515167236328125</LatitudeDegrees>
              <LongitudeDegrees>-8.30117605626583099365234375</LongitudeDegrees>
            </Position>
            <AltitudeMeters>301.600006103515625</AltitudeMeters>
            <DistanceMeters>37033.245634862</DistanceMeters>
          </Trackpoint>
          <Trackpoint>
            <Time>2018-04-21T10:20:07.000Z</Time>
            <Position>
              <LatitudeDegrees>43.17220020107924938201904296875</LatitudeDegrees>
              <LongitudeDegrees>-8.30123732797801494598388671875</LongitudeDegrees>
            </Position>
            <AltitudeMeters>302</AltitudeMeters>
            <DistanceMeters>37038.240642491</DistanceMeters>
          </Trackpoint>
          <Trackpoint>
            <Time>2018-04-21T10:20:08.000Z</Time>
            <Position>
              <LatitudeDegrees>43.17218528129160404205322265625</LatitudeDegrees>
              <LongitudeDegrees>-8.30124453641474246978759765625</LongitudeDegrees>
            </Position>
            <AltitudeMeters>302.20001220703125</AltitudeMeters>
            <DistanceMeters>37040.003125483</DistanceMeters>
          </Trackpoint>
          <Trackpoint>
            <Time>2018-04-21T10:20:10.000Z</Time>
            <Position>
              <LatitudeDegrees>43.17214605398476123809814453125</LatitudeDegrees>
              <LongitudeDegrees>-8.3012665808200836181640625</LongitudeDegrees>
            </Position>
            <AltitudeMeters>302.600006103515625</AltitudeMeters>
            <DistanceMeters>37044.722998213</DistanceMeters>
          </Trackpoint>
          <Trackpoint>
            <Time>2018-04-21T10:20:11.000Z</Time>
            <Position>
              <LatitudeDegrees>43.17212677560746669769287109375</LatitudeDegrees>
              <LongitudeDegrees>-8.30127974040806293487548828125</LongitudeDegrees>
            </Position>
            <AltitudeMeters>302.399993896484375</AltitudeMeters>
            <DistanceMeters>37047.123245861</DistanceMeters>
          </Trackpoint>
          <Trackpoint>
            <Time>2018-04-21T10:20:13.000Z</Time>
            <Position>
              <LatitudeDegrees>43.17208771593868732452392578125</LatitudeDegrees>
              <LongitudeDegrees>-8.3012858591973781585693359375</LongitudeDegrees>
            </Position>
            <AltitudeMeters>302.79998779296875</AltitudeMeters>
            <DistanceMeters>37051.498604367</DistanceMeters>
          </Trackpoint>
          <Trackpoint>
            <Time>2018-04-21T10:20:18.000Z</Time>
            <Position>
              <LatitudeDegrees>43.1719847023487091064453125</LatitudeDegrees>
              <LongitudeDegrees>-8.301299773156642913818359375</LongitudeDegrees>
            </Position>
            <AltitudeMeters>302.79998779296875</AltitudeMeters>
            <DistanceMeters>37063.019589293</DistanceMeters>
          </Trackpoint>
          <Trackpoint>
            <Time>2018-04-21T10:20:19.000Z</Time>
            <Position>
              <LatitudeDegrees>43.17196793854236602783203125</LatitudeDegrees>
              <LongitudeDegrees>-8.3013094961643218994140625</LongitudeDegrees>
            </Position>
            <AltitudeMeters>302.79998779296875</AltitudeMeters>
            <DistanceMeters>37065.044349699</DistanceMeters>
          </Trackpoint>
          <Trackpoint>
            <Time>2018-04-21T10:20:21.000Z</Time>
            <Position>
              <LatitudeDegrees>43.17193172872066497802734375</LatitudeDegrees>
              <LongitudeDegrees>-8.3013297803699970245361328125</LongitudeDegrees>
            </Position>
            <AltitudeMeters>303.20001220703125</AltitudeMeters>
            <DistanceMeters>37069.396946669</DistanceMeters>
          </Trackpoint>
          <Trackpoint>
            <Time>2018-04-21T10:20:50.000Z</Time>
            <Position>
              <LatitudeDegrees>43.17185587249696254730224609375</LatitudeDegrees>
              <LongitudeDegrees>-8.3013384975492954254150390625</LongitudeDegrees>
            </Position>
            <AltitudeMeters>301.79998779296875</AltitudeMeters>
            <DistanceMeters>37077.86872615</DistanceMeters>
          </Trackpoint>
          <Trackpoint>
            <Time>2018-04-21T10:20:52.000Z</Time>
            <Position>
              <LatitudeDegrees>43.17188680171966552734375</LatitudeDegrees>
              <LongitudeDegrees>-8.301310837268829345703125</LongitudeDegrees>
            </Position>
            <AltitudeMeters>302</AltitudeMeters>
            <DistanceMeters>37081.979112145</DistanceMeters>
          </Trackpoint>
          <Trackpoint>
            <Time>2018-04-21T10:20:55.000Z</Time>
            <Position>
              <LatitudeDegrees>43.1719203293323516845703125</LatitudeDegrees>
              <LongitudeDegrees>-8.3012880384922027587890625</LongitudeDegrees>
            </Position>
            <AltitudeMeters>304</AltitudeMeters>
            <DistanceMeters>37086.142974147</DistanceMeters>
          </Trackpoint>
          <Trackpoint>
            <Time>2018-04-21T10:20:57.000Z</Time>
            <Position>
              <LatitudeDegrees>43.1719248555600643157958984375</LatitudeDegrees>
              <LongitudeDegrees>-8.30128896050155162811279296875</LongitudeDegrees>
            </Position>
            <AltitudeMeters>302.20001220703125</AltitudeMeters>
            <DistanceMeters>37086.654708665</DistanceMeters>
          </Trackpoint>
          <Trackpoint>
            <Time>2018-04-21T10:20:58.000Z</Time>
            <Position>
              <LatitudeDegrees>43.171927034854888916015625</LatitudeDegrees>
              <LongitudeDegrees>-8.30129130743443965911865234375</LongitudeDegrees>
            </Position>
            <AltitudeMeters>300</AltitudeMeters>
            <DistanceMeters>37086.955209521</DistanceMeters>
          </Trackpoint>
          <Trackpoint>
            <Time>2018-04-21T10:21:00.000Z</Time>
            <Position>
              <LatitudeDegrees>43.17192493937909603118896484375</LatitudeDegrees>
              <LongitudeDegrees>-8.3012974262237548828125</LongitudeDegrees>
            </Position>
            <AltitudeMeters>301.399993896484375</AltitudeMeters>
            <DistanceMeters>37087.492761794</DistanceMeters>
          </Trackpoint>
          <Trackpoint>
            <Time>2018-04-21T10:21:03.000Z</Time>
            <Position>
              <LatitudeDegrees>43.17192108370363712310791015625</LatitudeDegrees>
              <LongitudeDegrees>-8.30130253918468952178955078125</LongitudeDegrees>
            </Position>
            <AltitudeMeters>300.399993896484375</AltitudeMeters>
            <DistanceMeters>37088.093763506</DistanceMeters>
          </Trackpoint>
          <Trackpoint>
            <Time>2018-04-21T10:21:04.000Z</Time>
            <Position>
              <LatitudeDegrees>43.17193717695772647857666015625</LatitudeDegrees>
              <LongitudeDegrees>-8.3012660779058933258056640625</LongitudeDegrees>
            </Position>
            <AltitudeMeters>300</AltitudeMeters>
            <DistanceMeters>37091.552788121</DistanceMeters>
          </Trackpoint>
          <Trackpoint>
            <Time>2018-04-21T10:21:05.000Z</Time>
            <Position>
              <LatitudeDegrees>43.1719553656876087188720703125</LatitudeDegrees>
              <LongitudeDegrees>-8.3012315444648265838623046875</LongitudeDegrees>
            </Position>
            <AltitudeMeters>299.399993896484375</AltitudeMeters>
            <DistanceMeters>37095.010507198</DistanceMeters>
          </Trackpoint>
          <Trackpoint>
            <Time>2018-04-21T10:21:06.000Z</Time>
            <Position>
              <LatitudeDegrees>43.171977661550045013427734375</LatitudeDegrees>
              <LongitudeDegrees>-8.30119617283344268798828125</LongitudeDegrees>
            </Position>
            <AltitudeMeters>299</AltitudeMeters>
            <DistanceMeters>37098.805631956</DistanceMeters>
          </Trackpoint>
          <Trackpoint>
            <Time>2018-04-21T10:21:08.000Z</Time>
            <Position>
              <LatitudeDegrees>43.17203273065388202667236328125</LatitudeDegrees>
              <LongitudeDegrees>-8.30110103823244571685791015625</LongitudeDegrees>
            </Position>
            <AltitudeMeters>297.600006103515625</AltitudeMeters>
            <DistanceMeters>37108.665540829</DistanceMeters>
          </Trackpoint>
          <Trackpoint>
            <Time>2018-04-21T10:21:09.000Z</Time>
            <Position>
              <LatitudeDegrees>43.17206609062850475311279296875</LatitudeDegrees>
              <LongitudeDegrees>-8.3010287024080753326416015625</LongitudeDegrees>
            </Position>
            <AltitudeMeters>297</AltitudeMeters>
            <DistanceMeters>37115.61289706</DistanceMeters>
          </Trackpoint>
          <Trackpoint>
            <Time>2018-04-21T10:21:10.000Z</Time>
            <Position>
              <LatitudeDegrees>43.1721085868775844573974609375</LatitudeDegrees>
              <LongitudeDegrees>-8.30094899050891399383544921875</LongitudeDegrees>
            </Position>
            <AltitudeMeters>296.20001220703125</AltitudeMeters>
            <DistanceMeters>37123.627880767</DistanceMeters>
          </Trackpoint>
          <Trackpoint>
            <Time>2018-04-21T10:21:11.000Z</Time>
            <Position>
              <LatitudeDegrees>43.17215225659310817718505859375</LatitudeDegrees>
              <LongitudeDegrees>-8.3008667640388011932373046875</LongitudeDegrees>
            </Position>
            <AltitudeMeters>294.79998779296875</AltitudeMeters>
            <DistanceMeters>37131.885368716</DistanceMeters>
          </Trackpoint>
          <Trackpoint>
            <Time>2018-04-21T10:21:12.000Z</Time>
            <Position>
              <LatitudeDegrees>43.1722019612789154052734375</LatitudeDegrees>
              <LongitudeDegrees>-8.3007913269102573394775390625</LongitudeDegrees>
            </Position>
            <AltitudeMeters>292.79998779296875</AltitudeMeters>
            <DistanceMeters>37140.137934168</DistanceMeters>
          </Trackpoint>
          <Trackpoint>
            <Time>2018-04-21T10:21:13.000Z</Time>
            <Position>
              <LatitudeDegrees>43.1722609698772430419921875</LatitudeDegrees>
              <LongitudeDegrees>-8.30070490948855876922607421875</LongitudeDegrees>
            </Position>
            <AltitudeMeters>291.600006103515625</AltitudeMeters>
            <DistanceMeters>37149.747385854</DistanceMeters>
          </Trackpoint>
          <Trackpoint>
            <Time>2018-04-21T10:21:15.000Z</Time>
            <Position>
              <LatitudeDegrees>43.17238410003483295440673828125</LatitudeDegrees>
              <LongitudeDegrees>-8.3005147241055965423583984375</LongitudeDegrees>
            </Position>
            <AltitudeMeters>290.600006103515625</AltitudeMeters>
            <DistanceMeters>37170.390504259</DistanceMeters>
          </Trackpoint>
          <Trackpoint>
            <Time>2018-04-21T10:21:16.000Z</Time>
            <Position>
              <LatitudeDegrees>43.17244470119476318359375</LatitudeDegrees>
              <LongitudeDegrees>-8.30041908659040927886962890625</LongitudeDegrees>
            </Position>
            <AltitudeMeters>289.600006103515625</AltitudeMeters>
            <DistanceMeters>37180.674923804</DistanceMeters>
          </Trackpoint>
          <Trackpoint>
            <Time>2018-04-21T10:21:17.000Z</Time>
            <Position>
              <LatitudeDegrees>43.1725055538117885589599609375</LatitudeDegrees>
              <LongitudeDegrees>-8.30031800083816051483154296875</LongitudeDegrees>
            </Position>
            <AltitudeMeters>287.600006103515625</AltitudeMeters>
            <DistanceMeters>37191.314521461</DistanceMeters>
          </Trackpoint>
          <Trackpoint>
            <Time>2018-04-21T10:21:19.000Z</Time>
            <Position>
              <LatitudeDegrees>43.172632120549678802490234375</LatitudeDegrees>
              <LongitudeDegrees>-8.30009236000478267669677734375</LongitudeDegrees>
            </Position>
            <AltitudeMeters>286</AltitudeMeters>
            <DistanceMeters>37214.421063821</DistanceMeters>
          </Trackpoint>
          <Trackpoint>
            <Time>2018-04-21T10:21:21.000Z</Time>
            <Position>
              <LatitudeDegrees>43.1727435998618602752685546875</LatitudeDegrees>
              <LongitudeDegrees>-8.29987174831330776214599609375</LongitudeDegrees>
            </Position>
            <AltitudeMeters>284</AltitudeMeters>
            <DistanceMeters>37236.207272258</DistanceMeters>
          </Trackpoint>
          <Trackpoint>
            <Time>2018-04-21T10:21:22.000Z</Time>
            <Position>
              <LatitudeDegrees>43.172786347568035125732421875</LatitudeDegrees>
              <LongitudeDegrees>-8.2997781224548816680908203125</LongitudeDegrees>
            </Position>
            <AltitudeMeters>282.20001220703125</AltitudeMeters>
            <DistanceMeters>37245.173585356</DistanceMeters>
          </Trackpoint>
          <Trackpoint>
            <Time>2018-04-21T10:21:23.000Z</Time>
            <Position>
              <LatitudeDegrees>43.1728284247219562530517578125</LatitudeDegrees>
              <LongitudeDegrees>-8.299689106643199920654296875</LongitudeDegrees>
            </Position>
            <AltitudeMeters>280.79998779296875</AltitudeMeters>
            <DistanceMeters>37253.7838657</DistanceMeters>
          </Trackpoint>
          <Trackpoint>
            <Time>2018-04-21T10:21:24.000Z</Time>
            <Position>
              <LatitudeDegrees>43.1728783808648586273193359375</LatitudeDegrees>
              <LongitudeDegrees>-8.29960025846958160400390625</LongitudeDegrees>
            </Position>
            <AltitudeMeters>279.20001220703125</AltitudeMeters>
            <DistanceMeters>37262.890578722</DistanceMeters>
          </Trackpoint>
          <Trackpoint>
            <Time>2018-04-21T10:21:25.000Z</Time>
            <Position>
              <LatitudeDegrees>43.17293889820575714111328125</LatitudeDegrees>
              <LongitudeDegrees>-8.29951132647693157196044921875</LongitudeDegrees>
            </Position>
            <AltitudeMeters>278.399993896484375</AltitudeMeters>
            <DistanceMeters>37272.763758312</DistanceMeters>
          </Trackpoint>
          <Trackpoint>
            <Time>2018-04-21T10:21:26.000Z</Time>
            <Position>
              <LatitudeDegrees>43.1729977391660213470458984375</LatitudeDegrees>
              <LongitudeDegrees>-8.29943102784454822540283203125</LongitudeDegrees>
            </Position>
            <AltitudeMeters>276.79998779296875</AltitudeMeters>
            <DistanceMeters>37282.003365593</DistanceMeters>
          </Trackpoint>
          <Trackpoint>
            <Time>2018-04-21T10:21:27.000Z</Time>
            <Position>
              <LatitudeDegrees>43.17305699922144412994384765625</LatitudeDegrees>
              <LongitudeDegrees>-8.29935223795473575592041015625</LongitudeDegrees>
            </Position>
            <AltitudeMeters>275.600006103515625</AltitudeMeters>
            <DistanceMeters>37291.190045866</DistanceMeters>
          </Trackpoint>
          <Trackpoint>
            <Time>2018-04-21T10:21:29.000Z</Time>
            <Position>
              <LatitudeDegrees>43.17315791733562946319580078125</LatitudeDegrees>
              <LongitudeDegrees>-8.2992074824869632720947265625</LongitudeDegrees>
            </Position>
            <AltitudeMeters>273.399993896484375</AltitudeMeters>
            <DistanceMeters>37307.445170191</DistanceMeters>
          </Trackpoint>
          <Trackpoint>
            <Time>2018-04-21T10:21:31.000Z</Time>
            <Position>
              <LatitudeDegrees>43.17324827425181865692138671875</LatitudeDegrees>
              <LongitudeDegrees>-8.2990770600736141204833984375</LongitudeDegrees>
            </Position>
            <AltitudeMeters>271.20001220703125</AltitudeMeters>
            <DistanceMeters>37322.047471211</DistanceMeters>
          </Trackpoint>
          <Trackpoint>
            <Time>2018-04-21T10:21:33.000Z</Time>
            <Position>
              <LatitudeDegrees>43.1733330152928829193115234375</LatitudeDegrees>
              <LongitudeDegrees>-8.29895845614373683929443359375</LongitudeDegrees>
            </Position>
            <AltitudeMeters>268.399993896484375</AltitudeMeters>
            <DistanceMeters>37335.524859225</DistanceMeters>
          </Trackpoint>
          <Trackpoint>
            <Time>2018-04-21T10:21:34.000Z</Time>
            <Position>
              <LatitudeDegrees>43.173378445208072662353515625</LatitudeDegrees>
              <LongitudeDegrees>-8.298905231058597564697265625</LongitudeDegrees>
            </Position>
            <AltitudeMeters>267.20001220703125</AltitudeMeters>
            <DistanceMeters>37342.175371567</DistanceMeters>
          </Trackpoint>
          <Trackpoint>
            <Time>2018-04-21T10:21:35.000Z</Time>
            <Position>
              <LatitudeDegrees>43.17342027090489864349365234375</LatitudeDegrees>
              <LongitudeDegrees>-8.29885854385793209075927734375</LongitudeDegrees>
            </Position>
            <AltitudeMeters>265.79998779296875</AltitudeMeters>
            <DistanceMeters>37348.177871464</DistanceMeters>
          </Trackpoint>
          <Trackpoint>
            <Time>2018-04-21T10:21:37.000Z</Time>
            <Position>
              <LatitudeDegrees>43.17349051125347614288330078125</LatitudeDegrees>
              <LongitudeDegrees>-8.2987897284328937530517578125</LongitudeDegrees>
            </Position>
            <AltitudeMeters>264.399993896484375</AltitudeMeters>
            <DistanceMeters>37357.786383397</DistanceMeters>
          </Trackpoint>
          <Trackpoint>
            <Time>2018-04-21T10:21:38.000Z</Time>
            <Position>
              <LatitudeDegrees>43.17351800389587879180908203125</LatitudeDegrees>
              <LongitudeDegrees>-8.29875133931636810302734375</LongitudeDegrees>
            </Position>
            <AltitudeMeters>263.399993896484375</AltitudeMeters>
            <DistanceMeters>37362.153478707</DistanceMeters>
          </Trackpoint>
          <Trackpoint>
            <Time>2018-04-21T10:21:39.000Z</Time>
            <Position>
              <LatitudeDegrees>43.17351683042943477630615234375</LatitudeDegrees>
              <LongitudeDegrees>-8.29871781170368194580078125</LongitudeDegrees>
            </Position>
            <AltitudeMeters>262.600006103515625</AltitudeMeters>
            <DistanceMeters>37364.877946148</DistanceMeters>
          </Trackpoint>
          <Trackpoint>
            <Time>2018-04-21T10:21:40.000Z</Time>
            <Position>
              <LatitudeDegrees>43.17350643686950206756591796875</LatitudeDegrees>
              <LongitudeDegrees>-8.2986924983561038970947265625</LongitudeDegrees>
            </Position>
            <AltitudeMeters>261.399993896484375</AltitudeMeters>
            <DistanceMeters>37367.236447174</DistanceMeters>
          </Trackpoint>
          <Trackpoint>
            <Time>2018-04-21T10:21:43.000Z</Time>
            <Position>
              <LatitudeDegrees>43.17338640801608562469482421875</LatitudeDegrees>
              <LongitudeDegrees>-8.298651762306690216064453125</LongitudeDegrees>
            </Position>
            <AltitudeMeters>260.600006103515625</AltitudeMeters>
            <DistanceMeters>37380.999255154</DistanceMeters>
          </Trackpoint>
          <Trackpoint>
            <Time>2018-04-21T10:21:44.000Z</Time>
            <Position>
              <LatitudeDegrees>43.17331600002944469451904296875</LatitudeDegrees>
              <LongitudeDegrees>-8.2986438833177089691162109375</LongitudeDegrees>
            </Position>
            <AltitudeMeters>259.600006103515625</AltitudeMeters>
            <DistanceMeters>37388.861818562</DistanceMeters>
          </Trackpoint>
          <Trackpoint>
            <Time>2018-04-21T10:21:46.000Z</Time>
            <Position>
              <LatitudeDegrees>43.17315137945115566253662109375</LatitudeDegrees>
              <LongitudeDegrees>-8.298629634082317352294921875</LongitudeDegrees>
            </Position>
            <AltitudeMeters>258</AltitudeMeters>
            <DistanceMeters>37407.22042889</DistanceMeters>
          </Trackpoint>
          <Trackpoint>
            <Time>2018-04-21T10:21:47.000Z</Time>
            <Position>
              <LatitudeDegrees>43.1730634532868862152099609375</LatitudeDegrees>
              <LongitudeDegrees>-8.29862602986395359039306640625</LongitudeDegrees>
            </Position>
            <AltitudeMeters>257.600006103515625</AltitudeMeters>
            <DistanceMeters>37417.010947847</DistanceMeters>
          </Trackpoint>
          <Trackpoint>
            <Time>2018-04-21T10:21:48.000Z</Time>
            <Position>
              <LatitudeDegrees>43.1729725934565067291259765625</LatitudeDegrees>
              <LongitudeDegrees>-8.29861965961754322052001953125</LongitudeDegrees>
            </Position>
            <AltitudeMeters>255.600006103515625</AltitudeMeters>
            <DistanceMeters>37427.136979549</DistanceMeters>
          </Trackpoint>
          <Trackpoint>
            <Time>2018-04-21T10:21:49.000Z</Time>
            <Position>
              <LatitudeDegrees>43.172879554331302642822265625</LatitudeDegrees>
              <LongitudeDegrees>-8.29862971790134906768798828125</LongitudeDegrees>
            </Position>
            <AltitudeMeters>253.8000030517578125</AltitudeMeters>
            <DistanceMeters>37437.524925135</DistanceMeters>
          </Trackpoint>
          <Trackpoint>
            <Time>2018-04-21T10:21:50.000Z</Time>
            <Position>
              <LatitudeDegrees>43.17279665730893611907958984375</LatitudeDegrees>
              <LongitudeDegrees>-8.29864480532705783843994140625</LongitudeDegrees>
            </Position>
            <AltitudeMeters>252.600006103515625</AltitudeMeters>
            <DistanceMeters>37446.832693579</DistanceMeters>
          </Trackpoint>
          <Trackpoint>
            <Time>2018-04-21T10:21:51.000Z</Time>
            <Position>
              <LatitudeDegrees>43.17271484993398189544677734375</LatitudeDegrees>
              <LongitudeDegrees>-8.298652432858943939208984375</LongitudeDegrees>
            </Position>
            <AltitudeMeters>252.1999969482421875</AltitudeMeters>
            <DistanceMeters>37455.959216746</DistanceMeters>
          </Trackpoint>
          <Trackpoint>
            <Time>2018-04-21T10:21:52.000Z</Time>
            <Position>
              <LatitudeDegrees>43.17263773642480373382568359375</LatitudeDegrees>
              <LongitudeDegrees>-8.298661820590496063232421875</LongitudeDegrees>
            </Position>
            <AltitudeMeters>251.1999969482421875</AltitudeMeters>
            <DistanceMeters>37464.575787324</DistanceMeters>
          </Trackpoint>
          <Trackpoint>
            <Time>2018-04-21T10:21:53.000Z</Time>
            <Position>
              <LatitudeDegrees>43.17255944944918155670166015625</LatitudeDegrees>
              <LongitudeDegrees>-8.29866374842822551727294921875</LongitudeDegrees>
            </Position>
            <AltitudeMeters>249.600006103515625</AltitudeMeters>
            <DistanceMeters>37473.290830237</DistanceMeters>
          </Trackpoint>
          <Trackpoint>
            <Time>2018-04-21T10:21:54.000Z</Time>
            <Position>
              <LatitudeDegrees>43.17247814498841762542724609375</LatitudeDegrees>
              <LongitudeDegrees>-8.29866073094308376312255859375</LongitudeDegrees>
            </Position>
            <AltitudeMeters>248.600006103515625</AltitudeMeters>
            <DistanceMeters>37482.342841817</DistanceMeters>
          </Trackpoint>
          <Trackpoint>
            <Time>2018-04-21T10:21:56.000Z</Time>
            <Position>
              <LatitudeDegrees>43.17233682610094547271728515625</LatitudeDegrees>
              <LongitudeDegrees>-8.29866458661854267120361328125</LongitudeDegrees>
            </Position>
            <AltitudeMeters>246.600006103515625</AltitudeMeters>
            <DistanceMeters>37498.074858063</DistanceMeters>
          </Trackpoint>
          <Trackpoint>
            <Time>2018-04-21T10:21:57.000Z</Time>
            <Position>
              <LatitudeDegrees>43.172281086444854736328125</LatitudeDegrees>
              <LongitudeDegrees>-8.29866349697113037109375</LongitudeDegrees>
            </Position>
            <AltitudeMeters>244.1999969482421875</AltitudeMeters>
            <DistanceMeters>37504.280037026</DistanceMeters>
          </Trackpoint>
          <Trackpoint>
            <Time>2018-04-21T10:21:58.000Z</Time>
            <Position>
              <LatitudeDegrees>43.1722373329102993011474609375</LatitudeDegrees>
              <LongitudeDegrees>-8.298660479485988616943359375</LongitudeDegrees>
            </Position>
            <AltitudeMeters>242.1999969482421875</AltitudeMeters>
            <DistanceMeters>37509.155194582</DistanceMeters>
          </Trackpoint>
          <Trackpoint>
            <Time>2018-04-21T10:22:00.000Z</Time>
            <Position>
              <LatitudeDegrees>43.17215443588793277740478515625</LatitudeDegrees>
              <LongitudeDegrees>-8.29864078201353549957275390625</LongitudeDegrees>
            </Position>
            <AltitudeMeters>240.1999969482421875</AltitudeMeters>
            <DistanceMeters>37518.519545726</DistanceMeters>
          </Trackpoint>
          <Trackpoint>
            <Time>2018-04-21T10:22:02.000Z</Time>
            <Position>
              <LatitudeDegrees>43.17212124355137348175048828125</LatitudeDegrees>
              <LongitudeDegrees>-8.298585712909698486328125</LongitudeDegrees>
            </Position>
            <AltitudeMeters>238.8000030517578125</AltitudeMeters>
            <DistanceMeters>37524.318511555</DistanceMeters>
          </Trackpoint>
          <Trackpoint>
            <Time>2018-04-21T10:22:03.000Z</Time>
            <Position>
              <LatitudeDegrees>43.17212174646556377410888671875</LatitudeDegrees>
              <LongitudeDegrees>-8.2985419593751430511474609375</LongitudeDegrees>
            </Position>
            <AltitudeMeters>237.8000030517578125</AltitudeMeters>
            <DistanceMeters>37527.870274046</DistanceMeters>
          </Trackpoint>
          <Trackpoint>
            <Time>2018-04-21T10:22:04.000Z</Time>
            <Position>
              <LatitudeDegrees>43.1721233390271663665771484375</LatitudeDegrees>
              <LongitudeDegrees>-8.29849761910736560821533203125</LongitudeDegrees>
            </Position>
            <AltitudeMeters>236.8000030517578125</AltitudeMeters>
            <DistanceMeters>37531.473779273</DistanceMeters>
          </Trackpoint>
          <Trackpoint>
            <Time>2018-04-21T10:22:06.000Z</Time>
            <Position>
              <LatitudeDegrees>43.17216985858976840972900390625</LatitudeDegrees>
              <LongitudeDegrees>-8.2983588986098766326904296875</LongitudeDegrees>
            </Position>
            <AltitudeMeters>234.1999969482421875</AltitudeMeters>
            <DistanceMeters>37543.867026234</DistanceMeters>
          </Trackpoint>
          <Trackpoint>
            <Time>2018-04-21T10:22:07.000Z</Time>
            <Position>
              <LatitudeDegrees>43.17218720912933349609375</LatitudeDegrees>
              <LongitudeDegrees>-8.298280946910381317138671875</LongitudeDegrees>
            </Position>
            <AltitudeMeters>233.399993896484375</AltitudeMeters>
            <DistanceMeters>37550.482141535</DistanceMeters>
          </Trackpoint>
          <Trackpoint>
            <Time>2018-04-21T10:22:08.000Z</Time>
            <Position>
              <LatitudeDegrees>43.172211349010467529296875</LatitudeDegrees>
              <LongitudeDegrees>-8.2981936074793338775634765625</LongitudeDegrees>
            </Position>
            <AltitudeMeters>232.8000030517578125</AltitudeMeters>
            <DistanceMeters>37558.063463093</DistanceMeters>
          </Trackpoint>
          <Trackpoint>
            <Time>2018-04-21T10:22:10.000Z</Time>
            <Position>
              <LatitudeDegrees>43.1722594611346721649169921875</LatitudeDegrees>
              <LongitudeDegrees>-8.29804533161222934722900390625</LongitudeDegrees>
            </Position>
            <AltitudeMeters>230.8000030517578125</AltitudeMeters>
            <DistanceMeters>37571.236921603</DistanceMeters>
          </Trackpoint>
          <Trackpoint>
            <Time>2018-04-21T10:22:11.000Z</Time>
            <Position>
              <LatitudeDegrees>43.17228519357740879058837890625</LatitudeDegrees>
              <LongitudeDegrees>-8.297990262508392333984375</LongitudeDegrees>
            </Position>
            <AltitudeMeters>228</AltitudeMeters>
            <DistanceMeters>37576.544825003</DistanceMeters>
          </Trackpoint>
          <Trackpoint>
            <Time>2018-04-21T10:22:12.000Z</Time>
            <Position>
              <LatitudeDegrees>43.17231050692498683929443359375</LatitudeDegrees>
              <LongitudeDegrees>-8.29794005490839481353759765625</LongitudeDegrees>
            </Position>
            <AltitudeMeters>227</AltitudeMeters>
            <DistanceMeters>37581.498989693</DistanceMeters>
          </Trackpoint>
          <Trackpoint>
            <Time>2018-04-21T10:22:13.000Z</Time>
            <Position>
              <LatitudeDegrees>43.1723275221884250640869140625</LatitudeDegrees>
              <LongitudeDegrees>-8.2978918589651584625244140625</LongitudeDegrees>
            </Position>
            <AltitudeMeters>227</AltitudeMeters>
            <DistanceMeters>37585.845358283</DistanceMeters>
          </Trackpoint>
          <Trackpoint>
            <Time>2018-04-21T10:22:14.000Z</Time>
            <Position>
              <LatitudeDegrees>43.17234302870929241180419921875</LatitudeDegrees>
              <LongitudeDegrees>-8.297844417393207550048828125</LongitudeDegrees>
            </Position>
            <AltitudeMeters>225.1999969482421875</AltitudeMeters>
            <DistanceMeters>37590.065229223</DistanceMeters>
          </Trackpoint>
          <Trackpoint>
            <Time>2018-04-21T10:22:16.000Z</Time>
            <Position>
              <LatitudeDegrees>43.1723694317042827606201171875</LatitudeDegrees>
              <LongitudeDegrees>-8.2977554015815258026123046875</LongitudeDegrees>
            </Position>
            <AltitudeMeters>223.600006103515625</AltitudeMeters>
            <DistanceMeters>37597.865527619</DistanceMeters>
          </Trackpoint>
          <Trackpoint>
            <Time>2018-04-21T10:22:17.000Z</Time>
            <Position>
              <LatitudeDegrees>43.17238368093967437744140625</LatitudeDegrees>
              <LongitudeDegrees>-8.29771407879889011383056640625</LongitudeDegrees>
            </Position>
            <AltitudeMeters>223</AltitudeMeters>
            <DistanceMeters>37601.575222553</DistanceMeters>
          </Trackpoint>
          <Trackpoint>
            <Time>2018-04-21T10:22:18.000Z</Time>
            <Position>
              <LatitudeDegrees>43.172404468059539794921875</LatitudeDegrees>
              <LongitudeDegrees>-8.29767686314880847930908203125</LongitudeDegrees>
            </Position>
            <AltitudeMeters>222.600006103515625</AltitudeMeters>
            <DistanceMeters>37605.381039498</DistanceMeters>
          </Trackpoint>
          <Trackpoint>
            <Time>2018-04-21T10:22:19.000Z</Time>
            <Position>
              <LatitudeDegrees>43.17244143225252628326416015625</LatitudeDegrees>
              <LongitudeDegrees>-8.29763361252844333648681640625</LongitudeDegrees>
            </Position>
            <AltitudeMeters>221.8000030517578125</AltitudeMeters>
            <DistanceMeters>37610.790054905</DistanceMeters>
          </Trackpoint>
          <Trackpoint>
            <Time>2018-04-21T10:22:20.000Z</Time>
            <Position>
              <LatitudeDegrees>43.172477222979068756103515625</LatitudeDegrees>
              <LongitudeDegrees>-8.2975914515554904937744140625</LongitudeDegrees>
            </Position>
            <AltitudeMeters>220.8000030517578125</AltitudeMeters>
            <DistanceMeters>37616.041516936</DistanceMeters>
          </Trackpoint>
          <Trackpoint>
            <Time>2018-04-21T10:22:21.000Z</Time>
            <Position>
              <LatitudeDegrees>43.17252877168357372283935546875</LatitudeDegrees>
              <LongitudeDegrees>-8.29754166305065155029296875</LongitudeDegrees>
            </Position>
            <AltitudeMeters>219.600006103515625</AltitudeMeters>
            <DistanceMeters>37623.059353991</DistanceMeters>
          </Trackpoint>
          <Trackpoint>
            <Time>2018-04-21T10:22:22.000Z</Time>
            <Position>
              <LatitudeDegrees>43.1725823320448398590087890625</LatitudeDegrees>
              <LongitudeDegrees>-8.29749531112611293792724609375</LongitudeDegrees>
            </Position>
            <AltitudeMeters>218.399993896484375</AltitudeMeters>
            <DistanceMeters>37630.108004967</DistanceMeters>
          </Trackpoint>
          <Trackpoint>
            <Time>2018-04-21T10:22:24.000Z</Time>
            <Position>
              <LatitudeDegrees>43.17269347608089447021484375</LatitudeDegrees>
              <LongitudeDegrees>-8.29739321954548358917236328125</LongitudeDegrees>
            </Position>
            <AltitudeMeters>215.8000030517578125</AltitudeMeters>
            <DistanceMeters>37644.997511567</DistanceMeters>
          </Trackpoint>
          <Trackpoint>
            <Time>2018-04-21T10:22:25.000Z</Time>
            <Position>
              <LatitudeDegrees>43.1727596931159496307373046875</LatitudeDegrees>
              <LongitudeDegrees>-8.2973403297364711761474609375</LongitudeDegrees>
            </Position>
            <AltitudeMeters>215.600006103515625</AltitudeMeters>
            <DistanceMeters>37653.526655477</DistanceMeters>
          </Trackpoint>
          <Trackpoint>
            <Time>2018-04-21T10:22:26.000Z</Time>
            <Position>
              <LatitudeDegrees>43.1728347949683666229248046875</LatitudeDegrees>
              <LongitudeDegrees>-8.297285176813602447509765625</LongitudeDegrees>
            </Position>
            <AltitudeMeters>214.1999969482421875</AltitudeMeters>
            <DistanceMeters>37663.009350306</DistanceMeters>
          </Trackpoint>
          <Trackpoint>
            <Time>2018-04-21T10:22:28.000Z</Time>
            <Position>
              <LatitudeDegrees>43.1729833222925662994384765625</LatitudeDegrees>
              <LongitudeDegrees>-8.2971783913671970367431640625</LongitudeDegrees>
            </Position>
            <AltitudeMeters>211.600006103515625</AltitudeMeters>
            <DistanceMeters>37681.675751396</DistanceMeters>
          </Trackpoint>
          <Trackpoint>
            <Time>2018-04-21T10:22:29.000Z</Time>
            <Position>
              <LatitudeDegrees>43.17305163480341434478759765625</LatitudeDegrees>
              <LongitudeDegrees>-8.297132290899753570556640625</LongitudeDegrees>
            </Position>
            <AltitudeMeters>209.399993896484375</AltitudeMeters>
            <DistanceMeters>37690.149662411</DistanceMeters>
          </Trackpoint>
          <Trackpoint>
            <Time>2018-04-21T10:22:30.000Z</Time>
            <Position>
              <LatitudeDegrees>43.17312522791326045989990234375</LatitudeDegrees>
              <LongitudeDegrees>-8.2970955781638622283935546875</LongitudeDegrees>
            </Position>
            <AltitudeMeters>208.1999969482421875</AltitudeMeters>
            <DistanceMeters>37698.86574141</DistanceMeters>
          </Trackpoint>
          <Trackpoint>
            <Time>2018-04-21T10:22:31.000Z</Time>
            <Position>
              <LatitudeDegrees>43.173197396099567413330078125</LatitudeDegrees>
              <LongitudeDegrees>-8.2970617152750492095947265625</LongitudeDegrees>
            </Position>
            <AltitudeMeters>206.8000030517578125</AltitudeMeters>
            <DistanceMeters>37707.355621867</DistanceMeters>
          </Trackpoint>
          <Trackpoint>
            <Time>2018-04-21T10:22:32.000Z</Time>
            <Position>
              <LatitudeDegrees>43.1732673011720180511474609375</LatitudeDegrees>
              <LongitudeDegrees>-8.29703112132847309112548828125</LongitudeDegrees>
            </Position>
            <AltitudeMeters>205.8000030517578125</AltitudeMeters>
            <DistanceMeters>37715.522392626</DistanceMeters>
          </Trackpoint>
          <Trackpoint>
            <Time>2018-04-21T10:22:33.000Z</Time>
            <Position>
              <LatitudeDegrees>43.1733350269496440887451171875</LatitudeDegrees>
              <LongitudeDegrees>-8.2969986833631992340087890625</LongitudeDegrees>
            </Position>
            <AltitudeMeters>204.1999969482421875</AltitudeMeters>
            <DistanceMeters>37723.507464308</DistanceMeters>
          </Trackpoint>
          <Trackpoint>
            <Time>2018-04-21T10:22:34.000Z</Time>
            <Position>
              <LatitudeDegrees>43.17339713685214519500732421875</LatitudeDegrees>
              <LongitudeDegrees>-8.2969644851982593536376953125</LongitudeDegrees>
            </Position>
            <AltitudeMeters>202.8000030517578125</AltitudeMeters>
            <DistanceMeters>37730.957219326</DistanceMeters>
          </Trackpoint>
          <Trackpoint>
            <Time>2018-04-21T10:22:35.000Z</Time>
            <Position>
              <LatitudeDegrees>43.173454217612743377685546875</LatitudeDegrees>
              <LongitudeDegrees>-8.29692835919559001922607421875</LongitudeDegrees>
            </Position>
            <AltitudeMeters>201.399993896484375</AltitudeMeters>
            <DistanceMeters>37737.954438379</DistanceMeters>
          </Trackpoint>
          <Trackpoint>
            <Time>2018-04-21T10:22:36.000Z</Time>
            <Position>
              <LatitudeDegrees>43.1735100410878658294677734375</LatitudeDegrees>
              <LongitudeDegrees>-8.29690086655318737030029296875</LongitudeDegrees>
            </Position>
            <AltitudeMeters>200</AltitudeMeters>
            <DistanceMeters>37744.556572806</DistanceMeters>
          </Trackpoint>
          <Trackpoint>
            <Time>2018-04-21T10:22:37.000Z</Time>
            <Position>
              <LatitudeDegrees>43.17355270497500896453857421875</LatitudeDegrees>
              <LongitudeDegrees>-8.296887874603271484375</LongitudeDegrees>
            </Position>
            <AltitudeMeters>199.1999969482421875</AltitudeMeters>
            <DistanceMeters>37749.420604085</DistanceMeters>
          </Trackpoint>
          <Trackpoint>
            <Time>2018-04-21T10:22:38.000Z</Time>
            <Position>
              <LatitudeDegrees>43.1736002303659915924072265625</LatitudeDegrees>
              <LongitudeDegrees>-8.296872787177562713623046875</LongitudeDegrees>
            </Position>
            <AltitudeMeters>197.8000030517578125</AltitudeMeters>
            <DistanceMeters>37754.849615921</DistanceMeters>
          </Trackpoint>
          <Trackpoint>
            <Time>2018-04-21T10:22:39.000Z</Time>
            <Position>
              <LatitudeDegrees>43.17365496419370174407958984375</LatitudeDegrees>
              <LongitudeDegrees>-8.2968451268970966339111328125</LongitudeDegrees>
            </Position>
            <AltitudeMeters>196.8000030517578125</AltitudeMeters>
            <DistanceMeters>37761.342103644</DistanceMeters>
          </Trackpoint>
          <Trackpoint>
            <Time>2018-04-21T10:22:40.000Z</Time>
            <Position>
              <LatitudeDegrees>43.1737232767045497894287109375</LatitudeDegrees>
              <LongitudeDegrees>-8.296802379190921783447265625</LongitudeDegrees>
            </Position>
            <AltitudeMeters>196</AltitudeMeters>
            <DistanceMeters>37769.700133997</DistanceMeters>
          </Trackpoint>
          <Trackpoint>
            <Time>2018-04-21T10:22:41.000Z</Time>
            <Position>
              <LatitudeDegrees>43.17379075102508068084716796875</LatitudeDegrees>
              <LongitudeDegrees>-8.29674948938190937042236328125</LongitudeDegrees>
            </Position>
            <AltitudeMeters>195.1999969482421875</AltitudeMeters>
            <DistanceMeters>37778.350175234</DistanceMeters>
          </Trackpoint>
          <Trackpoint>
            <Time>2018-04-21T10:22:42.000Z</Time>
            <Position>
              <LatitudeDegrees>43.17387205548584461212158203125</LatitudeDegrees>
              <LongitudeDegrees>-8.2966976054012775421142578125</LongitudeDegrees>
            </Position>
            <AltitudeMeters>194.399993896484375</AltitudeMeters>
            <DistanceMeters>37788.331147298</DistanceMeters>
          </Trackpoint>
          <Trackpoint>
            <Time>2018-04-21T10:22:43.000Z</Time>
            <Position>
              <LatitudeDegrees>43.17396392114460468292236328125</LatitudeDegrees>
              <LongitudeDegrees>-8.29664387740194797515869140625</LongitudeDegrees>
            </Position>
            <AltitudeMeters>192.8000030517578125</AltitudeMeters>
            <DistanceMeters>37799.447242208</DistanceMeters>
          </Trackpoint>
          <Trackpoint>
            <Time>2018-04-21T10:22:44.000Z</Time>
            <Position>
              <LatitudeDegrees>43.17406098358333110809326171875</LatitudeDegrees>
              <LongitudeDegrees>-8.29659274779260158538818359375</LongitudeDegrees>
            </Position>
            <AltitudeMeters>190.600006103515625</AltitudeMeters>
            <DistanceMeters>37811.020232047</DistanceMeters>
          </Trackpoint>
          <Trackpoint>
            <Time>2018-04-21T10:22:45.000Z</Time>
            <Position>
              <LatitudeDegrees>43.1741601414978504180908203125</LatitudeDegrees>
              <LongitudeDegrees>-8.2965537719428539276123046875</LongitudeDegrees>
            </Position>
            <AltitudeMeters>188.399993896484375</AltitudeMeters>
            <DistanceMeters>37822.501173901</DistanceMeters>
          </Trackpoint>
          <Trackpoint>
            <Time>2018-04-21T10:22:46.000Z</Time>
            <Position>
              <LatitudeDegrees>43.1742567010223865509033203125</LatitudeDegrees>
              <LongitudeDegrees>-8.29651496373116970062255859375</LongitudeDegrees>
            </Position>
            <AltitudeMeters>187.1999969482421875</AltitudeMeters>
            <DistanceMeters>37833.70062754</DistanceMeters>
          </Trackpoint>
          <Trackpoint>
            <Time>2018-04-21T10:22:48.000Z</Time>
            <Position>
              <LatitudeDegrees>43.174449317157268524169921875</LatitudeDegrees>
              <LongitudeDegrees>-8.296430222690105438232421875</LongitudeDegrees>
            </Position>
            <AltitudeMeters>184.8000030517578125</AltitudeMeters>
            <DistanceMeters>37856.215743161</DistanceMeters>
          </Trackpoint>
          <Trackpoint>
            <Time>2018-04-21T10:22:49.000Z</Time>
            <Position>
              <LatitudeDegrees>43.174539841711521148681640625</LatitudeDegrees>
              <LongitudeDegrees>-8.29639971256256103515625</LongitudeDegrees>
            </Position>
            <AltitudeMeters>181.8000030517578125</AltitudeMeters>
            <DistanceMeters>37866.591511632</DistanceMeters>
          </Trackpoint>
          <Trackpoint>
            <Time>2018-04-21T10:22:50.000Z</Time>
            <Position>
              <LatitudeDegrees>43.1746224872767925262451171875</LatitudeDegrees>
              <LongitudeDegrees>-8.29636014997959136962890625</LongitudeDegrees>
            </Position>
            <AltitudeMeters>180</AltitudeMeters>
            <DistanceMeters>37876.334414874</DistanceMeters>
          </Trackpoint>
          <Trackpoint>
            <Time>2018-04-21T10:22:51.000Z</Time>
            <Position>
              <LatitudeDegrees>43.17471292801201343536376953125</LatitudeDegrees>
              <LongitudeDegrees>-8.29634003341197967529296875</LongitudeDegrees>
            </Position>
            <AltitudeMeters>179.399993896484375</AltitudeMeters>
            <DistanceMeters>37886.531981266</DistanceMeters>
          </Trackpoint>
          <Trackpoint>
            <Time>2018-04-21T10:22:52.000Z</Time>
            <Position>
              <LatitudeDegrees>43.17481066100299358367919921875</LatitudeDegrees>
              <LongitudeDegrees>-8.29632670618593692779541015625</LongitudeDegrees>
            </Position>
            <AltitudeMeters>178</AltitudeMeters>
            <DistanceMeters>37897.463771223</DistanceMeters>
          </Trackpoint>
          <Trackpoint>
            <Time>2018-04-21T10:22:53.000Z</Time>
            <Position>
              <LatitudeDegrees>43.17491208203136920928955078125</LatitudeDegrees>
              <LongitudeDegrees>-8.2963143847882747650146484375</LongitudeDegrees>
            </Position>
            <AltitudeMeters>175.1999969482421875</AltitudeMeters>
            <DistanceMeters>37908.796279647</DistanceMeters>
          </Trackpoint>
          <Trackpoint>
            <Time>2018-04-21T10:22:54.000Z</Time>
            <Position>
              <LatitudeDegrees>43.175013251602649688720703125</LatitudeDegrees>
              <LongitudeDegrees>-8.29630290158092975616455078125</LongitudeDegrees>
            </Position>
            <AltitudeMeters>173.399993896484375</AltitudeMeters>
            <DistanceMeters>37920.095271671</DistanceMeters>
          </Trackpoint>
          <Trackpoint>
            <Time>2018-04-21T10:22:55.000Z</Time>
            <Position>
              <LatitudeDegrees>43.17510746419429779052734375</LatitudeDegrees>
              <LongitudeDegrees>-8.29629837535321712493896484375</LongitudeDegrees>
            </Position>
            <AltitudeMeters>171.600006103515625</AltitudeMeters>
            <DistanceMeters>37930.587873446</DistanceMeters>
          </Trackpoint>
          <Trackpoint>
            <Time>2018-04-21T10:22:56.000Z</Time>
            <Position>
              <LatitudeDegrees>43.1752021797001361846923828125</LatitudeDegrees>
              <LongitudeDegrees>-8.2962952740490436553955078125</LongitudeDegrees>
            </Position>
            <AltitudeMeters>170.399993896484375</AltitudeMeters>
            <DistanceMeters>37941.132841978</DistanceMeters>
          </Trackpoint>
          <Trackpoint>
            <Time>2018-04-21T10:22:57.000Z</Time>
            <Position>
              <LatitudeDegrees>43.1752972304821014404296875</LatitudeDegrees>
              <LongitudeDegrees>-8.2962910830974578857421875</LongitudeDegrees>
            </Position>
            <AltitudeMeters>168.600006103515625</AltitudeMeters>
            <DistanceMeters>37951.71755541</DistanceMeters>
          </Trackpoint>
          <Trackpoint>
            <Time>2018-04-21T10:22:58.000Z</Time>
            <Position>
              <LatitudeDegrees>43.17539043724536895751953125</LatitudeDegrees>
              <LongitudeDegrees>-8.2962912507355213165283203125</LongitudeDegrees>
            </Position>
            <AltitudeMeters>167.399993896484375</AltitudeMeters>
            <DistanceMeters>37962.091583126</DistanceMeters>
          </Trackpoint>
          <Trackpoint>
            <Time>2018-04-21T10:22:59.000Z</Time>
            <Position>
              <LatitudeDegrees>43.17546143196523189544677734375</LatitudeDegrees>
              <LongitudeDegrees>-8.296296112239360809326171875</LongitudeDegrees>
            </Position>
            <AltitudeMeters>165.1999969482421875</AltitudeMeters>
            <DistanceMeters>37970.003377481</DistanceMeters>
          </Trackpoint>
          <Trackpoint>
            <Time>2018-04-21T10:23:00.000Z</Time>
            <Position>
              <LatitudeDegrees>43.17551004700362682342529296875</LatitudeDegrees>
              <LongitudeDegrees>-8.29630860127508640289306640625</LongitudeDegrees>
            </Position>
            <AltitudeMeters>163.600006103515625</AltitudeMeters>
            <DistanceMeters>37975.510009546</DistanceMeters>
          </Trackpoint>
          <Trackpoint>
            <Time>2018-04-21T10:23:01.000Z</Time>
            <Position>
              <LatitudeDegrees>43.1755589134991168975830078125</LatitudeDegrees>
              <LongitudeDegrees>-8.296313546597957611083984375</LongitudeDegrees>
            </Position>
            <AltitudeMeters>162.1999969482421875</AltitudeMeters>
            <DistanceMeters>37980.963913818</DistanceMeters>
          </Trackpoint>
          <Trackpoint>
            <Time>2018-04-21T10:23:02.000Z</Time>
            <Position>
              <LatitudeDegrees>43.1755750067532062530517578125</LatitudeDegrees>
              <LongitudeDegrees>-8.29630918800830841064453125</LongitudeDegrees>
            </Position>
            <AltitudeMeters>161.399993896484375</AltitudeMeters>
            <DistanceMeters>37982.791789165</DistanceMeters>
          </Trackpoint>
          <Trackpoint>
            <Time>2018-04-21T10:23:03.000Z</Time>
            <Position>
              <LatitudeDegrees>43.1755934469401836395263671875</LatitudeDegrees>
              <LongitudeDegrees>-8.29630591906607151031494140625</LongitudeDegrees>
            </Position>
            <AltitudeMeters>161</AltitudeMeters>
            <DistanceMeters>37984.860667178</DistanceMeters>
          </Trackpoint>
          <Trackpoint>
            <Time>2018-04-21T10:23:04.000Z</Time>
            <Position>
              <LatitudeDegrees>43.17561113275587558746337890625</LatitudeDegrees>
              <LongitudeDegrees>-8.2963179051876068115234375</LongitudeDegrees>
            </Position>
            <AltitudeMeters>160.8000030517578125</AltitudeMeters>
            <DistanceMeters>37987.056586307</DistanceMeters>
          </Trackpoint>
          <Trackpoint>
            <Time>2018-04-21T10:23:06.000Z</Time>
            <Position>
              <LatitudeDegrees>43.17558950744569301605224609375</LatitudeDegrees>
              <LongitudeDegrees>-8.2963556237518787384033203125</LongitudeDegrees>
            </Position>
            <AltitudeMeters>160.8000030517578125</AltitudeMeters>
            <DistanceMeters>37990.951522561</DistanceMeters>
          </Trackpoint>
          <Trackpoint>
            <Time>2018-04-21T10:23:10.000Z</Time>
            <Position>
              <LatitudeDegrees>43.175532259047031402587890625</LatitudeDegrees>
              <LongitudeDegrees>-8.2963200844824314117431640625</LongitudeDegrees>
            </Position>
            <AltitudeMeters>161</AltitudeMeters>
            <DistanceMeters>37997.946805561</DistanceMeters>
          </Trackpoint>
          <Trackpoint>
            <Time>2018-04-21T10:23:13.000Z</Time>
            <Position>
              <LatitudeDegrees>43.17547014914453029632568359375</LatitudeDegrees>
              <LongitudeDegrees>-8.29623316414654254913330078125</LongitudeDegrees>
            </Position>
            <AltitudeMeters>161.1999969482421875</AltitudeMeters>
            <DistanceMeters>38007.824557126</DistanceMeters>
          </Trackpoint>
          <Trackpoint>
            <Time>2018-04-21T10:23:15.000Z</Time>
            <Position>
              <LatitudeDegrees>43.17541264928877353668212890625</LatitudeDegrees>
              <LongitudeDegrees>-8.2961839623749256134033203125</LongitudeDegrees>
            </Position>
            <AltitudeMeters>161.8000030517578125</AltitudeMeters>
            <DistanceMeters>38015.368265879</DistanceMeters>
          </Trackpoint>
          <Trackpoint>
            <Time>2018-04-21T10:23:19.000Z</Time>
            <Position>
              <LatitudeDegrees>43.1752678938210010528564453125</LatitudeDegrees>
              <LongitudeDegrees>-8.29603023827075958251953125</LongitudeDegrees>
            </Position>
            <AltitudeMeters>159.600006103515625</AltitudeMeters>
            <DistanceMeters>38035.746566974</DistanceMeters>
          </Trackpoint>
          <Trackpoint>
            <Time>2018-04-21T10:23:21.000Z</Time>
            <Position>
              <LatitudeDegrees>43.175171501934528350830078125</LatitudeDegrees>
              <LongitudeDegrees>-8.2959392108023166656494140625</LongitudeDegrees>
            </Position>
            <AltitudeMeters>159.600006103515625</AltitudeMeters>
            <DistanceMeters>38048.773201095</DistanceMeters>
          </Trackpoint>
          <Trackpoint>
            <Time>2018-04-21T10:23:24.000Z</Time>
            <Position>
              <LatitudeDegrees>43.17500009201467037200927734375</LatitudeDegrees>
              <LongitudeDegrees>-8.29579495824873447418212890625</LongitudeDegrees>
            </Position>
            <AltitudeMeters>158.399993896484375</AltitudeMeters>
            <DistanceMeters>38071.157792041</DistanceMeters>
          </Trackpoint>
          <Trackpoint>
            <Time>2018-04-21T10:23:26.000Z</Time>
            <Position>
              <LatitudeDegrees>43.17487251944839954376220703125</LatitudeDegrees>
              <LongitudeDegrees>-8.2956813834607601165771484375</LongitudeDegrees>
            </Position>
            <AltitudeMeters>157.8000030517578125</AltitudeMeters>
            <DistanceMeters>38088.086955227</DistanceMeters>
          </Trackpoint>
          <Trackpoint>
            <Time>2018-04-21T10:23:27.000Z</Time>
            <Position>
              <LatitudeDegrees>43.1748085655272006988525390625</LatitudeDegrees>
              <LongitudeDegrees>-8.29560653306543827056884765625</LongitudeDegrees>
            </Position>
            <AltitudeMeters>157.399993896484375</AltitudeMeters>
            <DistanceMeters>38097.445518761</DistanceMeters>
          </Trackpoint>
          <Trackpoint>
            <Time>2018-04-21T10:23:29.000Z</Time>
            <Position>
              <LatitudeDegrees>43.17468644119799137115478515625</LatitudeDegrees>
              <LongitudeDegrees>-8.295431099832057952880859375</LongitudeDegrees>
            </Position>
            <AltitudeMeters>155.8000030517578125</AltitudeMeters>
            <DistanceMeters>38117.131421348</DistanceMeters>
          </Trackpoint>
          <Trackpoint>
            <Time>2018-04-21T10:23:31.000Z</Time>
            <Position>
              <LatitudeDegrees>43.1745510734617710113525390625</LatitudeDegrees>
              <LongitudeDegrees>-8.29526991583406925201416015625</LongitudeDegrees>
            </Position>
            <AltitudeMeters>155</AltitudeMeters>
            <DistanceMeters>38137.085900064</DistanceMeters>
          </Trackpoint>
          <Trackpoint>
            <Time>2018-04-21T10:23:32.000Z</Time>
            <Position>
              <LatitudeDegrees>43.17448125220835208892822265625</LatitudeDegrees>
              <LongitudeDegrees>-8.2951965741813182830810546875</LongitudeDegrees>
            </Position>
            <AltitudeMeters>155</AltitudeMeters>
            <DistanceMeters>38146.87503543</DistanceMeters>
          </Trackpoint>
          <Trackpoint>
            <Time>2018-04-21T10:23:33.000Z</Time>
            <Position>
              <LatitudeDegrees>43.17441553808748722076416015625</LatitudeDegrees>
              <LongitudeDegrees>-8.2951224781572818756103515625</LongitudeDegrees>
            </Position>
            <AltitudeMeters>154.600006103515625</AltitudeMeters>
            <DistanceMeters>38156.344389109</DistanceMeters>
          </Trackpoint>
          <Trackpoint>
            <Time>2018-04-21T10:23:35.000Z</Time>
            <Position>
              <LatitudeDegrees>43.17427522502839565277099609375</LatitudeDegrees>
              <LongitudeDegrees>-8.294963724911212921142578125</LongitudeDegrees>
            </Position>
            <AltitudeMeters>153.1999969482421875</AltitudeMeters>
            <DistanceMeters>38176.591324193</DistanceMeters>
          </Trackpoint>
          <Trackpoint>
            <Time>2018-04-21T10:23:37.000Z</Time>
            <Position>
              <LatitudeDegrees>43.174136839807033538818359375</LatitudeDegrees>
              <LongitudeDegrees>-8.29478074796497821807861328125</LongitudeDegrees>
            </Position>
            <AltitudeMeters>151.8000030517578125</AltitudeMeters>
            <DistanceMeters>38197.988166851</DistanceMeters>
          </Trackpoint>
          <Trackpoint>
            <Time>2018-04-21T10:23:39.000Z</Time>
            <Position>
              <LatitudeDegrees>43.17400733940303325653076171875</LatitudeDegrees>
              <LongitudeDegrees>-8.294578157365322113037109375</LongitudeDegrees>
            </Position>
            <AltitudeMeters>150.600006103515625</AltitudeMeters>
            <DistanceMeters>38219.855050668</DistanceMeters>
          </Trackpoint>
          <Trackpoint>
            <Time>2018-04-21T10:23:41.000Z</Time>
            <Position>
              <LatitudeDegrees>43.17388177849352359771728515625</LatitudeDegrees>
              <LongitudeDegrees>-8.2943520136177539825439453125</LongitudeDegrees>
            </Position>
            <AltitudeMeters>148.600006103515625</AltitudeMeters>
            <DistanceMeters>38242.925611254</DistanceMeters>
          </Trackpoint>
          <Trackpoint>
            <Time>2018-04-21T10:23:42.000Z</Time>
            <Position>
              <LatitudeDegrees>43.17381874658167362213134765625</LatitudeDegrees>
              <LongitudeDegrees>-8.29424363560974597930908203125</LongitudeDegrees>
            </Position>
            <AltitudeMeters>147.1999969482421875</AltitudeMeters>
            <DistanceMeters>38254.177352086</DistanceMeters>
          </Trackpoint>
          <Trackpoint>
            <Time>2018-04-21T10:23:43.000Z</Time>
            <Position>
              <LatitudeDegrees>43.1737561337649822235107421875</LatitudeDegrees>
              <LongitudeDegrees>-8.294135592877864837646484375</LongitudeDegrees>
            </Position>
            <AltitudeMeters>146.8000030517578125</AltitudeMeters>
            <DistanceMeters>38265.379224352</DistanceMeters>
          </Trackpoint>
          <Trackpoint>
            <Time>2018-04-21T10:23:44.000Z</Time>
            <Position>
              <LatitudeDegrees>43.17369586788117885589599609375</LatitudeDegrees>
              <LongitudeDegrees>-8.29405185766518115997314453125</LongitudeDegrees>
            </Position>
            <AltitudeMeters>145.8000030517578125</AltitudeMeters>
            <DistanceMeters>38274.929290953</DistanceMeters>
          </Trackpoint>
          <Trackpoint>
            <Time>2018-04-21T10:23:45.000Z</Time>
            <Position>
              <LatitudeDegrees>43.1736317463219165802001953125</LatitudeDegrees>
              <LongitudeDegrees>-8.2939845509827136993408203125</LongitudeDegrees>
            </Position>
            <AltitudeMeters>145.1999969482421875</AltitudeMeters>
            <DistanceMeters>38283.917230865</DistanceMeters>
          </Trackpoint>
          <Trackpoint>
            <Time>2018-04-21T10:23:46.000Z</Time>
            <Position>
              <LatitudeDegrees>43.17356041632592678070068359375</LatitudeDegrees>
              <LongitudeDegrees>-8.29393601976335048675537109375</LongitudeDegrees>
            </Position>
            <AltitudeMeters>145.399993896484375</AltitudeMeters>
            <DistanceMeters>38292.779713864</DistanceMeters>
          </Trackpoint>
          <Trackpoint>
            <Time>2018-04-21T10:23:49.000Z</Time>
            <Position>
              <LatitudeDegrees>43.17333309911191463470458984375</LatitudeDegrees>
              <LongitudeDegrees>-8.293881118297576904296875</LongitudeDegrees>
            </Position>
            <AltitudeMeters>146.399993896484375</AltitudeMeters>
            <DistanceMeters>38318.469988817</DistanceMeters>
          </Trackpoint>
          <Trackpoint>
            <Time>2018-04-21T10:23:50.000Z</Time>
            <Position>
              <LatitudeDegrees>43.1732693128287792205810546875</LatitudeDegrees>
              <LongitudeDegrees>-8.29385588876903057098388671875</LongitudeDegrees>
            </Position>
            <AltitudeMeters>146.600006103515625</AltitudeMeters>
            <DistanceMeters>38325.858888747</DistanceMeters>
          </Trackpoint>
          <Trackpoint>
            <Time>2018-04-21T10:23:51.000Z</Time>
            <Position>
              <LatitudeDegrees>43.17321340553462505340576171875</LatitudeDegrees>
              <LongitudeDegrees>-8.29380827955901622772216796875</LongitudeDegrees>
            </Position>
            <AltitudeMeters>146.600006103515625</AltitudeMeters>
            <DistanceMeters>38333.184579452</DistanceMeters>
          </Trackpoint>
          <Trackpoint>
            <Time>2018-04-21T10:23:53.000Z</Time>
            <Position>
              <LatitudeDegrees>43.17311994731426239013671875</LatitudeDegrees>
              <LongitudeDegrees>-8.29366561956703662872314453125</LongitudeDegrees>
            </Position>
            <AltitudeMeters>145.399993896484375</AltitudeMeters>
            <DistanceMeters>38348.750697826</DistanceMeters>
          </Trackpoint>
          <Trackpoint>
            <Time>2018-04-21T10:23:54.000Z</Time>
            <Position>
              <LatitudeDegrees>43.1730755232274532318115234375</LatitudeDegrees>
              <LongitudeDegrees>-8.2935882546007633209228515625</LongitudeDegrees>
            </Position>
            <AltitudeMeters>144.399993896484375</AltitudeMeters>
            <DistanceMeters>38356.743116782</DistanceMeters>
          </Trackpoint>
          <Trackpoint>
            <Time>2018-04-21T10:23:57.000Z</Time>
            <Position>
              <LatitudeDegrees>43.17299463786184787750244140625</LatitudeDegrees>
              <LongitudeDegrees>-8.29333989880979061126708984375</LongitudeDegrees>
            </Position>
            <AltitudeMeters>144.399993896484375</AltitudeMeters>
            <DistanceMeters>38378.821240036</DistanceMeters>
          </Trackpoint>
          <Trackpoint>
            <Time>2018-04-21T10:23:59.000Z</Time>
            <Position>
              <LatitudeDegrees>43.17294065840542316436767578125</LatitudeDegrees>
              <LongitudeDegrees>-8.29323646612465381622314453125</LongitudeDegrees>
            </Position>
            <AltitudeMeters>145.399993896484375</AltitudeMeters>
            <DistanceMeters>38389.145532862</DistanceMeters>
          </Trackpoint>
          <Trackpoint>
            <Time>2018-04-21T10:24:00.000Z</Time>
            <Position>
              <LatitudeDegrees>43.17290847189724445343017578125</LatitudeDegrees>
              <LongitudeDegrees>-8.2932078838348388671875</LongitudeDegrees>
            </Position>
            <AltitudeMeters>146</AltitudeMeters>
            <DistanceMeters>38393.414337643</DistanceMeters>
          </Trackpoint>
          <Trackpoint>
            <Time>2018-04-21T10:24:03.000Z</Time>
            <Position>
              <LatitudeDegrees>43.17282482050359249114990234375</LatitudeDegrees>
              <LongitudeDegrees>-8.2931523956358432769775390625</LongitudeDegrees>
            </Position>
            <AltitudeMeters>146.600006103515625</AltitudeMeters>
            <DistanceMeters>38403.757418211</DistanceMeters>
          </Trackpoint>
          <Trackpoint>
            <Time>2018-04-21T10:24:04.000Z</Time>
            <Position>
              <LatitudeDegrees>43.1727969087660312652587890625</LatitudeDegrees>
              <LongitudeDegrees>-8.29313990660011768341064453125</LongitudeDegrees>
            </Position>
            <AltitudeMeters>146.8000030517578125</AltitudeMeters>
            <DistanceMeters>38407.02445821</DistanceMeters>
          </Trackpoint>
          <Trackpoint>
            <Time>2018-04-21T10:24:05.000Z</Time>
            <Position>
              <LatitudeDegrees>43.17276849411427974700927734375</LatitudeDegrees>
              <LongitudeDegrees>-8.29312398098409175872802734375</LongitudeDegrees>
            </Position>
            <AltitudeMeters>147.1999969482421875</AltitudeMeters>
            <DistanceMeters>38410.440136586</DistanceMeters>
          </Trackpoint>
          <Trackpoint>
            <Time>2018-04-21T10:24:07.000Z</Time>
            <Position>
              <LatitudeDegrees>43.17270395345985889434814453125</LatitudeDegrees>
              <LongitudeDegrees>-8.2931088097393512725830078125</LongitudeDegrees>
            </Position>
            <AltitudeMeters>147.600006103515625</AltitudeMeters>
            <DistanceMeters>38417.729373157</DistanceMeters>
          </Trackpoint>
          <Trackpoint>
            <Time>2018-04-21T10:24:09.000Z</Time>
            <Position>
              <LatitudeDegrees>43.172629438340663909912109375</LatitudeDegrees>
              <LongitudeDegrees>-8.29310595989227294921875</LongitudeDegrees>
            </Position>
            <AltitudeMeters>147.8000030517578125</AltitudeMeters>
            <DistanceMeters>38426.026680119</DistanceMeters>
          </Trackpoint>
          <Trackpoint>
            <Time>2018-04-21T10:24:11.000Z</Time>
            <Position>
              <LatitudeDegrees>43.17254955880343914031982421875</LatitudeDegrees>
              <LongitudeDegrees>-8.2931252382695674896240234375</LongitudeDegrees>
            </Position>
            <AltitudeMeters>148.600006103515625</AltitudeMeters>
            <DistanceMeters>38435.053717829</DistanceMeters>
          </Trackpoint>
          <Trackpoint>
            <Time>2018-04-21T10:24:13.000Z</Time>
            <Position>
              <LatitudeDegrees>43.1724755465984344482421875</LatitudeDegrees>
              <LongitudeDegrees>-8.29314644448459148406982421875</LongitudeDegrees>
            </Position>
            <AltitudeMeters>148.600006103515625</AltitudeMeters>
            <DistanceMeters>38443.469351469</DistanceMeters>
          </Trackpoint>
          <Trackpoint>
            <Time>2018-04-21T10:24:14.000Z</Time>
            <Position>
              <LatitudeDegrees>43.172443695366382598876953125</LatitudeDegrees>
              <LongitudeDegrees>-8.2931584306061267852783203125</LongitudeDegrees>
            </Position>
            <AltitudeMeters>149</AltitudeMeters>
            <DistanceMeters>38447.147265893</DistanceMeters>
          </Trackpoint>
          <Trackpoint>
            <Time>2018-04-21T10:24:16.000Z</Time>
            <Position>
              <LatitudeDegrees>43.17239047028124332427978515625</LatitudeDegrees>
              <LongitudeDegrees>-8.29315616749227046966552734375</LongitudeDegrees>
            </Position>
            <AltitudeMeters>149.399993896484375</AltitudeMeters>
            <DistanceMeters>38453.074069194</DistanceMeters>
          </Trackpoint>
          <Trackpoint>
            <Time>2018-04-21T10:24:17.000Z</Time>
            <Position>
              <LatitudeDegrees>43.17237353883683681488037109375</LatitudeDegrees>
              <LongitudeDegrees>-8.29312716610729694366455078125</LongitudeDegrees>
            </Position>
            <AltitudeMeters>149</AltitudeMeters>
            <DistanceMeters>38456.089576942</DistanceMeters>
          </Trackpoint>
          <Trackpoint>
            <Time>2018-04-21T10:24:20.000Z</Time>
            <Position>
              <LatitudeDegrees>43.17233799956738948822021484375</LatitudeDegrees>
              <LongitudeDegrees>-8.29296573065221309661865234375</LongitudeDegrees>
            </Position>
            <AltitudeMeters>147.399993896484375</AltitudeMeters>
            <DistanceMeters>38469.777712539</DistanceMeters>
          </Trackpoint>
          <Trackpoint>
            <Time>2018-04-21T10:24:21.000Z</Time>
            <Position>
              <LatitudeDegrees>43.17232140339910984039306640625</LatitudeDegrees>
              <LongitudeDegrees>-8.29289884306490421295166015625</LongitudeDegrees>
            </Position>
            <AltitudeMeters>146.8000030517578125</AltitudeMeters>
            <DistanceMeters>38475.513265563</DistanceMeters>
          </Trackpoint>
          <Trackpoint>
            <Time>2018-04-21T10:24:22.000Z</Time>
            <Position>
              <LatitudeDegrees>43.17229919135570526123046875</LatitudeDegrees>
              <LongitudeDegrees>-8.292824327945709228515625</LongitudeDegrees>
            </Position>
            <AltitudeMeters>146</AltitudeMeters>
            <DistanceMeters>38482.047345561</DistanceMeters>
          </Trackpoint>
          <Trackpoint>
            <Time>2018-04-21T10:24:25.000Z</Time>
            <Position>
              <LatitudeDegrees>43.17222383804619312286376953125</LatitudeDegrees>
              <LongitudeDegrees>-8.29259022139012813568115234375</LongitudeDegrees>
            </Position>
            <AltitudeMeters>144.600006103515625</AltitudeMeters>
            <DistanceMeters>38502.818889859</DistanceMeters>
          </Trackpoint>
          <Trackpoint>
            <Time>2018-04-21T10:24:26.000Z</Time>
            <Position>
              <LatitudeDegrees>43.1721940822899341583251953125</LatitudeDegrees>
              <LongitudeDegrees>-8.292506150901317596435546875</LongitudeDegrees>
            </Position>
            <AltitudeMeters>144.8000030517578125</AltitudeMeters>
            <DistanceMeters>38510.404379105</DistanceMeters>
          </Trackpoint>
          <Trackpoint>
            <Time>2018-04-21T10:24:30.000Z</Time>
            <Position>
              <LatitudeDegrees>43.172058798372745513916015625</LatitudeDegrees>
              <LongitudeDegrees>-8.29209317453205585479736328125</LongitudeDegrees>
            </Position>
            <AltitudeMeters>140.8000030517578125</AltitudeMeters>
            <DistanceMeters>38547.153311776</DistanceMeters>
          </Trackpoint>
          <Trackpoint>
            <Time>2018-04-21T10:24:31.000Z</Time>
            <Position>
              <LatitudeDegrees>43.1720150448381900787353515625</LatitudeDegrees>
              <LongitudeDegrees>-8.29196375794708728790283203125</LongitudeDegrees>
            </Position>
            <AltitudeMeters>137.1999969482421875</AltitudeMeters>
            <DistanceMeters>38558.732542106</DistanceMeters>
          </Trackpoint>
          <Trackpoint>
            <Time>2018-04-21T10:24:32.000Z</Time>
            <Position>
              <LatitudeDegrees>43.1719724647700786590576171875</LatitudeDegrees>
              <LongitudeDegrees>-8.2918252050876617431640625</LongitudeDegrees>
            </Position>
            <AltitudeMeters>135.8000030517578125</AltitudeMeters>
            <DistanceMeters>38570.937464926</DistanceMeters>
          </Trackpoint>
          <Trackpoint>
            <Time>2018-04-21T10:24:34.000Z</Time>
            <Position>
              <LatitudeDegrees>43.171895183622837066650390625</LatitudeDegrees>
              <LongitudeDegrees>-8.29156544990837574005126953125</LongitudeDegrees>
            </Position>
            <AltitudeMeters>134.399993896484375</AltitudeMeters>
            <DistanceMeters>38593.709403136</DistanceMeters>
          </Trackpoint>
          <Trackpoint>
            <Time>2018-04-21T10:24:35.000Z</Time>
            <Position>
              <LatitudeDegrees>43.17186576314270496368408203125</LatitudeDegrees>
              <LongitudeDegrees>-8.29144944436848163604736328125</LongitudeDegrees>
            </Position>
            <AltitudeMeters>133.1999969482421875</AltitudeMeters>
            <DistanceMeters>38603.679512539</DistanceMeters>
          </Trackpoint>
          <Trackpoint>
            <Time>2018-04-21T10:24:36.000Z</Time>
            <Position>
              <LatitudeDegrees>43.1718457303941249847412109375</LatitudeDegrees>
              <LongitudeDegrees>-8.29134785570204257965087890625</LongitudeDegrees>
            </Position>
            <AltitudeMeters>132</AltitudeMeters>
            <DistanceMeters>38612.221351782</DistanceMeters>
          </Trackpoint>
          <Trackpoint>
            <Time>2018-04-21T10:24:37.000Z</Time>
            <Position>
              <LatitudeDegrees>43.1718356721103191375732421875</LatitudeDegrees>
              <LongitudeDegrees>-8.2912429980933666229248046875</LongitudeDegrees>
            </Position>
            <AltitudeMeters>131.399993896484375</AltitudeMeters>
            <DistanceMeters>38620.805899171</DistanceMeters>
          </Trackpoint>
          <Trackpoint>
            <Time>2018-04-21T10:24:38.000Z</Time>
            <Position>
              <LatitudeDegrees>43.1718215905129909515380859375</LatitudeDegrees>
              <LongitudeDegrees>-8.2911310158669948577880859375</LongitudeDegrees>
            </Position>
            <AltitudeMeters>129.8000030517578125</AltitudeMeters>
            <DistanceMeters>38630.029856036</DistanceMeters>
          </Trackpoint>
          <Trackpoint>
            <Time>2018-04-21T10:24:39.000Z</Time>
            <Position>
              <LatitudeDegrees>43.171796612441539764404296875</LatitudeDegrees>
              <LongitudeDegrees>-8.29101241193711757659912109375</LongitudeDegrees>
            </Position>
            <AltitudeMeters>128.1999969482421875</AltitudeMeters>
            <DistanceMeters>38640.051007673</DistanceMeters>
          </Trackpoint>
          <Trackpoint>
            <Time>2018-04-21T10:24:40.000Z</Time>
            <Position>
              <LatitudeDegrees>43.171766102313995361328125</LatitudeDegrees>
              <LongitudeDegrees>-8.29089791513979434967041015625</LongitudeDegrees>
            </Position>
            <AltitudeMeters>126.40000152587890625</AltitudeMeters>
            <DistanceMeters>38649.946569757</DistanceMeters>
          </Trackpoint>
          <Trackpoint>
            <Time>2018-04-21T10:24:41.000Z</Time>
            <Position>
              <LatitudeDegrees>43.171698711812496185302734375</LatitudeDegrees>
              <LongitudeDegrees>-8.29077688045799732208251953125</LongitudeDegrees>
            </Position>
            <AltitudeMeters>124.8000030517578125</AltitudeMeters>
            <DistanceMeters>38662.306984934</DistanceMeters>
          </Trackpoint>
          <Trackpoint>
            <Time>2018-04-21T10:24:42.000Z</Time>
            <Position>
              <LatitudeDegrees>43.17162838764488697052001953125</LatitudeDegrees>
              <LongitudeDegrees>-8.2906572706997394561767578125</LongitudeDegrees>
            </Position>
            <AltitudeMeters>123.40000152587890625</AltitudeMeters>
            <DistanceMeters>38674.778313519</DistanceMeters>
          </Trackpoint>
          <Trackpoint>
            <Time>2018-04-21T10:24:43.000Z</Time>
            <Position>
              <LatitudeDegrees>43.17155814729630947113037109375</LatitudeDegrees>
              <LongitudeDegrees>-8.29053212888538837432861328125</LongitudeDegrees>
            </Position>
            <AltitudeMeters>123.1999969482421875</AltitudeMeters>
            <DistanceMeters>38687.596709323</DistanceMeters>
          </Trackpoint>
          <Trackpoint>
            <Time>2018-04-21T10:24:46.000Z</Time>
            <Position>
              <LatitudeDegrees>43.1713994778692722320556640625</LatitudeDegrees>
              <LongitudeDegrees>-8.29020984470844268798828125</LongitudeDegrees>
            </Position>
            <AltitudeMeters>122</AltitudeMeters>
            <DistanceMeters>38719.160744775</DistanceMeters>
          </Trackpoint>
          <Trackpoint>
            <Time>2018-04-21T10:24:47.000Z</Time>
            <Position>
              <LatitudeDegrees>43.17137181758880615234375</LatitudeDegrees>
              <LongitudeDegrees>-8.29011923633515834808349609375</LongitudeDegrees>
            </Position>
            <AltitudeMeters>119.8000030517578125</AltitudeMeters>
            <DistanceMeters>38727.133933483</DistanceMeters>
          </Trackpoint>
          <Trackpoint>
            <Time>2018-04-21T10:24:48.000Z</Time>
            <Position>
              <LatitudeDegrees>43.17135865800082683563232421875</LatitudeDegrees>
              <LongitudeDegrees>-8.29001915641129016876220703125</LongitudeDegrees>
            </Position>
            <AltitudeMeters>118.1999969482421875</AltitudeMeters>
            <DistanceMeters>38735.388687074</DistanceMeters>
          </Trackpoint>
          <Trackpoint>
            <Time>2018-04-21T10:24:49.000Z</Time>
            <Position>
              <LatitudeDegrees>43.17135983146727085113525390625</LatitudeDegrees>
              <LongitudeDegrees>-8.28990331850945949554443359375</LongitudeDegrees>
            </Position>
            <AltitudeMeters>116.1999969482421875</AltitudeMeters>
            <DistanceMeters>38744.792011408</DistanceMeters>
          </Trackpoint>
          <Trackpoint>
            <Time>2018-04-21T10:24:50.000Z</Time>
            <Position>
              <LatitudeDegrees>43.17137877456843852996826171875</LatitudeDegrees>
              <LongitudeDegrees>-8.289761580526828765869140625</LongitudeDegrees>
            </Position>
            <AltitudeMeters>115</AltitudeMeters>
            <DistanceMeters>38756.489178513</DistanceMeters>
          </Trackpoint>
          <Trackpoint>
            <Time>2018-04-21T10:24:51.000Z</Time>
            <Position>
              <LatitudeDegrees>43.171398974955081939697265625</LatitudeDegrees>
              <LongitudeDegrees>-8.28960911370813846588134765625</LongitudeDegrees>
            </Position>
            <AltitudeMeters>113.1999969482421875</AltitudeMeters>
            <DistanceMeters>38769.068289353</DistanceMeters>
          </Trackpoint>
          <Trackpoint>
            <Time>2018-04-21T10:24:52.000Z</Time>
            <Position>
              <LatitudeDegrees>43.171422779560089111328125</LatitudeDegrees>
              <LongitudeDegrees>-8.2894516177475452423095703125</LongitudeDegrees>
            </Position>
            <AltitudeMeters>110.40000152587890625</AltitudeMeters>
            <DistanceMeters>38782.12435128</DistanceMeters>
          </Trackpoint>
          <Trackpoint>
            <Time>2018-04-21T10:24:53.000Z</Time>
            <Position>
              <LatitudeDegrees>43.1714541278779506683349609375</LatitudeDegrees>
              <LongitudeDegrees>-8.2892876677215099334716796875</LongitudeDegrees>
            </Position>
            <AltitudeMeters>108.40000152587890625</AltitudeMeters>
            <DistanceMeters>38795.882237467</DistanceMeters>
          </Trackpoint>
          <Trackpoint>
            <Time>2018-04-21T10:24:55.000Z</Time>
            <Position>
              <LatitudeDegrees>43.17153015173971652984619140625</LatitudeDegrees>
              <LongitudeDegrees>-8.288934119045734405517578125</LongitudeDegrees>
            </Position>
            <AltitudeMeters>107.1999969482421875</AltitudeMeters>
            <DistanceMeters>38825.802526879</DistanceMeters>
          </Trackpoint>
          <Trackpoint>
            <Time>2018-04-21T10:24:56.000Z</Time>
            <Position>
              <LatitudeDegrees>43.17157373763620853424072265625</LatitudeDegrees>
              <LongitudeDegrees>-8.2887455262243747711181640625</LongitudeDegrees>
            </Position>
            <AltitudeMeters>106</AltitudeMeters>
            <DistanceMeters>38841.861760461</DistanceMeters>
          </Trackpoint>
          <Trackpoint>
            <Time>2018-04-21T10:24:57.000Z</Time>
            <Position>
              <LatitudeDegrees>43.1716174073517322540283203125</LatitudeDegrees>
              <LongitudeDegrees>-8.2885517366230487823486328125</LongitudeDegrees>
            </Position>
            <AltitudeMeters>103</AltitudeMeters>
            <DistanceMeters>38858.32580719</DistanceMeters>
          </Trackpoint>
          <Trackpoint>
            <Time>2018-04-21T10:24:58.000Z</Time>
            <Position>
              <LatitudeDegrees>43.1716589815914630889892578125</LatitudeDegrees>
              <LongitudeDegrees>-8.28837060369551181793212890625</LongitudeDegrees>
            </Position>
            <AltitudeMeters>100.59999847412109375</AltitudeMeters>
            <DistanceMeters>38873.739772978</DistanceMeters>
          </Trackpoint>
          <Trackpoint>
            <Time>2018-04-21T10:24:59.000Z</Time>
            <Position>
              <LatitudeDegrees>43.17168890498578548431396484375</LatitudeDegrees>
              <LongitudeDegrees>-8.28821361064910888671875</LongitudeDegrees>
            </Position>
            <AltitudeMeters>96.8000030517578125</AltitudeMeters>
            <DistanceMeters>38886.911174902</DistanceMeters>
          </Trackpoint>
          <Trackpoint>
            <Time>2018-04-21T10:25:00.000Z</Time>
            <Position>
              <LatitudeDegrees>43.1717097759246826171875</LatitudeDegrees>
              <LongitudeDegrees>-8.2880689390003681182861328125</LongitudeDegrees>
            </Position>
            <AltitudeMeters>95</AltitudeMeters>
            <DistanceMeters>38898.882278158</DistanceMeters>
          </Trackpoint>
          <Trackpoint>
            <Time>2018-04-21T10:25:01.000Z</Time>
            <Position>
              <LatitudeDegrees>43.1717240251600742340087890625</LatitudeDegrees>
              <LongitudeDegrees>-8.28792594373226165771484375</LongitudeDegrees>
            </Position>
            <AltitudeMeters>92.40000152587890625</AltitudeMeters>
            <DistanceMeters>38910.597958333</DistanceMeters>
          </Trackpoint>
          <Trackpoint>
            <Time>2018-04-21T10:25:03.000Z</Time>
            <Position>
              <LatitudeDegrees>43.17171287722885608673095703125</LatitudeDegrees>
              <LongitudeDegrees>-8.28766736201941967010498046875</LongitudeDegrees>
            </Position>
            <AltitudeMeters>93</AltitudeMeters>
            <DistanceMeters>38931.624430759</DistanceMeters>
          </Trackpoint>
          <Trackpoint>
            <Time>2018-04-21T10:25:04.000Z</Time>
            <Position>
              <LatitudeDegrees>43.17168035544455051422119140625</LatitudeDegrees>
              <LongitudeDegrees>-8.28754750080406665802001953125</LongitudeDegrees>
            </Position>
            <AltitudeMeters>93</AltitudeMeters>
            <DistanceMeters>38942.0049848</DistanceMeters>
          </Trackpoint>
          <Trackpoint>
            <Time>2018-04-21T10:25:06.000Z</Time>
            <Position>
              <LatitudeDegrees>43.1716019846498966217041015625</LatitudeDegrees>
              <LongitudeDegrees>-8.2873320020735263824462890625</LongitudeDegrees>
            </Position>
            <AltitudeMeters>93.59999847412109375</AltitudeMeters>
            <DistanceMeters>38961.551635777</DistanceMeters>
          </Trackpoint>
          <Trackpoint>
            <Time>2018-04-21T10:25:07.000Z</Time>
            <Position>
              <LatitudeDegrees>43.1715689599514007568359375</LatitudeDegrees>
              <LongitudeDegrees>-8.28725094906985759735107421875</LongitudeDegrees>
            </Position>
            <AltitudeMeters>94.1999969482421875</AltitudeMeters>
            <DistanceMeters>38969.088158904</DistanceMeters>
          </Trackpoint>
          <Trackpoint>
            <Time>2018-04-21T10:25:08.000Z</Time>
            <Position>
              <LatitudeDegrees>43.1715662777423858642578125</LatitudeDegrees>
              <LongitudeDegrees>-8.28719076700508594512939453125</LongitudeDegrees>
            </Position>
            <AltitudeMeters>95.40000152587890625</AltitudeMeters>
            <DistanceMeters>38973.981804041</DistanceMeters>
          </Trackpoint>
          <Trackpoint>
            <Time>2018-04-21T10:25:10.000Z</Time>
            <Position>
              <LatitudeDegrees>43.17159569822251796722412109375</LatitudeDegrees>
              <LongitudeDegrees>-8.28710661269724369049072265625</LongitudeDegrees>
            </Position>
            <AltitudeMeters>96.40000152587890625</AltitudeMeters>
            <DistanceMeters>38981.557763774</DistanceMeters>
          </Trackpoint>
          <Trackpoint>
            <Time>2018-04-21T10:25:11.000Z</Time>
            <Position>
              <LatitudeDegrees>43.17161430604755878448486328125</LatitudeDegrees>
              <LongitudeDegrees>-8.28707023523747920989990234375</LongitudeDegrees>
            </Position>
            <AltitudeMeters>97.1999969482421875</AltitudeMeters>
            <DistanceMeters>38985.163774046</DistanceMeters>
          </Trackpoint>
          <Trackpoint>
            <Time>2018-04-21T10:25:12.000Z</Time>
            <Position>
              <LatitudeDegrees>43.1716324947774410247802734375</LatitudeDegrees>
              <LongitudeDegrees>-8.2870393060147762298583984375</LongitudeDegrees>
            </Position>
            <AltitudeMeters>97.59999847412109375</AltitudeMeters>
            <DistanceMeters>38988.389087684</DistanceMeters>
          </Trackpoint>
          <Trackpoint>
            <Time>2018-04-21T10:25:14.000Z</Time>
            <Position>
              <LatitudeDegrees>43.1716717220842838287353515625</LatitudeDegrees>
              <LongitudeDegrees>-8.2869903557002544403076171875</LongitudeDegrees>
            </Position>
            <AltitudeMeters>98.1999969482421875</AltitudeMeters>
            <DistanceMeters>38994.291463046</DistanceMeters>
          </Trackpoint>
          <Trackpoint>
            <Time>2018-04-21T10:25:15.000Z</Time>
            <Position>
              <LatitudeDegrees>43.17169862799346446990966796875</LatitudeDegrees>
              <LongitudeDegrees>-8.28696973621845245361328125</LongitudeDegrees>
            </Position>
            <AltitudeMeters>98.8000030517578125</AltitudeMeters>
            <DistanceMeters>38997.72165103</DistanceMeters>
          </Trackpoint>
          <Trackpoint>
            <Time>2018-04-21T10:25:16.000Z</Time>
            <Position>
              <LatitudeDegrees>43.1717236898839473724365234375</LatitudeDegrees>
              <LongitudeDegrees>-8.2869440875947475433349609375</LongitudeDegrees>
            </Position>
            <AltitudeMeters>99</AltitudeMeters>
            <DistanceMeters>39001.201497652</DistanceMeters>
          </Trackpoint>
          <Trackpoint>
            <Time>2018-04-21T10:25:18.000Z</Time>
            <Position>
              <LatitudeDegrees>43.17177255637943744659423828125</LatitudeDegrees>
              <LongitudeDegrees>-8.28688264824450016021728515625</LongitudeDegrees>
            </Position>
            <AltitudeMeters>99.59999847412109375</AltitudeMeters>
            <DistanceMeters>39008.581226037</DistanceMeters>
          </Trackpoint>
          <Trackpoint>
            <Time>2018-04-21T10:25:19.000Z</Time>
            <Position>
              <LatitudeDegrees>43.17179837264120578765869140625</LatitudeDegrees>
              <LongitudeDegrees>-8.28684979118406772613525390625</LongitudeDegrees>
            </Position>
            <AltitudeMeters>100</AltitudeMeters>
            <DistanceMeters>39012.501581902</DistanceMeters>
          </Trackpoint>
          <Trackpoint>
            <Time>2018-04-21T10:25:21.000Z</Time>
            <Position>
              <LatitudeDegrees>43.17185771651566028594970703125</LatitudeDegrees>
              <LongitudeDegrees>-8.28679271042346954345703125</LongitudeDegrees>
            </Position>
            <AltitudeMeters>100.59999847412109375</AltitudeMeters>
            <DistanceMeters>39020.569903976</DistanceMeters>
          </Trackpoint>
          <Trackpoint>
            <Time>2018-04-21T10:25:23.000Z</Time>
            <Position>
              <LatitudeDegrees>43.1719194911420345306396484375</LatitudeDegrees>
              <LongitudeDegrees>-8.2867358811199665069580078125</LongitudeDegrees>
            </Position>
            <AltitudeMeters>100.8000030517578125</AltitudeMeters>
            <DistanceMeters>39028.84923428</DistanceMeters>
          </Trackpoint>
          <Trackpoint>
            <Time>2018-04-21T10:25:25.000Z</Time>
            <Position>
              <LatitudeDegrees>43.17199719138443470001220703125</LatitudeDegrees>
              <LongitudeDegrees>-8.28671819530427455902099609375</LongitudeDegrees>
            </Position>
            <AltitudeMeters>101.59999847412109375</AltitudeMeters>
            <DistanceMeters>39037.61541649</DistanceMeters>
          </Trackpoint>
          <Trackpoint>
            <Time>2018-04-21T10:25:27.000Z</Time>
            <Position>
              <LatitudeDegrees>43.17207522690296173095703125</LatitudeDegrees>
              <LongitudeDegrees>-8.286711908876895904541015625</LongitudeDegrees>
            </Position>
            <AltitudeMeters>102.1999969482421875</AltitudeMeters>
            <DistanceMeters>39046.315941234</DistanceMeters>
          </Trackpoint>
          <Trackpoint>
            <Time>2018-04-21T10:25:30.000Z</Time>
            <Position>
              <LatitudeDegrees>43.17219533957540988922119140625</LatitudeDegrees>
              <LongitudeDegrees>-8.28672104515135288238525390625</LongitudeDegrees>
            </Position>
            <AltitudeMeters>101.8000030517578125</AltitudeMeters>
            <DistanceMeters>39059.705269359</DistanceMeters>
          </Trackpoint>
          <Trackpoint>
            <Time>2018-04-21T10:25:35.000Z</Time>
            <Position>
              <LatitudeDegrees>43.1724076531827449798583984375</LatitudeDegrees>
              <LongitudeDegrees>-8.28674585558474063873291015625</LongitudeDegrees>
            </Position>
            <AltitudeMeters>102</AltitudeMeters>
            <DistanceMeters>39083.421812776</DistanceMeters>
          </Trackpoint>
          <Trackpoint>
            <Time>2018-04-21T10:25:37.000Z</Time>
            <Position>
              <LatitudeDegrees>43.17249507643282413482666015625</LatitudeDegrees>
              <LongitudeDegrees>-8.286750130355358123779296875</LongitudeDegrees>
            </Position>
            <AltitudeMeters>100</AltitudeMeters>
            <DistanceMeters>39093.158226002</DistanceMeters>
          </Trackpoint>
          <Trackpoint>
            <Time>2018-04-21T10:25:39.000Z</Time>
            <Position>
              <LatitudeDegrees>43.17257738672196865081787109375</LatitudeDegrees>
              <LongitudeDegrees>-8.286741413176059722900390625</LongitudeDegrees>
            </Position>
            <AltitudeMeters>101.40000152587890625</AltitudeMeters>
            <DistanceMeters>39102.346380586</DistanceMeters>
          </Trackpoint>
          <Trackpoint>
            <Time>2018-04-21T10:25:40.000Z</Time>
            <Position>
              <LatitudeDegrees>43.17261627875268459320068359375</LatitudeDegrees>
              <LongitudeDegrees>-8.2867311872541904449462890625</LongitudeDegrees>
            </Position>
            <AltitudeMeters>102.40000152587890625</AltitudeMeters>
            <DistanceMeters>39106.754636989</DistanceMeters>
          </Trackpoint>
          <Trackpoint>
            <Time>2018-04-21T10:25:42.000Z</Time>
            <Position>
              <LatitudeDegrees>43.172683417797088623046875</LatitudeDegrees>
              <LongitudeDegrees>-8.28670361079275608062744140625</LongitudeDegrees>
            </Position>
            <AltitudeMeters>101.8000030517578125</AltitudeMeters>
            <DistanceMeters>39114.555514193</DistanceMeters>
          </Trackpoint>
          <Trackpoint>
            <Time>2018-04-21T10:25:44.000Z</Time>
            <Position>
              <LatitudeDegrees>43.17274737171828746795654296875</LatitudeDegrees>
              <LongitudeDegrees>-8.28668198548257350921630859375</LongitudeDegrees>
            </Position>
            <AltitudeMeters>104.1999969482421875</AltitudeMeters>
            <DistanceMeters>39121.886749764</DistanceMeters>
          </Trackpoint>
          <Trackpoint>
            <Time>2018-04-21T10:25:49.000Z</Time>
            <Position>
              <LatitudeDegrees>43.1729001738131046295166015625</LatitudeDegrees>
              <LongitudeDegrees>-8.28662498854100704193115234375</LongitudeDegrees>
            </Position>
            <AltitudeMeters>104.40000152587890625</AltitudeMeters>
            <DistanceMeters>39139.512092025</DistanceMeters>
          </Trackpoint>
          <Trackpoint>
            <Time>2018-04-21T10:25:53.000Z</Time>
            <Position>
              <LatitudeDegrees>43.1730158440768718719482421875</LatitudeDegrees>
              <LongitudeDegrees>-8.286682404577732086181640625</LongitudeDegrees>
            </Position>
            <AltitudeMeters>105.1999969482421875</AltitudeMeters>
            <DistanceMeters>39153.204185256</DistanceMeters>
          </Trackpoint>
          <Trackpoint>
            <Time>2018-04-21T10:25:57.000Z</Time>
            <Position>
              <LatitudeDegrees>43.173095472157001495361328125</LatitudeDegrees>
              <LongitudeDegrees>-8.28679078258574008941650390625</LongitudeDegrees>
            </Position>
            <AltitudeMeters>106.1999969482421875</AltitudeMeters>
            <DistanceMeters>39165.691433153</DistanceMeters>
          </Trackpoint>
          <Trackpoint>
            <Time>2018-04-21T10:25:59.000Z</Time>
            <Position>
              <LatitudeDegrees>43.1731211207807064056396484375</LatitudeDegrees>
              <LongitudeDegrees>-8.28686236403882503509521484375</LongitudeDegrees>
            </Position>
            <AltitudeMeters>105.1999969482421875</AltitudeMeters>
            <DistanceMeters>39172.164419689</DistanceMeters>
          </Trackpoint>
          <Trackpoint>
            <Time>2018-04-21T10:26:00.000Z</Time>
            <Position>
              <LatitudeDegrees>43.17313201725482940673828125</LatitudeDegrees>
              <LongitudeDegrees>-8.28690527938306331634521484375</LongitudeDegrees>
            </Position>
            <AltitudeMeters>106.1999969482421875</AltitudeMeters>
            <DistanceMeters>39175.854589777</DistanceMeters>
          </Trackpoint>
          <Trackpoint>
            <Time>2018-04-21T10:26:01.000Z</Time>
            <Position>
              <LatitudeDegrees>43.1731434166431427001953125</LatitudeDegrees>
              <LongitudeDegrees>-8.28694836236536502838134765625</LongitudeDegrees>
            </Position>
            <AltitudeMeters>104.1999969482421875</AltitudeMeters>
            <DistanceMeters>39179.574008698</DistanceMeters>
          </Trackpoint>
          <Trackpoint>
            <Time>2018-04-21T10:26:02.000Z</Time>
            <Position>
              <LatitudeDegrees>43.17315456457436084747314453125</LatitudeDegrees>
              <LongitudeDegrees>-8.286990858614444732666015625</LongitudeDegrees>
            </Position>
            <AltitudeMeters>107.59999847412109375</AltitudeMeters>
            <DistanceMeters>39183.239626484</DistanceMeters>
          </Trackpoint>
          <Trackpoint>
            <Time>2018-04-21T10:26:03.000Z</Time>
            <Position>
              <LatitudeDegrees>43.17316579632461071014404296875</LatitudeDegrees>
              <LongitudeDegrees>-8.28703503124415874481201171875</LongitudeDegrees>
            </Position>
            <AltitudeMeters>106.1999969482421875</AltitudeMeters>
            <DistanceMeters>39187.037129885</DistanceMeters>
          </Trackpoint>
          <Trackpoint>
            <Time>2018-04-21T10:26:04.000Z</Time>
            <Position>
              <LatitudeDegrees>43.1731754355132579803466796875</LatitudeDegrees>
              <LongitudeDegrees>-8.287079371511936187744140625</LongitudeDegrees>
            </Position>
            <AltitudeMeters>108.59999847412109375</AltitudeMeters>
            <DistanceMeters>39190.791587146</DistanceMeters>
          </Trackpoint>
          <Trackpoint>
            <Time>2018-04-21T10:26:08.000Z</Time>
            <Position>
              <LatitudeDegrees>43.17322346381843090057373046875</LatitudeDegrees>
              <LongitudeDegrees>-8.28723133541643619537353515625</LongitudeDegrees>
            </Position>
            <AltitudeMeters>107.40000152587890625</AltitudeMeters>
            <DistanceMeters>39204.235432579</DistanceMeters>
          </Trackpoint>
          <Trackpoint>
            <Time>2018-04-21T10:26:09.000Z</Time>
            <Position>
              <LatitudeDegrees>43.17323260009288787841796875</LatitudeDegrees>
              <LongitudeDegrees>-8.28727307729423046112060546875</LongitudeDegrees>
            </Position>
            <AltitudeMeters>108.40000152587890625</AltitudeMeters>
            <DistanceMeters>39207.773184118</DistanceMeters>
          </Trackpoint>
          <Trackpoint>
            <Time>2018-04-21T10:26:14.000Z</Time>
            <Position>
              <LatitudeDegrees>43.17329353652894496917724609375</LatitudeDegrees>
              <LongitudeDegrees>-8.28743887133896350860595703125</LongitudeDegrees>
            </Position>
            <AltitudeMeters>109.59999847412109375</AltitudeMeters>
            <DistanceMeters>39222.843234635</DistanceMeters>
          </Trackpoint>
          <Trackpoint>
            <Time>2018-04-21T10:26:15.000Z</Time>
            <Position>
              <LatitudeDegrees>43.17330342717468738555908203125</LatitudeDegrees>
              <LongitudeDegrees>-8.28746326267719268798828125</LongitudeDegrees>
            </Position>
            <AltitudeMeters>109.8000030517578125</AltitudeMeters>
            <DistanceMeters>39225.107982616</DistanceMeters>
          </Trackpoint>
          <Trackpoint>
            <Time>2018-04-21T10:26:20.000Z</Time>
            <Position>
              <LatitudeDegrees>43.17333879880607128143310546875</LatitudeDegrees>
              <LongitudeDegrees>-8.28752704896032810211181640625</LongitudeDegrees>
            </Position>
            <AltitudeMeters>110.40000152587890625</AltitudeMeters>
            <DistanceMeters>39231.612975946</DistanceMeters>
          </Trackpoint>
          <Trackpoint>
            <Time>2018-04-21T10:26:23.000Z</Time>
            <Position>
              <LatitudeDegrees>43.17330124787986278533935546875</LatitudeDegrees>
              <LongitudeDegrees>-8.28751615248620510101318359375</LongitudeDegrees>
            </Position>
            <AltitudeMeters>110</AltitudeMeters>
            <DistanceMeters>39235.886009361</DistanceMeters>
          </Trackpoint>
          <Trackpoint>
            <Time>2018-04-21T10:26:24.000Z</Time>
            <Position>
              <LatitudeDegrees>43.17328515462577342987060546875</LatitudeDegrees>
              <LongitudeDegrees>-8.28748379833996295928955078125</LongitudeDegrees>
            </Position>
            <AltitudeMeters>109.8000030517578125</AltitudeMeters>
            <DistanceMeters>39239.064791446</DistanceMeters>
          </Trackpoint>
          <Trackpoint>
            <Time>2018-04-21T10:26:27.000Z</Time>
            <Position>
              <LatitudeDegrees>43.17323637194931507110595703125</LatitudeDegrees>
              <LongitudeDegrees>-8.287358991801738739013671875</LongitudeDegrees>
            </Position>
            <AltitudeMeters>109.1999969482421875</AltitudeMeters>
            <DistanceMeters>39250.558703677</DistanceMeters>
          </Trackpoint>
          <Trackpoint>
            <Time>2018-04-21T10:26:29.000Z</Time>
            <Position>
              <LatitudeDegrees>43.173193372786045074462890625</LatitudeDegrees>
              <LongitudeDegrees>-8.2872532121837139129638671875</LongitudeDegrees>
            </Position>
            <AltitudeMeters>109</AltitudeMeters>
            <DistanceMeters>39260.388343444</DistanceMeters>
          </Trackpoint>
          <Trackpoint>
            <Time>2018-04-21T10:26:32.000Z</Time>
            <Position>
              <LatitudeDegrees>43.17312656901776790618896484375</LatitudeDegrees>
              <LongitudeDegrees>-8.28709236346185207366943359375</LongitudeDegrees>
            </Position>
            <AltitudeMeters>108.1999969482421875</AltitudeMeters>
            <DistanceMeters>39275.413386242</DistanceMeters>
          </Trackpoint>
          <Trackpoint>
            <Time>2018-04-21T10:26:34.000Z</Time>
            <Position>
              <LatitudeDegrees>43.1730782054364681243896484375</LatitudeDegrees>
              <LongitudeDegrees>-8.28696571290493011474609375</LongitudeDegrees>
            </Position>
            <AltitudeMeters>107.1999969482421875</AltitudeMeters>
            <DistanceMeters>39287.017544977</DistanceMeters>
          </Trackpoint>
          <Trackpoint>
            <Time>2018-04-21T10:26:36.000Z</Time>
            <Position>
              <LatitudeDegrees>43.1730332784354686737060546875</LatitudeDegrees>
              <LongitudeDegrees>-8.2868642918765544891357421875</LongitudeDegrees>
            </Position>
            <AltitudeMeters>106.8000030517578125</AltitudeMeters>
            <DistanceMeters>39296.649523246</DistanceMeters>
          </Trackpoint>
          <Trackpoint>
            <Time>2018-04-21T10:26:38.000Z</Time>
            <Position>
              <LatitudeDegrees>43.17300100810825824737548828125</LatitudeDegrees>
              <LongitudeDegrees>-8.28679966740310192108154296875</LongitudeDegrees>
            </Position>
            <AltitudeMeters>106.40000152587890625</AltitudeMeters>
            <DistanceMeters>39303.007087415</DistanceMeters>
          </Trackpoint>
          <Trackpoint>
            <Time>2018-04-21T10:26:40.000Z</Time>
            <Position>
              <LatitudeDegrees>43.172960020601749420166015625</LatitudeDegrees>
              <LongitudeDegrees>-8.28673370182514190673828125</LongitudeDegrees>
            </Position>
            <AltitudeMeters>107.1999969482421875</AltitudeMeters>
            <DistanceMeters>39310.0416321</DistanceMeters>
          </Trackpoint>
          <Trackpoint>
            <Time>2018-04-21T10:26:41.000Z</Time>
            <Position>
              <LatitudeDegrees>43.1729407422244548797607421875</LatitudeDegrees>
              <LongitudeDegrees>-8.286705873906612396240234375</LongitudeDegrees>
            </Position>
            <AltitudeMeters>107</AltitudeMeters>
            <DistanceMeters>39313.157291288</DistanceMeters>
          </Trackpoint>
          <Trackpoint>
            <Time>2018-04-21T10:26:42.000Z</Time>
            <Position>
              <LatitudeDegrees>43.1729162670671939849853515625</LatitudeDegrees>
              <LongitudeDegrees>-8.28668273985385894775390625</LongitudeDegrees>
            </Position>
            <AltitudeMeters>106</AltitudeMeters>
            <DistanceMeters>39316.465531401</DistanceMeters>
          </Trackpoint>
          <Trackpoint>
            <Time>2018-04-21T10:26:45.000Z</Time>
            <Position>
              <LatitudeDegrees>43.17280973307788372039794921875</LatitudeDegrees>
              <LongitudeDegrees>-8.2866705022752285003662109375</LongitudeDegrees>
            </Position>
            <AltitudeMeters>105</AltitudeMeters>
            <DistanceMeters>39328.363999307</DistanceMeters>
          </Trackpoint>
          <Trackpoint>
            <Time>2018-04-21T10:26:46.000Z</Time>
            <Position>
              <LatitudeDegrees>43.17277084104716777801513671875</LatitudeDegrees>
              <LongitudeDegrees>-8.2866892777383327484130859375</LongitudeDegrees>
            </Position>
            <AltitudeMeters>104.8000030517578125</AltitudeMeters>
            <DistanceMeters>39332.952914022</DistanceMeters>
          </Trackpoint>
          <Trackpoint>
            <Time>2018-04-21T10:26:48.000Z</Time>
            <Position>
              <LatitudeDegrees>43.17270311526954174041748046875</LatitudeDegrees>
              <LongitudeDegrees>-8.28672674484550952911376953125</LongitudeDegrees>
            </Position>
            <AltitudeMeters>103.40000152587890625</AltitudeMeters>
            <DistanceMeters>39341.080892815</DistanceMeters>
          </Trackpoint>
          <Trackpoint>
            <Time>2018-04-21T10:26:49.000Z</Time>
            <Position>
              <LatitudeDegrees>43.17266690544784069061279296875</LatitudeDegrees>
              <LongitudeDegrees>-8.2867167703807353973388671875</LongitudeDegrees>
            </Position>
            <AltitudeMeters>102.8000030517578125</AltitudeMeters>
            <DistanceMeters>39345.19127881</DistanceMeters>
          </Trackpoint>
          <Trackpoint>
            <Time>2018-04-21T10:26:52.000Z</Time>
            <Position>
              <LatitudeDegrees>43.1726232357323169708251953125</LatitudeDegrees>
              <LongitudeDegrees>-8.286593221127986907958984375</LongitudeDegrees>
            </Position>
            <AltitudeMeters>103.59999847412109375</AltitudeMeters>
            <DistanceMeters>39356.335769441</DistanceMeters>
          </Trackpoint>
          <Trackpoint>
            <Time>2018-04-21T10:26:56.000Z</Time>
            <Position>
              <LatitudeDegrees>43.1726078130304813385009765625</LatitudeDegrees>
              <LongitudeDegrees>-8.28647947870194911956787109375</LongitudeDegrees>
            </Position>
            <AltitudeMeters>104.59999847412109375</AltitudeMeters>
            <DistanceMeters>39365.726601489</DistanceMeters>
          </Trackpoint>
          <Trackpoint>
            <Time>2018-04-21T10:26:57.000Z</Time>
            <Position>
              <LatitudeDegrees>43.17261435091495513916015625</LatitudeDegrees>
              <LongitudeDegrees>-8.28645785339176654815673828125</LongitudeDegrees>
            </Position>
            <AltitudeMeters>104.40000152587890625</AltitudeMeters>
            <DistanceMeters>39367.627135776</DistanceMeters>
          </Trackpoint>
          <Trackpoint>
            <Time>2018-04-21T10:27:00.000Z</Time>
            <Position>
              <LatitudeDegrees>43.1726359762251377105712890625</LatitudeDegrees>
              <LongitudeDegrees>-8.28652004711329936981201171875</LongitudeDegrees>
            </Position>
            <AltitudeMeters>104.59999847412109375</AltitudeMeters>
            <DistanceMeters>39373.220004879</DistanceMeters>
          </Trackpoint>
          <Trackpoint>
            <Time>2018-04-21T10:27:01.000Z</Time>
            <Position>
              <LatitudeDegrees>43.172634802758693695068359375</LatitudeDegrees>
              <LongitudeDegrees>-8.28655072487890720367431640625</LongitudeDegrees>
            </Position>
            <AltitudeMeters>104.40000152587890625</AltitudeMeters>
            <DistanceMeters>39375.714343001</DistanceMeters>
          </Trackpoint>
          <Trackpoint>
            <Time>2018-04-21T10:27:05.000Z</Time>
            <Position>
              <LatitudeDegrees>43.17267143167555332183837890625</LatitudeDegrees>
              <LongitudeDegrees>-8.2866869308054447174072265625</LongitudeDegrees>
            </Position>
            <AltitudeMeters>103.59999847412109375</AltitudeMeters>
            <DistanceMeters>39387.498421903</DistanceMeters>
          </Trackpoint>
          <Trackpoint>
            <Time>2018-04-21T10:27:07.000Z</Time>
            <Position>
              <LatitudeDegrees>43.17269573919475078582763671875</LatitudeDegrees>
              <LongitudeDegrees>-8.286712579429149627685546875</LongitudeDegrees>
            </Position>
            <AltitudeMeters>103.40000152587890625</AltitudeMeters>
            <DistanceMeters>39390.912778166</DistanceMeters>
          </Trackpoint>
          <Trackpoint>
            <Time>2018-04-21T10:27:09.000Z</Time>
            <Position>
              <LatitudeDegrees>43.17272809334099292755126953125</LatitudeDegrees>
              <LongitudeDegrees>-8.28670092858374118804931640625</LongitudeDegrees>
            </Position>
            <AltitudeMeters>103.40000152587890625</AltitudeMeters>
            <DistanceMeters>39394.634624114</DistanceMeters>
          </Trackpoint>
          <Trackpoint>
            <Time>2018-04-21T10:27:11.000Z</Time>
            <Position>
              <LatitudeDegrees>43.1727571785449981689453125</LatitudeDegrees>
              <LongitudeDegrees>-8.2866839133203029632568359375</LongitudeDegrees>
            </Position>
            <AltitudeMeters>103.8000030517578125</AltitudeMeters>
            <DistanceMeters>39398.154462872</DistanceMeters>
          </Trackpoint>
          <Trackpoint>
            <Time>2018-04-21T10:27:17.000Z</Time>
            <Position>
              <LatitudeDegrees>43.17284309305250644683837890625</LatitudeDegrees>
              <LongitudeDegrees>-8.28665348701179027557373046875</LongitudeDegrees>
            </Position>
            <AltitudeMeters>104.40000152587890625</AltitudeMeters>
            <DistanceMeters>39408.029928714</DistanceMeters>
          </Trackpoint>
          <Trackpoint>
            <Time>2018-04-21T10:27:19.000Z</Time>
            <Position>
              <LatitudeDegrees>43.17287854850292205810546875</LatitudeDegrees>
              <LongitudeDegrees>-8.28666438348591327667236328125</LongitudeDegrees>
            </Position>
            <AltitudeMeters>104.1999969482421875</AltitudeMeters>
            <DistanceMeters>39412.074987245</DistanceMeters>
          </Trackpoint>
          <Trackpoint>
            <Time>2018-04-21T10:27:23.000Z</Time>
            <Position>
              <LatitudeDegrees>43.1729400716722011566162109375</LatitudeDegrees>
              <LongitudeDegrees>-8.2866914570331573486328125</LongitudeDegrees>
            </Position>
            <AltitudeMeters>105.40000152587890625</AltitudeMeters>
            <DistanceMeters>39419.266946496</DistanceMeters>
          </Trackpoint>
          <Trackpoint>
            <Time>2018-04-21T10:27:25.000Z</Time>
            <Position>
              <LatitudeDegrees>43.172967396676540374755859375</LatitudeDegrees>
              <LongitudeDegrees>-8.286719284951686859130859375</LongitudeDegrees>
            </Position>
            <AltitudeMeters>105.59999847412109375</AltitudeMeters>
            <DistanceMeters>39423.056118113</DistanceMeters>
          </Trackpoint>
          <Trackpoint>
            <Time>2018-04-21T10:27:27.000Z</Time>
            <Position>
              <LatitudeDegrees>43.173004277050495147705078125</LatitudeDegrees>
              <LongitudeDegrees>-8.28674166463315486907958984375</LongitudeDegrees>
            </Position>
            <AltitudeMeters>105.8000030517578125</AltitudeMeters>
            <DistanceMeters>39427.544558883</DistanceMeters>
          </Trackpoint>
          <Trackpoint>
            <Time>2018-04-21T10:27:29.000Z</Time>
            <Position>
              <LatitudeDegrees>43.17303478717803955078125</LatitudeDegrees>
              <LongitudeDegrees>-8.28679061494767665863037109375</LongitudeDegrees>
            </Position>
            <AltitudeMeters>106</AltitudeMeters>
            <DistanceMeters>39432.771028174</DistanceMeters>
          </Trackpoint>
          <Trackpoint>
            <Time>2018-04-21T10:27:32.000Z</Time>
            <Position>
              <LatitudeDegrees>43.1730736792087554931640625</LatitudeDegrees>
              <LongitudeDegrees>-8.286880552768707275390625</LongitudeDegrees>
            </Position>
            <AltitudeMeters>106.40000152587890625</AltitudeMeters>
            <DistanceMeters>39441.257717146</DistanceMeters>
          </Trackpoint>
          <Trackpoint>
            <Time>2018-04-21T10:27:33.000Z</Time>
            <Position>
              <LatitudeDegrees>43.17308432422578334808349609375</LatitudeDegrees>
              <LongitudeDegrees>-8.28691164962947368621826171875</LongitudeDegrees>
            </Position>
            <AltitudeMeters>107.59999847412109375</AltitudeMeters>
            <DistanceMeters>39444.046067163</DistanceMeters>
          </Trackpoint>
          <Trackpoint>
            <Time>2018-04-21T10:27:36.000Z</Time>
            <Position>
              <LatitudeDegrees>43.17311315797269344329833984375</LatitudeDegrees>
              <LongitudeDegrees>-8.286996223032474517822265625</LongitudeDegrees>
            </Position>
            <AltitudeMeters>104.59999847412109375</AltitudeMeters>
            <DistanceMeters>39451.623814593</DistanceMeters>
          </Trackpoint>
          <Trackpoint>
            <Time>2018-04-21T10:27:37.000Z</Time>
            <Position>
              <LatitudeDegrees>43.17312455736100673675537109375</LatitudeDegrees>
              <LongitudeDegrees>-8.287018351256847381591796875</LongitudeDegrees>
            </Position>
            <AltitudeMeters>104.40000152587890625</AltitudeMeters>
            <DistanceMeters>39453.821788864</DistanceMeters>
          </Trackpoint>
          <Trackpoint>
            <Time>2018-04-21T10:27:38.000Z</Time>
            <Position>
              <LatitudeDegrees>43.17313428036868572235107421875</LatitudeDegrees>
              <LongitudeDegrees>-8.28704349696636199951171875</LongitudeDegrees>
            </Position>
            <AltitudeMeters>105.8000030517578125</AltitudeMeters>
            <DistanceMeters>39456.131935002</DistanceMeters>
          </Trackpoint>
          <Trackpoint>
            <Time>2018-04-21T10:27:40.000Z</Time>
            <Position>
              <LatitudeDegrees>43.1731519661843776702880859375</LatitudeDegrees>
              <LongitudeDegrees>-8.2870973087847232818603515625</LongitudeDegrees>
            </Position>
            <AltitudeMeters>108.40000152587890625</AltitudeMeters>
            <DistanceMeters>39460.923015707</DistanceMeters>
          </Trackpoint>
          <Trackpoint>
            <Time>2018-04-21T10:27:41.000Z</Time>
            <Position>
              <LatitudeDegrees>43.17316294647753238677978515625</LatitudeDegrees>
              <LongitudeDegrees>-8.287126310169696807861328125</LongitudeDegrees>
            </Position>
            <AltitudeMeters>107.1999969482421875</AltitudeMeters>
            <DistanceMeters>39463.576967407</DistanceMeters>
          </Trackpoint>
          <Trackpoint>
            <Time>2018-04-21T10:27:44.000Z</Time>
            <Position>
              <LatitudeDegrees>43.1731968931853771209716796875</LatitudeDegrees>
              <LongitudeDegrees>-8.28721842728555202484130859375</LongitudeDegrees>
            </Position>
            <AltitudeMeters>108</AltitudeMeters>
            <DistanceMeters>39471.953883549</DistanceMeters>
          </Trackpoint>
          <Trackpoint>
            <Time>2018-04-21T10:27:45.000Z</Time>
            <Position>
              <LatitudeDegrees>43.1732149980962276458740234375</LatitudeDegrees>
              <LongitudeDegrees>-8.28722546808421611785888671875</LongitudeDegrees>
            </Position>
            <AltitudeMeters>108</AltitudeMeters>
            <DistanceMeters>39474.048786208</DistanceMeters>
          </Trackpoint>
          <Trackpoint>
            <Time>2018-04-21T10:27:46.000Z</Time>
            <Position>
              <LatitudeDegrees>43.17323662340641021728515625</LatitudeDegrees>
              <LongitudeDegrees>-8.2872079499065876007080078125</LongitudeDegrees>
            </Position>
            <AltitudeMeters>108.1999969482421875</AltitudeMeters>
            <DistanceMeters>39476.84522076</DistanceMeters>
          </Trackpoint>
          <Trackpoint>
            <Time>2018-04-21T10:27:47.000Z</Time>
            <Position>
              <LatitudeDegrees>43.1732471846044063568115234375</LatitudeDegrees>
              <LongitudeDegrees>-8.28718925826251506805419921875</LongitudeDegrees>
            </Position>
            <AltitudeMeters>108.40000152587890625</AltitudeMeters>
            <DistanceMeters>39478.767017124</DistanceMeters>
          </Trackpoint>
          <Trackpoint>
            <Time>2018-04-21T10:27:49.000Z</Time>
            <Position>
              <LatitudeDegrees>43.173257075250148773193359375</LatitudeDegrees>
              <LongitudeDegrees>-8.28713762573897838592529296875</LongitudeDegrees>
            </Position>
            <AltitudeMeters>109.1999969482421875</AltitudeMeters>
            <DistanceMeters>39483.100902102</DistanceMeters>
          </Trackpoint>
          <Trackpoint>
            <Time>2018-04-21T10:27:51.000Z</Time>
            <Position>
              <LatitudeDegrees>43.17325011827051639556884765625</LatitudeDegrees>
              <LongitudeDegrees>-8.2870909385383129119873046875</LongitudeDegrees>
            </Position>
            <AltitudeMeters>110.1999969482421875</AltitudeMeters>
            <DistanceMeters>39486.969084707</DistanceMeters>
          </Trackpoint>
          <Trackpoint>
            <Time>2018-04-21T10:27:52.000Z</Time>
            <Position>
              <LatitudeDegrees>43.17325078882277011871337890625</LatitudeDegrees>
              <LongitudeDegrees>-8.28706386499106884002685546875</LongitudeDegrees>
            </Position>
            <AltitudeMeters>110.59999847412109375</AltitudeMeters>
            <DistanceMeters>39489.169112201</DistanceMeters>
          </Trackpoint>
          <Trackpoint>
            <Time>2018-04-21T10:27:54.000Z</Time>
            <Position>
              <LatitudeDegrees>43.173262774944305419921875</LatitudeDegrees>
              <LongitudeDegrees>-8.28702480532228946685791015625</LongitudeDegrees>
            </Position>
            <AltitudeMeters>111.59999847412109375</AltitudeMeters>
            <DistanceMeters>39492.608501702</DistanceMeters>
          </Trackpoint>
          <Trackpoint>
            <Time>2018-04-21T10:27:56.000Z</Time>
            <Position>
              <LatitudeDegrees>43.1732840649783611297607421875</LatitudeDegrees>
              <LongitudeDegrees>-8.28700502403080463409423828125</LongitudeDegrees>
            </Position>
            <AltitudeMeters>112</AltitudeMeters>
            <DistanceMeters>39495.47194533</DistanceMeters>
          </Trackpoint>
          <Trackpoint>
            <Time>2018-04-21T10:27:57.000Z</Time>
            <Position>
              <LatitudeDegrees>43.1732951290905475616455078125</LatitudeDegrees>
              <LongitudeDegrees>-8.28700284473598003387451171875</LongitudeDegrees>
            </Position>
            <AltitudeMeters>112.40000152587890625</AltitudeMeters>
            <DistanceMeters>39496.721826615</DistanceMeters>
          </Trackpoint>
          <Trackpoint>
            <Time>2018-04-21T10:27:58.000Z</Time>
            <Position>
              <LatitudeDegrees>43.1733125634491443634033203125</LatitudeDegrees>
              <LongitudeDegrees>-8.2870020903646945953369140625</LongitudeDegrees>
            </Position>
            <AltitudeMeters>112.40000152587890625</AltitudeMeters>
            <DistanceMeters>39498.66465238</DistanceMeters>
          </Trackpoint>
          <Trackpoint>
            <Time>2018-04-21T10:27:59.000Z</Time>
            <Position>
              <LatitudeDegrees>43.1733343563973903656005859375</LatitudeDegrees>
              <LongitudeDegrees>-8.28700770623981952667236328125</LongitudeDegrees>
            </Position>
            <AltitudeMeters>113</AltitudeMeters>
            <DistanceMeters>39501.13351884</DistanceMeters>
          </Trackpoint>
          <Trackpoint>
            <Time>2018-04-21T10:28:02.000Z</Time>
            <Position>
              <LatitudeDegrees>43.17339780740439891815185546875</LatitudeDegrees>
              <LongitudeDegrees>-8.2869953848421573638916015625</LongitudeDegrees>
            </Position>
            <AltitudeMeters>114</AltitudeMeters>
            <DistanceMeters>39508.266221742</DistanceMeters>
          </Trackpoint>
          <Trackpoint>
            <Time>2018-04-21T10:28:06.000Z</Time>
            <Position>
              <LatitudeDegrees>43.173487074673175811767578125</LatitudeDegrees>
              <LongitudeDegrees>-8.2869635336101055145263671875</LongitudeDegrees>
            </Position>
            <AltitudeMeters>114.8000030517578125</AltitudeMeters>
            <DistanceMeters>39518.532625799</DistanceMeters>
          </Trackpoint>
          <Trackpoint>
            <Time>2018-04-21T10:28:09.000Z</Time>
            <Position>
              <LatitudeDegrees>43.17355236969888210296630859375</LatitudeDegrees>
              <LongitudeDegrees>-8.286939896643161773681640625</LongitudeDegrees>
            </Position>
            <AltitudeMeters>115.1999969482421875</AltitudeMeters>
            <DistanceMeters>39526.048752343</DistanceMeters>
          </Trackpoint>
          <Trackpoint>
            <Time>2018-04-21T10:28:14.000Z</Time>
            <Position>
              <LatitudeDegrees>43.17369016818702220916748046875</LatitudeDegrees>
              <LongitudeDegrees>-8.2868093065917491912841796875</LongitudeDegrees>
            </Position>
            <AltitudeMeters>114.1999969482421875</AltitudeMeters>
            <DistanceMeters>39544.692887148</DistanceMeters>
          </Trackpoint>
          <Trackpoint>
            <Time>2018-04-21T10:28:15.000Z</Time>
            <Position>
              <LatitudeDegrees>43.17368966527283191680908203125</LatitudeDegrees>
              <LongitudeDegrees>-8.286762535572052001953125</LongitudeDegrees>
            </Position>
            <AltitudeMeters>114</AltitudeMeters>
            <DistanceMeters>39548.489201414</DistanceMeters>
          </Trackpoint>
          <Trackpoint>
            <Time>2018-04-21T10:28:17.000Z</Time>
            <Position>
              <LatitudeDegrees>43.173671476542949676513671875</LatitudeDegrees>
              <LongitudeDegrees>-8.28668550588190555572509765625</LongitudeDegrees>
            </Position>
            <AltitudeMeters>114.1999969482421875</AltitudeMeters>
            <DistanceMeters>39555.061176432</DistanceMeters>
          </Trackpoint>
          <Trackpoint>
            <Time>2018-04-21T10:28:19.000Z</Time>
            <Position>
              <LatitudeDegrees>43.17363820038735866546630859375</LatitudeDegrees>
              <LongitudeDegrees>-8.28660822473466396331787109375</LongitudeDegrees>
            </Position>
            <AltitudeMeters>114.8000030517578125</AltitudeMeters>
            <DistanceMeters>39562.346075831</DistanceMeters>
          </Trackpoint>
          <Trackpoint>
            <Time>2018-04-21T10:28:21.000Z</Time>
            <Position>
              <LatitudeDegrees>43.1736129708588123321533203125</LatitudeDegrees>
              <LongitudeDegrees>-8.28653010539710521697998046875</LongitudeDegrees>
            </Position>
            <AltitudeMeters>115.40000152587890625</AltitudeMeters>
            <DistanceMeters>39569.281073102</DistanceMeters>
          </Trackpoint>
          <Trackpoint>
            <Time>2018-04-21T10:28:23.000Z</Time>
            <Position>
              <LatitudeDegrees>43.1735881604254245758056640625</LatitudeDegrees>
              <LongitudeDegrees>-8.2864629663527011871337890625</LongitudeDegrees>
            </Position>
            <AltitudeMeters>113.59999847412109375</AltitudeMeters>
            <DistanceMeters>39575.390928748</DistanceMeters>
          </Trackpoint>
          <Trackpoint>
            <Time>2018-04-21T10:28:24.000Z</Time>
            <Position>
              <LatitudeDegrees>43.173575587570667266845703125</LatitudeDegrees>
              <LongitudeDegrees>-8.28643505461513996124267578125</LongitudeDegrees>
            </Position>
            <AltitudeMeters>113.8000030517578125</AltitudeMeters>
            <DistanceMeters>39578.0550684</DistanceMeters>
          </Trackpoint>
          <Trackpoint>
            <Time>2018-04-21T10:28:29.000Z</Time>
            <Position>
              <LatitudeDegrees>43.17353057675063610076904296875</LatitudeDegrees>
              <LongitudeDegrees>-8.28633581288158893585205078125</LongitudeDegrees>
            </Position>
            <AltitudeMeters>115.59999847412109375</AltitudeMeters>
            <DistanceMeters>39587.541571541</DistanceMeters>
          </Trackpoint>
          <Trackpoint>
            <Time>2018-04-21T10:28:30.000Z</Time>
            <Position>
              <LatitudeDegrees>43.173521272838115692138671875</LatitudeDegrees>
              <LongitudeDegrees>-8.286320976912975311279296875</LongitudeDegrees>
            </Position>
            <AltitudeMeters>116</AltitudeMeters>
            <DistanceMeters>39589.131672608</DistanceMeters>
          </Trackpoint>
          <Trackpoint>
            <Time>2018-04-21T10:28:31.000Z</Time>
            <Position>
              <LatitudeDegrees>43.17351884208619594573974609375</LatitudeDegrees>
              <LongitudeDegrees>-8.28630396164953708648681640625</LongitudeDegrees>
            </Position>
            <AltitudeMeters>116.8000030517578125</AltitudeMeters>
            <DistanceMeters>39590.53793956</DistanceMeters>
          </Trackpoint>
          <Trackpoint>
            <Time>2018-04-21T10:28:34.000Z</Time>
            <Position>
              <LatitudeDegrees>43.17351649515330791473388671875</LatitudeDegrees>
              <LongitudeDegrees>-8.28624688088893890380859375</LongitudeDegrees>
            </Position>
            <AltitudeMeters>116.1999969482421875</AltitudeMeters>
            <DistanceMeters>39595.177735056</DistanceMeters>
          </Trackpoint>
          <Trackpoint>
            <Time>2018-04-21T10:28:36.000Z</Time>
            <Position>
              <LatitudeDegrees>43.17349947988986968994140625</LatitudeDegrees>
              <LongitudeDegrees>-8.2861910574138164520263671875</LongitudeDegrees>
            </Position>
            <AltitudeMeters>116.59999847412109375</AltitudeMeters>
            <DistanceMeters>39600.089798193</DistanceMeters>
          </Trackpoint>
          <Trackpoint>
            <Time>2018-04-21T10:28:41.000Z</Time>
            <Position>
              <LatitudeDegrees>43.17342999391257762908935546875</LatitudeDegrees>
              <LongitudeDegrees>-8.28593314625322818756103515625</LongitudeDegrees>
            </Position>
            <AltitudeMeters>116.59999847412109375</AltitudeMeters>
            <DistanceMeters>39622.407525597</DistanceMeters>
          </Trackpoint>
          <Trackpoint>
            <Time>2018-04-21T10:28:45.000Z</Time>
            <Position>
              <LatitudeDegrees>43.17335589788854122161865234375</LatitudeDegrees>
              <LongitudeDegrees>-8.2856693677604198455810546875</LongitudeDegrees>
            </Position>
            <AltitudeMeters>115.1999969482421875</AltitudeMeters>
            <DistanceMeters>39645.351902394</DistanceMeters>
          </Trackpoint>
          <Trackpoint>
            <Time>2018-04-21T10:28:46.000Z</Time>
            <Position>
              <LatitudeDegrees>43.17333184182643890380859375</LatitudeDegrees>
              <LongitudeDegrees>-8.28557901084423065185546875</LongitudeDegrees>
            </Position>
            <AltitudeMeters>114.59999847412109375</AltitudeMeters>
            <DistanceMeters>39653.159143648</DistanceMeters>
          </Trackpoint>
          <Trackpoint>
            <Time>2018-04-21T10:28:47.000Z</Time>
            <Position>
              <LatitudeDegrees>43.173309378325939178466796875</LatitudeDegrees>
              <LongitudeDegrees>-8.28547884710133075714111328125</LongitudeDegrees>
            </Position>
            <AltitudeMeters>113.40000152587890625</AltitudeMeters>
            <DistanceMeters>39661.666025135</DistanceMeters>
          </Trackpoint>
          <Trackpoint>
            <Time>2018-04-21T10:28:49.000Z</Time>
            <Position>
              <LatitudeDegrees>43.1732721626758575439453125</LatitudeDegrees>
              <LongitudeDegrees>-8.285268880426883697509765625</LongitudeDegrees>
            </Position>
            <AltitudeMeters>111.40000152587890625</AltitudeMeters>
            <DistanceMeters>39679.205341376</DistanceMeters>
          </Trackpoint>
          <Trackpoint>
            <Time>2018-04-21T10:28:50.000Z</Time>
            <Position>
              <LatitudeDegrees>43.17325866781175136566162109375</LatitudeDegrees>
              <LongitudeDegrees>-8.28516838140785694122314453125</LongitudeDegrees>
            </Position>
            <AltitudeMeters>110.59999847412109375</AltitudeMeters>
            <DistanceMeters>39687.499382752</DistanceMeters>
          </Trackpoint>
          <Trackpoint>
            <Time>2018-04-21T10:28:51.000Z</Time>
            <Position>
              <LatitudeDegrees>43.17324441857635974884033203125</LatitudeDegrees>
              <LongitudeDegrees>-8.28507148660719394683837890625</LongitudeDegrees>
            </Position>
            <AltitudeMeters>109.8000030517578125</AltitudeMeters>
            <DistanceMeters>39695.521686338</DistanceMeters>
          </Trackpoint>
          <Trackpoint>
            <Time>2018-04-21T10:28:52.000Z</Time>
            <Position>
              <LatitudeDegrees>43.17322790622711181640625</LatitudeDegrees>
              <LongitudeDegrees>-8.2849823869764804840087890625</LongitudeDegrees>
            </Position>
            <AltitudeMeters>108.40000152587890625</AltitudeMeters>
            <DistanceMeters>39702.983552817</DistanceMeters>
          </Trackpoint>
          <Trackpoint>
            <Time>2018-04-21T10:28:54.000Z</Time>
            <Position>
              <LatitudeDegrees>43.1732025928795337677001953125</LatitudeDegrees>
              <LongitudeDegrees>-8.284857831895351409912109375</LongitudeDegrees>
            </Position>
            <AltitudeMeters>106.40000152587890625</AltitudeMeters>
            <DistanceMeters>39713.478736115</DistanceMeters>
          </Trackpoint>
          <Trackpoint>
            <Time>2018-04-21T10:28:55.000Z</Time>
            <Position>
              <LatitudeDegrees>43.17320636473596096038818359375</LatitudeDegrees>
              <LongitudeDegrees>-8.2848273217678070068359375</LongitudeDegrees>
            </Position>
            <AltitudeMeters>106.40000152587890625</AltitudeMeters>
            <DistanceMeters>39715.989312415</DistanceMeters>
          </Trackpoint>
          <Trackpoint>
            <Time>2018-04-21T10:28:56.000Z</Time>
            <Position>
              <LatitudeDegrees>43.173217512667179107666015625</LatitudeDegrees>
              <LongitudeDegrees>-8.28481734730303287506103515625</LongitudeDegrees>
            </Position>
            <AltitudeMeters>106.40000152587890625</AltitudeMeters>
            <DistanceMeters>39717.470632291</DistanceMeters>
          </Trackpoint>
          <Trackpoint>
            <Time>2018-04-21T10:28:58.000Z</Time>
            <Position>
              <LatitudeDegrees>43.1732364557683467864990234375</LatitudeDegrees>
              <LongitudeDegrees>-8.2848083786666393280029296875</LongitudeDegrees>
            </Position>
            <AltitudeMeters>106</AltitudeMeters>
            <DistanceMeters>39719.70325456</DistanceMeters>
          </Trackpoint>
          <Trackpoint>
            <Time>2018-04-21T10:28:59.000Z</Time>
            <Position>
              <LatitudeDegrees>43.1732562370598316192626953125</LatitudeDegrees>
              <LongitudeDegrees>-8.2848072052001953125</LongitudeDegrees>
            </Position>
            <AltitudeMeters>105.8000030517578125</AltitudeMeters>
            <DistanceMeters>39721.907382761</DistanceMeters>
          </Trackpoint>
          <Trackpoint>
            <Time>2018-04-21T10:29:01.000Z</Time>
            <Position>
              <LatitudeDegrees>43.173302672803401947021484375</LatitudeDegrees>
              <LongitudeDegrees>-8.28479002229869365692138671875</LongitudeDegrees>
            </Position>
            <AltitudeMeters>105.40000152587890625</AltitudeMeters>
            <DistanceMeters>39727.261022891</DistanceMeters>
          </Trackpoint>
          <Trackpoint>
            <Time>2018-04-21T10:29:02.000Z</Time>
            <Position>
              <LatitudeDegrees>43.1733229570090770721435546875</LatitudeDegrees>
              <LongitudeDegrees>-8.2847892679274082183837890625</LongitudeDegrees>
            </Position>
            <AltitudeMeters>104.1999969482421875</AltitudeMeters>
            <DistanceMeters>39729.519782106</DistanceMeters>
          </Trackpoint>
          <Trackpoint>
            <Time>2018-04-21T10:29:03.000Z</Time>
            <Position>
              <LatitudeDegrees>43.17334131337702274322509765625</LatitudeDegrees>
              <LongitudeDegrees>-8.28479186631739139556884765625</LongitudeDegrees>
            </Position>
            <AltitudeMeters>103.8000030517578125</AltitudeMeters>
            <DistanceMeters>39731.573326773</DistanceMeters>
          </Trackpoint>
          <Trackpoint>
            <Time>2018-04-21T10:29:04.000Z</Time>
            <Position>
              <LatitudeDegrees>43.1733554787933826446533203125</LatitudeDegrees>
              <LongitudeDegrees>-8.28479538671672344207763671875</LongitudeDegrees>
            </Position>
            <AltitudeMeters>103.40000152587890625</AltitudeMeters>
            <DistanceMeters>39733.17756235</DistanceMeters>
          </Trackpoint>
          <Trackpoint>
            <Time>2018-04-21T10:29:05.000Z</Time>
            <Position>
              <LatitudeDegrees>43.1733714044094085693359375</LatitudeDegrees>
              <LongitudeDegrees>-8.28479605726897716522216796875</LongitudeDegrees>
            </Position>
            <AltitudeMeters>102.8000030517578125</AltitudeMeters>
            <DistanceMeters>39734.952807876</DistanceMeters>
          </Trackpoint>
          <Trackpoint>
            <Time>2018-04-21T10:29:07.000Z</Time>
            <Position>
              <LatitudeDegrees>43.1734074465930461883544921875</LatitudeDegrees>
              <LongitudeDegrees>-8.28481449745595455169677734375</LongitudeDegrees>
            </Position>
            <AltitudeMeters>101.8000030517578125</AltitudeMeters>
            <DistanceMeters>39739.23428603</DistanceMeters>
          </Trackpoint>
          <Trackpoint>
            <Time>2018-04-21T10:29:09.000Z</Time>
            <Position>
              <LatitudeDegrees>43.173445500433444976806640625</LatitudeDegrees>
              <LongitudeDegrees>-8.28484433703124523162841796875</LongitudeDegrees>
            </Position>
            <AltitudeMeters>100.40000152587890625</AltitudeMeters>
            <DistanceMeters>39744.114072048</DistanceMeters>
          </Trackpoint>
          <Trackpoint>
            <Time>2018-04-21T10:29:10.000Z</Time>
            <Position>
              <LatitudeDegrees>43.17346301861107349395751953125</LatitudeDegrees>
              <LongitudeDegrees>-8.28486780636012554168701171875</LongitudeDegrees>
            </Position>
            <AltitudeMeters>99.1999969482421875</AltitudeMeters>
            <DistanceMeters>39746.840196204</DistanceMeters>
          </Trackpoint>
          <Trackpoint>
            <Time>2018-04-21T10:29:13.000Z</Time>
            <Position>
              <LatitudeDegrees>43.17350978963077068328857421875</LatitudeDegrees>
              <LongitudeDegrees>-8.28492312692105770111083984375</LongitudeDegrees>
            </Position>
            <AltitudeMeters>97.8000030517578125</AltitudeMeters>
            <DistanceMeters>39753.715035846</DistanceMeters>
          </Trackpoint>
          <Trackpoint>
            <Time>2018-04-21T10:29:15.000Z</Time>
            <Position>
              <LatitudeDegrees>43.17354398779571056365966796875</LatitudeDegrees>
              <LongitudeDegrees>-8.2849481888115406036376953125</LongitudeDegrees>
            </Position>
            <AltitudeMeters>95.8000030517578125</AltitudeMeters>
            <DistanceMeters>39758.030127691</DistanceMeters>
          </Trackpoint>
          <Trackpoint>
            <Time>2018-04-21T10:29:17.000Z</Time>
            <Position>
              <LatitudeDegrees>43.1735806167125701904296875</LatitudeDegrees>
              <LongitudeDegrees>-8.28497744165360927581787109375</LongitudeDegrees>
            </Position>
            <AltitudeMeters>94</AltitudeMeters>
            <DistanceMeters>39762.747129743</DistanceMeters>
          </Trackpoint>
          <Trackpoint>
            <Time>2018-04-21T10:29:19.000Z</Time>
            <Position>
              <LatitudeDegrees>43.173631243407726287841796875</LatitudeDegrees>
              <LongitudeDegrees>-8.28500778414309024810791015625</LongitudeDegrees>
            </Position>
            <AltitudeMeters>93</AltitudeMeters>
            <DistanceMeters>39768.896760638</DistanceMeters>
          </Trackpoint>
          <Trackpoint>
            <Time>2018-04-21T10:29:21.000Z</Time>
            <Position>
              <LatitudeDegrees>43.1736867316067218780517578125</LatitudeDegrees>
              <LongitudeDegrees>-8.28503930009901523590087890625</LongitudeDegrees>
            </Position>
            <AltitudeMeters>91.1999969482421875</AltitudeMeters>
            <DistanceMeters>39775.581807259</DistanceMeters>
          </Trackpoint>
          <Trackpoint>
            <Time>2018-04-21T10:29:22.000Z</Time>
            <Position>
              <LatitudeDegrees>43.1737078540027141571044921875</LatitudeDegrees>
              <LongitudeDegrees>-8.2850635237991809844970703125</LongitudeDegrees>
            </Position>
            <AltitudeMeters>90.40000152587890625</AltitudeMeters>
            <DistanceMeters>39778.646326715</DistanceMeters>
          </Trackpoint>
          <Trackpoint>
            <Time>2018-04-21T10:29:23.000Z</Time>
            <Position>
              <LatitudeDegrees>43.173735849559307098388671875</LatitudeDegrees>
              <LongitudeDegrees>-8.2850883342325687408447265625</LongitudeDegrees>
            </Position>
            <AltitudeMeters>90.59999847412109375</AltitudeMeters>
            <DistanceMeters>39782.356021649</DistanceMeters>
          </Trackpoint>
          <Trackpoint>
            <Time>2018-04-21T10:29:24.000Z</Time>
            <Position>
              <LatitudeDegrees>43.1737578101456165313720703125</LatitudeDegrees>
              <LongitudeDegrees>-8.28511524014174938201904296875</LongitudeDegrees>
            </Position>
            <AltitudeMeters>90</AltitudeMeters>
            <DistanceMeters>39785.634098977</DistanceMeters>
          </Trackpoint>
          <Trackpoint>
            <Time>2018-04-21T10:29:28.000Z</Time>
            <Position>
              <LatitudeDegrees>43.17386300303041934967041015625</LatitudeDegrees>
              <LongitudeDegrees>-8.28527994453907012939453125</LongitudeDegrees>
            </Position>
            <AltitudeMeters>89.59999847412109375</AltitudeMeters>
            <DistanceMeters>39803.405364929</DistanceMeters>
          </Trackpoint>
          <Trackpoint>
            <Time>2018-04-21T10:29:31.000Z</Time>
            <Position>
              <LatitudeDegrees>43.1739485822618007659912109375</LatitudeDegrees>
              <LongitudeDegrees>-8.2853823713958263397216796875</LongitudeDegrees>
            </Position>
            <AltitudeMeters>89.59999847412109375</AltitudeMeters>
            <DistanceMeters>39816.04856125</DistanceMeters>
          </Trackpoint>
          <Trackpoint>
            <Time>2018-04-21T10:29:34.000Z</Time>
            <Position>
              <LatitudeDegrees>43.174022845923900604248046875</LatitudeDegrees>
              <LongitudeDegrees>-8.285500220954418182373046875</LongitudeDegrees>
            </Position>
            <AltitudeMeters>90</AltitudeMeters>
            <DistanceMeters>39828.691043327</DistanceMeters>
          </Trackpoint>
          <Trackpoint>
            <Time>2018-04-21T10:29:38.000Z</Time>
            <Position>
              <LatitudeDegrees>43.1741192378103733062744140625</LatitudeDegrees>
              <LongitudeDegrees>-8.28570633195340633392333984375</LongitudeDegrees>
            </Position>
            <AltitudeMeters>90</AltitudeMeters>
            <DistanceMeters>39848.565716504</DistanceMeters>
          </Trackpoint>
          <Trackpoint>
            <Time>2018-04-21T10:29:39.000Z</Time>
            <Position>
              <LatitudeDegrees>43.17414010874927043914794921875</LatitudeDegrees>
              <LongitudeDegrees>-8.28576165251433849334716796875</LongitudeDegrees>
            </Position>
            <AltitudeMeters>90</AltitudeMeters>
            <DistanceMeters>39853.620923358</DistanceMeters>
          </Trackpoint>
          <Trackpoint>
            <Time>2018-04-21T10:29:45.000Z</Time>
            <Position>
              <LatitudeDegrees>43.1742292083799839019775390625</LatitudeDegrees>
              <LongitudeDegrees>-8.2860110141336917877197265625</LongitudeDegrees>
            </Position>
            <AltitudeMeters>90.40000152587890625</AltitudeMeters>
            <DistanceMeters>39876.160490806</DistanceMeters>
          </Trackpoint>
          <Trackpoint>
            <Time>2018-04-21T10:29:49.000Z</Time>
            <Position>
              <LatitudeDegrees>43.1742422841489315032958984375</LatitudeDegrees>
              <LongitudeDegrees>-8.28604035079479217529296875</LongitudeDegrees>
            </Position>
            <AltitudeMeters>90.59999847412109375</AltitudeMeters>
            <DistanceMeters>39878.950459604</DistanceMeters>
          </Trackpoint>
          <Trackpoint>
            <Time>2018-04-21T10:29:53.000Z</Time>
            <Position>
              <LatitudeDegrees>43.1742442958056926727294921875</LatitudeDegrees>
              <LongitudeDegrees>-8.28605200164020061492919921875</LongitudeDegrees>
            </Position>
            <AltitudeMeters>90.59999847412109375</AltitudeMeters>
            <DistanceMeters>39879.919545746</DistanceMeters>
          </Trackpoint>
          <Trackpoint>
            <Time>2018-04-21T10:29:55.000Z</Time>
            <Position>
              <LatitudeDegrees>43.17425611428916454315185546875</LatitudeDegrees>
              <LongitudeDegrees>-8.28606977127492427825927734375</LongitudeDegrees>
            </Position>
            <AltitudeMeters>90.8000030517578125</AltitudeMeters>
            <DistanceMeters>39881.871645195</DistanceMeters>
          </Trackpoint>
          <Trackpoint>
            <Time>2018-04-21T10:29:57.000Z</Time>
            <Position>
              <LatitudeDegrees>43.1742771528661251068115234375</LatitudeDegrees>
              <LongitudeDegrees>-8.28610681928694248199462890625</LongitudeDegrees>
            </Position>
            <AltitudeMeters>90.8000030517578125</AltitudeMeters>
            <DistanceMeters>39885.682204592</DistanceMeters>
          </Trackpoint>
          <Trackpoint>
            <Time>2018-04-21T10:30:01.000Z</Time>
            <Position>
              <LatitudeDegrees>43.1743465550243854522705078125</LatitudeDegrees>
              <LongitudeDegrees>-8.28624285757541656494140625</LongitudeDegrees>
            </Position>
            <AltitudeMeters>90.8000030517578125</AltitudeMeters>
            <DistanceMeters>39899.15791746</DistanceMeters>
          </Trackpoint>
          <Trackpoint>
            <Time>2018-04-21T10:30:02.000Z</Time>
            <Position>
              <LatitudeDegrees>43.17437899298965930938720703125</LatitudeDegrees>
              <LongitudeDegrees>-8.28629625029861927032470703125</LongitudeDegrees>
            </Position>
            <AltitudeMeters>90.59999847412109375</AltitudeMeters>
            <DistanceMeters>39904.799015703</DistanceMeters>
          </Trackpoint>
          <Trackpoint>
            <Time>2018-04-21T10:30:03.000Z</Time>
            <Position>
              <LatitudeDegrees>43.1744270212948322296142578125</LatitudeDegrees>
              <LongitudeDegrees>-8.28634302131831645965576171875</LongitudeDegrees>
            </Position>
            <AltitudeMeters>90.40000152587890625</AltitudeMeters>
            <DistanceMeters>39911.355858995</DistanceMeters>
          </Trackpoint>
          <Trackpoint>
            <Time>2018-04-21T10:30:05.000Z</Time>
            <Position>
              <LatitudeDegrees>43.1745148636400699615478515625</LatitudeDegrees>
              <LongitudeDegrees>-8.286443017423152923583984375</LongitudeDegrees>
            </Position>
            <AltitudeMeters>90.1999969482421875</AltitudeMeters>
            <DistanceMeters>39924.063172911</DistanceMeters>
          </Trackpoint>
          <Trackpoint>
            <Time>2018-04-21T10:30:07.000Z</Time>
            <Position>
              <LatitudeDegrees>43.1746167875826358795166015625</LatitudeDegrees>
              <LongitudeDegrees>-8.28653161413967609405517578125</LongitudeDegrees>
            </Position>
            <AltitudeMeters>89</AltitudeMeters>
            <DistanceMeters>39937.494922509</DistanceMeters>
          </Trackpoint>
          <Trackpoint>
            <Time>2018-04-21T10:30:08.000Z</Time>
            <Position>
              <LatitudeDegrees>43.17466699518263339996337890625</LatitudeDegrees>
              <LongitudeDegrees>-8.286571092903614044189453125</LongitudeDegrees>
            </Position>
            <AltitudeMeters>88.59999847412109375</AltitudeMeters>
            <DistanceMeters>39943.936444167</DistanceMeters>
          </Trackpoint>
          <Trackpoint>
            <Time>2018-04-21T10:30:10.000Z</Time>
            <Position>
              <LatitudeDegrees>43.17477981559932231903076171875</LatitudeDegrees>
              <LongitudeDegrees>-8.28663705848157405853271484375</LongitudeDegrees>
            </Position>
            <AltitudeMeters>88.8000030517578125</AltitudeMeters>
            <DistanceMeters>39957.587586521</DistanceMeters>
          </Trackpoint>
          <Trackpoint>
            <Time>2018-04-21T10:30:14.000Z</Time>
            <Position>
              <LatitudeDegrees>43.17499171011149883270263671875</LatitudeDegrees>
              <LongitudeDegrees>-8.2867144234478473663330078125</LongitudeDegrees>
            </Position>
            <AltitudeMeters>88.40000152587890625</AltitudeMeters>
            <DistanceMeters>39981.99373252</DistanceMeters>
          </Trackpoint>
          <Trackpoint>
            <Time>2018-04-21T10:30:16.000Z</Time>
            <Position>
              <LatitudeDegrees>43.17507502622902393341064453125</LatitudeDegrees>
              <LongitudeDegrees>-8.2867388986051082611083984375</LongitudeDegrees>
            </Position>
            <AltitudeMeters>88</AltitudeMeters>
            <DistanceMeters>39991.477855646</DistanceMeters>
          </Trackpoint>
          <Trackpoint>
            <Time>2018-04-21T10:30:21.000Z</Time>
            <Position>
              <LatitudeDegrees>43.175206370651721954345703125</LatitudeDegrees>
              <LongitudeDegrees>-8.28678441233932971954345703125</LongitudeDegrees>
            </Position>
            <AltitudeMeters>89.40000152587890625</AltitudeMeters>
            <DistanceMeters>40006.556292723</DistanceMeters>
          </Trackpoint>
          <Trackpoint>
            <Time>2018-04-21T10:30:22.000Z</Time>
            <Position>
              <LatitudeDegrees>43.1752303428947925567626953125</LatitudeDegrees>
              <LongitudeDegrees>-8.28679195605218410491943359375</LongitudeDegrees>
            </Position>
            <AltitudeMeters>89.8000030517578125</AltitudeMeters>
            <DistanceMeters>40009.292336102</DistanceMeters>
          </Trackpoint>
          <Trackpoint>
            <Time>2018-04-21T10:30:26.000Z</Time>
            <Position>
              <LatitudeDegrees>43.17532204091548919677734375</LatitudeDegrees>
              <LongitudeDegrees>-8.286845684051513671875</LongitudeDegrees>
            </Position>
            <AltitudeMeters>90.8000030517578125</AltitudeMeters>
            <DistanceMeters>40020.390545088</DistanceMeters>
          </Trackpoint>
          <Trackpoint>
            <Time>2018-04-21T10:30:27.000Z</Time>
            <Position>
              <LatitudeDegrees>43.175344169139862060546875</LatitudeDegrees>
              <LongitudeDegrees>-8.28685364685952663421630859375</LongitudeDegrees>
            </Position>
            <AltitudeMeters>91</AltitudeMeters>
            <DistanceMeters>40022.936835505</DistanceMeters>
          </Trackpoint>
          <Trackpoint>
            <Time>2018-04-21T10:30:29.000Z</Time>
            <Position>
              <LatitudeDegrees>43.175384737551212310791015625</LatitudeDegrees>
              <LongitudeDegrees>-8.28688281588256359100341796875</LongitudeDegrees>
            </Position>
            <AltitudeMeters>91.59999847412109375</AltitudeMeters>
            <DistanceMeters>40028.035618701</DistanceMeters>
          </Trackpoint>
          <Trackpoint>
            <Time>2018-04-21T10:30:31.000Z</Time>
            <Position>
              <LatitudeDegrees>43.1754179298877716064453125</LatitudeDegrees>
              <LongitudeDegrees>-8.28691215254366397857666015625</LongitudeDegrees>
            </Position>
            <AltitudeMeters>92</AltitudeMeters>
            <DistanceMeters>40032.431567244</DistanceMeters>
          </Trackpoint>
          <Trackpoint>
            <Time>2018-04-21T10:30:33.000Z</Time>
            <Position>
              <LatitudeDegrees>43.17544969730079174041748046875</LatitudeDegrees>
              <LongitudeDegrees>-8.28692011535167694091796875</LongitudeDegrees>
            </Position>
            <AltitudeMeters>92.59999847412109375</AltitudeMeters>
            <DistanceMeters>40036.026291071</DistanceMeters>
          </Trackpoint>
          <Trackpoint>
            <Time>2018-04-21T10:30:35.000Z</Time>
            <Position>
              <LatitudeDegrees>43.1754849851131439208984375</LatitudeDegrees>
              <LongitudeDegrees>-8.2869196124374866485595703125</LongitudeDegrees>
            </Position>
            <AltitudeMeters>93.1999969482421875</AltitudeMeters>
            <DistanceMeters>40039.953551002</DistanceMeters>
          </Trackpoint>
          <Trackpoint>
            <Time>2018-04-21T10:30:37.000Z</Time>
            <Position>
              <LatitudeDegrees>43.17552614025771617889404296875</LatitudeDegrees>
              <LongitudeDegrees>-8.2869182713329792022705078125</LongitudeDegrees>
            </Position>
            <AltitudeMeters>93.8000030517578125</AltitudeMeters>
            <DistanceMeters>40044.534587747</DistanceMeters>
          </Trackpoint>
          <Trackpoint>
            <Time>2018-04-21T10:30:38.000Z</Time>
            <Position>
              <LatitudeDegrees>43.175548017024993896484375</LatitudeDegrees>
              <LongitudeDegrees>-8.286911062896251678466796875</LongitudeDegrees>
            </Position>
            <AltitudeMeters>94.40000152587890625</AltitudeMeters>
            <DistanceMeters>40047.037960083</DistanceMeters>
          </Trackpoint>
          <Trackpoint>
            <Time>2018-04-21T10:30:40.000Z</Time>
            <Position>
              <LatitudeDegrees>43.1755827181041240692138671875</LatitudeDegrees>
              <LongitudeDegrees>-8.286896981298923492431640625</LongitudeDegrees>
            </Position>
            <AltitudeMeters>95</AltitudeMeters>
            <DistanceMeters>40051.067361706</DistanceMeters>
          </Trackpoint>
          <Trackpoint>
            <Time>2018-04-21T10:30:41.000Z</Time>
            <Position>
              <LatitudeDegrees>43.17559822462499141693115234375</LatitudeDegrees>
              <LongitudeDegrees>-8.28689035959541797637939453125</LongitudeDegrees>
            </Position>
            <AltitudeMeters>95.40000152587890625</AltitudeMeters>
            <DistanceMeters>40052.875368253</DistanceMeters>
          </Trackpoint>
          <Trackpoint>
            <Time>2018-04-21T10:30:42.000Z</Time>
            <Position>
              <LatitudeDegrees>43.1756137311458587646484375</LatitudeDegrees>
              <LongitudeDegrees>-8.2868854142725467681884765625</LongitudeDegrees>
            </Position>
            <AltitudeMeters>95.59999847412109375</AltitudeMeters>
            <DistanceMeters>40054.648068623</DistanceMeters>
          </Trackpoint>
          <Trackpoint>
            <Time>2018-04-21T10:30:43.000Z</Time>
            <Position>
              <LatitudeDegrees>43.17563024349510669708251953125</LatitudeDegrees>
              <LongitudeDegrees>-8.286870829761028289794921875</LongitudeDegrees>
            </Position>
            <AltitudeMeters>96.40000152587890625</AltitudeMeters>
            <DistanceMeters>40056.833683054</DistanceMeters>
          </Trackpoint>
          <Trackpoint>
            <Time>2018-04-21T10:30:47.000Z</Time>
            <Position>
              <LatitudeDegrees>43.17569260485470294952392578125</LatitudeDegrees>
              <LongitudeDegrees>-8.28686538152396678924560546875</LongitudeDegrees>
            </Position>
            <AltitudeMeters>97.1999969482421875</AltitudeMeters>
            <DistanceMeters>40063.788184433</DistanceMeters>
          </Trackpoint>
          <Trackpoint>
            <Time>2018-04-21T10:30:48.000Z</Time>
            <Position>
              <LatitudeDegrees>43.1757121346890926361083984375</LatitudeDegrees>
              <LongitudeDegrees>-8.2868592627346515655517578125</LongitudeDegrees>
            </Position>
            <AltitudeMeters>97.59999847412109375</AltitudeMeters>
            <DistanceMeters>40066.018783483</DistanceMeters>
          </Trackpoint>
          <Trackpoint>
            <Time>2018-04-21T10:30:52.000Z</Time>
            <Position>
              <LatitudeDegrees>43.17577340640127658843994140625</LatitudeDegrees>
              <LongitudeDegrees>-8.28684501349925994873046875</LongitudeDegrees>
            </Position>
            <AltitudeMeters>98.8000030517578125</AltitudeMeters>
            <DistanceMeters>40072.935527298</DistanceMeters>
          </Trackpoint>
          <Trackpoint>
            <Time>2018-04-21T10:30:54.000Z</Time>
            <Position>
              <LatitudeDegrees>43.175809867680072784423828125</LatitudeDegrees>
              <LongitudeDegrees>-8.28683990053832530975341796875</LongitudeDegrees>
            </Position>
            <AltitudeMeters>99.59999847412109375</AltitudeMeters>
            <DistanceMeters>40077.013933948</DistanceMeters>
          </Trackpoint>
          <Trackpoint>
            <Time>2018-04-21T10:30:55.000Z</Time>
            <Position>
              <LatitudeDegrees>43.175826966762542724609375</LatitudeDegrees>
              <LongitudeDegrees>-8.286839313805103302001953125</LongitudeDegrees>
            </Position>
            <AltitudeMeters>100</AltitudeMeters>
            <DistanceMeters>40078.916842421</DistanceMeters>
          </Trackpoint>
          <Trackpoint>
            <Time>2018-04-21T10:30:59.000Z</Time>
            <Position>
              <LatitudeDegrees>43.17588664591312408447265625</LatitudeDegrees>
              <LongitudeDegrees>-8.286824561655521392822265625</LongitudeDegrees>
            </Position>
            <AltitudeMeters>101.1999969482421875</AltitudeMeters>
            <DistanceMeters>40085.666415419</DistanceMeters>
          </Trackpoint>
          <Trackpoint>
            <Time>2018-04-21T10:31:01.000Z</Time>
            <Position>
              <LatitudeDegrees>43.17592076025903224945068359375</LatitudeDegrees>
              <LongitudeDegrees>-8.28681525774300098419189453125</LongitudeDegrees>
            </Position>
            <AltitudeMeters>101.59999847412109375</AltitudeMeters>
            <DistanceMeters>40089.53693177</DistanceMeters>
          </Trackpoint>
          <Trackpoint>
            <Time>2018-04-21T10:31:03.000Z</Time>
            <Position>
              <LatitudeDegrees>43.1759558804333209991455078125</LatitudeDegrees>
              <LongitudeDegrees>-8.28680880367755889892578125</LongitudeDegrees>
            </Position>
            <AltitudeMeters>102.40000152587890625</AltitudeMeters>
            <DistanceMeters>40093.480254181</DistanceMeters>
          </Trackpoint>
          <Trackpoint>
            <Time>2018-04-21T10:31:07.000Z</Time>
            <Position>
              <LatitudeDegrees>43.17601631395518779754638671875</LatitudeDegrees>
              <LongitudeDegrees>-8.28679271042346954345703125</LongitudeDegrees>
            </Position>
            <AltitudeMeters>103.59999847412109375</AltitudeMeters>
            <DistanceMeters>40100.332728005</DistanceMeters>
          </Trackpoint>
          <Trackpoint>
            <Time>2018-04-21T10:31:09.000Z</Time>
            <Position>
              <LatitudeDegrees>43.176043219864368438720703125</LatitudeDegrees>
              <LongitudeDegrees>-8.28677385114133358001708984375</LongitudeDegrees>
            </Position>
            <AltitudeMeters>104.40000152587890625</AltitudeMeters>
            <DistanceMeters>40103.696458937</DistanceMeters>
          </Trackpoint>
          <Trackpoint>
            <Time>2018-04-21T10:31:11.000Z</Time>
            <Position>
              <LatitudeDegrees>43.1760715506970882415771484375</LatitudeDegrees>
              <LongitudeDegrees>-8.28675557859241962432861328125</LongitudeDegrees>
            </Position>
            <AltitudeMeters>104.59999847412109375</AltitudeMeters>
            <DistanceMeters>40107.18019583</DistanceMeters>
          </Trackpoint>
          <Trackpoint>
            <Time>2018-04-21T10:31:16.000Z</Time>
            <Position>
              <LatitudeDegrees>43.17612678743898868560791015625</LatitudeDegrees>
              <LongitudeDegrees>-8.28668667934834957122802734375</LongitudeDegrees>
            </Position>
            <AltitudeMeters>105.59999847412109375</AltitudeMeters>
            <DistanceMeters>40115.490552299</DistanceMeters>
          </Trackpoint>
          <Trackpoint>
            <Time>2018-04-21T10:31:17.000Z</Time>
            <Position>
              <LatitudeDegrees>43.1761365942656993865966796875</LatitudeDegrees>
              <LongitudeDegrees>-8.286665640771389007568359375</LongitudeDegrees>
            </Position>
            <AltitudeMeters>105.8000030517578125</AltitudeMeters>
            <DistanceMeters>40117.515312706</DistanceMeters>
          </Trackpoint>
          <Trackpoint>
            <Time>2018-04-21T10:31:21.000Z</Time>
            <Position>
              <LatitudeDegrees>43.1761999614536762237548828125</LatitudeDegrees>
              <LongitudeDegrees>-8.286617696285247802734375</LongitudeDegrees>
            </Position>
            <AltitudeMeters>106.1999969482421875</AltitudeMeters>
            <DistanceMeters>40125.570753683</DistanceMeters>
          </Trackpoint>
          <Trackpoint>
            <Time>2018-04-21T10:31:26.000Z</Time>
            <Position>
              <LatitudeDegrees>43.1763075850903987884521484375</LatitudeDegrees>
              <LongitudeDegrees>-8.28659598715603351593017578125</LongitudeDegrees>
            </Position>
            <AltitudeMeters>106.8000030517578125</AltitudeMeters>
            <DistanceMeters>40137.678365379</DistanceMeters>
          </Trackpoint>
          <Trackpoint>
            <Time>2018-04-21T10:31:28.000Z</Time>
            <Position>
              <LatitudeDegrees>43.176359720528125762939453125</LatitudeDegrees>
              <LongitudeDegrees>-8.286581151187419891357421875</LongitudeDegrees>
            </Position>
            <AltitudeMeters>107.1999969482421875</AltitudeMeters>
            <DistanceMeters>40143.60516868</DistanceMeters>
          </Trackpoint>
          <Trackpoint>
            <Time>2018-04-21T10:31:31.000Z</Time>
            <Position>
              <LatitudeDegrees>43.1764304637908935546875</LatitudeDegrees>
              <LongitudeDegrees>-8.286553323268890380859375</LongitudeDegrees>
            </Position>
            <AltitudeMeters>108.1999969482421875</AltitudeMeters>
            <DistanceMeters>40151.797331284</DistanceMeters>
          </Trackpoint>
          <Trackpoint>
            <Time>2018-04-21T10:31:38.000Z</Time>
            <Position>
              <LatitudeDegrees>43.17658728919923305511474609375</LatitudeDegrees>
              <LongitudeDegrees>-8.2864616252481937408447265625</LongitudeDegrees>
            </Position>
            <AltitudeMeters>109.1999969482421875</AltitudeMeters>
            <DistanceMeters>40170.772717133</DistanceMeters>
          </Trackpoint>
          <Trackpoint>
            <Time>2018-04-21T10:31:42.000Z</Time>
            <Position>
              <LatitudeDegrees>43.17667848430573940277099609375</LatitudeDegrees>
              <LongitudeDegrees>-8.28640756197273731231689453125</LongitudeDegrees>
            </Position>
            <AltitudeMeters>106.1999969482421875</AltitudeMeters>
            <DistanceMeters>40181.830985316</DistanceMeters>
          </Trackpoint>
          <Trackpoint>
            <Time>2018-04-21T10:31:43.000Z</Time>
            <Position>
              <LatitudeDegrees>43.1766985170543193817138671875</LatitudeDegrees>
              <LongitudeDegrees>-8.28639507293701171875</LongitudeDegrees>
            </Position>
            <AltitudeMeters>109.1999969482421875</AltitudeMeters>
            <DistanceMeters>40184.279652455</DistanceMeters>
          </Trackpoint>
          <Trackpoint>
            <Time>2018-04-21T10:31:45.000Z</Time>
            <Position>
              <LatitudeDegrees>43.17673916928470134735107421875</LatitudeDegrees>
              <LongitudeDegrees>-8.2863697595894336700439453125</LongitudeDegrees>
            </Position>
            <AltitudeMeters>112</AltitudeMeters>
            <DistanceMeters>40189.248377543</DistanceMeters>
          </Trackpoint>
          <Trackpoint>
            <Time>2018-04-21T10:31:46.000Z</Time>
            <Position>
              <LatitudeDegrees>43.17676029168069362640380859375</LatitudeDegrees>
              <LongitudeDegrees>-8.28635810874402523040771484375</LongitudeDegrees>
            </Position>
            <AltitudeMeters>110</AltitudeMeters>
            <DistanceMeters>40191.782225279</DistanceMeters>
          </Trackpoint>
          <Trackpoint>
            <Time>2018-04-21T10:31:50.000Z</Time>
            <Position>
              <LatitudeDegrees>43.176854588091373443603515625</LatitudeDegrees>
              <LongitudeDegrees>-8.2863171212375164031982421875</LongitudeDegrees>
            </Position>
            <AltitudeMeters>111.40000152587890625</AltitudeMeters>
            <DistanceMeters>40202.792209212</DistanceMeters>
          </Trackpoint>
          <Trackpoint>
            <Time>2018-04-21T10:31:55.000Z</Time>
            <Position>
              <LatitudeDegrees>43.176969252526760101318359375</LatitudeDegrees>
              <LongitudeDegrees>-8.28630312345921993255615234375</LongitudeDegrees>
            </Position>
            <AltitudeMeters>112.40000152587890625</AltitudeMeters>
            <DistanceMeters>40215.604968077</DistanceMeters>
          </Trackpoint>
          <Trackpoint>
            <Time>2018-04-21T10:31:56.000Z</Time>
            <Position>
              <LatitudeDegrees>43.17699037492275238037109375</LatitudeDegrees>
              <LongitudeDegrees>-8.28630748204886913299560546875</LongitudeDegrees>
            </Position>
            <AltitudeMeters>112.59999847412109375</AltitudeMeters>
            <DistanceMeters>40217.982535711</DistanceMeters>
          </Trackpoint>
          <Trackpoint>
            <Time>2018-04-21T10:32:00.000Z</Time>
            <Position>
              <LatitudeDegrees>43.17708584479987621307373046875</LatitudeDegrees>
              <LongitudeDegrees>-8.28633530996739864349365234375</LongitudeDegrees>
            </Position>
            <AltitudeMeters>113.59999847412109375</AltitudeMeters>
            <DistanceMeters>40228.846379374</DistanceMeters>
          </Trackpoint>
          <Trackpoint>
            <Time>2018-04-21T10:32:02.000Z</Time>
            <Position>
              <LatitudeDegrees>43.1771372258663177490234375</LatitudeDegrees>
              <LongitudeDegrees>-8.286345116794109344482421875</LongitudeDegrees>
            </Position>
            <AltitudeMeters>114</AltitudeMeters>
            <DistanceMeters>40234.620376449</DistanceMeters>
          </Trackpoint>
          <Trackpoint>
            <Time>2018-04-21T10:32:06.000Z</Time>
            <Position>
              <LatitudeDegrees>43.17723571322858333587646484375</LatitudeDegrees>
              <LongitudeDegrees>-8.28633866272866725921630859375</LongitudeDegrees>
            </Position>
            <AltitudeMeters>114.8000030517578125</AltitudeMeters>
            <DistanceMeters>40245.595036335</DistanceMeters>
          </Trackpoint>
          <Trackpoint>
            <Time>2018-04-21T10:32:08.000Z</Time>
            <Position>
              <LatitudeDegrees>43.1772822327911853790283203125</LatitudeDegrees>
              <LongitudeDegrees>-8.28629859723150730133056640625</LongitudeDegrees>
            </Position>
            <AltitudeMeters>115</AltitudeMeters>
            <DistanceMeters>40251.709324231</DistanceMeters>
          </Trackpoint>
          <Trackpoint>
            <Time>2018-04-21T10:32:13.000Z</Time>
            <Position>
              <LatitudeDegrees>43.1774471886456012725830078125</LatitudeDegrees>
              <LongitudeDegrees>-8.2861172966659069061279296875</LongitudeDegrees>
            </Position>
            <AltitudeMeters>114.40000152587890625</AltitudeMeters>
            <DistanceMeters>40275.238752333</DistanceMeters>
          </Trackpoint>
          <Trackpoint>
            <Time>2018-04-21T10:32:15.000Z</Time>
            <Position>
              <LatitudeDegrees>43.1775323487818241119384765625</LatitudeDegrees>
              <LongitudeDegrees>-8.28602182678878307342529296875</LongitudeDegrees>
            </Position>
            <AltitudeMeters>113.40000152587890625</AltitudeMeters>
            <DistanceMeters>40287.481719248</DistanceMeters>
          </Trackpoint>
          <Trackpoint>
            <Time>2018-04-21T10:32:18.000Z</Time>
            <Position>
              <LatitudeDegrees>43.17767542786896228790283203125</LatitudeDegrees>
              <LongitudeDegrees>-8.28585770912468433380126953125</LongitudeDegrees>
            </Position>
            <AltitudeMeters>112.59999847412109375</AltitudeMeters>
            <DistanceMeters>40308.243262278</DistanceMeters>
          </Trackpoint>
          <Trackpoint>
            <Time>2018-04-21T10:32:19.000Z</Time>
            <Position>
              <LatitudeDegrees>43.17773276008665561676025390625</LatitudeDegrees>
              <LongitudeDegrees>-8.28580557368695735931396484375</LongitudeDegrees>
            </Position>
            <AltitudeMeters>112.1999969482421875</AltitudeMeters>
            <DistanceMeters>40315.899255107</DistanceMeters>
          </Trackpoint>
          <Trackpoint>
            <Time>2018-04-21T10:32:23.000Z</Time>
            <Position>
              <LatitudeDegrees>43.177960999310016632080078125</LatitudeDegrees>
              <LongitudeDegrees>-8.2856341637670993804931640625</LongitudeDegrees>
            </Position>
            <AltitudeMeters>111.1999969482421875</AltitudeMeters>
            <DistanceMeters>40344.862923757</DistanceMeters>
          </Trackpoint>
          <Trackpoint>
            <Time>2018-04-21T10:32:27.000Z</Time>
            <Position>
              <LatitudeDegrees>43.1781821139156818389892578125</LatitudeDegrees>
              <LongitudeDegrees>-8.28549376688897609710693359375</LongitudeDegrees>
            </Position>
            <AltitudeMeters>111.40000152587890625</AltitudeMeters>
            <DistanceMeters>40371.983354921</DistanceMeters>
          </Trackpoint>
          <Trackpoint>
            <Time>2018-04-21T10:32:30.000Z</Time>
            <Position>
              <LatitudeDegrees>43.17834698595106601715087890625</LatitudeDegrees>
              <LongitudeDegrees>-8.2853927649557590484619140625</LongitudeDegrees>
            </Position>
            <AltitudeMeters>111.59999847412109375</AltitudeMeters>
            <DistanceMeters>40392.081448847</DistanceMeters>
          </Trackpoint>
          <Trackpoint>
            <Time>2018-04-21T10:32:34.000Z</Time>
            <Position>
              <LatitudeDegrees>43.17857648245990276336669921875</LatitudeDegrees>
              <LongitudeDegrees>-8.28525069169700145721435546875</LongitudeDegrees>
            </Position>
            <AltitudeMeters>111</AltitudeMeters>
            <DistanceMeters>40420.107080849</DistanceMeters>
          </Trackpoint>
          <Trackpoint>
            <Time>2018-04-21T10:32:36.000Z</Time>
            <Position>
              <LatitudeDegrees>43.17869483493268489837646484375</LatitudeDegrees>
              <LongitudeDegrees>-8.2851791940629482269287109375</LongitudeDegrees>
            </Position>
            <AltitudeMeters>111.1999969482421875</AltitudeMeters>
            <DistanceMeters>40434.501667821</DistanceMeters>
          </Trackpoint>
          <Trackpoint>
            <Time>2018-04-21T10:32:38.000Z</Time>
            <Position>
              <LatitudeDegrees>43.17881285212934017181396484375</LatitudeDegrees>
              <LongitudeDegrees>-8.28510560095310211181640625</LongitudeDegrees>
            </Position>
            <AltitudeMeters>111</AltitudeMeters>
            <DistanceMeters>40448.931655095</DistanceMeters>
          </Trackpoint>
          <Trackpoint>
            <Time>2018-04-21T10:32:40.000Z</Time>
            <Position>
              <LatitudeDegrees>43.178929947316646575927734375</LatitudeDegrees>
              <LongitudeDegrees>-8.2850367017090320587158203125</LongitudeDegrees>
            </Position>
            <AltitudeMeters>111.1999969482421875</AltitudeMeters>
            <DistanceMeters>40463.113894788</DistanceMeters>
          </Trackpoint>
          <Trackpoint>
            <Time>2018-04-21T10:32:46.000Z</Time>
            <Position>
              <LatitudeDegrees>43.1792617030441761016845703125</LatitudeDegrees>
              <LongitudeDegrees>-8.2848341949284076690673828125</LongitudeDegrees>
            </Position>
            <AltitudeMeters>111.59999847412109375</AltitudeMeters>
            <DistanceMeters>40503.5316509</DistanceMeters>
          </Trackpoint>
          <Trackpoint>
            <Time>2018-04-21T10:32:51.000Z</Time>
            <Position>
              <LatitudeDegrees>43.17950670607388019561767578125</LatitudeDegrees>
              <LongitudeDegrees>-8.2846960611641407012939453125</LongitudeDegrees>
            </Position>
            <AltitudeMeters>112.40000152587890625</AltitudeMeters>
            <DistanceMeters>40533.015670285</DistanceMeters>
          </Trackpoint>
          <Trackpoint>
            <Time>2018-04-21T10:32:53.000Z</Time>
            <Position>
              <LatitudeDegrees>43.17960108630359172821044921875</LatitudeDegrees>
              <LongitudeDegrees>-8.284635879099369049072265625</LongitudeDegrees>
            </Position>
            <AltitudeMeters>112.40000152587890625</AltitudeMeters>
            <DistanceMeters>40544.600358288</DistanceMeters>
          </Trackpoint>
          <Trackpoint>
            <Time>2018-04-21T10:32:59.000Z</Time>
            <Position>
              <LatitudeDegrees>43.17989596165716648101806640625</LatitudeDegrees>
              <LongitudeDegrees>-8.28442473895847797393798828125</LongitudeDegrees>
            </Position>
            <AltitudeMeters>112.59999847412109375</AltitudeMeters>
            <DistanceMeters>40581.625063752</DistanceMeters>
          </Trackpoint>
          <Trackpoint>
            <Time>2018-04-21T10:33:07.000Z</Time>
            <Position>
              <LatitudeDegrees>43.1803325749933719635009765625</LatitudeDegrees>
              <LongitudeDegrees>-8.28415651805698871612548828125</LongitudeDegrees>
            </Position>
            <AltitudeMeters>112.59999847412109375</AltitudeMeters>
            <DistanceMeters>40634.87420547</DistanceMeters>
          </Trackpoint>
          <Trackpoint>
            <Time>2018-04-21T10:33:12.000Z</Time>
            <Position>
              <LatitudeDegrees>43.18065217696130275726318359375</LatitudeDegrees>
              <LongitudeDegrees>-8.28393892385065555572509765625</LongitudeDegrees>
            </Position>
            <AltitudeMeters>111.1999969482421875</AltitudeMeters>
            <DistanceMeters>40674.58900614</DistanceMeters>
          </Trackpoint>
          <Trackpoint>
            <Time>2018-04-21T10:33:14.000Z</Time>
            <Position>
              <LatitudeDegrees>43.18079240620136260986328125</LatitudeDegrees>
              <LongitudeDegrees>-8.28385711647570133209228515625</LongitudeDegrees>
            </Position>
            <AltitudeMeters>110.1999969482421875</AltitudeMeters>
            <DistanceMeters>40691.550409544</DistanceMeters>
          </Trackpoint>
          <Trackpoint>
            <Time>2018-04-21T10:33:17.000Z</Time>
            <Position>
              <LatitudeDegrees>43.18099851720035076141357421875</LatitudeDegrees>
              <LongitudeDegrees>-8.28372384421527385711669921875</LongitudeDegrees>
            </Position>
            <AltitudeMeters>108.59999847412109375</AltitudeMeters>
            <DistanceMeters>40716.913109037</DistanceMeters>
          </Trackpoint>
          <Trackpoint>
            <Time>2018-04-21T10:33:20.000Z</Time>
            <Position>
              <LatitudeDegrees>43.18120169453322887420654296875</LatitudeDegrees>
              <LongitudeDegrees>-8.2835913263261318206787109375</LongitudeDegrees>
            </Position>
            <AltitudeMeters>108</AltitudeMeters>
            <DistanceMeters>40741.954406296</DistanceMeters>
          </Trackpoint>
          <Trackpoint>
            <Time>2018-04-21T10:33:22.000Z</Time>
            <Position>
              <LatitudeDegrees>43.181335888803005218505859375</LatitudeDegrees>
              <LongitudeDegrees>-8.283516056835651397705078125</LongitudeDegrees>
            </Position>
            <AltitudeMeters>108.59999847412109375</AltitudeMeters>
            <DistanceMeters>40758.091610034</DistanceMeters>
          </Trackpoint>
          <Trackpoint>
            <Time>2018-04-21T10:33:28.000Z</Time>
            <Position>
              <LatitudeDegrees>43.18171508610248565673828125</LatitudeDegrees>
              <LongitudeDegrees>-8.2833143882453441619873046875</LongitudeDegrees>
            </Position>
            <AltitudeMeters>108.59999847412109375</AltitudeMeters>
            <DistanceMeters>40803.359747587</DistanceMeters>
          </Trackpoint>
          <Trackpoint>
            <Time>2018-04-21T10:33:31.000Z</Time>
            <Position>
              <LatitudeDegrees>43.181894458830356597900390625</LatitudeDegrees>
              <LongitudeDegrees>-8.2831967063248157501220703125</LongitudeDegrees>
            </Position>
            <AltitudeMeters>108.40000152587890625</AltitudeMeters>
            <DistanceMeters>40825.491385721</DistanceMeters>
          </Trackpoint>
          <Trackpoint>
            <Time>2018-04-21T10:33:35.000Z</Time>
            <Position>
              <LatitudeDegrees>43.18212144076824188232421875</LatitudeDegrees>
              <LongitudeDegrees>-8.28305614180862903594970703125</LongitudeDegrees>
            </Position>
            <AltitudeMeters>108.8000030517578125</AltitudeMeters>
            <DistanceMeters>40853.211184868</DistanceMeters>
          </Trackpoint>
          <Trackpoint>
            <Time>2018-04-21T10:33:40.000Z</Time>
            <Position>
              <LatitudeDegrees>43.18231724202632904052734375</LatitudeDegrees>
              <LongitudeDegrees>-8.28291012905538082122802734375</LongitudeDegrees>
            </Position>
            <AltitudeMeters>109.8000030517578125</AltitudeMeters>
            <DistanceMeters>40878.017707989</DistanceMeters>
          </Trackpoint>
          <Trackpoint>
            <Time>2018-04-21T10:33:44.000Z</Time>
            <Position>
              <LatitudeDegrees>43.18240801803767681121826171875</LatitudeDegrees>
              <LongitudeDegrees>-8.28284583985805511474609375</LongitudeDegrees>
            </Position>
            <AltitudeMeters>110.8000030517578125</AltitudeMeters>
            <DistanceMeters>40889.389194026</DistanceMeters>
          </Trackpoint>
          <Trackpoint>
            <Time>2018-04-21T10:33:45.000Z</Time>
            <Position>
              <LatitudeDegrees>43.1824236921966075897216796875</LatitudeDegrees>
              <LongitudeDegrees>-8.2828292436897754669189453125</LongitudeDegrees>
            </Position>
            <AltitudeMeters>111</AltitudeMeters>
            <DistanceMeters>40891.593322227</DistanceMeters>
          </Trackpoint>
          <Trackpoint>
            <Time>2018-04-21T10:33:47.000Z</Time>
            <Position>
              <LatitudeDegrees>43.18246635608375072479248046875</LatitudeDegrees>
              <LongitudeDegrees>-8.28279831446707248687744140625</LongitudeDegrees>
            </Position>
            <AltitudeMeters>111.8000030517578125</AltitudeMeters>
            <DistanceMeters>40896.965484205</DistanceMeters>
          </Trackpoint>
          <Trackpoint>
            <Time>2018-04-21T10:33:48.000Z</Time>
            <Position>
              <LatitudeDegrees>43.1824847124516963958740234375</LatitudeDegrees>
              <LongitudeDegrees>-8.2827920280396938323974609375</LongitudeDegrees>
            </Position>
            <AltitudeMeters>111.8000030517578125</AltitudeMeters>
            <DistanceMeters>40899.073278694</DistanceMeters>
          </Trackpoint>
          <Trackpoint>
            <Time>2018-04-21T10:33:50.000Z</Time>
            <Position>
              <LatitudeDegrees>43.1825232692062854766845703125</LatitudeDegrees>
              <LongitudeDegrees>-8.2827621884644031524658203125</LongitudeDegrees>
            </Position>
            <AltitudeMeters>112.1999969482421875</AltitudeMeters>
            <DistanceMeters>40904.001859183</DistanceMeters>
          </Trackpoint>
          <Trackpoint>
            <Time>2018-04-21T10:33:51.000Z</Time>
            <Position>
              <LatitudeDegrees>43.182538188993930816650390625</LatitudeDegrees>
              <LongitudeDegrees>-8.28274886123836040496826171875</LongitudeDegrees>
            </Position>
            <AltitudeMeters>112.59999847412109375</AltitudeMeters>
            <DistanceMeters>40905.986075232</DistanceMeters>
          </Trackpoint>
          <Trackpoint>
            <Time>2018-04-21T10:33:52.000Z</Time>
            <Position>
              <LatitudeDegrees>43.18255688063800334930419921875</LatitudeDegrees>
              <LongitudeDegrees>-8.282732851803302764892578125</LongitudeDegrees>
            </Position>
            <AltitudeMeters>113</AltitudeMeters>
            <DistanceMeters>40908.43842735</DistanceMeters>
          </Trackpoint>
          <Trackpoint>
            <Time>2018-04-21T10:33:54.000Z</Time>
            <Position>
              <LatitudeDegrees>43.1825933419167995452880859375</LatitudeDegrees>
              <LongitudeDegrees>-8.2827035151422023773193359375</LongitudeDegrees>
            </Position>
            <AltitudeMeters>113.59999847412109375</AltitudeMeters>
            <DistanceMeters>40913.143929177</DistanceMeters>
          </Trackpoint>
          <Trackpoint>
            <Time>2018-04-21T10:33:56.000Z</Time>
            <Position>
              <LatitudeDegrees>43.182633407413959503173828125</LatitudeDegrees>
              <LongitudeDegrees>-8.28267543576657772064208984375</LongitudeDegrees>
            </Position>
            <AltitudeMeters>114.1999969482421875</AltitudeMeters>
            <DistanceMeters>40918.152477106</DistanceMeters>
          </Trackpoint>
          <Trackpoint>
            <Time>2018-04-21T10:33:58.000Z</Time>
            <Position>
              <LatitudeDegrees>43.18267707712948322296142578125</LatitudeDegrees>
              <LongitudeDegrees>-8.28265699557960033416748046875</LongitudeDegrees>
            </Position>
            <AltitudeMeters>114.59999847412109375</AltitudeMeters>
            <DistanceMeters>40923.237960263</DistanceMeters>
          </Trackpoint>
          <Trackpoint>
            <Time>2018-04-21T10:34:00.000Z</Time>
            <Position>
              <LatitudeDegrees>43.1827153824269771575927734375</LatitudeDegrees>
              <LongitudeDegrees>-8.28263101167976856231689453125</LongitudeDegrees>
            </Position>
            <AltitudeMeters>115.1999969482421875</AltitudeMeters>
            <DistanceMeters>40927.994044944</DistanceMeters>
          </Trackpoint>
          <Trackpoint>
            <Time>2018-04-21T10:34:03.000Z</Time>
            <Position>
              <LatitudeDegrees>43.18276994861662387847900390625</LatitudeDegrees>
              <LongitudeDegrees>-8.2825858332216739654541015625</LongitudeDegrees>
            </Position>
            <AltitudeMeters>116.1999969482421875</AltitudeMeters>
            <DistanceMeters>40935.088029439</DistanceMeters>
          </Trackpoint>
          <Trackpoint>
            <Time>2018-04-21T10:34:04.000Z</Time>
            <Position>
              <LatitudeDegrees>43.1827867962419986724853515625</LatitudeDegrees>
              <LongitudeDegrees>-8.2825717516243457794189453125</LongitudeDegrees>
            </Position>
            <AltitudeMeters>116.1999969482421875</AltitudeMeters>
            <DistanceMeters>40937.283948568</DistanceMeters>
          </Trackpoint>
          <Trackpoint>
            <Time>2018-04-21T10:34:07.000Z</Time>
            <Position>
              <LatitudeDegrees>43.18283717148005962371826171875</LatitudeDegrees>
              <LongitudeDegrees>-8.282535374164581298828125</LongitudeDegrees>
            </Position>
            <AltitudeMeters>117</AltitudeMeters>
            <DistanceMeters>40943.620171408</DistanceMeters>
          </Trackpoint>
          <Trackpoint>
            <Time>2018-04-21T10:34:09.000Z</Time>
            <Position>
              <LatitudeDegrees>43.1828672625124454498291015625</LatitudeDegrees>
              <LongitudeDegrees>-8.2824973203241825103759765625</LongitudeDegrees>
            </Position>
            <AltitudeMeters>117.1999969482421875</AltitudeMeters>
            <DistanceMeters>40948.175510656</DistanceMeters>
          </Trackpoint>
          <Trackpoint>
            <Time>2018-04-21T10:34:10.000Z</Time>
            <Position>
              <LatitudeDegrees>43.18287924863398075103759765625</LatitudeDegrees>
              <LongitudeDegrees>-8.28247108496725559234619140625</LongitudeDegrees>
            </Position>
            <AltitudeMeters>117.59999847412109375</AltitudeMeters>
            <DistanceMeters>40950.687884719</DistanceMeters>
          </Trackpoint>
          <Trackpoint>
            <Time>2018-04-21T10:34:15.000Z</Time>
            <Position>
              <LatitudeDegrees>43.1828917376697063446044921875</LatitudeDegrees>
              <LongitudeDegrees>-8.2822938077151775360107421875</LongitudeDegrees>
            </Position>
            <AltitudeMeters>117.8000030517578125</AltitudeMeters>
            <DistanceMeters>40965.141944654</DistanceMeters>
          </Trackpoint>
          <Trackpoint>
            <Time>2018-04-21T10:34:20.000Z</Time>
            <Position>
              <LatitudeDegrees>43.182785622775554656982421875</LatitudeDegrees>
              <LongitudeDegrees>-8.282024748623371124267578125</LongitudeDegrees>
            </Position>
            <AltitudeMeters>117.1999969482421875</AltitudeMeters>
            <DistanceMeters>40989.967935219</DistanceMeters>
          </Trackpoint>
          <Trackpoint>
            <Time>2018-04-21T10:34:25.000Z</Time>
            <Position>
              <LatitudeDegrees>43.18271110765635967254638671875</LatitudeDegrees>
              <LongitudeDegrees>-8.281764574348926544189453125</LongitudeDegrees>
            </Position>
            <AltitudeMeters>117.40000152587890625</AltitudeMeters>
            <DistanceMeters>41012.653660174</DistanceMeters>
          </Trackpoint>
          <Trackpoint>
            <Time>2018-04-21T10:34:26.000Z</Time>
            <Position>
              <LatitudeDegrees>43.18273927085101604461669921875</LatitudeDegrees>
              <LongitudeDegrees>-8.28172895126044750213623046875</LongitudeDegrees>
            </Position>
            <AltitudeMeters>117.59999847412109375</AltitudeMeters>
            <DistanceMeters>41016.919290729</DistanceMeters>
          </Trackpoint>
          <Trackpoint>
            <Time>2018-04-21T10:34:29.000Z</Time>
            <Position>
              <LatitudeDegrees>43.18282057531177997589111328125</LatitudeDegrees>
              <LongitudeDegrees>-8.28171126544475555419921875</LongitudeDegrees>
            </Position>
            <AltitudeMeters>118.59999847412109375</AltitudeMeters>
            <DistanceMeters>41026.082349758</DistanceMeters>
          </Trackpoint>
          <Trackpoint>
            <Time>2018-04-21T10:34:31.000Z</Time>
            <Position>
              <LatitudeDegrees>43.18286919035017490386962890625</LatitudeDegrees>
              <LongitudeDegrees>-8.28171403147280216217041015625</LongitudeDegrees>
            </Position>
            <AltitudeMeters>118.8000030517578125</AltitudeMeters>
            <DistanceMeters>41031.498038846</DistanceMeters>
          </Trackpoint>
          <Trackpoint>
            <Time>2018-04-21T10:34:34.000Z</Time>
            <Position>
              <LatitudeDegrees>43.18294831551611423492431640625</LatitudeDegrees>
              <LongitudeDegrees>-8.281706906855106353759765625</LongitudeDegrees>
            </Position>
            <AltitudeMeters>119.59999847412109375</AltitudeMeters>
            <DistanceMeters>41040.323764844</DistanceMeters>
          </Trackpoint>
          <Trackpoint>
            <Time>2018-04-21T10:34:36.000Z</Time>
            <Position>
              <LatitudeDegrees>43.18299760110676288604736328125</LatitudeDegrees>
              <LongitudeDegrees>-8.28169290907680988311767578125</LongitudeDegrees>
            </Position>
            <AltitudeMeters>120.1999969482421875</AltitudeMeters>
            <DistanceMeters>41045.926312989</DistanceMeters>
          </Trackpoint>
          <Trackpoint>
            <Time>2018-04-21T10:34:39.000Z</Time>
            <Position>
              <LatitudeDegrees>43.183072619140148162841796875</LatitudeDegrees>
              <LongitudeDegrees>-8.28167430125176906585693359375</LongitudeDegrees>
            </Position>
            <AltitudeMeters>121</AltitudeMeters>
            <DistanceMeters>41054.410873639</DistanceMeters>
          </Trackpoint>
          <Trackpoint>
            <Time>2018-04-21T10:34:42.000Z</Time>
            <Position>
              <LatitudeDegrees>43.18314881063997745513916015625</LatitudeDegrees>
              <LongitudeDegrees>-8.28163507394492626190185546875</LongitudeDegrees>
            </Position>
            <AltitudeMeters>121.8000030517578125</AltitudeMeters>
            <DistanceMeters>41063.468868702</DistanceMeters>
          </Trackpoint>
          <Trackpoint>
            <Time>2018-04-21T10:34:43.000Z</Time>
            <Position>
              <LatitudeDegrees>43.18317311815917491912841796875</LatitudeDegrees>
              <LongitudeDegrees>-8.2816256023943424224853515625</LongitudeDegrees>
            </Position>
            <AltitudeMeters>122.1999969482421875</AltitudeMeters>
            <DistanceMeters>41066.281402607</DistanceMeters>
          </Trackpoint>
          <Trackpoint>
            <Time>2018-04-21T10:34:47.000Z</Time>
            <Position>
              <LatitudeDegrees>43.18324604071676731109619140625</LatitudeDegrees>
              <LongitudeDegrees>-8.2815277017652988433837890625</LongitudeDegrees>
            </Position>
            <AltitudeMeters>123.1999969482421875</AltitudeMeters>
            <DistanceMeters>41077.639380952</DistanceMeters>
          </Trackpoint>
          <Trackpoint>
            <Time>2018-04-21T10:34:48.000Z</Time>
            <Position>
              <LatitudeDegrees>43.1832588650286197662353515625</LatitudeDegrees>
              <LongitudeDegrees>-8.281494677066802978515625</LongitudeDegrees>
            </Position>
            <AltitudeMeters>123.40000152587890625</AltitudeMeters>
            <DistanceMeters>41080.675778167</DistanceMeters>
          </Trackpoint>
          <Trackpoint>
            <Time>2018-04-21T10:34:51.000Z</Time>
            <Position>
              <LatitudeDegrees>43.18329222500324249267578125</LatitudeDegrees>
              <LongitudeDegrees>-8.28139920718967914581298828125</LongitudeDegrees>
            </Position>
            <AltitudeMeters>124.40000152587890625</AltitudeMeters>
            <DistanceMeters>41089.267160178</DistanceMeters>
          </Trackpoint>
          <Trackpoint>
            <Time>2018-04-21T10:34:55.000Z</Time>
            <Position>
              <LatitudeDegrees>43.18333338014781475067138671875</LatitudeDegrees>
              <LongitudeDegrees>-8.2812692038714885711669921875</LongitudeDegrees>
            </Position>
            <AltitudeMeters>125</AltitudeMeters>
            <DistanceMeters>41100.769711201</DistanceMeters>
          </Trackpoint>
          <Trackpoint>
            <Time>2018-04-21T10:34:58.000Z</Time>
            <Position>
              <LatitudeDegrees>43.18338803015649318695068359375</LatitudeDegrees>
              <LongitudeDegrees>-8.281155042350292205810546875</LongitudeDegrees>
            </Position>
            <AltitudeMeters>125.40000152587890625</AltitudeMeters>
            <DistanceMeters>41111.853264781</DistanceMeters>
          </Trackpoint>
          <Trackpoint>
            <Time>2018-04-21T10:35:01.000Z</Time>
            <Position>
              <LatitudeDegrees>43.18346413783729076385498046875</LatitudeDegrees>
              <LongitudeDegrees>-8.28106108121573925018310546875</LongitudeDegrees>
            </Position>
            <AltitudeMeters>125.59999847412109375</AltitudeMeters>
            <DistanceMeters>41123.250925932</DistanceMeters>
          </Trackpoint>
          <Trackpoint>
            <Time>2018-04-21T10:35:05.000Z</Time>
            <Position>
              <LatitudeDegrees>43.18360897712409496307373046875</LatitudeDegrees>
              <LongitudeDegrees>-8.2809354364871978759765625</LongitudeDegrees>
            </Position>
            <AltitudeMeters>125.40000152587890625</AltitudeMeters>
            <DistanceMeters>41142.326222268</DistanceMeters>
          </Trackpoint>
          <Trackpoint>
            <Time>2018-04-21T10:35:07.000Z</Time>
            <Position>
              <LatitudeDegrees>43.18370419554412364959716796875</LatitudeDegrees>
              <LongitudeDegrees>-8.280903585255146026611328125</LongitudeDegrees>
            </Position>
            <AltitudeMeters>125.1999969482421875</AltitudeMeters>
            <DistanceMeters>41153.234858635</DistanceMeters>
          </Trackpoint>
          <Trackpoint>
            <Time>2018-04-21T10:35:11.000Z</Time>
            <Position>
              <LatitudeDegrees>43.18388641811907291412353515625</LatitudeDegrees>
              <LongitudeDegrees>-8.28091473318636417388916015625</LongitudeDegrees>
            </Position>
            <AltitudeMeters>125.59999847412109375</AltitudeMeters>
            <DistanceMeters>41173.536799655</DistanceMeters>
          </Trackpoint>
          <Trackpoint>
            <Time>2018-04-21T10:35:12.000Z</Time>
            <Position>
              <LatitudeDegrees>43.1839339435100555419921875</LatitudeDegrees>
              <LongitudeDegrees>-8.2809139788150787353515625</LongitudeDegrees>
            </Position>
            <AltitudeMeters>125.8000030517578125</AltitudeMeters>
            <DistanceMeters>41178.827663193</DistanceMeters>
          </Trackpoint>
          <Trackpoint>
            <Time>2018-04-21T10:35:14.000Z</Time>
            <Position>
              <LatitudeDegrees>43.18402304314076900482177734375</LatitudeDegrees>
              <LongitudeDegrees>-8.280928395688533782958984375</LongitudeDegrees>
            </Position>
            <AltitudeMeters>125.8000030517578125</AltitudeMeters>
            <DistanceMeters>41188.813610027</DistanceMeters>
          </Trackpoint>
          <Trackpoint>
            <Time>2018-04-21T10:35:17.000Z</Time>
            <Position>
              <LatitudeDegrees>43.18414240144193172454833984375</LatitudeDegrees>
              <LongitudeDegrees>-8.28100609593093395233154296875</LongitudeDegrees>
            </Position>
            <AltitudeMeters>126.40000152587890625</AltitudeMeters>
            <DistanceMeters>41203.518821369</DistanceMeters>
          </Trackpoint>
          <Trackpoint>
            <Time>2018-04-21T10:35:23.000Z</Time>
            <Position>
              <LatitudeDegrees>43.18434323184192180633544921875</LatitudeDegrees>
              <LongitudeDegrees>-8.28119519166648387908935546875</LongitudeDegrees>
            </Position>
            <AltitudeMeters>127.1999969482421875</AltitudeMeters>
            <DistanceMeters>41230.632592473</DistanceMeters>
          </Trackpoint>
          <Trackpoint>
            <Time>2018-04-21T10:35:24.000Z</Time>
            <Position>
              <LatitudeDegrees>43.184377849102020263671875</LatitudeDegrees>
              <LongitudeDegrees>-8.28121639788150787353515625</LongitudeDegrees>
            </Position>
            <AltitudeMeters>127.40000152587890625</AltitudeMeters>
            <DistanceMeters>41234.852463412</DistanceMeters>
          </Trackpoint>
          <Trackpoint>
            <Time>2018-04-21T10:35:28.000Z</Time>
            <Position>
              <LatitudeDegrees>43.1844682060182094573974609375</LatitudeDegrees>
              <LongitudeDegrees>-8.28127180226147174835205078125</LongitudeDegrees>
            </Position>
            <AltitudeMeters>127.8000030517578125</AltitudeMeters>
            <DistanceMeters>41245.869006763</DistanceMeters>
          </Trackpoint>
          <Trackpoint>
            <Time>2018-04-21T10:35:29.000Z</Time>
            <Position>
              <LatitudeDegrees>43.18447013385593891143798828125</LatitudeDegrees>
              <LongitudeDegrees>-8.2812873087823390960693359375</LongitudeDegrees>
            </Position>
            <AltitudeMeters>127.8000030517578125</AltitudeMeters>
            <DistanceMeters>41247.143923921</DistanceMeters>
          </Trackpoint>
          <Trackpoint>
            <Time>2018-04-21T10:35:31.000Z</Time>
            <Position>
              <LatitudeDegrees>43.18444582633674144744873046875</LatitudeDegrees>
              <LongitudeDegrees>-8.281285129487514495849609375</LongitudeDegrees>
            </Position>
            <AltitudeMeters>127.8000030517578125</AltitudeMeters>
            <DistanceMeters>41249.856766029</DistanceMeters>
          </Trackpoint>
          <Trackpoint>
            <Time>2018-04-21T10:35:32.000Z</Time>
            <Position>
              <LatitudeDegrees>43.18442386575043201446533203125</LatitudeDegrees>
              <LongitudeDegrees>-8.2812661863863468170166015625</LongitudeDegrees>
            </Position>
            <AltitudeMeters>127.8000030517578125</AltitudeMeters>
            <DistanceMeters>41252.745328065</DistanceMeters>
          </Trackpoint>
          <Trackpoint>
            <Time>2018-04-21T10:35:35.000Z</Time>
            <Position>
              <LatitudeDegrees>43.18443258292973041534423828125</LatitudeDegrees>
              <LongitudeDegrees>-8.28115160576999187469482421875</LongitudeDegrees>
            </Position>
            <AltitudeMeters>127.1999969482421875</AltitudeMeters>
            <DistanceMeters>41262.094720557</DistanceMeters>
          </Trackpoint>
          <Trackpoint>
            <Time>2018-04-21T10:35:37.000Z</Time>
            <Position>
              <LatitudeDegrees>43.18447935394942760467529296875</LatitudeDegrees>
              <LongitudeDegrees>-8.28103400766849517822265625</LongitudeDegrees>
            </Position>
            <AltitudeMeters>126.40000152587890625</AltitudeMeters>
            <DistanceMeters>41272.966042487</DistanceMeters>
          </Trackpoint>
          <Trackpoint>
            <Time>2018-04-21T10:35:39.000Z</Time>
            <Position>
              <LatitudeDegrees>43.1845235265791416168212890625</LatitudeDegrees>
              <LongitudeDegrees>-8.28092043288052082061767578125</LongitudeDegrees>
            </Position>
            <AltitudeMeters>125</AltitudeMeters>
            <DistanceMeters>41283.412067748</DistanceMeters>
          </Trackpoint>
          <Trackpoint>
            <Time>2018-04-21T10:35:42.000Z</Time>
            <Position>
              <LatitudeDegrees>43.18457373417913913726806640625</LatitudeDegrees>
              <LongitudeDegrees>-8.280776850879192352294921875</LongitudeDegrees>
            </Position>
            <AltitudeMeters>123.40000152587890625</AltitudeMeters>
            <DistanceMeters>41296.335002157</DistanceMeters>
          </Trackpoint>
          <Trackpoint>
            <Time>2018-04-21T10:35:44.000Z</Time>
            <Position>
              <LatitudeDegrees>43.18458907306194305419921875</LatitudeDegrees>
              <LongitudeDegrees>-8.2807056047022342681884765625</LongitudeDegrees>
            </Position>
            <AltitudeMeters>122.59999847412109375</AltitudeMeters>
            <DistanceMeters>41302.363771326</DistanceMeters>
          </Trackpoint>
          <Trackpoint>
            <Time>2018-04-21T10:35:45.000Z</Time>
            <Position>
              <LatitudeDegrees>43.1846120394766330718994140625</LatitudeDegrees>
              <LongitudeDegrees>-8.280671574175357818603515625</LongitudeDegrees>
            </Position>
            <AltitudeMeters>122</AltitudeMeters>
            <DistanceMeters>41306.129036259</DistanceMeters>
          </Trackpoint>
          <Trackpoint>
            <Time>2018-04-21T10:35:48.000Z</Time>
            <Position>
              <LatitudeDegrees>43.18468554876744747161865234375</LatitudeDegrees>
              <LongitudeDegrees>-8.28057358972728252410888671875</LongitudeDegrees>
            </Position>
            <AltitudeMeters>121.1999969482421875</AltitudeMeters>
            <DistanceMeters>41317.538575339</DistanceMeters>
          </Trackpoint>
          <Trackpoint>
            <Time>2018-04-21T10:35:49.000Z</Time>
            <Position>
              <LatitudeDegrees>43.18470180965960025787353515625</LatitudeDegrees>
              <LongitudeDegrees>-8.280552886426448822021484375</LongitudeDegrees>
            </Position>
            <AltitudeMeters>120.8000030517578125</AltitudeMeters>
            <DistanceMeters>41320.009269913</DistanceMeters>
          </Trackpoint>
          <Trackpoint>
            <Time>2018-04-21T10:35:52.000Z</Time>
            <Position>
              <LatitudeDegrees>43.18477506749331951141357421875</LatitudeDegrees>
              <LongitudeDegrees>-8.280520699918270111083984375</LongitudeDegrees>
            </Position>
            <AltitudeMeters>120</AltitudeMeters>
            <DistanceMeters>41328.570644247</DistanceMeters>
          </Trackpoint>
          <Trackpoint>
            <Time>2018-04-21T10:35:53.000Z</Time>
            <Position>
              <LatitudeDegrees>43.1848081760108470916748046875</LatitudeDegrees>
              <LongitudeDegrees>-8.28050988726317882537841796875</LongitudeDegrees>
            </Position>
            <AltitudeMeters>119.8000030517578125</AltitudeMeters>
            <DistanceMeters>41332.359815864</DistanceMeters>
          </Trackpoint>
          <Trackpoint>
            <Time>2018-04-21T10:35:57.000Z</Time>
            <Position>
              <LatitudeDegrees>43.18498344160616397857666015625</LatitudeDegrees>
              <LongitudeDegrees>-8.28046412207186222076416015625</LongitudeDegrees>
            </Position>
            <AltitudeMeters>118.8000030517578125</AltitudeMeters>
            <DistanceMeters>41352.217443572</DistanceMeters>
          </Trackpoint>
          <Trackpoint>
            <Time>2018-04-21T10:35:58.000Z</Time>
            <Position>
              <LatitudeDegrees>43.18503490649163722991943359375</LatitudeDegrees>
              <LongitudeDegrees>-8.2804499566555023193359375</LongitudeDegrees>
            </Position>
            <AltitudeMeters>117.8000030517578125</AltitudeMeters>
            <DistanceMeters>41358.058302139</DistanceMeters>
          </Trackpoint>
          <Trackpoint>
            <Time>2018-04-21T10:36:03.000Z</Time>
            <Position>
              <LatitudeDegrees>43.185322992503643035888671875</LatitudeDegrees>
              <LongitudeDegrees>-8.2804031856358051300048828125</LongitudeDegrees>
            </Position>
            <AltitudeMeters>117.59999847412109375</AltitudeMeters>
            <DistanceMeters>41390.346696116</DistanceMeters>
          </Trackpoint>
          <Trackpoint>
            <Time>2018-04-21T10:36:07.000Z</Time>
            <Position>
              <LatitudeDegrees>43.18551183678209781646728515625</LatitudeDegrees>
              <LongitudeDegrees>-8.2805151678621768951416015625</LongitudeDegrees>
            </Position>
            <AltitudeMeters>117.59999847412109375</AltitudeMeters>
            <DistanceMeters>41413.245965517</DistanceMeters>
          </Trackpoint>
          <Trackpoint>
            <Time>2018-04-21T10:36:08.000Z</Time>
            <Position>
              <LatitudeDegrees>43.185544945299625396728515625</LatitudeDegrees>
              <LongitudeDegrees>-8.28055531717836856842041015625</LongitudeDegrees>
            </Position>
            <AltitudeMeters>117</AltitudeMeters>
            <DistanceMeters>41418.16445866</DistanceMeters>
          </Trackpoint>
          <Trackpoint>
            <Time>2018-04-21T10:36:09.000Z</Time>
            <Position>
              <LatitudeDegrees>43.18557679653167724609375</LatitudeDegrees>
              <LongitudeDegrees>-8.2805825583636760711669921875</LongitudeDegrees>
            </Position>
            <AltitudeMeters>116.40000152587890625</AltitudeMeters>
            <DistanceMeters>41422.342393289</DistanceMeters>
          </Trackpoint>
          <Trackpoint>
            <Time>2018-04-21T10:36:11.000Z</Time>
            <Position>
              <LatitudeDegrees>43.18563756532967090606689453125</LatitudeDegrees>
              <LongitudeDegrees>-8.28065053559839725494384765625</LongitudeDegrees>
            </Position>
            <AltitudeMeters>117</AltitudeMeters>
            <DistanceMeters>41431.070378445</DistanceMeters>
          </Trackpoint>
          <Trackpoint>
            <Time>2018-04-21T10:36:12.000Z</Time>
            <Position>
              <LatitudeDegrees>43.185665309429168701171875</LatitudeDegrees>
              <LongitudeDegrees>-8.28067903406918048858642578125</LongitudeDegrees>
            </Position>
            <AltitudeMeters>117.40000152587890625</AltitudeMeters>
            <DistanceMeters>41434.928041724</DistanceMeters>
          </Trackpoint>
          <Trackpoint>
            <Time>2018-04-21T10:36:15.000Z</Time>
            <Position>
              <LatitudeDegrees>43.1857744418084621429443359375</LatitudeDegrees>
              <LongitudeDegrees>-8.280719183385372161865234375</LongitudeDegrees>
            </Position>
            <AltitudeMeters>117.40000152587890625</AltitudeMeters>
            <DistanceMeters>41447.503921767</DistanceMeters>
          </Trackpoint>
          <Trackpoint>
            <Time>2018-04-21T10:36:16.000Z</Time>
            <Position>
              <LatitudeDegrees>43.1858052872121334075927734375</LatitudeDegrees>
              <LongitudeDegrees>-8.2807126455008983612060546875</LongitudeDegrees>
            </Position>
            <AltitudeMeters>117.40000152587890625</AltitudeMeters>
            <DistanceMeters>41450.978574585</DistanceMeters>
          </Trackpoint>
          <Trackpoint>
            <Time>2018-04-21T10:36:21.000Z</Time>
            <Position>
              <LatitudeDegrees>43.1859249807894229888916015625</LatitudeDegrees>
              <LongitudeDegrees>-8.28063075430691242218017578125</LongitudeDegrees>
            </Position>
            <AltitudeMeters>117</AltitudeMeters>
            <DistanceMeters>41465.866564926</DistanceMeters>
          </Trackpoint>
          <Trackpoint>
            <Time>2018-04-21T10:36:27.000Z</Time>
            <Position>
              <LatitudeDegrees>43.18605314008891582489013671875</LatitudeDegrees>
              <LongitudeDegrees>-8.28047451563179492950439453125</LongitudeDegrees>
            </Position>
            <AltitudeMeters>117.1999969482421875</AltitudeMeters>
            <DistanceMeters>41484.951799887</DistanceMeters>
          </Trackpoint>
          <Trackpoint>
            <Time>2018-04-21T10:36:33.000Z</Time>
            <Position>
              <LatitudeDegrees>43.18621859885752201080322265625</LatitudeDegrees>
              <LongitudeDegrees>-8.28033252619206905364990234375</LongitudeDegrees>
            </Position>
            <AltitudeMeters>117.8000030517578125</AltitudeMeters>
            <DistanceMeters>41506.675746469</DistanceMeters>
          </Trackpoint>
          <Trackpoint>
            <Time>2018-04-21T10:36:34.000Z</Time>
            <Position>
              <LatitudeDegrees>43.186243660748004913330078125</LatitudeDegrees>
              <LongitudeDegrees>-8.280302770435810089111328125</LongitudeDegrees>
            </Position>
            <AltitudeMeters>118</AltitudeMeters>
            <DistanceMeters>41510.365916557</DistanceMeters>
          </Trackpoint>
          <Trackpoint>
            <Time>2018-04-21T10:36:38.000Z</Time>
            <Position>
              <LatitudeDegrees>43.18632856942713260650634765625</LatitudeDegrees>
              <LongitudeDegrees>-8.28017167747020721435546875</LongitudeDegrees>
            </Position>
            <AltitudeMeters>117.59999847412109375</AltitudeMeters>
            <DistanceMeters>41524.595829915</DistanceMeters>
          </Trackpoint>
          <Trackpoint>
            <Time>2018-04-21T10:36:40.000Z</Time>
            <Position>
              <LatitudeDegrees>43.18632756359875202178955078125</LatitudeDegrees>
              <LongitudeDegrees>-8.28009967692196369171142578125</LongitudeDegrees>
            </Position>
            <AltitudeMeters>117.1999969482421875</AltitudeMeters>
            <DistanceMeters>41530.439779702</DistanceMeters>
          </Trackpoint>
          <Trackpoint>
            <Time>2018-04-21T10:36:42.000Z</Time>
            <Position>
              <LatitudeDegrees>43.1863095425069332122802734375</LatitudeDegrees>
              <LongitudeDegrees>-8.2800008542835712432861328125</LongitudeDegrees>
            </Position>
            <AltitudeMeters>116.59999847412109375</AltitudeMeters>
            <DistanceMeters>41538.706557704</DistanceMeters>
          </Trackpoint>
          <Trackpoint>
            <Time>2018-04-21T10:36:43.000Z</Time>
            <Position>
              <LatitudeDegrees>43.1862964667379856109619140625</LatitudeDegrees>
              <LongitudeDegrees>-8.2799394987523555755615234375</LongitudeDegrees>
            </Position>
            <AltitudeMeters>116.40000152587890625</AltitudeMeters>
            <DistanceMeters>41543.894006769</DistanceMeters>
          </Trackpoint>
          <Trackpoint>
            <Time>2018-04-21T10:36:44.000Z</Time>
            <Position>
              <LatitudeDegrees>43.186287917196750640869140625</LatitudeDegrees>
              <LongitudeDegrees>-8.2798757962882518768310546875</LongitudeDegrees>
            </Position>
            <AltitudeMeters>116.1999969482421875</AltitudeMeters>
            <DistanceMeters>41549.150624875</DistanceMeters>
          </Trackpoint>
          <Trackpoint>
            <Time>2018-04-21T10:36:46.000Z</Time>
            <Position>
              <LatitudeDegrees>43.18626721389591693878173828125</LatitudeDegrees>
              <LongitudeDegrees>-8.27973850071430206298828125</LongitudeDegrees>
            </Position>
            <AltitudeMeters>115.40000152587890625</AltitudeMeters>
            <DistanceMeters>41560.528461924</DistanceMeters>
          </Trackpoint>
          <Trackpoint>
            <Time>2018-04-21T10:36:49.000Z</Time>
            <Position>
              <LatitudeDegrees>43.186231590807437896728515625</LatitudeDegrees>
              <LongitudeDegrees>-8.279546387493610382080078125</LongitudeDegrees>
            </Position>
            <AltitudeMeters>115</AltitudeMeters>
            <DistanceMeters>41576.615224517</DistanceMeters>
          </Trackpoint>
          <Trackpoint>
            <Time>2018-04-21T10:36:50.000Z</Time>
            <Position>
              <LatitudeDegrees>43.1862176768481731414794921875</LatitudeDegrees>
              <LongitudeDegrees>-8.279490731656551361083984375</LongitudeDegrees>
            </Position>
            <AltitudeMeters>114.8000030517578125</AltitudeMeters>
            <DistanceMeters>41581.389312173</DistanceMeters>
          </Trackpoint>
          <Trackpoint>
            <Time>2018-04-21T10:36:51.000Z</Time>
            <Position>
              <LatitudeDegrees>43.1862046010792255401611328125</LatitudeDegrees>
              <LongitudeDegrees>-8.27943532727658748626708984375</LongitudeDegrees>
            </Position>
            <AltitudeMeters>113.59999847412109375</AltitudeMeters>
            <DistanceMeters>41586.115876371</DistanceMeters>
          </Trackpoint>
          <Trackpoint>
            <Time>2018-04-21T10:36:54.000Z</Time>
            <Position>
              <LatitudeDegrees>43.18613628856837749481201171875</LatitudeDegrees>
              <LongitudeDegrees>-8.27932468615472316741943359375</LongitudeDegrees>
            </Position>
            <AltitudeMeters>114.8000030517578125</AltitudeMeters>
            <DistanceMeters>41597.881549828</DistanceMeters>
          </Trackpoint>
          <Trackpoint>
            <Time>2018-04-21T10:36:55.000Z</Time>
            <Position>
              <LatitudeDegrees>43.186107538640499114990234375</LatitudeDegrees>
              <LongitudeDegrees>-8.2793132029473781585693359375</LongitudeDegrees>
            </Position>
            <AltitudeMeters>114.40000152587890625</AltitudeMeters>
            <DistanceMeters>41601.214265541</DistanceMeters>
          </Trackpoint>
          <Trackpoint>
            <Time>2018-04-21T10:36:58.000Z</Time>
            <Position>
              <LatitudeDegrees>43.18598759360611438751220703125</LatitudeDegrees>
              <LongitudeDegrees>-8.279311023652553558349609375</LongitudeDegrees>
            </Position>
            <AltitudeMeters>113.59999847412109375</AltitudeMeters>
            <DistanceMeters>41614.565772538</DistanceMeters>
          </Trackpoint>
          <Trackpoint>
            <Time>2018-04-21T10:36:59.000Z</Time>
            <Position>
              <LatitudeDegrees>43.1859414093196392059326171875</LatitudeDegrees>
              <LongitudeDegrees>-8.27930205501616001129150390625</LongitudeDegrees>
            </Position>
            <AltitudeMeters>113.40000152587890625</AltitudeMeters>
            <DistanceMeters>41619.756701945</DistanceMeters>
          </Trackpoint>
          <Trackpoint>
            <Time>2018-04-21T10:37:01.000Z</Time>
            <Position>
              <LatitudeDegrees>43.1858498789370059967041015625</LatitudeDegrees>
              <LongitudeDegrees>-8.27928579412400722503662109375</LongitudeDegrees>
            </Position>
            <AltitudeMeters>113.40000152587890625</AltitudeMeters>
            <DistanceMeters>41630.029261184</DistanceMeters>
          </Trackpoint>
          <Trackpoint>
            <Time>2018-04-21T10:37:03.000Z</Time>
            <Position>
              <LatitudeDegrees>43.18576446734368801116943359375</LatitudeDegrees>
              <LongitudeDegrees>-8.27924656681716442108154296875</LongitudeDegrees>
            </Position>
            <AltitudeMeters>111.8000030517578125</AltitudeMeters>
            <DistanceMeters>41640.054466958</DistanceMeters>
          </Trackpoint>
          <Trackpoint>
            <Time>2018-04-21T10:37:04.000Z</Time>
            <Position>
              <LatitudeDegrees>43.18572901189327239990234375</LatitudeDegrees>
              <LongitudeDegrees>-8.27922242693603038787841796875</LongitudeDegrees>
            </Position>
            <AltitudeMeters>111.1999969482421875</AltitudeMeters>
            <DistanceMeters>41644.460674438</DistanceMeters>
          </Trackpoint>
          <Trackpoint>
            <Time>2018-04-21T10:37:06.000Z</Time>
            <Position>
              <LatitudeDegrees>43.18564812652766704559326171875</LatitudeDegrees>
              <LongitudeDegrees>-8.27914816327393054962158203125</LongitudeDegrees>
            </Position>
            <AltitudeMeters>110.1999969482421875</AltitudeMeters>
            <DistanceMeters>41655.294136652</DistanceMeters>
          </Trackpoint>
          <Trackpoint>
            <Time>2018-04-21T10:37:07.000Z</Time>
            <Position>
              <LatitudeDegrees>43.18561577238142490386962890625</LatitudeDegrees>
              <LongitudeDegrees>-8.27911631204187870025634765625</LongitudeDegrees>
            </Position>
            <AltitudeMeters>109.40000152587890625</AltitudeMeters>
            <DistanceMeters>41659.726906254</DistanceMeters>
          </Trackpoint>
          <Trackpoint>
            <Time>2018-04-21T10:37:08.000Z</Time>
            <Position>
              <LatitudeDegrees>43.1855806522071361541748046875</LatitudeDegrees>
              <LongitudeDegrees>-8.2790694572031497955322265625</LongitudeDegrees>
            </Position>
            <AltitudeMeters>108.1999969482421875</AltitudeMeters>
            <DistanceMeters>41665.180810526</DistanceMeters>
          </Trackpoint>
          <Trackpoint>
            <Time>2018-04-21T10:37:09.000Z</Time>
            <Position>
              <LatitudeDegrees>43.1855484656989574432373046875</LatitudeDegrees>
              <LongitudeDegrees>-8.27903802506625652313232421875</LongitudeDegrees>
            </Position>
            <AltitudeMeters>107.8000030517578125</AltitudeMeters>
            <DistanceMeters>41669.57881277</DistanceMeters>
          </Trackpoint>
          <Trackpoint>
            <Time>2018-04-21T10:37:10.000Z</Time>
            <Position>
              <LatitudeDegrees>43.18551887758076190948486328125</LatitudeDegrees>
              <LongitudeDegrees>-8.279011286795139312744140625</LongitudeDegrees>
            </Position>
            <AltitudeMeters>107</AltitudeMeters>
            <DistanceMeters>41673.522135181</DistanceMeters>
          </Trackpoint>
          <Trackpoint>
            <Time>2018-04-21T10:37:14.000Z</Time>
            <Position>
              <LatitudeDegrees>43.1854009442031383514404296875</LatitudeDegrees>
              <LongitudeDegrees>-8.2788756676018238067626953125</LongitudeDegrees>
            </Position>
            <AltitudeMeters>105.59999847412109375</AltitudeMeters>
            <DistanceMeters>41690.652265482</DistanceMeters>
          </Trackpoint>
          <Trackpoint>
            <Time>2018-04-21T10:37:15.000Z</Time>
            <Position>
              <LatitudeDegrees>43.1853603757917881011962890625</LatitudeDegrees>
              <LongitudeDegrees>-8.27884205617010593414306640625</LongitudeDegrees>
            </Position>
            <AltitudeMeters>104.59999847412109375</AltitudeMeters>
            <DistanceMeters>41695.926890163</DistanceMeters>
          </Trackpoint>
          <Trackpoint>
            <Time>2018-04-21T10:37:17.000Z</Time>
            <Position>
              <LatitudeDegrees>43.1852835975587368011474609375</LatitudeDegrees>
              <LongitudeDegrees>-8.2787703908979892730712890625</LongitudeDegrees>
            </Position>
            <AltitudeMeters>102.40000152587890625</AltitudeMeters>
            <DistanceMeters>41706.264294317</DistanceMeters>
          </Trackpoint>
          <Trackpoint>
            <Time>2018-04-21T10:37:19.000Z</Time>
            <Position>
              <LatitudeDegrees>43.18520556204020977020263671875</LatitudeDegrees>
              <LongitudeDegrees>-8.27868179418146610260009765625</LongitudeDegrees>
            </Position>
            <AltitudeMeters>101.40000152587890625</AltitudeMeters>
            <DistanceMeters>41717.540085922</DistanceMeters>
          </Trackpoint>
          <Trackpoint>
            <Time>2018-04-21T10:37:20.000Z</Time>
            <Position>
              <LatitudeDegrees>43.1851706095039844512939453125</LatitudeDegrees>
              <LongitudeDegrees>-8.2786352746188640594482421875</LongitudeDegrees>
            </Position>
            <AltitudeMeters>100.8000030517578125</AltitudeMeters>
            <DistanceMeters>41722.960774877</DistanceMeters>
          </Trackpoint>
          <Trackpoint>
            <Time>2018-04-21T10:37:21.000Z</Time>
            <Position>
              <LatitudeDegrees>43.18514068610966205596923828125</LatitudeDegrees>
              <LongitudeDegrees>-8.27857349999248981475830078125</LongitudeDegrees>
            </Position>
            <AltitudeMeters>100.8000030517578125</AltitudeMeters>
            <DistanceMeters>41728.978299829</DistanceMeters>
          </Trackpoint>
          <Trackpoint>
            <Time>2018-04-21T10:37:22.000Z</Time>
            <Position>
              <LatitudeDegrees>43.1851297058165073394775390625</LatitudeDegrees>
              <LongitudeDegrees>-8.278507702052593231201171875</LongitudeDegrees>
            </Position>
            <AltitudeMeters>100</AltitudeMeters>
            <DistanceMeters>41734.455334971</DistanceMeters>
          </Trackpoint>
          <Trackpoint>
            <Time>2018-04-21T10:37:24.000Z</Time>
            <Position>
              <LatitudeDegrees>43.18509869277477264404296875</LatitudeDegrees>
              <LongitudeDegrees>-8.2783685624599456787109375</LongitudeDegrees>
            </Position>
            <AltitudeMeters>98.8000030517578125</AltitudeMeters>
            <DistanceMeters>41746.26314511</DistanceMeters>
          </Trackpoint>
          <Trackpoint>
            <Time>2018-04-21T10:37:30.000Z</Time>
            <Position>
              <LatitudeDegrees>43.1850014626979827880859375</LatitudeDegrees>
              <LongitudeDegrees>-8.2780049555003643035888671875</LongitudeDegrees>
            </Position>
            <AltitudeMeters>97.59999847412109375</AltitudeMeters>
            <DistanceMeters>41777.693868344</DistanceMeters>
          </Trackpoint>
          <Trackpoint>
            <Time>2018-04-21T10:37:31.000Z</Time>
            <Position>
              <LatitudeDegrees>43.1849895603954792022705078125</LatitudeDegrees>
              <LongitudeDegrees>-8.27794150449335575103759765625</LongitudeDegrees>
            </Position>
            <AltitudeMeters>97.40000152587890625</AltitudeMeters>
            <DistanceMeters>41783.010271194</DistanceMeters>
          </Trackpoint>
          <Trackpoint>
            <Time>2018-04-21T10:37:32.000Z</Time>
            <Position>
              <LatitudeDegrees>43.1849862076342105865478515625</LatitudeDegrees>
              <LongitudeDegrees>-8.27787696383893489837646484375</LongitudeDegrees>
            </Position>
            <AltitudeMeters>97.1999969482421875</AltitudeMeters>
            <DistanceMeters>41788.260873387</DistanceMeters>
          </Trackpoint>
          <Trackpoint>
            <Time>2018-04-21T10:37:34.000Z</Time>
            <Position>
              <LatitudeDegrees>43.1849892251193523406982421875</LatitudeDegrees>
              <LongitudeDegrees>-8.27774302102625370025634765625</LongitudeDegrees>
            </Position>
            <AltitudeMeters>96.59999847412109375</AltitudeMeters>
            <DistanceMeters>41799.136347687</DistanceMeters>
          </Trackpoint>
          <Trackpoint>
            <Time>2018-04-21T10:37:36.000Z</Time>
            <Position>
              <LatitudeDegrees>43.18501965142786502838134765625</LatitudeDegrees>
              <LongitudeDegrees>-8.27761343680322170257568359375</LongitudeDegrees>
            </Position>
            <AltitudeMeters>96.40000152587890625</AltitudeMeters>
            <DistanceMeters>41810.184812439</DistanceMeters>
          </Trackpoint>
          <Trackpoint>
            <Time>2018-04-21T10:37:40.000Z</Time>
            <Position>
              <LatitudeDegrees>43.18507430143654346466064453125</LatitudeDegrees>
              <LongitudeDegrees>-8.2774212397634983062744140625</LongitudeDegrees>
            </Position>
            <AltitudeMeters>97.40000152587890625</AltitudeMeters>
            <DistanceMeters>41826.926782837</DistanceMeters>
          </Trackpoint>
          <Trackpoint>
            <Time>2018-04-21T10:37:41.000Z</Time>
            <Position>
              <LatitudeDegrees>43.18508327007293701171875</LatitudeDegrees>
              <LongitudeDegrees>-8.27736734412610530853271484375</LongitudeDegrees>
            </Position>
            <AltitudeMeters>97.8000030517578125</AltitudeMeters>
            <DistanceMeters>41831.414217569</DistanceMeters>
          </Trackpoint>
          <Trackpoint>
            <Time>2018-04-21T10:37:47.000Z</Time>
            <Position>
              <LatitudeDegrees>43.18516750819981098175048828125</LatitudeDegrees>
              <LongitudeDegrees>-8.2770695351064205169677734375</LongitudeDegrees>
            </Position>
            <AltitudeMeters>98.59999847412109375</AltitudeMeters>
            <DistanceMeters>41857.337881452</DistanceMeters>
          </Trackpoint>
          <Trackpoint>
            <Time>2018-04-21T10:37:48.000Z</Time>
            <Position>
              <LatitudeDegrees>43.185186870396137237548828125</LatitudeDegrees>
              <LongitudeDegrees>-8.27701346017420291900634765625</LongitudeDegrees>
            </Position>
            <AltitudeMeters>98.40000152587890625</AltitudeMeters>
            <DistanceMeters>41862.374297313</DistanceMeters>
          </Trackpoint>
          <Trackpoint>
            <Time>2018-04-21T10:37:51.000Z</Time>
            <Position>
              <LatitudeDegrees>43.1853006966412067413330078125</LatitudeDegrees>
              <LongitudeDegrees>-8.2769008912146091461181640625</LongitudeDegrees>
            </Position>
            <AltitudeMeters>97.40000152587890625</AltitudeMeters>
            <DistanceMeters>41877.993405649</DistanceMeters>
          </Trackpoint>
          <Trackpoint>
            <Time>2018-04-21T10:37:52.000Z</Time>
            <Position>
              <LatitudeDegrees>43.18534587509930133819580078125</LatitudeDegrees>
              <LongitudeDegrees>-8.2768784277141094207763671875</LongitudeDegrees>
            </Position>
            <AltitudeMeters>95.1999969482421875</AltitudeMeters>
            <DistanceMeters>41883.341983234</DistanceMeters>
          </Trackpoint>
          <Trackpoint>
            <Time>2018-04-21T10:37:55.000Z</Time>
            <Position>
              <LatitudeDegrees>43.185496665537357330322265625</LatitudeDegrees>
              <LongitudeDegrees>-8.27683693729341030120849609375</LongitudeDegrees>
            </Position>
            <AltitudeMeters>98.59999847412109375</AltitudeMeters>
            <DistanceMeters>41900.459984887</DistanceMeters>
          </Trackpoint>
          <Trackpoint>
            <Time>2018-04-21T10:37:56.000Z</Time>
            <Position>
              <LatitudeDegrees>43.1855451129376888275146484375</LatitudeDegrees>
              <LongitudeDegrees>-8.27682134695351123809814453125</LongitudeDegrees>
            </Position>
            <AltitudeMeters>97</AltitudeMeters>
            <DistanceMeters>41905.999316955</DistanceMeters>
          </Trackpoint>
          <Trackpoint>
            <Time>2018-04-21T10:38:00.000Z</Time>
            <Position>
              <LatitudeDegrees>43.18573764525353908538818359375</LatitudeDegrees>
              <LongitudeDegrees>-8.27678698115050792694091796875</LongitudeDegrees>
            </Position>
            <AltitudeMeters>98.1999969482421875</AltitudeMeters>
            <DistanceMeters>41927.609277697</DistanceMeters>
          </Trackpoint>
          <Trackpoint>
            <Time>2018-04-21T10:38:03.000Z</Time>
            <Position>
              <LatitudeDegrees>43.18587309680879116058349609375</LatitudeDegrees>
              <LongitudeDegrees>-8.27675378881394863128662109375</LongitudeDegrees>
            </Position>
            <AltitudeMeters>98.59999847412109375</AltitudeMeters>
            <DistanceMeters>41942.923916951</DistanceMeters>
          </Trackpoint>
          <Trackpoint>
            <Time>2018-04-21T10:38:05.000Z</Time>
            <Position>
              <LatitudeDegrees>43.1859682314097881317138671875</LatitudeDegrees>
              <LongitudeDegrees>-8.2767377793788909912109375</LongitudeDegrees>
            </Position>
            <AltitudeMeters>98.8000030517578125</AltitudeMeters>
            <DistanceMeters>41953.59233218</DistanceMeters>
          </Trackpoint>
          <Trackpoint>
            <Time>2018-04-21T10:38:07.000Z</Time>
            <Position>
              <LatitudeDegrees>43.18606537766754627227783203125</LatitudeDegrees>
              <LongitudeDegrees>-8.27672931365668773651123046875</LongitudeDegrees>
            </Position>
            <AltitudeMeters>99</AltitudeMeters>
            <DistanceMeters>41964.426627898</DistanceMeters>
          </Trackpoint>
          <Trackpoint>
            <Time>2018-04-21T10:38:08.000Z</Time>
            <Position>
              <LatitudeDegrees>43.1861145794391632080078125</LatitudeDegrees>
              <LongitudeDegrees>-8.2767325825989246368408203125</LongitudeDegrees>
            </Position>
            <AltitudeMeters>99.40000152587890625</AltitudeMeters>
            <DistanceMeters>41969.910253939</DistanceMeters>
          </Trackpoint>
          <Trackpoint>
            <Time>2018-04-21T10:38:10.000Z</Time>
            <Position>
              <LatitudeDegrees>43.18620434962213039398193359375</LatitudeDegrees>
              <LongitudeDegrees>-8.27676284126937389373779296875</LongitudeDegrees>
            </Position>
            <AltitudeMeters>99.8000030517578125</AltitudeMeters>
            <DistanceMeters>41980.199501542</DistanceMeters>
          </Trackpoint>
          <Trackpoint>
            <Time>2018-04-21T10:38:12.000Z</Time>
            <Position>
              <LatitudeDegrees>43.1862941198050975799560546875</LatitudeDegrees>
              <LongitudeDegrees>-8.27680391259491443634033203125</LongitudeDegrees>
            </Position>
            <AltitudeMeters>100.59999847412109375</AltitudeMeters>
            <DistanceMeters>41990.732045827</DistanceMeters>
          </Trackpoint>
          <Trackpoint>
            <Time>2018-04-21T10:38:14.000Z</Time>
            <Position>
              <LatitudeDegrees>43.1863752566277980804443359375</LatitudeDegrees>
              <LongitudeDegrees>-8.27684733085334300994873046875</LongitudeDegrees>
            </Position>
            <AltitudeMeters>101.1999969482421875</AltitudeMeters>
            <DistanceMeters>42000.425702282</DistanceMeters>
          </Trackpoint>
          <Trackpoint>
            <Time>2018-04-21T10:38:15.000Z</Time>
            <Position>
              <LatitudeDegrees>43.186418004333972930908203125</LatitudeDegrees>
              <LongitudeDegrees>-8.27686426229774951934814453125</LongitudeDegrees>
            </Position>
            <AltitudeMeters>101.59999847412109375</AltitudeMeters>
            <DistanceMeters>42005.378043912</DistanceMeters>
          </Trackpoint>
          <Trackpoint>
            <Time>2018-04-21T10:38:18.000Z</Time>
            <Position>
              <LatitudeDegrees>43.18653929047286510467529296875</LatitudeDegrees>
              <LongitudeDegrees>-8.27688035555183887481689453125</LongitudeDegrees>
            </Position>
            <AltitudeMeters>101.59999847412109375</AltitudeMeters>
            <DistanceMeters>42018.940590029</DistanceMeters>
          </Trackpoint>
          <Trackpoint>
            <Time>2018-04-21T10:38:19.000Z</Time>
            <Position>
              <LatitudeDegrees>43.18657793104648590087890625</LatitudeDegrees>
              <LongitudeDegrees>-8.27688203193247318267822265625</LongitudeDegrees>
            </Position>
            <AltitudeMeters>101.59999847412109375</AltitudeMeters>
            <DistanceMeters>42023.243107514</DistanceMeters>
          </Trackpoint>
          <Trackpoint>
            <Time>2018-04-21T10:38:20.000Z</Time>
            <Position>
              <LatitudeDegrees>43.18661506287753582000732421875</LatitudeDegrees>
              <LongitudeDegrees>-8.27688856981694698333740234375</LongitudeDegrees>
            </Position>
            <AltitudeMeters>101.8000030517578125</AltitudeMeters>
            <DistanceMeters>42027.40913763</DistanceMeters>
          </Trackpoint>
          <Trackpoint>
            <Time>2018-04-21T10:38:23.000Z</Time>
            <Position>
              <LatitudeDegrees>43.18672603927552700042724609375</LatitudeDegrees>
              <LongitudeDegrees>-8.27692477963864803314208984375</LongitudeDegrees>
            </Position>
            <AltitudeMeters>102.8000030517578125</AltitudeMeters>
            <DistanceMeters>42040.105787766</DistanceMeters>
          </Trackpoint>
          <Trackpoint>
            <Time>2018-04-21T10:38:25.000Z</Time>
            <Position>
              <LatitudeDegrees>43.1867993809282779693603515625</LatitudeDegrees>
              <LongitudeDegrees>-8.27695411629974842071533203125</LongitudeDegrees>
            </Position>
            <AltitudeMeters>104</AltitudeMeters>
            <DistanceMeters>42048.608953181</DistanceMeters>
          </Trackpoint>
          <Trackpoint>
            <Time>2018-04-21T10:38:29.000Z</Time>
            <Position>
              <LatitudeDegrees>43.186925612390041351318359375</LatitudeDegrees>
              <LongitudeDegrees>-8.2769977860152721405029296875</LongitudeDegrees>
            </Position>
            <AltitudeMeters>104.59999847412109375</AltitudeMeters>
            <DistanceMeters>42063.09920292</DistanceMeters>
          </Trackpoint>
          <Trackpoint>
            <Time>2018-04-21T10:38:33.000Z</Time>
            <Position>
              <LatitudeDegrees>43.1870560348033905029296875</LatitudeDegrees>
              <LongitudeDegrees>-8.2771054096519947052001953125</LongitudeDegrees>
            </Position>
            <AltitudeMeters>103.40000152587890625</AltitudeMeters>
            <DistanceMeters>42080.04009692</DistanceMeters>
          </Trackpoint>
          <Trackpoint>
            <Time>2018-04-21T10:38:36.000Z</Time>
            <Position>
              <LatitudeDegrees>43.18711412139236927032470703125</LatitudeDegrees>
              <LongitudeDegrees>-8.277162574231624603271484375</LongitudeDegrees>
            </Position>
            <AltitudeMeters>102.8000030517578125</AltitudeMeters>
            <DistanceMeters>42087.997414058</DistanceMeters>
          </Trackpoint>
          <Trackpoint>
            <Time>2018-04-21T10:38:38.000Z</Time>
            <Position>
              <LatitudeDegrees>43.1871517561376094818115234375</LatitudeDegrees>
              <LongitudeDegrees>-8.27718176878988742828369140625</LongitudeDegrees>
            </Position>
            <AltitudeMeters>102.1999969482421875</AltitudeMeters>
            <DistanceMeters>42092.464680441</DistanceMeters>
          </Trackpoint>
          <Trackpoint>
            <Time>2018-04-21T10:38:40.000Z</Time>
            <Position>
              <LatitudeDegrees>43.18718637339770793914794921875</LatitudeDegrees>
              <LongitudeDegrees>-8.27718663029372692108154296875</LongitudeDegrees>
            </Position>
            <AltitudeMeters>101.59999847412109375</AltitudeMeters>
            <DistanceMeters>42096.336363137</DistanceMeters>
          </Trackpoint>
          <Trackpoint>
            <Time>2018-04-21T10:38:41.000Z</Time>
            <Position>
              <LatitudeDegrees>43.187191151082515716552734375</LatitudeDegrees>
              <LongitudeDegrees>-8.27719551511108875274658203125</LongitudeDegrees>
            </Position>
            <AltitudeMeters>101.40000152587890625</AltitudeMeters>
            <DistanceMeters>42097.227792734</DistanceMeters>
          </Trackpoint>
          <Trackpoint>
            <Time>2018-04-21T10:38:45.000Z</Time>
            <Position>
              <LatitudeDegrees>43.1872010417282581329345703125</LatitudeDegrees>
              <LongitudeDegrees>-8.27721177600324153900146484375</LongitudeDegrees>
            </Position>
            <AltitudeMeters>101.40000152587890625</AltitudeMeters>
            <DistanceMeters>42098.943544733</DistanceMeters>
          </Trackpoint>
          <Trackpoint>
            <Time>2018-04-21T10:38:47.000Z</Time>
            <Position>
              <LatitudeDegrees>43.18720464594662189483642578125</LatitudeDegrees>
              <LongitudeDegrees>-8.2772029750049114227294921875</LongitudeDegrees>
            </Position>
            <AltitudeMeters>100.40000152587890625</AltitudeMeters>
            <DistanceMeters>42099.760995439</DistanceMeters>
          </Trackpoint>
          <Trackpoint>
            <Time>2018-04-21T10:38:50.000Z</Time>
            <Position>
              <LatitudeDegrees>43.18720447830855846405029296875</LatitudeDegrees>
              <LongitudeDegrees>-8.27721395529806613922119140625</LongitudeDegrees>
            </Position>
            <AltitudeMeters>101.8000030517578125</AltitudeMeters>
            <DistanceMeters>42100.652425036</DistanceMeters>
          </Trackpoint>
          <Trackpoint>
            <Time>2018-04-21T10:38:52.000Z</Time>
            <Position>
              <LatitudeDegrees>43.18721202202141284942626953125</LatitudeDegrees>
              <LongitudeDegrees>-8.27721529640257358551025390625</LongitudeDegrees>
            </Position>
            <AltitudeMeters>101.1999969482421875</AltitudeMeters>
            <DistanceMeters>42101.502369808</DistanceMeters>
          </Trackpoint>
          <Trackpoint>
            <Time>2018-04-21T10:38:58.000Z</Time>
            <Position>
              <LatitudeDegrees>43.18722895346581935882568359375</LatitudeDegrees>
              <LongitudeDegrees>-8.27722032554447650909423828125</LongitudeDegrees>
            </Position>
            <AltitudeMeters>101.1999969482421875</AltitudeMeters>
            <DistanceMeters>42103.431201448</DistanceMeters>
          </Trackpoint>
          <Trackpoint>
            <Time>2018-04-21T10:38:59.000Z</Time>
            <Position>
              <LatitudeDegrees>43.18722895346581935882568359375</LatitudeDegrees>
              <LongitudeDegrees>-8.27722032554447650909423828125</LongitudeDegrees>
            </Position>
            <AltitudeMeters>101.1999969482421875</AltitudeMeters>
            <DistanceMeters>42103.431201448</DistanceMeters>
          </Trackpoint>
          <Trackpoint>
            <Time>2018-04-21T10:39:03.000Z</Time>
            <Position>
              <LatitudeDegrees>43.18722895346581935882568359375</LatitudeDegrees>
              <LongitudeDegrees>-8.27722032554447650909423828125</LongitudeDegrees>
            </Position>
            <AltitudeMeters>101.40000152587890625</AltitudeMeters>
            <DistanceMeters>42103.431201448</DistanceMeters>
          </Trackpoint>
          <Trackpoint>
            <Time>2018-04-21T10:39:07.000Z</Time>
            <Position>
              <LatitudeDegrees>43.18722979165613651275634765625</LatitudeDegrees>
              <LongitudeDegrees>-8.2772177271544933319091796875</LongitudeDegrees>
            </Position>
            <AltitudeMeters>101.40000152587890625</AltitudeMeters>
            <DistanceMeters>42103.66396841</DistanceMeters>
          </Trackpoint>
          <Trackpoint>
            <Time>2018-04-21T10:39:11.000Z</Time>
            <Position>
              <LatitudeDegrees>43.1872437894344329833984375</LatitudeDegrees>
              <LongitudeDegrees>-8.27721261419355869293212890625</LongitudeDegrees>
            </Position>
            <AltitudeMeters>101.59999847412109375</AltitudeMeters>
            <DistanceMeters>42105.273823043</DistanceMeters>
          </Trackpoint>
          <Trackpoint>
            <Time>2018-04-21T10:39:13.000Z</Time>
            <Position>
              <LatitudeDegrees>43.187256865203380584716796875</LatitudeDegrees>
              <LongitudeDegrees>-8.27721831388771533966064453125</LongitudeDegrees>
            </Position>
            <AltitudeMeters>101.59999847412109375</AltitudeMeters>
            <DistanceMeters>42106.80313328</DistanceMeters>
          </Trackpoint>
          <Trackpoint>
            <Time>2018-04-21T10:39:21.000Z</Time>
            <Position>
              <LatitudeDegrees>43.18732568062841892242431640625</LatitudeDegrees>
              <LongitudeDegrees>-8.27718378044664859771728515625</LongitudeDegrees>
            </Position>
            <AltitudeMeters>102.59999847412109375</AltitudeMeters>
            <DistanceMeters>42114.959393033</DistanceMeters>
          </Trackpoint>
          <Trackpoint>
            <Time>2018-04-21T10:39:23.000Z</Time>
            <Position>
              <LatitudeDegrees>43.1873509101569652557373046875</LatitudeDegrees>
              <LongitudeDegrees>-8.277180008590221405029296875</LongitudeDegrees>
            </Position>
            <AltitudeMeters>102.8000030517578125</AltitudeMeters>
            <DistanceMeters>42117.786337966</DistanceMeters>
          </Trackpoint>
          <Trackpoint>
            <Time>2018-04-21T10:39:27.000Z</Time>
            <Position>
              <LatitudeDegrees>43.18737027235329151153564453125</LatitudeDegrees>
              <LongitudeDegrees>-8.2771818526089191436767578125</LongitudeDegrees>
            </Position>
            <AltitudeMeters>103.1999969482421875</AltitudeMeters>
            <DistanceMeters>42119.944929971</DistanceMeters>
          </Trackpoint>
          <Trackpoint>
            <Time>2018-04-21T10:39:34.000Z</Time>
            <Position>
              <LatitudeDegrees>43.18739457987248897552490234375</LatitudeDegrees>
              <LongitudeDegrees>-8.27716936357319355010986328125</LongitudeDegrees>
            </Position>
            <AltitudeMeters>104</AltitudeMeters>
            <DistanceMeters>42122.835054659</DistanceMeters>
          </Trackpoint>
          <Trackpoint>
            <Time>2018-04-21T10:39:35.000Z</Time>
            <Position>
              <LatitudeDegrees>43.1874079070985317230224609375</LatitudeDegrees>
              <LongitudeDegrees>-8.27716232277452945709228515625</LongitudeDegrees>
            </Position>
            <AltitudeMeters>103.8000030517578125</AltitudeMeters>
            <DistanceMeters>42124.425155726</DistanceMeters>
          </Trackpoint>
          <Trackpoint>
            <Time>2018-04-21T10:39:40.000Z</Time>
            <Position>
              <LatitudeDegrees>43.187485523521900177001953125</LatitudeDegrees>
              <LongitudeDegrees>-8.2771496661007404327392578125</LongitudeDegrees>
            </Position>
            <AltitudeMeters>105.1999969482421875</AltitudeMeters>
            <DistanceMeters>42133.125161517</DistanceMeters>
          </Trackpoint>
          <Trackpoint>
            <Time>2018-04-21T10:39:45.000Z</Time>
            <Position>
              <LatitudeDegrees>43.187575377523899078369140625</LatitudeDegrees>
              <LongitudeDegrees>-8.2771295495331287384033203125</LongitudeDegrees>
            </Position>
            <AltitudeMeters>106.40000152587890625</AltitudeMeters>
            <DistanceMeters>42143.258770416</DistanceMeters>
          </Trackpoint>
          <Trackpoint>
            <Time>2018-04-21T10:39:46.000Z</Time>
            <Position>
              <LatitudeDegrees>43.18759608082473278045654296875</LatitudeDegrees>
              <LongitudeDegrees>-8.27711957506835460662841796875</LongitudeDegrees>
            </Position>
            <AltitudeMeters>106.59999847412109375</AltitudeMeters>
            <DistanceMeters>42145.70005091</DistanceMeters>
          </Trackpoint>
          <Trackpoint>
            <Time>2018-04-21T10:39:50.000Z</Time>
            <Position>
              <LatitudeDegrees>43.18766430951654911041259765625</LatitudeDegrees>
              <LongitudeDegrees>-8.277036845684051513671875</LongitudeDegrees>
            </Position>
            <AltitudeMeters>107.40000152587890625</AltitudeMeters>
            <DistanceMeters>42155.835441856</DistanceMeters>
          </Trackpoint>
          <Trackpoint>
            <Time>2018-04-21T10:39:52.000Z</Time>
            <Position>
              <LatitudeDegrees>43.18768300116062164306640625</LatitudeDegrees>
              <LongitudeDegrees>-8.276974149048328399658203125</LongitudeDegrees>
            </Position>
            <AltitudeMeters>107.8000030517578125</AltitudeMeters>
            <DistanceMeters>42161.332225987</DistanceMeters>
          </Trackpoint>
          <Trackpoint>
            <Time>2018-04-21T10:39:56.000Z</Time>
            <Position>
              <LatitudeDegrees>43.1876972503960132598876953125</LatitudeDegrees>
              <LongitudeDegrees>-8.2768623344600200653076171875</LongitudeDegrees>
            </Position>
            <AltitudeMeters>105.59999847412109375</AltitudeMeters>
            <DistanceMeters>42170.543937464</DistanceMeters>
          </Trackpoint>
          <Trackpoint>
            <Time>2018-04-21T10:39:58.000Z</Time>
            <Position>
              <LatitudeDegrees>43.18770437501370906829833984375</LatitudeDegrees>
              <LongitudeDegrees>-8.27679611742496490478515625</LongitudeDegrees>
            </Position>
            <AltitudeMeters>105.40000152587890625</AltitudeMeters>
            <DistanceMeters>42175.976274882</DistanceMeters>
          </Trackpoint>
          <Trackpoint>
            <Time>2018-04-21T10:39:59.000Z</Time>
            <Position>
              <LatitudeDegrees>43.187709487974643707275390625</LatitudeDegrees>
              <LongitudeDegrees>-8.27675546519458293914794921875</LongitudeDegrees>
            </Position>
            <AltitudeMeters>107.40000152587890625</AltitudeMeters>
            <DistanceMeters>42179.325208286</DistanceMeters>
          </Trackpoint>
          <Trackpoint>
            <Time>2018-04-21T10:40:05.000Z</Time>
            <Position>
              <LatitudeDegrees>43.187751732766628265380859375</LatitudeDegrees>
              <LongitudeDegrees>-8.2765089534223079681396484375</LongitudeDegrees>
            </Position>
            <AltitudeMeters>107</AltitudeMeters>
            <DistanceMeters>42199.875160962</DistanceMeters>
          </Trackpoint>
          <Trackpoint>
            <Time>2018-04-21T10:40:12.000Z</Time>
            <Position>
              <LatitudeDegrees>43.1877827458083629608154296875</LatitudeDegrees>
              <LongitudeDegrees>-8.27624022960662841796875</LongitudeDegrees>
            </Position>
            <AltitudeMeters>108.1999969482421875</AltitudeMeters>
            <DistanceMeters>42221.953897716</DistanceMeters>
          </Trackpoint>
          <Trackpoint>
            <Time>2018-04-21T10:40:13.000Z</Time>
            <Position>
              <LatitudeDegrees>43.1877857632935047149658203125</LatitudeDegrees>
              <LongitudeDegrees>-8.27620058320462703704833984375</LongitudeDegrees>
            </Position>
            <AltitudeMeters>108.40000152587890625</AltitudeMeters>
            <DistanceMeters>42225.188995643</DistanceMeters>
          </Trackpoint>
          <Trackpoint>
            <Time>2018-04-21T10:40:18.000Z</Time>
            <Position>
              <LatitudeDegrees>43.1877917982637882232666015625</LatitudeDegrees>
              <LongitudeDegrees>-8.276003859937191009521484375</LongitudeDegrees>
            </Position>
            <AltitudeMeters>109.8000030517578125</AltitudeMeters>
            <DistanceMeters>42241.16761828</DistanceMeters>
          </Trackpoint>
          <Trackpoint>
            <Time>2018-04-21T10:40:20.000Z</Time>
            <Position>
              <LatitudeDegrees>43.1877974979579448699951171875</LatitudeDegrees>
              <LongitudeDegrees>-8.27592917717993259429931640625</LongitudeDegrees>
            </Position>
            <AltitudeMeters>110</AltitudeMeters>
            <DistanceMeters>42247.261194762</DistanceMeters>
          </Trackpoint>
          <Trackpoint>
            <Time>2018-04-21T10:40:24.000Z</Time>
            <Position>
              <LatitudeDegrees>43.18784234113991260528564453125</LatitudeDegrees>
              <LongitudeDegrees>-8.2758199609816074371337890625</LongitudeDegrees>
            </Position>
            <AltitudeMeters>110.59999847412109375</AltitudeMeters>
            <DistanceMeters>42257.433048865</DistanceMeters>
          </Trackpoint>
          <Trackpoint>
            <Time>2018-04-21T10:40:25.000Z</Time>
            <Position>
              <LatitudeDegrees>43.18786078132688999176025390625</LatitudeDegrees>
              <LongitudeDegrees>-8.27581015415489673614501953125</LongitudeDegrees>
            </Position>
            <AltitudeMeters>110.8000030517578125</AltitudeMeters>
            <DistanceMeters>42259.635127667</DistanceMeters>
          </Trackpoint>
          <Trackpoint>
            <Time>2018-04-21T10:40:26.000Z</Time>
            <Position>
              <LatitudeDegrees>43.18787989206612110137939453125</LatitudeDegrees>
              <LongitudeDegrees>-8.27580579556524753570556640625</LongitudeDegrees>
            </Position>
            <AltitudeMeters>111</AltitudeMeters>
            <DistanceMeters>42261.791626999</DistanceMeters>
          </Trackpoint>
          <Trackpoint>
            <Time>2018-04-21T10:40:30.000Z</Time>
            <Position>
              <LatitudeDegrees>43.187950551509857177734375</LatitudeDegrees>
              <LongitudeDegrees>-8.27581099234521389007568359375</LongitudeDegrees>
            </Position>
            <AltitudeMeters>112</AltitudeMeters>
            <DistanceMeters>42269.666813665</DistanceMeters>
          </Trackpoint>
          <Trackpoint>
            <Time>2018-04-21T10:40:31.000Z</Time>
            <Position>
              <LatitudeDegrees>43.187966644763946533203125</LatitudeDegrees>
              <LongitudeDegrees>-8.27581753022968769073486328125</LongitudeDegrees>
            </Position>
            <AltitudeMeters>112.1999969482421875</AltitudeMeters>
            <DistanceMeters>42271.533792376</DistanceMeters>
          </Trackpoint>
          <Trackpoint>
            <Time>2018-04-21T10:40:36.000Z</Time>
            <Position>
              <LatitudeDegrees>43.18804937414824962615966796875</LatitudeDegrees>
              <LongitudeDegrees>-8.27583496458828449249267578125</LongitudeDegrees>
            </Position>
            <AltitudeMeters>113.40000152587890625</AltitudeMeters>
            <DistanceMeters>42280.849318911</DistanceMeters>
          </Trackpoint>
          <Trackpoint>
            <Time>2018-04-21T10:40:38.000Z</Time>
            <Position>
              <LatitudeDegrees>43.18808692507445812225341796875</LatitudeDegrees>
              <LongitudeDegrees>-8.27584569342434406280517578125</LongitudeDegrees>
            </Position>
            <AltitudeMeters>113.8000030517578125</AltitudeMeters>
            <DistanceMeters>42285.118123692</DistanceMeters>
          </Trackpoint>
          <Trackpoint>
            <Time>2018-04-21T10:40:40.000Z</Time>
            <Position>
              <LatitudeDegrees>43.18812196142971515655517578125</LatitudeDegrees>
              <LongitudeDegrees>-8.27585306949913501739501953125</LongitudeDegrees>
            </Position>
            <AltitudeMeters>114.40000152587890625</AltitudeMeters>
            <DistanceMeters>42289.063735405</DistanceMeters>
          </Trackpoint>
          <Trackpoint>
            <Time>2018-04-21T10:40:45.000Z</Time>
            <Position>
              <LatitudeDegrees>43.18820779211819171905517578125</LatitudeDegrees>
              <LongitudeDegrees>-8.275865055620670318603515625</LongitudeDegrees>
            </Position>
            <AltitudeMeters>115.59999847412109375</AltitudeMeters>
            <DistanceMeters>42298.666136697</DistanceMeters>
          </Trackpoint>
          <Trackpoint>
            <Time>2018-04-21T10:40:46.000Z</Time>
            <Position>
              <LatitudeDegrees>43.188221454620361328125</LatitudeDegrees>
              <LongitudeDegrees>-8.27586865983903408050537109375</LongitudeDegrees>
            </Position>
            <AltitudeMeters>116</AltitudeMeters>
            <DistanceMeters>42300.215975506</DistanceMeters>
          </Trackpoint>
          <Trackpoint>
            <Time>2018-04-21T10:40:49.000Z</Time>
            <Position>
              <LatitudeDegrees>43.1882642023265361785888671875</LatitudeDegrees>
              <LongitudeDegrees>-8.27587201260030269622802734375</LongitudeDegrees>
            </Position>
            <AltitudeMeters>116.40000152587890625</AltitudeMeters>
            <DistanceMeters>42304.980596392</DistanceMeters>
          </Trackpoint>
          <Trackpoint>
            <Time>2018-04-21T10:40:50.000Z</Time>
            <Position>
              <LatitudeDegrees>43.18827736191451549530029296875</LatitudeDegrees>
              <LongitudeDegrees>-8.27587620355188846588134765625</LongitudeDegrees>
            </Position>
            <AltitudeMeters>116.8000030517578125</AltitudeMeters>
            <DistanceMeters>42306.486102681</DistanceMeters>
          </Trackpoint>
          <Trackpoint>
            <Time>2018-04-21T10:40:52.000Z</Time>
            <Position>
              <LatitudeDegrees>43.18830636329948902130126953125</LatitudeDegrees>
              <LongitudeDegrees>-8.2758796401321887969970703125</LongitudeDegrees>
            </Position>
            <AltitudeMeters>117.1999969482421875</AltitudeMeters>
            <DistanceMeters>42309.726778367</DistanceMeters>
          </Trackpoint>
          <Trackpoint>
            <Time>2018-04-21T10:40:53.000Z</Time>
            <Position>
              <LatitudeDegrees>43.188319019973278045654296875</LatitudeDegrees>
              <LongitudeDegrees>-8.27588156796991825103759765625</LongitudeDegrees>
            </Position>
            <AltitudeMeters>117.40000152587890625</AltitudeMeters>
            <DistanceMeters>42311.145829828</DistanceMeters>
          </Trackpoint>
          <Trackpoint>
            <Time>2018-04-21T10:40:54.000Z</Time>
            <Position>
              <LatitudeDegrees>43.1883315928280353546142578125</LatitudeDegrees>
              <LongitudeDegrees>-8.27588441781699657440185546875</LongitudeDegrees>
            </Position>
            <AltitudeMeters>118</AltitudeMeters>
            <DistanceMeters>42312.564881288</DistanceMeters>
          </Trackpoint>
          <Trackpoint>
            <Time>2018-04-21T10:41:00.000Z</Time>
            <Position>
              <LatitudeDegrees>43.1884078681468963623046875</LatitudeDegrees>
              <LongitudeDegrees>-8.275901935994625091552734375</LongitudeDegrees>
            </Position>
            <AltitudeMeters>119.1999969482421875</AltitudeMeters>
            <DistanceMeters>42321.173063866</DistanceMeters>
          </Trackpoint>
          <Trackpoint>
            <Time>2018-04-21T10:41:04.000Z</Time>
            <Position>
              <LatitudeDegrees>43.18845723755657672882080078125</LatitudeDegrees>
              <LongitudeDegrees>-8.27591073699295520782470703125</LongitudeDegrees>
            </Position>
            <AltitudeMeters>120.1999969482421875</AltitudeMeters>
            <DistanceMeters>42326.714025868</DistanceMeters>
          </Trackpoint>
          <Trackpoint>
            <Time>2018-04-21T10:41:07.000Z</Time>
            <Position>
              <LatitudeDegrees>43.18849881179630756378173828125</LatitudeDegrees>
              <LongitudeDegrees>-8.27592196874320507049560546875</LongitudeDegrees>
            </Position>
            <AltitudeMeters>121.1999969482421875</AltitudeMeters>
            <DistanceMeters>42331.43102792</DistanceMeters>
          </Trackpoint>
          <Trackpoint>
            <Time>2018-04-21T10:41:08.000Z</Time>
            <Position>
              <LatitudeDegrees>43.18851021118462085723876953125</LatitudeDegrees>
              <LongitudeDegrees>-8.27592439949512481689453125</LongitudeDegrees>
            </Position>
            <AltitudeMeters>121.40000152587890625</AltitudeMeters>
            <DistanceMeters>42332.713008385</DistanceMeters>
          </Trackpoint>
          <Trackpoint>
            <Time>2018-04-21T10:41:12.000Z</Time>
            <Position>
              <LatitudeDegrees>43.18856100551784038543701171875</LatitudeDegrees>
              <LongitudeDegrees>-8.2759453542530536651611328125</LongitudeDegrees>
            </Position>
            <AltitudeMeters>122.40000152587890625</AltitudeMeters>
            <DistanceMeters>42338.616913455</DistanceMeters>
          </Trackpoint>
          <Trackpoint>
            <Time>2018-04-21T10:41:13.000Z</Time>
            <Position>
              <LatitudeDegrees>43.188572488725185394287109375</LatitudeDegrees>
              <LongitudeDegrees>-8.2759473659098148345947265625</LongitudeDegrees>
            </Position>
            <AltitudeMeters>122.8000030517578125</AltitudeMeters>
            <DistanceMeters>42339.905918523</DistanceMeters>
          </Trackpoint>
          <Trackpoint>
            <Time>2018-04-21T10:41:14.000Z</Time>
            <Position>
              <LatitudeDegrees>43.18858481012284755706787109375</LatitudeDegrees>
              <LongitudeDegrees>-8.27594443224370479583740234375</LongitudeDegrees>
            </Position>
            <AltitudeMeters>123</AltitudeMeters>
            <DistanceMeters>42341.29603951</DistanceMeters>
          </Trackpoint>
          <Trackpoint>
            <Time>2018-04-21T10:41:17.000Z</Time>
            <Position>
              <LatitudeDegrees>43.1886263005435466766357421875</LatitudeDegrees>
              <LongitudeDegrees>-8.27595750801265239715576171875</LongitudeDegrees>
            </Position>
            <AltitudeMeters>123.59999847412109375</AltitudeMeters>
            <DistanceMeters>42346.034052811</DistanceMeters>
          </Trackpoint>
          <Trackpoint>
            <Time>2018-04-21T10:41:21.000Z</Time>
            <Position>
              <LatitudeDegrees>43.18867064081132411956787109375</LatitudeDegrees>
              <LongitudeDegrees>-8.275984413921833038330078125</LongitudeDegrees>
            </Position>
            <AltitudeMeters>125</AltitudeMeters>
            <DistanceMeters>42351.429696096</DistanceMeters>
          </Trackpoint>
          <Trackpoint>
            <Time>2018-04-21T10:41:27.000Z</Time>
            <Position>
              <LatitudeDegrees>43.1887404620647430419921875</LatitudeDegrees>
              <LongitudeDegrees>-8.27598340809345245361328125</LongitudeDegrees>
            </Position>
            <AltitudeMeters>126.1999969482421875</AltitudeMeters>
            <DistanceMeters>42359.201580123</DistanceMeters>
          </Trackpoint>
          <Trackpoint>
            <Time>2018-04-21T10:41:29.000Z</Time>
            <Position>
              <LatitudeDegrees>43.18876124918460845947265625</LatitudeDegrees>
              <LongitudeDegrees>-8.27597561292350292205810546875</LongitudeDegrees>
            </Position>
            <AltitudeMeters>126.8000030517578125</AltitudeMeters>
            <DistanceMeters>42361.601827771</DistanceMeters>
          </Trackpoint>
          <Trackpoint>
            <Time>2018-04-21T10:41:31.000Z</Time>
            <Position>
              <LatitudeDegrees>43.1887862272560596466064453125</LatitudeDegrees>
              <LongitudeDegrees>-8.2759694941341876983642578125</LongitudeDegrees>
            </Position>
            <AltitudeMeters>127.40000152587890625</AltitudeMeters>
            <DistanceMeters>42364.423977204</DistanceMeters>
          </Trackpoint>
          <Trackpoint>
            <Time>2018-04-21T10:41:34.000Z</Time>
            <Position>
              <LatitudeDegrees>43.1888096965849399566650390625</LatitudeDegrees>
              <LongitudeDegrees>-8.27594988048076629638671875</LongitudeDegrees>
            </Position>
            <AltitudeMeters>128.399993896484375</AltitudeMeters>
            <DistanceMeters>42367.482597677</DistanceMeters>
          </Trackpoint>
          <Trackpoint>
            <Time>2018-04-21T10:41:35.000Z</Time>
            <Position>
              <LatitudeDegrees>43.18881346844136714935302734375</LatitudeDegrees>
              <LongitudeDegrees>-8.2759363017976284027099609375</LongitudeDegrees>
            </Position>
            <AltitudeMeters>128.1999969482421875</AltitudeMeters>
            <DistanceMeters>42368.66184819</DistanceMeters>
          </Trackpoint>
          <Trackpoint>
            <Time>2018-04-21T10:41:41.000Z</Time>
            <Position>
              <LatitudeDegrees>43.1888033263385295867919921875</LatitudeDegrees>
              <LongitudeDegrees>-8.2758102379739284515380859375</LongitudeDegrees>
            </Position>
            <AltitudeMeters>128.8000030517578125</AltitudeMeters>
            <DistanceMeters>42378.954605685</DistanceMeters>
          </Trackpoint>
          <Trackpoint>
            <Time>2018-04-21T10:41:47.000Z</Time>
            <Position>
              <LatitudeDegrees>43.188819922506809234619140625</LatitudeDegrees>
              <LongitudeDegrees>-8.2756340503692626953125</LongitudeDegrees>
            </Position>
            <AltitudeMeters>129.399993896484375</AltitudeMeters>
            <DistanceMeters>42393.371132292</DistanceMeters>
          </Trackpoint>
          <Trackpoint>
            <Time>2018-04-21T10:41:48.000Z</Time>
            <Position>
              <LatitudeDegrees>43.18882604129612445831298828125</LatitudeDegrees>
              <LongitudeDegrees>-8.27559742145240306854248046875</LongitudeDegrees>
            </Position>
            <AltitudeMeters>129.600006103515625</AltitudeMeters>
            <DistanceMeters>42396.420882895</DistanceMeters>
          </Trackpoint>
          <Trackpoint>
            <Time>2018-04-21T10:41:56.000Z</Time>
            <Position>
              <LatitudeDegrees>43.188864849507808685302734375</LatitudeDegrees>
              <LongitudeDegrees>-8.27532199211418628692626953125</LongitudeDegrees>
            </Position>
            <AltitudeMeters>130.1999969482421875</AltitudeMeters>
            <DistanceMeters>42419.185682194</DistanceMeters>
          </Trackpoint>
          <Trackpoint>
            <Time>2018-04-21T10:42:01.000Z</Time>
            <Position>
              <LatitudeDegrees>43.18889133632183074951171875</LatitudeDegrees>
              <LongitudeDegrees>-8.2751202397048473358154296875</LongitudeDegrees>
            </Position>
            <AltitudeMeters>130.600006103515625</AltitudeMeters>
            <DistanceMeters>42435.821057834</DistanceMeters>
          </Trackpoint>
          <Trackpoint>
            <Time>2018-04-21T10:42:05.000Z</Time>
            <Position>
              <LatitudeDegrees>43.18890902213752269744873046875</LatitudeDegrees>
              <LongitudeDegrees>-8.27494363300502300262451171875</LongitudeDegrees>
            </Position>
            <AltitudeMeters>130.600006103515625</AltitudeMeters>
            <DistanceMeters>42450.286983021</DistanceMeters>
          </Trackpoint>
          <Trackpoint>
            <Time>2018-04-21T10:42:10.000Z</Time>
            <Position>
              <LatitudeDegrees>43.18896484561264514923095703125</LatitudeDegrees>
              <LongitudeDegrees>-8.27476744540035724639892578125</LongitudeDegrees>
            </Position>
            <AltitudeMeters>131</AltitudeMeters>
            <DistanceMeters>42465.876288565</DistanceMeters>
          </Trackpoint>
          <Trackpoint>
            <Time>2018-04-21T10:42:14.000Z</Time>
            <Position>
              <LatitudeDegrees>43.189044557511806488037109375</LatitudeDegrees>
              <LongitudeDegrees>-8.27473081648349761962890625</LongitudeDegrees>
            </Position>
            <AltitudeMeters>131.600006103515625</AltitudeMeters>
            <DistanceMeters>42475.233404638</DistanceMeters>
          </Trackpoint>
          <Trackpoint>
            <Time>2018-04-21T10:42:15.000Z</Time>
            <Position>
              <LatitudeDegrees>43.1890635006129741668701171875</LatitudeDegrees>
              <LongitudeDegrees>-8.274733163416385650634765625</LongitudeDegrees>
            </Position>
            <AltitudeMeters>132</AltitudeMeters>
            <DistanceMeters>42477.351882391</DistanceMeters>
          </Trackpoint>
          <Trackpoint>
            <Time>2018-04-21T10:42:19.000Z</Time>
            <Position>
              <LatitudeDegrees>43.18914019502699375152587890625</LatitudeDegrees>
              <LongitudeDegrees>-8.27475520782172679901123046875</LongitudeDegrees>
            </Position>
            <AltitudeMeters>132.600006103515625</AltitudeMeters>
            <DistanceMeters>42486.073657667</DistanceMeters>
          </Trackpoint>
          <Trackpoint>
            <Time>2018-04-21T10:42:23.000Z</Time>
            <Position>
              <LatitudeDegrees>43.189223594963550567626953125</LatitudeDegrees>
              <LongitudeDegrees>-8.2747732289135456085205078125</LongitudeDegrees>
            </Position>
            <AltitudeMeters>133.8000030517578125</AltitudeMeters>
            <DistanceMeters>42495.47025745</DistanceMeters>
          </Trackpoint>
          <Trackpoint>
            <Time>2018-04-21T10:42:28.000Z</Time>
            <Position>
              <LatitudeDegrees>43.18933398462831974029541015625</LatitudeDegrees>
              <LongitudeDegrees>-8.2747829519212245941162109375</LongitudeDegrees>
            </Position>
            <AltitudeMeters>134.600006103515625</AltitudeMeters>
            <DistanceMeters>42507.782360977</DistanceMeters>
          </Trackpoint>
          <Trackpoint>
            <Time>2018-04-21T10:42:29.000Z</Time>
            <Position>
              <LatitudeDegrees>43.18935695104300975799560546875</LatitudeDegrees>
              <LongitudeDegrees>-8.27478772960603237152099609375</LongitudeDegrees>
            </Position>
            <AltitudeMeters>134.8000030517578125</AltitudeMeters>
            <DistanceMeters>42510.367367083</DistanceMeters>
          </Trackpoint>
          <Trackpoint>
            <Time>2018-04-21T10:42:35.000Z</Time>
            <Position>
              <LatitudeDegrees>43.18950816057622432708740234375</LatitudeDegrees>
              <LongitudeDegrees>-8.274833075702190399169921875</LongitudeDegrees>
            </Position>
            <AltitudeMeters>135.600006103515625</AltitudeMeters>
            <DistanceMeters>42527.594743331</DistanceMeters>
          </Trackpoint>
          <Trackpoint>
            <Time>2018-04-21T10:42:36.000Z</Time>
            <Position>
              <LatitudeDegrees>43.18953179754316806793212890625</LatitudeDegrees>
              <LongitudeDegrees>-8.27483651228249073028564453125</LongitudeDegrees>
            </Position>
            <AltitudeMeters>136.1999969482421875</AltitudeMeters>
            <DistanceMeters>42530.24188128</DistanceMeters>
          </Trackpoint>
          <Trackpoint>
            <Time>2018-04-21T10:42:41.000Z</Time>
            <Position>
              <LatitudeDegrees>43.18964193575084209442138671875</LatitudeDegrees>
              <LongitudeDegrees>-8.274850510060787200927734375</LongitudeDegrees>
            </Position>
            <AltitudeMeters>138.600006103515625</AltitudeMeters>
            <DistanceMeters>42542.552884612</DistanceMeters>
          </Trackpoint>
          <Trackpoint>
            <Time>2018-04-21T10:42:43.000Z</Time>
            <Position>
              <LatitudeDegrees>43.18968468345701694488525390625</LatitudeDegrees>
              <LongitudeDegrees>-8.27486165799200534820556640625</LongitudeDegrees>
            </Position>
            <AltitudeMeters>137.1999969482421875</AltitudeMeters>
            <DistanceMeters>42547.394586632</DistanceMeters>
          </Trackpoint>
          <Trackpoint>
            <Time>2018-04-21T10:42:46.000Z</Time>
            <Position>
              <LatitudeDegrees>43.18976012058556079864501953125</LatitudeDegrees>
              <LongitudeDegrees>-8.27487221919000148773193359375</LongitudeDegrees>
            </Position>
            <AltitudeMeters>139</AltitudeMeters>
            <DistanceMeters>42555.834328511</DistanceMeters>
          </Trackpoint>
          <Trackpoint>
            <Time>2018-04-21T10:42:49.000Z</Time>
            <Position>
              <LatitudeDegrees>43.18984226323664188385009765625</LatitudeDegrees>
              <LongitudeDegrees>-8.27485377900302410125732421875</LongitudeDegrees>
            </Position>
            <AltitudeMeters>138</AltitudeMeters>
            <DistanceMeters>42565.098823997</DistanceMeters>
          </Trackpoint>
          <Trackpoint>
            <Time>2018-04-21T10:42:54.000Z</Time>
            <Position>
              <LatitudeDegrees>43.1899895332753658294677734375</LatitudeDegrees>
              <LongitudeDegrees>-8.274752609431743621826171875</LongitudeDegrees>
            </Position>
            <AltitudeMeters>138.1999969482421875</AltitudeMeters>
            <DistanceMeters>42583.431346603</DistanceMeters>
          </Trackpoint>
          <Trackpoint>
            <Time>2018-04-21T10:42:55.000Z</Time>
            <Position>
              <LatitudeDegrees>43.1900166906416416168212890625</LatitudeDegrees>
              <LongitudeDegrees>-8.27475504018366336822509765625</LongitudeDegrees>
            </Position>
            <AltitudeMeters>137.600006103515625</AltitudeMeters>
            <DistanceMeters>42586.458808839</DistanceMeters>
          </Trackpoint>
          <Trackpoint>
            <Time>2018-04-21T10:42:57.000Z</Time>
            <Position>
              <LatitudeDegrees>43.19005818106234073638916015625</LatitudeDegrees>
              <LongitudeDegrees>-8.27478471212089061737060546875</LongitudeDegrees>
            </Position>
            <AltitudeMeters>139.1999969482421875</AltitudeMeters>
            <DistanceMeters>42591.66710507</DistanceMeters>
          </Trackpoint>
          <Trackpoint>
            <Time>2018-04-21T10:42:58.000Z</Time>
            <Position>
              <LatitudeDegrees>43.190075866878032684326171875</LatitudeDegrees>
              <LongitudeDegrees>-8.27479728497564792633056640625</LongitudeDegrees>
            </Position>
            <AltitudeMeters>141</AltitudeMeters>
            <DistanceMeters>42593.885526054</DistanceMeters>
          </Trackpoint>
          <Trackpoint>
            <Time>2018-04-21T10:42:59.000Z</Time>
            <Position>
              <LatitudeDegrees>43.19009472616016864776611328125</LatitudeDegrees>
              <LongitudeDegrees>-8.27480868436396121978759765625</LongitudeDegrees>
            </Position>
            <AltitudeMeters>140.1999969482421875</AltitudeMeters>
            <DistanceMeters>42596.179983412</DistanceMeters>
          </Trackpoint>
          <Trackpoint>
            <Time>2018-04-21T10:43:00.000Z</Time>
            <Position>
              <LatitudeDegrees>43.19011417217552661895751953125</LatitudeDegrees>
              <LongitudeDegrees>-8.274822346866130828857421875</LongitudeDegrees>
            </Position>
            <AltitudeMeters>138.399993896484375</AltitudeMeters>
            <DistanceMeters>42598.611999052</DistanceMeters>
          </Trackpoint>
          <Trackpoint>
            <Time>2018-04-21T10:43:01.000Z</Time>
            <Position>
              <LatitudeDegrees>43.19013118743896484375</LatitudeDegrees>
              <LongitudeDegrees>-8.2748352549970149993896484375</LongitudeDegrees>
            </Position>
            <AltitudeMeters>139.600006103515625</AltitudeMeters>
            <DistanceMeters>42600.778941541</DistanceMeters>
          </Trackpoint>
          <Trackpoint>
            <Time>2018-04-21T10:43:06.000Z</Time>
            <Position>
              <LatitudeDegrees>43.19021693430840969085693359375</LatitudeDegrees>
              <LongitudeDegrees>-8.2748801819980144500732421875</LongitudeDegrees>
            </Position>
            <AltitudeMeters>140.8000030517578125</AltitudeMeters>
            <DistanceMeters>42610.995086779</DistanceMeters>
          </Trackpoint>
          <Trackpoint>
            <Time>2018-04-21T10:43:11.000Z</Time>
            <Position>
              <LatitudeDegrees>43.19033511914312839508056640625</LatitudeDegrees>
              <LongitudeDegrees>-8.2749224267899990081787109375</LongitudeDegrees>
            </Position>
            <AltitudeMeters>141.600006103515625</AltitudeMeters>
            <DistanceMeters>42624.588225644</DistanceMeters>
          </Trackpoint>
          <Trackpoint>
            <Time>2018-04-21T10:43:12.000Z</Time>
            <Position>
              <LatitudeDegrees>43.1903610192239284515380859375</LatitudeDegrees>
              <LongitudeDegrees>-8.27493106015026569366455078125</LongitudeDegrees>
            </Position>
            <AltitudeMeters>141.8000030517578125</AltitudeMeters>
            <DistanceMeters>42627.553911814</DistanceMeters>
          </Trackpoint>
          <Trackpoint>
            <Time>2018-04-21T10:43:13.000Z</Time>
            <Position>
              <LatitudeDegrees>43.1903865002095699310302734375</LatitudeDegrees>
              <LongitudeDegrees>-8.27493810094892978668212890625</LongitudeDegrees>
            </Position>
            <AltitudeMeters>142.1999969482421875</AltitudeMeters>
            <DistanceMeters>42630.445598309</DistanceMeters>
          </Trackpoint>
          <Trackpoint>
            <Time>2018-04-21T10:43:17.000Z</Time>
            <Position>
              <LatitudeDegrees>43.1904894299805164337158203125</LatitudeDegrees>
              <LongitudeDegrees>-8.2749556191265583038330078125</LongitudeDegrees>
            </Position>
            <AltitudeMeters>143.1999969482421875</AltitudeMeters>
            <DistanceMeters>42641.990073102</DistanceMeters>
          </Trackpoint>
          <Trackpoint>
            <Time>2018-04-21T10:43:21.000Z</Time>
            <Position>
              <LatitudeDegrees>43.1905836425721645355224609375</LatitudeDegrees>
              <LongitudeDegrees>-8.2749475724995136260986328125</LongitudeDegrees>
            </Position>
            <AltitudeMeters>144</AltitudeMeters>
            <DistanceMeters>42652.496005919</DistanceMeters>
          </Trackpoint>
          <Trackpoint>
            <Time>2018-04-21T10:43:22.000Z</Time>
            <Position>
              <LatitudeDegrees>43.19060836918652057647705078125</LatitudeDegrees>
              <LongitudeDegrees>-8.274947740137577056884765625</LongitudeDegrees>
            </Position>
            <AltitudeMeters>144.399993896484375</AltitudeMeters>
            <DistanceMeters>42655.24686107</DistanceMeters>
          </Trackpoint>
          <Trackpoint>
            <Time>2018-04-21T10:43:28.000Z</Time>
            <Position>
              <LatitudeDegrees>43.1907667033374309539794921875</LatitudeDegrees>
              <LongitudeDegrees>-8.274947069585323333740234375</LongitudeDegrees>
            </Position>
            <AltitudeMeters>145.399993896484375</AltitudeMeters>
            <DistanceMeters>42672.869897674</DistanceMeters>
          </Trackpoint>
          <Trackpoint>
            <Time>2018-04-21T10:43:30.000Z</Time>
            <Position>
              <LatitudeDegrees>43.1908139772713184356689453125</LatitudeDegrees>
              <LongitudeDegrees>-8.2749492488801479339599609375</LongitudeDegrees>
            </Position>
            <AltitudeMeters>146</AltitudeMeters>
            <DistanceMeters>42678.13509802</DistanceMeters>
          </Trackpoint>
          <Trackpoint>
            <Time>2018-04-21T10:43:33.000Z</Time>
            <Position>
              <LatitudeDegrees>43.19088664837181568145751953125</LatitudeDegrees>
              <LongitudeDegrees>-8.274960480630397796630859375</LongitudeDegrees>
            </Position>
            <AltitudeMeters>146.600006103515625</AltitudeMeters>
            <DistanceMeters>42686.274179098</DistanceMeters>
          </Trackpoint>
          <Trackpoint>
            <Time>2018-04-21T10:43:38.000Z</Time>
            <Position>
              <LatitudeDegrees>43.19101690314710140228271484375</LatitudeDegrees>
              <LongitudeDegrees>-8.2749844528734683990478515625</LongitudeDegrees>
            </Position>
            <AltitudeMeters>147.8000030517578125</AltitudeMeters>
            <DistanceMeters>42700.902121243</DistanceMeters>
          </Trackpoint>
          <Trackpoint>
            <Time>2018-04-21T10:43:43.000Z</Time>
            <Position>
              <LatitudeDegrees>43.1911469064652919769287109375</LatitudeDegrees>
              <LongitudeDegrees>-8.27498436905443668365478515625</LongitudeDegrees>
            </Position>
            <AltitudeMeters>149</AltitudeMeters>
            <DistanceMeters>42715.372415386</DistanceMeters>
          </Trackpoint>
          <Trackpoint>
            <Time>2018-04-21T10:43:46.000Z</Time>
            <Position>
              <LatitudeDegrees>43.19123785011470317840576171875</LatitudeDegrees>
              <LongitudeDegrees>-8.274969868361949920654296875</LongitudeDegrees>
            </Position>
            <AltitudeMeters>149.399993896484375</AltitudeMeters>
            <DistanceMeters>42725.562895213</DistanceMeters>
          </Trackpoint>
          <Trackpoint>
            <Time>2018-04-21T10:43:50.000Z</Time>
            <Position>
              <LatitudeDegrees>43.191347904503345489501953125</LatitudeDegrees>
              <LongitudeDegrees>-8.274939022958278656005859375</LongitudeDegrees>
            </Position>
            <AltitudeMeters>150.1999969482421875</AltitudeMeters>
            <DistanceMeters>42738.065319908</DistanceMeters>
          </Trackpoint>
          <Trackpoint>
            <Time>2018-04-21T10:43:53.000Z</Time>
            <Position>
              <LatitudeDegrees>43.19143063388764858245849609375</LatitudeDegrees>
              <LongitudeDegrees>-8.274885714054107666015625</LongitudeDegrees>
            </Position>
            <AltitudeMeters>150.600006103515625</AltitudeMeters>
            <DistanceMeters>42748.238061724</DistanceMeters>
          </Trackpoint>
          <Trackpoint>
            <Time>2018-04-21T10:44:00.000Z</Time>
            <Position>
              <LatitudeDegrees>43.191680498421192169189453125</LatitudeDegrees>
              <LongitudeDegrees>-8.27474825084209442138671875</LongitudeDegrees>
            </Position>
            <AltitudeMeters>150.600006103515625</AltitudeMeters>
            <DistanceMeters>42778.202080824</DistanceMeters>
          </Trackpoint>
          <Trackpoint>
            <Time>2018-04-21T10:44:06.000Z</Time>
            <Position>
              <LatitudeDegrees>43.19198484532535076141357421875</LatitudeDegrees>
              <LongitudeDegrees>-8.274647332727909088134765625</LongitudeDegrees>
            </Position>
            <AltitudeMeters>150.600006103515625</AltitudeMeters>
            <DistanceMeters>42813.052407677</DistanceMeters>
          </Trackpoint>
          <Trackpoint>
            <Time>2018-04-21T10:44:07.000Z</Time>
            <Position>
              <LatitudeDegrees>43.19203555583953857421875</LatitudeDegrees>
              <LongitudeDegrees>-8.274633251130580902099609375</LongitudeDegrees>
            </Position>
            <AltitudeMeters>150.399993896484375</AltitudeMeters>
            <DistanceMeters>42818.810744303</DistanceMeters>
          </Trackpoint>
          <Trackpoint>
            <Time>2018-04-21T10:44:10.000Z</Time>
            <Position>
              <LatitudeDegrees>43.1921966560184955596923828125</LatitudeDegrees>
              <LongitudeDegrees>-8.27459293417632579803466796875</LongitudeDegrees>
            </Position>
            <AltitudeMeters>149.600006103515625</AltitudeMeters>
            <DistanceMeters>42837.037551823</DistanceMeters>
          </Trackpoint>
          <Trackpoint>
            <Time>2018-04-21T10:44:12.000Z</Time>
            <Position>
              <LatitudeDegrees>43.19230888970196247100830078125</LatitudeDegrees>
              <LongitudeDegrees>-8.27455437742173671722412109375</LongitudeDegrees>
            </Position>
            <AltitudeMeters>149</AltitudeMeters>
            <DistanceMeters>42849.914986498</DistanceMeters>
          </Trackpoint>
          <Trackpoint>
            <Time>2018-04-21T10:44:13.000Z</Time>
            <Position>
              <LatitudeDegrees>43.1923703290522098541259765625</LatitudeDegrees>
              <LongitudeDegrees>-8.27454012818634510040283203125</LongitudeDegrees>
            </Position>
            <AltitudeMeters>149</AltitudeMeters>
            <DistanceMeters>42856.849983769</DistanceMeters>
          </Trackpoint>
          <Trackpoint>
            <Time>2018-04-21T10:44:16.000Z</Time>
            <Position>
              <LatitudeDegrees>43.1925708241760730743408203125</LatitudeDegrees>
              <LongitudeDegrees>-8.274513892829418182373046875</LongitudeDegrees>
            </Position>
            <AltitudeMeters>148.600006103515625</AltitudeMeters>
            <DistanceMeters>42879.266622544</DistanceMeters>
          </Trackpoint>
          <Trackpoint>
            <Time>2018-04-21T10:44:17.000Z</Time>
            <Position>
              <LatitudeDegrees>43.19264014251530170440673828125</LatitudeDegrees>
              <LongitudeDegrees>-8.27451489865779876708984375</LongitudeDegrees>
            </Position>
            <AltitudeMeters>148.1999969482421875</AltitudeMeters>
            <DistanceMeters>42886.981949103</DistanceMeters>
          </Trackpoint>
          <Trackpoint>
            <Time>2018-04-21T10:44:18.000Z</Time>
            <Position>
              <LatitudeDegrees>43.19271147251129150390625</LatitudeDegrees>
              <LongitudeDegrees>-8.27451816760003566741943359375</LongitudeDegrees>
            </Position>
            <AltitudeMeters>147.8000030517578125</AltitudeMeters>
            <DistanceMeters>42894.925636798</DistanceMeters>
          </Trackpoint>
          <Trackpoint>
            <Time>2018-04-21T10:44:19.000Z</Time>
            <Position>
              <LatitudeDegrees>43.1927857361733913421630859375</LatitudeDegrees>
              <LongitudeDegrees>-8.274519257247447967529296875</LongitudeDegrees>
            </Position>
            <AltitudeMeters>147.1999969482421875</AltitudeMeters>
            <DistanceMeters>42903.192414799</DistanceMeters>
          </Trackpoint>
          <Trackpoint>
            <Time>2018-04-21T10:44:20.000Z</Time>
            <Position>
              <LatitudeDegrees>43.19286209531128406524658203125</LatitudeDegrees>
              <LongitudeDegrees>-8.2745174132287502288818359375</LongitudeDegrees>
            </Position>
            <AltitudeMeters>146.600006103515625</AltitudeMeters>
            <DistanceMeters>42911.692924884</DistanceMeters>
          </Trackpoint>
          <Trackpoint>
            <Time>2018-04-21T10:44:22.000Z</Time>
            <Position>
              <LatitudeDegrees>43.19301120936870574951171875</LatitudeDegrees>
              <LongitudeDegrees>-8.27450324781239032745361328125</LongitudeDegrees>
            </Position>
            <AltitudeMeters>146.399993896484375</AltitudeMeters>
            <DistanceMeters>42928.329386137</DistanceMeters>
          </Trackpoint>
          <Trackpoint>
            <Time>2018-04-21T10:44:24.000Z</Time>
            <Position>
              <LatitudeDegrees>43.19314640946686267852783203125</LatitudeDegrees>
              <LongitudeDegrees>-8.27448447234928607940673828125</LongitudeDegrees>
            </Position>
            <AltitudeMeters>146.399993896484375</AltitudeMeters>
            <DistanceMeters>42943.454164699</DistanceMeters>
          </Trackpoint>
          <Trackpoint>
            <Time>2018-04-21T10:44:25.000Z</Time>
            <Position>
              <LatitudeDegrees>43.19320508278906345367431640625</LatitudeDegrees>
              <LongitudeDegrees>-8.27449142932891845703125</LongitudeDegrees>
            </Position>
            <AltitudeMeters>146.600006103515625</AltitudeMeters>
            <DistanceMeters>42950.008253014</DistanceMeters>
          </Trackpoint>
          <Trackpoint>
            <Time>2018-04-21T10:44:27.000Z</Time>
            <Position>
              <LatitudeDegrees>43.19330499507486820220947265625</LatitudeDegrees>
              <LongitudeDegrees>-8.2745361886918544769287109375</LongitudeDegrees>
            </Position>
            <AltitudeMeters>147.1999969482421875</AltitudeMeters>
            <DistanceMeters>42961.706963994</DistanceMeters>
          </Trackpoint>
          <Trackpoint>
            <Time>2018-04-21T10:44:29.000Z</Time>
            <Position>
              <LatitudeDegrees>43.19337976165115833282470703125</LatitudeDegrees>
              <LongitudeDegrees>-8.2745866477489471435546875</LongitudeDegrees>
            </Position>
            <AltitudeMeters>147.8000030517578125</AltitudeMeters>
            <DistanceMeters>42970.981688152</DistanceMeters>
          </Trackpoint>
          <Trackpoint>
            <Time>2018-04-21T10:44:31.000Z</Time>
            <Position>
              <LatitudeDegrees>43.19344631396234035491943359375</LatitudeDegrees>
              <LongitudeDegrees>-8.27459813095629215240478515625</LongitudeDegrees>
            </Position>
            <AltitudeMeters>148.600006103515625</AltitudeMeters>
            <DistanceMeters>42978.447184238</DistanceMeters>
          </Trackpoint>
          <Trackpoint>
            <Time>2018-04-21T10:44:32.000Z</Time>
            <Position>
              <LatitudeDegrees>43.1934797577559947967529296875</LatitudeDegrees>
              <LongitudeDegrees>-8.274593688547611236572265625</LongitudeDegrees>
            </Position>
            <AltitudeMeters>148.600006103515625</AltitudeMeters>
            <DistanceMeters>42982.185975264</DistanceMeters>
          </Trackpoint>
          <Trackpoint>
            <Time>2018-04-21T10:44:35.000Z</Time>
            <Position>
              <LatitudeDegrees>43.19360473193228244781494140625</LatitudeDegrees>
              <LongitudeDegrees>-8.2745502702891826629638671875</LongitudeDegrees>
            </Position>
            <AltitudeMeters>148.1999969482421875</AltitudeMeters>
            <DistanceMeters>42996.535009134</DistanceMeters>
          </Trackpoint>
          <Trackpoint>
            <Time>2018-04-21T10:44:36.000Z</Time>
            <Position>
              <LatitudeDegrees>43.19364982657134532928466796875</LatitudeDegrees>
              <LongitudeDegrees>-8.274514563381671905517578125</LongitudeDegrees>
            </Position>
            <AltitudeMeters>148.399993896484375</AltitudeMeters>
            <DistanceMeters>43002.33085975</DistanceMeters>
          </Trackpoint>
          <Trackpoint>
            <Time>2018-04-21T10:44:41.000Z</Time>
            <Position>
              <LatitudeDegrees>43.19383464753627777099609375</LatitudeDegrees>
              <LongitudeDegrees>-8.27425430528819561004638671875</LongitudeDegrees>
            </Position>
            <AltitudeMeters>147.8000030517578125</AltitudeMeters>
            <DistanceMeters>43031.812275724</DistanceMeters>
          </Trackpoint>
          <Trackpoint>
            <Time>2018-04-21T10:44:48.000Z</Time>
            <Position>
              <LatitudeDegrees>43.194087781012058258056640625</LatitudeDegrees>
              <LongitudeDegrees>-8.273889608681201934814453125</LongitudeDegrees>
            </Position>
            <AltitudeMeters>148.399993896484375</AltitudeMeters>
            <DistanceMeters>43072.672105427</DistanceMeters>
          </Trackpoint>
          <Trackpoint>
            <Time>2018-04-21T10:44:50.000Z</Time>
            <Position>
              <LatitudeDegrees>43.19417285732924938201904296875</LatitudeDegrees>
              <LongitudeDegrees>-8.2737935520708560943603515625</LongitudeDegrees>
            </Position>
            <AltitudeMeters>148.399993896484375</AltitudeMeters>
            <DistanceMeters>43084.936811432</DistanceMeters>
          </Trackpoint>
          <Trackpoint>
            <Time>2018-04-21T10:44:54.000Z</Time>
            <Position>
              <LatitudeDegrees>43.19435901939868927001953125</LatitudeDegrees>
              <LongitudeDegrees>-8.27363186515867710113525390625</LongitudeDegrees>
            </Position>
            <AltitudeMeters>148.1999969482421875</AltitudeMeters>
            <DistanceMeters>43109.461437253</DistanceMeters>
          </Trackpoint>
          <Trackpoint>
            <Time>2018-04-21T10:45:00.000Z</Time>
            <Position>
              <LatitudeDegrees>43.194622881710529327392578125</LatitudeDegrees>
              <LongitudeDegrees>-8.27341292984783649444580078125</LongitudeDegrees>
            </Position>
            <AltitudeMeters>149</AltitudeMeters>
            <DistanceMeters>43143.784897061</DistanceMeters>
          </Trackpoint>
          <Trackpoint>
            <Time>2018-04-21T10:45:01.000Z</Time>
            <Position>
              <LatitudeDegrees>43.19466101936995983123779296875</LatitudeDegrees>
              <LongitudeDegrees>-8.2733757980167865753173828125</LongitudeDegrees>
            </Position>
            <AltitudeMeters>149.1999969482421875</AltitudeMeters>
            <DistanceMeters>43148.991459217</DistanceMeters>
          </Trackpoint>
          <Trackpoint>
            <Time>2018-04-21T10:45:06.000Z</Time>
            <Position>
              <LatitudeDegrees>43.194830082356929779052734375</LatitudeDegrees>
              <LongitudeDegrees>-8.2731793262064456939697265625</LongitudeDegrees>
            </Position>
            <AltitudeMeters>149.600006103515625</AltitudeMeters>
            <DistanceMeters>43173.653775186</DistanceMeters>
          </Trackpoint>
          <Trackpoint>
            <Time>2018-04-21T10:45:07.000Z</Time>
            <Position>
              <LatitudeDegrees>43.1948626041412353515625</LatitudeDegrees>
              <LongitudeDegrees>-8.27314923517405986785888671875</LongitudeDegrees>
            </Position>
            <AltitudeMeters>150</AltitudeMeters>
            <DistanceMeters>43178.020870496</DistanceMeters>
          </Trackpoint>
          <Trackpoint>
            <Time>2018-04-21T10:45:08.000Z</Time>
            <Position>
              <LatitudeDegrees>43.1948934495449066162109375</LatitudeDegrees>
              <LongitudeDegrees>-8.27312123961746692657470703125</LongitudeDegrees>
            </Position>
            <AltitudeMeters>150.1999969482421875</AltitudeMeters>
            <DistanceMeters>43182.136745058</DistanceMeters>
          </Trackpoint>
          <Trackpoint>
            <Time>2018-04-21T10:45:11.000Z</Time>
            <Position>
              <LatitudeDegrees>43.1949901767075061798095703125</LatitudeDegrees>
              <LongitudeDegrees>-8.27306373976171016693115234375</LongitudeDegrees>
            </Position>
            <AltitudeMeters>151.399993896484375</AltitudeMeters>
            <DistanceMeters>43193.870139514</DistanceMeters>
          </Trackpoint>
          <Trackpoint>
            <Time>2018-04-21T10:45:14.000Z</Time>
            <Position>
              <LatitudeDegrees>43.1950877420604228973388671875</LatitudeDegrees>
              <LongitudeDegrees>-8.273026943206787109375</LongitudeDegrees>
            </Position>
            <AltitudeMeters>152.399993896484375</AltitudeMeters>
            <DistanceMeters>43205.132308654</DistanceMeters>
          </Trackpoint>
          <Trackpoint>
            <Time>2018-04-21T10:45:15.000Z</Time>
            <Position>
              <LatitudeDegrees>43.195122443139553070068359375</LatitudeDegrees>
              <LongitudeDegrees>-8.27301596291363239288330078125</LongitudeDegrees>
            </Position>
            <AltitudeMeters>152.8000030517578125</AltitudeMeters>
            <DistanceMeters>43209.096187185</DistanceMeters>
          </Trackpoint>
          <Trackpoint>
            <Time>2018-04-21T10:45:17.000Z</Time>
            <Position>
              <LatitudeDegrees>43.1951900012791156768798828125</LatitudeDegrees>
              <LongitudeDegrees>-8.27299919910728931427001953125</LongitudeDegrees>
            </Position>
            <AltitudeMeters>153.1999969482421875</AltitudeMeters>
            <DistanceMeters>43216.737422314</DistanceMeters>
          </Trackpoint>
          <Trackpoint>
            <Time>2018-04-21T10:45:18.000Z</Time>
            <Position>
              <LatitudeDegrees>43.1952252052724361419677734375</LatitudeDegrees>
              <LongitudeDegrees>-8.272986374795436859130859375</LongitudeDegrees>
            </Position>
            <AltitudeMeters>153.8000030517578125</AltitudeMeters>
            <DistanceMeters>43220.791400499</DistanceMeters>
          </Trackpoint>
          <Trackpoint>
            <Time>2018-04-21T10:45:20.000Z</Time>
            <Position>
              <LatitudeDegrees>43.19529402069747447967529296875</LatitudeDegrees>
              <LongitudeDegrees>-8.27294421382248401641845703125</LongitudeDegrees>
            </Position>
            <AltitudeMeters>154.1999969482421875</AltitudeMeters>
            <DistanceMeters>43229.179627705</DistanceMeters>
          </Trackpoint>
          <Trackpoint>
            <Time>2018-04-21T10:45:23.000Z</Time>
            <Position>
              <LatitudeDegrees>43.19538655690848827362060546875</LatitudeDegrees>
              <LongitudeDegrees>-8.2728591375052928924560546875</LongitudeDegrees>
            </Position>
            <AltitudeMeters>155</AltitudeMeters>
            <DistanceMeters>43241.578702326</DistanceMeters>
          </Trackpoint>
          <Trackpoint>
            <Time>2018-04-21T10:45:26.000Z</Time>
            <Position>
              <LatitudeDegrees>43.19547272287309169769287109375</LatitudeDegrees>
              <LongitudeDegrees>-8.2727505080401897430419921875</LongitudeDegrees>
            </Position>
            <AltitudeMeters>155.8000030517578125</AltitudeMeters>
            <DistanceMeters>43254.604296604</DistanceMeters>
          </Trackpoint>
          <Trackpoint>
            <Time>2018-04-21T10:45:27.000Z</Time>
            <Position>
              <LatitudeDegrees>43.19550189189612865447998046875</LatitudeDegrees>
              <LongitudeDegrees>-8.2727092690765857696533203125</LongitudeDegrees>
            </Position>
            <AltitudeMeters>155.8000030517578125</AltitudeMeters>
            <DistanceMeters>43259.265451388</DistanceMeters>
          </Trackpoint>
          <Trackpoint>
            <Time>2018-04-21T10:45:34.000Z</Time>
            <Position>
              <LatitudeDegrees>43.195725940167903900146484375</LatitudeDegrees>
              <LongitudeDegrees>-8.2723917625844478607177734375</LongitudeDegrees>
            </Position>
            <AltitudeMeters>155.1999969482421875</AltitudeMeters>
            <DistanceMeters>43295.120631254</DistanceMeters>
          </Trackpoint>
          <Trackpoint>
            <Time>2018-04-21T10:45:35.000Z</Time>
            <Position>
              <LatitudeDegrees>43.19575888104736804962158203125</LatitudeDegrees>
              <LongitudeDegrees>-8.272330574691295623779296875</LongitudeDegrees>
            </Position>
            <AltitudeMeters>154.1999969482421875</AltitudeMeters>
            <DistanceMeters>43301.293711732</DistanceMeters>
          </Trackpoint>
          <Trackpoint>
            <Time>2018-04-21T10:45:37.000Z</Time>
            <Position>
              <LatitudeDegrees>43.19581839255988597869873046875</LatitudeDegrees>
              <LongitudeDegrees>-8.2721731625497341156005859375</LongitudeDegrees>
            </Position>
            <AltitudeMeters>154</AltitudeMeters>
            <DistanceMeters>43315.682024092</DistanceMeters>
          </Trackpoint>
          <Trackpoint>
            <Time>2018-04-21T10:45:38.000Z</Time>
            <Position>
              <LatitudeDegrees>43.19584630429744720458984375</LatitudeDegrees>
              <LongitudeDegrees>-8.2720886729657649993896484375</LongitudeDegrees>
            </Position>
            <AltitudeMeters>154.399993896484375</AltitudeMeters>
            <DistanceMeters>43323.208955712</DistanceMeters>
          </Trackpoint>
          <Trackpoint>
            <Time>2018-04-21T10:45:42.000Z</Time>
            <Position>
              <LatitudeDegrees>43.19594018161296844482421875</LatitudeDegrees>
              <LongitudeDegrees>-8.27174476347863674163818359375</LongitudeDegrees>
            </Position>
            <AltitudeMeters>155</AltitudeMeters>
            <DistanceMeters>43353.006157531</DistanceMeters>
          </Trackpoint>
          <Trackpoint>
            <Time>2018-04-21T10:45:43.000Z</Time>
            <Position>
              <LatitudeDegrees>43.1959644891321659088134765625</LatitudeDegrees>
              <LongitudeDegrees>-8.27167385257780551910400390625</LongitudeDegrees>
            </Position>
            <AltitudeMeters>155.399993896484375</AltitudeMeters>
            <DistanceMeters>43359.364431844</DistanceMeters>
          </Trackpoint>
          <Trackpoint>
            <Time>2018-04-21T10:45:46.000Z</Time>
            <Position>
              <LatitudeDegrees>43.1960333883762359619140625</LatitudeDegrees>
              <LongitudeDegrees>-8.27150009572505950927734375</LongitudeDegrees>
            </Position>
            <AltitudeMeters>156.399993896484375</AltitudeMeters>
            <DistanceMeters>43375.414103512</DistanceMeters>
          </Trackpoint>
          <Trackpoint>
            <Time>2018-04-21T10:45:47.000Z</Time>
            <Position>
              <LatitudeDegrees>43.19605861790478229522705078125</LatitudeDegrees>
              <LongitudeDegrees>-8.27145047485828399658203125</LongitudeDegrees>
            </Position>
            <AltitudeMeters>156.8000030517578125</AltitudeMeters>
            <DistanceMeters>43380.322488577</DistanceMeters>
          </Trackpoint>
          <Trackpoint>
            <Time>2018-04-21T10:45:48.000Z</Time>
            <Position>
              <LatitudeDegrees>43.1960835121572017669677734375</LatitudeDegrees>
              <LongitudeDegrees>-8.271408565342426300048828125</LongitudeDegrees>
            </Position>
            <AltitudeMeters>157</AltitudeMeters>
            <DistanceMeters>43384.709183564</DistanceMeters>
          </Trackpoint>
          <Trackpoint>
            <Time>2018-04-21T10:45:51.000Z</Time>
            <Position>
              <LatitudeDegrees>43.19616238586604595184326171875</LatitudeDegrees>
              <LongitudeDegrees>-8.27131829224526882171630859375</LongitudeDegrees>
            </Position>
            <AltitudeMeters>158.1999969482421875</AltitudeMeters>
            <DistanceMeters>43396.142441481</DistanceMeters>
          </Trackpoint>
          <Trackpoint>
            <Time>2018-04-21T10:45:53.000Z</Time>
            <Position>
              <LatitudeDegrees>43.19620882160961627960205078125</LatitudeDegrees>
              <LongitudeDegrees>-8.2712742872536182403564453125</LongitudeDegrees>
            </Position>
            <AltitudeMeters>158.600006103515625</AltitudeMeters>
            <DistanceMeters>43402.424275135</DistanceMeters>
          </Trackpoint>
          <Trackpoint>
            <Time>2018-04-21T10:45:55.000Z</Time>
            <Position>
              <LatitudeDegrees>43.19625106640160083770751953125</LatitudeDegrees>
              <LongitudeDegrees>-8.2712410949170589447021484375</LongitudeDegrees>
            </Position>
            <AltitudeMeters>158.8000030517578125</AltitudeMeters>
            <DistanceMeters>43407.84329798</DistanceMeters>
          </Trackpoint>
          <Trackpoint>
            <Time>2018-04-21T10:45:57.000Z</Time>
            <Position>
              <LatitudeDegrees>43.19627956487238407135009765625</LatitudeDegrees>
              <LongitudeDegrees>-8.27126733027398586273193359375</LongitudeDegrees>
            </Position>
            <AltitudeMeters>159</AltitudeMeters>
            <DistanceMeters>43411.663324621</DistanceMeters>
          </Trackpoint>
          <Trackpoint>
            <Time>2018-04-21T10:46:00.000Z</Time>
            <Position>
              <LatitudeDegrees>43.19624268449842929840087890625</LatitudeDegrees>
              <LongitudeDegrees>-8.2713071443140506744384765625</LongitudeDegrees>
            </Position>
            <AltitudeMeters>158.8000030517578125</AltitudeMeters>
            <DistanceMeters>43416.888065867</DistanceMeters>
          </Trackpoint>
          <Trackpoint>
            <Time>2018-04-21T10:46:03.000Z</Time>
            <Position>
              <LatitudeDegrees>43.196178562939167022705078125</LatitudeDegrees>
              <LongitudeDegrees>-8.27131493948400020599365234375</LongitudeDegrees>
            </Position>
            <AltitudeMeters>158.8000030517578125</AltitudeMeters>
            <DistanceMeters>43424.052349118</DistanceMeters>
          </Trackpoint>
          <Trackpoint>
            <Time>2018-04-21T10:46:05.000Z</Time>
            <Position>
              <LatitudeDegrees>43.19614763371646404266357421875</LatitudeDegrees>
              <LongitudeDegrees>-8.27125626616179943084716796875</LongitudeDegrees>
            </Position>
            <AltitudeMeters>158</AltitudeMeters>
            <DistanceMeters>43429.927121639</DistanceMeters>
          </Trackpoint>
          <Trackpoint>
            <Time>2018-04-21T10:46:08.000Z</Time>
            <Position>
              <LatitudeDegrees>43.1960892118513584136962890625</LatitudeDegrees>
              <LongitudeDegrees>-8.27112517319619655609130859375</LongitudeDegrees>
            </Position>
            <AltitudeMeters>157.600006103515625</AltitudeMeters>
            <DistanceMeters>43442.394105065</DistanceMeters>
          </Trackpoint>
          <Trackpoint>
            <Time>2018-04-21T10:46:09.000Z</Time>
            <Position>
              <LatitudeDegrees>43.1960714422166347503662109375</LatitudeDegrees>
              <LongitudeDegrees>-8.2710711099207401275634765625</LongitudeDegrees>
            </Position>
            <AltitudeMeters>157.399993896484375</AltitudeMeters>
            <DistanceMeters>43447.205873556</DistanceMeters>
          </Trackpoint>
          <Trackpoint>
            <Time>2018-04-21T10:46:10.000Z</Time>
            <Position>
              <LatitudeDegrees>43.1960486434400081634521484375</LatitudeDegrees>
              <LongitudeDegrees>-8.27100095339119434356689453125</LongitudeDegrees>
            </Position>
            <AltitudeMeters>157</AltitudeMeters>
            <DistanceMeters>43453.437191932</DistanceMeters>
          </Trackpoint>
          <Trackpoint>
            <Time>2018-04-21T10:46:13.000Z</Time>
            <Position>
              <LatitudeDegrees>43.196003548800945281982421875</LatitudeDegrees>
              <LongitudeDegrees>-8.2707572914659976959228515625</LongitudeDegrees>
            </Position>
            <AltitudeMeters>156.399993896484375</AltitudeMeters>
            <DistanceMeters>43473.835423777</DistanceMeters>
          </Trackpoint>
          <Trackpoint>
            <Time>2018-04-21T10:46:15.000Z</Time>
            <Position>
              <LatitudeDegrees>43.19597597233951091766357421875</LatitudeDegrees>
              <LongitudeDegrees>-8.2705836184322834014892578125</LongitudeDegrees>
            </Position>
            <AltitudeMeters>156.1999969482421875</AltitudeMeters>
            <DistanceMeters>43488.257586611</DistanceMeters>
          </Trackpoint>
          <Trackpoint>
            <Time>2018-04-21T10:46:16.000Z</Time>
            <Position>
              <LatitudeDegrees>43.1959621421992778778076171875</LatitudeDegrees>
              <LongitudeDegrees>-8.2704984582960605621337890625</LongitudeDegrees>
            </Position>
            <AltitudeMeters>155.600006103515625</AltitudeMeters>
            <DistanceMeters>43495.336279582</DistanceMeters>
          </Trackpoint>
          <Trackpoint>
            <Time>2018-04-21T10:46:18.000Z</Time>
            <Position>
              <LatitudeDegrees>43.19593808613717555999755859375</LatitudeDegrees>
              <LongitudeDegrees>-8.27033073641359806060791015625</LongitudeDegrees>
            </Position>
            <AltitudeMeters>155.399993896484375</AltitudeMeters>
            <DistanceMeters>43509.206274123</DistanceMeters>
          </Trackpoint>
          <Trackpoint>
            <Time>2018-04-21T10:46:21.000Z</Time>
            <Position>
              <LatitudeDegrees>43.19591394625604152679443359375</LatitudeDegrees>
              <LongitudeDegrees>-8.27009252272546291351318359375</LongitudeDegrees>
            </Position>
            <AltitudeMeters>155.600006103515625</AltitudeMeters>
            <DistanceMeters>43528.721022747</DistanceMeters>
          </Trackpoint>
          <Trackpoint>
            <Time>2018-04-21T10:46:22.000Z</Time>
            <Position>
              <LatitudeDegrees>43.19590254686772823333740234375</LatitudeDegrees>
              <LongitudeDegrees>-8.27001691795885562896728515625</LongitudeDegrees>
            </Position>
            <AltitudeMeters>155.399993896484375</AltitudeMeters>
            <DistanceMeters>43534.985582766</DistanceMeters>
          </Trackpoint>
          <Trackpoint>
            <Time>2018-04-21T10:46:28.000Z</Time>
            <Position>
              <LatitudeDegrees>43.19581537507474422454833984375</LatitudeDegrees>
              <LongitudeDegrees>-8.26953529380261898040771484375</LongitudeDegrees>
            </Position>
            <AltitudeMeters>154.600006103515625</AltitudeMeters>
            <DistanceMeters>43575.251576179</DistanceMeters>
          </Trackpoint>
          <Trackpoint>
            <Time>2018-04-21T10:46:30.000Z</Time>
            <Position>
              <LatitudeDegrees>43.1957839429378509521484375</LatitudeDegrees>
              <LongitudeDegrees>-8.2693568430840969085693359375</LongitudeDegrees>
            </Position>
            <AltitudeMeters>153.1999969482421875</AltitudeMeters>
            <DistanceMeters>43590.148055579</DistanceMeters>
          </Trackpoint>
          <Trackpoint>
            <Time>2018-04-21T10:46:31.000Z</Time>
            <Position>
              <LatitudeDegrees>43.19576592184603214263916015625</LatitudeDegrees>
              <LongitudeDegrees>-8.26926581561565399169921875</LongitudeDegrees>
            </Position>
            <AltitudeMeters>152.1999969482421875</AltitudeMeters>
            <DistanceMeters>43597.801099145</DistanceMeters>
          </Trackpoint>
          <Trackpoint>
            <Time>2018-04-21T10:46:32.000Z</Time>
            <Position>
              <LatitudeDegrees>43.19575401954352855682373046875</LatitudeDegrees>
              <LongitudeDegrees>-8.26917839236557483673095703125</LongitudeDegrees>
            </Position>
            <AltitudeMeters>151.8000030517578125</AltitudeMeters>
            <DistanceMeters>43605.016874971</DistanceMeters>
          </Trackpoint>
          <Trackpoint>
            <Time>2018-04-21T10:46:34.000Z</Time>
            <Position>
              <LatitudeDegrees>43.19574999623000621795654296875</LatitudeDegrees>
              <LongitudeDegrees>-8.2690520770847797393798828125</LongitudeDegrees>
            </Position>
            <AltitudeMeters>150.8000030517578125</AltitudeMeters>
            <DistanceMeters>43615.275799913</DistanceMeters>
          </Trackpoint>
          <Trackpoint>
            <Time>2018-04-21T10:46:37.000Z</Time>
            <Position>
              <LatitudeDegrees>43.19579668343067169189453125</LatitudeDegrees>
              <LongitudeDegrees>-8.26898342929780483245849609375</LongitudeDegrees>
            </Position>
            <AltitudeMeters>149.8000030517578125</AltitudeMeters>
            <DistanceMeters>43622.893363252</DistanceMeters>
          </Trackpoint>
          <Trackpoint>
            <Time>2018-04-21T10:46:40.000Z</Time>
            <Position>
              <LatitudeDegrees>43.19587069563567638397216796875</LatitudeDegrees>
              <LongitudeDegrees>-8.26901544816792011260986328125</LongitudeDegrees>
            </Position>
            <AltitudeMeters>149.8000030517578125</AltitudeMeters>
            <DistanceMeters>43631.530868191</DistanceMeters>
          </Trackpoint>
          <Trackpoint>
            <Time>2018-04-21T10:46:41.000Z</Time>
            <Position>
              <LatitudeDegrees>43.19590321741998195648193359375</LatitudeDegrees>
              <LongitudeDegrees>-8.269034810364246368408203125</LongitudeDegrees>
            </Position>
            <AltitudeMeters>150</AltitudeMeters>
            <DistanceMeters>43635.476479904</DistanceMeters>
          </Trackpoint>
          <Trackpoint>
            <Time>2018-04-21T10:46:47.000Z</Time>
            <Position>
              <LatitudeDegrees>43.196159787476062774658203125</LatitudeDegrees>
              <LongitudeDegrees>-8.26917059719562530517578125</LongitudeDegrees>
            </Position>
            <AltitudeMeters>150.399993896484375</AltitudeMeters>
            <DistanceMeters>43666.084966655</DistanceMeters>
          </Trackpoint>
          <Trackpoint>
            <Time>2018-04-21T10:46:50.000Z</Time>
            <Position>
              <LatitudeDegrees>43.196283839643001556396484375</LatitudeDegrees>
              <LongitudeDegrees>-8.2692321203649044036865234375</LongitudeDegrees>
            </Position>
            <AltitudeMeters>150.399993896484375</AltitudeMeters>
            <DistanceMeters>43680.76682467</DistanceMeters>
          </Trackpoint>
          <Trackpoint>
            <Time>2018-04-21T10:46:51.000Z</Time>
            <Position>
              <LatitudeDegrees>43.19631577469408512115478515625</LatitudeDegrees>
              <LongitudeDegrees>-8.2692177034914493560791015625</LongitudeDegrees>
            </Position>
            <AltitudeMeters>150.399993896484375</AltitudeMeters>
            <DistanceMeters>43684.508030156</DistanceMeters>
          </Trackpoint>
          <Trackpoint>
            <Time>2018-04-21T10:46:54.000Z</Time>
            <Position>
              <LatitudeDegrees>43.19634008221328258514404296875</LatitudeDegrees>
              <LongitudeDegrees>-8.269061632454395294189453125</LongitudeDegrees>
            </Position>
            <AltitudeMeters>149.399993896484375</AltitudeMeters>
            <DistanceMeters>43697.45749036</DistanceMeters>
          </Trackpoint>
          <Trackpoint>
            <Time>2018-04-21T10:46:55.000Z</Time>
            <Position>
              <LatitudeDegrees>43.19633170031011104583740234375</LatitudeDegrees>
              <LongitudeDegrees>-8.2689860276877880096435546875</LongitudeDegrees>
            </Position>
            <AltitudeMeters>149.1999969482421875</AltitudeMeters>
            <DistanceMeters>43703.662669322</DistanceMeters>
          </Trackpoint>
          <Trackpoint>
            <Time>2018-04-21T10:46:56.000Z</Time>
            <Position>
              <LatitudeDegrees>43.1963215582072734832763671875</LatitudeDegrees>
              <LongitudeDegrees>-8.2689025439321994781494140625</LongitudeDegrees>
            </Position>
            <AltitudeMeters>148.600006103515625</AltitudeMeters>
            <DistanceMeters>43710.529623465</DistanceMeters>
          </Trackpoint>
          <Trackpoint>
            <Time>2018-04-21T10:46:58.000Z</Time>
            <Position>
              <LatitudeDegrees>43.19630630314350128173828125</LatitudeDegrees>
              <LongitudeDegrees>-8.2687206566333770751953125</LongitudeDegrees>
            </Position>
            <AltitudeMeters>147.600006103515625</AltitudeMeters>
            <DistanceMeters>43725.385736629</DistanceMeters>
          </Trackpoint>
          <Trackpoint>
            <Time>2018-04-21T10:47:00.000Z</Time>
            <Position>
              <LatitudeDegrees>43.19629331119358539581298828125</LatitudeDegrees>
              <LongitudeDegrees>-8.268531225621700286865234375</LongitudeDegrees>
            </Position>
            <AltitudeMeters>146.8000030517578125</AltitudeMeters>
            <DistanceMeters>43740.823995523</DistanceMeters>
          </Trackpoint>
          <Trackpoint>
            <Time>2018-04-21T10:47:01.000Z</Time>
            <Position>
              <LatitudeDegrees>43.19629498757421970367431640625</LatitudeDegrees>
              <LongitudeDegrees>-8.268443383276462554931640625</LongitudeDegrees>
            </Position>
            <AltitudeMeters>146.8000030517578125</AltitudeMeters>
            <DistanceMeters>43747.954165954</DistanceMeters>
          </Trackpoint>
          <Trackpoint>
            <Time>2018-04-21T10:47:02.000Z</Time>
            <Position>
              <LatitudeDegrees>43.19630605168640613555908203125</LatitudeDegrees>
              <LongitudeDegrees>-8.26836065389215946197509765625</LongitudeDegrees>
            </Position>
            <AltitudeMeters>145.399993896484375</AltitudeMeters>
            <DistanceMeters>43754.777586954</DistanceMeters>
          </Trackpoint>
          <Trackpoint>
            <Time>2018-04-21T10:47:03.000Z</Time>
            <Position>
              <LatitudeDegrees>43.19632365368306636810302734375</LatitudeDegrees>
              <LongitudeDegrees>-8.26828119345009326934814453125</LongitudeDegrees>
            </Position>
            <AltitudeMeters>145.8000030517578125</AltitudeMeters>
            <DistanceMeters>43761.51577843</DistanceMeters>
          </Trackpoint>
          <Trackpoint>
            <Time>2018-04-21T10:47:05.000Z</Time>
            <Position>
              <LatitudeDegrees>43.19637411274015903472900390625</LatitudeDegrees>
              <LongitudeDegrees>-8.26811875216662883758544921875</LongitudeDegrees>
            </Position>
            <AltitudeMeters>144.1999969482421875</AltitudeMeters>
            <DistanceMeters>43775.843399579</DistanceMeters>
          </Trackpoint>
          <Trackpoint>
            <Time>2018-04-21T10:47:07.000Z</Time>
            <Position>
              <LatitudeDegrees>43.196470923721790313720703125</LatitudeDegrees>
              <LongitudeDegrees>-8.26796829700469970703125</LongitudeDegrees>
            </Position>
            <AltitudeMeters>142.1999969482421875</AltitudeMeters>
            <DistanceMeters>43792.12655359</DistanceMeters>
          </Trackpoint>
          <Trackpoint>
            <Time>2018-04-21T10:47:09.000Z</Time>
            <Position>
              <LatitudeDegrees>43.19663244299590587615966796875</LatitudeDegrees>
              <LongitudeDegrees>-8.26783443801105022430419921875</LongitudeDegrees>
            </Position>
            <AltitudeMeters>141</AltitudeMeters>
            <DistanceMeters>43813.130467146</DistanceMeters>
          </Trackpoint>
          <Trackpoint>
            <Time>2018-04-21T10:47:11.000Z</Time>
            <Position>
              <LatitudeDegrees>43.196824975311756134033203125</LatitudeDegrees>
              <LongitudeDegrees>-8.267731256783008575439453125</LongitudeDegrees>
            </Position>
            <AltitudeMeters>139.600006103515625</AltitudeMeters>
            <DistanceMeters>43836.13713924</DistanceMeters>
          </Trackpoint>
          <Trackpoint>
            <Time>2018-04-21T10:47:12.000Z</Time>
            <Position>
              <LatitudeDegrees>43.19690569303929805755615234375</LatitudeDegrees>
              <LongitudeDegrees>-8.26768239028751850128173828125</LongitudeDegrees>
            </Position>
            <AltitudeMeters>138.8000030517578125</AltitudeMeters>
            <DistanceMeters>43845.957588131</DistanceMeters>
          </Trackpoint>
          <Trackpoint>
            <Time>2018-04-21T10:47:13.000Z</Time>
            <Position>
              <LatitudeDegrees>43.1969927810132503509521484375</LatitudeDegrees>
              <LongitudeDegrees>-8.26764266006648540496826171875</LongitudeDegrees>
            </Position>
            <AltitudeMeters>137.600006103515625</AltitudeMeters>
            <DistanceMeters>43856.17240743</DistanceMeters>
          </Trackpoint>
          <Trackpoint>
            <Time>2018-04-21T10:47:15.000Z</Time>
            <Position>
              <LatitudeDegrees>43.1971527077257633209228515625</LatitudeDegrees>
              <LongitudeDegrees>-8.26754777692258358001708984375</LongitudeDegrees>
            </Position>
            <AltitudeMeters>136.399993896484375</AltitudeMeters>
            <DistanceMeters>43875.566240059</DistanceMeters>
          </Trackpoint>
          <Trackpoint>
            <Time>2018-04-21T10:47:17.000Z</Time>
            <Position>
              <LatitudeDegrees>43.19730542600154876708984375</LatitudeDegrees>
              <LongitudeDegrees>-8.26743713580071926116943359375</LongitudeDegrees>
            </Position>
            <AltitudeMeters>135.399993896484375</AltitudeMeters>
            <DistanceMeters>43894.789371652</DistanceMeters>
          </Trackpoint>
          <Trackpoint>
            <Time>2018-04-21T10:47:18.000Z</Time>
            <Position>
              <LatitudeDegrees>43.1973798573017120361328125</LatitudeDegrees>
              <LongitudeDegrees>-8.2673813961446285247802734375</LongitudeDegrees>
            </Position>
            <AltitudeMeters>134.8000030517578125</AltitudeMeters>
            <DistanceMeters>43904.228160462</DistanceMeters>
          </Trackpoint>
          <Trackpoint>
            <Time>2018-04-21T10:47:19.000Z</Time>
            <Position>
              <LatitudeDegrees>43.19744699634611606597900390625</LatitudeDegrees>
              <LongitudeDegrees>-8.2673243992030620574951171875</LongitudeDegrees>
            </Position>
            <AltitudeMeters>134.399993896484375</AltitudeMeters>
            <DistanceMeters>43913.016975735</DistanceMeters>
          </Trackpoint>
          <Trackpoint>
            <Time>2018-04-21T10:47:20.000Z</Time>
            <Position>
              <LatitudeDegrees>43.19750793278217315673828125</LatitudeDegrees>
              <LongitudeDegrees>-8.26726899482309818267822265625</LongitudeDegrees>
            </Position>
            <AltitudeMeters>133</AltitudeMeters>
            <DistanceMeters>43921.153837568</DistanceMeters>
          </Trackpoint>
          <Trackpoint>
            <Time>2018-04-21T10:47:22.000Z</Time>
            <Position>
              <LatitudeDegrees>43.19759367965161800384521484375</LatitudeDegrees>
              <LongitudeDegrees>-8.267219625413417816162109375</LongitudeDegrees>
            </Position>
            <AltitudeMeters>131.8000030517578125</AltitudeMeters>
            <DistanceMeters>43931.503900218</DistanceMeters>
          </Trackpoint>
          <Trackpoint>
            <Time>2018-04-21T10:47:25.000Z</Time>
            <Position>
              <LatitudeDegrees>43.19769660942256450653076171875</LatitudeDegrees>
              <LongitudeDegrees>-8.26730486936867237091064453125</LongitudeDegrees>
            </Position>
            <AltitudeMeters>130.8000030517578125</AltitudeMeters>
            <DistanceMeters>43944.886145023</DistanceMeters>
          </Trackpoint>
          <Trackpoint>
            <Time>2018-04-21T10:47:27.000Z</Time>
            <Position>
              <LatitudeDegrees>43.1977558694779872894287109375</LatitudeDegrees>
              <LongitudeDegrees>-8.2673800550401210784912109375</LongitudeDegrees>
            </Position>
            <AltitudeMeters>131</AltitudeMeters>
            <DistanceMeters>43953.870065284</DistanceMeters>
          </Trackpoint>
          <Trackpoint>
            <Time>2018-04-21T10:47:30.000Z</Time>
            <Position>
              <LatitudeDegrees>43.19784999825060367584228515625</LatitudeDegrees>
              <LongitudeDegrees>-8.26749279163777828216552734375</LongitudeDegrees>
            </Position>
            <AltitudeMeters>131.600006103515625</AltitudeMeters>
            <DistanceMeters>43967.777769531</DistanceMeters>
          </Trackpoint>
          <Trackpoint>
            <Time>2018-04-21T10:47:31.000Z</Time>
            <Position>
              <LatitudeDegrees>43.19788084365427494049072265625</LatitudeDegrees>
              <LongitudeDegrees>-8.2675289176404476165771484375</LongitudeDegrees>
            </Position>
            <AltitudeMeters>131.8000030517578125</AltitudeMeters>
            <DistanceMeters>43972.291288387</DistanceMeters>
          </Trackpoint>
          <Trackpoint>
            <Time>2018-04-21T10:47:32.000Z</Time>
            <Position>
              <LatitudeDegrees>43.19791235961019992828369140625</LatitudeDegrees>
              <LongitudeDegrees>-8.267564289271831512451171875</LongitudeDegrees>
            </Position>
            <AltitudeMeters>132.1999969482421875</AltitudeMeters>
            <DistanceMeters>43976.822777528</DistanceMeters>
          </Trackpoint>
          <Trackpoint>
            <Time>2018-04-21T10:47:35.000Z</Time>
            <Position>
              <LatitudeDegrees>43.19800942204892635345458984375</LatitudeDegrees>
              <LongitudeDegrees>-8.26767501421272754669189453125</LongitudeDegrees>
            </Position>
            <AltitudeMeters>133</AltitudeMeters>
            <DistanceMeters>43990.873562605</DistanceMeters>
          </Trackpoint>
          <Trackpoint>
            <Time>2018-04-21T10:47:38.000Z</Time>
            <Position>
              <LatitudeDegrees>43.19811117835342884063720703125</LatitudeDegrees>
              <LongitudeDegrees>-8.26779060065746307373046875</LongitudeDegrees>
            </Position>
            <AltitudeMeters>133</AltitudeMeters>
            <DistanceMeters>44005.578466907</DistanceMeters>
          </Trackpoint>
          <Trackpoint>
            <Time>2018-04-21T10:47:40.000Z</Time>
            <Position>
              <LatitudeDegrees>43.19818443618714809417724609375</LatitudeDegrees>
              <LongitudeDegrees>-8.2678651995956897735595703125</LongitudeDegrees>
            </Position>
            <AltitudeMeters>133.8000030517578125</AltitudeMeters>
            <DistanceMeters>44015.733439728</DistanceMeters>
          </Trackpoint>
          <Trackpoint>
            <Time>2018-04-21T10:47:45.000Z</Time>
            <Position>
              <LatitudeDegrees>43.19835609756410121917724609375</LatitudeDegrees>
              <LongitudeDegrees>-8.26808162033557891845703125</LongitudeDegrees>
            </Position>
            <AltitudeMeters>133.8000030517578125</AltitudeMeters>
            <DistanceMeters>44041.683563441</DistanceMeters>
          </Trackpoint>
          <Trackpoint>
            <Time>2018-04-21T10:47:46.000Z</Time>
            <Position>
              <LatitudeDegrees>43.1983835063874721527099609375</LatitudeDegrees>
              <LongitudeDegrees>-8.26812981627881526947021484375</LongitudeDegrees>
            </Position>
            <AltitudeMeters>134.399993896484375</AltitudeMeters>
            <DistanceMeters>44046.643193289</DistanceMeters>
          </Trackpoint>
          <Trackpoint>
            <Time>2018-04-21T10:47:47.000Z</Time>
            <Position>
              <LatitudeDegrees>43.19840840063989162445068359375</LatitudeDegrees>
              <LongitudeDegrees>-8.2681820355355739593505859375</LongitudeDegrees>
            </Position>
            <AltitudeMeters>134.1999969482421875</AltitudeMeters>
            <DistanceMeters>44051.70554027</DistanceMeters>
          </Trackpoint>
          <Trackpoint>
            <Time>2018-04-21T10:47:51.000Z</Time>
            <Position>
              <LatitudeDegrees>43.19849724881350994110107421875</LatitudeDegrees>
              <LongitudeDegrees>-8.26838563196361064910888671875</LongitudeDegrees>
            </Position>
            <AltitudeMeters>135.399993896484375</AltitudeMeters>
            <DistanceMeters>44070.958712425</DistanceMeters>
          </Trackpoint>
          <Trackpoint>
            <Time>2018-04-21T10:47:53.000Z</Time>
            <Position>
              <LatitudeDegrees>43.1985461153090000152587890625</LatitudeDegrees>
              <LongitudeDegrees>-8.26846257783472537994384765625</LongitudeDegrees>
            </Position>
            <AltitudeMeters>135.8000030517578125</AltitudeMeters>
            <DistanceMeters>44079.238588049</DistanceMeters>
          </Trackpoint>
          <Trackpoint>
            <Time>2018-04-21T10:47:55.000Z</Time>
            <Position>
              <LatitudeDegrees>43.1985957361757755279541015625</LatitudeDegrees>
              <LongitudeDegrees>-8.2685287110507488250732421875</LongitudeDegrees>
            </Position>
            <AltitudeMeters>136.1999969482421875</AltitudeMeters>
            <DistanceMeters>44086.938684278</DistanceMeters>
          </Trackpoint>
          <Trackpoint>
            <Time>2018-04-21T10:47:56.000Z</Time>
            <Position>
              <LatitudeDegrees>43.1986238993704319000244140625</LatitudeDegrees>
              <LongitudeDegrees>-8.26855645515024662017822265625</LongitudeDegrees>
            </Position>
            <AltitudeMeters>136.600006103515625</AltitudeMeters>
            <DistanceMeters>44090.796347558</DistanceMeters>
          </Trackpoint>
          <Trackpoint>
            <Time>2018-04-21T10:47:59.000Z</Time>
            <Position>
              <LatitudeDegrees>43.1987234763801097869873046875</LatitudeDegrees>
              <LongitudeDegrees>-8.268588222563266754150390625</LongitudeDegrees>
            </Position>
            <AltitudeMeters>137.399993896484375</AltitudeMeters>
            <DistanceMeters>44102.174978233</DistanceMeters>
          </Trackpoint>
          <Trackpoint>
            <Time>2018-04-21T10:48:01.000Z</Time>
            <Position>
              <LatitudeDegrees>43.19880008697509765625</LatitudeDegrees>
              <LongitudeDegrees>-8.26857757754623889923095703125</LongitudeDegrees>
            </Position>
            <AltitudeMeters>137.600006103515625</AltitudeMeters>
            <DistanceMeters>44110.745840026</DistanceMeters>
          </Trackpoint>
          <Trackpoint>
            <Time>2018-04-21T10:48:04.000Z</Time>
            <Position>
              <LatitudeDegrees>43.19888901896774768829345703125</LatitudeDegrees>
              <LongitudeDegrees>-8.26852896250784397125244140625</LongitudeDegrees>
            </Position>
            <AltitudeMeters>138</AltitudeMeters>
            <DistanceMeters>44121.401551228</DistanceMeters>
          </Trackpoint>
          <Trackpoint>
            <Time>2018-04-21T10:48:08.000Z</Time>
            <Position>
              <LatitudeDegrees>43.19899161346256732940673828125</LatitudeDegrees>
              <LongitudeDegrees>-8.2684636674821376800537109375</LongitudeDegrees>
            </Position>
            <AltitudeMeters>138.8000030517578125</AltitudeMeters>
            <DistanceMeters>44133.989632155</DistanceMeters>
          </Trackpoint>
          <Trackpoint>
            <Time>2018-04-21T10:48:11.000Z</Time>
            <Position>
              <LatitudeDegrees>43.1990936212241649627685546875</LatitudeDegrees>
              <LongitudeDegrees>-8.26839149929583072662353515625</LongitudeDegrees>
            </Position>
            <AltitudeMeters>139.600006103515625</AltitudeMeters>
            <DistanceMeters>44146.764276631</DistanceMeters>
          </Trackpoint>
          <Trackpoint>
            <Time>2018-04-21T10:48:12.000Z</Time>
            <Position>
              <LatitudeDegrees>43.19913460873067378997802734375</LatitudeDegrees>
              <LongitudeDegrees>-8.26836082153022289276123046875</LongitudeDegrees>
            </Position>
            <AltitudeMeters>140</AltitudeMeters>
            <DistanceMeters>44151.961291028</DistanceMeters>
          </Trackpoint>
          <Trackpoint>
            <Time>2018-04-21T10:48:17.000Z</Time>
            <Position>
              <LatitudeDegrees>43.19929956458508968353271484375</LatitudeDegrees>
              <LongitudeDegrees>-8.26819100417196750640869140625</LongitudeDegrees>
            </Position>
            <AltitudeMeters>141</AltitudeMeters>
            <DistanceMeters>44174.916291589</DistanceMeters>
          </Trackpoint>
          <Trackpoint>
            <Time>2018-04-21T10:48:23.000Z</Time>
            <Position>
              <LatitudeDegrees>43.1994584016501903533935546875</LatitudeDegrees>
              <LongitudeDegrees>-8.26785631477832794189453125</LongitudeDegrees>
            </Position>
            <AltitudeMeters>141.600006103515625</AltitudeMeters>
            <DistanceMeters>44207.319425827</DistanceMeters>
          </Trackpoint>
          <Trackpoint>
            <Time>2018-04-21T10:48:25.000Z</Time>
            <Position>
              <LatitudeDegrees>43.1995016522705554962158203125</LatitudeDegrees>
              <LongitudeDegrees>-8.26772832311689853668212890625</LongitudeDegrees>
            </Position>
            <AltitudeMeters>140</AltitudeMeters>
            <DistanceMeters>44218.765313693</DistanceMeters>
          </Trackpoint>
          <Trackpoint>
            <Time>2018-04-21T10:48:28.000Z</Time>
            <Position>
              <LatitudeDegrees>43.199568875133991241455078125</LatitudeDegrees>
              <LongitudeDegrees>-8.26753151603043079376220703125</LongitudeDegrees>
            </Position>
            <AltitudeMeters>141.1999969482421875</AltitudeMeters>
            <DistanceMeters>44236.399363496</DistanceMeters>
          </Trackpoint>
          <Trackpoint>
            <Time>2018-04-21T10:48:32.000Z</Time>
            <Position>
              <LatitudeDegrees>43.199668116867542266845703125</LatitudeDegrees>
              <LongitudeDegrees>-8.26725994236767292022705078125</LongitudeDegrees>
            </Position>
            <AltitudeMeters>140.600006103515625</AltitudeMeters>
            <DistanceMeters>44261.047395526</DistanceMeters>
          </Trackpoint>
          <Trackpoint>
            <Time>2018-04-21T10:48:38.000Z</Time>
            <Position>
              <LatitudeDegrees>43.19984824396669864654541015625</LatitudeDegrees>
              <LongitudeDegrees>-8.26683011837303638458251953125</LongitudeDegrees>
            </Position>
            <AltitudeMeters>140</AltitudeMeters>
            <DistanceMeters>44301.273675226</DistanceMeters>
          </Trackpoint>
          <Trackpoint>
            <Time>2018-04-21T10:48:39.000Z</Time>
            <Position>
              <LatitudeDegrees>43.19988646544516086578369140625</LatitudeDegrees>
              <LongitudeDegrees>-8.26676893047988414764404296875</LongitudeDegrees>
            </Position>
            <AltitudeMeters>140.1999969482421875</AltitudeMeters>
            <DistanceMeters>44307.810518633</DistanceMeters>
          </Trackpoint>
          <Trackpoint>
            <Time>2018-04-21T10:48:41.000Z</Time>
            <Position>
              <LatitudeDegrees>43.19997028447687625885009765625</LatitudeDegrees>
              <LongitudeDegrees>-8.2666702754795551300048828125</LongitudeDegrees>
            </Position>
            <AltitudeMeters>140.600006103515625</AltitudeMeters>
            <DistanceMeters>44320.103170878</DistanceMeters>
          </Trackpoint>
          <Trackpoint>
            <Time>2018-04-21T10:48:43.000Z</Time>
            <Position>
              <LatitudeDegrees>43.2000578753650188446044921875</LatitudeDegrees>
              <LongitudeDegrees>-8.26661621220409870147705078125</LongitudeDegrees>
            </Position>
            <AltitudeMeters>141.600006103515625</AltitudeMeters>
            <DistanceMeters>44330.793570659</DistanceMeters>
          </Trackpoint>
          <Trackpoint>
            <Time>2018-04-21T10:48:47.000Z</Time>
            <Position>
              <LatitudeDegrees>43.20020162500441074371337890625</LatitudeDegrees>
              <LongitudeDegrees>-8.266606070101261138916015625</LongitudeDegrees>
            </Position>
            <AltitudeMeters>142.600006103515625</AltitudeMeters>
            <DistanceMeters>44346.814522342</DistanceMeters>
          </Trackpoint>
          <Trackpoint>
            <Time>2018-04-21T10:48:48.000Z</Time>
            <Position>
              <LatitudeDegrees>43.2002362422645092010498046875</LatitudeDegrees>
              <LongitudeDegrees>-8.26661135070025920867919921875</LongitudeDegrees>
            </Position>
            <AltitudeMeters>142.8000030517578125</AltitudeMeters>
            <DistanceMeters>44350.69086691</DistanceMeters>
          </Trackpoint>
          <Trackpoint>
            <Time>2018-04-21T10:48:51.000Z</Time>
            <Position>
              <LatitudeDegrees>43.2003374956548213958740234375</LatitudeDegrees>
              <LongitudeDegrees>-8.26661537401378154754638671875</LongitudeDegrees>
            </Position>
            <AltitudeMeters>143.8000030517578125</AltitudeMeters>
            <DistanceMeters>44361.965457195</DistanceMeters>
          </Trackpoint>
          <Trackpoint>
            <Time>2018-04-21T10:48:54.000Z</Time>
            <Position>
              <LatitudeDegrees>43.2004461251199245452880859375</LatitudeDegrees>
              <LongitudeDegrees>-8.26657916419208049774169921875</LongitudeDegrees>
            </Position>
            <AltitudeMeters>144.1999969482421875</AltitudeMeters>
            <DistanceMeters>44374.408515127</DistanceMeters>
          </Trackpoint>
          <Trackpoint>
            <Time>2018-04-21T10:48:57.000Z</Time>
            <Position>
              <LatitudeDegrees>43.2005353085696697235107421875</LatitudeDegrees>
              <LongitudeDegrees>-8.266477994620800018310546875</LongitudeDegrees>
            </Position>
            <AltitudeMeters>145.600006103515625</AltitudeMeters>
            <DistanceMeters>44387.289455488</DistanceMeters>
          </Trackpoint>
          <Trackpoint>
            <Time>2018-04-21T10:49:00.000Z</Time>
            <Position>
              <LatitudeDegrees>43.200622312724590301513671875</LatitudeDegrees>
              <LongitudeDegrees>-8.2663708738982677459716796875</LongitudeDegrees>
            </Position>
            <AltitudeMeters>144.600006103515625</AltitudeMeters>
            <DistanceMeters>44400.301524245</DistanceMeters>
          </Trackpoint>
          <Trackpoint>
            <Time>2018-04-21T10:49:01.000Z</Time>
            <Position>
              <LatitudeDegrees>43.20065190084278583526611328125</LatitudeDegrees>
              <LongitudeDegrees>-8.2663360051810741424560546875</LongitudeDegrees>
            </Position>
            <AltitudeMeters>144.600006103515625</AltitudeMeters>
            <DistanceMeters>44404.643735618</DistanceMeters>
          </Trackpoint>
          <Trackpoint>
            <Time>2018-04-21T10:49:06.000Z</Time>
            <Position>
              <LatitudeDegrees>43.20079606957733631134033203125</LatitudeDegrees>
              <LongitudeDegrees>-8.2661497592926025390625</LongitudeDegrees>
            </Position>
            <AltitudeMeters>145.600006103515625</AltitudeMeters>
            <DistanceMeters>44426.685017629</DistanceMeters>
          </Trackpoint>
          <Trackpoint>
            <Time>2018-04-21T10:49:07.000Z</Time>
            <Position>
              <LatitudeDegrees>43.20082037709653377532958984375</LatitudeDegrees>
              <LongitudeDegrees>-8.26611245982348918914794921875</LongitudeDegrees>
            </Position>
            <AltitudeMeters>145.600006103515625</AltitudeMeters>
            <DistanceMeters>44430.743448291</DistanceMeters>
          </Trackpoint>
          <Trackpoint>
            <Time>2018-04-21T10:49:13.000Z</Time>
            <Position>
              <LatitudeDegrees>43.20092967711389064788818359375</LatitudeDegrees>
              <LongitudeDegrees>-8.265871144831180572509765625</LongitudeDegrees>
            </Position>
            <AltitudeMeters>146.399993896484375</AltitudeMeters>
            <DistanceMeters>44453.794038261</DistanceMeters>
          </Trackpoint>
          <Trackpoint>
            <Time>2018-04-21T10:49:16.000Z</Time>
            <Position>
              <LatitudeDegrees>43.200997821986675262451171875</LatitudeDegrees>
              <LongitudeDegrees>-8.2657439075410366058349609375</LongitudeDegrees>
            </Position>
            <AltitudeMeters>146.600006103515625</AltitudeMeters>
            <DistanceMeters>44466.603977727</DistanceMeters>
          </Trackpoint>
          <Trackpoint>
            <Time>2018-04-21T10:49:21.000Z</Time>
            <Position>
              <LatitudeDegrees>43.20111072622239589691162109375</LatitudeDegrees>
              <LongitudeDegrees>-8.2655326835811138153076171875</LongitudeDegrees>
            </Position>
            <AltitudeMeters>147</AltitudeMeters>
            <DistanceMeters>44487.85514671</DistanceMeters>
          </Trackpoint>
          <Trackpoint>
            <Time>2018-04-21T10:49:28.000Z</Time>
            <Position>
              <LatitudeDegrees>43.20125489495694637298583984375</LatitudeDegrees>
              <LongitudeDegrees>-8.2652292586863040924072265625</LongitudeDegrees>
            </Position>
            <AltitudeMeters>148</AltitudeMeters>
            <DistanceMeters>44517.24130349</DistanceMeters>
          </Trackpoint>
          <Trackpoint>
            <Time>2018-04-21T10:49:35.000Z</Time>
            <Position>
              <LatitudeDegrees>43.201482295989990234375</LatitudeDegrees>
              <LongitudeDegrees>-8.26495592482388019561767578125</LongitudeDegrees>
            </Position>
            <AltitudeMeters>147.399993896484375</AltitudeMeters>
            <DistanceMeters>44550.892569535</DistanceMeters>
          </Trackpoint>
          <Trackpoint>
            <Time>2018-04-21T10:49:39.000Z</Time>
            <Position>
              <LatitudeDegrees>43.20164331234991550445556640625</LatitudeDegrees>
              <LongitudeDegrees>-8.2647885382175445556640625</LongitudeDegrees>
            </Position>
            <AltitudeMeters>146.399993896484375</AltitudeMeters>
            <DistanceMeters>44573.378388182</DistanceMeters>
          </Trackpoint>
          <Trackpoint>
            <Time>2018-04-21T10:49:44.000Z</Time>
            <Position>
              <LatitudeDegrees>43.2018430531024932861328125</LatitudeDegrees>
              <LongitudeDegrees>-8.2645684294402599334716796875</LongitudeDegrees>
            </Position>
            <AltitudeMeters>146.600006103515625</AltitudeMeters>
            <DistanceMeters>44601.894320287</DistanceMeters>
          </Trackpoint>
          <Trackpoint>
            <Time>2018-04-21T10:49:48.000Z</Time>
            <Position>
              <LatitudeDegrees>43.20201278664171695709228515625</LatitudeDegrees>
              <LongitudeDegrees>-8.2643867097795009613037109375</LongitudeDegrees>
            </Position>
            <AltitudeMeters>146.399993896484375</AltitudeMeters>
            <DistanceMeters>44625.858015356</DistanceMeters>
          </Trackpoint>
          <Trackpoint>
            <Time>2018-04-21T10:49:50.000Z</Time>
            <Position>
              <LatitudeDegrees>43.2020960189402103424072265625</LatitudeDegrees>
              <LongitudeDegrees>-8.26430196873843669891357421875</LongitudeDegrees>
            </Position>
            <AltitudeMeters>146.399993896484375</AltitudeMeters>
            <DistanceMeters>44637.394274136</DistanceMeters>
          </Trackpoint>
          <Trackpoint>
            <Time>2018-04-21T10:49:57.000Z</Time>
            <Position>
              <LatitudeDegrees>43.2023893855512142181396484375</LatitudeDegrees>
              <LongitudeDegrees>-8.264008350670337677001953125</LongitudeDegrees>
            </Position>
            <AltitudeMeters>146.8000030517578125</AltitudeMeters>
            <DistanceMeters>44677.812812205</DistanceMeters>
          </Trackpoint>
          <Trackpoint>
            <Time>2018-04-21T10:50:02.000Z</Time>
            <Position>
              <LatitudeDegrees>43.20258812047541141510009765625</LatitudeDegrees>
              <LongitudeDegrees>-8.2638148963451385498046875</LongitudeDegrees>
            </Position>
            <AltitudeMeters>147.399993896484375</AltitudeMeters>
            <DistanceMeters>44704.935241069</DistanceMeters>
          </Trackpoint>
          <Trackpoint>
            <Time>2018-04-21T10:50:04.000Z</Time>
            <Position>
              <LatitudeDegrees>43.2026643119752407073974609375</LatitudeDegrees>
              <LongitudeDegrees>-8.2637322507798671722412109375</LongitudeDegrees>
            </Position>
            <AltitudeMeters>147.399993896484375</AltitudeMeters>
            <DistanceMeters>44715.746592024</DistanceMeters>
          </Trackpoint>
          <Trackpoint>
            <Time>2018-04-21T10:50:11.000Z</Time>
            <Position>
              <LatitudeDegrees>43.202946446835994720458984375</LatitudeDegrees>
              <LongitudeDegrees>-8.2634170912206172943115234375</LongitudeDegrees>
            </Position>
            <AltitudeMeters>147.1999969482421875</AltitudeMeters>
            <DistanceMeters>44756.242246143</DistanceMeters>
          </Trackpoint>
          <Trackpoint>
            <Time>2018-04-21T10:50:18.000Z</Time>
            <Position>
              <LatitudeDegrees>43.2032299228012561798095703125</LatitudeDegrees>
              <LongitudeDegrees>-8.26312263496220111846923828125</LongitudeDegrees>
            </Position>
            <AltitudeMeters>147.399993896484375</AltitudeMeters>
            <DistanceMeters>44795.817649853</DistanceMeters>
          </Trackpoint>
          <Trackpoint>
            <Time>2018-04-21T10:50:24.000Z</Time>
            <Position>
              <LatitudeDegrees>43.20345849730074405670166015625</LatitudeDegrees>
              <LongitudeDegrees>-8.262887857854366302490234375</LongitudeDegrees>
            </Position>
            <AltitudeMeters>147.399993896484375</AltitudeMeters>
            <DistanceMeters>44827.598936336</DistanceMeters>
          </Trackpoint>
          <Trackpoint>
            <Time>2018-04-21T10:50:26.000Z</Time>
            <Position>
              <LatitudeDegrees>43.203529827296733856201171875</LatitudeDegrees>
              <LongitudeDegrees>-8.26280864886939525604248046875</LongitudeDegrees>
            </Position>
            <AltitudeMeters>147.600006103515625</AltitudeMeters>
            <DistanceMeters>44837.81287158</DistanceMeters>
          </Trackpoint>
          <Trackpoint>
            <Time>2018-04-21T10:50:31.000Z</Time>
            <Position>
              <LatitudeDegrees>43.203708864748477935791015625</LatitudeDegrees>
              <LongitudeDegrees>-8.2626047171652317047119140625</LongitudeDegrees>
            </Position>
            <AltitudeMeters>148</AltitudeMeters>
            <DistanceMeters>44863.713360937</DistanceMeters>
          </Trackpoint>
          <Trackpoint>
            <Time>2018-04-21T10:50:34.000Z</Time>
            <Position>
              <LatitudeDegrees>43.203791677951812744140625</LatitudeDegrees>
              <LongitudeDegrees>-8.262540511786937713623046875</LongitudeDegrees>
            </Position>
            <AltitudeMeters>148.600006103515625</AltitudeMeters>
            <DistanceMeters>44874.300633433</DistanceMeters>
          </Trackpoint>
          <Trackpoint>
            <Time>2018-04-21T10:50:36.000Z</Time>
            <Position>
              <LatitudeDegrees>43.20382989943027496337890625</LatitudeDegrees>
              <LongitudeDegrees>-8.26250857673585414886474609375</LongitudeDegrees>
            </Position>
            <AltitudeMeters>148.8000030517578125</AltitudeMeters>
            <DistanceMeters>44879.282063957</DistanceMeters>
          </Trackpoint>
          <Trackpoint>
            <Time>2018-04-21T10:50:38.000Z</Time>
            <Position>
              <LatitudeDegrees>43.20387122221291065216064453125</LatitudeDegrees>
              <LongitudeDegrees>-8.2624927349388599395751953125</LongitudeDegrees>
            </Position>
            <AltitudeMeters>149</AltitudeMeters>
            <DistanceMeters>44884.058042715</DistanceMeters>
          </Trackpoint>
          <Trackpoint>
            <Time>2018-04-21T10:50:39.000Z</Time>
            <Position>
              <LatitudeDegrees>43.20388647727668285369873046875</LatitudeDegrees>
              <LongitudeDegrees>-8.262493573129177093505859375</LongitudeDegrees>
            </Position>
            <AltitudeMeters>146.8000030517578125</AltitudeMeters>
            <DistanceMeters>44885.757932259</DistanceMeters>
          </Trackpoint>
          <Trackpoint>
            <Time>2018-04-21T10:50:40.000Z</Time>
            <Position>
              <LatitudeDegrees>43.20390122942626476287841796875</LatitudeDegrees>
              <LongitudeDegrees>-8.26249885372817516326904296875</LongitudeDegrees>
            </Position>
            <AltitudeMeters>148.1999969482421875</AltitudeMeters>
            <DistanceMeters>44887.457821803</DistanceMeters>
          </Trackpoint>
          <Trackpoint>
            <Time>2018-04-21T10:50:41.000Z</Time>
            <Position>
              <LatitudeDegrees>43.2039158977568149566650390625</LatitudeDegrees>
              <LongitudeDegrees>-8.26251293532550334930419921875</LongitudeDegrees>
            </Position>
            <AltitudeMeters>149.399993896484375</AltitudeMeters>
            <DistanceMeters>44889.45111898</DistanceMeters>
          </Trackpoint>
          <Trackpoint>
            <Time>2018-04-21T10:50:45.000Z</Time>
            <Position>
              <LatitudeDegrees>43.203957639634609222412109375</LatitudeDegrees>
              <LongitudeDegrees>-8.26260463334619998931884765625</LongitudeDegrees>
            </Position>
            <AltitudeMeters>150</AltitudeMeters>
            <DistanceMeters>44898.222450196</DistanceMeters>
          </Trackpoint>
          <Trackpoint>
            <Time>2018-04-21T10:50:46.000Z</Time>
            <Position>
              <LatitudeDegrees>43.20396744646131992340087890625</LatitudeDegrees>
              <LongitudeDegrees>-8.2626352272927761077880859375</LongitudeDegrees>
            </Position>
            <AltitudeMeters>150</AltitudeMeters>
            <DistanceMeters>44900.933627473</DistanceMeters>
          </Trackpoint>
          <Trackpoint>
            <Time>2018-04-21T10:50:51.000Z</Time>
            <Position>
              <LatitudeDegrees>43.20407138206064701080322265625</LatitudeDegrees>
              <LongitudeDegrees>-8.26281066052615642547607421875</LongitudeDegrees>
            </Position>
            <AltitudeMeters>150</AltitudeMeters>
            <DistanceMeters>44919.275014221</DistanceMeters>
          </Trackpoint>
          <Trackpoint>
            <Time>2018-04-21T10:50:54.000Z</Time>
            <Position>
              <LatitudeDegrees>43.20416743867099285125732421875</LatitudeDegrees>
              <LongitudeDegrees>-8.26294091530144214630126953125</LongitudeDegrees>
            </Position>
            <AltitudeMeters>150</AltitudeMeters>
            <DistanceMeters>44934.30726731</DistanceMeters>
          </Trackpoint>
          <Trackpoint>
            <Time>2018-04-21T10:50:57.000Z</Time>
            <Position>
              <LatitudeDegrees>43.204279504716396331787109375</LatitudeDegrees>
              <LongitudeDegrees>-8.263018615543842315673828125</LongitudeDegrees>
            </Position>
            <AltitudeMeters>149.600006103515625</AltitudeMeters>
            <DistanceMeters>44948.282334155</DistanceMeters>
          </Trackpoint>
          <Trackpoint>
            <Time>2018-04-21T10:50:58.000Z</Time>
            <Position>
              <LatitudeDegrees>43.204321078956127166748046875</LatitudeDegrees>
              <LongitudeDegrees>-8.26303546316921710968017578125</LongitudeDegrees>
            </Position>
            <AltitudeMeters>149.600006103515625</AltitudeMeters>
            <DistanceMeters>44953.107221416</DistanceMeters>
          </Trackpoint>
          <Trackpoint>
            <Time>2018-04-21T10:51:03.000Z</Time>
            <Position>
              <LatitudeDegrees>43.204558454453945159912109375</LatitudeDegrees>
              <LongitudeDegrees>-8.2631153427064418792724609375</LongitudeDegrees>
            </Position>
            <AltitudeMeters>149.600006103515625</AltitudeMeters>
            <DistanceMeters>44980.310765757</DistanceMeters>
          </Trackpoint>
          <Trackpoint>
            <Time>2018-04-21T10:51:07.000Z</Time>
            <Position>
              <LatitudeDegrees>43.204716704785823822021484375</LatitudeDegrees>
              <LongitudeDegrees>-8.26313302852213382720947265625</LongitudeDegrees>
            </Position>
            <AltitudeMeters>148.399993896484375</AltitudeMeters>
            <DistanceMeters>44997.982668986</DistanceMeters>
          </Trackpoint>
          <Trackpoint>
            <Time>2018-04-21T10:51:08.000Z</Time>
            <Position>
              <LatitudeDegrees>43.2047641463577747344970703125</LatitudeDegrees>
              <LongitudeDegrees>-8.2631398178637027740478515625</LongitudeDegrees>
            </Position>
            <AltitudeMeters>148.1999969482421875</AltitudeMeters>
            <DistanceMeters>45003.292273365</DistanceMeters>
          </Trackpoint>
          <Trackpoint>
            <Time>2018-04-21T10:51:11.000Z</Time>
            <Position>
              <LatitudeDegrees>43.2048677466809749603271484375</LatitudeDegrees>
              <LongitudeDegrees>-8.263157419860363006591796875</LongitudeDegrees>
            </Position>
            <AltitudeMeters>147.399993896484375</AltitudeMeters>
            <DistanceMeters>45014.911208033</DistanceMeters>
          </Trackpoint>
          <Trackpoint>
            <Time>2018-04-21T10:51:13.000Z</Time>
            <Position>
              <LatitudeDegrees>43.2048992626368999481201171875</LatitudeDegrees>
              <LongitudeDegrees>-8.26317527331411838531494140625</LongitudeDegrees>
            </Position>
            <AltitudeMeters>147</AltitudeMeters>
            <DistanceMeters>45018.705142911</DistanceMeters>
          </Trackpoint>
          <Trackpoint>
            <Time>2018-04-21T10:51:17.000Z</Time>
            <Position>
              <LatitudeDegrees>43.2048980891704559326171875</LatitudeDegrees>
              <LongitudeDegrees>-8.26317795552313327789306640625</LongitudeDegrees>
            </Position>
            <AltitudeMeters>147</AltitudeMeters>
            <DistanceMeters>45018.973919047</DistanceMeters>
          </Trackpoint>
          <Trackpoint>
            <Time>2018-04-21T10:51:18.000Z</Time>
            <Position>
              <LatitudeDegrees>43.2048878632485866546630859375</LatitudeDegrees>
              <LongitudeDegrees>-8.26317745260894298553466796875</LongitudeDegrees>
            </Position>
            <AltitudeMeters>147.1999969482421875</AltitudeMeters>
            <DistanceMeters>45020.110273275</DistanceMeters>
          </Trackpoint>
          <Trackpoint>
            <Time>2018-04-21T10:51:22.000Z</Time>
            <Position>
              <LatitudeDegrees>43.204810917377471923828125</LatitudeDegrees>
              <LongitudeDegrees>-8.26315985061228275299072265625</LongitudeDegrees>
            </Position>
            <AltitudeMeters>147.600006103515625</AltitudeMeters>
            <DistanceMeters>45028.792616171</DistanceMeters>
          </Trackpoint>
          <Trackpoint>
            <Time>2018-04-21T10:51:23.000Z</Time>
            <Position>
              <LatitudeDegrees>43.20479541085660457611083984375</LatitudeDegrees>
              <LongitudeDegrees>-8.2631515525281429290771484375</LongitudeDegrees>
            </Position>
            <AltitudeMeters>147.8000030517578125</AltitudeMeters>
            <DistanceMeters>45030.645027855</DistanceMeters>
          </Trackpoint>
          <Trackpoint>
            <Time>2018-04-21T10:51:27.000Z</Time>
            <Position>
              <LatitudeDegrees>43.20479842834174633026123046875</LatitudeDegrees>
              <LongitudeDegrees>-8.2631525583565235137939453125</LongitudeDegrees>
            </Position>
            <AltitudeMeters>147.399993896484375</AltitudeMeters>
            <DistanceMeters>45031.000585263</DistanceMeters>
          </Trackpoint>
          <Trackpoint>
            <Time>2018-04-21T10:51:32.000Z</Time>
            <Position>
              <LatitudeDegrees>43.20493505336344242095947265625</LatitudeDegrees>
              <LongitudeDegrees>-8.2631512172520160675048828125</LongitudeDegrees>
            </Position>
            <AltitudeMeters>147</AltitudeMeters>
            <DistanceMeters>45046.207531953</DistanceMeters>
          </Trackpoint>
          <Trackpoint>
            <Time>2018-04-21T10:51:33.000Z</Time>
            <Position>
              <LatitudeDegrees>43.204971514642238616943359375</LatitudeDegrees>
              <LongitudeDegrees>-8.2631381414830684661865234375</LongitudeDegrees>
            </Position>
            <AltitudeMeters>146.600006103515625</AltitudeMeters>
            <DistanceMeters>45050.40379804</DistanceMeters>
          </Trackpoint>
          <Trackpoint>
            <Time>2018-04-21T10:51:34.000Z</Time>
            <Position>
              <LatitudeDegrees>43.2050112448632717132568359375</LatitudeDegrees>
              <LongitudeDegrees>-8.26312364079058170318603515625</LongitudeDegrees>
            </Position>
            <AltitudeMeters>146.399993896484375</AltitudeMeters>
            <DistanceMeters>45054.978917404</DistanceMeters>
          </Trackpoint>
          <Trackpoint>
            <Time>2018-04-21T10:51:35.000Z</Time>
            <Position>
              <LatitudeDegrees>43.205061368644237518310546875</LatitudeDegrees>
              <LongitudeDegrees>-8.2631175220012664794921875</LongitudeDegrees>
            </Position>
            <AltitudeMeters>146</AltitudeMeters>
            <DistanceMeters>45060.579853537</DistanceMeters>
          </Trackpoint>
          <Trackpoint>
            <Time>2018-04-21T10:51:37.000Z</Time>
            <Position>
              <LatitudeDegrees>43.20518818683922290802001953125</LatitudeDegrees>
              <LongitudeDegrees>-8.2631277479231357574462890625</LongitudeDegrees>
            </Position>
            <AltitudeMeters>145.399993896484375</AltitudeMeters>
            <DistanceMeters>45074.719368821</DistanceMeters>
          </Trackpoint>
          <Trackpoint>
            <Time>2018-04-21T10:51:38.000Z</Time>
            <Position>
              <LatitudeDegrees>43.20524652488529682159423828125</LatitudeDegrees>
              <LongitudeDegrees>-8.263126909732818603515625</LongitudeDegrees>
            </Position>
            <AltitudeMeters>145</AltitudeMeters>
            <DistanceMeters>45081.213247246</DistanceMeters>
          </Trackpoint>
          <Trackpoint>
            <Time>2018-04-21T10:51:40.000Z</Time>
            <Position>
              <LatitudeDegrees>43.2053701579570770263671875</LatitudeDegrees>
              <LongitudeDegrees>-8.2631284184753894805908203125</LongitudeDegrees>
            </Position>
            <AltitudeMeters>144</AltitudeMeters>
            <DistanceMeters>45094.974414823</DistanceMeters>
          </Trackpoint>
          <Trackpoint>
            <Time>2018-04-21T10:51:42.000Z</Time>
            <Position>
              <LatitudeDegrees>43.20547216571867465972900390625</LatitudeDegrees>
              <LongitudeDegrees>-8.26314367353916168212890625</LongitudeDegrees>
            </Position>
            <AltitudeMeters>142.8000030517578125</AltitudeMeters>
            <DistanceMeters>45106.395028824</DistanceMeters>
          </Trackpoint>
          <Trackpoint>
            <Time>2018-04-21T10:51:43.000Z</Time>
            <Position>
              <LatitudeDegrees>43.2055272348225116729736328125</LatitudeDegrees>
              <LongitudeDegrees>-8.26316873542964458465576171875</LongitudeDegrees>
            </Position>
            <AltitudeMeters>142.8000030517578125</AltitudeMeters>
            <DistanceMeters>45112.853350827</DistanceMeters>
          </Trackpoint>
          <Trackpoint>
            <Time>2018-04-21T10:51:46.000Z</Time>
            <Position>
              <LatitudeDegrees>43.2056848146021366119384765625</LatitudeDegrees>
              <LongitudeDegrees>-8.26323059387505054473876953125</LongitudeDegrees>
            </Position>
            <AltitudeMeters>141.399993896484375</AltitudeMeters>
            <DistanceMeters>45131.096005164</DistanceMeters>
          </Trackpoint>
          <Trackpoint>
            <Time>2018-04-21T10:51:49.000Z</Time>
            <Position>
              <LatitudeDegrees>43.2058490999042987823486328125</LatitudeDegrees>
              <LongitudeDegrees>-8.26324291527271270751953125</LongitudeDegrees>
            </Position>
            <AltitudeMeters>141</AltitudeMeters>
            <DistanceMeters>45149.408567762</DistanceMeters>
          </Trackpoint>
          <Trackpoint>
            <Time>2018-04-21T10:51:53.000Z</Time>
            <Position>
              <LatitudeDegrees>43.20609577931463718414306640625</LatitudeDegrees>
              <LongitudeDegrees>-8.263228833675384521484375</LongitudeDegrees>
            </Position>
            <AltitudeMeters>140.399993896484375</AltitudeMeters>
            <DistanceMeters>45176.888216824</DistanceMeters>
          </Trackpoint>
          <Trackpoint>
            <Time>2018-04-21T10:51:54.000Z</Time>
            <Position>
              <LatitudeDegrees>43.20616216398775577545166015625</LatitudeDegrees>
              <LongitudeDegrees>-8.26322413980960845947265625</LongitudeDegrees>
            </Position>
            <AltitudeMeters>140.1999969482421875</AltitudeMeters>
            <DistanceMeters>45184.286887205</DistanceMeters>
          </Trackpoint>
          <Trackpoint>
            <Time>2018-04-21T10:51:58.000Z</Time>
            <Position>
              <LatitudeDegrees>43.20644614286720752716064453125</LatitudeDegrees>
              <LongitudeDegrees>-8.26318122446537017822265625</LongitudeDegrees>
            </Position>
            <AltitudeMeters>139</AltitudeMeters>
            <DistanceMeters>45216.085642997</DistanceMeters>
          </Trackpoint>
          <Trackpoint>
            <Time>2018-04-21T10:52:00.000Z</Time>
            <Position>
              <LatitudeDegrees>43.20660238154232501983642578125</LatitudeDegrees>
              <LongitudeDegrees>-8.26315867714583873748779296875</LongitudeDegrees>
            </Position>
            <AltitudeMeters>138.1999969482421875</AltitudeMeters>
            <DistanceMeters>45233.571074883</DistanceMeters>
          </Trackpoint>
          <Trackpoint>
            <Time>2018-04-21T10:52:01.000Z</Time>
            <Position>
              <LatitudeDegrees>43.20668184198439121246337890625</LatitudeDegrees>
              <LongitudeDegrees>-8.26314878650009632110595703125</LongitudeDegrees>
            </Position>
            <AltitudeMeters>137.399993896484375</AltitudeMeters>
            <DistanceMeters>45242.451370914</DistanceMeters>
          </Trackpoint>
          <Trackpoint>
            <Time>2018-04-21T10:52:03.000Z</Time>
            <Position>
              <LatitudeDegrees>43.20683405734598636627197265625</LatitudeDegrees>
              <LongitudeDegrees>-8.26314258389174938201904296875</LongitudeDegrees>
            </Position>
            <AltitudeMeters>135.600006103515625</AltitudeMeters>
            <DistanceMeters>45259.400524931</DistanceMeters>
          </Trackpoint>
          <Trackpoint>
            <Time>2018-04-21T10:52:05.000Z</Time>
            <Position>
              <LatitudeDegrees>43.20698711089789867401123046875</LatitudeDegrees>
              <LongitudeDegrees>-8.2631629519164562225341796875</LongitudeDegrees>
            </Position>
            <AltitudeMeters>133.8000030517578125</AltitudeMeters>
            <DistanceMeters>45276.515624983</DistanceMeters>
          </Trackpoint>
          <Trackpoint>
            <Time>2018-04-21T10:52:06.000Z</Time>
            <Position>
              <LatitudeDegrees>43.20705399848520755767822265625</LatitudeDegrees>
              <LongitudeDegrees>-8.26319404877722263336181640625</LongitudeDegrees>
            </Position>
            <AltitudeMeters>132.600006103515625</AltitudeMeters>
            <DistanceMeters>45284.375891074</DistanceMeters>
          </Trackpoint>
          <Trackpoint>
            <Time>2018-04-21T10:52:08.000Z</Time>
            <Position>
              <LatitudeDegrees>43.20716447196900844573974609375</LatitudeDegrees>
              <LongitudeDegrees>-8.26328876428306102752685546875</LongitudeDegrees>
            </Position>
            <AltitudeMeters>131.8000030517578125</AltitudeMeters>
            <DistanceMeters>45298.874862748</DistanceMeters>
          </Trackpoint>
          <Trackpoint>
            <Time>2018-04-21T10:52:09.000Z</Time>
            <Position>
              <LatitudeDegrees>43.2072133384644985198974609375</LatitudeDegrees>
              <LongitudeDegrees>-8.2633396424353122711181640625</LongitudeDegrees>
            </Position>
            <AltitudeMeters>131.8000030517578125</AltitudeMeters>
            <DistanceMeters>45305.702252777</DistanceMeters>
          </Trackpoint>
          <Trackpoint>
            <Time>2018-04-21T10:52:11.000Z</Time>
            <Position>
              <LatitudeDegrees>43.20730579085648059844970703125</LatitudeDegrees>
              <LongitudeDegrees>-8.26343377120792865753173828125</LongitudeDegrees>
            </Position>
            <AltitudeMeters>131.399993896484375</AltitudeMeters>
            <DistanceMeters>45318.51642111</DistanceMeters>
          </Trackpoint>
          <Trackpoint>
            <Time>2018-04-21T10:52:12.000Z</Time>
            <Position>
              <LatitudeDegrees>43.20734669454395771026611328125</LatitudeDegrees>
              <LongitudeDegrees>-8.26348138041794300079345703125</LongitudeDegrees>
            </Position>
            <AltitudeMeters>131</AltitudeMeters>
            <DistanceMeters>45324.487245324</DistanceMeters>
          </Trackpoint>
          <Trackpoint>
            <Time>2018-04-21T10:52:14.000Z</Time>
            <Position>
              <LatitudeDegrees>43.2074225507676601409912109375</LatitudeDegrees>
              <LongitudeDegrees>-8.26351993717253208160400390625</LongitudeDegrees>
            </Position>
            <AltitudeMeters>130.399993896484375</AltitudeMeters>
            <DistanceMeters>45333.490744435</DistanceMeters>
          </Trackpoint>
          <Trackpoint>
            <Time>2018-04-21T10:52:15.000Z</Time>
            <Position>
              <LatitudeDegrees>43.20746161043643951416015625</LatitudeDegrees>
              <LongitudeDegrees>-8.2635032571852207183837890625</LongitudeDegrees>
            </Position>
            <AltitudeMeters>129.1999969482421875</AltitudeMeters>
            <DistanceMeters>45338.044100946</DistanceMeters>
          </Trackpoint>
          <Trackpoint>
            <Time>2018-04-21T10:52:17.000Z</Time>
            <Position>
              <LatitudeDegrees>43.207541406154632568359375</LatitudeDegrees>
              <LongitudeDegrees>-8.26343201100826263427734375</LongitudeDegrees>
            </Position>
            <AltitudeMeters>127.8000030517578125</AltitudeMeters>
            <DistanceMeters>45348.640751387</DistanceMeters>
          </Trackpoint>
          <Trackpoint>
            <Time>2018-04-21T10:52:19.000Z</Time>
            <Position>
              <LatitudeDegrees>43.20763587020337581634521484375</LatitudeDegrees>
              <LongitudeDegrees>-8.263341486454010009765625</LongitudeDegrees>
            </Position>
            <AltitudeMeters>125.8000030517578125</AltitudeMeters>
            <DistanceMeters>45361.465485784</DistanceMeters>
          </Trackpoint>
          <Trackpoint>
            <Time>2018-04-21T10:52:21.000Z</Time>
            <Position>
              <LatitudeDegrees>43.20772639475762844085693359375</LatitudeDegrees>
              <LongitudeDegrees>-8.2632581703364849090576171875</LongitudeDegrees>
            </Position>
            <AltitudeMeters>123.59999847412109375</AltitudeMeters>
            <DistanceMeters>45373.598428799</DistanceMeters>
          </Trackpoint>
          <Trackpoint>
            <Time>2018-04-21T10:52:22.000Z</Time>
            <Position>
              <LatitudeDegrees>43.2077739201486110687255859375</LatitudeDegrees>
              <LongitudeDegrees>-8.26322439126670360565185546875</LongitudeDegrees>
            </Position>
            <AltitudeMeters>122.59999847412109375</AltitudeMeters>
            <DistanceMeters>45379.555626162</DistanceMeters>
          </Trackpoint>
          <Trackpoint>
            <Time>2018-04-21T10:52:23.000Z</Time>
            <Position>
              <LatitudeDegrees>43.20782396011054515838623046875</LatitudeDegrees>
              <LongitudeDegrees>-8.263198994100093841552734375</LongitudeDegrees>
            </Position>
            <AltitudeMeters>121.59999847412109375</AltitudeMeters>
            <DistanceMeters>45385.494605754</DistanceMeters>
          </Trackpoint>
          <Trackpoint>
            <Time>2018-04-21T10:52:26.000Z</Time>
            <Position>
              <LatitudeDegrees>43.20800400339066982269287109375</LatitudeDegrees>
              <LongitudeDegrees>-8.26316169463098049163818359375</LongitudeDegrees>
            </Position>
            <AltitudeMeters>121</AltitudeMeters>
            <DistanceMeters>45405.760932431</DistanceMeters>
          </Trackpoint>
          <Trackpoint>
            <Time>2018-04-21T10:52:27.000Z</Time>
            <Position>
              <LatitudeDegrees>43.2080726511776447296142578125</LatitudeDegrees>
              <LongitudeDegrees>-8.26315398328006267547607421875</LongitudeDegrees>
            </Position>
            <AltitudeMeters>119.40000152587890625</AltitudeMeters>
            <DistanceMeters>45413.428122115</DistanceMeters>
          </Trackpoint>
          <Trackpoint>
            <Time>2018-04-21T10:52:28.000Z</Time>
            <Position>
              <LatitudeDegrees>43.2081489264965057373046875</LatitudeDegrees>
              <LongitudeDegrees>-8.26315314508974552154541015625</LongitudeDegrees>
            </Position>
            <AltitudeMeters>118.1999969482421875</AltitudeMeters>
            <DistanceMeters>45421.919066133</DistanceMeters>
          </Trackpoint>
          <Trackpoint>
            <Time>2018-04-21T10:52:30.000Z</Time>
            <Position>
              <LatitudeDegrees>43.2082775048911571502685546875</LatitudeDegrees>
              <LongitudeDegrees>-8.26316177845001220703125</LongitudeDegrees>
            </Position>
            <AltitudeMeters>116.1999969482421875</AltitudeMeters>
            <DistanceMeters>45436.247317525</DistanceMeters>
          </Trackpoint>
          <Trackpoint>
            <Time>2018-04-21T10:52:32.000Z</Time>
            <Position>
              <LatitudeDegrees>43.20839694701135158538818359375</LatitudeDegrees>
              <LongitudeDegrees>-8.2631458528339862823486328125</LongitudeDegrees>
            </Position>
            <AltitudeMeters>115</AltitudeMeters>
            <DistanceMeters>45449.603896063</DistanceMeters>
          </Trackpoint>
          <Trackpoint>
            <Time>2018-04-21T10:52:35.000Z</Time>
            <Position>
              <LatitudeDegrees>43.20856961421668529510498046875</LatitudeDegrees>
              <LongitudeDegrees>-8.26307787559926509857177734375</LongitudeDegrees>
            </Position>
            <AltitudeMeters>112.59999847412109375</AltitudeMeters>
            <DistanceMeters>45469.597480634</DistanceMeters>
          </Trackpoint>
          <Trackpoint>
            <Time>2018-04-21T10:52:36.000Z</Time>
            <Position>
              <LatitudeDegrees>43.20863105356693267822265625</LatitudeDegrees>
              <LongitudeDegrees>-8.26306429691612720489501953125</LongitudeDegrees>
            </Position>
            <AltitudeMeters>112.59999847412109375</AltitudeMeters>
            <DistanceMeters>45476.52335719</DistanceMeters>
          </Trackpoint>
          <Trackpoint>
            <Time>2018-04-21T10:52:37.000Z</Time>
            <Position>
              <LatitudeDegrees>43.20869450457394123077392578125</LatitudeDegrees>
              <LongitudeDegrees>-8.2630640454590320587158203125</LongitudeDegrees>
            </Position>
            <AltitudeMeters>111.40000152587890625</AltitudeMeters>
            <DistanceMeters>45483.586086286</DistanceMeters>
          </Trackpoint>
          <Trackpoint>
            <Time>2018-04-21T10:52:40.000Z</Time>
            <Position>
              <LatitudeDegrees>43.20885996334254741668701171875</LatitudeDegrees>
              <LongitudeDegrees>-8.26307418756186962127685546875</LongitudeDegrees>
            </Position>
            <AltitudeMeters>110.1999969482421875</AltitudeMeters>
            <DistanceMeters>45502.020289191</DistanceMeters>
          </Trackpoint>
          <Trackpoint>
            <Time>2018-04-21T10:52:41.000Z</Time>
            <Position>
              <LatitudeDegrees>43.2089108414947986602783203125</LatitudeDegrees>
              <LongitudeDegrees>-8.26307821087539196014404296875</LongitudeDegrees>
            </Position>
            <AltitudeMeters>108.59999847412109375</AltitudeMeters>
            <DistanceMeters>45507.692516476</DistanceMeters>
          </Trackpoint>
          <Trackpoint>
            <Time>2018-04-21T10:52:42.000Z</Time>
            <Position>
              <LatitudeDegrees>43.20895970799028873443603515625</LatitudeDegrees>
              <LongitudeDegrees>-8.2630853354930877685546875</LongitudeDegrees>
            </Position>
            <AltitudeMeters>107.8000030517578125</AltitudeMeters>
            <DistanceMeters>45513.161301824</DistanceMeters>
          </Trackpoint>
          <Trackpoint>
            <Time>2018-04-21T10:52:43.000Z</Time>
            <Position>
              <LatitudeDegrees>43.20900245569646358489990234375</LatitudeDegrees>
              <LongitudeDegrees>-8.26309983618557453155517578125</LongitudeDegrees>
            </Position>
            <AltitudeMeters>107.1999969482421875</AltitudeMeters>
            <DistanceMeters>45518.062322466</DistanceMeters>
          </Trackpoint>
          <Trackpoint>
            <Time>2018-04-21T10:52:45.000Z</Time>
            <Position>
              <LatitudeDegrees>43.20904838852584362030029296875</LatitudeDegrees>
              <LongitudeDegrees>-8.2631411589682102203369140625</LongitudeDegrees>
            </Position>
            <AltitudeMeters>106.1999969482421875</AltitudeMeters>
            <DistanceMeters>45524.175871877</DistanceMeters>
          </Trackpoint>
          <Trackpoint>
            <Time>2018-04-21T10:52:49.000Z</Time>
            <Position>
              <LatitudeDegrees>43.2091334648430347442626953125</LatitudeDegrees>
              <LongitudeDegrees>-8.26313160359859466552734375</LongitudeDegrees>
            </Position>
            <AltitudeMeters>105.8000030517578125</AltitudeMeters>
            <DistanceMeters>45533.67664259</DistanceMeters>
          </Trackpoint>
          <Trackpoint>
            <Time>2018-04-21T10:52:52.000Z</Time>
            <Position>
              <LatitudeDegrees>43.209220133721828460693359375</LatitudeDegrees>
              <LongitudeDegrees>-8.263017274439334869384765625</LongitudeDegrees>
            </Position>
            <AltitudeMeters>105</AltitudeMeters>
            <DistanceMeters>45547.058212598</DistanceMeters>
          </Trackpoint>
          <Trackpoint>
            <Time>2018-04-21T10:52:53.000Z</Time>
            <Position>
              <LatitudeDegrees>43.20925533771514892578125</LatitudeDegrees>
              <LongitudeDegrees>-8.2629740238189697265625</LongitudeDegrees>
            </Position>
            <AltitudeMeters>104.40000152587890625</AltitudeMeters>
            <DistanceMeters>45552.316548273</DistanceMeters>
          </Trackpoint>
          <Trackpoint>
            <Time>2018-04-21T10:52:54.000Z</Time>
            <Position>
              <LatitudeDegrees>43.20929221808910369873046875</LatitudeDegrees>
              <LongitudeDegrees>-8.262926079332828521728515625</LongitudeDegrees>
            </Position>
            <AltitudeMeters>103.8000030517578125</AltitudeMeters>
            <DistanceMeters>45557.970438139</DistanceMeters>
          </Trackpoint>
          <Trackpoint>
            <Time>2018-04-21T10:52:57.000Z</Time>
            <Position>
              <LatitudeDegrees>43.2094295136630535125732421875</LatitudeDegrees>
              <LongitudeDegrees>-8.26278752647340297698974609375</LongitudeDegrees>
            </Position>
            <AltitudeMeters>103.59999847412109375</AltitudeMeters>
            <DistanceMeters>45576.940350536</DistanceMeters>
          </Trackpoint>
          <Trackpoint>
            <Time>2018-04-21T10:52:58.000Z</Time>
            <Position>
              <LatitudeDegrees>43.20948525331914424896240234375</LatitudeDegrees>
              <LongitudeDegrees>-8.26274980790913105010986328125</LongitudeDegrees>
            </Position>
            <AltitudeMeters>103.1999969482421875</AltitudeMeters>
            <DistanceMeters>45583.858399767</DistanceMeters>
          </Trackpoint>
          <Trackpoint>
            <Time>2018-04-21T10:53:00.000Z</Time>
            <Position>
              <LatitudeDegrees>43.2095973193645477294921875</LatitudeDegrees>
              <LongitudeDegrees>-8.26269566081464290618896484375</LongitudeDegrees>
            </Position>
            <AltitudeMeters>102.59999847412109375</AltitudeMeters>
            <DistanceMeters>45597.08248614</DistanceMeters>
          </Trackpoint>
          <Trackpoint>
            <Time>2018-04-21T10:53:02.000Z</Time>
            <Position>
              <LatitudeDegrees>43.20972497574985027313232421875</LatitudeDegrees>
              <LongitudeDegrees>-8.26266448013484477996826171875</LongitudeDegrees>
            </Position>
            <AltitudeMeters>101.40000152587890625</AltitudeMeters>
            <DistanceMeters>45611.514350648</DistanceMeters>
          </Trackpoint>
          <Trackpoint>
            <Time>2018-04-21T10:53:03.000Z</Time>
            <Position>
              <LatitudeDegrees>43.20980326272547245025634765625</LatitudeDegrees>
              <LongitudeDegrees>-8.26266783289611339569091796875</LongitudeDegrees>
            </Position>
            <AltitudeMeters>100.59999847412109375</AltitudeMeters>
            <DistanceMeters>45620.231983547</DistanceMeters>
          </Trackpoint>
          <Trackpoint>
            <Time>2018-04-21T10:53:04.000Z</Time>
            <Position>
              <LatitudeDegrees>43.2098918594419956207275390625</LatitudeDegrees>
              <LongitudeDegrees>-8.2626776397228240966796875</LongitudeDegrees>
            </Position>
            <AltitudeMeters>99.40000152587890625</AltitudeMeters>
            <DistanceMeters>45630.124807638</DistanceMeters>
          </Trackpoint>
          <Trackpoint>
            <Time>2018-04-21T10:53:06.000Z</Time>
            <Position>
              <LatitudeDegrees>43.2100833021104335784912109375</LatitudeDegrees>
              <LongitudeDegrees>-8.262708485126495361328125</LongitudeDegrees>
            </Position>
            <AltitudeMeters>98.8000030517578125</AltitudeMeters>
            <DistanceMeters>45651.57896939</DistanceMeters>
          </Trackpoint>
          <Trackpoint>
            <Time>2018-04-21T10:53:07.000Z</Time>
            <Position>
              <LatitudeDegrees>43.21018581278622150421142578125</LatitudeDegrees>
              <LongitudeDegrees>-8.262725584208965301513671875</LongitudeDegrees>
            </Position>
            <AltitudeMeters>98.40000152587890625</AltitudeMeters>
            <DistanceMeters>45663.072881621</DistanceMeters>
          </Trackpoint>
          <Trackpoint>
            <Time>2018-04-21T10:53:09.000Z</Time>
            <Position>
              <LatitudeDegrees>43.21040265262126922607421875</LatitudeDegrees>
              <LongitudeDegrees>-8.26273589394986629486083984375</LongitudeDegrees>
            </Position>
            <AltitudeMeters>96.59999847412109375</AltitudeMeters>
            <DistanceMeters>45687.222009906</DistanceMeters>
          </Trackpoint>
          <Trackpoint>
            <Time>2018-04-21T10:53:11.000Z</Time>
            <Position>
              <LatitudeDegrees>43.2106029801070690155029296875</LatitudeDegrees>
              <LongitudeDegrees>-8.262677974998950958251953125</LongitudeDegrees>
            </Position>
            <AltitudeMeters>95.1999969482421875</AltitudeMeters>
            <DistanceMeters>45710.008615523</DistanceMeters>
          </Trackpoint>
          <Trackpoint>
            <Time>2018-04-21T10:53:13.000Z</Time>
            <Position>
              <LatitudeDegrees>43.21073382161557674407958984375</LatitudeDegrees>
              <LongitudeDegrees>-8.26261402107775211334228515625</LongitudeDegrees>
            </Position>
            <AltitudeMeters>94.1999969482421875</AltitudeMeters>
            <DistanceMeters>45725.467917032</DistanceMeters>
          </Trackpoint>
          <Trackpoint>
            <Time>2018-04-21T10:53:14.000Z</Time>
            <Position>
              <LatitudeDegrees>43.2107801735401153564453125</LatitudeDegrees>
              <LongitudeDegrees>-8.26260983012616634368896484375</LongitudeDegrees>
            </Position>
            <AltitudeMeters>93.8000030517578125</AltitudeMeters>
            <DistanceMeters>45730.637929244</DistanceMeters>
          </Trackpoint>
          <Trackpoint>
            <Time>2018-04-21T10:53:16.000Z</Time>
            <Position>
              <LatitudeDegrees>43.21084144525229930877685546875</LatitudeDegrees>
              <LongitudeDegrees>-8.2626969181001186370849609375</LongitudeDegrees>
            </Position>
            <AltitudeMeters>93.8000030517578125</AltitudeMeters>
            <DistanceMeters>45740.456998762</DistanceMeters>
          </Trackpoint>
          <Trackpoint>
            <Time>2018-04-21T10:53:18.000Z</Time>
            <Position>
              <LatitudeDegrees>43.21088167838752269744873046875</LatitudeDegrees>
              <LongitudeDegrees>-8.262817449867725372314453125</LongitudeDegrees>
            </Position>
            <AltitudeMeters>93.59999847412109375</AltitudeMeters>
            <DistanceMeters>45751.210983559</DistanceMeters>
          </Trackpoint>
          <Trackpoint>
            <Time>2018-04-21T10:53:19.000Z</Time>
            <Position>
              <LatitudeDegrees>43.2109127752482891082763671875</LatitudeDegrees>
              <LongitudeDegrees>-8.26287285424768924713134765625</LongitudeDegrees>
            </Position>
            <AltitudeMeters>93.40000152587890625</AltitudeMeters>
            <DistanceMeters>45756.882414798</DistanceMeters>
          </Trackpoint>
          <Trackpoint>
            <Time>2018-04-21T10:53:20.000Z</Time>
            <Position>
              <LatitudeDegrees>43.2109486497938632965087890625</LatitudeDegrees>
              <LongitudeDegrees>-8.26291392557322978973388671875</LongitudeDegrees>
            </Position>
            <AltitudeMeters>93.40000152587890625</AltitudeMeters>
            <DistanceMeters>45762.082034868</DistanceMeters>
          </Trackpoint>
          <Trackpoint>
            <Time>2018-04-21T10:53:22.000Z</Time>
            <Position>
              <LatitudeDegrees>43.21102886460721492767333984375</LatitudeDegrees>
              <LongitudeDegrees>-8.26297980733215808868408203125</LongitudeDegrees>
            </Position>
            <AltitudeMeters>93.59999847412109375</AltitudeMeters>
            <DistanceMeters>45772.487351613</DistanceMeters>
          </Trackpoint>
          <Trackpoint>
            <Time>2018-04-21T10:53:26.000Z</Time>
            <Position>
              <LatitudeDegrees>43.211182840168476104736328125</LatitudeDegrees>
              <LongitudeDegrees>-8.26310905627906322479248046875</LongitudeDegrees>
            </Position>
            <AltitudeMeters>93.8000030517578125</AltitudeMeters>
            <DistanceMeters>45792.578030719</DistanceMeters>
          </Trackpoint>
          <Trackpoint>
            <Time>2018-04-21T10:53:30.000Z</Time>
            <Position>
              <LatitudeDegrees>43.2112953253090381622314453125</LatitudeDegrees>
              <LongitudeDegrees>-8.26328180730342864990234375</LongitudeDegrees>
            </Position>
            <AltitudeMeters>92.8000030517578125</AltitudeMeters>
            <DistanceMeters>45811.369788738</DistanceMeters>
          </Trackpoint>
          <Trackpoint>
            <Time>2018-04-21T10:53:32.000Z</Time>
            <Position>
              <LatitudeDegrees>43.2113365642726421356201171875</LatitudeDegrees>
              <LongitudeDegrees>-8.26335196383297443389892578125</LongitudeDegrees>
            </Position>
            <AltitudeMeters>93.40000152587890625</AltitudeMeters>
            <DistanceMeters>45818.681290126</DistanceMeters>
          </Trackpoint>
          <Trackpoint>
            <Time>2018-04-21T10:53:33.000Z</Time>
            <Position>
              <LatitudeDegrees>43.2113509811460971832275390625</LatitudeDegrees>
              <LongitudeDegrees>-8.26337970793247222900390625</LongitudeDegrees>
            </Position>
            <AltitudeMeters>95.1999969482421875</AltitudeMeters>
            <DistanceMeters>45821.445244661</DistanceMeters>
          </Trackpoint>
          <Trackpoint>
            <Time>2018-04-21T10:53:37.000Z</Time>
            <Position>
              <LatitudeDegrees>43.21140822954475879669189453125</LatitudeDegrees>
              <LongitudeDegrees>-8.263475261628627777099609375</LongitudeDegrees>
            </Position>
            <AltitudeMeters>96.1999969482421875</AltitudeMeters>
            <DistanceMeters>45831.479453765</DistanceMeters>
          </Trackpoint>
          <Trackpoint>
            <Time>2018-04-21T10:53:38.000Z</Time>
            <Position>
              <LatitudeDegrees>43.2114220596849918365478515625</LatitudeDegrees>
              <LongitudeDegrees>-8.2634999044239521026611328125</LongitudeDegrees>
            </Position>
            <AltitudeMeters>96.40000152587890625</AltitudeMeters>
            <DistanceMeters>45834.000797418</DistanceMeters>
          </Trackpoint>
          <Trackpoint>
            <Time>2018-04-21T10:53:39.000Z</Time>
            <Position>
              <LatitudeDegrees>43.21143471635878086090087890625</LatitudeDegrees>
              <LongitudeDegrees>-8.2635267265141010284423828125</LongitudeDegrees>
            </Position>
            <AltitudeMeters>96.8000030517578125</AltitudeMeters>
            <DistanceMeters>45836.591038102</DistanceMeters>
          </Trackpoint>
          <Trackpoint>
            <Time>2018-04-21T10:53:41.000Z</Time>
            <Position>
              <LatitudeDegrees>43.21146036498248577117919921875</LatitudeDegrees>
              <LongitudeDegrees>-8.2635770179331302642822265625</LongitudeDegrees>
            </Position>
            <AltitudeMeters>97.1999969482421875</AltitudeMeters>
            <DistanceMeters>45841.570655548</DistanceMeters>
          </Trackpoint>
          <Trackpoint>
            <Time>2018-04-21T10:53:42.000Z</Time>
            <Position>
              <LatitudeDegrees>43.211475200951099395751953125</LatitudeDegrees>
              <LongitudeDegrees>-8.26359830796718597412109375</LongitudeDegrees>
            </Position>
            <AltitudeMeters>97.59999847412109375</AltitudeMeters>
            <DistanceMeters>45843.959590104</DistanceMeters>
          </Trackpoint>
          <Trackpoint>
            <Time>2018-04-21T10:53:44.000Z</Time>
            <Position>
              <LatitudeDegrees>43.2115137577056884765625</LatitudeDegrees>
              <LongitudeDegrees>-8.26364926993846893310546875</LongitudeDegrees>
            </Position>
            <AltitudeMeters>98</AltitudeMeters>
            <DistanceMeters>45849.918303101</DistanceMeters>
          </Trackpoint>
          <Trackpoint>
            <Time>2018-04-21T10:53:45.000Z</Time>
            <Position>
              <LatitudeDegrees>43.21153462864458560943603515625</LatitudeDegrees>
              <LongitudeDegrees>-8.26367852278053760528564453125</LongitudeDegrees>
            </Position>
            <AltitudeMeters>98.59999847412109375</AltitudeMeters>
            <DistanceMeters>45853.240163034</DistanceMeters>
          </Trackpoint>
          <Trackpoint>
            <Time>2018-04-21T10:53:46.000Z</Time>
            <Position>
              <LatitudeDegrees>43.2115553319454193115234375</LatitudeDegrees>
              <LongitudeDegrees>-8.2637030817568302154541015625</LongitudeDegrees>
            </Position>
            <AltitudeMeters>99</AltitudeMeters>
            <DistanceMeters>45856.286951275</DistanceMeters>
          </Trackpoint>
          <Trackpoint>
            <Time>2018-04-21T10:53:48.000Z</Time>
            <Position>
              <LatitudeDegrees>43.211597912013530731201171875</LatitudeDegrees>
              <LongitudeDegrees>-8.26374608092010021209716796875</LongitudeDegrees>
            </Position>
            <AltitudeMeters>99.1999969482421875</AltitudeMeters>
            <DistanceMeters>45862.172473617</DistanceMeters>
          </Trackpoint>
          <Trackpoint>
            <Time>2018-04-21T10:53:49.000Z</Time>
            <Position>
              <LatitudeDegrees>43.21161769330501556396484375</LatitudeDegrees>
              <LongitudeDegrees>-8.2637664489448070526123046875</LongitudeDegrees>
            </Position>
            <AltitudeMeters>99.59999847412109375</AltitudeMeters>
            <DistanceMeters>45864.926609455</DistanceMeters>
          </Trackpoint>
          <Trackpoint>
            <Time>2018-04-21T10:53:51.000Z</Time>
            <Position>
              <LatitudeDegrees>43.2116611115634441375732421875</LatitudeDegrees>
              <LongitudeDegrees>-8.26380525715649127960205078125</LongitudeDegrees>
            </Position>
            <AltitudeMeters>100</AltitudeMeters>
            <DistanceMeters>45870.694347453</DistanceMeters>
          </Trackpoint>
          <Trackpoint>
            <Time>2018-04-21T10:53:53.000Z</Time>
            <Position>
              <LatitudeDegrees>43.211704194545745849609375</LatitudeDegrees>
              <LongitudeDegrees>-8.263843059539794921875</LongitudeDegrees>
            </Position>
            <AltitudeMeters>100.8000030517578125</AltitudeMeters>
            <DistanceMeters>45876.385646444</DistanceMeters>
          </Trackpoint>
          <Trackpoint>
            <Time>2018-04-21T10:53:54.000Z</Time>
            <Position>
              <LatitudeDegrees>43.2117244787514209747314453125</LatitudeDegrees>
              <LongitudeDegrees>-8.2638613320887088775634765625</LongitudeDegrees>
            </Position>
            <AltitudeMeters>101</AltitudeMeters>
            <DistanceMeters>45879.086813186</DistanceMeters>
          </Trackpoint>
          <Trackpoint>
            <Time>2018-04-21T10:53:58.000Z</Time>
            <Position>
              <LatitudeDegrees>43.21180385537445545196533203125</LatitudeDegrees>
              <LongitudeDegrees>-8.26391304843127727508544921875</LongitudeDegrees>
            </Position>
            <AltitudeMeters>102</AltitudeMeters>
            <DistanceMeters>45888.867181265</DistanceMeters>
          </Trackpoint>
          <Trackpoint>
            <Time>2018-04-21T10:54:00.000Z</Time>
            <Position>
              <LatitudeDegrees>43.21184660308063030242919921875</LatitudeDegrees>
              <LongitudeDegrees>-8.263941965997219085693359375</LongitudeDegrees>
            </Position>
            <AltitudeMeters>102.40000152587890625</AltitudeMeters>
            <DistanceMeters>45894.171681072</DistanceMeters>
          </Trackpoint>
          <Trackpoint>
            <Time>2018-04-21T10:54:04.000Z</Time>
            <Position>
              <LatitudeDegrees>43.2119219563901424407958984375</LatitudeDegrees>
              <LongitudeDegrees>-8.26396954245865345001220703125</LongitudeDegrees>
            </Position>
            <AltitudeMeters>103</AltitudeMeters>
            <DistanceMeters>45902.851943617</DistanceMeters>
          </Trackpoint>
          <Trackpoint>
            <Time>2018-04-21T10:54:05.000Z</Time>
            <Position>
              <LatitudeDegrees>43.211931847035884857177734375</LatitudeDegrees>
              <LongitudeDegrees>-8.26397423632442951202392578125</LongitudeDegrees>
            </Position>
            <AltitudeMeters>103.59999847412109375</AltitudeMeters>
            <DistanceMeters>45904.015778428</DistanceMeters>
          </Trackpoint>
          <Trackpoint>
            <Time>2018-04-21T10:54:06.000Z</Time>
            <Position>
              <LatitudeDegrees>43.21192639879882335662841796875</LatitudeDegrees>
              <LongitudeDegrees>-8.263994939625263214111328125</LongitudeDegrees>
            </Position>
            <AltitudeMeters>103.40000152587890625</AltitudeMeters>
            <DistanceMeters>45905.798637622</DistanceMeters>
          </Trackpoint>
          <Trackpoint>
            <Time>2018-04-21T10:54:09.000Z</Time>
            <Position>
              <LatitudeDegrees>43.21188733913004398345947265625</LatitudeDegrees>
              <LongitudeDegrees>-8.2639880664646625518798828125</LongitudeDegrees>
            </Position>
            <AltitudeMeters>103.40000152587890625</AltitudeMeters>
            <DistanceMeters>45910.182243749</DistanceMeters>
          </Trackpoint>
          <Trackpoint>
            <Time>2018-04-21T10:54:13.000Z</Time>
            <Position>
              <LatitudeDegrees>43.211858756840229034423828125</LatitudeDegrees>
              <LongitudeDegrees>-8.2638677023351192474365234375</LongitudeDegrees>
            </Position>
            <AltitudeMeters>102.40000152587890625</AltitudeMeters>
            <DistanceMeters>45920.450406806</DistanceMeters>
          </Trackpoint>
          <Trackpoint>
            <Time>2018-04-21T10:54:18.000Z</Time>
            <Position>
              <LatitudeDegrees>43.2118800468742847442626953125</LatitudeDegrees>
              <LongitudeDegrees>-8.2637275569140911102294921875</LongitudeDegrees>
            </Position>
            <AltitudeMeters>103.8000030517578125</AltitudeMeters>
            <DistanceMeters>45932.063899896</DistanceMeters>
          </Trackpoint>
          <Trackpoint>
            <Time>2018-04-21T10:54:19.000Z</Time>
            <Position>
              <LatitudeDegrees>43.21188323199748992919921875</LatitudeDegrees>
              <LongitudeDegrees>-8.26370769180357456207275390625</LongitudeDegrees>
            </Position>
            <AltitudeMeters>104.1999969482421875</AltitudeMeters>
            <DistanceMeters>45933.715288126</DistanceMeters>
          </Trackpoint>
          <Trackpoint>
            <Time>2018-04-21T10:54:24.000Z</Time>
            <Position>
              <LatitudeDegrees>43.21189572103321552276611328125</LatitudeDegrees>
              <LongitudeDegrees>-8.263571821153163909912109375</LongitudeDegrees>
            </Position>
            <AltitudeMeters>105.59999847412109375</AltitudeMeters>
            <DistanceMeters>45944.824069548</DistanceMeters>
          </Trackpoint>
          <Trackpoint>
            <Time>2018-04-21T10:54:25.000Z</Time>
            <Position>
              <LatitudeDegrees>43.21189664304256439208984375</LatitudeDegrees>
              <LongitudeDegrees>-8.26354944147169589996337890625</LongitudeDegrees>
            </Position>
            <AltitudeMeters>106</AltitudeMeters>
            <DistanceMeters>45946.642037639</DistanceMeters>
          </Trackpoint>
          <Trackpoint>
            <Time>2018-04-21T10:54:26.000Z</Time>
            <Position>
              <LatitudeDegrees>43.21189722977578639984130859375</LatitudeDegrees>
              <LongitudeDegrees>-8.26353049837052822113037109375</LongitudeDegrees>
            </Position>
            <AltitudeMeters>106.8000030517578125</AltitudeMeters>
            <DistanceMeters>45948.180179384</DistanceMeters>
          </Trackpoint>
          <Trackpoint>
            <Time>2018-04-21T10:54:31.000Z</Time>
            <Position>
              <LatitudeDegrees>43.21190603077411651611328125</LatitudeDegrees>
              <LongitudeDegrees>-8.2634237967431545257568359375</LongitudeDegrees>
            </Position>
            <AltitudeMeters>107.59999847412109375</AltitudeMeters>
            <DistanceMeters>45956.891595023</DistanceMeters>
          </Trackpoint>
          <Trackpoint>
            <Time>2018-04-21T10:54:32.000Z</Time>
            <Position>
              <LatitudeDegrees>43.2119108922779560089111328125</LatitudeDegrees>
              <LongitudeDegrees>-8.2633983157575130462646484375</LongitudeDegrees>
            </Position>
            <AltitudeMeters>108</AltitudeMeters>
            <DistanceMeters>45959.029168105</DistanceMeters>
          </Trackpoint>
          <Trackpoint>
            <Time>2018-04-21T10:54:35.000Z</Time>
            <Position>
              <LatitudeDegrees>43.2119360379874706268310546875</LatitudeDegrees>
              <LongitudeDegrees>-8.263316340744495391845703125</LongitudeDegrees>
            </Position>
            <AltitudeMeters>109</AltitudeMeters>
            <DistanceMeters>45966.243692388</DistanceMeters>
          </Trackpoint>
          <Trackpoint>
            <Time>2018-04-21T10:54:39.000Z</Time>
            <Position>
              <LatitudeDegrees>43.21200032718479633331298828125</LatitudeDegrees>
              <LongitudeDegrees>-8.26323964633047580718994140625</LongitudeDegrees>
            </Position>
            <AltitudeMeters>109.59999847412109375</AltitudeMeters>
            <DistanceMeters>45975.7254349</DistanceMeters>
          </Trackpoint>
          <Trackpoint>
            <Time>2018-04-21T10:54:42.000Z</Time>
            <Position>
              <LatitudeDegrees>43.2120654545724391937255859375</LatitudeDegrees>
              <LongitudeDegrees>-8.26319874264299869537353515625</LongitudeDegrees>
            </Position>
            <AltitudeMeters>110.1999969482421875</AltitudeMeters>
            <DistanceMeters>45983.697490972</DistanceMeters>
          </Trackpoint>
          <Trackpoint>
            <Time>2018-04-21T10:54:46.000Z</Time>
            <Position>
              <LatitudeDegrees>43.212155140936374664306640625</LatitudeDegrees>
              <LongitudeDegrees>-8.26314006932079792022705078125</LongitudeDegrees>
            </Position>
            <AltitudeMeters>110.59999847412109375</AltitudeMeters>
            <DistanceMeters>45994.756575715</DistanceMeters>
          </Trackpoint>
          <Trackpoint>
            <Time>2018-04-21T10:54:50.000Z</Time>
            <Position>
              <LatitudeDegrees>43.21224222891032695770263671875</LatitudeDegrees>
              <LongitudeDegrees>-8.26306127943098545074462890625</LongitudeDegrees>
            </Position>
            <AltitudeMeters>111.1999969482421875</AltitudeMeters>
            <DistanceMeters>46006.36734706</DistanceMeters>
          </Trackpoint>
          <Trackpoint>
            <Time>2018-04-21T10:54:54.000Z</Time>
            <Position>
              <LatitudeDegrees>43.2123343460261821746826171875</LatitudeDegrees>
              <LongitudeDegrees>-8.26297192834317684173583984375</LongitudeDegrees>
            </Position>
            <AltitudeMeters>111.8000030517578125</AltitudeMeters>
            <DistanceMeters>46018.923824859</DistanceMeters>
          </Trackpoint>
          <Trackpoint>
            <Time>2018-04-21T10:55:02.000Z</Time>
            <Position>
              <LatitudeDegrees>43.21257012896239757537841796875</LatitudeDegrees>
              <LongitudeDegrees>-8.262816779315471649169921875</LongitudeDegrees>
            </Position>
            <AltitudeMeters>111.8000030517578125</AltitudeMeters>
            <DistanceMeters>46048.028694058</DistanceMeters>
          </Trackpoint>
          <Trackpoint>
            <Time>2018-04-21T10:55:08.000Z</Time>
            <Position>
              <LatitudeDegrees>43.21280649863183498382568359375</LatitudeDegrees>
              <LongitudeDegrees>-8.262798003852367401123046875</LongitudeDegrees>
            </Position>
            <AltitudeMeters>111.8000030517578125</AltitudeMeters>
            <DistanceMeters>46074.381094306</DistanceMeters>
          </Trackpoint>
          <Trackpoint>
            <Time>2018-04-21T10:55:13.000Z</Time>
            <Position>
              <LatitudeDegrees>43.2130116038024425506591796875</LatitudeDegrees>
              <LongitudeDegrees>-8.2628018595278263092041015625</LongitudeDegrees>
            </Position>
            <AltitudeMeters>111.8000030517578125</AltitudeMeters>
            <DistanceMeters>46097.211843365</DistanceMeters>
          </Trackpoint>
          <Trackpoint>
            <Time>2018-04-21T10:55:14.000Z</Time>
            <Position>
              <LatitudeDegrees>43.2130504958331584930419921875</LatitudeDegrees>
              <LongitudeDegrees>-8.26278668828308582305908203125</LongitudeDegrees>
            </Position>
            <AltitudeMeters>111.8000030517578125</AltitudeMeters>
            <DistanceMeters>46101.712339055</DistanceMeters>
          </Trackpoint>
          <Trackpoint>
            <Time>2018-04-21T10:55:18.000Z</Time>
            <Position>
              <LatitudeDegrees>43.2131973467767238616943359375</LatitudeDegrees>
              <LongitudeDegrees>-8.26269448734819889068603515625</LongitudeDegrees>
            </Position>
            <AltitudeMeters>111.8000030517578125</AltitudeMeters>
            <DistanceMeters>46119.686962976</DistanceMeters>
          </Trackpoint>
          <Trackpoint>
            <Time>2018-04-21T10:55:20.000Z</Time>
            <Position>
              <LatitudeDegrees>43.21327219717204570770263671875</LatitudeDegrees>
              <LongitudeDegrees>-8.2626493088901042938232421875</LongitudeDegrees>
            </Position>
            <AltitudeMeters>111.59999847412109375</AltitudeMeters>
            <DistanceMeters>46128.788716724</DistanceMeters>
          </Trackpoint>
          <Trackpoint>
            <Time>2018-04-21T10:55:23.000Z</Time>
            <Position>
              <LatitudeDegrees>43.2133810780942440032958984375</LatitudeDegrees>
              <LongitudeDegrees>-8.26256875880062580108642578125</LongitudeDegrees>
            </Position>
            <AltitudeMeters>112</AltitudeMeters>
            <DistanceMeters>46142.556772677</DistanceMeters>
          </Trackpoint>
          <Trackpoint>
            <Time>2018-04-21T10:55:25.000Z</Time>
            <Position>
              <LatitudeDegrees>43.21345073170959949493408203125</LatitudeDegrees>
              <LongitudeDegrees>-8.2625138573348522186279296875</LongitudeDegrees>
            </Position>
            <AltitudeMeters>112</AltitudeMeters>
            <DistanceMeters>46151.49736755</DistanceMeters>
          </Trackpoint>
          <Trackpoint>
            <Time>2018-04-21T10:55:27.000Z</Time>
            <Position>
              <LatitudeDegrees>43.21351879276335239410400390625</LatitudeDegrees>
              <LongitudeDegrees>-8.26245074160397052764892578125</LongitudeDegrees>
            </Position>
            <AltitudeMeters>112.1999969482421875</AltitudeMeters>
            <DistanceMeters>46160.640695594</DistanceMeters>
          </Trackpoint>
          <Trackpoint>
            <Time>2018-04-21T10:55:31.000Z</Time>
            <Position>
              <LatitudeDegrees>43.2136452756822109222412109375</LatitudeDegrees>
              <LongitudeDegrees>-8.2623195648193359375</LongitudeDegrees>
            </Position>
            <AltitudeMeters>112</AltitudeMeters>
            <DistanceMeters>46178.287542798</DistanceMeters>
          </Trackpoint>
          <Trackpoint>
            <Time>2018-04-21T10:55:33.000Z</Time>
            <Position>
              <LatitudeDegrees>43.2137079723179340362548828125</LatitudeDegrees>
              <LongitudeDegrees>-8.26225376687943935394287109375</LongitudeDegrees>
            </Position>
            <AltitudeMeters>112</AltitudeMeters>
            <DistanceMeters>46187.073275177</DistanceMeters>
          </Trackpoint>
          <Trackpoint>
            <Time>2018-04-21T10:55:39.000Z</Time>
            <Position>
              <LatitudeDegrees>43.2139064557850360870361328125</LatitudeDegrees>
              <LongitudeDegrees>-8.26206676661968231201171875</LongitudeDegrees>
            </Position>
            <AltitudeMeters>112.1999969482421875</AltitudeMeters>
            <DistanceMeters>46213.87148257</DistanceMeters>
          </Trackpoint>
          <Trackpoint>
            <Time>2018-04-21T10:55:42.000Z</Time>
            <Position>
              <LatitudeDegrees>43.214006535708904266357421875</LatitudeDegrees>
              <LongitudeDegrees>-8.2620005495846271514892578125</LongitudeDegrees>
            </Position>
            <AltitudeMeters>112.59999847412109375</AltitudeMeters>
            <DistanceMeters>46226.238105983</DistanceMeters>
          </Trackpoint>
          <Trackpoint>
            <Time>2018-04-21T10:55:49.000Z</Time>
            <Position>
              <LatitudeDegrees>43.2142430730164051055908203125</LatitudeDegrees>
              <LongitudeDegrees>-8.2618542015552520751953125</LongitudeDegrees>
            </Position>
            <AltitudeMeters>113.40000152587890625</AltitudeMeters>
            <DistanceMeters>46255.117786046</DistanceMeters>
          </Trackpoint>
          <Trackpoint>
            <Time>2018-04-21T10:55:55.000Z</Time>
            <Position>
              <LatitudeDegrees>43.21442286483943462371826171875</LatitudeDegrees>
              <LongitudeDegrees>-8.26171296648681163787841796875</LongitudeDegrees>
            </Position>
            <AltitudeMeters>114</AltitudeMeters>
            <DistanceMeters>46278.176601305</DistanceMeters>
          </Trackpoint>
          <Trackpoint>
            <Time>2018-04-21T10:55:57.000Z</Time>
            <Position>
              <LatitudeDegrees>43.21448271162807941436767578125</LatitudeDegrees>
              <LongitudeDegrees>-8.2616800256073474884033203125</LongitudeDegrees>
            </Position>
            <AltitudeMeters>114.40000152587890625</AltitudeMeters>
            <DistanceMeters>46285.353477787</DistanceMeters>
          </Trackpoint>
          <Trackpoint>
            <Time>2018-04-21T10:56:01.000Z</Time>
            <Position>
              <LatitudeDegrees>43.21459352038800716400146484375</LatitudeDegrees>
              <LongitudeDegrees>-8.261627219617366790771484375</LongitudeDegrees>
            </Position>
            <AltitudeMeters>115</AltitudeMeters>
            <DistanceMeters>46298.409885529</DistanceMeters>
          </Trackpoint>
          <Trackpoint>
            <Time>2018-04-21T10:56:02.000Z</Time>
            <Position>
              <LatitudeDegrees>43.214620761573314666748046875</LatitudeDegrees>
              <LongitudeDegrees>-8.261613808572292327880859375</LongitudeDegrees>
            </Position>
            <AltitudeMeters>115.40000152587890625</AltitudeMeters>
            <DistanceMeters>46301.630996802</DistanceMeters>
          </Trackpoint>
          <Trackpoint>
            <Time>2018-04-21T10:56:03.000Z</Time>
            <Position>
              <LatitudeDegrees>43.2146477513015270233154296875</LatitudeDegrees>
              <LongitudeDegrees>-8.261604420840740203857421875</LongitudeDegrees>
            </Position>
            <AltitudeMeters>115.59999847412109375</AltitudeMeters>
            <DistanceMeters>46304.729217462</DistanceMeters>
          </Trackpoint>
          <Trackpoint>
            <Time>2018-04-21T10:56:06.000Z</Time>
            <Position>
              <LatitudeDegrees>43.21472897194325923919677734375</LatitudeDegrees>
              <LongitudeDegrees>-8.2615791074931621551513671875</LongitudeDegrees>
            </Position>
            <AltitudeMeters>115.8000030517578125</AltitudeMeters>
            <DistanceMeters>46314.000046314</DistanceMeters>
          </Trackpoint>
          <Trackpoint>
            <Time>2018-04-21T10:56:09.000Z</Time>
            <Position>
              <LatitudeDegrees>43.21480809710919857025146484375</LatitudeDegrees>
              <LongitudeDegrees>-8.26155714690685272216796875</LongitudeDegrees>
            </Position>
            <AltitudeMeters>116.40000152587890625</AltitudeMeters>
            <DistanceMeters>46322.985976625</DistanceMeters>
          </Trackpoint>
          <Trackpoint>
            <Time>2018-04-21T10:56:11.000Z</Time>
            <Position>
              <LatitudeDegrees>43.2148542813956737518310546875</LatitudeDegrees>
              <LongitudeDegrees>-8.2615382038056850433349609375</LongitudeDegrees>
            </Position>
            <AltitudeMeters>116.8000030517578125</AltitudeMeters>
            <DistanceMeters>46328.349727509</DistanceMeters>
          </Trackpoint>
          <Trackpoint>
            <Time>2018-04-21T10:56:15.000Z</Time>
            <Position>
              <LatitudeDegrees>43.214945308864116668701171875</LatitudeDegrees>
              <LongitudeDegrees>-8.2615174166858196258544921875</LongitudeDegrees>
            </Position>
            <AltitudeMeters>118</AltitudeMeters>
            <DistanceMeters>46338.620528502</DistanceMeters>
          </Trackpoint>
          <Trackpoint>
            <Time>2018-04-21T10:56:20.000Z</Time>
            <Position>
              <LatitudeDegrees>43.21506433188915252685546875</LatitudeDegrees>
              <LongitudeDegrees>-8.261538036167621612548828125</LongitudeDegrees>
            </Position>
            <AltitudeMeters>119</AltitudeMeters>
            <DistanceMeters>46351.973388097</DistanceMeters>
          </Trackpoint>
          <Trackpoint>
            <Time>2018-04-21T10:56:21.000Z</Time>
            <Position>
              <LatitudeDegrees>43.21509291417896747589111328125</LatitudeDegrees>
              <LongitudeDegrees>-8.26154164038598537445068359375</LongitudeDegrees>
            </Position>
            <AltitudeMeters>119.1999969482421875</AltitudeMeters>
            <DistanceMeters>46355.170581638</DistanceMeters>
          </Trackpoint>
          <Trackpoint>
            <Time>2018-04-21T10:56:25.000Z</Time>
            <Position>
              <LatitudeDegrees>43.21520539931952953338623046875</LatitudeDegrees>
              <LongitudeDegrees>-8.261602409183979034423828125</LongitudeDegrees>
            </Position>
            <AltitudeMeters>120.1999969482421875</AltitudeMeters>
            <DistanceMeters>46368.62584093</DistanceMeters>
          </Trackpoint>
          <Trackpoint>
            <Time>2018-04-21T10:56:26.000Z</Time>
            <Position>
              <LatitudeDegrees>43.21523196995258331298828125</LatitudeDegrees>
              <LongitudeDegrees>-8.2616210170090198516845703125</LongitudeDegrees>
            </Position>
            <AltitudeMeters>120.40000152587890625</AltitudeMeters>
            <DistanceMeters>46371.94498137</DistanceMeters>
          </Trackpoint>
          <Trackpoint>
            <Time>2018-04-21T10:56:32.000Z</Time>
            <Position>
              <LatitudeDegrees>43.2154024578630924224853515625</LatitudeDegrees>
              <LongitudeDegrees>-8.26170374639332294464111328125</LongitudeDegrees>
            </Position>
            <AltitudeMeters>120.8000030517578125</AltitudeMeters>
            <DistanceMeters>46392.072258619</DistanceMeters>
          </Trackpoint>
          <Trackpoint>
            <Time>2018-04-21T10:56:36.000Z</Time>
            <Position>
              <LatitudeDegrees>43.21552659384906291961669921875</LatitudeDegrees>
              <LongitudeDegrees>-8.2617494277656078338623046875</LongitudeDegrees>
            </Position>
            <AltitudeMeters>121</AltitudeMeters>
            <DistanceMeters>46406.37717254</DistanceMeters>
          </Trackpoint>
          <Trackpoint>
            <Time>2018-04-21T10:56:40.000Z</Time>
            <Position>
              <LatitudeDegrees>43.2156629674136638641357421875</LatitudeDegrees>
              <LongitudeDegrees>-8.261833079159259796142578125</LongitudeDegrees>
            </Position>
            <AltitudeMeters>120.40000152587890625</AltitudeMeters>
            <DistanceMeters>46423.003317616</DistanceMeters>
          </Trackpoint>
          <Trackpoint>
            <Time>2018-04-21T10:56:41.000Z</Time>
            <Position>
              <LatitudeDegrees>43.215700685977935791015625</LatitudeDegrees>
              <LongitudeDegrees>-8.26184950768947601318359375</LongitudeDegrees>
            </Position>
            <AltitudeMeters>119.40000152587890625</AltitudeMeters>
            <DistanceMeters>46427.408500277</DistanceMeters>
          </Trackpoint>
          <Trackpoint>
            <Time>2018-04-21T10:56:43.000Z</Time>
            <Position>
              <LatitudeDegrees>43.21577754803001880645751953125</LatitudeDegrees>
              <LongitudeDegrees>-8.261847160756587982177734375</LongitudeDegrees>
            </Position>
            <AltitudeMeters>119</AltitudeMeters>
            <DistanceMeters>46435.966182204</DistanceMeters>
          </Trackpoint>
          <Trackpoint>
            <Time>2018-04-21T10:56:44.000Z</Time>
            <Position>
              <LatitudeDegrees>43.21581677533686161041259765625</LatitudeDegrees>
              <LongitudeDegrees>-8.2618396170437335968017578125</LongitudeDegrees>
            </Position>
            <AltitudeMeters>118.8000030517578125</AltitudeMeters>
            <DistanceMeters>46440.374438606</DistanceMeters>
          </Trackpoint>
          <Trackpoint>
            <Time>2018-04-21T10:56:46.000Z</Time>
            <Position>
              <LatitudeDegrees>43.21588986553251743316650390625</LatitudeDegrees>
              <LongitudeDegrees>-8.26182394288480281829833984375</LongitudeDegrees>
            </Position>
            <AltitudeMeters>117.40000152587890625</AltitudeMeters>
            <DistanceMeters>46448.608381401</DistanceMeters>
          </Trackpoint>
          <Trackpoint>
            <Time>2018-04-21T10:56:48.000Z</Time>
            <Position>
              <LatitudeDegrees>43.21595641784369945526123046875</LatitudeDegrees>
              <LongitudeDegrees>-8.26183735392987728118896484375</LongitudeDegrees>
            </Position>
            <AltitudeMeters>116.1999969482421875</AltitudeMeters>
            <DistanceMeters>46456.095015123</DistanceMeters>
          </Trackpoint>
          <Trackpoint>
            <Time>2018-04-21T10:56:49.000Z</Time>
            <Position>
              <LatitudeDegrees>43.2159925438463687896728515625</LatitudeDegrees>
              <LongitudeDegrees>-8.2618553750216960906982421875</LongitudeDegrees>
            </Position>
            <AltitudeMeters>115.40000152587890625</AltitudeMeters>
            <DistanceMeters>46460.373328453</DistanceMeters>
          </Trackpoint>
          <Trackpoint>
            <Time>2018-04-21T10:56:50.000Z</Time>
            <Position>
              <LatitudeDegrees>43.21603269316256046295166015625</LatitudeDegrees>
              <LongitudeDegrees>-8.2618882320821285247802734375</LongitudeDegrees>
            </Position>
            <AltitudeMeters>115</AltitudeMeters>
            <DistanceMeters>46465.576420724</DistanceMeters>
          </Trackpoint>
          <Trackpoint>
            <Time>2018-04-21T10:56:52.000Z</Time>
            <Position>
              <LatitudeDegrees>43.2161119021475315093994140625</LatitudeDegrees>
              <LongitudeDegrees>-8.26199124567210674285888671875</LongitudeDegrees>
            </Position>
            <AltitudeMeters>113.8000030517578125</AltitudeMeters>
            <DistanceMeters>46477.723496466</DistanceMeters>
          </Trackpoint>
          <Trackpoint>
            <Time>2018-04-21T10:56:54.000Z</Time>
            <Position>
              <LatitudeDegrees>43.21617485024034976959228515625</LatitudeDegrees>
              <LongitudeDegrees>-8.26206366531550884246826171875</LongitudeDegrees>
            </Position>
            <AltitudeMeters>112.59999847412109375</AltitudeMeters>
            <DistanceMeters>46486.86682451</DistanceMeters>
          </Trackpoint>
          <Trackpoint>
            <Time>2018-04-21T10:56:56.000Z</Time>
            <Position>
              <LatitudeDegrees>43.2162339426577091217041015625</LatitudeDegrees>
              <LongitudeDegrees>-8.262118734419345855712890625</LongitudeDegrees>
            </Position>
            <AltitudeMeters>112</AltitudeMeters>
            <DistanceMeters>46494.816193979</DistanceMeters>
          </Trackpoint>
          <Trackpoint>
            <Time>2018-04-21T10:56:57.000Z</Time>
            <Position>
              <LatitudeDegrees>43.21626336313784122467041015625</LatitudeDegrees>
              <LongitudeDegrees>-8.26214798726141452789306640625</LongitudeDegrees>
            </Position>
            <AltitudeMeters>111.59999847412109375</AltitudeMeters>
            <DistanceMeters>46498.86125251</DistanceMeters>
          </Trackpoint>
          <Trackpoint>
            <Time>2018-04-21T10:57:01.000Z</Time>
            <Position>
              <LatitudeDegrees>43.216336704790592193603515625</LatitudeDegrees>
              <LongitudeDegrees>-8.262215293943881988525390625</LongitudeDegrees>
            </Position>
            <AltitudeMeters>110.40000152587890625</AltitudeMeters>
            <DistanceMeters>46508.682161149</DistanceMeters>
          </Trackpoint>
          <Trackpoint>
            <Time>2018-04-21T10:57:07.000Z</Time>
            <Position>
              <LatitudeDegrees>43.21641541086137294769287109375</LatitudeDegrees>
              <LongitudeDegrees>-8.26228193007409572601318359375</LongitudeDegrees>
            </Position>
            <AltitudeMeters>110</AltitudeMeters>
            <DistanceMeters>46518.976234545</DistanceMeters>
          </Trackpoint>
          <Trackpoint>
            <Time>2018-04-21T10:57:08.000Z</Time>
            <Position>
              <LatitudeDegrees>43.21643401868641376495361328125</LatitudeDegrees>
              <LongitudeDegrees>-8.262297101318836212158203125</LongitudeDegrees>
            </Position>
            <AltitudeMeters>110</AltitudeMeters>
            <DistanceMeters>46521.383994723</DistanceMeters>
          </Trackpoint>
          <Trackpoint>
            <Time>2018-04-21T10:57:13.000Z</Time>
            <Position>
              <LatitudeDegrees>43.21658380329608917236328125</LatitudeDegrees>
              <LongitudeDegrees>-8.2623844407498836517333984375</LongitudeDegrees>
            </Position>
            <AltitudeMeters>109.40000152587890625</AltitudeMeters>
            <DistanceMeters>46539.49824016</DistanceMeters>
          </Trackpoint>
          <Trackpoint>
            <Time>2018-04-21T10:57:18.000Z</Time>
            <Position>
              <LatitudeDegrees>43.21678354404866695404052734375</LatitudeDegrees>
              <LongitudeDegrees>-8.26237094588577747344970703125</LongitudeDegrees>
            </Position>
            <AltitudeMeters>109.40000152587890625</AltitudeMeters>
            <DistanceMeters>46561.756815455</DistanceMeters>
          </Trackpoint>
          <Trackpoint>
            <Time>2018-04-21T10:57:19.000Z</Time>
            <Position>
              <LatitudeDegrees>43.216827549040317535400390625</LatitudeDegrees>
              <LongitudeDegrees>-8.26234764419496059417724609375</LongitudeDegrees>
            </Position>
            <AltitudeMeters>109.40000152587890625</AltitudeMeters>
            <DistanceMeters>46567.006557668</DistanceMeters>
          </Trackpoint>
          <Trackpoint>
            <Time>2018-04-21T10:57:22.000Z</Time>
            <Position>
              <LatitudeDegrees>43.21694212965667247772216796875</LatitudeDegrees>
              <LongitudeDegrees>-8.2622332312166690826416015625</LongitudeDegrees>
            </Position>
            <AltitudeMeters>109.40000152587890625</AltitudeMeters>
            <DistanceMeters>46582.778702287</DistanceMeters>
          </Trackpoint>
          <Trackpoint>
            <Time>2018-04-21T10:57:28.000Z</Time>
            <Position>
              <LatitudeDegrees>43.2171120308339595794677734375</LatitudeDegrees>
              <LongitudeDegrees>-8.2619348354637622833251953125</LongitudeDegrees>
            </Position>
            <AltitudeMeters>108.8000030517578125</AltitudeMeters>
            <DistanceMeters>46613.493947143</DistanceMeters>
          </Trackpoint>
          <Trackpoint>
            <Time>2018-04-21T10:57:34.000Z</Time>
            <Position>
              <LatitudeDegrees>43.21722510270774364471435546875</LatitudeDegrees>
              <LongitudeDegrees>-8.26160433702170848846435546875</LongitudeDegrees>
            </Position>
            <AltitudeMeters>109.59999847412109375</AltitudeMeters>
            <DistanceMeters>46643.108760068</DistanceMeters>
          </Trackpoint>
          <Trackpoint>
            <Time>2018-04-21T10:57:36.000Z</Time>
            <Position>
              <LatitudeDegrees>43.21726835332810878753662109375</LatitudeDegrees>
              <LongitudeDegrees>-8.2615135610103607177734375</LongitudeDegrees>
            </Position>
            <AltitudeMeters>110</AltitudeMeters>
            <DistanceMeters>46651.905791108</DistanceMeters>
          </Trackpoint>
          <Trackpoint>
            <Time>2018-04-21T10:57:39.000Z</Time>
            <Position>
              <LatitudeDegrees>43.21735099889338016510009765625</LatitudeDegrees>
              <LongitudeDegrees>-8.2613953761756420135498046875</LongitudeDegrees>
            </Position>
            <AltitudeMeters>110</AltitudeMeters>
            <DistanceMeters>46665.191531744</DistanceMeters>
          </Trackpoint>
          <Trackpoint>
            <Time>2018-04-21T10:57:42.000Z</Time>
            <Position>
              <LatitudeDegrees>43.2174436189234256744384765625</LatitudeDegrees>
              <LongitudeDegrees>-8.2612964697182178497314453125</LongitudeDegrees>
            </Position>
            <AltitudeMeters>110.1999969482421875</AltitudeMeters>
            <DistanceMeters>46678.253816935</DistanceMeters>
          </Trackpoint>
          <Trackpoint>
            <Time>2018-04-21T10:57:46.000Z</Time>
            <Position>
              <LatitudeDegrees>43.21755945682525634765625</LatitudeDegrees>
              <LongitudeDegrees>-8.26114869676530361175537109375</LongitudeDegrees>
            </Position>
            <AltitudeMeters>109.59999847412109375</AltitudeMeters>
            <DistanceMeters>46695.857627983</DistanceMeters>
          </Trackpoint>
          <Trackpoint>
            <Time>2018-04-21T10:57:47.000Z</Time>
            <Position>
              <LatitudeDegrees>43.2175787352025508880615234375</LatitudeDegrees>
              <LongitudeDegrees>-8.26108801178634166717529296875</LongitudeDegrees>
            </Position>
            <AltitudeMeters>109.40000152587890625</AltitudeMeters>
            <DistanceMeters>46701.227268016</DistanceMeters>
          </Trackpoint>
          <Trackpoint>
            <Time>2018-04-21T10:57:50.000Z</Time>
            <Position>
              <LatitudeDegrees>43.21762190200388431549072265625</LatitudeDegrees>
              <LongitudeDegrees>-8.26084904372692108154296875</LongitudeDegrees>
            </Position>
            <AltitudeMeters>108.59999847412109375</AltitudeMeters>
            <DistanceMeters>46721.197126954</DistanceMeters>
          </Trackpoint>
          <Trackpoint>
            <Time>2018-04-21T10:57:51.000Z</Time>
            <Position>
              <LatitudeDegrees>43.2176270149648189544677734375</LatitudeDegrees>
              <LongitudeDegrees>-8.26074753887951374053955078125</LongitudeDegrees>
            </Position>
            <AltitudeMeters>108.40000152587890625</AltitudeMeters>
            <DistanceMeters>46729.449692406</DistanceMeters>
          </Trackpoint>
          <Trackpoint>
            <Time>2018-04-21T10:57:52.000Z</Time>
            <Position>
              <LatitudeDegrees>43.21762257255613803863525390625</LatitudeDegrees>
              <LongitudeDegrees>-8.2606399990618228912353515625</LongitudeDegrees>
            </Position>
            <AltitudeMeters>107.8000030517578125</AltitudeMeters>
            <DistanceMeters>46738.185950535</DistanceMeters>
          </Trackpoint>
          <Trackpoint>
            <Time>2018-04-21T10:57:53.000Z</Time>
            <Position>
              <LatitudeDegrees>43.21762072853744029998779296875</LatitudeDegrees>
              <LongitudeDegrees>-8.26053128577768802642822265625</LongitudeDegrees>
            </Position>
            <AltitudeMeters>107.1999969482421875</AltitudeMeters>
            <DistanceMeters>46747.006559281</DistanceMeters>
          </Trackpoint>
          <Trackpoint>
            <Time>2018-04-21T10:57:56.000Z</Time>
            <Position>
              <LatitudeDegrees>43.2176732830703258514404296875</LatitudeDegrees>
              <LongitudeDegrees>-8.2602443732321262359619140625</LongitudeDegrees>
            </Position>
            <AltitudeMeters>107</AltitudeMeters>
            <DistanceMeters>46771.002262945</DistanceMeters>
          </Trackpoint>
          <Trackpoint>
            <Time>2018-04-21T10:57:58.000Z</Time>
            <Position>
              <LatitudeDegrees>43.21773656643927097320556640625</LatitudeDegrees>
              <LongitudeDegrees>-8.26013666577637195587158203125</LongitudeDegrees>
            </Position>
            <AltitudeMeters>106.59999847412109375</AltitudeMeters>
            <DistanceMeters>46782.224270167</DistanceMeters>
          </Trackpoint>
          <Trackpoint>
            <Time>2018-04-21T10:57:59.000Z</Time>
            <Position>
              <LatitudeDegrees>43.21777545846998691558837890625</LatitudeDegrees>
              <LongitudeDegrees>-8.26009911485016345977783203125</LongitudeDegrees>
            </Position>
            <AltitudeMeters>107.1999969482421875</AltitudeMeters>
            <DistanceMeters>46787.51684016</DistanceMeters>
          </Trackpoint>
          <Trackpoint>
            <Time>2018-04-21T10:58:01.000Z</Time>
            <Position>
              <LatitudeDegrees>43.21785391308367252349853515625</LatitudeDegrees>
              <LongitudeDegrees>-8.26005016453564167022705078125</LongitudeDegrees>
            </Position>
            <AltitudeMeters>108</AltitudeMeters>
            <DistanceMeters>46797.109362194</DistanceMeters>
          </Trackpoint>
          <Trackpoint>
            <Time>2018-04-21T10:58:04.000Z</Time>
            <Position>
              <LatitudeDegrees>43.21796916425228118896484375</LatitudeDegrees>
              <LongitudeDegrees>-8.25999098829925060272216796875</LongitudeDegrees>
            </Position>
            <AltitudeMeters>108.8000030517578125</AltitudeMeters>
            <DistanceMeters>46810.805741571</DistanceMeters>
          </Trackpoint>
          <Trackpoint>
            <Time>2018-04-21T10:58:07.000Z</Time>
            <Position>
              <LatitudeDegrees>43.2180757820606231689453125</LatitudeDegrees>
              <LongitudeDegrees>-8.25993038713932037353515625</LongitudeDegrees>
            </Position>
            <AltitudeMeters>109.40000152587890625</AltitudeMeters>
            <DistanceMeters>46823.650527545</DistanceMeters>
          </Trackpoint>
          <Trackpoint>
            <Time>2018-04-21T10:58:12.000Z</Time>
            <Position>
              <LatitudeDegrees>43.21824417449533939361572265625</LatitudeDegrees>
              <LongitudeDegrees>-8.25984187424182891845703125</LongitudeDegrees>
            </Position>
            <AltitudeMeters>110.40000152587890625</AltitudeMeters>
            <DistanceMeters>46843.72119545</DistanceMeters>
          </Trackpoint>
          <Trackpoint>
            <Time>2018-04-21T10:58:15.000Z</Time>
            <Position>
              <LatitudeDegrees>43.2183103077113628387451171875</LatitudeDegrees>
              <LongitudeDegrees>-8.25975679792463779449462890625</LongitudeDegrees>
            </Position>
            <AltitudeMeters>110.59999847412109375</AltitudeMeters>
            <DistanceMeters>46853.811045886</DistanceMeters>
          </Trackpoint>
          <Trackpoint>
            <Time>2018-04-21T10:58:16.000Z</Time>
            <Position>
              <LatitudeDegrees>43.2183093018829822540283203125</LatitudeDegrees>
              <LongitudeDegrees>-8.259714804589748382568359375</LongitudeDegrees>
            </Position>
            <AltitudeMeters>110.8000030517578125</AltitudeMeters>
            <DistanceMeters>46857.218783891</DistanceMeters>
          </Trackpoint>
          <Trackpoint>
            <Time>2018-04-21T10:58:19.000Z</Time>
            <Position>
              <LatitudeDegrees>43.2182647101581096649169921875</LatitudeDegrees>
              <LongitudeDegrees>-8.25955890119075775146484375</LongitudeDegrees>
            </Position>
            <AltitudeMeters>110.40000152587890625</AltitudeMeters>
            <DistanceMeters>46870.803283963</DistanceMeters>
          </Trackpoint>
          <Trackpoint>
            <Time>2018-04-21T10:58:20.000Z</Time>
            <Position>
              <LatitudeDegrees>43.2182415761053562164306640625</LatitudeDegrees>
              <LongitudeDegrees>-8.25949645601212978363037109375</LongitudeDegrees>
            </Position>
            <AltitudeMeters>110</AltitudeMeters>
            <DistanceMeters>46876.485055103</DistanceMeters>
          </Trackpoint>
          <Trackpoint>
            <Time>2018-04-21T10:58:22.000Z</Time>
            <Position>
              <LatitudeDegrees>43.2181922905147075653076171875</LatitudeDegrees>
              <LongitudeDegrees>-8.25936201028525829315185546875</LongitudeDegrees>
            </Position>
            <AltitudeMeters>109.40000152587890625</AltitudeMeters>
            <DistanceMeters>46888.692197335</DistanceMeters>
          </Trackpoint>
          <Trackpoint>
            <Time>2018-04-21T10:58:23.000Z</Time>
            <Position>
              <LatitudeDegrees>43.218162618577480316162109375</LatitudeDegrees>
              <LongitudeDegrees>-8.25929361395537853240966796875</LongitudeDegrees>
            </Position>
            <AltitudeMeters>109.40000152587890625</AltitudeMeters>
            <DistanceMeters>46895.148421686</DistanceMeters>
          </Trackpoint>
          <Trackpoint>
            <Time>2018-04-21T10:58:25.000Z</Time>
            <Position>
              <LatitudeDegrees>43.2181242294609546661376953125</LatitudeDegrees>
              <LongitudeDegrees>-8.25913938693702220916748046875</LongitudeDegrees>
            </Position>
            <AltitudeMeters>109</AltitudeMeters>
            <DistanceMeters>46908.367385687</DistanceMeters>
          </Trackpoint>
          <Trackpoint>
            <Time>2018-04-21T10:58:26.000Z</Time>
            <Position>
              <LatitudeDegrees>43.218135796487331390380859375</LatitudeDegrees>
              <LongitudeDegrees>-8.2590566575527191162109375</LongitudeDegrees>
            </Position>
            <AltitudeMeters>108.1999969482421875</AltitudeMeters>
            <DistanceMeters>46915.199403335</DistanceMeters>
          </Trackpoint>
          <Trackpoint>
            <Time>2018-04-21T10:58:28.000Z</Time>
            <Position>
              <LatitudeDegrees>43.2182134129106998443603515625</LatitudeDegrees>
              <LongitudeDegrees>-8.2589431665837764739990234375</LongitudeDegrees>
            </Position>
            <AltitudeMeters>108</AltitudeMeters>
            <DistanceMeters>46927.82401617</DistanceMeters>
          </Trackpoint>
          <Trackpoint>
            <Time>2018-04-21T10:58:32.000Z</Time>
            <Position>
              <LatitudeDegrees>43.21834735572338104248046875</LatitudeDegrees>
              <LongitudeDegrees>-8.258862532675266265869140625</LongitudeDegrees>
            </Position>
            <AltitudeMeters>109.59999847412109375</AltitudeMeters>
            <DistanceMeters>46944.103842447</DistanceMeters>
          </Trackpoint>
          <Trackpoint>
            <Time>2018-04-21T10:58:35.000Z</Time>
            <Position>
              <LatitudeDegrees>43.21842136792838573455810546875</LatitudeDegrees>
              <LongitudeDegrees>-8.25881584547460079193115234375</LongitudeDegrees>
            </Position>
            <AltitudeMeters>110.59999847412109375</AltitudeMeters>
            <DistanceMeters>46953.170307352</DistanceMeters>
          </Trackpoint>
          <Trackpoint>
            <Time>2018-04-21T10:58:37.000Z</Time>
            <Position>
              <LatitudeDegrees>43.2184658758342266082763671875</LatitudeDegrees>
              <LongitudeDegrees>-8.258787430822849273681640625</LongitudeDegrees>
            </Position>
            <AltitudeMeters>111.1999969482421875</AltitudeMeters>
            <DistanceMeters>46958.633310432</DistanceMeters>
          </Trackpoint>
          <Trackpoint>
            <Time>2018-04-21T10:58:39.000Z</Time>
            <Position>
              <LatitudeDegrees>43.21851122193038463592529296875</LatitudeDegrees>
              <LongitudeDegrees>-8.2587557472288608551025390625</LongitudeDegrees>
            </Position>
            <AltitudeMeters>112</AltitudeMeters>
            <DistanceMeters>46964.296775054</DistanceMeters>
          </Trackpoint>
          <Trackpoint>
            <Time>2018-04-21T10:58:43.000Z</Time>
            <Position>
              <LatitudeDegrees>43.2185956276953220367431640625</LatitudeDegrees>
              <LongitudeDegrees>-8.2587021030485630035400390625</LongitudeDegrees>
            </Position>
            <AltitudeMeters>113</AltitudeMeters>
            <DistanceMeters>46974.649890884</DistanceMeters>
          </Trackpoint>
          <Trackpoint>
            <Time>2018-04-21T10:58:44.000Z</Time>
            <Position>
              <LatitudeDegrees>43.21861230768263339996337890625</LatitudeDegrees>
              <LongitudeDegrees>-8.25868676416575908660888671875</LongitudeDegrees>
            </Position>
            <AltitudeMeters>113.1999969482421875</AltitudeMeters>
            <DistanceMeters>46976.886554102</DistanceMeters>
          </Trackpoint>
          <Trackpoint>
            <Time>2018-04-21T10:58:47.000Z</Time>
            <Position>
              <LatitudeDegrees>43.21867332793772220611572265625</LatitudeDegrees>
              <LongitudeDegrees>-8.2586611993610858917236328125</LongitudeDegrees>
            </Position>
            <AltitudeMeters>114</AltitudeMeters>
            <DistanceMeters>46983.987536207</DistanceMeters>
          </Trackpoint>
          <Trackpoint>
            <Time>2018-04-21T10:58:49.000Z</Time>
            <Position>
              <LatitudeDegrees>43.218711130321025848388671875</LatitudeDegrees>
              <LongitudeDegrees>-8.25863747857511043548583984375</LongitudeDegrees>
            </Position>
            <AltitudeMeters>114.59999847412109375</AltitudeMeters>
            <DistanceMeters>46988.614663961</DistanceMeters>
          </Trackpoint>
          <Trackpoint>
            <Time>2018-04-21T10:58:51.000Z</Time>
            <Position>
              <LatitudeDegrees>43.2187488488852977752685546875</LatitudeDegrees>
              <LongitudeDegrees>-8.25861476361751556396484375</LongitudeDegrees>
            </Position>
            <AltitudeMeters>115.1999969482421875</AltitudeMeters>
            <DistanceMeters>46993.199641383</DistanceMeters>
          </Trackpoint>
          <Trackpoint>
            <Time>2018-04-21T10:58:54.000Z</Time>
            <Position>
              <LatitudeDegrees>43.2188031636178493499755859375</LatitudeDegrees>
              <LongitudeDegrees>-8.258588947355747222900390625</LongitudeDegrees>
            </Position>
            <AltitudeMeters>116</AltitudeMeters>
            <DistanceMeters>46999.596852216</DistanceMeters>
          </Trackpoint>
          <Trackpoint>
            <Time>2018-04-21T10:58:55.000Z</Time>
            <Position>
              <LatitudeDegrees>43.2188229449093341827392578125</LatitudeDegrees>
              <LongitudeDegrees>-8.258576206862926483154296875</LongitudeDegrees>
            </Position>
            <AltitudeMeters>116.1999969482421875</AltitudeMeters>
            <DistanceMeters>47002.027010646</DistanceMeters>
          </Trackpoint>
          <Trackpoint>
            <Time>2018-04-21T10:58:59.000Z</Time>
            <Position>
              <LatitudeDegrees>43.21890098042786121368408203125</LatitudeDegrees>
              <LongitudeDegrees>-8.25853538699448108673095703125</LongitudeDegrees>
            </Position>
            <AltitudeMeters>117.1999969482421875</AltitudeMeters>
            <DistanceMeters>47011.322158381</DistanceMeters>
          </Trackpoint>
          <Trackpoint>
            <Time>2018-04-21T10:59:00.000Z</Time>
            <Position>
              <LatitudeDegrees>43.2189188338816165924072265625</LatitudeDegrees>
              <LongitudeDegrees>-8.2585197128355503082275390625</LongitudeDegrees>
            </Position>
            <AltitudeMeters>117.40000152587890625</AltitudeMeters>
            <DistanceMeters>47013.682572999</DistanceMeters>
          </Trackpoint>
          <Trackpoint>
            <Time>2018-04-21T10:59:01.000Z</Time>
            <Position>
              <LatitudeDegrees>43.2189392857253551483154296875</LatitudeDegrees>
              <LongitudeDegrees>-8.25850303284823894500732421875</LongitudeDegrees>
            </Position>
            <AltitudeMeters>117.8000030517578125</AltitudeMeters>
            <DistanceMeters>47016.329710948</DistanceMeters>
          </Trackpoint>
          <Trackpoint>
            <Time>2018-04-21T10:59:05.000Z</Time>
            <Position>
              <LatitudeDegrees>43.21902000345289707183837890625</LatitudeDegrees>
              <LongitudeDegrees>-8.2584358938038349151611328125</LongitudeDegrees>
            </Position>
            <AltitudeMeters>118.59999847412109375</AltitudeMeters>
            <DistanceMeters>47026.835213996</DistanceMeters>
          </Trackpoint>
          <Trackpoint>
            <Time>2018-04-21T10:59:07.000Z</Time>
            <Position>
              <LatitudeDegrees>43.2190676964819431304931640625</LatitudeDegrees>
              <LongitudeDegrees>-8.25840689241886138916015625</LongitudeDegrees>
            </Position>
            <AltitudeMeters>119.1999969482421875</AltitudeMeters>
            <DistanceMeters>47032.641182939</DistanceMeters>
          </Trackpoint>
          <Trackpoint>
            <Time>2018-04-21T10:59:12.000Z</Time>
            <Position>
              <LatitudeDegrees>43.2192115299403667449951171875</LatitudeDegrees>
              <LongitudeDegrees>-8.25831762515008449554443359375</LongitudeDegrees>
            </Position>
            <AltitudeMeters>119.59999847412109375</AltitudeMeters>
            <DistanceMeters>47050.211105913</DistanceMeters>
          </Trackpoint>
          <Trackpoint>
            <Time>2018-04-21T10:59:13.000Z</Time>
            <Position>
              <LatitudeDegrees>43.21924044750630855560302734375</LatitudeDegrees>
              <LongitudeDegrees>-8.2582991011440753936767578125</LongitudeDegrees>
            </Position>
            <AltitudeMeters>119.8000030517578125</AltitudeMeters>
            <DistanceMeters>47053.762868404</DistanceMeters>
          </Trackpoint>
          <Trackpoint>
            <Time>2018-04-21T10:59:18.000Z</Time>
            <Position>
              <LatitudeDegrees>43.2193989492952823638916015625</LatitudeDegrees>
              <LongitudeDegrees>-8.25820128433406352996826171875</LongitudeDegrees>
            </Position>
            <AltitudeMeters>122</AltitudeMeters>
            <DistanceMeters>47073.106349154</DistanceMeters>
          </Trackpoint>
          <Trackpoint>
            <Time>2018-04-21T10:59:19.000Z</Time>
            <Position>
              <LatitudeDegrees>43.2194318063557147979736328125</LatitudeDegrees>
              <LongitudeDegrees>-8.258179239928722381591796875</LongitudeDegrees>
            </Position>
            <AltitudeMeters>120.8000030517578125</AltitudeMeters>
            <DistanceMeters>47077.175889693</DistanceMeters>
          </Trackpoint>
          <Trackpoint>
            <Time>2018-04-21T10:59:20.000Z</Time>
            <Position>
              <LatitudeDegrees>43.219464831054210662841796875</LatitudeDegrees>
              <LongitudeDegrees>-8.2581549324095249176025390625</LongitudeDegrees>
            </Position>
            <AltitudeMeters>122.1999969482421875</AltitudeMeters>
            <DistanceMeters>47081.34841739</DistanceMeters>
          </Trackpoint>
          <Trackpoint>
            <Time>2018-04-21T10:59:21.000Z</Time>
            <Position>
              <LatitudeDegrees>43.21949760429561138153076171875</LatitudeDegrees>
              <LongitudeDegrees>-8.25813330709934234619140625</LongitudeDegrees>
            </Position>
            <AltitudeMeters>120.8000030517578125</AltitudeMeters>
            <DistanceMeters>47085.395707677</DistanceMeters>
          </Trackpoint>
          <Trackpoint>
            <Time>2018-04-21T10:59:28.000Z</Time>
            <Position>
              <LatitudeDegrees>43.21974344551563262939453125</LatitudeDegrees>
              <LongitudeDegrees>-8.2579815946519374847412109375</LongitudeDegrees>
            </Position>
            <AltitudeMeters>121.59999847412109375</AltitudeMeters>
            <DistanceMeters>47115.397975593</DistanceMeters>
          </Trackpoint>
          <Trackpoint>
            <Time>2018-04-21T10:59:35.000Z</Time>
            <Position>
              <LatitudeDegrees>43.22002951987087726593017578125</LatitudeDegrees>
              <LongitudeDegrees>-8.25780582614243030548095703125</LongitudeDegrees>
            </Position>
            <AltitudeMeters>121.59999847412109375</AltitudeMeters>
            <DistanceMeters>47150.284559019</DistanceMeters>
          </Trackpoint>
          <Trackpoint>
            <Time>2018-04-21T10:59:41.000Z</Time>
            <Position>
              <LatitudeDegrees>43.2203196175396442413330078125</LatitudeDegrees>
              <LongitudeDegrees>-8.25763349421322345733642578125</LongitudeDegrees>
            </Position>
            <AltitudeMeters>121.40000152587890625</AltitudeMeters>
            <DistanceMeters>47185.468705301</DistanceMeters>
          </Trackpoint>
          <Trackpoint>
            <Time>2018-04-21T10:59:42.000Z</Time>
            <Position>
              <LatitudeDegrees>43.22037502191960811614990234375</LatitudeDegrees>
              <LongitudeDegrees>-8.25761589221656322479248046875</LongitudeDegrees>
            </Position>
            <AltitudeMeters>121.1999969482421875</AltitudeMeters>
            <DistanceMeters>47191.799224969</DistanceMeters>
          </Trackpoint>
          <Trackpoint>
            <Time>2018-04-21T10:59:46.000Z</Time>
            <Position>
              <LatitudeDegrees>43.2206131517887115478515625</LatitudeDegrees>
              <LongitudeDegrees>-8.25753106735646724700927734375</LongitudeDegrees>
            </Position>
            <AltitudeMeters>120.59999847412109375</AltitudeMeters>
            <DistanceMeters>47219.181762606</DistanceMeters>
          </Trackpoint>
          <Trackpoint>
            <Time>2018-04-21T10:59:49.000Z</Time>
            <Position>
              <LatitudeDegrees>43.22079931385815143585205078125</LatitudeDegrees>
              <LongitudeDegrees>-8.25744775123894214630126953125</LongitudeDegrees>
            </Position>
            <AltitudeMeters>120.59999847412109375</AltitudeMeters>
            <DistanceMeters>47240.975844852</DistanceMeters>
          </Trackpoint>
          <Trackpoint>
            <Time>2018-04-21T10:59:51.000Z</Time>
            <Position>
              <LatitudeDegrees>43.22091666050255298614501953125</LatitudeDegrees>
              <LongitudeDegrees>-8.257377929985523223876953125</LongitudeDegrees>
            </Position>
            <AltitudeMeters>118.59999847412109375</AltitudeMeters>
            <DistanceMeters>47255.211468321</DistanceMeters>
          </Trackpoint>
          <Trackpoint>
            <Time>2018-04-21T10:59:52.000Z</Time>
            <Position>
              <LatitudeDegrees>43.22096980176866054534912109375</LatitudeDegrees>
              <LongitudeDegrees>-8.25733803212642669677734375</LongitudeDegrees>
            </Position>
            <AltitudeMeters>120.59999847412109375</AltitudeMeters>
            <DistanceMeters>47261.953678998</DistanceMeters>
          </Trackpoint>
          <Trackpoint>
            <Time>2018-04-21T10:59:53.000Z</Time>
            <Position>
              <LatitudeDegrees>43.2210186682641506195068359375</LatitudeDegrees>
              <LongitudeDegrees>-8.25729553587734699249267578125</LongitudeDegrees>
            </Position>
            <AltitudeMeters>118.8000030517578125</AltitudeMeters>
            <DistanceMeters>47268.393097531</DistanceMeters>
          </Trackpoint>
          <Trackpoint>
            <Time>2018-04-21T10:59:54.000Z</Time>
            <Position>
              <LatitudeDegrees>43.2210637629032135009765625</LatitudeDegrees>
              <LongitudeDegrees>-8.25725111179053783416748046875</LongitudeDegrees>
            </Position>
            <AltitudeMeters>119.59999847412109375</AltitudeMeters>
            <DistanceMeters>47274.570564896</DistanceMeters>
          </Trackpoint>
          <Trackpoint>
            <Time>2018-04-21T10:59:55.000Z</Time>
            <Position>
              <LatitudeDegrees>43.2211058400571346282958984375</LatitudeDegrees>
              <LongitudeDegrees>-8.257204927504062652587890625</LongitudeDegrees>
            </Position>
            <AltitudeMeters>120.40000152587890625</AltitudeMeters>
            <DistanceMeters>47280.56704423</DistanceMeters>
          </Trackpoint>
          <Trackpoint>
            <Time>2018-04-21T10:59:57.000Z</Time>
            <Position>
              <LatitudeDegrees>43.22117281146347522735595703125</LatitudeDegrees>
              <LongitudeDegrees>-8.2570907659828662872314453125</LongitudeDegrees>
            </Position>
            <AltitudeMeters>120.40000152587890625</AltitudeMeters>
            <DistanceMeters>47292.453742935</DistanceMeters>
          </Trackpoint>
          <Trackpoint>
            <Time>2018-04-21T10:59:58.000Z</Time>
            <Position>
              <LatitudeDegrees>43.2211940176784992218017578125</LatitudeDegrees>
              <LongitudeDegrees>-8.25702362693846225738525390625</LongitudeDegrees>
            </Position>
            <AltitudeMeters>120.40000152587890625</AltitudeMeters>
            <DistanceMeters>47298.389680796</DistanceMeters>
          </Trackpoint>
          <Trackpoint>
            <Time>2018-04-21T11:00:03.000Z</Time>
            <Position>
              <LatitudeDegrees>43.22124422527849674224853515625</LatitudeDegrees>
              <LongitudeDegrees>-8.25666974298655986785888671875</LongitudeDegrees>
            </Position>
            <AltitudeMeters>121.40000152587890625</AltitudeMeters>
            <DistanceMeters>47327.631363351</DistanceMeters>
          </Trackpoint>
          <Trackpoint>
            <Time>2018-04-21T11:00:04.000Z</Time>
            <Position>
              <LatitudeDegrees>43.22125076316297054290771484375</LatitudeDegrees>
              <LongitudeDegrees>-8.256602101027965545654296875</LongitudeDegrees>
            </Position>
            <AltitudeMeters>121.59999847412109375</AltitudeMeters>
            <DistanceMeters>47333.165802735</DistanceMeters>
          </Trackpoint>
          <Trackpoint>
            <Time>2018-04-21T11:00:09.000Z</Time>
            <Position>
              <LatitudeDegrees>43.2213237695395946502685546875</LatitudeDegrees>
              <LongitudeDegrees>-8.2562832534313201904296875</LongitudeDegrees>
            </Position>
            <AltitudeMeters>122.1999969482421875</AltitudeMeters>
            <DistanceMeters>47360.273078704</DistanceMeters>
          </Trackpoint>
          <Trackpoint>
            <Time>2018-04-21T11:00:12.000Z</Time>
            <Position>
              <LatitudeDegrees>43.22139241732656955718994140625</LatitudeDegrees>
              <LongitudeDegrees>-8.25611167587339878082275390625</LongitudeDegrees>
            </Position>
            <AltitudeMeters>122.59999847412109375</AltitudeMeters>
            <DistanceMeters>47376.148513613</DistanceMeters>
          </Trackpoint>
          <Trackpoint>
            <Time>2018-04-21T11:00:15.000Z</Time>
            <Position>
              <LatitudeDegrees>43.2215021364390850067138671875</LatitudeDegrees>
              <LongitudeDegrees>-8.2560364902019500732421875</LongitudeDegrees>
            </Position>
            <AltitudeMeters>122.8000030517578125</AltitudeMeters>
            <DistanceMeters>47389.798002146</DistanceMeters>
          </Trackpoint>
          <Trackpoint>
            <Time>2018-04-21T11:00:18.000Z</Time>
            <Position>
              <LatitudeDegrees>43.22160129435360431671142578125</LatitudeDegrees>
              <LongitudeDegrees>-8.2560748793184757232666015625</LongitudeDegrees>
            </Position>
            <AltitudeMeters>123.8000030517578125</AltitudeMeters>
            <DistanceMeters>47401.265171508</DistanceMeters>
          </Trackpoint>
          <Trackpoint>
            <Time>2018-04-21T11:00:19.000Z</Time>
            <Position>
              <LatitudeDegrees>43.221635408699512481689453125</LatitudeDegrees>
              <LongitudeDegrees>-8.25609080493450164794921875</LongitudeDegrees>
            </Position>
            <AltitudeMeters>124.1999969482421875</AltitudeMeters>
            <DistanceMeters>47405.276604696</DistanceMeters>
          </Trackpoint>
          <Trackpoint>
            <Time>2018-04-21T11:00:22.000Z</Time>
            <Position>
              <LatitudeDegrees>43.2217344827950000762939453125</LatitudeDegrees>
              <LongitudeDegrees>-8.25612810440361499786376953125</LongitudeDegrees>
            </Position>
            <AltitudeMeters>125</AltitudeMeters>
            <DistanceMeters>47416.711442119</DistanceMeters>
          </Trackpoint>
          <Trackpoint>
            <Time>2018-04-21T11:00:24.000Z</Time>
            <Position>
              <LatitudeDegrees>43.22179642505943775177001953125</LatitudeDegrees>
              <LongitudeDegrees>-8.2561516575515270233154296875</LongitudeDegrees>
            </Position>
            <AltitudeMeters>125.59999847412109375</AltitudeMeters>
            <DistanceMeters>47423.865003695</DistanceMeters>
          </Trackpoint>
          <Trackpoint>
            <Time>2018-04-21T11:00:26.000Z</Time>
            <Position>
              <LatitudeDegrees>43.22185476310551166534423828125</LatitudeDegrees>
              <LongitudeDegrees>-8.25618023984134197235107421875</LongitudeDegrees>
            </Position>
            <AltitudeMeters>126.40000152587890625</AltitudeMeters>
            <DistanceMeters>47430.75951763</DistanceMeters>
          </Trackpoint>
          <Trackpoint>
            <Time>2018-04-21T11:00:28.000Z</Time>
            <Position>
              <LatitudeDegrees>43.22191628627479076385498046875</LatitudeDegrees>
              <LongitudeDegrees>-8.2562135159969329833984375</LongitudeDegrees>
            </Position>
            <AltitudeMeters>126.8000030517578125</AltitudeMeters>
            <DistanceMeters>47438.120255274</DistanceMeters>
          </Trackpoint>
          <Trackpoint>
            <Time>2018-04-21T11:00:31.000Z</Time>
            <Position>
              <LatitudeDegrees>43.22202466428279876708984375</LatitudeDegrees>
              <LongitudeDegrees>-8.256254754960536956787109375</LongitudeDegrees>
            </Position>
            <AltitudeMeters>127.40000152587890625</AltitudeMeters>
            <DistanceMeters>47450.638559736</DistanceMeters>
          </Trackpoint>
          <Trackpoint>
            <Time>2018-04-21T11:00:32.000Z</Time>
            <Position>
              <LatitudeDegrees>43.22206364013254642486572265625</LatitudeDegrees>
              <LongitudeDegrees>-8.25625986792147159576416015625</LongitudeDegrees>
            </Position>
            <AltitudeMeters>127.40000152587890625</AltitudeMeters>
            <DistanceMeters>47454.997376185</DistanceMeters>
          </Trackpoint>
          <Trackpoint>
            <Time>2018-04-21T11:00:35.000Z</Time>
            <Position>
              <LatitudeDegrees>43.22219221852719783782958984375</LatitudeDegrees>
              <LongitudeDegrees>-8.25626288540661334991455078125</LongitudeDegrees>
            </Position>
            <AltitudeMeters>127.1999969482421875</AltitudeMeters>
            <DistanceMeters>47469.310494094</DistanceMeters>
          </Trackpoint>
          <Trackpoint>
            <Time>2018-04-21T11:00:38.000Z</Time>
            <Position>
              <LatitudeDegrees>43.2223386503756046295166015625</LatitudeDegrees>
              <LongitudeDegrees>-8.2562421821057796478271484375</LongitudeDegrees>
            </Position>
            <AltitudeMeters>126.8000030517578125</AltitudeMeters>
            <DistanceMeters>47485.694819302</DistanceMeters>
          </Trackpoint>
          <Trackpoint>
            <Time>2018-04-21T11:00:40.000Z</Time>
            <Position>
              <LatitudeDegrees>43.22245574556291103363037109375</LatitudeDegrees>
              <LongitudeDegrees>-8.2562321238219738006591796875</LongitudeDegrees>
            </Position>
            <AltitudeMeters>126.1999969482421875</AltitudeMeters>
            <DistanceMeters>47498.75330174</DistanceMeters>
          </Trackpoint>
          <Trackpoint>
            <Time>2018-04-21T11:00:43.000Z</Time>
            <Position>
              <LatitudeDegrees>43.222667388617992401123046875</LatitudeDegrees>
              <LongitudeDegrees>-8.25624234974384307861328125</LongitudeDegrees>
            </Position>
            <AltitudeMeters>125.8000030517578125</AltitudeMeters>
            <DistanceMeters>47522.324141421</DistanceMeters>
          </Trackpoint>
          <Trackpoint>
            <Time>2018-04-21T11:00:45.000Z</Time>
            <Position>
              <LatitudeDegrees>43.2228244654834270477294921875</LatitudeDegrees>
              <LongitudeDegrees>-8.25625450350344181060791015625</LongitudeDegrees>
            </Position>
            <AltitudeMeters>124.59999847412109375</AltitudeMeters>
            <DistanceMeters>47539.834860302</DistanceMeters>
          </Trackpoint>
          <Trackpoint>
            <Time>2018-04-21T11:00:49.000Z</Time>
            <Position>
              <LatitudeDegrees>43.2231607474386692047119140625</LatitudeDegrees>
              <LongitudeDegrees>-8.2562884502112865447998046875</LongitudeDegrees>
            </Position>
            <AltitudeMeters>123.40000152587890625</AltitudeMeters>
            <DistanceMeters>47577.364999174</DistanceMeters>
          </Trackpoint>
          <Trackpoint>
            <Time>2018-04-21T11:00:51.000Z</Time>
            <Position>
              <LatitudeDegrees>43.223339617252349853515625</LatitudeDegrees>
              <LongitudeDegrees>-8.2563047111034393310546875</LongitudeDegrees>
            </Position>
            <AltitudeMeters>122.1999969482421875</AltitudeMeters>
            <DistanceMeters>47597.317441383</DistanceMeters>
          </Trackpoint>
          <Trackpoint>
            <Time>2018-04-21T11:00:54.000Z</Time>
            <Position>
              <LatitudeDegrees>43.2236123643815517425537109375</LatitudeDegrees>
              <LongitudeDegrees>-8.25637838803231716156005859375</LongitudeDegrees>
            </Position>
            <AltitudeMeters>120.8000030517578125</AltitudeMeters>
            <DistanceMeters>47628.257357411</DistanceMeters>
          </Trackpoint>
          <Trackpoint>
            <Time>2018-04-21T11:00:55.000Z</Time>
            <Position>
              <LatitudeDegrees>43.2237002067267894744873046875</LatitudeDegrees>
              <LongitudeDegrees>-8.2564239017665386199951171875</LongitudeDegrees>
            </Position>
            <AltitudeMeters>120.1999969482421875</AltitudeMeters>
            <DistanceMeters>47638.708136071</DistanceMeters>
          </Trackpoint>
          <Trackpoint>
            <Time>2018-04-21T11:00:57.000Z</Time>
            <Position>
              <LatitudeDegrees>43.223865665495395660400390625</LatitudeDegrees>
              <LongitudeDegrees>-8.2565164379775524139404296875</LongitudeDegrees>
            </Position>
            <AltitudeMeters>119.59999847412109375</AltitudeMeters>
            <DistanceMeters>47658.594391822</DistanceMeters>
          </Trackpoint>
          <Trackpoint>
            <Time>2018-04-21T11:00:59.000Z</Time>
            <Position>
              <LatitudeDegrees>43.2240247540175914764404296875</LatitudeDegrees>
              <LongitudeDegrees>-8.25659866444766521453857421875</LongitudeDegrees>
            </Position>
            <AltitudeMeters>119.59999847412109375</AltitudeMeters>
            <DistanceMeters>47677.515449157</DistanceMeters>
          </Trackpoint>
          <Trackpoint>
            <Time>2018-04-21T11:01:01.000Z</Time>
            <Position>
              <LatitudeDegrees>43.224176131188869476318359375</LatitudeDegrees>
              <LongitudeDegrees>-8.256665803492069244384765625</LongitudeDegrees>
            </Position>
            <AltitudeMeters>119.8000030517578125</AltitudeMeters>
            <DistanceMeters>47695.222575245</DistanceMeters>
          </Trackpoint>
          <Trackpoint>
            <Time>2018-04-21T11:01:04.000Z</Time>
            <Position>
              <LatitudeDegrees>43.2243828289210796356201171875</LatitudeDegrees>
              <LongitudeDegrees>-8.25674367137253284454345703125</LongitudeDegrees>
            </Position>
            <AltitudeMeters>119.40000152587890625</AltitudeMeters>
            <DistanceMeters>47719.079769511</DistanceMeters>
          </Trackpoint>
          <Trackpoint>
            <Time>2018-04-21T11:01:06.000Z</Time>
            <Position>
              <LatitudeDegrees>43.2245132513344287872314453125</LatitudeDegrees>
              <LongitudeDegrees>-8.25677216984331607818603515625</LongitudeDegrees>
            </Position>
            <AltitudeMeters>118.59999847412109375</AltitudeMeters>
            <DistanceMeters>47733.779146</DistanceMeters>
          </Trackpoint>
          <Trackpoint>
            <Time>2018-04-21T11:01:07.000Z</Time>
            <Position>
              <LatitudeDegrees>43.22457603178918361663818359375</LatitudeDegrees>
              <LongitudeDegrees>-8.25677770189940929412841796875</LongitudeDegrees>
            </Position>
            <AltitudeMeters>118.40000152587890625</AltitudeMeters>
            <DistanceMeters>47740.781525245</DistanceMeters>
          </Trackpoint>
          <Trackpoint>
            <Time>2018-04-21T11:01:09.000Z</Time>
            <Position>
              <LatitudeDegrees>43.224702514708042144775390625</LatitudeDegrees>
              <LongitudeDegrees>-8.25677250511944293975830078125</LongitudeDegrees>
            </Position>
            <AltitudeMeters>118.1999969482421875</AltitudeMeters>
            <DistanceMeters>47754.866010302</DistanceMeters>
          </Trackpoint>
          <Trackpoint>
            <Time>2018-04-21T11:01:16.000Z</Time>
            <Position>
              <LatitudeDegrees>43.22512018494307994842529296875</LatitudeDegrees>
              <LongitudeDegrees>-8.25668382458388805389404296875</LongitudeDegrees>
            </Position>
            <AltitudeMeters>118.40000152587890625</AltitudeMeters>
            <DistanceMeters>47801.906633518</DistanceMeters>
          </Trackpoint>
          <Trackpoint>
            <Time>2018-04-21T11:01:21.000Z</Time>
            <Position>
              <LatitudeDegrees>43.22539863176643848419189453125</LatitudeDegrees>
              <LongitudeDegrees>-8.25659983791410923004150390625</LongitudeDegrees>
            </Position>
            <AltitudeMeters>119.1999969482421875</AltitudeMeters>
            <DistanceMeters>47833.638157967</DistanceMeters>
          </Trackpoint>
          <Trackpoint>
            <Time>2018-04-21T11:01:22.000Z</Time>
            <Position>
              <LatitudeDegrees>43.22545227594673633575439453125</LatitudeDegrees>
              <LongitudeDegrees>-8.2566076330840587615966796875</LongitudeDegrees>
            </Position>
            <AltitudeMeters>119.1999969482421875</AltitudeMeters>
            <DistanceMeters>47839.642162061</DistanceMeters>
          </Trackpoint>
          <Trackpoint>
            <Time>2018-04-21T11:01:25.000Z</Time>
            <Position>
              <LatitudeDegrees>43.2256032340228557586669921875</LatitudeDegrees>
              <LongitudeDegrees>-8.25671701692044734954833984375</LongitudeDegrees>
            </Position>
            <AltitudeMeters>118.8000030517578125</AltitudeMeters>
            <DistanceMeters>47858.642277747</DistanceMeters>
          </Trackpoint>
          <Trackpoint>
            <Time>2018-04-21T11:01:29.000Z</Time>
            <Position>
              <LatitudeDegrees>43.2257598079741001129150390625</LatitudeDegrees>
              <LongitudeDegrees>-8.25695045292377471923828125</LongitudeDegrees>
            </Position>
            <AltitudeMeters>118.1999969482421875</AltitudeMeters>
            <DistanceMeters>47884.373996018</DistanceMeters>
          </Trackpoint>
          <Trackpoint>
            <Time>2018-04-21T11:01:31.000Z</Time>
            <Position>
              <LatitudeDegrees>43.22585091926157474517822265625</LatitudeDegrees>
              <LongitudeDegrees>-8.25699915178120136260986328125</LongitudeDegrees>
            </Position>
            <AltitudeMeters>116.59999847412109375</AltitudeMeters>
            <DistanceMeters>47895.256940594</DistanceMeters>
          </Trackpoint>
          <Trackpoint>
            <Time>2018-04-21T11:01:32.000Z</Time>
            <Position>
              <LatitudeDegrees>43.225900121033191680908203125</LatitudeDegrees>
              <LongitudeDegrees>-8.256993032991886138916015625</LongitudeDegrees>
            </Position>
            <AltitudeMeters>116.40000152587890625</AltitudeMeters>
            <DistanceMeters>47900.755367272</DistanceMeters>
          </Trackpoint>
          <Trackpoint>
            <Time>2018-04-21T11:01:35.000Z</Time>
            <Position>
              <LatitudeDegrees>43.2260464690625667572021484375</LatitudeDegrees>
              <LongitudeDegrees>-8.25689286924898624420166015625</LongitudeDegrees>
            </Position>
            <AltitudeMeters>116.40000152587890625</AltitudeMeters>
            <DistanceMeters>47918.95738652</DistanceMeters>
          </Trackpoint>
          <Trackpoint>
            <Time>2018-04-21T11:01:41.000Z</Time>
            <Position>
              <LatitudeDegrees>43.22635567747056484222412109375</LatitudeDegrees>
              <LongitudeDegrees>-8.25668625533580780029296875</LongitudeDegrees>
            </Position>
            <AltitudeMeters>115.8000030517578125</AltitudeMeters>
            <DistanceMeters>47957.2353455</DistanceMeters>
          </Trackpoint>
          <Trackpoint>
            <Time>2018-04-21T11:01:42.000Z</Time>
            <Position>
              <LatitudeDegrees>43.22641166858375072479248046875</LatitudeDegrees>
              <LongitudeDegrees>-8.25666186399757862091064453125</LongitudeDegrees>
            </Position>
            <AltitudeMeters>115.59999847412109375</AltitudeMeters>
            <DistanceMeters>47963.773570174</DistanceMeters>
          </Trackpoint>
          <Trackpoint>
            <Time>2018-04-21T11:01:43.000Z</Time>
            <Position>
              <LatitudeDegrees>43.2264675758779048919677734375</LatitudeDegrees>
              <LongitudeDegrees>-8.256638981401920318603515625</LongitudeDegrees>
            </Position>
            <AltitudeMeters>115.40000152587890625</AltitudeMeters>
            <DistanceMeters>47970.267448598</DistanceMeters>
          </Trackpoint>
          <Trackpoint>
            <Time>2018-04-21T11:01:45.000Z</Time>
            <Position>
              <LatitudeDegrees>43.22657561860978603363037109375</LatitudeDegrees>
              <LongitudeDegrees>-8.25662347488105297088623046875</LongitudeDegrees>
            </Position>
            <AltitudeMeters>115</AltitudeMeters>
            <DistanceMeters>47982.358641163</DistanceMeters>
          </Trackpoint>
          <Trackpoint>
            <Time>2018-04-21T11:01:47.000Z</Time>
            <Position>
              <LatitudeDegrees>43.22669145651161670684814453125</LatitudeDegrees>
              <LongitudeDegrees>-8.25665147043764591217041015625</LongitudeDegrees>
            </Position>
            <AltitudeMeters>114.1999969482421875</AltitudeMeters>
            <DistanceMeters>47995.450274021</DistanceMeters>
          </Trackpoint>
          <Trackpoint>
            <Time>2018-04-21T11:01:50.000Z</Time>
            <Position>
              <LatitudeDegrees>43.22686068713665008544921875</LatitudeDegrees>
              <LongitudeDegrees>-8.2565841637551784515380859375</LongitudeDegrees>
            </Position>
            <AltitudeMeters>114.40000152587890625</AltitudeMeters>
            <DistanceMeters>48015.061034478</DistanceMeters>
          </Trackpoint>
          <Trackpoint>
            <Time>2018-04-21T11:01:53.000Z</Time>
            <Position>
              <LatitudeDegrees>43.2269919477403163909912109375</LatitudeDegrees>
              <LongitudeDegrees>-8.256392218172550201416015625</LongitudeDegrees>
            </Position>
            <AltitudeMeters>113.8000030517578125</AltitudeMeters>
            <DistanceMeters>48036.40971168</DistanceMeters>
          </Trackpoint>
          <Trackpoint>
            <Time>2018-04-21T11:01:54.000Z</Time>
            <Position>
              <LatitudeDegrees>43.22702187113463878631591796875</LatitudeDegrees>
              <LongitudeDegrees>-8.25629423372447490692138671875</LongitudeDegrees>
            </Position>
            <AltitudeMeters>112.8000030517578125</AltitudeMeters>
            <DistanceMeters>48045.026282258</DistanceMeters>
          </Trackpoint>
          <Trackpoint>
            <Time>2018-04-21T11:01:55.000Z</Time>
            <Position>
              <LatitudeDegrees>43.22704902850091457366943359375</LatitudeDegrees>
              <LongitudeDegrees>-8.2561925612390041351318359375</LongitudeDegrees>
            </Position>
            <AltitudeMeters>111.8000030517578125</AltitudeMeters>
            <DistanceMeters>48053.80841656</DistanceMeters>
          </Trackpoint>
          <Trackpoint>
            <Time>2018-04-21T11:01:56.000Z</Time>
            <Position>
              <LatitudeDegrees>43.2270705699920654296875</LatitudeDegrees>
              <LongitudeDegrees>-8.25609348714351654052734375</LongitudeDegrees>
            </Position>
            <AltitudeMeters>111</AltitudeMeters>
            <DistanceMeters>48062.192875106</DistanceMeters>
          </Trackpoint>
          <Trackpoint>
            <Time>2018-04-21T11:01:57.000Z</Time>
            <Position>
              <LatitudeDegrees>43.2270804606378078460693359375</LatitudeDegrees>
              <LongitudeDegrees>-8.2559927366673946380615234375</LongitudeDegrees>
            </Position>
            <AltitudeMeters>110.1999969482421875</AltitudeMeters>
            <DistanceMeters>48070.437229866</DistanceMeters>
          </Trackpoint>
          <Trackpoint>
            <Time>2018-04-21T11:01:58.000Z</Time>
            <Position>
              <LatitudeDegrees>43.22708062827587127685546875</LatitudeDegrees>
              <LongitudeDegrees>-8.25588804669678211212158203125</LongitudeDegrees>
            </Position>
            <AltitudeMeters>109.40000152587890625</AltitudeMeters>
            <DistanceMeters>48078.928173884</DistanceMeters>
          </Trackpoint>
          <Trackpoint>
            <Time>2018-04-21T11:02:00.000Z</Time>
            <Position>
              <LatitudeDegrees>43.22706059552729129791259765625</LatitudeDegrees>
              <LongitudeDegrees>-8.25565217994153499603271484375</LongitudeDegrees>
            </Position>
            <AltitudeMeters>107.59999847412109375</AltitudeMeters>
            <DistanceMeters>48098.186504542</DistanceMeters>
          </Trackpoint>
          <Trackpoint>
            <Time>2018-04-21T11:02:01.000Z</Time>
            <Position>
              <LatitudeDegrees>43.22704249061644077301025390625</LatitudeDegrees>
              <LongitudeDegrees>-8.25552410446107387542724609375</LongitudeDegrees>
            </Position>
            <AltitudeMeters>106.8000030517578125</AltitudeMeters>
            <DistanceMeters>48108.766524749</DistanceMeters>
          </Trackpoint>
          <Trackpoint>
            <Time>2018-04-21T11:02:02.000Z</Time>
            <Position>
              <LatitudeDegrees>43.22702270932495594024658203125</LatitudeDegrees>
              <LongitudeDegrees>-8.25539686717092990875244140625</LongitudeDegrees>
            </Position>
            <AltitudeMeters>105.8000030517578125</AltitudeMeters>
            <DistanceMeters>48119.317913875</DistanceMeters>
          </Trackpoint>
          <Trackpoint>
            <Time>2018-04-21T11:02:03.000Z</Time>
            <Position>
              <LatitudeDegrees>43.22700125165283679962158203125</LatitudeDegrees>
              <LongitudeDegrees>-8.25527809560298919677734375</LongitudeDegrees>
            </Position>
            <AltitudeMeters>104.59999847412109375</AltitudeMeters>
            <DistanceMeters>48129.241724317</DistanceMeters>
          </Trackpoint>
          <Trackpoint>
            <Time>2018-04-21T11:02:04.000Z</Time>
            <Position>
              <LatitudeDegrees>43.2269768603146076202392578125</LatitudeDegrees>
              <LongitudeDegrees>-8.2551646046340465545654296875</LongitudeDegrees>
            </Position>
            <AltitudeMeters>103.40000152587890625</AltitudeMeters>
            <DistanceMeters>48138.838011077</DistanceMeters>
          </Trackpoint>
          <Trackpoint>
            <Time>2018-04-21T11:02:05.000Z</Time>
            <Position>
              <LatitudeDegrees>43.22695381008088588714599609375</LatitudeDegrees>
              <LongitudeDegrees>-8.25505790300667285919189453125</LongitudeDegrees>
            </Position>
            <AltitudeMeters>102.40000152587890625</AltitudeMeters>
            <DistanceMeters>48147.864048396</DistanceMeters>
          </Trackpoint>
          <Trackpoint>
            <Time>2018-04-21T11:02:06.000Z</Time>
            <Position>
              <LatitudeDegrees>43.22693050839006900787353515625</LatitudeDegrees>
              <LongitudeDegrees>-8.25496788136661052703857421875</LongitudeDegrees>
            </Position>
            <AltitudeMeters>100.8000030517578125</AltitudeMeters>
            <DistanceMeters>48155.612077061</DistanceMeters>
          </Trackpoint>
          <Trackpoint>
            <Time>2018-04-21T11:02:08.000Z</Time>
            <Position>
              <LatitudeDegrees>43.22690703906118869781494140625</LatitudeDegrees>
              <LongitudeDegrees>-8.25481700710952281951904296875</LongitudeDegrees>
            </Position>
            <AltitudeMeters>99.8000030517578125</AltitudeMeters>
            <DistanceMeters>48168.123887691</DistanceMeters>
          </Trackpoint>
          <Trackpoint>
            <Time>2018-04-21T11:02:09.000Z</Time>
            <Position>
              <LatitudeDegrees>43.2269248925149440765380859375</LatitudeDegrees>
              <LongitudeDegrees>-8.25474492274224758148193359375</LongitudeDegrees>
            </Position>
            <AltitudeMeters>99.59999847412109375</AltitudeMeters>
            <DistanceMeters>48174.297699534</DistanceMeters>
          </Trackpoint>
          <Trackpoint>
            <Time>2018-04-21T11:02:11.000Z</Time>
            <Position>
              <LatitudeDegrees>43.2270107232034206390380859375</LatitudeDegrees>
              <LongitudeDegrees>-8.25461852364242076873779296875</LongitudeDegrees>
            </Position>
            <AltitudeMeters>97.1999969482421875</AltitudeMeters>
            <DistanceMeters>48188.310193323</DistanceMeters>
          </Trackpoint>
          <Trackpoint>
            <Time>2018-04-21T11:02:12.000Z</Time>
            <Position>
              <LatitudeDegrees>43.22705975733697414398193359375</LatitudeDegrees>
              <LongitudeDegrees>-8.25455934740602970123291015625</LongitudeDegrees>
            </Position>
            <AltitudeMeters>97.59999847412109375</AltitudeMeters>
            <DistanceMeters>48195.578339386</DistanceMeters>
          </Trackpoint>
          <Trackpoint>
            <Time>2018-04-21T11:02:16.000Z</Time>
            <Position>
              <LatitudeDegrees>43.22729922831058502197265625</LatitudeDegrees>
              <LongitudeDegrees>-8.2543465308845043182373046875</LongitudeDegrees>
            </Position>
            <AltitudeMeters>96</AltitudeMeters>
            <DistanceMeters>48227.332053118</DistanceMeters>
          </Trackpoint>
          <Trackpoint>
            <Time>2018-04-21T11:02:19.000Z</Time>
            <Position>
              <LatitudeDegrees>43.22752377949655055999755859375</LatitudeDegrees>
              <LongitudeDegrees>-8.25419942848384380340576171875</LongitudeDegrees>
            </Position>
            <AltitudeMeters>94.8000030517578125</AltitudeMeters>
            <DistanceMeters>48255.026431118</DistanceMeters>
          </Trackpoint>
          <Trackpoint>
            <Time>2018-04-21T11:02:21.000Z</Time>
            <Position>
              <LatitudeDegrees>43.22768437676131725311279296875</LatitudeDegrees>
              <LongitudeDegrees>-8.2541024498641490936279296875</LongitudeDegrees>
            </Position>
            <AltitudeMeters>93.59999847412109375</AltitudeMeters>
            <DistanceMeters>48274.554825532</DistanceMeters>
          </Trackpoint>
          <Trackpoint>
            <Time>2018-04-21T11:02:23.000Z</Time>
            <Position>
              <LatitudeDegrees>43.22785184718668460845947265625</LatitudeDegrees>
              <LongitudeDegrees>-8.2539928145706653594970703125</LongitudeDegrees>
            </Position>
            <AltitudeMeters>92.1999969482421875</AltitudeMeters>
            <DistanceMeters>48295.206909461</DistanceMeters>
          </Trackpoint>
          <Trackpoint>
            <Time>2018-04-21T11:02:25.000Z</Time>
            <Position>
              <LatitudeDegrees>43.2280038110911846160888671875</LatitudeDegrees>
              <LongitudeDegrees>-8.25389533303678035736083984375</LongitudeDegrees>
            </Position>
            <AltitudeMeters>91</AltitudeMeters>
            <DistanceMeters>48313.877180238</DistanceMeters>
          </Trackpoint>
          <Trackpoint>
            <Time>2018-04-21T11:02:26.000Z</Time>
            <Position>
              <LatitudeDegrees>43.22806659154593944549560546875</LatitudeDegrees>
              <LongitudeDegrees>-8.253854848444461822509765625</LongitudeDegrees>
            </Position>
            <AltitudeMeters>90.1999969482421875</AltitudeMeters>
            <DistanceMeters>48321.598356617</DistanceMeters>
          </Trackpoint>
          <Trackpoint>
            <Time>2018-04-21T11:02:27.000Z</Time>
            <Position>
              <LatitudeDegrees>43.22811839170753955841064453125</LatitudeDegrees>
              <LongitudeDegrees>-8.25381754897534847259521484375</LongitudeDegrees>
            </Position>
            <AltitudeMeters>89.40000152587890625</AltitudeMeters>
            <DistanceMeters>48328.108900284</DistanceMeters>
          </Trackpoint>
          <Trackpoint>
            <Time>2018-04-21T11:02:28.000Z</Time>
            <Position>
              <LatitudeDegrees>43.228157199919223785400390625</LatitudeDegrees>
              <LongitudeDegrees>-8.25377832166850566864013671875</LongitudeDegrees>
            </Position>
            <AltitudeMeters>88.59999847412109375</AltitudeMeters>
            <DistanceMeters>48333.473492871</DistanceMeters>
          </Trackpoint>
          <Trackpoint>
            <Time>2018-04-21T11:02:29.000Z</Time>
            <Position>
              <LatitudeDegrees>43.22818025015294551849365234375</LatitudeDegrees>
              <LongitudeDegrees>-8.253730125725269317626953125</LongitudeDegrees>
            </Position>
            <AltitudeMeters>88</AltitudeMeters>
            <DistanceMeters>48338.150120411</DistanceMeters>
          </Trackpoint>
          <Trackpoint>
            <Time>2018-04-21T11:02:32.000Z</Time>
            <Position>
              <LatitudeDegrees>43.22814655490219593048095703125</LatitudeDegrees>
              <LongitudeDegrees>-8.25354044325649738311767578125</LongitudeDegrees>
            </Position>
            <AltitudeMeters>87</AltitudeMeters>
            <DistanceMeters>48353.983977881</DistanceMeters>
          </Trackpoint>
          <Trackpoint>
            <Time>2018-04-21T11:02:33.000Z</Time>
            <Position>
              <LatitudeDegrees>43.22811671532690525054931640625</LatitudeDegrees>
              <LongitudeDegrees>-8.253463916480541229248046875</LongitudeDegrees>
            </Position>
            <AltitudeMeters>86.40000152587890625</AltitudeMeters>
            <DistanceMeters>48361.023013997</DistanceMeters>
          </Trackpoint>
          <Trackpoint>
            <Time>2018-04-21T11:02:37.000Z</Time>
            <Position>
              <LatitudeDegrees>43.2279873825609683990478515625</LatitudeDegrees>
              <LongitudeDegrees>-8.2531398721039295196533203125</LongitudeDegrees>
            </Position>
            <AltitudeMeters>86</AltitudeMeters>
            <DistanceMeters>48390.986731733</DistanceMeters>
          </Trackpoint>
          <Trackpoint>
            <Time>2018-04-21T11:02:38.000Z</Time>
            <Position>
              <LatitudeDegrees>43.22798545472323894500732421875</LatitudeDegrees>
              <LongitudeDegrees>-8.25307491235435009002685546875</LongitudeDegrees>
            </Position>
            <AltitudeMeters>85</AltitudeMeters>
            <DistanceMeters>48396.258787811</DistanceMeters>
          </Trackpoint>
          <Trackpoint>
            <Time>2018-04-21T11:02:39.000Z</Time>
            <Position>
              <LatitudeDegrees>43.2280064933001995086669921875</LatitudeDegrees>
              <LongitudeDegrees>-8.2530117966234683990478515625</LongitudeDegrees>
            </Position>
            <AltitudeMeters>84.1999969482421875</AltitudeMeters>
            <DistanceMeters>48401.88706536</DistanceMeters>
          </Trackpoint>
          <Trackpoint>
            <Time>2018-04-21T11:02:40.000Z</Time>
            <Position>
              <LatitudeDegrees>43.22804354131221771240234375</LatitudeDegrees>
              <LongitudeDegrees>-8.25295371003448963165283203125</LongitudeDegrees>
            </Position>
            <AltitudeMeters>83.40000152587890625</AltitudeMeters>
            <DistanceMeters>48408.147299522</DistanceMeters>
          </Trackpoint>
          <Trackpoint>
            <Time>2018-04-21T11:02:41.000Z</Time>
            <Position>
              <LatitudeDegrees>43.22809542529284954071044921875</LatitudeDegrees>
              <LongitudeDegrees>-8.2529071904718875885009765625</LongitudeDegrees>
            </Position>
            <AltitudeMeters>82.40000152587890625</AltitudeMeters>
            <DistanceMeters>48415.04508705</DistanceMeters>
          </Trackpoint>
          <Trackpoint>
            <Time>2018-04-21T11:02:42.000Z</Time>
            <Position>
              <LatitudeDegrees>43.22815661318600177764892578125</LatitudeDegrees>
              <LongitudeDegrees>-8.25286234728991985321044921875</LongitudeDegrees>
            </Position>
            <AltitudeMeters>81.8000030517578125</AltitudeMeters>
            <DistanceMeters>48422.76509382</DistanceMeters>
          </Trackpoint>
          <Trackpoint>
            <Time>2018-04-21T11:02:43.000Z</Time>
            <Position>
              <LatitudeDegrees>43.22822433896362781524658203125</LatitudeDegrees>
              <LongitudeDegrees>-8.25281716883182525634765625</LongitudeDegrees>
            </Position>
            <AltitudeMeters>81.1999969482421875</AltitudeMeters>
            <DistanceMeters>48431.146320739</DistanceMeters>
          </Trackpoint>
          <Trackpoint>
            <Time>2018-04-21T11:02:45.000Z</Time>
            <Position>
              <LatitudeDegrees>43.2283699326217174530029296875</LatitudeDegrees>
              <LongitudeDegrees>-8.2527020014822483062744140625</LongitudeDegrees>
            </Position>
            <AltitudeMeters>79.8000030517578125</AltitudeMeters>
            <DistanceMeters>48449.850175729</DistanceMeters>
          </Trackpoint>
          <Trackpoint>
            <Time>2018-04-21T11:02:46.000Z</Time>
            <Position>
              <LatitudeDegrees>43.2284483872354030609130859375</LatitudeDegrees>
              <LongitudeDegrees>-8.2526436634361743927001953125</LongitudeDegrees>
            </Position>
            <AltitudeMeters>79</AltitudeMeters>
            <DistanceMeters>48459.78217226</DistanceMeters>
          </Trackpoint>
          <Trackpoint>
            <Time>2018-04-21T11:02:47.000Z</Time>
            <Position>
              <LatitudeDegrees>43.22852994315326213836669921875</LatitudeDegrees>
              <LongitudeDegrees>-8.25258515775203704833984375</LongitudeDegrees>
            </Position>
            <AltitudeMeters>78.40000152587890625</AltitudeMeters>
            <DistanceMeters>48470.024800249</DistanceMeters>
          </Trackpoint>
          <Trackpoint>
            <Time>2018-04-21T11:02:51.000Z</Time>
            <Position>
              <LatitudeDegrees>43.228855915367603302001953125</LatitudeDegrees>
              <LongitudeDegrees>-8.252349793910980224609375</LongitudeDegrees>
            </Position>
            <AltitudeMeters>77</AltitudeMeters>
            <DistanceMeters>48511.020760997</DistanceMeters>
          </Trackpoint>
          <Trackpoint>
            <Time>2018-04-21T11:02:52.000Z</Time>
            <Position>
              <LatitudeDegrees>43.2289338670670986175537109375</LatitudeDegrees>
              <LongitudeDegrees>-8.252293132245540618896484375</LongitudeDegrees>
            </Position>
            <AltitudeMeters>76.40000152587890625</AltitudeMeters>
            <DistanceMeters>48520.838450948</DistanceMeters>
          </Trackpoint>
          <Trackpoint>
            <Time>2018-04-21T11:02:53.000Z</Time>
            <Position>
              <LatitudeDegrees>43.2290111482143402099609375</LatitudeDegrees>
              <LongitudeDegrees>-8.25223647058010101318359375</LongitudeDegrees>
            </Position>
            <AltitudeMeters>75.8000030517578125</AltitudeMeters>
            <DistanceMeters>48530.590618148</DistanceMeters>
          </Trackpoint>
          <Trackpoint>
            <Time>2018-04-21T11:02:54.000Z</Time>
            <Position>
              <LatitudeDegrees>43.2290835678577423095703125</LatitudeDegrees>
              <LongitudeDegrees>-8.2521843351423740386962890625</LongitudeDegrees>
            </Position>
            <AltitudeMeters>74.40000152587890625</AltitudeMeters>
            <DistanceMeters>48539.692371897</DistanceMeters>
          </Trackpoint>
          <Trackpoint>
            <Time>2018-04-21T11:02:55.000Z</Time>
            <Position>
              <LatitudeDegrees>43.2291507907211780548095703125</LatitudeDegrees>
              <LongitudeDegrees>-8.25213580392301082611083984375</LongitudeDegrees>
            </Position>
            <AltitudeMeters>73.40000152587890625</AltitudeMeters>
            <DistanceMeters>48548.146011644</DistanceMeters>
          </Trackpoint>
          <Trackpoint>
            <Time>2018-04-21T11:02:57.000Z</Time>
            <Position>
              <LatitudeDegrees>43.2292766869068145751953125</LatitudeDegrees>
              <LongitudeDegrees>-8.252041004598140716552734375</LongitudeDegrees>
            </Position>
            <AltitudeMeters>71.40000152587890625</AltitudeMeters>
            <DistanceMeters>48564.128589735</DistanceMeters>
          </Trackpoint>
          <Trackpoint>
            <Time>2018-04-21T11:02:58.000Z</Time>
            <Position>
              <LatitudeDegrees>43.229336701333522796630859375</LatitudeDegrees>
              <LongitudeDegrees>-8.2519944012165069580078125</LongitudeDegrees>
            </Position>
            <AltitudeMeters>70.8000030517578125</AltitudeMeters>
            <DistanceMeters>48571.804019282</DistanceMeters>
          </Trackpoint>
          <Trackpoint>
            <Time>2018-04-21T11:02:59.000Z</Time>
            <Position>
              <LatitudeDegrees>43.2293893396854400634765625</LatitudeDegrees>
              <LongitudeDegrees>-8.25195207260549068450927734375</LongitudeDegrees>
            </Position>
            <AltitudeMeters>69.1999969482421875</AltitudeMeters>
            <DistanceMeters>48578.594274823</DistanceMeters>
          </Trackpoint>
          <Trackpoint>
            <Time>2018-04-21T11:03:01.000Z</Time>
            <Position>
              <LatitudeDegrees>43.22946921922266483306884765625</LatitudeDegrees>
              <LongitudeDegrees>-8.2518862746655941009521484375</LongitudeDegrees>
            </Position>
            <AltitudeMeters>68</AltitudeMeters>
            <DistanceMeters>48588.963078522</DistanceMeters>
          </Trackpoint>
          <Trackpoint>
            <Time>2018-04-21T11:03:02.000Z</Time>
            <Position>
              <LatitudeDegrees>43.229494951665401458740234375</LatitudeDegrees>
              <LongitudeDegrees>-8.25184486806392669677734375</LongitudeDegrees>
            </Position>
            <AltitudeMeters>68</AltitudeMeters>
            <DistanceMeters>48593.377475986</DistanceMeters>
          </Trackpoint>
          <Trackpoint>
            <Time>2018-04-21T11:03:03.000Z</Time>
            <Position>
              <LatitudeDegrees>43.22951548732817173004150390625</LatitudeDegrees>
              <LongitudeDegrees>-8.251798935234546661376953125</LongitudeDegrees>
            </Position>
            <AltitudeMeters>68.40000152587890625</AltitudeMeters>
            <DistanceMeters>48597.74663856</DistanceMeters>
          </Trackpoint>
          <Trackpoint>
            <Time>2018-04-21T11:03:07.000Z</Time>
            <Position>
              <LatitudeDegrees>43.229559324681758880615234375</LatitudeDegrees>
              <LongitudeDegrees>-8.2516240887343883514404296875</LongitudeDegrees>
            </Position>
            <AltitudeMeters>67</AltitudeMeters>
            <DistanceMeters>48612.741902263</DistanceMeters>
          </Trackpoint>
          <Trackpoint>
            <Time>2018-04-21T11:03:10.000Z</Time>
            <Position>
              <LatitudeDegrees>43.22957214899361133575439453125</LatitudeDegrees>
              <LongitudeDegrees>-8.2515349052846431732177734375</LongitudeDegrees>
            </Position>
            <AltitudeMeters>65.8000030517578125</AltitudeMeters>
            <DistanceMeters>48620.113672745</DistanceMeters>
          </Trackpoint>
          <Trackpoint>
            <Time>2018-04-21T11:03:12.000Z</Time>
            <Position>
              <LatitudeDegrees>43.229594863951206207275390625</LatitudeDegrees>
              <LongitudeDegrees>-8.25144253671169281005859375</LongitudeDegrees>
            </Position>
            <AltitudeMeters>65.40000152587890625</AltitudeMeters>
            <DistanceMeters>48628.019187217</DistanceMeters>
          </Trackpoint>
          <Trackpoint>
            <Time>2018-04-21T11:03:16.000Z</Time>
            <Position>
              <LatitudeDegrees>43.22965378873050212860107421875</LatitudeDegrees>
              <LongitudeDegrees>-8.25127967633306980133056640625</LongitudeDegrees>
            </Position>
            <AltitudeMeters>64.8000030517578125</AltitudeMeters>
            <DistanceMeters>48642.765177885</DistanceMeters>
          </Trackpoint>
          <Trackpoint>
            <Time>2018-04-21T11:03:18.000Z</Time>
            <Position>
              <LatitudeDegrees>43.22968094609677791595458984375</LatitudeDegrees>
              <LongitudeDegrees>-8.25123759917914867401123046875</LongitudeDegrees>
            </Position>
            <AltitudeMeters>64.8000030517578125</AltitudeMeters>
            <DistanceMeters>48647.323489623</DistanceMeters>
          </Trackpoint>
          <Trackpoint>
            <Time>2018-04-21T11:03:21.000Z</Time>
            <Position>
              <LatitudeDegrees>43.22973006404936313629150390625</LatitudeDegrees>
              <LongitudeDegrees>-8.251192755997180938720703125</LongitudeDegrees>
            </Position>
            <AltitudeMeters>64.8000030517578125</AltitudeMeters>
            <DistanceMeters>48653.889966229</DistanceMeters>
          </Trackpoint>
          <Trackpoint>
            <Time>2018-04-21T11:03:24.000Z</Time>
            <Position>
              <LatitudeDegrees>43.22978890500962734222412109375</LatitudeDegrees>
              <LongitudeDegrees>-8.2511479966342449188232421875</LongitudeDegrees>
            </Position>
            <AltitudeMeters>65</AltitudeMeters>
            <DistanceMeters>48661.377806014</DistanceMeters>
          </Trackpoint>
          <Trackpoint>
            <Time>2018-04-21T11:03:25.000Z</Time>
            <Position>
              <LatitudeDegrees>43.22981136851012706756591796875</LatitudeDegrees>
              <LongitudeDegrees>-8.25113265775144100189208984375</LongitudeDegrees>
            </Position>
            <AltitudeMeters>65.59999847412109375</AltitudeMeters>
            <DistanceMeters>48664.171009559</DistanceMeters>
          </Trackpoint>
          <Trackpoint>
            <Time>2018-04-21T11:03:27.000Z</Time>
            <Position>
              <LatitudeDegrees>43.2298525236546993255615234375</LatitudeDegrees>
              <LongitudeDegrees>-8.25110281817615032196044921875</LongitudeDegrees>
            </Position>
            <AltitudeMeters>65.8000030517578125</AltitudeMeters>
            <DistanceMeters>48669.351490926</DistanceMeters>
          </Trackpoint>
          <Trackpoint>
            <Time>2018-04-21T11:03:30.000Z</Time>
            <Position>
              <LatitudeDegrees>43.2299091853201389312744140625</LatitudeDegrees>
              <LongitudeDegrees>-8.2510705478489398956298828125</LongitudeDegrees>
            </Position>
            <AltitudeMeters>66.8000030517578125</AltitudeMeters>
            <DistanceMeters>48676.180203452</DistanceMeters>
          </Trackpoint>
          <Trackpoint>
            <Time>2018-04-21T11:03:31.000Z</Time>
            <Position>
              <LatitudeDegrees>43.22992913424968719482421875</LatitudeDegrees>
              <LongitudeDegrees>-8.25105738826096057891845703125</LongitudeDegrees>
            </Position>
            <AltitudeMeters>67.1999969482421875</AltitudeMeters>
            <DistanceMeters>48678.643577433</DistanceMeters>
          </Trackpoint>
          <Trackpoint>
            <Time>2018-04-21T11:03:33.000Z</Time>
            <Position>
              <LatitudeDegrees>43.22997146286070346832275390625</LatitudeDegrees>
              <LongitudeDegrees>-8.251029811799526214599609375</LongitudeDegrees>
            </Position>
            <AltitudeMeters>67.8000030517578125</AltitudeMeters>
            <DistanceMeters>48683.858804201</DistanceMeters>
          </Trackpoint>
          <Trackpoint>
            <Time>2018-04-21T11:03:34.000Z</Time>
            <Position>
              <LatitudeDegrees>43.2299886457622051239013671875</LatitudeDegrees>
              <LongitudeDegrees>-8.25101732276380062103271484375</LongitudeDegrees>
            </Position>
            <AltitudeMeters>68.40000152587890625</AltitudeMeters>
            <DistanceMeters>48686.02574669</DistanceMeters>
          </Trackpoint>
          <Trackpoint>
            <Time>2018-04-21T11:03:36.000Z</Time>
            <Position>
              <LatitudeDegrees>43.23002980090677738189697265625</LatitudeDegrees>
              <LongitudeDegrees>-8.25099217705428600311279296875</LongitudeDegrees>
            </Position>
            <AltitudeMeters>69</AltitudeMeters>
            <DistanceMeters>48691.038799926</DistanceMeters>
          </Trackpoint>
          <Trackpoint>
            <Time>2018-04-21T11:03:37.000Z</Time>
            <Position>
              <LatitudeDegrees>43.23005578480660915374755859375</LatitudeDegrees>
              <LongitudeDegrees>-8.25097323395311832427978515625</LongitudeDegrees>
            </Position>
            <AltitudeMeters>69</AltitudeMeters>
            <DistanceMeters>48694.311363243</DistanceMeters>
          </Trackpoint>
          <Trackpoint>
            <Time>2018-04-21T11:03:39.000Z</Time>
            <Position>
              <LatitudeDegrees>43.2300992868840694427490234375</LatitudeDegrees>
              <LongitudeDegrees>-8.25094238854944705963134765625</LongitudeDegrees>
            </Position>
            <AltitudeMeters>69.59999847412109375</AltitudeMeters>
            <DistanceMeters>48699.761126671</DistanceMeters>
          </Trackpoint>
          <Trackpoint>
            <Time>2018-04-21T11:03:42.000Z</Time>
            <Position>
              <LatitudeDegrees>43.2301562838256359100341796875</LatitudeDegrees>
              <LongitudeDegrees>-8.2508992217481136322021484375</LongitudeDegrees>
            </Position>
            <AltitudeMeters>69.59999847412109375</AltitudeMeters>
            <DistanceMeters>48707.00625154</DistanceMeters>
          </Trackpoint>
          <Trackpoint>
            <Time>2018-04-21T11:03:43.000Z</Time>
            <Position>
              <LatitudeDegrees>43.23016894049942493438720703125</LatitudeDegrees>
              <LongitudeDegrees>-8.250895030796527862548828125</LongitudeDegrees>
            </Position>
            <AltitudeMeters>70.40000152587890625</AltitudeMeters>
            <DistanceMeters>48708.453655332</DistanceMeters>
          </Trackpoint>
          <Trackpoint>
            <Time>2018-04-21T11:03:49.000Z</Time>
            <Position>
              <LatitudeDegrees>43.23025208897888660430908203125</LatitudeDegrees>
              <LongitudeDegrees>-8.25084767304360866546630859375</LongitudeDegrees>
            </Position>
            <AltitudeMeters>72.1999969482421875</AltitudeMeters>
            <DistanceMeters>48718.473455225</DistanceMeters>
          </Trackpoint>
          <Trackpoint>
            <Time>2018-04-21T11:03:50.000Z</Time>
            <Position>
              <LatitudeDegrees>43.23025611229240894317626953125</LatitudeDegrees>
              <LongitudeDegrees>-8.25084448792040348052978515625</LongitudeDegrees>
            </Position>
            <AltitudeMeters>71.59999847412109375</AltitudeMeters>
            <DistanceMeters>48718.993937975</DistanceMeters>
          </Trackpoint>
          <Trackpoint>
            <Time>2018-04-21T11:03:52.000Z</Time>
            <Position>
              <LatitudeDegrees>43.2302649132907390594482421875</LatitudeDegrees>
              <LongitudeDegrees>-8.2508383691310882568359375</LongitudeDegrees>
            </Position>
            <AltitudeMeters>71</AltitudeMeters>
            <DistanceMeters>48720.093951722</DistanceMeters>
          </Trackpoint>
          <Trackpoint>
            <Time>2018-04-21T11:03:54.000Z</Time>
            <Position>
              <LatitudeDegrees>43.23026709258556365966796875</LatitudeDegrees>
              <LongitudeDegrees>-8.25083610601723194122314453125</LongitudeDegrees>
            </Position>
            <AltitudeMeters>68.8000030517578125</AltitudeMeters>
            <DistanceMeters>48720.394452578</DistanceMeters>
          </Trackpoint>
          <Trackpoint>
            <Time>2018-04-21T11:03:56.000Z</Time>
            <Position>
              <LatitudeDegrees>43.23029651306569576263427734375</LatitudeDegrees>
              <LongitudeDegrees>-8.2508222758769989013671875</LongitudeDegrees>
            </Position>
            <AltitudeMeters>70.8000030517578125</AltitudeMeters>
            <DistanceMeters>48723.854782239</DistanceMeters>
          </Trackpoint>
          <Trackpoint>
            <Time>2018-04-21T11:03:58.000Z</Time>
            <Position>
              <LatitudeDegrees>43.23029651306569576263427734375</LatitudeDegrees>
              <LongitudeDegrees>-8.2508222758769989013671875</LongitudeDegrees>
            </Position>
            <AltitudeMeters>71.40000152587890625</AltitudeMeters>
            <DistanceMeters>48723.854782239</DistanceMeters>
          </Trackpoint>
          <Trackpoint>
            <Time>2018-04-21T11:04:02.000Z</Time>
            <Position>
              <LatitudeDegrees>43.23029651306569576263427734375</LatitudeDegrees>
              <LongitudeDegrees>-8.2508222758769989013671875</LongitudeDegrees>
            </Position>
            <AltitudeMeters>71</AltitudeMeters>
            <DistanceMeters>48723.854782239</DistanceMeters>
          </Trackpoint>
          <Trackpoint>
            <Time>2018-04-21T11:04:07.000Z</Time>
            <Position>
              <LatitudeDegrees>43.2303440384566783905029296875</LatitudeDegrees>
              <LongitudeDegrees>-8.25079754926264286041259765625</LongitudeDegrees>
            </Position>
            <AltitudeMeters>71.40000152587890625</AltitudeMeters>
            <DistanceMeters>48729.510269023</DistanceMeters>
          </Trackpoint>
          <Trackpoint>
            <Time>2018-04-21T11:04:12.000Z</Time>
            <Position>
              <LatitudeDegrees>43.23047018609941005706787109375</LatitudeDegrees>
              <LongitudeDegrees>-8.2507429830729961395263671875</LongitudeDegrees>
            </Position>
            <AltitudeMeters>71.8000030517578125</AltitudeMeters>
            <DistanceMeters>48744.231130904</DistanceMeters>
          </Trackpoint>
          <Trackpoint>
            <Time>2018-04-21T11:04:14.000Z</Time>
            <Position>
              <LatitudeDegrees>43.23054813779890537261962890625</LatitudeDegrees>
              <LongitudeDegrees>-8.2507161609828472137451171875</LongitudeDegrees>
            </Position>
            <AltitudeMeters>71.59999847412109375</AltitudeMeters>
            <DistanceMeters>48753.175764898</DistanceMeters>
          </Trackpoint>
          <Trackpoint>
            <Time>2018-04-21T11:04:20.000Z</Time>
            <Position>
              <LatitudeDegrees>43.23079280555248260498046875</LatitudeDegrees>
              <LongitudeDegrees>-8.2505589164793491363525390625</LongitudeDegrees>
            </Position>
            <AltitudeMeters>71.1999969482421875</AltitudeMeters>
            <DistanceMeters>48783.245376707</DistanceMeters>
          </Trackpoint>
          <Trackpoint>
            <Time>2018-04-21T11:04:26.000Z</Time>
            <Position>
              <LatitudeDegrees>43.23098324239253997802734375</LatitudeDegrees>
              <LongitudeDegrees>-8.250339142978191375732421875</LongitudeDegrees>
            </Position>
            <AltitudeMeters>72.8000030517578125</AltitudeMeters>
            <DistanceMeters>48810.93845043</DistanceMeters>
          </Trackpoint>
          <Trackpoint>
            <Time>2018-04-21T11:04:27.000Z</Time>
            <Position>
              <LatitudeDegrees>43.23099941946566104888916015625</LatitudeDegrees>
              <LongitudeDegrees>-8.25029882602393627166748046875</LongitudeDegrees>
            </Position>
            <AltitudeMeters>73</AltitudeMeters>
            <DistanceMeters>48814.671198473</DistanceMeters>
          </Trackpoint>
          <Trackpoint>
            <Time>2018-04-21T11:04:29.000Z</Time>
            <Position>
              <LatitudeDegrees>43.23103898204863071441650390625</LatitudeDegrees>
              <LongitudeDegrees>-8.250224478542804718017578125</LongitudeDegrees>
            </Position>
            <AltitudeMeters>73.8000030517578125</AltitudeMeters>
            <DistanceMeters>48822.136694559</DistanceMeters>
          </Trackpoint>
          <Trackpoint>
            <Time>2018-04-21T11:04:34.000Z</Time>
            <Position>
              <LatitudeDegrees>43.23115356266498565673828125</LatitudeDegrees>
              <LongitudeDegrees>-8.25004636310040950775146484375</LongitudeDegrees>
            </Position>
            <AltitudeMeters>74</AltitudeMeters>
            <DistanceMeters>48841.405103757</DistanceMeters>
          </Trackpoint>
          <Trackpoint>
            <Time>2018-04-21T11:04:41.000Z</Time>
            <Position>
              <LatitudeDegrees>43.2312888465821743011474609375</LatitudeDegrees>
              <LongitudeDegrees>-8.24971645139157772064208984375</LongitudeDegrees>
            </Position>
            <AltitudeMeters>74.40000152587890625</AltitudeMeters>
            <DistanceMeters>48872.105204224</DistanceMeters>
          </Trackpoint>
          <Trackpoint>
            <Time>2018-04-21T11:04:47.000Z</Time>
            <Position>
              <LatitudeDegrees>43.2313565723598003387451171875</LatitudeDegrees>
              <LongitudeDegrees>-8.2494468055665493011474609375</LongitudeDegrees>
            </Position>
            <AltitudeMeters>74.59999847412109375</AltitudeMeters>
            <DistanceMeters>48895.234792392</DistanceMeters>
          </Trackpoint>
          <Trackpoint>
            <Time>2018-04-21T11:04:51.000Z</Time>
            <Position>
              <LatitudeDegrees>43.23137258179485797882080078125</LatitudeDegrees>
              <LongitudeDegrees>-8.249318897724151611328125</LongitudeDegrees>
            </Position>
            <AltitudeMeters>74.59999847412109375</AltitudeMeters>
            <DistanceMeters>48905.759188701</DistanceMeters>
          </Trackpoint>
          <Trackpoint>
            <Time>2018-04-21T11:04:53.000Z</Time>
            <Position>
              <LatitudeDegrees>43.23139755986630916595458984375</LatitudeDegrees>
              <LongitudeDegrees>-8.249239437282085418701171875</LongitudeDegrees>
            </Position>
            <AltitudeMeters>74.40000152587890625</AltitudeMeters>
            <DistanceMeters>48912.777025756</DistanceMeters>
          </Trackpoint>
          <Trackpoint>
            <Time>2018-04-21T11:04:56.000Z</Time>
            <Position>
              <LatitudeDegrees>43.23143226094543933868408203125</LatitudeDegrees>
              <LongitudeDegrees>-8.24909619055688381195068359375</LongitudeDegrees>
            </Position>
            <AltitudeMeters>74.1999969482421875</AltitudeMeters>
            <DistanceMeters>48925.018517437</DistanceMeters>
          </Trackpoint>
          <Trackpoint>
            <Time>2018-04-21T11:04:59.000Z</Time>
            <Position>
              <LatitudeDegrees>43.2314698956906795501708984375</LatitudeDegrees>
              <LongitudeDegrees>-8.24892788194119930267333984375</LongitudeDegrees>
            </Position>
            <AltitudeMeters>73.8000030517578125</AltitudeMeters>
            <DistanceMeters>48939.295945274</DistanceMeters>
          </Trackpoint>
          <Trackpoint>
            <Time>2018-04-21T11:05:01.000Z</Time>
            <Position>
              <LatitudeDegrees>43.23149831034243106842041015625</LatitudeDegrees>
              <LongitudeDegrees>-8.2488208450376987457275390625</LongitudeDegrees>
            </Position>
            <AltitudeMeters>74.1999969482421875</AltitudeMeters>
            <DistanceMeters>48948.534575181</DistanceMeters>
          </Trackpoint>
          <Trackpoint>
            <Time>2018-04-21T11:05:03.000Z</Time>
            <Position>
              <LatitudeDegrees>43.2315322570502758026123046875</LatitudeDegrees>
              <LongitudeDegrees>-8.24874599464237689971923828125</LongitudeDegrees>
            </Position>
            <AltitudeMeters>74.1999969482421875</AltitudeMeters>
            <DistanceMeters>48955.684980262</DistanceMeters>
          </Trackpoint>
          <Trackpoint>
            <Time>2018-04-21T11:05:05.000Z</Time>
            <Position>
              <LatitudeDegrees>43.2315657846629619598388671875</LatitudeDegrees>
              <LongitudeDegrees>-8.24868111871182918548583984375</LongitudeDegrees>
            </Position>
            <AltitudeMeters>73.59999847412109375</AltitudeMeters>
            <DistanceMeters>48962.134907562</DistanceMeters>
          </Trackpoint>
          <Trackpoint>
            <Time>2018-04-21T11:05:10.000Z</Time>
            <Position>
              <LatitudeDegrees>43.23165035806596279144287109375</LatitudeDegrees>
              <LongitudeDegrees>-8.24851230718195438385009765625</LongitudeDegrees>
            </Position>
            <AltitudeMeters>73</AltitudeMeters>
            <DistanceMeters>48978.748556065</DistanceMeters>
          </Trackpoint>
          <Trackpoint>
            <Time>2018-04-21T11:05:11.000Z</Time>
            <Position>
              <LatitudeDegrees>43.23167483322322368621826171875</LatitudeDegrees>
              <LongitudeDegrees>-8.2484704814851284027099609375</LongitudeDegrees>
            </Position>
            <AltitudeMeters>72.8000030517578125</AltitudeMeters>
            <DistanceMeters>48983.09803996</DistanceMeters>
          </Trackpoint>
          <Trackpoint>
            <Time>2018-04-21T11:05:12.000Z</Time>
            <Position>
              <LatitudeDegrees>43.231694698333740234375</LatitudeDegrees>
              <LongitudeDegrees>-8.24842781759798526763916015625</LongitudeDegrees>
            </Position>
            <AltitudeMeters>72.40000152587890625</AltitudeMeters>
            <DistanceMeters>48987.204029819</DistanceMeters>
          </Trackpoint>
          <Trackpoint>
            <Time>2018-04-21T11:05:16.000Z</Time>
            <Position>
              <LatitudeDegrees>43.2318004779517650604248046875</LatitudeDegrees>
              <LongitudeDegrees>-8.2482257299125194549560546875</LongitudeDegrees>
            </Position>
            <AltitudeMeters>71.59999847412109375</AltitudeMeters>
            <DistanceMeters>49007.382835705</DistanceMeters>
          </Trackpoint>
          <Trackpoint>
            <Time>2018-04-21T11:05:18.000Z</Time>
            <Position>
              <LatitudeDegrees>43.23186309076845645904541015625</LatitudeDegrees>
              <LongitudeDegrees>-8.2481070421636104583740234375</LongitudeDegrees>
            </Position>
            <AltitudeMeters>70.8000030517578125</AltitudeMeters>
            <DistanceMeters>49019.265355441</DistanceMeters>
          </Trackpoint>
          <Trackpoint>
            <Time>2018-04-21T11:05:20.000Z</Time>
            <Position>
              <LatitudeDegrees>43.2319218479096889495849609375</LatitudeDegrees>
              <LongitudeDegrees>-8.248002938926219940185546875</LongitudeDegrees>
            </Position>
            <AltitudeMeters>70.40000152587890625</AltitudeMeters>
            <DistanceMeters>49029.944345816</DistanceMeters>
          </Trackpoint>
          <Trackpoint>
            <Time>2018-04-21T11:05:23.000Z</Time>
            <Position>
              <LatitudeDegrees>43.23198479600250720977783203125</LatitudeDegrees>
              <LongitudeDegrees>-8.2479085586965084075927734375</LongitudeDegrees>
            </Position>
            <AltitudeMeters>69.1999969482421875</AltitudeMeters>
            <DistanceMeters>49040.32054943</DistanceMeters>
          </Trackpoint>
          <Trackpoint>
            <Time>2018-04-21T11:05:25.000Z</Time>
            <Position>
              <LatitudeDegrees>43.231990076601505279541015625</LatitudeDegrees>
              <LongitudeDegrees>-8.24784007854759693145751953125</LongitudeDegrees>
            </Position>
            <AltitudeMeters>69</AltitudeMeters>
            <DistanceMeters>49045.904531339</DistanceMeters>
          </Trackpoint>
          <Trackpoint>
            <Time>2018-04-21T11:05:26.000Z</Time>
            <Position>
              <LatitudeDegrees>43.2319721393287181854248046875</LatitudeDegrees>
              <LongitudeDegrees>-8.24781225062906742095947265625</LongitudeDegrees>
            </Position>
            <AltitudeMeters>69</AltitudeMeters>
            <DistanceMeters>49048.918541442</DistanceMeters>
          </Trackpoint>
          <Trackpoint>
            <Time>2018-04-21T11:05:28.000Z</Time>
            <Position>
              <LatitudeDegrees>43.2319386117160320281982421875</LatitudeDegrees>
              <LongitudeDegrees>-8.24775240384042263031005859375</LongitudeDegrees>
            </Position>
            <AltitudeMeters>71.1999969482421875</AltitudeMeters>
            <DistanceMeters>49055.040946796</DistanceMeters>
          </Trackpoint>
          <Trackpoint>
            <Time>2018-04-21T11:05:30.000Z</Time>
            <Position>
              <LatitudeDegrees>43.23190047405660152435302734375</LatitudeDegrees>
              <LongitudeDegrees>-8.24768685735762119293212890625</LongitudeDegrees>
            </Position>
            <AltitudeMeters>69.59999847412109375</AltitudeMeters>
            <DistanceMeters>49061.843160531</DistanceMeters>
          </Trackpoint>
          <Trackpoint>
            <Time>2018-04-21T11:05:34.000Z</Time>
            <Position>
              <LatitudeDegrees>43.2318148948252201080322265625</LatitudeDegrees>
              <LongitudeDegrees>-8.2475545071065425872802734375</LongitudeDegrees>
            </Position>
            <AltitudeMeters>70.40000152587890625</AltitudeMeters>
            <DistanceMeters>49076.193138344</DistanceMeters>
          </Trackpoint>
          <Trackpoint>
            <Time>2018-04-21T11:05:36.000Z</Time>
            <Position>
              <LatitudeDegrees>43.23177692480385303497314453125</LatitudeDegrees>
              <LongitudeDegrees>-8.247483931481838226318359375</LongitudeDegrees>
            </Position>
            <AltitudeMeters>70.8000030517578125</AltitudeMeters>
            <DistanceMeters>49083.307460411</DistanceMeters>
          </Trackpoint>
          <Trackpoint>
            <Time>2018-04-21T11:05:40.000Z</Time>
            <Position>
              <LatitudeDegrees>43.23169528506696224212646484375</LatitudeDegrees>
              <LongitudeDegrees>-8.24734638445079326629638671875</LongitudeDegrees>
            </Position>
            <AltitudeMeters>72.1999969482421875</AltitudeMeters>
            <DistanceMeters>49097.694517519</DistanceMeters>
          </Trackpoint>
          <Trackpoint>
            <Time>2018-04-21T11:05:41.000Z</Time>
            <Position>
              <LatitudeDegrees>43.23167600668966770172119140625</LatitudeDegrees>
              <LongitudeDegrees>-8.2473131082952022552490234375</LongitudeDegrees>
            </Position>
            <AltitudeMeters>71</AltitudeMeters>
            <DistanceMeters>49101.141774487</DistanceMeters>
          </Trackpoint>
          <Trackpoint>
            <Time>2018-04-21T11:05:44.000Z</Time>
            <Position>
              <LatitudeDegrees>43.23162437416613101959228515625</LatitudeDegrees>
              <LongitudeDegrees>-8.247215040028095245361328125</LongitudeDegrees>
            </Position>
            <AltitudeMeters>70.8000030517578125</AltitudeMeters>
            <DistanceMeters>49110.953944229</DistanceMeters>
          </Trackpoint>
          <Trackpoint>
            <Time>2018-04-21T11:05:47.000Z</Time>
            <Position>
              <LatitudeDegrees>43.231579363346099853515625</LatitudeDegrees>
              <LongitudeDegrees>-8.24712577275931835174560546875</LongitudeDegrees>
            </Position>
            <AltitudeMeters>73</AltitudeMeters>
            <DistanceMeters>49119.757644935</DistanceMeters>
          </Trackpoint>
          <Trackpoint>
            <Time>2018-04-21T11:05:48.000Z</Time>
            <Position>
              <LatitudeDegrees>43.23156259953975677490234375</LatitudeDegrees>
              <LongitudeDegrees>-8.24709576554596424102783203125</LongitudeDegrees>
            </Position>
            <AltitudeMeters>74.59999847412109375</AltitudeMeters>
            <DistanceMeters>49122.82510963</DistanceMeters>
          </Trackpoint>
          <Trackpoint>
            <Time>2018-04-21T11:05:49.000Z</Time>
            <Position>
              <LatitudeDegrees>43.2315456680953502655029296875</LatitudeDegrees>
              <LongitudeDegrees>-8.2470686919987201690673828125</LongitudeDegrees>
            </Position>
            <AltitudeMeters>72.40000152587890625</AltitudeMeters>
            <DistanceMeters>49125.719917212</DistanceMeters>
          </Trackpoint>
          <Trackpoint>
            <Time>2018-04-21T11:05:50.000Z</Time>
            <Position>
              <LatitudeDegrees>43.23152932338416576385498046875</LatitudeDegrees>
              <LongitudeDegrees>-8.2470378465950489044189453125</LongitudeDegrees>
            </Position>
            <AltitudeMeters>72.59999847412109375</AltitudeMeters>
            <DistanceMeters>49128.813762882</DistanceMeters>
          </Trackpoint>
          <Trackpoint>
            <Time>2018-04-21T11:05:52.000Z</Time>
            <Position>
              <LatitudeDegrees>43.23149688541889190673828125</LatitudeDegrees>
              <LongitudeDegrees>-8.2469825260341167449951171875</LongitudeDegrees>
            </Position>
            <AltitudeMeters>71.1999969482421875</AltitudeMeters>
            <DistanceMeters>49134.572099509</DistanceMeters>
          </Trackpoint>
          <Trackpoint>
            <Time>2018-04-21T11:05:53.000Z</Time>
            <Position>
              <LatitudeDegrees>43.2314782775938510894775390625</LatitudeDegrees>
              <LongitudeDegrees>-8.24695645831525325775146484375</LongitudeDegrees>
            </Position>
            <AltitudeMeters>72.59999847412109375</AltitudeMeters>
            <DistanceMeters>49137.530163753</DistanceMeters>
          </Trackpoint>
          <Trackpoint>
            <Time>2018-04-21T11:05:57.000Z</Time>
            <Position>
              <LatitudeDegrees>43.2314232923090457916259765625</LatitudeDegrees>
              <LongitudeDegrees>-8.24685688130557537078857421875</LongitudeDegrees>
            </Position>
            <AltitudeMeters>73</AltitudeMeters>
            <DistanceMeters>49147.661990292</DistanceMeters>
          </Trackpoint>
          <Trackpoint>
            <Time>2018-04-21T11:06:03.000Z</Time>
            <Position>
              <LatitudeDegrees>43.23135984130203723907470703125</LatitudeDegrees>
              <LongitudeDegrees>-8.24675395153462886810302734375</LongitudeDegrees>
            </Position>
            <AltitudeMeters>73</AltitudeMeters>
            <DistanceMeters>49158.5954322</DistanceMeters>
          </Trackpoint>
          <Trackpoint>
            <Time>2018-04-21T11:06:05.000Z</Time>
            <Position>
              <LatitudeDegrees>43.231334947049617767333984375</LatitudeDegrees>
              <LongitudeDegrees>-8.24672109447419643402099609375</LongitudeDegrees>
            </Position>
            <AltitudeMeters>72.8000030517578125</AltitudeMeters>
            <DistanceMeters>49162.439024929</DistanceMeters>
          </Trackpoint>
          <Trackpoint>
            <Time>2018-04-21T11:06:08.000Z</Time>
            <Position>
              <LatitudeDegrees>43.23131910525262355804443359375</LatitudeDegrees>
              <LongitudeDegrees>-8.246665187180042266845703125</LongitudeDegrees>
            </Position>
            <AltitudeMeters>73</AltitudeMeters>
            <DistanceMeters>49167.30398437</DistanceMeters>
          </Trackpoint>
          <Trackpoint>
            <Time>2018-04-21T11:06:10.000Z</Time>
            <Position>
              <LatitudeDegrees>43.231359086930751800537109375</LatitudeDegrees>
              <LongitudeDegrees>-8.24666426517069339752197265625</LongitudeDegrees>
            </Position>
            <AltitudeMeters>73</AltitudeMeters>
            <DistanceMeters>49171.755050278</DistanceMeters>
          </Trackpoint>
          <Trackpoint>
            <Time>2018-04-21T11:06:13.000Z</Time>
            <Position>
              <LatitudeDegrees>43.23143578134477138519287109375</LatitudeDegrees>
              <LongitudeDegrees>-8.2467548735439777374267578125</LongitudeDegrees>
            </Position>
            <AltitudeMeters>73</AltitudeMeters>
            <DistanceMeters>49183.018822916</DistanceMeters>
          </Trackpoint>
          <Trackpoint>
            <Time>2018-04-21T11:06:14.000Z</Time>
            <Position>
              <LatitudeDegrees>43.2314584963023662567138671875</LatitudeDegrees>
              <LongitudeDegrees>-8.24679267592728137969970703125</LongitudeDegrees>
            </Position>
            <AltitudeMeters>73</AltitudeMeters>
            <DistanceMeters>49186.991803362</DistanceMeters>
          </Trackpoint>
          <Trackpoint>
            <Time>2018-04-21T11:06:20.000Z</Time>
            <Position>
              <LatitudeDegrees>43.23161347769200801849365234375</LatitudeDegrees>
              <LongitudeDegrees>-8.24705234728753566741943359375</LongitudeDegrees>
            </Position>
            <AltitudeMeters>72.40000152587890625</AltitudeMeters>
            <DistanceMeters>49214.212769229</DistanceMeters>
          </Trackpoint>
          <Trackpoint>
            <Time>2018-04-21T11:06:21.000Z</Time>
            <Position>
              <LatitudeDegrees>43.23163342662155628204345703125</LatitudeDegrees>
              <LongitudeDegrees>-8.24709828011691570281982421875</LongitudeDegrees>
            </Position>
            <AltitudeMeters>72.1999969482421875</AltitudeMeters>
            <DistanceMeters>49218.548737305</DistanceMeters>
          </Trackpoint>
          <Trackpoint>
            <Time>2018-04-21T11:06:23.000Z</Time>
            <Position>
              <LatitudeDegrees>43.231667540967464447021484375</LatitudeDegrees>
              <LongitudeDegrees>-8.2471360825002193450927734375</LongitudeDegrees>
            </Position>
            <AltitudeMeters>71.59999847412109375</AltitudeMeters>
            <DistanceMeters>49223.427597982</DistanceMeters>
          </Trackpoint>
          <Trackpoint>
            <Time>2018-04-21T11:06:24.000Z</Time>
            <Position>
              <LatitudeDegrees>43.231682963669300079345703125</LatitudeDegrees>
              <LongitudeDegrees>-8.24712560512125492095947265625</LongitudeDegrees>
            </Position>
            <AltitudeMeters>71.59999847412109375</AltitudeMeters>
            <DistanceMeters>49225.342333221</DistanceMeters>
          </Trackpoint>
          <Trackpoint>
            <Time>2018-04-21T11:06:28.000Z</Time>
            <Position>
              <LatitudeDegrees>43.2317102886736392974853515625</LatitudeDegrees>
              <LongitudeDegrees>-8.24710599146783351898193359375</LongitudeDegrees>
            </Position>
            <AltitudeMeters>71.59999847412109375</AltitudeMeters>
            <DistanceMeters>49228.775152727</DistanceMeters>
          </Trackpoint>
          <Trackpoint>
            <Time>2018-04-21T11:06:29.000Z</Time>
            <Position>
              <LatitudeDegrees>43.231709785759449005126953125</LatitudeDegrees>
              <LongitudeDegrees>-8.247103728353977203369140625</LongitudeDegrees>
            </Position>
            <AltitudeMeters>71.40000152587890625</AltitudeMeters>
            <DistanceMeters>49228.98763892</DistanceMeters>
          </Trackpoint>
          <Trackpoint>
            <Time>2018-04-21T11:06:35.000Z</Time>
            <Position>
              <LatitudeDegrees>43.23170769028365612030029296875</LatitudeDegrees>
              <LongitudeDegrees>-8.24710381217300891876220703125</LongitudeDegrees>
            </Position>
            <AltitudeMeters>70.40000152587890625</AltitudeMeters>
            <DistanceMeters>49229.220405882</DistanceMeters>
          </Trackpoint>
          <Trackpoint>
            <Time>2018-04-21T11:06:39.000Z</Time>
            <Position>
              <LatitudeDegrees>43.23170769028365612030029296875</LatitudeDegrees>
              <LongitudeDegrees>-8.24710381217300891876220703125</LongitudeDegrees>
            </Position>
            <AltitudeMeters>71.59999847412109375</AltitudeMeters>
            <DistanceMeters>49229.220405882</DistanceMeters>
          </Trackpoint>
          <Trackpoint>
            <Time>2018-04-21T11:06:43.000Z</Time>
            <Position>
              <LatitudeDegrees>43.23170769028365612030029296875</LatitudeDegrees>
              <LongitudeDegrees>-8.24710381217300891876220703125</LongitudeDegrees>
            </Position>
            <AltitudeMeters>72.8000030517578125</AltitudeMeters>
            <DistanceMeters>49229.220405882</DistanceMeters>
          </Trackpoint>
          <Trackpoint>
            <Time>2018-04-21T11:06:44.000Z</Time>
            <Position>
              <LatitudeDegrees>43.23170769028365612030029296875</LatitudeDegrees>
              <LongitudeDegrees>-8.24710381217300891876220703125</LongitudeDegrees>
            </Position>
            <AltitudeMeters>71.1999969482421875</AltitudeMeters>
            <DistanceMeters>49229.220405882</DistanceMeters>
          </Trackpoint>
          <Trackpoint>
            <Time>2018-04-21T11:06:45.000Z</Time>
            <Position>
              <LatitudeDegrees>43.23170769028365612030029296875</LatitudeDegrees>
              <LongitudeDegrees>-8.24710381217300891876220703125</LongitudeDegrees>
            </Position>
            <AltitudeMeters>71.40000152587890625</AltitudeMeters>
            <DistanceMeters>49229.220405882</DistanceMeters>
          </Trackpoint>
          <Trackpoint>
            <Time>2018-04-21T11:06:52.000Z</Time>
            <Position>
              <LatitudeDegrees>43.23169880546629428863525390625</LatitudeDegrees>
              <LongitudeDegrees>-8.247117809951305389404296875</LongitudeDegrees>
            </Position>
            <AltitudeMeters>71.40000152587890625</AltitudeMeters>
            <DistanceMeters>49230.728908207</DistanceMeters>
          </Trackpoint>
          <Trackpoint>
            <Time>2018-04-21T11:06:54.000Z</Time>
            <Position>
              <LatitudeDegrees>43.231681622564792633056640625</LatitudeDegrees>
              <LongitudeDegrees>-8.2471263594925403594970703125</LongitudeDegrees>
            </Position>
            <AltitudeMeters>71.59999847412109375</AltitudeMeters>
            <DistanceMeters>49232.762568703</DistanceMeters>
          </Trackpoint>
          <Trackpoint>
            <Time>2018-04-21T11:06:57.000Z</Time>
            <Position>
              <LatitudeDegrees>43.2316284812986850738525390625</LatitudeDegrees>
              <LongitudeDegrees>-8.24716382659971714019775390625</LongitudeDegrees>
            </Position>
            <AltitudeMeters>71.59999847412109375</AltitudeMeters>
            <DistanceMeters>49239.411723105</DistanceMeters>
          </Trackpoint>
          <Trackpoint>
            <Time>2018-04-21T11:06:58.000Z</Time>
            <Position>
              <LatitudeDegrees>43.23160593397915363311767578125</LatitudeDegrees>
              <LongitudeDegrees>-8.24716617353260517120361328125</LongitudeDegrees>
            </Position>
            <AltitudeMeters>71.8000030517578125</AltitudeMeters>
            <DistanceMeters>49241.927688842</DistanceMeters>
          </Trackpoint>
          <Trackpoint>
            <Time>2018-04-21T11:07:02.000Z</Time>
            <Position>
              <LatitudeDegrees>43.2315399684011936187744140625</LatitudeDegrees>
              <LongitudeDegrees>-8.24709090404212474822998046875</LongitudeDegrees>
            </Position>
            <AltitudeMeters>72</AltitudeMeters>
            <DistanceMeters>49251.475391272</DistanceMeters>
          </Trackpoint>
          <Trackpoint>
            <Time>2018-04-21T11:07:05.000Z</Time>
            <Position>
              <LatitudeDegrees>43.231514655053615570068359375</LatitudeDegrees>
              <LongitudeDegrees>-8.24702803976833820343017578125</LongitudeDegrees>
            </Position>
            <AltitudeMeters>69.8000030517578125</AltitudeMeters>
            <DistanceMeters>49257.299994023</DistanceMeters>
          </Trackpoint>
          <Trackpoint>
            <Time>2018-04-21T11:07:06.000Z</Time>
            <Position>
              <LatitudeDegrees>43.23150702752172946929931640625</LatitudeDegrees>
              <LongitudeDegrees>-8.247011862695217132568359375</LongitudeDegrees>
            </Position>
            <AltitudeMeters>71.1999969482421875</AltitudeMeters>
            <DistanceMeters>49258.864331172</DistanceMeters>
          </Trackpoint>
          <Trackpoint>
            <Time>2018-04-21T11:07:07.000Z</Time>
            <Position>
              <LatitudeDegrees>43.2314980588853359222412109375</LatitudeDegrees>
              <LongitudeDegrees>-8.24700138531625270843505859375</LongitudeDegrees>
            </Position>
            <AltitudeMeters>72.8000030517578125</AltitudeMeters>
            <DistanceMeters>49260.174184036</DistanceMeters>
          </Trackpoint>
          <Trackpoint>
            <Time>2018-04-21T11:07:08.000Z</Time>
            <Position>
              <LatitudeDegrees>43.23149244301021099090576171875</LatitudeDegrees>
              <LongitudeDegrees>-8.24698646552860736846923828125</LongitudeDegrees>
            </Position>
            <AltitudeMeters>72.1999969482421875</AltitudeMeters>
            <DistanceMeters>49261.534759528</DistanceMeters>
          </Trackpoint>
          <Trackpoint>
            <Time>2018-04-21T11:07:15.000Z</Time>
            <Position>
              <LatitudeDegrees>43.23140359483659267425537109375</LatitudeDegrees>
              <LongitudeDegrees>-8.24682972393929958343505859375</LongitudeDegrees>
            </Position>
            <AltitudeMeters>72.59999847412109375</AltitudeMeters>
            <DistanceMeters>49277.639474851</DistanceMeters>
          </Trackpoint>
          <Trackpoint>
            <Time>2018-04-21T11:07:22.000Z</Time>
            <Position>
              <LatitudeDegrees>43.2313029281795024871826171875</LatitudeDegrees>
              <LongitudeDegrees>-8.24661347083747386932373046875</LongitudeDegrees>
            </Position>
            <AltitudeMeters>73.40000152587890625</AltitudeMeters>
            <DistanceMeters>49298.449891381</DistanceMeters>
          </Trackpoint>
          <Trackpoint>
            <Time>2018-04-21T11:07:27.000Z</Time>
            <Position>
              <LatitudeDegrees>43.23117728345096111297607421875</LatitudeDegrees>
              <LongitudeDegrees>-8.246441893279552459716796875</LongitudeDegrees>
            </Position>
            <AltitudeMeters>70</AltitudeMeters>
            <DistanceMeters>49318.177263343</DistanceMeters>
          </Trackpoint>
          <Trackpoint>
            <Time>2018-04-21T11:07:28.000Z</Time>
            <Position>
              <LatitudeDegrees>43.2311515510082244873046875</LatitudeDegrees>
              <LongitudeDegrees>-8.24640124104917049407958984375</LongitudeDegrees>
            </Position>
            <AltitudeMeters>71</AltitudeMeters>
            <DistanceMeters>49322.544358653</DistanceMeters>
          </Trackpoint>
          <Trackpoint>
            <Time>2018-04-21T11:07:29.000Z</Time>
            <Position>
              <LatitudeDegrees>43.23112464509904384613037109375</LatitudeDegrees>
              <LongitudeDegrees>-8.24635983444750308990478515625</LongitudeDegrees>
            </Position>
            <AltitudeMeters>72</AltitudeMeters>
            <DistanceMeters>49327.043851001</DistanceMeters>
          </Trackpoint>
          <Trackpoint>
            <Time>2018-04-21T11:07:30.000Z</Time>
            <Position>
              <LatitudeDegrees>43.231105618178844451904296875</LatitudeDegrees>
              <LongitudeDegrees>-8.24632815085351467132568359375</LongitudeDegrees>
            </Position>
            <AltitudeMeters>73.59999847412109375</AltitudeMeters>
            <DistanceMeters>49330.373856087</DistanceMeters>
          </Trackpoint>
          <Trackpoint>
            <Time>2018-04-21T11:07:32.000Z</Time>
            <Position>
              <LatitudeDegrees>43.2310689054429531097412109375</LatitudeDegrees>
              <LongitudeDegrees>-8.2462801225483417510986328125</LongitudeDegrees>
            </Position>
            <AltitudeMeters>72.40000152587890625</AltitudeMeters>
            <DistanceMeters>49336.019754585</DistanceMeters>
          </Trackpoint>
          <Trackpoint>
            <Time>2018-04-21T11:07:33.000Z</Time>
            <Position>
              <LatitudeDegrees>43.23104987852275371551513671875</LatitudeDegrees>
              <LongitudeDegrees>-8.24626528657972812652587890625</LongitudeDegrees>
            </Position>
            <AltitudeMeters>72.40000152587890625</AltitudeMeters>
            <DistanceMeters>49338.457333363</DistanceMeters>
          </Trackpoint>
          <Trackpoint>
            <Time>2018-04-21T11:07:39.000Z</Time>
            <Position>
              <LatitudeDegrees>43.2309297658503055572509765625</LatitudeDegrees>
              <LongitudeDegrees>-8.2462184317409992218017578125</LongitudeDegrees>
            </Position>
            <AltitudeMeters>72.8000030517578125</AltitudeMeters>
            <DistanceMeters>49352.355619776</DistanceMeters>
          </Trackpoint>
          <Trackpoint>
            <Time>2018-04-21T11:07:43.000Z</Time>
            <Position>
              <LatitudeDegrees>43.2308243215084075927734375</LatitudeDegrees>
              <LongitudeDegrees>-8.246244080364704132080078125</LongitudeDegrees>
            </Position>
            <AltitudeMeters>73.40000152587890625</AltitudeMeters>
            <DistanceMeters>49364.274561114</DistanceMeters>
          </Trackpoint>
          <Trackpoint>
            <Time>2018-04-21T11:07:45.000Z</Time>
            <Position>
              <LatitudeDegrees>43.2307832501828670501708984375</LatitudeDegrees>
              <LongitudeDegrees>-8.24625506065785884857177734375</LongitudeDegrees>
            </Position>
            <AltitudeMeters>73.8000030517578125</AltitudeMeters>
            <DistanceMeters>49368.931839677</DistanceMeters>
          </Trackpoint>
          <Trackpoint>
            <Time>2018-04-21T11:07:47.000Z</Time>
            <Position>
              <LatitudeDegrees>43.230760283768177032470703125</LatitudeDegrees>
              <LongitudeDegrees>-8.2462370395660400390625</LongitudeDegrees>
            </Position>
            <AltitudeMeters>74.1999969482421875</AltitudeMeters>
            <DistanceMeters>49371.876134735</DistanceMeters>
          </Trackpoint>
          <Trackpoint>
            <Time>2018-04-21T11:07:49.000Z</Time>
            <Position>
              <LatitudeDegrees>43.23078333400189876556396484375</LatitudeDegrees>
              <LongitudeDegrees>-8.24618951417505741119384765625</LongitudeDegrees>
            </Position>
            <AltitudeMeters>74.1999969482421875</AltitudeMeters>
            <DistanceMeters>49376.505213628</DistanceMeters>
          </Trackpoint>
          <Trackpoint>
            <Time>2018-04-21T11:07:51.000Z</Time>
            <Position>
              <LatitudeDegrees>43.230828344821929931640625</LatitudeDegrees>
              <LongitudeDegrees>-8.24615514837205410003662109375</LongitudeDegrees>
            </Position>
            <AltitudeMeters>73.8000030517578125</AltitudeMeters>
            <DistanceMeters>49382.237616979</DistanceMeters>
          </Trackpoint>
          <Trackpoint>
            <Time>2018-04-21T11:07:52.000Z</Time>
            <Position>
              <LatitudeDegrees>43.23085508309304714202880859375</LatitudeDegrees>
              <LongitudeDegrees>-8.24615296907722949981689453125</LongitudeDegrees>
            </Position>
            <AltitudeMeters>73.8000030517578125</AltitudeMeters>
            <DistanceMeters>49385.220002819</DistanceMeters>
          </Trackpoint>
          <Trackpoint>
            <Time>2018-04-21T11:07:53.000Z</Time>
            <Position>
              <LatitudeDegrees>43.23087503202259540557861328125</LatitudeDegrees>
              <LongitudeDegrees>-8.246150203049182891845703125</LongitudeDegrees>
            </Position>
            <AltitudeMeters>73.59999847412109375</AltitudeMeters>
            <DistanceMeters>49387.448576812</DistanceMeters>
          </Trackpoint>
          <Trackpoint>
            <Time>2018-04-21T11:07:54.000Z</Time>
            <Position>
              <LatitudeDegrees>43.23089548386633396148681640625</LatitudeDegrees>
              <LongitudeDegrees>-8.24614475481212139129638671875</LongitudeDegrees>
            </Position>
            <AltitudeMeters>74.8000030517578125</AltitudeMeters>
            <DistanceMeters>49389.76847456</DistanceMeters>
          </Trackpoint>
          <Trackpoint>
            <Time>2018-04-21T11:07:57.000Z</Time>
            <Position>
              <LatitudeDegrees>43.23096874170005321502685546875</LatitudeDegrees>
              <LongitudeDegrees>-8.246143497526645660400390625</LongitudeDegrees>
            </Position>
            <AltitudeMeters>73.1999969482421875</AltitudeMeters>
            <DistanceMeters>49397.923073443</DistanceMeters>
          </Trackpoint>
          <Trackpoint>
            <Time>2018-04-21T11:08:00.000Z</Time>
            <Position>
              <LatitudeDegrees>43.23107041418552398681640625</LatitudeDegrees>
              <LongitudeDegrees>-8.2461342774331569671630859375</LongitudeDegrees>
            </Position>
            <AltitudeMeters>72.40000152587890625</AltitudeMeters>
            <DistanceMeters>49409.26394549</DistanceMeters>
          </Trackpoint>
          <Trackpoint>
            <Time>2018-04-21T11:08:01.000Z</Time>
            <Position>
              <LatitudeDegrees>43.23111374862492084503173828125</LatitudeDegrees>
              <LongitudeDegrees>-8.24613369069993495941162109375</LongitudeDegrees>
            </Position>
            <AltitudeMeters>72</AltitudeMeters>
            <DistanceMeters>49414.086960825</DistanceMeters>
          </Trackpoint>
          <Trackpoint>
            <Time>2018-04-21T11:08:04.000Z</Time>
            <Position>
              <LatitudeDegrees>43.231272585690021514892578125</LatitudeDegrees>
              <LongitudeDegrees>-8.2461118139326572418212890625</LongitudeDegrees>
            </Position>
            <AltitudeMeters>71.1999969482421875</AltitudeMeters>
            <DistanceMeters>49431.854669526</DistanceMeters>
          </Trackpoint>
          <Trackpoint>
            <Time>2018-04-21T11:08:05.000Z</Time>
            <Position>
              <LatitudeDegrees>43.23133368976414203643798828125</LatitudeDegrees>
              <LongitudeDegrees>-8.24607669375836849212646484375</LongitudeDegrees>
            </Position>
            <AltitudeMeters>70.8000030517578125</AltitudeMeters>
            <DistanceMeters>49439.22766486</DistanceMeters>
          </Trackpoint>
          <Trackpoint>
            <Time>2018-04-21T11:08:08.000Z</Time>
            <Position>
              <LatitudeDegrees>43.231532759964466094970703125</LatitudeDegrees>
              <LongitudeDegrees>-8.24596948921680450439453125</LongitudeDegrees>
            </Position>
            <AltitudeMeters>70</AltitudeMeters>
            <DistanceMeters>49463.029343495</DistanceMeters>
          </Trackpoint>
          <Trackpoint>
            <Time>2018-04-21T11:08:09.000Z</Time>
            <Position>
              <LatitudeDegrees>43.23160945437848567962646484375</LatitudeDegrees>
              <LongitudeDegrees>-8.24596144258975982666015625</LongitudeDegrees>
            </Position>
            <AltitudeMeters>69.40000152587890625</AltitudeMeters>
            <DistanceMeters>49471.59019044</DistanceMeters>
          </Trackpoint>
          <Trackpoint>
            <Time>2018-04-21T11:08:12.000Z</Time>
            <Position>
              <LatitudeDegrees>43.2318759150803089141845703125</LatitudeDegrees>
              <LongitudeDegrees>-8.24598868377506732940673828125</LongitudeDegrees>
            </Position>
            <AltitudeMeters>67.59999847412109375</AltitudeMeters>
            <DistanceMeters>49501.329908618</DistanceMeters>
          </Trackpoint>
          <Trackpoint>
            <Time>2018-04-21T11:08:13.000Z</Time>
            <Position>
              <LatitudeDegrees>43.23196652345359325408935546875</LatitudeDegrees>
              <LongitudeDegrees>-8.24599505402147769927978515625</LongitudeDegrees>
            </Position>
            <AltitudeMeters>67.1999969482421875</AltitudeMeters>
            <DistanceMeters>49511.428704752</DistanceMeters>
          </Trackpoint>
          <Trackpoint>
            <Time>2018-04-21T11:08:14.000Z</Time>
            <Position>
              <LatitudeDegrees>43.23204648680984973907470703125</LatitudeDegrees>
              <LongitudeDegrees>-8.2459703274071216583251953125</LongitudeDegrees>
            </Position>
            <AltitudeMeters>66.40000152587890625</AltitudeMeters>
            <DistanceMeters>49520.551764249</DistanceMeters>
          </Trackpoint>
          <Trackpoint>
            <Time>2018-04-21T11:08:16.000Z</Time>
            <Position>
              <LatitudeDegrees>43.2321743108332157135009765625</LatitudeDegrees>
              <LongitudeDegrees>-8.2458908669650554656982421875</LongitudeDegrees>
            </Position>
            <AltitudeMeters>65</AltitudeMeters>
            <DistanceMeters>49536.169716257</DistanceMeters>
          </Trackpoint>
          <Trackpoint>
            <Time>2018-04-21T11:08:17.000Z</Time>
            <Position>
              <LatitudeDegrees>43.2322460599243640899658203125</LatitudeDegrees>
              <LongitudeDegrees>-8.24587963521480560302734375</LongitudeDegrees>
            </Position>
            <AltitudeMeters>65</AltitudeMeters>
            <DistanceMeters>49544.207201366</DistanceMeters>
          </Trackpoint>
          <Trackpoint>
            <Time>2018-04-21T11:08:18.000Z</Time>
            <Position>
              <LatitudeDegrees>43.23232292197644710540771484375</LatitudeDegrees>
              <LongitudeDegrees>-8.2458972372114658355712890625</LongitudeDegrees>
            </Position>
            <AltitudeMeters>63.799999237060546875</AltitudeMeters>
            <DistanceMeters>49552.881219865</DistanceMeters>
          </Trackpoint>
          <Trackpoint>
            <Time>2018-04-21T11:08:19.000Z</Time>
            <Position>
              <LatitudeDegrees>43.23240003548562526702880859375</LatitudeDegrees>
              <LongitudeDegrees>-8.24594006873667240142822265625</LongitudeDegrees>
            </Position>
            <AltitudeMeters>62.799999237060546875</AltitudeMeters>
            <DistanceMeters>49562.140352965</DistanceMeters>
          </Trackpoint>
          <Trackpoint>
            <Time>2018-04-21T11:08:22.000Z</Time>
            <Position>
              <LatitudeDegrees>43.23265518061816692352294921875</LatitudeDegrees>
              <LongitudeDegrees>-8.246064372360706329345703125</LongitudeDegrees>
            </Position>
            <AltitudeMeters>61.59999847412109375</AltitudeMeters>
            <DistanceMeters>49592.274461334</DistanceMeters>
          </Trackpoint>
          <Trackpoint>
            <Time>2018-04-21T11:08:23.000Z</Time>
            <Position>
              <LatitudeDegrees>43.232745118439197540283203125</LatitudeDegrees>
              <LongitudeDegrees>-8.2460568286478519439697265625</LongitudeDegrees>
            </Position>
            <AltitudeMeters>61.200000762939453125</AltitudeMeters>
            <DistanceMeters>49602.303269411</DistanceMeters>
          </Trackpoint>
          <Trackpoint>
            <Time>2018-04-21T11:08:25.000Z</Time>
            <Position>
              <LatitudeDegrees>43.23292055167257785797119140625</LatitudeDegrees>
              <LongitudeDegrees>-8.24600704014301300048828125</LongitudeDegrees>
            </Position>
            <AltitudeMeters>61</AltitudeMeters>
            <DistanceMeters>49622.24258248</DistanceMeters>
          </Trackpoint>
          <Trackpoint>
            <Time>2018-04-21T11:08:27.000Z</Time>
            <Position>
              <LatitudeDegrees>43.233081400394439697265625</LatitudeDegrees>
              <LongitudeDegrees>-8.2459324412047863006591796875</LongitudeDegrees>
            </Position>
            <AltitudeMeters>60.59999847412109375</AltitudeMeters>
            <DistanceMeters>49641.139762244</DistanceMeters>
          </Trackpoint>
          <Trackpoint>
            <Time>2018-04-21T11:08:28.000Z</Time>
            <Position>
              <LatitudeDegrees>43.23315574787557125091552734375</LatitudeDegrees>
              <LongitudeDegrees>-8.245890028774738311767578125</LongitudeDegrees>
            </Position>
            <AltitudeMeters>60.40000152587890625</AltitudeMeters>
            <DistanceMeters>49650.101038371</DistanceMeters>
          </Trackpoint>
          <Trackpoint>
            <Time>2018-04-21T11:08:34.000Z</Time>
            <Position>
              <LatitudeDegrees>43.23357199318706989288330078125</LatitudeDegrees>
              <LongitudeDegrees>-8.2456233166158199310302734375</LongitudeDegrees>
            </Position>
            <AltitudeMeters>60.200000762939453125</AltitudeMeters>
            <DistanceMeters>49701.229737944</DistanceMeters>
          </Trackpoint>
          <Trackpoint>
            <Time>2018-04-21T11:08:41.000Z</Time>
            <Position>
              <LatitudeDegrees>43.23400533758103847503662109375</LatitudeDegrees>
              <LongitudeDegrees>-8.24523649178445339202880859375</LongitudeDegrees>
            </Position>
            <AltitudeMeters>60</AltitudeMeters>
            <DistanceMeters>49758.76478416</DistanceMeters>
          </Trackpoint>
          <Trackpoint>
            <Time>2018-04-21T11:08:45.000Z</Time>
            <Position>
              <LatitudeDegrees>43.2342127896845340728759765625</LatitudeDegrees>
              <LongitudeDegrees>-8.244992829859256744384765625</LongitudeDegrees>
            </Position>
            <AltitudeMeters>60.59999847412109375</AltitudeMeters>
            <DistanceMeters>49789.154618616</DistanceMeters>
          </Trackpoint>
          <Trackpoint>
            <Time>2018-04-21T11:08:48.000Z</Time>
            <Position>
              <LatitudeDegrees>43.23431043885648250579833984375</LatitudeDegrees>
              <LongitudeDegrees>-8.24490892700850963592529296875</LongitudeDegrees>
            </Position>
            <AltitudeMeters>61.200000762939453125</AltitudeMeters>
            <DistanceMeters>49801.977240496</DistanceMeters>
          </Trackpoint>
          <Trackpoint>
            <Time>2018-04-21T11:08:50.000Z</Time>
            <Position>
              <LatitudeDegrees>43.23428411968052387237548828125</LatitudeDegrees>
              <LongitudeDegrees>-8.24495217762887477874755859375</LongitudeDegrees>
            </Position>
            <AltitudeMeters>61</AltitudeMeters>
            <DistanceMeters>49806.548410685</DistanceMeters>
          </Trackpoint>
          <Trackpoint>
            <Time>2018-04-21T11:08:53.000Z</Time>
            <Position>
              <LatitudeDegrees>43.2341923378407955169677734375</LatitudeDegrees>
              <LongitudeDegrees>-8.24504437856376171112060546875</LongitudeDegrees>
            </Position>
            <AltitudeMeters>60.59999847412109375</AltitudeMeters>
            <DistanceMeters>49819.20766685</DistanceMeters>
          </Trackpoint>
          <Trackpoint>
            <Time>2018-04-21T11:08:54.000Z</Time>
            <Position>
              <LatitudeDegrees>43.23415671475231647491455078125</LatitudeDegrees>
              <LongitudeDegrees>-8.2450878806412220001220703125</LongitudeDegrees>
            </Position>
            <AltitudeMeters>60.799999237060546875</AltitudeMeters>
            <DistanceMeters>49824.513868726</DistanceMeters>
          </Trackpoint>
          <Trackpoint>
            <Time>2018-04-21T11:08:55.000Z</Time>
            <Position>
              <LatitudeDegrees>43.2341153919696807861328125</LatitudeDegrees>
              <LongitudeDegrees>-8.245126269757747650146484375</LongitudeDegrees>
            </Position>
            <AltitudeMeters>61</AltitudeMeters>
            <DistanceMeters>49830.067852984</DistanceMeters>
          </Trackpoint>
          <Trackpoint>
            <Time>2018-04-21T11:08:57.000Z</Time>
            <Position>
              <LatitudeDegrees>43.2340411283075809478759765625</LatitudeDegrees>
              <LongitudeDegrees>-8.2451257668435573577880859375</LongitudeDegrees>
            </Position>
            <AltitudeMeters>60.799999237060546875</AltitudeMeters>
            <DistanceMeters>49838.33353858</DistanceMeters>
          </Trackpoint>
          <Trackpoint>
            <Time>2018-04-21T11:08:59.000Z</Time>
            <Position>
              <LatitudeDegrees>43.23404037393629550933837890625</LatitudeDegrees>
              <LongitudeDegrees>-8.24503767304122447967529296875</LongitudeDegrees>
            </Position>
            <AltitudeMeters>59.799999237060546875</AltitudeMeters>
            <DistanceMeters>49845.477626489</DistanceMeters>
          </Trackpoint>
          <Trackpoint>
            <Time>2018-04-21T11:09:00.000Z</Time>
            <Position>
              <LatitudeDegrees>43.23405227623879909515380859375</LatitudeDegrees>
              <LongitudeDegrees>-8.2449857890605926513671875</LongitudeDegrees>
            </Position>
            <AltitudeMeters>59</AltitudeMeters>
            <DistanceMeters>49849.887930862</DistanceMeters>
          </Trackpoint>
          <Trackpoint>
            <Time>2018-04-21T11:09:01.000Z</Time>
            <Position>
              <LatitudeDegrees>43.2340659387409687042236328125</LatitudeDegrees>
              <LongitudeDegrees>-8.24492686428129673004150390625</LongitudeDegrees>
            </Position>
            <AltitudeMeters>59.200000762939453125</AltitudeMeters>
            <DistanceMeters>49854.901884673</DistanceMeters>
          </Trackpoint>
          <Trackpoint>
            <Time>2018-04-21T11:09:04.000Z</Time>
            <Position>
              <LatitudeDegrees>43.2341132126748561859130859375</LatitudeDegrees>
              <LongitudeDegrees>-8.244715221226215362548828125</LongitudeDegrees>
            </Position>
            <AltitudeMeters>58.799999237060546875</AltitudeMeters>
            <DistanceMeters>49872.852629723</DistanceMeters>
          </Trackpoint>
          <Trackpoint>
            <Time>2018-04-21T11:09:05.000Z</Time>
            <Position>
              <LatitudeDegrees>43.23412276804447174072265625</LatitudeDegrees>
              <LongitudeDegrees>-8.244635425508022308349609375</LongitudeDegrees>
            </Position>
            <AltitudeMeters>58</AltitudeMeters>
            <DistanceMeters>49879.410161577</DistanceMeters>
          </Trackpoint>
          <Trackpoint>
            <Time>2018-04-21T11:09:09.000Z</Time>
            <Position>
              <LatitudeDegrees>43.23413291014730930328369140625</LatitudeDegrees>
              <LongitudeDegrees>-8.2442962937057018280029296875</LongitudeDegrees>
            </Position>
            <AltitudeMeters>57.799999237060546875</AltitudeMeters>
            <DistanceMeters>49906.933809102</DistanceMeters>
          </Trackpoint>
          <Trackpoint>
            <Time>2018-04-21T11:09:11.000Z</Time>
            <Position>
              <LatitudeDegrees>43.23412218131124973297119140625</LatitudeDegrees>
              <LongitudeDegrees>-8.2441118918359279632568359375</LongitudeDegrees>
            </Position>
            <AltitudeMeters>57</AltitudeMeters>
            <DistanceMeters>49921.934491583</DistanceMeters>
          </Trackpoint>
          <Trackpoint>
            <Time>2018-04-21T11:09:14.000Z</Time>
            <Position>
              <LatitudeDegrees>43.2340810261666774749755859375</LatitudeDegrees>
              <LongitudeDegrees>-8.243825398385524749755859375</LongitudeDegrees>
            </Position>
            <AltitudeMeters>56.200000762939453125</AltitudeMeters>
            <DistanceMeters>49945.613501414</DistanceMeters>
          </Trackpoint>
          <Trackpoint>
            <Time>2018-04-21T11:09:15.000Z</Time>
            <Position>
              <LatitudeDegrees>43.23404573835432529449462890625</LatitudeDegrees>
              <LongitudeDegrees>-8.24373512528836727142333984375</LongitudeDegrees>
            </Position>
            <AltitudeMeters>56.200000762939453125</AltitudeMeters>
            <DistanceMeters>49953.920597428</DistanceMeters>
          </Trackpoint>
          <Trackpoint>
            <Time>2018-04-21T11:09:16.000Z</Time>
            <Position>
              <LatitudeDegrees>43.23400584049522876739501953125</LatitudeDegrees>
              <LongitudeDegrees>-8.24364610947668552398681640625</LongitudeDegrees>
            </Position>
            <AltitudeMeters>55.799999237060546875</AltitudeMeters>
            <DistanceMeters>49962.395041242</DistanceMeters>
          </Trackpoint>
          <Trackpoint>
            <Time>2018-04-21T11:09:18.000Z</Time>
            <Position>
              <LatitudeDegrees>43.23392922990024089813232421875</LatitudeDegrees>
              <LongitudeDegrees>-8.24347394518554210662841796875</LongitudeDegrees>
            </Position>
            <AltitudeMeters>55.200000762939453125</AltitudeMeters>
            <DistanceMeters>49978.75371831</DistanceMeters>
          </Trackpoint>
          <Trackpoint>
            <Time>2018-04-21T11:09:19.000Z</Time>
            <Position>
              <LatitudeDegrees>43.2338989712297916412353515625</LatitudeDegrees>
              <LongitudeDegrees>-8.24340404011309146881103515625</LongitudeDegrees>
            </Position>
            <AltitudeMeters>54.799999237060546875</AltitudeMeters>
            <DistanceMeters>49985.346956361</DistanceMeters>
          </Trackpoint>
          <Trackpoint>
            <Time>2018-04-21T11:09:20.000Z</Time>
            <Position>
              <LatitudeDegrees>43.23387575335800647735595703125</LatitudeDegrees>
              <LongitudeDegrees>-8.24333916418254375457763671875</LongitudeDegrees>
            </Position>
            <AltitudeMeters>53.200000762939453125</AltitudeMeters>
            <DistanceMeters>49991.207878711</DistanceMeters>
          </Trackpoint>
          <Trackpoint>
            <Time>2018-04-21T11:09:21.000Z</Time>
            <Position>
              <LatitudeDegrees>43.23386586271226406097412109375</LatitudeDegrees>
              <LongitudeDegrees>-8.243274874985218048095703125</LongitudeDegrees>
            </Position>
            <AltitudeMeters>52.59999847412109375</AltitudeMeters>
            <DistanceMeters>49996.536158015</DistanceMeters>
          </Trackpoint>
          <Trackpoint>
            <Time>2018-04-21T11:09:22.000Z</Time>
            <Position>
              <LatitudeDegrees>43.23386720381677150726318359375</LatitudeDegrees>
              <LongitudeDegrees>-8.2432093285024166107177734375</LongitudeDegrees>
            </Position>
            <AltitudeMeters>51.59999847412109375</AltitudeMeters>
            <DistanceMeters>50001.854259125</DistanceMeters>
          </Trackpoint>
          <Trackpoint>
            <Time>2018-04-21T11:09:24.000Z</Time>
            <Position>
              <LatitudeDegrees>43.23390777222812175750732421875</LatitudeDegrees>
              <LongitudeDegrees>-8.243083767592906951904296875</LongitudeDegrees>
            </Position>
            <AltitudeMeters>50.59999847412109375</AltitudeMeters>
            <DistanceMeters>50012.992265688</DistanceMeters>
          </Trackpoint>
          <Trackpoint>
            <Time>2018-04-21T11:09:25.000Z</Time>
            <Position>
              <LatitudeDegrees>43.233946077525615692138671875</LatitudeDegrees>
              <LongitudeDegrees>-8.24303247034549713134765625</LongitudeDegrees>
            </Position>
            <AltitudeMeters>50.200000762939453125</AltitudeMeters>
            <DistanceMeters>50018.949463051</DistanceMeters>
          </Trackpoint>
          <Trackpoint>
            <Time>2018-04-21T11:09:27.000Z</Time>
            <Position>
              <LatitudeDegrees>43.23404590599238872528076171875</LatitudeDegrees>
              <LongitudeDegrees>-8.24294471181929111480712890625</LongitudeDegrees>
            </Position>
            <AltitudeMeters>50</AltitudeMeters>
            <DistanceMeters>50032.144154175</DistanceMeters>
          </Trackpoint>
          <Trackpoint>
            <Time>2018-04-21T11:09:29.000Z</Time>
            <Position>
              <LatitudeDegrees>43.234181441366672515869140625</LatitudeDegrees>
              <LongitudeDegrees>-8.2429008744657039642333984375</LongitudeDegrees>
            </Position>
            <AltitudeMeters>49.200000762939453125</AltitudeMeters>
            <DistanceMeters>50047.642542265</DistanceMeters>
          </Trackpoint>
          <Trackpoint>
            <Time>2018-04-21T11:09:30.000Z</Time>
            <Position>
              <LatitudeDegrees>43.23425813578069210052490234375</LatitudeDegrees>
              <LongitudeDegrees>-8.24290506541728973388671875</LongitudeDegrees>
            </Position>
            <AltitudeMeters>48.59999847412109375</AltitudeMeters>
            <DistanceMeters>50056.185438602</DistanceMeters>
          </Trackpoint>
          <Trackpoint>
            <Time>2018-04-21T11:09:31.000Z</Time>
            <Position>
              <LatitudeDegrees>43.23433793149888515472412109375</LatitudeDegrees>
              <LongitudeDegrees>-8.24291788972914218902587890625</LongitudeDegrees>
            </Position>
            <AltitudeMeters>48.40000152587890625</AltitudeMeters>
            <DistanceMeters>50065.127548359</DistanceMeters>
          </Trackpoint>
          <Trackpoint>
            <Time>2018-04-21T11:09:33.000Z</Time>
            <Position>
              <LatitudeDegrees>43.23450037278234958648681640625</LatitudeDegrees>
              <LongitudeDegrees>-8.242909424006938934326171875</LongitudeDegrees>
            </Position>
            <AltitudeMeters>48</AltitudeMeters>
            <DistanceMeters>50083.220594848</DistanceMeters>
          </Trackpoint>
          <Trackpoint>
            <Time>2018-04-21T11:09:35.000Z</Time>
            <Position>
              <LatitudeDegrees>43.23467002250254154205322265625</LatitudeDegrees>
              <LongitudeDegrees>-8.2428760640323162078857421875</LongitudeDegrees>
            </Position>
            <AltitudeMeters>46.799999237060546875</AltitudeMeters>
            <DistanceMeters>50102.296127878</DistanceMeters>
          </Trackpoint>
          <Trackpoint>
            <Time>2018-04-21T11:09:37.000Z</Time>
            <Position>
              <LatitudeDegrees>43.234837241470813751220703125</LatitudeDegrees>
              <LongitudeDegrees>-8.2427852042019367218017578125</LongitudeDegrees>
            </Position>
            <AltitudeMeters>45.40000152587890625</AltitudeMeters>
            <DistanceMeters>50122.313184404</DistanceMeters>
          </Trackpoint>
          <Trackpoint>
            <Time>2018-04-21T11:09:38.000Z</Time>
            <Position>
              <LatitudeDegrees>43.234916031360626220703125</LatitudeDegrees>
              <LongitudeDegrees>-8.2427272014319896697998046875</LongitudeDegrees>
            </Position>
            <AltitudeMeters>44.40000152587890625</AltitudeMeters>
            <DistanceMeters>50132.264255617</DistanceMeters>
          </Trackpoint>
          <Trackpoint>
            <Time>2018-04-21T11:09:39.000Z</Time>
            <Position>
              <LatitudeDegrees>43.23499322868883609771728515625</LatitudeDegrees>
              <LongitudeDegrees>-8.24265821836888790130615234375</LongitudeDegrees>
            </Position>
            <AltitudeMeters>43</AltitudeMeters>
            <DistanceMeters>50142.517017191</DistanceMeters>
          </Trackpoint>
          <Trackpoint>
            <Time>2018-04-21T11:09:40.000Z</Time>
            <Position>
              <LatitudeDegrees>43.23506715707480907440185546875</LatitudeDegrees>
              <LongitudeDegrees>-8.24256869964301586151123046875</LongitudeDegrees>
            </Position>
            <AltitudeMeters>42</AltitudeMeters>
            <DistanceMeters>50153.489619855</DistanceMeters>
          </Trackpoint>
          <Trackpoint>
            <Time>2018-04-21T11:09:41.000Z</Time>
            <Position>
              <LatitudeDegrees>43.23514108546078205108642578125</LatitudeDegrees>
              <LongitudeDegrees>-8.242464847862720489501953125</LongitudeDegrees>
            </Position>
            <AltitudeMeters>40.59999847412109375</AltitudeMeters>
            <DistanceMeters>50165.263349234</DistanceMeters>
          </Trackpoint>
          <Trackpoint>
            <Time>2018-04-21T11:09:42.000Z</Time>
            <Position>
              <LatitudeDegrees>43.235212080180644989013671875</LatitudeDegrees>
              <LongitudeDegrees>-8.24234959669411182403564453125</LongitudeDegrees>
            </Position>
            <AltitudeMeters>39.799999237060546875</AltitudeMeters>
            <DistanceMeters>50177.501520989</DistanceMeters>
          </Trackpoint>
          <Trackpoint>
            <Time>2018-04-21T11:09:43.000Z</Time>
            <Position>
              <LatitudeDegrees>43.23527804575860500335693359375</LatitudeDegrees>
              <LongitudeDegrees>-8.2422316633164882659912109375</LongitudeDegrees>
            </Position>
            <AltitudeMeters>38.799999237060546875</AltitudeMeters>
            <DistanceMeters>50189.557561402</DistanceMeters>
          </Trackpoint>
          <Trackpoint>
            <Time>2018-04-21T11:09:44.000Z</Time>
            <Position>
              <LatitudeDegrees>43.235344849526882171630859375</LatitudeDegrees>
              <LongitudeDegrees>-8.24211440049111843109130859375</LongitudeDegrees>
            </Position>
            <AltitudeMeters>37.40000152587890625</AltitudeMeters>
            <DistanceMeters>50201.628198644</DistanceMeters>
          </Trackpoint>
          <Trackpoint>
            <Time>2018-04-21T11:09:45.000Z</Time>
            <Position>
              <LatitudeDegrees>43.23540620505809783935546875</LatitudeDegrees>
              <LongitudeDegrees>-8.2420003227889537811279296875</LongitudeDegrees>
            </Position>
            <AltitudeMeters>35.799999237060546875</AltitudeMeters>
            <DistanceMeters>50213.126038404</DistanceMeters>
          </Trackpoint>
          <Trackpoint>
            <Time>2018-04-21T11:09:46.000Z</Time>
            <Position>
              <LatitudeDegrees>43.23545574210584163665771484375</LatitudeDegrees>
              <LongitudeDegrees>-8.2418918609619140625</LongitudeDegrees>
            </Position>
            <AltitudeMeters>33.40000152587890625</AltitudeMeters>
            <DistanceMeters>50223.506157484</DistanceMeters>
          </Trackpoint>
          <Trackpoint>
            <Time>2018-04-21T11:09:47.000Z</Time>
            <Position>
              <LatitudeDegrees>43.235491029918193817138671875</LatitudeDegrees>
              <LongitudeDegrees>-8.24180410243570804595947265625</LongitudeDegrees>
            </Position>
            <AltitudeMeters>32.200000762939453125</AltitudeMeters>
            <DistanceMeters>50231.634136277</DistanceMeters>
          </Trackpoint>
          <Trackpoint>
            <Time>2018-04-21T11:09:49.000Z</Time>
            <Position>
              <LatitudeDegrees>43.23556034825742244720458984375</LatitudeDegrees>
              <LongitudeDegrees>-8.24167937971651554107666015625</LongitudeDegrees>
            </Position>
            <AltitudeMeters>31</AltitudeMeters>
            <DistanceMeters>50244.354944816</DistanceMeters>
          </Trackpoint>
          <Trackpoint>
            <Time>2018-04-21T11:09:50.000Z</Time>
            <Position>
              <LatitudeDegrees>43.23560728691518306732177734375</LatitudeDegrees>
              <LongitudeDegrees>-8.24167250655591487884521484375</LongitudeDegrees>
            </Position>
            <AltitudeMeters>30.799999237060546875</AltitudeMeters>
            <DistanceMeters>50249.609844793</DistanceMeters>
          </Trackpoint>
          <Trackpoint>
            <Time>2018-04-21T11:09:53.000Z</Time>
            <Position>
              <LatitudeDegrees>43.2357493601739406585693359375</LatitudeDegrees>
              <LongitudeDegrees>-8.2416787929832935333251953125</LongitudeDegrees>
            </Position>
            <AltitudeMeters>30.799999237060546875</AltitudeMeters>
            <DistanceMeters>50265.43115065</DistanceMeters>
          </Trackpoint>
          <Trackpoint>
            <Time>2018-04-21T11:09:54.000Z</Time>
            <Position>
              <LatitudeDegrees>43.23580107651650905609130859375</LatitudeDegrees>
              <LongitudeDegrees>-8.2416875101625919342041015625</LongitudeDegrees>
            </Position>
            <AltitudeMeters>30.6000003814697265625</AltitudeMeters>
            <DistanceMeters>50271.230116478</DistanceMeters>
          </Trackpoint>
          <Trackpoint>
            <Time>2018-04-21T11:09:56.000Z</Time>
            <Position>
              <LatitudeDegrees>43.2359247095882892608642578125</LatitudeDegrees>
              <LongitudeDegrees>-8.2417176850140094757080078125</LongitudeDegrees>
            </Position>
            <AltitudeMeters>30.6000003814697265625</AltitudeMeters>
            <DistanceMeters>50285.206475576</DistanceMeters>
          </Trackpoint>
          <Trackpoint>
            <Time>2018-04-21T11:09:58.000Z</Time>
            <Position>
              <LatitudeDegrees>43.23605186305940151214599609375</LatitudeDegrees>
              <LongitudeDegrees>-8.24174995534121990203857421875</LongitudeDegrees>
            </Position>
            <AltitudeMeters>30.3999996185302734375</AltitudeMeters>
            <DistanceMeters>50299.598553031</DistanceMeters>
          </Trackpoint>
          <Trackpoint>
            <Time>2018-04-21T11:09:59.000Z</Time>
            <Position>
              <LatitudeDegrees>43.23611623607575893402099609375</LatitudeDegrees>
              <LongitudeDegrees>-8.241774179041385650634765625</LongitudeDegrees>
            </Position>
            <AltitudeMeters>30.3999996185302734375</AltitudeMeters>
            <DistanceMeters>50307.02767325</DistanceMeters>
          </Trackpoint>
          <Trackpoint>
            <Time>2018-04-21T11:10:07.000Z</Time>
            <Position>
              <LatitudeDegrees>43.23662954382598400115966796875</LatitudeDegrees>
              <LongitudeDegrees>-8.24200920760631561279296875</LongitudeDegrees>
            </Position>
            <AltitudeMeters>30.200000762939453125</AltitudeMeters>
            <DistanceMeters>50367.254672236</DistanceMeters>
          </Trackpoint>
          <Trackpoint>
            <Time>2018-04-21T11:10:13.000Z</Time>
            <Position>
              <LatitudeDegrees>43.2369781471788883209228515625</LatitudeDegrees>
              <LongitudeDegrees>-8.24229142628610134124755859375</LongitudeDegrees>
            </Position>
            <AltitudeMeters>30.200000762939453125</AltitudeMeters>
            <DistanceMeters>50412.300542386</DistanceMeters>
          </Trackpoint>
          <Trackpoint>
            <Time>2018-04-21T11:10:20.000Z</Time>
            <Position>
              <LatitudeDegrees>43.23732457123696804046630859375</LatitudeDegrees>
              <LongitudeDegrees>-8.242596276104450225830078125</LongitudeDegrees>
            </Position>
            <AltitudeMeters>30.799999237060546875</AltitudeMeters>
            <DistanceMeters>50458.101447161</DistanceMeters>
          </Trackpoint>
          <Trackpoint>
            <Time>2018-04-21T11:10:22.000Z</Time>
            <Position>
              <LatitudeDegrees>43.23743403889238834381103515625</LatitudeDegrees>
              <LongitudeDegrees>-8.2426480762660503387451171875</LongitudeDegrees>
            </Position>
            <AltitudeMeters>31</AltitudeMeters>
            <DistanceMeters>50470.989396032</DistanceMeters>
          </Trackpoint>
          <Trackpoint>
            <Time>2018-04-21T11:10:25.000Z</Time>
            <Position>
              <LatitudeDegrees>43.2376101426780223846435546875</LatitudeDegrees>
              <LongitudeDegrees>-8.24269359000027179718017578125</LongitudeDegrees>
            </Position>
            <AltitudeMeters>30.799999237060546875</AltitudeMeters>
            <DistanceMeters>50490.934595647</DistanceMeters>
          </Trackpoint>
          <Trackpoint>
            <Time>2018-04-21T11:10:31.000Z</Time>
            <Position>
              <LatitudeDegrees>43.23797576129436492919921875</LatitudeDegrees>
              <LongitudeDegrees>-8.242739774286746978759765625</LongitudeDegrees>
            </Position>
            <AltitudeMeters>30.200000762939453125</AltitudeMeters>
            <DistanceMeters>50531.800502434</DistanceMeters>
          </Trackpoint>
          <Trackpoint>
            <Time>2018-04-21T11:10:32.000Z</Time>
            <Position>
              <LatitudeDegrees>43.2380362786352634429931640625</LatitudeDegrees>
              <LongitudeDegrees>-8.24274622835218906402587890625</LongitudeDegrees>
            </Position>
            <AltitudeMeters>30</AltitudeMeters>
            <DistanceMeters>50538.556093182</DistanceMeters>
          </Trackpoint>
          <Trackpoint>
            <Time>2018-04-21T11:10:38.000Z</Time>
            <Position>
              <LatitudeDegrees>43.23840483091771602630615234375</LatitudeDegrees>
              <LongitudeDegrees>-8.24276424944400787353515625</LongitudeDegrees>
            </Position>
            <AltitudeMeters>29.3999996185302734375</AltitudeMeters>
            <DistanceMeters>50579.602794181</DistanceMeters>
          </Trackpoint>
          <Trackpoint>
            <Time>2018-04-21T11:10:40.000Z</Time>
            <Position>
              <LatitudeDegrees>43.23853433132171630859375</LatitudeDegrees>
              <LongitudeDegrees>-8.242720663547515869140625</LongitudeDegrees>
            </Position>
            <AltitudeMeters>29.200000762939453125</AltitudeMeters>
            <DistanceMeters>50594.44339944</DistanceMeters>
          </Trackpoint>
          <Trackpoint>
            <Time>2018-04-21T11:10:42.000Z</Time>
            <Position>
              <LatitudeDegrees>43.2386622391641139984130859375</LatitudeDegrees>
              <LongitudeDegrees>-8.24264564551413059234619140625</LongitudeDegrees>
            </Position>
            <AltitudeMeters>28.799999237060546875</AltitudeMeters>
            <DistanceMeters>50609.925464843</DistanceMeters>
          </Trackpoint>
          <Trackpoint>
            <Time>2018-04-21T11:10:44.000Z</Time>
            <Position>
              <LatitudeDegrees>43.238800205290317535400390625</LatitudeDegrees>
              <LongitudeDegrees>-8.24259066022932529449462890625</LongitudeDegrees>
            </Position>
            <AltitudeMeters>28.3999996185302734375</AltitudeMeters>
            <DistanceMeters>50625.915668547</DistanceMeters>
          </Trackpoint>
          <Trackpoint>
            <Time>2018-04-21T11:10:45.000Z</Time>
            <Position>
              <LatitudeDegrees>43.23887220583856105804443359375</LatitudeDegrees>
              <LongitudeDegrees>-8.24257121421396732330322265625</LongitudeDegrees>
            </Position>
            <AltitudeMeters>27.799999237060546875</AltitudeMeters>
            <DistanceMeters>50634.08354494</DistanceMeters>
          </Trackpoint>
          <Trackpoint>
            <Time>2018-04-21T11:10:52.000Z</Time>
            <Position>
              <LatitudeDegrees>43.239354752004146575927734375</LatitudeDegrees>
              <LongitudeDegrees>-8.24247431941330432891845703125</LongitudeDegrees>
            </Position>
            <AltitudeMeters>28</AltitudeMeters>
            <DistanceMeters>50688.363516219</DistanceMeters>
          </Trackpoint>
          <Trackpoint>
            <Time>2018-04-21T11:10:56.000Z</Time>
            <Position>
              <LatitudeDegrees>43.2396124117076396942138671875</LatitudeDegrees>
              <LongitudeDegrees>-8.24256199412047863006591796875</LongitudeDegrees>
            </Position>
            <AltitudeMeters>28</AltitudeMeters>
            <DistanceMeters>50717.909337412</DistanceMeters>
          </Trackpoint>
          <Trackpoint>
            <Time>2018-04-21T11:10:59.000Z</Time>
            <Position>
              <LatitudeDegrees>43.239769153296947479248046875</LatitudeDegrees>
              <LongitudeDegrees>-8.24273851700127124786376953125</LongitudeDegrees>
            </Position>
            <AltitudeMeters>27</AltitudeMeters>
            <DistanceMeters>50740.474930927</DistanceMeters>
          </Trackpoint>
          <Trackpoint>
            <Time>2018-04-21T11:11:00.000Z</Time>
            <Position>
              <LatitudeDegrees>43.23981869034469127655029296875</LatitudeDegrees>
              <LongitudeDegrees>-8.2428078353404998779296875</LongitudeDegrees>
            </Position>
            <AltitudeMeters>27.200000762939453125</AltitudeMeters>
            <DistanceMeters>50748.34897086</DistanceMeters>
          </Trackpoint>
          <Trackpoint>
            <Time>2018-04-21T11:11:06.000Z</Time>
            <Position>
              <LatitudeDegrees>43.24008531868457794189453125</LatitudeDegrees>
              <LongitudeDegrees>-8.24327060021460056304931640625</LongitudeDegrees>
            </Position>
            <AltitudeMeters>27.200000762939453125</AltitudeMeters>
            <DistanceMeters>50796.188386243</DistanceMeters>
          </Trackpoint>
          <Trackpoint>
            <Time>2018-04-21T11:11:12.000Z</Time>
            <Position>
              <LatitudeDegrees>43.24036837555468082427978515625</LatitudeDegrees>
              <LongitudeDegrees>-8.24368902482092380523681640625</LongitudeDegrees>
            </Position>
            <AltitudeMeters>27.200000762939453125</AltitudeMeters>
            <DistanceMeters>50842.487172474</DistanceMeters>
          </Trackpoint>
          <Trackpoint>
            <Time>2018-04-21T11:11:18.000Z</Time>
            <Position>
              <LatitudeDegrees>43.24066509492695331573486328125</LatitudeDegrees>
              <LongitudeDegrees>-8.24400552548468112945556640625</LongitudeDegrees>
            </Position>
            <AltitudeMeters>27.799999237060546875</AltitudeMeters>
            <DistanceMeters>50884.311019357</DistanceMeters>
          </Trackpoint>
          <Trackpoint>
            <Time>2018-04-21T11:11:24.000Z</Time>
            <Position>
              <LatitudeDegrees>43.2409454695880413055419921875</LatitudeDegrees>
              <LongitudeDegrees>-8.24432152323424816131591796875</LongitudeDegrees>
            </Position>
            <AltitudeMeters>28.6000003814697265625</AltitudeMeters>
            <DistanceMeters>50924.687869174</DistanceMeters>
          </Trackpoint>
          <Trackpoint>
            <Time>2018-04-21T11:11:25.000Z</Time>
            <Position>
              <LatitudeDegrees>43.24099517427384853363037109375</LatitudeDegrees>
              <LongitudeDegrees>-8.2443636842072010040283203125</LongitudeDegrees>
            </Position>
            <AltitudeMeters>28.6000003814697265625</AltitudeMeters>
            <DistanceMeters>50931.19147418</DistanceMeters>
          </Trackpoint>
          <Trackpoint>
            <Time>2018-04-21T11:11:29.000Z</Time>
            <Position>
              <LatitudeDegrees>43.241192735731601715087890625</LatitudeDegrees>
              <LongitudeDegrees>-8.24449938721954822540283203125</LongitudeDegrees>
            </Position>
            <AltitudeMeters>26</AltitudeMeters>
            <DistanceMeters>50955.779716859</DistanceMeters>
          </Trackpoint>
          <Trackpoint>
            <Time>2018-04-21T11:11:30.000Z</Time>
            <Position>
              <LatitudeDegrees>43.2412385009229183197021484375</LatitudeDegrees>
              <LongitudeDegrees>-8.24452771805226802825927734375</LongitudeDegrees>
            </Position>
            <AltitudeMeters>27.200000762939453125</AltitudeMeters>
            <DistanceMeters>50961.367740154</DistanceMeters>
          </Trackpoint>
          <Trackpoint>
            <Time>2018-04-21T11:11:31.000Z</Time>
            <Position>
              <LatitudeDegrees>43.24128116481006145477294921875</LatitudeDegrees>
              <LongitudeDegrees>-8.24455923400819301605224609375</LongitudeDegrees>
            </Position>
            <AltitudeMeters>29</AltitudeMeters>
            <DistanceMeters>50966.760872475</DistanceMeters>
          </Trackpoint>
          <Trackpoint>
            <Time>2018-04-21T11:11:35.000Z</Time>
            <Position>
              <LatitudeDegrees>43.2414215616881847381591796875</LatitudeDegrees>
              <LongitudeDegrees>-8.24463953264057636260986328125</LongitudeDegrees>
            </Position>
            <AltitudeMeters>30</AltitudeMeters>
            <DistanceMeters>50983.689502249</DistanceMeters>
          </Trackpoint>
          <Trackpoint>
            <Time>2018-04-21T11:11:39.000Z</Time>
            <Position>
              <LatitudeDegrees>43.24158199131488800048828125</LatitudeDegrees>
              <LongitudeDegrees>-8.24471262283623218536376953125</LongitudeDegrees>
            </Position>
            <AltitudeMeters>29.6000003814697265625</AltitudeMeters>
            <DistanceMeters>51002.50335184</DistanceMeters>
          </Trackpoint>
          <Trackpoint>
            <Time>2018-04-21T11:11:40.000Z</Time>
            <Position>
              <LatitudeDegrees>43.24163957498967647552490234375</LatitudeDegrees>
              <LongitudeDegrees>-8.244703151285648345947265625</LongitudeDegrees>
            </Position>
            <AltitudeMeters>29.200000762939453125</AltitudeMeters>
            <DistanceMeters>51008.958177377</DistanceMeters>
          </Trackpoint>
          <Trackpoint>
            <Time>2018-04-21T11:11:42.000Z</Time>
            <Position>
              <LatitudeDegrees>43.24176396243274211883544921875</LatitudeDegrees>
              <LongitudeDegrees>-8.2446612417697906494140625</LongitudeDegrees>
            </Position>
            <AltitudeMeters>29</AltitudeMeters>
            <DistanceMeters>51023.21408494</DistanceMeters>
          </Trackpoint>
          <Trackpoint>
            <Time>2018-04-21T11:11:44.000Z</Time>
            <Position>
              <LatitudeDegrees>43.24188516475260257720947265625</LatitudeDegrees>
              <LongitudeDegrees>-8.244587481021881103515625</LongitudeDegrees>
            </Position>
            <AltitudeMeters>29.3999996185302734375</AltitudeMeters>
            <DistanceMeters>51037.970482311</DistanceMeters>
          </Trackpoint>
          <Trackpoint>
            <Time>2018-04-21T11:11:46.000Z</Time>
            <Position>
              <LatitudeDegrees>43.2420039363205432891845703125</LatitudeDegrees>
              <LongitudeDegrees>-8.244499973952770233154296875</LongitudeDegrees>
            </Position>
            <AltitudeMeters>29.6000003814697265625</AltitudeMeters>
            <DistanceMeters>51052.973873448</DistanceMeters>
          </Trackpoint>
          <Trackpoint>
            <Time>2018-04-21T11:11:51.000Z</Time>
            <Position>
              <LatitudeDegrees>43.242305181920528411865234375</LatitudeDegrees>
              <LongitudeDegrees>-8.24427207000553607940673828125</LongitudeDegrees>
            </Position>
            <AltitudeMeters>28.799999237060546875</AltitudeMeters>
            <DistanceMeters>51091.257729673</DistanceMeters>
          </Trackpoint>
          <Trackpoint>
            <Time>2018-04-21T11:11:59.000Z</Time>
            <Position>
              <LatitudeDegrees>43.242781274020671844482421875</LatitudeDegrees>
              <LongitudeDegrees>-8.24390930123627185821533203125</LongitudeDegrees>
            </Position>
            <AltitudeMeters>28.200000762939453125</AltitudeMeters>
            <DistanceMeters>51151.863470607</DistanceMeters>
          </Trackpoint>
          <Trackpoint>
            <Time>2018-04-21T11:12:00.000Z</Time>
            <Position>
              <LatitudeDegrees>43.24284522794187068939208984375</LatitudeDegrees>
              <LongitudeDegrees>-8.24386931955814361572265625</LongitudeDegrees>
            </Position>
            <AltitudeMeters>28</AltitudeMeters>
            <DistanceMeters>51159.685733578</DistanceMeters>
          </Trackpoint>
          <Trackpoint>
            <Time>2018-04-21T11:12:03.000Z</Time>
            <Position>
              <LatitudeDegrees>43.24304915964603424072265625</LatitudeDegrees>
              <LongitudeDegrees>-8.24378390796482563018798828125</LongitudeDegrees>
            </Position>
            <AltitudeMeters>27.799999237060546875</AltitudeMeters>
            <DistanceMeters>51183.416741088</DistanceMeters>
          </Trackpoint>
          <Trackpoint>
            <Time>2018-04-21T11:12:05.000Z</Time>
            <Position>
              <LatitudeDegrees>43.243178911507129669189453125</LatitudeDegrees>
              <LongitudeDegrees>-8.24372112751007080078125</LongitudeDegrees>
            </Position>
            <AltitudeMeters>27.200000762939453125</AltitudeMeters>
            <DistanceMeters>51198.729316474</DistanceMeters>
          </Trackpoint>
          <Trackpoint>
            <Time>2018-04-21T11:12:06.000Z</Time>
            <Position>
              <LatitudeDegrees>43.2432441227138042449951171875</LatitudeDegrees>
              <LongitudeDegrees>-8.2437045313417911529541015625</LongitudeDegrees>
            </Position>
            <AltitudeMeters>26.799999237060546875</AltitudeMeters>
            <DistanceMeters>51206.111491718</DistanceMeters>
          </Trackpoint>
          <Trackpoint>
            <Time>2018-04-21T11:12:09.000Z</Time>
            <Position>
              <LatitudeDegrees>43.24341083876788616180419921875</LatitudeDegrees>
              <LongitudeDegrees>-8.2437806390225887298583984375</LongitudeDegrees>
            </Position>
            <AltitudeMeters>26.799999237060546875</AltitudeMeters>
            <DistanceMeters>51225.666225597</DistanceMeters>
          </Trackpoint>
          <Trackpoint>
            <Time>2018-04-21T11:12:10.000Z</Time>
            <Position>
              <LatitudeDegrees>43.2434586994349956512451171875</LatitudeDegrees>
              <LongitudeDegrees>-8.2438208721578121185302734375</LongitudeDegrees>
            </Position>
            <AltitudeMeters>26.6000003814697265625</AltitudeMeters>
            <DistanceMeters>51231.912741451</DistanceMeters>
          </Trackpoint>
          <Trackpoint>
            <Time>2018-04-21T11:12:17.000Z</Time>
            <Position>
              <LatitudeDegrees>43.24380286037921905517578125</LatitudeDegrees>
              <LongitudeDegrees>-8.24410124681890010833740234375</LongitudeDegrees>
            </Position>
            <AltitudeMeters>27</AltitudeMeters>
            <DistanceMeters>51276.455747257</DistanceMeters>
          </Trackpoint>
          <Trackpoint>
            <Time>2018-04-21T11:12:24.000Z</Time>
            <Position>
              <LatitudeDegrees>43.24417241849005222320556640625</LatitudeDegrees>
              <LongitudeDegrees>-8.24434851296246051788330078125</LongitudeDegrees>
            </Position>
            <AltitudeMeters>26.799999237060546875</AltitudeMeters>
            <DistanceMeters>51322.213749781</DistanceMeters>
          </Trackpoint>
          <Trackpoint>
            <Time>2018-04-21T11:12:33.000Z</Time>
            <Position>
              <LatitudeDegrees>43.2446345128118991851806640625</LatitudeDegrees>
              <LongitudeDegrees>-8.24469284154474735260009765625</LongitudeDegrees>
            </Position>
            <AltitudeMeters>27.3999996185302734375</AltitudeMeters>
            <DistanceMeters>51380.733851549</DistanceMeters>
          </Trackpoint>
          <Trackpoint>
            <Time>2018-04-21T11:12:34.000Z</Time>
            <Position>
              <LatitudeDegrees>43.24468036182224750518798828125</LatitudeDegrees>
              <LongitudeDegrees>-8.2447361759841442108154296875</LongitudeDegrees>
            </Position>
            <AltitudeMeters>27.3999996185302734375</AltitudeMeters>
            <DistanceMeters>51386.928835398</DistanceMeters>
          </Trackpoint>
          <Trackpoint>
            <Time>2018-04-21T11:12:37.000Z</Time>
            <Position>
              <LatitudeDegrees>43.24478111229836940765380859375</LatitudeDegrees>
              <LongitudeDegrees>-8.24493013322353363037109375</LongitudeDegrees>
            </Position>
            <AltitudeMeters>27.200000762939453125</AltitudeMeters>
            <DistanceMeters>51406.243117367</DistanceMeters>
          </Trackpoint>
          <Trackpoint>
            <Time>2018-04-21T11:12:39.000Z</Time>
            <Position>
              <LatitudeDegrees>43.24482620693743228912353515625</LatitudeDegrees>
              <LongitudeDegrees>-8.24507656507194042205810546875</LongitudeDegrees>
            </Position>
            <AltitudeMeters>27.3999996185302734375</AltitudeMeters>
            <DistanceMeters>51419.13281777</DistanceMeters>
          </Trackpoint>
          <Trackpoint>
            <Time>2018-04-21T11:12:43.000Z</Time>
            <Position>
              <LatitudeDegrees>43.24491438455879688262939453125</LatitudeDegrees>
              <LongitudeDegrees>-8.24536154977977275848388671875</LongitudeDegrees>
            </Position>
            <AltitudeMeters>27.6000003814697265625</AltitudeMeters>
            <DistanceMeters>51444.236062874</DistanceMeters>
          </Trackpoint>
          <Trackpoint>
            <Time>2018-04-21T11:12:44.000Z</Time>
            <Position>
              <LatitudeDegrees>43.24493383057415485382080078125</LatitudeDegrees>
              <LongitudeDegrees>-8.24542709626257419586181640625</LongitudeDegrees>
            </Position>
            <AltitudeMeters>27.799999237060546875</AltitudeMeters>
            <DistanceMeters>51449.973977017</DistanceMeters>
          </Trackpoint>
          <Trackpoint>
            <Time>2018-04-21T11:12:45.000Z</Time>
            <Position>
              <LatitudeDegrees>43.2449486665427684783935546875</LatitudeDegrees>
              <LongitudeDegrees>-8.24549146927893161773681640625</LongitudeDegrees>
            </Position>
            <AltitudeMeters>28</AltitudeMeters>
            <DistanceMeters>51455.449363194</DistanceMeters>
          </Trackpoint>
          <Trackpoint>
            <Time>2018-04-21T11:12:48.000Z</Time>
            <Position>
              <LatitudeDegrees>43.244973309338092803955078125</LatitudeDegrees>
              <LongitudeDegrees>-8.24567570351064205169677734375</LongitudeDegrees>
            </Position>
            <AltitudeMeters>28.6000003814697265625</AltitudeMeters>
            <DistanceMeters>51470.636404135</DistanceMeters>
          </Trackpoint>
          <Trackpoint>
            <Time>2018-04-21T11:12:50.000Z</Time>
            <Position>
              <LatitudeDegrees>43.24496769346296787261962890625</LatitudeDegrees>
              <LongitudeDegrees>-8.24579724110662937164306640625</LongitudeDegrees>
            </Position>
            <AltitudeMeters>28.799999237060546875</AltitudeMeters>
            <DistanceMeters>51480.510041018</DistanceMeters>
          </Trackpoint>
          <Trackpoint>
            <Time>2018-04-21T11:12:54.000Z</Time>
            <Position>
              <LatitudeDegrees>43.2449386082589626312255859375</LatitudeDegrees>
              <LongitudeDegrees>-8.246067054569721221923828125</LongitudeDegrees>
            </Position>
            <AltitudeMeters>29.6000003814697265625</AltitudeMeters>
            <DistanceMeters>51502.623719132</DistanceMeters>
          </Trackpoint>
          <Trackpoint>
            <Time>2018-04-21T11:12:56.000Z</Time>
            <Position>
              <LatitudeDegrees>43.24493533931672573089599609375</LatitudeDegrees>
              <LongitudeDegrees>-8.2462100498378276824951171875</LongitudeDegrees>
            </Position>
            <AltitudeMeters>30.200000762939453125</AltitudeMeters>
            <DistanceMeters>51514.222429356</DistanceMeters>
          </Trackpoint>
          <Trackpoint>
            <Time>2018-04-21T11:12:59.000Z</Time>
            <Position>
              <LatitudeDegrees>43.24498412199318408966064453125</LatitudeDegrees>
              <LongitudeDegrees>-8.2463827170431613922119140625</LongitudeDegrees>
            </Position>
            <AltitudeMeters>30.6000003814697265625</AltitudeMeters>
            <DistanceMeters>51529.237251649</DistanceMeters>
          </Trackpoint>
          <Trackpoint>
            <Time>2018-04-21T11:13:01.000Z</Time>
            <Position>
              <LatitudeDegrees>43.24503323994576930999755859375</LatitudeDegrees>
              <LongitudeDegrees>-8.246459998190402984619140625</LongitudeDegrees>
            </Position>
            <AltitudeMeters>30.799999237060546875</AltitudeMeters>
            <DistanceMeters>51537.551953403</DistanceMeters>
          </Trackpoint>
          <Trackpoint>
            <Time>2018-04-21T11:13:03.000Z</Time>
            <Position>
              <LatitudeDegrees>43.245080597698688507080078125</LatitudeDegrees>
              <LongitudeDegrees>-8.246528394520282745361328125</LongitudeDegrees>
            </Position>
            <AltitudeMeters>31.6000003814697265625</AltitudeMeters>
            <DistanceMeters>51545.202636739</DistanceMeters>
          </Trackpoint>
          <Trackpoint>
            <Time>2018-04-21T11:13:04.000Z</Time>
            <Position>
              <LatitudeDegrees>43.24510348029434680938720703125</LatitudeDegrees>
              <LongitudeDegrees>-8.24656267650425434112548828125</LongitudeDegrees>
            </Position>
            <AltitudeMeters>31.6000003814697265625</AltitudeMeters>
            <DistanceMeters>51548.972695137</DistanceMeters>
          </Trackpoint>
          <Trackpoint>
            <Time>2018-04-21T11:13:08.000Z</Time>
            <Position>
              <LatitudeDegrees>43.24518897570669651031494140625</LatitudeDegrees>
              <LongitudeDegrees>-8.24668907560408115386962890625</LongitudeDegrees>
            </Position>
            <AltitudeMeters>32.59999847412109375</AltitudeMeters>
            <DistanceMeters>51562.957450967</DistanceMeters>
          </Trackpoint>
          <Trackpoint>
            <Time>2018-04-21T11:13:09.000Z</Time>
            <Position>
              <LatitudeDegrees>43.2452128641307353973388671875</LatitudeDegrees>
              <LongitudeDegrees>-8.24672050774097442626953125</LongitudeDegrees>
            </Position>
            <AltitudeMeters>33</AltitudeMeters>
            <DistanceMeters>51566.640272551</DistanceMeters>
          </Trackpoint>
          <Trackpoint>
            <Time>2018-04-21T11:13:11.000Z</Time>
            <Position>
              <LatitudeDegrees>43.24524454772472381591796875</LatitudeDegrees>
              <LongitudeDegrees>-8.2467713020741939544677734375</LongitudeDegrees>
            </Position>
            <AltitudeMeters>33.40000152587890625</AltitudeMeters>
            <DistanceMeters>51572.061794369</DistanceMeters>
          </Trackpoint>
          <Trackpoint>
            <Time>2018-04-21T11:13:12.000Z</Time>
            <Position>
              <LatitudeDegrees>43.245260976254940032958984375</LatitudeDegrees>
              <LongitudeDegrees>-8.2467991299927234649658203125</LongitudeDegrees>
            </Position>
            <AltitudeMeters>33.59999847412109375</AltitudeMeters>
            <DistanceMeters>51574.965945088</DistanceMeters>
          </Trackpoint>
          <Trackpoint>
            <Time>2018-04-21T11:13:13.000Z</Time>
            <Position>
              <LatitudeDegrees>43.2452762313187122344970703125</LatitudeDegrees>
              <LongitudeDegrees>-8.24683123268187046051025390625</LongitudeDegrees>
            </Position>
            <AltitudeMeters>34</AltitudeMeters>
            <DistanceMeters>51578.074350112</DistanceMeters>
          </Trackpoint>
          <Trackpoint>
            <Time>2018-04-21T11:13:16.000Z</Time>
            <Position>
              <LatitudeDegrees>43.24530682526528835296630859375</LatitudeDegrees>
              <LongitudeDegrees>-8.246932737529277801513671875</LongitudeDegrees>
            </Position>
            <AltitudeMeters>35</AltitudeMeters>
            <DistanceMeters>51586.980538494</DistanceMeters>
          </Trackpoint>
          <Trackpoint>
            <Time>2018-04-21T11:13:17.000Z</Time>
            <Position>
              <LatitudeDegrees>43.24531001038849353790283203125</LatitudeDegrees>
              <LongitudeDegrees>-8.2469744794070720672607421875</LongitudeDegrees>
            </Position>
            <AltitudeMeters>35.200000762939453125</AltitudeMeters>
            <DistanceMeters>51590.382972623</DistanceMeters>
          </Trackpoint>
          <Trackpoint>
            <Time>2018-04-21T11:13:18.000Z</Time>
            <Position>
              <LatitudeDegrees>43.2453162968158721923828125</LatitudeDegrees>
              <LongitudeDegrees>-8.24702133424580097198486328125</LongitudeDegrees>
            </Position>
            <AltitudeMeters>35.40000152587890625</AltitudeMeters>
            <DistanceMeters>51594.245314695</DistanceMeters>
          </Trackpoint>
          <Trackpoint>
            <Time>2018-04-21T11:13:24.000Z</Time>
            <Position>
              <LatitudeDegrees>43.24532233178615570068359375</LatitudeDegrees>
              <LongitudeDegrees>-8.247315622866153717041015625</LongitudeDegrees>
            </Position>
            <AltitudeMeters>36.40000152587890625</AltitudeMeters>
            <DistanceMeters>51618.114428903</DistanceMeters>
          </Trackpoint>
          <Trackpoint>
            <Time>2018-04-21T11:13:25.000Z</Time>
            <Position>
              <LatitudeDegrees>43.2453241758048534393310546875</LatitudeDegrees>
              <LongitudeDegrees>-8.24737102724611759185791015625</LongitudeDegrees>
            </Position>
            <AltitudeMeters>36.40000152587890625</AltitudeMeters>
            <DistanceMeters>51622.611913893</DistanceMeters>
          </Trackpoint>
          <Trackpoint>
            <Time>2018-04-21T11:13:31.000Z</Time>
            <Position>
              <LatitudeDegrees>43.245384693145751953125</LatitudeDegrees>
              <LongitudeDegrees>-8.2476607896387577056884765625</LongitudeDegrees>
            </Position>
            <AltitudeMeters>37.59999847412109375</AltitudeMeters>
            <DistanceMeters>51647.050966988</DistanceMeters>
          </Trackpoint>
          <Trackpoint>
            <Time>2018-04-21T11:13:35.000Z</Time>
            <Position>
              <LatitudeDegrees>43.2454718649387359619140625</LatitudeDegrees>
              <LongitudeDegrees>-8.247785009443759918212890625</LongitudeDegrees>
            </Position>
            <AltitudeMeters>38.799999237060546875</AltitudeMeters>
            <DistanceMeters>51661.03539996</DistanceMeters>
          </Trackpoint>
          <Trackpoint>
            <Time>2018-04-21T11:13:37.000Z</Time>
            <Position>
              <LatitudeDegrees>43.24552626349031925201416015625</LatitudeDegrees>
              <LongitudeDegrees>-8.24783228337764739990234375</LongitudeDegrees>
            </Position>
            <AltitudeMeters>39.200000762939453125</AltitudeMeters>
            <DistanceMeters>51668.20094353</DistanceMeters>
          </Trackpoint>
          <Trackpoint>
            <Time>2018-04-21T11:13:40.000Z</Time>
            <Position>
              <LatitudeDegrees>43.24563321657478809356689453125</LatitudeDegrees>
              <LongitudeDegrees>-8.24788768775761127471923828125</LongitudeDegrees>
            </Position>
            <AltitudeMeters>40</AltitudeMeters>
            <DistanceMeters>51680.92388149</DistanceMeters>
          </Trackpoint>
          <Trackpoint>
            <Time>2018-04-21T11:13:43.000Z</Time>
            <Position>
              <LatitudeDegrees>43.24575819075107574462890625</LatitudeDegrees>
              <LongitudeDegrees>-8.24791953898966312408447265625</LongitudeDegrees>
            </Position>
            <AltitudeMeters>40.40000152587890625</AltitudeMeters>
            <DistanceMeters>51695.071058392</DistanceMeters>
          </Trackpoint>
          <Trackpoint>
            <Time>2018-04-21T11:13:46.000Z</Time>
            <Position>
              <LatitudeDegrees>43.245877884328365325927734375</LatitudeDegrees>
              <LongitudeDegrees>-8.24796195141971111297607421875</LongitudeDegrees>
            </Position>
            <AltitudeMeters>41</AltitudeMeters>
            <DistanceMeters>51708.82960092</DistanceMeters>
          </Trackpoint>
          <Trackpoint>
            <Time>2018-04-21T11:13:48.000Z</Time>
            <Position>
              <LatitudeDegrees>43.24595927260816097259521484375</LatitudeDegrees>
              <LongitudeDegrees>-8.247985504567623138427734375</LongitudeDegrees>
            </Position>
            <AltitudeMeters>42</AltitudeMeters>
            <DistanceMeters>51718.087758707</DistanceMeters>
          </Trackpoint>
          <Trackpoint>
            <Time>2018-04-21T11:13:51.000Z</Time>
            <Position>
              <LatitudeDegrees>43.2460735179483890533447265625</LatitudeDegrees>
              <LongitudeDegrees>-8.2480057887732982635498046875</LongitudeDegrees>
            </Position>
            <AltitudeMeters>41.59999847412109375</AltitudeMeters>
            <DistanceMeters>51730.909324199</DistanceMeters>
          </Trackpoint>
          <Trackpoint>
            <Time>2018-04-21T11:13:57.000Z</Time>
            <Position>
              <LatitudeDegrees>43.24627929367125034332275390625</LatitudeDegrees>
              <LongitudeDegrees>-8.24806856922805309295654296875</LongitudeDegrees>
            </Position>
            <AltitudeMeters>43.200000762939453125</AltitudeMeters>
            <DistanceMeters>51754.371495028</DistanceMeters>
          </Trackpoint>
          <Trackpoint>
            <Time>2018-04-21T11:13:59.000Z</Time>
            <Position>
              <LatitudeDegrees>43.24634651653468608856201171875</LatitudeDegrees>
              <LongitudeDegrees>-8.2480919547379016876220703125</LongitudeDegrees>
            </Position>
            <AltitudeMeters>43.59999847412109375</AltitudeMeters>
            <DistanceMeters>51762.090332012</DistanceMeters>
          </Trackpoint>
          <Trackpoint>
            <Time>2018-04-21T11:14:04.000Z</Time>
            <Position>
              <LatitudeDegrees>43.2465227879583835601806640625</LatitudeDegrees>
              <LongitudeDegrees>-8.24809455312788486480712890625</LongitudeDegrees>
            </Position>
            <AltitudeMeters>44.200000762939453125</AltitudeMeters>
            <DistanceMeters>51781.710989976</DistanceMeters>
          </Trackpoint>
          <Trackpoint>
            <Time>2018-04-21T11:14:05.000Z</Time>
            <Position>
              <LatitudeDegrees>43.246559165418148040771484375</LatitudeDegrees>
              <LongitudeDegrees>-8.2480718381702899932861328125</LongitudeDegrees>
            </Position>
            <AltitudeMeters>44.40000152587890625</AltitudeMeters>
            <DistanceMeters>51786.160026677</DistanceMeters>
          </Trackpoint>
          <Trackpoint>
            <Time>2018-04-21T11:14:08.000Z</Time>
            <Position>
              <LatitudeDegrees>43.246643655002117156982421875</LatitudeDegrees>
              <LongitudeDegrees>-8.2480004243552684783935546875</LongitudeDegrees>
            </Position>
            <AltitudeMeters>44.799999237060546875</AltitudeMeters>
            <DistanceMeters>51797.203177603</DistanceMeters>
          </Trackpoint>
          <Trackpoint>
            <Time>2018-04-21T11:14:09.000Z</Time>
            <Position>
              <LatitudeDegrees>43.2466579042375087738037109375</LatitudeDegrees>
              <LongitudeDegrees>-8.2479749433696269989013671875</LongitudeDegrees>
            </Position>
            <AltitudeMeters>45.40000152587890625</AltitudeMeters>
            <DistanceMeters>51799.809058929</DistanceMeters>
          </Trackpoint>
          <Trackpoint>
            <Time>2018-04-21T11:14:10.000Z</Time>
            <Position>
              <LatitudeDegrees>43.24666955508291721343994140625</LatitudeDegrees>
              <LongitudeDegrees>-8.24795222841203212738037109375</LongitudeDegrees>
            </Position>
            <AltitudeMeters>47.200000762939453125</AltitudeMeters>
            <DistanceMeters>51802.061813457</DistanceMeters>
          </Trackpoint>
          <Trackpoint>
            <Time>2018-04-21T11:14:13.000Z</Time>
            <Position>
              <LatitudeDegrees>43.24670006521046161651611328125</LatitudeDegrees>
              <LongitudeDegrees>-8.2478860951960086822509765625</LongitudeDegrees>
            </Position>
            <AltitudeMeters>46</AltitudeMeters>
            <DistanceMeters>51808.408715931</DistanceMeters>
          </Trackpoint>
          <Trackpoint>
            <Time>2018-04-21T11:14:17.000Z</Time>
            <Position>
              <LatitudeDegrees>43.24674063362181186676025390625</LatitudeDegrees>
              <LongitudeDegrees>-8.24777570553123950958251953125</LongitudeDegrees>
            </Position>
            <AltitudeMeters>47.200000762939453125</AltitudeMeters>
            <DistanceMeters>51818.433020928</DistanceMeters>
          </Trackpoint>
          <Trackpoint>
            <Time>2018-04-21T11:14:22.000Z</Time>
            <Position>
              <LatitudeDegrees>43.24678815901279449462890625</LatitudeDegrees>
              <LongitudeDegrees>-8.24764511547982692718505859375</LongitudeDegrees>
            </Position>
            <AltitudeMeters>48.40000152587890625</AltitudeMeters>
            <DistanceMeters>51830.26833021</DistanceMeters>
          </Trackpoint>
          <Trackpoint>
            <Time>2018-04-21T11:14:24.000Z</Time>
            <Position>
              <LatitudeDegrees>43.24680316261947154998779296875</LatitudeDegrees>
              <LongitudeDegrees>-8.2475917227566242218017578125</LongitudeDegrees>
            </Position>
            <AltitudeMeters>48.799999237060546875</AltitudeMeters>
            <DistanceMeters>51834.908125706</DistanceMeters>
          </Trackpoint>
          <Trackpoint>
            <Time>2018-04-21T11:14:27.000Z</Time>
            <Position>
              <LatitudeDegrees>43.2468389533460140228271484375</LatitudeDegrees>
              <LongitudeDegrees>-8.247503377497196197509765625</LongitudeDegrees>
            </Position>
            <AltitudeMeters>49.40000152587890625</AltitudeMeters>
            <DistanceMeters>51843.10359449</DistanceMeters>
          </Trackpoint>
          <Trackpoint>
            <Time>2018-04-21T11:14:30.000Z</Time>
            <Position>
              <LatitudeDegrees>43.246881701052188873291015625</LatitudeDegrees>
              <LongitudeDegrees>-8.2474073208868503570556640625</LongitudeDegrees>
            </Position>
            <AltitudeMeters>49.799999237060546875</AltitudeMeters>
            <DistanceMeters>51852.229128171</DistanceMeters>
          </Trackpoint>
          <Trackpoint>
            <Time>2018-04-21T11:14:33.000Z</Time>
            <Position>
              <LatitudeDegrees>43.24692034162580966949462890625</LatitudeDegrees>
              <LongitudeDegrees>-8.24730028398334980010986328125</LongitudeDegrees>
            </Position>
            <AltitudeMeters>50.40000152587890625</AltitudeMeters>
            <DistanceMeters>51861.914397093</DistanceMeters>
          </Trackpoint>
          <Trackpoint>
            <Time>2018-04-21T11:14:38.000Z</Time>
            <Position>
              <LatitudeDegrees>43.24697993695735931396484375</LatitudeDegrees>
              <LongitudeDegrees>-8.24713985435664653778076171875</LongitudeDegrees>
            </Position>
            <AltitudeMeters>51.59999847412109375</AltitudeMeters>
            <DistanceMeters>51876.514842792</DistanceMeters>
          </Trackpoint>
          <Trackpoint>
            <Time>2018-04-21T11:14:44.000Z</Time>
            <Position>
              <LatitudeDegrees>43.24700885452330112457275390625</LatitudeDegrees>
              <LongitudeDegrees>-8.24692829512059688568115234375</LongitudeDegrees>
            </Position>
            <AltitudeMeters>52.59999847412109375</AltitudeMeters>
            <DistanceMeters>51893.965898006</DistanceMeters>
          </Trackpoint>
          <Trackpoint>
            <Time>2018-04-21T11:14:45.000Z</Time>
            <Position>
              <LatitudeDegrees>43.24700969271361827850341796875</LatitudeDegrees>
              <LongitudeDegrees>-8.2468997128307819366455078125</LongitudeDegrees>
            </Position>
            <AltitudeMeters>52.799999237060546875</AltitudeMeters>
            <DistanceMeters>51896.285795754</DistanceMeters>
          </Trackpoint>
          <Trackpoint>
            <Time>2018-04-21T11:14:49.000Z</Time>
            <Position>
              <LatitudeDegrees>43.24699603021144866943359375</LatitudeDegrees>
              <LongitudeDegrees>-8.24676870368421077728271484375</LongitudeDegrees>
            </Position>
            <AltitudeMeters>54</AltitudeMeters>
            <DistanceMeters>51907.015822532</DistanceMeters>
          </Trackpoint>
          <Trackpoint>
            <Time>2018-04-21T11:14:56.000Z</Time>
            <Position>
              <LatitudeDegrees>43.24692235328257083892822265625</LatitudeDegrees>
              <LongitudeDegrees>-8.2465661130845546722412109375</LongitudeDegrees>
            </Position>
            <AltitudeMeters>55.200000762939453125</AltitudeMeters>
            <DistanceMeters>51925.373940983</DistanceMeters>
          </Trackpoint>
          <Trackpoint>
            <Time>2018-04-21T11:15:02.000Z</Time>
            <Position>
              <LatitudeDegrees>43.2468687929213047027587890625</LatitudeDegrees>
              <LongitudeDegrees>-8.24638833291828632354736328125</LongitudeDegrees>
            </Position>
            <AltitudeMeters>56.200000762939453125</AltitudeMeters>
            <DistanceMeters>51940.971064416</DistanceMeters>
          </Trackpoint>
          <Trackpoint>
            <Time>2018-04-21T11:15:03.000Z</Time>
            <Position>
              <LatitudeDegrees>43.24686300940811634063720703125</LatitudeDegrees>
              <LongitudeDegrees>-8.2463592477142810821533203125</LongitudeDegrees>
            </Position>
            <AltitudeMeters>56.59999847412109375</AltitudeMeters>
            <DistanceMeters>51943.414193665</DistanceMeters>
          </Trackpoint>
          <Trackpoint>
            <Time>2018-04-21T11:15:07.000Z</Time>
            <Position>
              <LatitudeDegrees>43.2468315772712230682373046875</LatitudeDegrees>
              <LongitudeDegrees>-8.24624131433665752410888671875</LongitudeDegrees>
            </Position>
            <AltitudeMeters>57.40000152587890625</AltitudeMeters>
            <DistanceMeters>51953.594921411</DistanceMeters>
          </Trackpoint>
          <Trackpoint>
            <Time>2018-04-21T11:15:10.000Z</Time>
            <Position>
              <LatitudeDegrees>43.24681037105619907379150390625</LatitudeDegrees>
              <LongitudeDegrees>-8.2461507059633731842041015625</LongitudeDegrees>
            </Position>
            <AltitudeMeters>58</AltitudeMeters>
            <DistanceMeters>51961.311418289</DistanceMeters>
          </Trackpoint>
          <Trackpoint>
            <Time>2018-04-21T11:15:12.000Z</Time>
            <Position>
              <LatitudeDegrees>43.24679494835436344146728515625</LatitudeDegrees>
              <LongitudeDegrees>-8.24609530158340930938720703125</LongitudeDegrees>
            </Position>
            <AltitudeMeters>58.40000152587890625</AltitudeMeters>
            <DistanceMeters>51966.119431985</DistanceMeters>
          </Trackpoint>
          <Trackpoint>
            <Time>2018-04-21T11:15:16.000Z</Time>
            <Position>
              <LatitudeDegrees>43.24677282012999057769775390625</LatitudeDegrees>
              <LongitudeDegrees>-8.24599136598408222198486328125</LongitudeDegrees>
            </Position>
            <AltitudeMeters>59.200000762939453125</AltitudeMeters>
            <DistanceMeters>51974.897966735</DistanceMeters>
          </Trackpoint>
          <Trackpoint>
            <Time>2018-04-21T11:15:18.000Z</Time>
            <Position>
              <LatitudeDegrees>43.24675287120044231414794921875</LatitudeDegrees>
              <LongitudeDegrees>-8.245936296880245208740234375</LongitudeDegrees>
            </Position>
            <AltitudeMeters>59.59999847412109375</AltitudeMeters>
            <DistanceMeters>51979.883927069</DistanceMeters>
          </Trackpoint>
          <Trackpoint>
            <Time>2018-04-21T11:15:23.000Z</Time>
            <Position>
              <LatitudeDegrees>43.2467195950448513031005859375</LatitudeDegrees>
              <LongitudeDegrees>-8.2457963190972805023193359375</LongitudeDegrees>
            </Position>
            <AltitudeMeters>60.799999237060546875</AltitudeMeters>
            <DistanceMeters>51991.821415765</DistanceMeters>
          </Trackpoint>
          <Trackpoint>
            <Time>2018-04-21T11:15:24.000Z</Time>
            <Position>
              <LatitudeDegrees>43.24671247042715549468994140625</LatitudeDegrees>
              <LongitudeDegrees>-8.245769329369068145751953125</LongitudeDegrees>
            </Position>
            <AltitudeMeters>61</AltitudeMeters>
            <DistanceMeters>51994.149085386</DistanceMeters>
          </Trackpoint>
          <Trackpoint>
            <Time>2018-04-21T11:15:28.000Z</Time>
            <Position>
              <LatitudeDegrees>43.2466783560812473297119140625</LatitudeDegrees>
              <LongitudeDegrees>-8.2456752844154834747314453125</LongitudeDegrees>
            </Position>
            <AltitudeMeters>62</AltitudeMeters>
            <DistanceMeters>52002.666575284</DistanceMeters>
          </Trackpoint>
          <Trackpoint>
            <Time>2018-04-21T11:15:31.000Z</Time>
            <Position>
              <LatitudeDegrees>43.2466595806181430816650390625</LatitudeDegrees>
              <LongitudeDegrees>-8.24561786837875843048095703125</LongitudeDegrees>
            </Position>
            <AltitudeMeters>62.799999237060546875</AltitudeMeters>
            <DistanceMeters>52007.769784124</DistanceMeters>
          </Trackpoint>
          <Trackpoint>
            <Time>2018-04-21T11:15:33.000Z</Time>
            <Position>
              <LatitudeDegrees>43.24664474464952945709228515625</LatitudeDegrees>
              <LongitudeDegrees>-8.24557646177709102630615234375</LongitudeDegrees>
            </Position>
            <AltitudeMeters>63.200000762939453125</AltitudeMeters>
            <DistanceMeters>52011.509782574</DistanceMeters>
          </Trackpoint>
          <Trackpoint>
            <Time>2018-04-21T11:15:37.000Z</Time>
            <Position>
              <LatitudeDegrees>43.24660937301814556121826171875</LatitudeDegrees>
              <LongitudeDegrees>-8.24548711068928241729736328125</LongitudeDegrees>
            </Position>
            <AltitudeMeters>64.1999969482421875</AltitudeMeters>
            <DistanceMeters>52019.753589663</DistanceMeters>
          </Trackpoint>
          <Trackpoint>
            <Time>2018-04-21T11:15:39.000Z</Time>
            <Position>
              <LatitudeDegrees>43.24658841826021671295166015625</LatitudeDegrees>
              <LongitudeDegrees>-8.245443440973758697509765625</LongitudeDegrees>
            </Position>
            <AltitudeMeters>64.59999847412109375</AltitudeMeters>
            <DistanceMeters>52023.9926759</DistanceMeters>
          </Trackpoint>
          <Trackpoint>
            <Time>2018-04-21T11:15:41.000Z</Time>
            <Position>
              <LatitudeDegrees>43.246579952538013458251953125</LatitudeDegrees>
              <LongitudeDegrees>-8.245391808450222015380859375</LongitudeDegrees>
            </Position>
            <AltitudeMeters>65.40000152587890625</AltitudeMeters>
            <DistanceMeters>52028.282582169</DistanceMeters>
          </Trackpoint>
          <Trackpoint>
            <Time>2018-04-21T11:15:46.000Z</Time>
            <Position>
              <LatitudeDegrees>43.246574588119983673095703125</LatitudeDegrees>
              <LongitudeDegrees>-8.2452701032161712646484375</LongitudeDegrees>
            </Position>
            <AltitudeMeters>66.40000152587890625</AltitudeMeters>
            <DistanceMeters>52038.167187731</DistanceMeters>
          </Trackpoint>
          <Trackpoint>
            <Time>2018-04-21T11:15:48.000Z</Time>
            <Position>
              <LatitudeDegrees>43.24657718650996685028076171875</LatitudeDegrees>
              <LongitudeDegrees>-8.24521402828395366668701171875</LongitudeDegrees>
            </Position>
            <AltitudeMeters>66.8000030517578125</AltitudeMeters>
            <DistanceMeters>52042.722526979</DistanceMeters>
          </Trackpoint>
          <Trackpoint>
            <Time>2018-04-21T11:15:51.000Z</Time>
            <Position>
              <LatitudeDegrees>43.24659596197307109832763671875</LatitudeDegrees>
              <LongitudeDegrees>-8.245139010250568389892578125</LongitudeDegrees>
            </Position>
            <AltitudeMeters>67.8000030517578125</AltitudeMeters>
            <DistanceMeters>52049.154930128</DistanceMeters>
          </Trackpoint>
          <Trackpoint>
            <Time>2018-04-21T11:15:53.000Z</Time>
            <Position>
              <LatitudeDegrees>43.24660903774201869964599609375</LatitudeDegrees>
              <LongitudeDegrees>-8.2450838573276996612548828125</LongitudeDegrees>
            </Position>
            <AltitudeMeters>68.1999969482421875</AltitudeMeters>
            <DistanceMeters>52053.856592295</DistanceMeters>
          </Trackpoint>
          <Trackpoint>
            <Time>2018-04-21T11:15:56.000Z</Time>
            <Position>
              <LatitudeDegrees>43.2466354407370090484619140625</LatitudeDegrees>
              <LongitudeDegrees>-8.2449933327734470367431640625</LongitudeDegrees>
            </Position>
            <AltitudeMeters>69</AltitudeMeters>
            <DistanceMeters>52061.762677872</DistanceMeters>
          </Trackpoint>
          <Trackpoint>
            <Time>2018-04-21T11:15:59.000Z</Time>
            <Position>
              <LatitudeDegrees>43.2466609217226505279541015625</LatitudeDegrees>
              <LongitudeDegrees>-8.2449014671146869659423828125</LongitudeDegrees>
            </Position>
            <AltitudeMeters>69.40000152587890625</AltitudeMeters>
            <DistanceMeters>52069.732468189</DistanceMeters>
          </Trackpoint>
          <Trackpoint>
            <Time>2018-04-21T11:16:02.000Z</Time>
            <Position>
              <LatitudeDegrees>43.2466974668204784393310546875</LatitudeDegrees>
              <LongitudeDegrees>-8.2448112778365612030029296875</LongitudeDegrees>
            </Position>
            <AltitudeMeters>70</AltitudeMeters>
            <DistanceMeters>52078.100216557</DistanceMeters>
          </Trackpoint>
          <Trackpoint>
            <Time>2018-04-21T11:16:06.000Z</Time>
            <Position>
              <LatitudeDegrees>43.2467390410602092742919921875</LatitudeDegrees>
              <LongitudeDegrees>-8.24470591731369495391845703125</LongitudeDegrees>
            </Position>
            <AltitudeMeters>70.59999847412109375</AltitudeMeters>
            <DistanceMeters>52087.81527492</DistanceMeters>
          </Trackpoint>
          <Trackpoint>
            <Time>2018-04-21T11:16:10.000Z</Time>
            <Position>
              <LatitudeDegrees>43.2467673718929290771484375</LatitudeDegrees>
              <LongitudeDegrees>-8.2445956952869892120361328125</LongitudeDegrees>
            </Position>
            <AltitudeMeters>71.1999969482421875</AltitudeMeters>
            <DistanceMeters>52097.291301522</DistanceMeters>
          </Trackpoint>
          <Trackpoint>
            <Time>2018-04-21T11:16:12.000Z</Time>
            <Position>
              <LatitudeDegrees>43.24678606353700160980224609375</LatitudeDegrees>
              <LongitudeDegrees>-8.24454163201153278350830078125</LongitudeDegrees>
            </Position>
            <AltitudeMeters>71.59999847412109375</AltitudeMeters>
            <DistanceMeters>52102.143250542</DistanceMeters>
          </Trackpoint>
          <Trackpoint>
            <Time>2018-04-21T11:16:16.000Z</Time>
            <Position>
              <LatitudeDegrees>43.24681925587356090545654296875</LatitudeDegrees>
              <LongitudeDegrees>-8.24445110745728015899658203125</LongitudeDegrees>
            </Position>
            <AltitudeMeters>72.1999969482421875</AltitudeMeters>
            <DistanceMeters>52110.359627571</DistanceMeters>
          </Trackpoint>
          <Trackpoint>
            <Time>2018-04-21T11:16:19.000Z</Time>
            <Position>
              <LatitudeDegrees>43.24686594307422637939453125</LatitudeDegrees>
              <LongitudeDegrees>-8.2443730719387531280517578125</LongitudeDegrees>
            </Position>
            <AltitudeMeters>72.8000030517578125</AltitudeMeters>
            <DistanceMeters>52118.546276908</DistanceMeters>
          </Trackpoint>
          <Trackpoint>
            <Time>2018-04-21T11:16:21.000Z</Time>
            <Position>
              <LatitudeDegrees>43.24689720757305622100830078125</LatitudeDegrees>
              <LongitudeDegrees>-8.24432051740586757659912109375</LongitudeDegrees>
            </Position>
            <AltitudeMeters>73.40000152587890625</AltitudeMeters>
            <DistanceMeters>52124.046345643</DistanceMeters>
          </Trackpoint>
          <Trackpoint>
            <Time>2018-04-21T11:16:27.000Z</Time>
            <Position>
              <LatitudeDegrees>43.24700918979942798614501953125</LatitudeDegrees>
              <LongitudeDegrees>-8.2441811263561248779296875</LongitudeDegrees>
            </Position>
            <AltitudeMeters>74.40000152587890625</AltitudeMeters>
            <DistanceMeters>52140.870636897</DistanceMeters>
          </Trackpoint>
          <Trackpoint>
            <Time>2018-04-21T11:16:33.000Z</Time>
            <Position>
              <LatitudeDegrees>43.24709787033498287200927734375</LatitudeDegrees>
              <LongitudeDegrees>-8.24406243860721588134765625</LongitudeDegrees>
            </Position>
            <AltitudeMeters>75.59999847412109375</AltitudeMeters>
            <DistanceMeters>52154.655079887</DistanceMeters>
          </Trackpoint>
          <Trackpoint>
            <Time>2018-04-21T11:16:36.000Z</Time>
            <Position>
              <LatitudeDegrees>43.247126452624797821044921875</LatitudeDegrees>
              <LongitudeDegrees>-8.243999071419239044189453125</LongitudeDegrees>
            </Position>
            <AltitudeMeters>76</AltitudeMeters>
            <DistanceMeters>52160.698061696</DistanceMeters>
          </Trackpoint>
          <Trackpoint>
            <Time>2018-04-21T11:16:39.000Z</Time>
            <Position>
              <LatitudeDegrees>43.24715084396302700042724609375</LatitudeDegrees>
              <LongitudeDegrees>-8.24392564594745635986328125</LongitudeDegrees>
            </Position>
            <AltitudeMeters>76.59999847412109375</AltitudeMeters>
            <DistanceMeters>52167.240428419</DistanceMeters>
          </Trackpoint>
          <Trackpoint>
            <Time>2018-04-21T11:16:42.000Z</Time>
            <Position>
              <LatitudeDegrees>43.247170709073543548583984375</LatitudeDegrees>
              <LongitudeDegrees>-8.24385347776114940643310546875</LongitudeDegrees>
            </Position>
            <AltitudeMeters>77.59999847412109375</AltitudeMeters>
            <DistanceMeters>52173.494890119</DistanceMeters>
          </Trackpoint>
          <Trackpoint>
            <Time>2018-04-21T11:16:44.000Z</Time>
            <Position>
              <LatitudeDegrees>43.24718805961310863494873046875</LatitudeDegrees>
              <LongitudeDegrees>-8.243804275989532470703125</LongitudeDegrees>
            </Position>
            <AltitudeMeters>77.8000030517578125</AltitudeMeters>
            <DistanceMeters>52177.925622134</DistanceMeters>
          </Trackpoint>
          <Trackpoint>
            <Time>2018-04-21T11:16:48.000Z</Time>
            <Position>
              <LatitudeDegrees>43.2472260296344757080078125</LatitudeDegrees>
              <LongitudeDegrees>-8.24369908310472965240478515625</LongitudeDegrees>
            </Position>
            <AltitudeMeters>78.8000030517578125</AltitudeMeters>
            <DistanceMeters>52187.443485701</DistanceMeters>
          </Trackpoint>
          <Trackpoint>
            <Time>2018-04-21T11:16:53.000Z</Time>
            <Position>
              <LatitudeDegrees>43.247264921665191650390625</LatitudeDegrees>
              <LongitudeDegrees>-8.243581317365169525146484375</LongitudeDegrees>
            </Position>
            <AltitudeMeters>79.59999847412109375</AltitudeMeters>
            <DistanceMeters>52197.926616451</DistanceMeters>
          </Trackpoint>
          <Trackpoint>
            <Time>2018-04-21T11:16:54.000Z</Time>
            <Position>
              <LatitudeDegrees>43.24727606959640979766845703125</LatitudeDegrees>
              <LongitudeDegrees>-8.24355910532176494598388671875</LongitudeDegrees>
            </Position>
            <AltitudeMeters>79.8000030517578125</AltitudeMeters>
            <DistanceMeters>52200.114295705</DistanceMeters>
          </Trackpoint>
          <Trackpoint>
            <Time>2018-04-21T11:16:58.000Z</Time>
            <Position>
              <LatitudeDegrees>43.24732518754899501800537109375</LatitudeDegrees>
              <LongitudeDegrees>-8.2434815727174282073974609375</LongitudeDegrees>
            </Position>
            <AltitudeMeters>81</AltitudeMeters>
            <DistanceMeters>52208.445272091</DistanceMeters>
          </Trackpoint>
          <Trackpoint>
            <Time>2018-04-21T11:17:00.000Z</Time>
            <Position>
              <LatitudeDegrees>43.247360475361347198486328125</LatitudeDegrees>
              <LongitudeDegrees>-8.24346053414046764373779296875</LongitudeDegrees>
            </Position>
            <AltitudeMeters>81.40000152587890625</AltitudeMeters>
            <DistanceMeters>52212.726750245</DistanceMeters>
          </Trackpoint>
          <Trackpoint>
            <Time>2018-04-21T11:17:04.000Z</Time>
            <Position>
              <LatitudeDegrees>43.2474719546735286712646484375</LatitudeDegrees>
              <LongitudeDegrees>-8.24345801956951618194580078125</LongitudeDegrees>
            </Position>
            <AltitudeMeters>82.1999969482421875</AltitudeMeters>
            <DistanceMeters>52225.136380524</DistanceMeters>
          </Trackpoint>
          <Trackpoint>
            <Time>2018-04-21T11:17:06.000Z</Time>
            <Position>
              <LatitudeDegrees>43.24753188528120517730712890625</LatitudeDegrees>
              <LongitudeDegrees>-8.24346019886434078216552734375</LongitudeDegrees>
            </Position>
            <AltitudeMeters>82.40000152587890625</AltitudeMeters>
            <DistanceMeters>52231.809935576</DistanceMeters>
          </Trackpoint>
          <Trackpoint>
            <Time>2018-04-21T11:17:13.000Z</Time>
            <Position>
              <LatitudeDegrees>43.24772299267351627349853515625</LatitudeDegrees>
              <LongitudeDegrees>-8.2434242404997348785400390625</LongitudeDegrees>
            </Position>
            <AltitudeMeters>83.1999969482421875</AltitudeMeters>
            <DistanceMeters>52253.279244414</DistanceMeters>
          </Trackpoint>
          <Trackpoint>
            <Time>2018-04-21T11:17:14.000Z</Time>
            <Position>
              <LatitudeDegrees>43.2477498985826969146728515625</LatitudeDegrees>
              <LongitudeDegrees>-8.243408314883708953857421875</LongitudeDegrees>
            </Position>
            <AltitudeMeters>83.40000152587890625</AltitudeMeters>
            <DistanceMeters>52256.539367107</DistanceMeters>
          </Trackpoint>
          <Trackpoint>
            <Time>2018-04-21T11:17:19.000Z</Time>
            <Position>
              <LatitudeDegrees>43.24784670956432819366455078125</LatitudeDegrees>
              <LongitudeDegrees>-8.2433410920202732086181640625</LongitudeDegrees>
            </Position>
            <AltitudeMeters>84.40000152587890625</AltitudeMeters>
            <DistanceMeters>52268.614118213</DistanceMeters>
          </Trackpoint>
          <Trackpoint>
            <Time>2018-04-21T11:17:20.000Z</Time>
            <Position>
              <LatitudeDegrees>43.24786028824746608734130859375</LatitudeDegrees>
              <LongitudeDegrees>-8.243329860270023345947265625</LongitudeDegrees>
            </Position>
            <AltitudeMeters>84.59999847412109375</AltitudeMeters>
            <DistanceMeters>52270.379161094</DistanceMeters>
          </Trackpoint>
          <Trackpoint>
            <Time>2018-04-21T11:17:21.000Z</Time>
            <Position>
              <LatitudeDegrees>43.24786967597901821136474609375</LatitudeDegrees>
              <LongitudeDegrees>-8.2433102466166019439697265625</LongitudeDegrees>
            </Position>
            <AltitudeMeters>85</AltitudeMeters>
            <DistanceMeters>52272.282069567</DistanceMeters>
          </Trackpoint>
          <Trackpoint>
            <Time>2018-04-21T11:17:24.000Z</Time>
            <Position>
              <LatitudeDegrees>43.24790504761040210723876953125</LatitudeDegrees>
              <LongitudeDegrees>-8.24325081892311573028564453125</LongitudeDegrees>
            </Position>
            <AltitudeMeters>85.59999847412109375</AltitudeMeters>
            <DistanceMeters>52278.504687006</DistanceMeters>
          </Trackpoint>
          <Trackpoint>
            <Time>2018-04-21T11:17:26.000Z</Time>
            <Position>
              <LatitudeDegrees>43.24792935512959957122802734375</LatitudeDegrees>
              <LongitudeDegrees>-8.2432170398533344268798828125</LongitudeDegrees>
            </Position>
            <AltitudeMeters>86</AltitudeMeters>
            <DistanceMeters>52282.352975634</DistanceMeters>
          </Trackpoint>
          <Trackpoint>
            <Time>2018-04-21T11:17:29.000Z</Time>
            <Position>
              <LatitudeDegrees>43.2479582726955413818359375</LatitudeDegrees>
              <LongitudeDegrees>-8.24316716752946376800537109375</LongitudeDegrees>
            </Position>
            <AltitudeMeters>86.59999847412109375</AltitudeMeters>
            <DistanceMeters>52287.519493414</DistanceMeters>
          </Trackpoint>
          <Trackpoint>
            <Time>2018-04-21T11:17:33.000Z</Time>
            <Position>
              <LatitudeDegrees>43.2479959912598133087158203125</LatitudeDegrees>
              <LongitudeDegrees>-8.2430903054773807525634765625</LongitudeDegrees>
            </Position>
            <AltitudeMeters>87.40000152587890625</AltitudeMeters>
            <DistanceMeters>52295.032014813</DistanceMeters>
          </Trackpoint>
          <Trackpoint>
            <Time>2018-04-21T11:17:34.000Z</Time>
            <Position>
              <LatitudeDegrees>43.2480057142674922943115234375</LatitudeDegrees>
              <LongitudeDegrees>-8.243067003786563873291015625</LongitudeDegrees>
            </Position>
            <AltitudeMeters>87.59999847412109375</AltitudeMeters>
            <DistanceMeters>52297.20727573</DistanceMeters>
          </Trackpoint>
          <Trackpoint>
            <Time>2018-04-21T11:17:40.000Z</Time>
            <Position>
              <LatitudeDegrees>43.248055167496204376220703125</LatitudeDegrees>
              <LongitudeDegrees>-8.2429568655788898468017578125</LongitudeDegrees>
            </Position>
            <AltitudeMeters>88.8000030517578125</AltitudeMeters>
            <DistanceMeters>52307.696434485</DistanceMeters>
          </Trackpoint>
          <Trackpoint>
            <Time>2018-04-21T11:17:42.000Z</Time>
            <Position>
              <LatitudeDegrees>43.24807352386415004730224609375</LatitudeDegrees>
              <LongitudeDegrees>-8.24292073957622051239013671875</LongitudeDegrees>
            </Position>
            <AltitudeMeters>89.1999969482421875</AltitudeMeters>
            <DistanceMeters>52311.267214224</DistanceMeters>
          </Trackpoint>
          <Trackpoint>
            <Time>2018-04-21T11:17:45.000Z</Time>
            <Position>
              <LatitudeDegrees>43.2480922155082225799560546875</LatitudeDegrees>
              <LongitudeDegrees>-8.2428542710840702056884765625</LongitudeDegrees>
            </Position>
            <AltitudeMeters>90</AltitudeMeters>
            <DistanceMeters>52317.044338295</DistanceMeters>
          </Trackpoint>
          <Trackpoint>
            <Time>2018-04-21T11:17:50.000Z</Time>
            <Position>
              <LatitudeDegrees>43.2481250725686550140380859375</LatitudeDegrees>
              <LongitudeDegrees>-8.24270482175052165985107421875</LongitudeDegrees>
            </Position>
            <AltitudeMeters>90.8000030517578125</AltitudeMeters>
            <DistanceMeters>52329.700384121</DistanceMeters>
          </Trackpoint>
          <Trackpoint>
            <Time>2018-04-21T11:17:51.000Z</Time>
            <Position>
              <LatitudeDegrees>43.24813554994761943817138671875</LatitudeDegrees>
              <LongitudeDegrees>-8.2426844537258148193359375</LongitudeDegrees>
            </Position>
            <AltitudeMeters>91.1999969482421875</AltitudeMeters>
            <DistanceMeters>52331.722913387</DistanceMeters>
          </Trackpoint>
          <Trackpoint>
            <Time>2018-04-21T11:17:57.000Z</Time>
            <Position>
              <LatitudeDegrees>43.24818584136664867401123046875</LatitudeDegrees>
              <LongitudeDegrees>-8.2425421290099620819091796875</LongitudeDegrees>
            </Position>
            <AltitudeMeters>92.40000152587890625</AltitudeMeters>
            <DistanceMeters>52344.547647784</DistanceMeters>
          </Trackpoint>
          <Trackpoint>
            <Time>2018-04-21T11:18:03.000Z</Time>
            <Position>
              <LatitudeDegrees>43.2482350431382656097412109375</LatitudeDegrees>
              <LongitudeDegrees>-8.2423855550587177276611328125</LongitudeDegrees>
            </Position>
            <AltitudeMeters>93.40000152587890625</AltitudeMeters>
            <DistanceMeters>52358.371993622</DistanceMeters>
          </Trackpoint>
          <Trackpoint>
            <Time>2018-04-21T11:18:04.000Z</Time>
            <Position>
              <LatitudeDegrees>43.24824786745011806488037109375</LatitudeDegrees>
              <LongitudeDegrees>-8.24235177598893642425537109375</LongitudeDegrees>
            </Position>
            <AltitudeMeters>93.59999847412109375</AltitudeMeters>
            <DistanceMeters>52361.45999633</DistanceMeters>
          </Trackpoint>
          <Trackpoint>
            <Time>2018-04-21T11:18:07.000Z</Time>
            <Position>
              <LatitudeDegrees>43.248284161090850830078125</LatitudeDegrees>
              <LongitudeDegrees>-8.242265023291110992431640625</LongitudeDegrees>
            </Position>
            <AltitudeMeters>94.40000152587890625</AltitudeMeters>
            <DistanceMeters>52369.570736549</DistanceMeters>
          </Trackpoint>
          <Trackpoint>
            <Time>2018-04-21T11:18:11.000Z</Time>
            <Position>
              <LatitudeDegrees>43.2483191974461078643798828125</LatitudeDegrees>
              <LongitudeDegrees>-8.2421518675982952117919921875</LongitudeDegrees>
            </Position>
            <AltitudeMeters>94.8000030517578125</AltitudeMeters>
            <DistanceMeters>52379.539034357</DistanceMeters>
          </Trackpoint>
          <Trackpoint>
            <Time>2018-04-21T11:18:14.000Z</Time>
            <Position>
              <LatitudeDegrees>43.2483611069619655609130859375</LatitudeDegrees>
              <LongitudeDegrees>-8.242067210376262664794921875</LongitudeDegrees>
            </Position>
            <AltitudeMeters>95.59999847412109375</AltitudeMeters>
            <DistanceMeters>52387.837429561</DistanceMeters>
          </Trackpoint>
          <Trackpoint>
            <Time>2018-04-21T11:18:18.000Z</Time>
            <Position>
              <LatitudeDegrees>43.24842455796897411346435546875</LatitudeDegrees>
              <LongitudeDegrees>-8.2419610954821109771728515625</LongitudeDegrees>
            </Position>
            <AltitudeMeters>96.1999969482421875</AltitudeMeters>
            <DistanceMeters>52398.968137032</DistanceMeters>
          </Trackpoint>
          <Trackpoint>
            <Time>2018-04-21T11:18:20.000Z</Time>
            <Position>
              <LatitudeDegrees>43.24845171533524990081787109375</LatitudeDegrees>
              <LongitudeDegrees>-8.24191491119563579559326171875</LongitudeDegrees>
            </Position>
            <AltitudeMeters>96.59999847412109375</AltitudeMeters>
            <DistanceMeters>52403.779905522</DistanceMeters>
          </Trackpoint>
          <Trackpoint>
            <Time>2018-04-21T11:18:26.000Z</Time>
            <Position>
              <LatitudeDegrees>43.24854978360235691070556640625</LatitudeDegrees>
              <LongitudeDegrees>-8.24179521761834621429443359375</LongitudeDegrees>
            </Position>
            <AltitudeMeters>97.59999847412109375</AltitudeMeters>
            <DistanceMeters>52418.384679936</DistanceMeters>
          </Trackpoint>
          <Trackpoint>
            <Time>2018-04-21T11:18:32.000Z</Time>
            <Position>
              <LatitudeDegrees>43.24863754212856292724609375</LatitudeDegrees>
              <LongitudeDegrees>-8.241674266755580902099609375</LongitudeDegrees>
            </Position>
            <AltitudeMeters>98.59999847412109375</AltitudeMeters>
            <DistanceMeters>52432.225346166</DistanceMeters>
          </Trackpoint>
          <Trackpoint>
            <Time>2018-04-21T11:18:35.000Z</Time>
            <Position>
              <LatitudeDegrees>43.24867643415927886962890625</LatitudeDegrees>
              <LongitudeDegrees>-8.24162699282169342041015625</LongitudeDegrees>
            </Position>
            <AltitudeMeters>99.1999969482421875</AltitudeMeters>
            <DistanceMeters>52438.007938411</DistanceMeters>
          </Trackpoint>
          <Trackpoint>
            <Time>2018-04-21T11:18:41.000Z</Time>
            <Position>
              <LatitudeDegrees>43.2487949542701244354248046875</LatitudeDegrees>
              <LongitudeDegrees>-8.24147888459265232086181640625</LongitudeDegrees>
            </Position>
            <AltitudeMeters>99.40000152587890625</AltitudeMeters>
            <DistanceMeters>52455.84615115</DistanceMeters>
          </Trackpoint>
          <Trackpoint>
            <Time>2018-04-21T11:18:43.000Z</Time>
            <Position>
              <LatitudeDegrees>43.24883996509015560150146484375</LatitudeDegrees>
              <LongitudeDegrees>-8.2414249889552593231201171875</LongitudeDegrees>
            </Position>
            <AltitudeMeters>99.8000030517578125</AltitudeMeters>
            <DistanceMeters>52462.493947335</DistanceMeters>
          </Trackpoint>
          <Trackpoint>
            <Time>2018-04-21T11:18:48.000Z</Time>
            <Position>
              <LatitudeDegrees>43.24898715130984783172607421875</LatitudeDegrees>
              <LongitudeDegrees>-8.24131309054791927337646484375</LongitudeDegrees>
            </Position>
            <AltitudeMeters>100.40000152587890625</AltitudeMeters>
            <DistanceMeters>52481.220238709</DistanceMeters>
          </Trackpoint>
          <Trackpoint>
            <Time>2018-04-21T11:18:52.000Z</Time>
            <Position>
              <LatitudeDegrees>43.24910751543939113616943359375</LatitudeDegrees>
              <LongitudeDegrees>-8.2412177883088588714599609375</LongitudeDegrees>
            </Position>
            <AltitudeMeters>101</AltitudeMeters>
            <DistanceMeters>52496.685672255</DistanceMeters>
          </Trackpoint>
          <Trackpoint>
            <Time>2018-04-21T11:18:57.000Z</Time>
            <Position>
              <LatitudeDegrees>43.24925470165908336639404296875</LatitudeDegrees>
              <LongitudeDegrees>-8.2410793192684650421142578125</LongitudeDegrees>
            </Position>
            <AltitudeMeters>101</AltitudeMeters>
            <DistanceMeters>52516.544664138</DistanceMeters>
          </Trackpoint>
          <Trackpoint>
            <Time>2018-04-21T11:19:00.000Z</Time>
            <Position>
              <LatitudeDegrees>43.2493186555802822113037109375</LatitudeDegrees>
              <LongitudeDegrees>-8.2409841008484363555908203125</LongitudeDegrees>
            </Position>
            <AltitudeMeters>99.59999847412109375</AltitudeMeters>
            <DistanceMeters>52527.045008579</DistanceMeters>
          </Trackpoint>
          <Trackpoint>
            <Time>2018-04-21T11:19:01.000Z</Time>
            <Position>
              <LatitudeDegrees>43.249337263405323028564453125</LatitudeDegrees>
              <LongitudeDegrees>-8.24095233343541622161865234375</LongitudeDegrees>
            </Position>
            <AltitudeMeters>101</AltitudeMeters>
            <DistanceMeters>52530.347785039</DistanceMeters>
          </Trackpoint>
          <Trackpoint>
            <Time>2018-04-21T11:19:02.000Z</Time>
            <Position>
              <LatitudeDegrees>43.24935478158295154571533203125</LatitudeDegrees>
              <LongitudeDegrees>-8.24092249386012554168701171875</LongitudeDegrees>
            </Position>
            <AltitudeMeters>99.8000030517578125</AltitudeMeters>
            <DistanceMeters>52533.453283653</DistanceMeters>
          </Trackpoint>
          <Trackpoint>
            <Time>2018-04-21T11:19:03.000Z</Time>
            <Position>
              <LatitudeDegrees>43.24937305413186550140380859375</LatitudeDegrees>
              <LongitudeDegrees>-8.24089081026613712310791015625</LongitudeDegrees>
            </Position>
            <AltitudeMeters>102.1999969482421875</AltitudeMeters>
            <DistanceMeters>52536.728605136</DistanceMeters>
          </Trackpoint>
          <Trackpoint>
            <Time>2018-04-21T11:19:04.000Z</Time>
            <Position>
              <LatitudeDegrees>43.24939015321433544158935546875</LatitudeDegrees>
              <LongitudeDegrees>-8.240859210491180419921875</LongitudeDegrees>
            </Position>
            <AltitudeMeters>101.1999969482421875</AltitudeMeters>
            <DistanceMeters>52539.920144926</DistanceMeters>
          </Trackpoint>
          <Trackpoint>
            <Time>2018-04-21T11:19:05.000Z</Time>
            <Position>
              <LatitudeDegrees>43.2494038157165050506591796875</LatitudeDegrees>
              <LongitudeDegrees>-8.24082710780203342437744140625</LongitudeDegrees>
            </Position>
            <AltitudeMeters>103.40000152587890625</AltitudeMeters>
            <DistanceMeters>52542.935652674</DistanceMeters>
          </Trackpoint>
          <Trackpoint>
            <Time>2018-04-21T11:19:12.000Z</Time>
            <Position>
              <LatitudeDegrees>43.24954278767108917236328125</LatitudeDegrees>
              <LongitudeDegrees>-8.2405869662761688232421875</LongitudeDegrees>
            </Position>
            <AltitudeMeters>103.40000152587890625</AltitudeMeters>
            <DistanceMeters>52567.800713984</DistanceMeters>
          </Trackpoint>
          <Trackpoint>
            <Time>2018-04-21T11:19:17.000Z</Time>
            <Position>
              <LatitudeDegrees>43.24968050234019756317138671875</LatitudeDegrees>
              <LongitudeDegrees>-8.2404448091983795166015625</LongitudeDegrees>
            </Position>
            <AltitudeMeters>104.59999847412109375</AltitudeMeters>
            <DistanceMeters>52586.977754769</DistanceMeters>
          </Trackpoint>
          <Trackpoint>
            <Time>2018-04-21T11:19:19.000Z</Time>
            <Position>
              <LatitudeDegrees>43.24973196722567081451416015625</LatitudeDegrees>
              <LongitudeDegrees>-8.24039694853127002716064453125</LongitudeDegrees>
            </Position>
            <AltitudeMeters>103.59999847412109375</AltitudeMeters>
            <DistanceMeters>52593.895803999</DistanceMeters>
          </Trackpoint>
          <Trackpoint>
            <Time>2018-04-21T11:19:25.000Z</Time>
            <Position>
              <LatitudeDegrees>43.2498745433986186981201171875</LatitudeDegrees>
              <LongitudeDegrees>-8.24021304957568645477294921875</LongitudeDegrees>
            </Position>
            <AltitudeMeters>105</AltitudeMeters>
            <DistanceMeters>52615.669574308</DistanceMeters>
          </Trackpoint>
          <Trackpoint>
            <Time>2018-04-21T11:19:28.000Z</Time>
            <Position>
              <LatitudeDegrees>43.24992877431213855743408203125</LatitudeDegrees>
              <LongitudeDegrees>-8.24009167961776256561279296875</LongitudeDegrees>
            </Position>
            <AltitudeMeters>105.59999847412109375</AltitudeMeters>
            <DistanceMeters>52627.212875743</DistanceMeters>
          </Trackpoint>
          <Trackpoint>
            <Time>2018-04-21T11:19:32.000Z</Time>
            <Position>
              <LatitudeDegrees>43.25000546872615814208984375</LatitudeDegrees>
              <LongitudeDegrees>-8.23993594385683536529541015625</LongitudeDegrees>
            </Position>
            <AltitudeMeters>106.1999969482421875</AltitudeMeters>
            <DistanceMeters>52642.453335916</DistanceMeters>
          </Trackpoint>
          <Trackpoint>
            <Time>2018-04-21T11:19:36.000Z</Time>
            <Position>
              <LatitudeDegrees>43.2500840909779071807861328125</LatitudeDegrees>
              <LongitudeDegrees>-8.23977551423013210296630859375</LongitudeDegrees>
            </Position>
            <AltitudeMeters>106.59999847412109375</AltitudeMeters>
            <DistanceMeters>52658.128999863</DistanceMeters>
          </Trackpoint>
          <Trackpoint>
            <Time>2018-04-21T11:19:40.000Z</Time>
            <Position>
              <LatitudeDegrees>43.25017788447439670562744140625</LatitudeDegrees>
              <LongitudeDegrees>-8.23961625806987285614013671875</LongitudeDegrees>
            </Position>
            <AltitudeMeters>107.1999969482421875</AltitudeMeters>
            <DistanceMeters>52674.732318016</DistanceMeters>
          </Trackpoint>
          <Trackpoint>
            <Time>2018-04-21T11:19:43.000Z</Time>
            <Position>
              <LatitudeDegrees>43.2502399943768978118896484375</LatitudeDegrees>
              <LongitudeDegrees>-8.23949069716036319732666015625</LongitudeDegrees>
            </Position>
            <AltitudeMeters>107.8000030517578125</AltitudeMeters>
            <DistanceMeters>52687.036718109</DistanceMeters>
          </Trackpoint>
          <Trackpoint>
            <Time>2018-04-21T11:19:46.000Z</Time>
            <Position>
              <LatitudeDegrees>43.25030193664133548736572265625</LatitudeDegrees>
              <LongitudeDegrees>-8.239357508718967437744140625</LongitudeDegrees>
            </Position>
            <AltitudeMeters>108.40000152587890625</AltitudeMeters>
            <DistanceMeters>52699.847362484</DistanceMeters>
          </Trackpoint>
          <Trackpoint>
            <Time>2018-04-21T11:19:49.000Z</Time>
            <Position>
              <LatitudeDegrees>43.2503774575889110565185546875</LatitudeDegrees>
              <LongitudeDegrees>-8.2392420060932636260986328125</LongitudeDegrees>
            </Position>
            <AltitudeMeters>109</AltitudeMeters>
            <DistanceMeters>52712.43042095</DistanceMeters>
          </Trackpoint>
          <Trackpoint>
            <Time>2018-04-21T11:19:53.000Z</Time>
            <Position>
              <LatitudeDegrees>43.2504669763147830963134765625</LatitudeDegrees>
              <LongitudeDegrees>-8.23909423314034938812255859375</LongitudeDegrees>
            </Position>
            <AltitudeMeters>109.8000030517578125</AltitudeMeters>
            <DistanceMeters>52728.011904682</DistanceMeters>
          </Trackpoint>
          <Trackpoint>
            <Time>2018-04-21T11:19:55.000Z</Time>
            <Position>
              <LatitudeDegrees>43.25051818974316120147705078125</LatitudeDegrees>
              <LongitudeDegrees>-8.23904343880712985992431640625</LongitudeDegrees>
            </Position>
            <AltitudeMeters>110.1999969482421875</AltitudeMeters>
            <DistanceMeters>52735.043881545</DistanceMeters>
          </Trackpoint>
          <Trackpoint>
            <Time>2018-04-21T11:20:00.000Z</Time>
            <Position>
              <LatitudeDegrees>43.25063436292111873626708984375</LatitudeDegrees>
              <LongitudeDegrees>-8.23888242244720458984375</LongitudeDegrees>
            </Position>
            <AltitudeMeters>111.1999969482421875</AltitudeMeters>
            <DistanceMeters>52753.417242092</DistanceMeters>
          </Trackpoint>
          <Trackpoint>
            <Time>2018-04-21T11:20:04.000Z</Time>
            <Position>
              <LatitudeDegrees>43.2507321797311305999755859375</LatitudeDegrees>
              <LongitudeDegrees>-8.23875443078577518463134765625</LongitudeDegrees>
            </Position>
            <AltitudeMeters>112.59999847412109375</AltitudeMeters>
            <DistanceMeters>52768.457302428</DistanceMeters>
          </Trackpoint>
          <Trackpoint>
            <Time>2018-04-21T11:20:07.000Z</Time>
            <Position>
              <LatitudeDegrees>43.25078590773046016693115234375</LatitudeDegrees>
              <LongitudeDegrees>-8.23864781297743320465087890625</LongitudeDegrees>
            </Position>
            <AltitudeMeters>113</AltitudeMeters>
            <DistanceMeters>52778.967531976</DistanceMeters>
          </Trackpoint>
          <Trackpoint>
            <Time>2018-04-21T11:20:10.000Z</Time>
            <Position>
              <LatitudeDegrees>43.2508260570466518402099609375</LatitudeDegrees>
              <LongitudeDegrees>-8.2385409437119960784912109375</LongitudeDegrees>
            </Position>
            <AltitudeMeters>113.59999847412109375</AltitudeMeters>
            <DistanceMeters>52788.715994649</DistanceMeters>
          </Trackpoint>
          <Trackpoint>
            <Time>2018-04-21T11:20:15.000Z</Time>
            <Position>
              <LatitudeDegrees>43.25089017860591411590576171875</LatitudeDegrees>
              <LongitudeDegrees>-8.2383712939918041229248046875</LongitudeDegrees>
            </Position>
            <AltitudeMeters>114.59999847412109375</AltitudeMeters>
            <DistanceMeters>52804.210886468</DistanceMeters>
          </Trackpoint>
          <Trackpoint>
            <Time>2018-04-21T11:20:16.000Z</Time>
            <Position>
              <LatitudeDegrees>43.2509055174887180328369140625</LatitudeDegrees>
              <LongitudeDegrees>-8.238339610397815704345703125</LongitudeDegrees>
            </Position>
            <AltitudeMeters>114.59999847412109375</AltitudeMeters>
            <DistanceMeters>52807.295963546</DistanceMeters>
          </Trackpoint>
          <Trackpoint>
            <Time>2018-04-21T11:20:21.000Z</Time>
            <Position>
              <LatitudeDegrees>43.25095840729773044586181640625</LatitudeDegrees>
              <LongitudeDegrees>-8.23819502256810665130615234375</LongitudeDegrees>
            </Position>
            <AltitudeMeters>115.59999847412109375</AltitudeMeters>
            <DistanceMeters>52820.412404237</DistanceMeters>
          </Trackpoint>
          <Trackpoint>
            <Time>2018-04-21T11:20:22.000Z</Time>
            <Position>
              <LatitudeDegrees>43.25096662156283855438232421875</LatitudeDegrees>
              <LongitudeDegrees>-8.2381694577634334564208984375</LongitudeDegrees>
            </Position>
            <AltitudeMeters>115.8000030517578125</AltitudeMeters>
            <DistanceMeters>52822.677152219</DistanceMeters>
          </Trackpoint>
          <Trackpoint>
            <Time>2018-04-21T11:20:27.000Z</Time>
            <Position>
              <LatitudeDegrees>43.25100786052644252777099609375</LatitudeDegrees>
              <LongitudeDegrees>-8.238030485808849334716796875</LongitudeDegrees>
            </Position>
            <AltitudeMeters>116.59999847412109375</AltitudeMeters>
            <DistanceMeters>52834.842798643</DistanceMeters>
          </Trackpoint>
          <Trackpoint>
            <Time>2018-04-21T11:20:28.000Z</Time>
            <Position>
              <LatitudeDegrees>43.25101934373378753662109375</LatitudeDegrees>
              <LongitudeDegrees>-8.23800475336611270904541015625</LongitudeDegrees>
            </Position>
            <AltitudeMeters>117</AltitudeMeters>
            <DistanceMeters>52837.289621211</DistanceMeters>
          </Trackpoint>
          <Trackpoint>
            <Time>2018-04-21T11:20:33.000Z</Time>
            <Position>
              <LatitudeDegrees>43.2510803639888763427734375</LatitudeDegrees>
              <LongitudeDegrees>-8.237829990684986114501953125</LongitudeDegrees>
            </Position>
            <AltitudeMeters>117.8000030517578125</AltitudeMeters>
            <DistanceMeters>52853.0009601</DistanceMeters>
          </Trackpoint>
          <Trackpoint>
            <Time>2018-04-21T11:20:34.000Z</Time>
            <Position>
              <LatitudeDegrees>43.25109687633812427520751953125</LatitudeDegrees>
              <LongitudeDegrees>-8.23779805563390254974365234375</LongitudeDegrees>
            </Position>
            <AltitudeMeters>118.1999969482421875</AltitudeMeters>
            <DistanceMeters>52856.175478223</DistanceMeters>
          </Trackpoint>
          <Trackpoint>
            <Time>2018-04-21T11:20:40.000Z</Time>
            <Position>
              <LatitudeDegrees>43.25118220411241054534912109375</LatitudeDegrees>
              <LongitudeDegrees>-8.237629495561122894287109375</LongitudeDegrees>
            </Position>
            <AltitudeMeters>118.8000030517578125</AltitudeMeters>
            <DistanceMeters>52872.816281215</DistanceMeters>
          </Trackpoint>
          <Trackpoint>
            <Time>2018-04-21T11:20:42.000Z</Time>
            <Position>
              <LatitudeDegrees>43.251206092536449432373046875</LatitudeDegrees>
              <LongitudeDegrees>-8.23757342062890529632568359375</LongitudeDegrees>
            </Position>
            <AltitudeMeters>119.1999969482421875</AltitudeMeters>
            <DistanceMeters>52878.083196331</DistanceMeters>
          </Trackpoint>
          <Trackpoint>
            <Time>2018-04-21T11:20:46.000Z</Time>
            <Position>
              <LatitudeDegrees>43.25125328265130519866943359375</LatitudeDegrees>
              <LongitudeDegrees>-8.23747694492340087890625</LongitudeDegrees>
            </Position>
            <AltitudeMeters>120.40000152587890625</AltitudeMeters>
            <DistanceMeters>52887.504748827</DistanceMeters>
          </Trackpoint>
          <Trackpoint>
            <Time>2018-04-21T11:20:49.000Z</Time>
            <Position>
              <LatitudeDegrees>43.25129485689103603363037109375</LatitudeDegrees>
              <LongitudeDegrees>-8.23741860687732696533203125</LongitudeDegrees>
            </Position>
            <AltitudeMeters>120.8000030517578125</AltitudeMeters>
            <DistanceMeters>52894.121229055</DistanceMeters>
          </Trackpoint>
          <Trackpoint>
            <Time>2018-04-21T11:20:52.000Z</Time>
            <Position>
              <LatitudeDegrees>43.2513390295207500457763671875</LatitudeDegrees>
              <LongitudeDegrees>-8.23735825717449188232421875</LongitudeDegrees>
            </Position>
            <AltitudeMeters>121.40000152587890625</AltitudeMeters>
            <DistanceMeters>52901.056877346</DistanceMeters>
          </Trackpoint>
          <Trackpoint>
            <Time>2018-04-21T11:20:57.000Z</Time>
            <Position>
              <LatitudeDegrees>43.25139862485229969024658203125</LatitudeDegrees>
              <LongitudeDegrees>-8.23724652640521526336669921875</LongitudeDegrees>
            </Position>
            <AltitudeMeters>122.1999969482421875</AltitudeMeters>
            <DistanceMeters>52912.283711583</DistanceMeters>
          </Trackpoint>
          <Trackpoint>
            <Time>2018-04-21T11:20:58.000Z</Time>
            <Position>
              <LatitudeDegrees>43.2514161430299282073974609375</LatitudeDegrees>
              <LongitudeDegrees>-8.237223140895366668701171875</LongitudeDegrees>
            </Position>
            <AltitudeMeters>122.40000152587890625</AltitudeMeters>
            <DistanceMeters>52915.001542066</DistanceMeters>
          </Trackpoint>
          <Trackpoint>
            <Time>2018-04-21T11:21:03.000Z</Time>
            <Position>
              <LatitudeDegrees>43.2514986209571361541748046875</LatitudeDegrees>
              <LongitudeDegrees>-8.2371223904192447662353515625</LongitudeDegrees>
            </Position>
            <AltitudeMeters>123.1999969482421875</AltitudeMeters>
            <DistanceMeters>52927.288316174</DistanceMeters>
          </Trackpoint>
          <Trackpoint>
            <Time>2018-04-21T11:21:04.000Z</Time>
            <Position>
              <LatitudeDegrees>43.2515103556215763092041015625</LatitudeDegrees>
              <LongitudeDegrees>-8.2370969094336032867431640625</LongitudeDegrees>
            </Position>
            <AltitudeMeters>123.40000152587890625</AltitudeMeters>
            <DistanceMeters>52929.733292781</DistanceMeters>
          </Trackpoint>
          <Trackpoint>
            <Time>2018-04-21T11:21:11.000Z</Time>
            <Position>
              <LatitudeDegrees>43.25162376277148723602294921875</LatitudeDegrees>
              <LongitudeDegrees>-8.23696204461157321929931640625</LongitudeDegrees>
            </Position>
            <AltitudeMeters>124.8000030517578125</AltitudeMeters>
            <DistanceMeters>52946.432058022</DistanceMeters>
          </Trackpoint>
          <Trackpoint>
            <Time>2018-04-21T11:21:16.000Z</Time>
            <Position>
              <LatitudeDegrees>43.25169702060520648956298828125</LatitudeDegrees>
              <LongitudeDegrees>-8.2368534989655017852783203125</LongitudeDegrees>
            </Position>
            <AltitudeMeters>126</AltitudeMeters>
            <DistanceMeters>52958.42878084</DistanceMeters>
          </Trackpoint>
          <Trackpoint>
            <Time>2018-04-21T11:21:19.000Z</Time>
            <Position>
              <LatitudeDegrees>43.2517510838806629180908203125</LatitudeDegrees>
              <LongitudeDegrees>-8.23679055087268352508544921875</LongitudeDegrees>
            </Position>
            <AltitudeMeters>126.40000152587890625</AltitudeMeters>
            <DistanceMeters>52966.318859864</DistanceMeters>
          </Trackpoint>
          <Trackpoint>
            <Time>2018-04-21T11:21:21.000Z</Time>
            <Position>
              <LatitudeDegrees>43.2517815940082073211669921875</LatitudeDegrees>
              <LongitudeDegrees>-8.2367351464927196502685546875</LongitudeDegrees>
            </Position>
            <AltitudeMeters>127.40000152587890625</AltitudeMeters>
            <DistanceMeters>52971.949543516</DistanceMeters>
          </Trackpoint>
          <Trackpoint>
            <Time>2018-04-21T11:21:27.000Z</Time>
            <Position>
              <LatitudeDegrees>43.2518724538385868072509765625</LatitudeDegrees>
              <LongitudeDegrees>-8.2365703582763671875</LongitudeDegrees>
            </Position>
            <AltitudeMeters>128</AltitudeMeters>
            <DistanceMeters>52988.704453737</DistanceMeters>
          </Trackpoint>
          <Trackpoint>
            <Time>2018-04-21T11:21:30.000Z</Time>
            <Position>
              <LatitudeDegrees>43.2519185543060302734375</LatitudeDegrees>
              <LongitudeDegrees>-8.236498944461345672607421875</LongitudeDegrees>
            </Position>
            <AltitudeMeters>128.8000030517578125</AltitudeMeters>
            <DistanceMeters>52996.439651634</DistanceMeters>
          </Trackpoint>
          <Trackpoint>
            <Time>2018-04-21T11:21:36.000Z</Time>
            <Position>
              <LatitudeDegrees>43.25201787985861301422119140625</LatitudeDegrees>
              <LongitudeDegrees>-8.2363435439765453338623046875</LongitudeDegrees>
            </Position>
            <AltitudeMeters>129.399993896484375</AltitudeMeters>
            <DistanceMeters>53013.200219885</DistanceMeters>
          </Trackpoint>
          <Trackpoint>
            <Time>2018-04-21T11:21:38.000Z</Time>
            <Position>
              <LatitudeDegrees>43.2520514912903308868408203125</LatitudeDegrees>
              <LongitudeDegrees>-8.23629601858556270599365234375</LongitudeDegrees>
            </Position>
            <AltitudeMeters>130</AltitudeMeters>
            <DistanceMeters>53018.570700698</DistanceMeters>
          </Trackpoint>
          <Trackpoint>
            <Time>2018-04-21T11:21:43.000Z</Time>
            <Position>
              <LatitudeDegrees>43.25212977826595306396484375</LatitudeDegrees>
              <LongitudeDegrees>-8.23617397807538509368896484375</LongitudeDegrees>
            </Position>
            <AltitudeMeters>131</AltitudeMeters>
            <DistanceMeters>53031.754437323</DistanceMeters>
          </Trackpoint>
          <Trackpoint>
            <Time>2018-04-21T11:21:44.000Z</Time>
            <Position>
              <LatitudeDegrees>43.252146877348423004150390625</LatitudeDegrees>
              <LongitudeDegrees>-8.2361460663378238677978515625</LongitudeDegrees>
            </Position>
            <AltitudeMeters>131.1999969482421875</AltitudeMeters>
            <DistanceMeters>53034.710974825</DistanceMeters>
          </Trackpoint>
          <Trackpoint>
            <Time>2018-04-21T11:21:51.000Z</Time>
            <Position>
              <LatitudeDegrees>43.2522580213844776153564453125</LatitudeDegrees>
              <LongitudeDegrees>-8.23591162450611591339111328125</LongitudeDegrees>
            </Position>
            <AltitudeMeters>131.8000030517578125</AltitudeMeters>
            <DistanceMeters>53057.387741862</DistanceMeters>
          </Trackpoint>
          <Trackpoint>
            <Time>2018-04-21T11:21:55.000Z</Time>
            <Position>
              <LatitudeDegrees>43.2523280940949916839599609375</LatitudeDegrees>
              <LongitudeDegrees>-8.23575991205871105194091796875</LongitudeDegrees>
            </Position>
            <AltitudeMeters>132.1999969482421875</AltitudeMeters>
            <DistanceMeters>53071.951341537</DistanceMeters>
          </Trackpoint>
          <Trackpoint>
            <Time>2018-04-21T11:21:59.000Z</Time>
            <Position>
              <LatitudeDegrees>43.252390287816524505615234375</LatitudeDegrees>
              <LongitudeDegrees>-8.23560652323067188262939453125</LongitudeDegrees>
            </Position>
            <AltitudeMeters>132.399993896484375</AltitudeMeters>
            <DistanceMeters>53086.18315852</DistanceMeters>
          </Trackpoint>
          <Trackpoint>
            <Time>2018-04-21T11:22:07.000Z</Time>
            <Position>
              <LatitudeDegrees>43.25250369496643543243408203125</LatitudeDegrees>
              <LongitudeDegrees>-8.23525414802134037017822265625</LongitudeDegrees>
            </Position>
            <AltitudeMeters>132.8000030517578125</AltitudeMeters>
            <DistanceMeters>53117.413280143</DistanceMeters>
          </Trackpoint>
          <Trackpoint>
            <Time>2018-04-21T11:22:14.000Z</Time>
            <Position>
              <LatitudeDegrees>43.25262271799147129058837890625</LatitudeDegrees>
              <LongitudeDegrees>-8.23494720272719860076904296875</LongitudeDegrees>
            </Position>
            <AltitudeMeters>133.1999969482421875</AltitudeMeters>
            <DistanceMeters>53145.602919324</DistanceMeters>
          </Trackpoint>
          <Trackpoint>
            <Time>2018-04-21T11:22:15.000Z</Time>
            <Position>
              <LatitudeDegrees>43.252640403807163238525390625</LatitudeDegrees>
              <LongitudeDegrees>-8.2349018566310405731201171875</LongitudeDegrees>
            </Position>
            <AltitudeMeters>133.1999969482421875</AltitudeMeters>
            <DistanceMeters>53149.773282285</DistanceMeters>
          </Trackpoint>
          <Trackpoint>
            <Time>2018-04-21T11:22:20.000Z</Time>
            <Position>
              <LatitudeDegrees>43.25277560390532016754150390625</LatitudeDegrees>
              <LongitudeDegrees>-8.23468166403472423553466796875</LongitudeDegrees>
            </Position>
            <AltitudeMeters>133.600006103515625</AltitudeMeters>
            <DistanceMeters>53173.120090939</DistanceMeters>
          </Trackpoint>
          <Trackpoint>
            <Time>2018-04-21T11:22:21.000Z</Time>
            <Position>
              <LatitudeDegrees>43.25281080789864063262939453125</LatitudeDegrees>
              <LongitudeDegrees>-8.23464788496494293212890625</LongitudeDegrees>
            </Position>
            <AltitudeMeters>133.600006103515625</AltitudeMeters>
            <DistanceMeters>53177.90079418</DistanceMeters>
          </Trackpoint>
          <Trackpoint>
            <Time>2018-04-21T11:22:27.000Z</Time>
            <Position>
              <LatitudeDegrees>43.253015242516994476318359375</LatitudeDegrees>
              <LongitudeDegrees>-8.23444143868982791900634765625</LongitudeDegrees>
            </Position>
            <AltitudeMeters>134.600006103515625</AltitudeMeters>
            <DistanceMeters>53206.146595886</DistanceMeters>
          </Trackpoint>
          <Trackpoint>
            <Time>2018-04-21T11:22:32.000Z</Time>
            <Position>
              <LatitudeDegrees>43.2531240396201610565185546875</LatitudeDegrees>
              <LongitudeDegrees>-8.234239518642425537109375</LongitudeDegrees>
            </Position>
            <AltitudeMeters>135</AltitudeMeters>
            <DistanceMeters>53226.507607883</DistanceMeters>
          </Trackpoint>
          <Trackpoint>
            <Time>2018-04-21T11:22:36.000Z</Time>
            <Position>
              <LatitudeDegrees>43.253183551132678985595703125</LatitudeDegrees>
              <LongitudeDegrees>-8.23404530994594097137451171875</LongitudeDegrees>
            </Position>
            <AltitudeMeters>135.600006103515625</AltitudeMeters>
            <DistanceMeters>53243.58785026</DistanceMeters>
          </Trackpoint>
          <Trackpoint>
            <Time>2018-04-21T11:22:38.000Z</Time>
            <Position>
              <LatitudeDegrees>43.25319821946322917938232421875</LatitudeDegrees>
              <LongitudeDegrees>-8.23393978178501129150390625</LongitudeDegrees>
            </Position>
            <AltitudeMeters>135.600006103515625</AltitudeMeters>
            <DistanceMeters>53252.297192493</DistanceMeters>
          </Trackpoint>
          <Trackpoint>
            <Time>2018-04-21T11:22:43.000Z</Time>
            <Position>
              <LatitudeDegrees>43.25323292054235935211181640625</LatitudeDegrees>
              <LongitudeDegrees>-8.23368019424378871917724609375</LongitudeDegrees>
            </Position>
            <AltitudeMeters>136</AltitudeMeters>
            <DistanceMeters>53273.69234697</DistanceMeters>
          </Trackpoint>
          <Trackpoint>
            <Time>2018-04-21T11:22:49.000Z</Time>
            <Position>
              <LatitudeDegrees>43.253289498388767242431640625</LatitudeDegrees>
              <LongitudeDegrees>-8.23331750929355621337890625</LongitudeDegrees>
            </Position>
            <AltitudeMeters>136.600006103515625</AltitudeMeters>
            <DistanceMeters>53303.760156891</DistanceMeters>
          </Trackpoint>
          <Trackpoint>
            <Time>2018-04-21T11:22:50.000Z</Time>
            <Position>
              <LatitudeDegrees>43.2532958686351776123046875</LatitudeDegrees>
              <LongitudeDegrees>-8.2332593388855457305908203125</LongitudeDegrees>
            </Position>
            <AltitudeMeters>137</AltitudeMeters>
            <DistanceMeters>53308.528566739</DistanceMeters>
          </Trackpoint>
          <Trackpoint>
            <Time>2018-04-21T11:22:55.000Z</Time>
            <Position>
              <LatitudeDegrees>43.25334708206355571746826171875</LatitudeDegrees>
              <LongitudeDegrees>-8.23300142772495746612548828125</LongitudeDegrees>
            </Position>
            <AltitudeMeters>137.600006103515625</AltitudeMeters>
            <DistanceMeters>53330.1994501</DistanceMeters>
          </Trackpoint>
          <Trackpoint>
            <Time>2018-04-21T11:22:57.000Z</Time>
            <Position>
              <LatitudeDegrees>43.25338295660912990570068359375</LatitudeDegrees>
              <LongitudeDegrees>-8.23290704749524593353271484375</LongitudeDegrees>
            </Position>
            <AltitudeMeters>138.1999969482421875</AltitudeMeters>
            <DistanceMeters>53338.829633789</DistanceMeters>
          </Trackpoint>
          <Trackpoint>
            <Time>2018-04-21T11:22:59.000Z</Time>
            <Position>
              <LatitudeDegrees>43.25342486612498760223388671875</LatitudeDegrees>
              <LongitudeDegrees>-8.232829011976718902587890625</LongitudeDegrees>
            </Position>
            <AltitudeMeters>139</AltitudeMeters>
            <DistanceMeters>53346.68989988</DistanceMeters>
          </Trackpoint>
          <Trackpoint>
            <Time>2018-04-21T11:23:02.000Z</Time>
            <Position>
              <LatitudeDegrees>43.2534868083894252777099609375</LatitudeDegrees>
              <LongitudeDegrees>-8.23271744884550571441650390625</LongitudeDegrees>
            </Position>
            <AltitudeMeters>139.600006103515625</AltitudeMeters>
            <DistanceMeters>53358.062179987</DistanceMeters>
          </Trackpoint>
          <Trackpoint>
            <Time>2018-04-21T11:23:04.000Z</Time>
            <Position>
              <LatitudeDegrees>43.25352729298174381256103515625</LatitudeDegrees>
              <LongitudeDegrees>-8.23264301754534244537353515625</LongitudeDegrees>
            </Position>
            <AltitudeMeters>140</AltitudeMeters>
            <DistanceMeters>53365.592709854</DistanceMeters>
          </Trackpoint>
          <Trackpoint>
            <Time>2018-04-21T11:23:05.000Z</Time>
            <Position>
              <LatitudeDegrees>43.25354732573032379150390625</LatitudeDegrees>
              <LongitudeDegrees>-8.2326048798859119415283203125</LongitudeDegrees>
            </Position>
            <AltitudeMeters>140.1999969482421875</AltitudeMeters>
            <DistanceMeters>53369.404453943</DistanceMeters>
          </Trackpoint>
          <Trackpoint>
            <Time>2018-04-21T11:23:07.000Z</Time>
            <Position>
              <LatitudeDegrees>43.25359820388257503509521484375</LatitudeDegrees>
              <LongitudeDegrees>-8.23252986185252666473388671875</LongitudeDegrees>
            </Position>
            <AltitudeMeters>140.8000030517578125</AltitudeMeters>
            <DistanceMeters>53377.714267091</DistanceMeters>
          </Trackpoint>
          <Trackpoint>
            <Time>2018-04-21T11:23:09.000Z</Time>
            <Position>
              <LatitudeDegrees>43.25364732183516025543212890625</LatitudeDegrees>
              <LongitudeDegrees>-8.2324657402932643890380859375</LongitudeDegrees>
            </Position>
            <AltitudeMeters>141.399993896484375</AltitudeMeters>
            <DistanceMeters>53385.257377303</DistanceMeters>
          </Trackpoint>
          <Trackpoint>
            <Time>2018-04-21T11:23:15.000Z</Time>
            <Position>
              <LatitudeDegrees>43.25376584194600582122802734375</LatitudeDegrees>
              <LongitudeDegrees>-8.2322669215500354766845703125</LongitudeDegrees>
            </Position>
            <AltitudeMeters>142.399993896484375</AltitudeMeters>
            <DistanceMeters>53406.084709877</DistanceMeters>
          </Trackpoint>
          <Trackpoint>
            <Time>2018-04-21T11:23:18.000Z</Time>
            <Position>
              <LatitudeDegrees>43.253829292953014373779296875</LatitudeDegrees>
              <LongitudeDegrees>-8.232184946537017822265625</LongitudeDegrees>
            </Position>
            <AltitudeMeters>142.600006103515625</AltitudeMeters>
            <DistanceMeters>53415.782091796</DistanceMeters>
          </Trackpoint>
          <Trackpoint>
            <Time>2018-04-21T11:23:23.000Z</Time>
            <Position>
              <LatitudeDegrees>43.25394186191260814666748046875</LatitudeDegrees>
              <LongitudeDegrees>-8.23204438202083110809326171875</LongitudeDegrees>
            </Position>
            <AltitudeMeters>143.600006103515625</AltitudeMeters>
            <DistanceMeters>53432.717654616</DistanceMeters>
          </Trackpoint>
          <Trackpoint>
            <Time>2018-04-21T11:23:25.000Z</Time>
            <Position>
              <LatitudeDegrees>43.2539779879152774810791015625</LatitudeDegrees>
              <LongitudeDegrees>-8.2319940067827701568603515625</LongitudeDegrees>
            </Position>
            <AltitudeMeters>143.8000030517578125</AltitudeMeters>
            <DistanceMeters>53438.447694577</DistanceMeters>
          </Trackpoint>
          <Trackpoint>
            <Time>2018-04-21T11:23:29.000Z</Time>
            <Position>
              <LatitudeDegrees>43.25405267067253589630126953125</LatitudeDegrees>
              <LongitudeDegrees>-8.23187842033803462982177734375</LongitudeDegrees>
            </Position>
            <AltitudeMeters>144.8000030517578125</AltitudeMeters>
            <DistanceMeters>53450.97321046</DistanceMeters>
          </Trackpoint>
          <Trackpoint>
            <Time>2018-04-21T11:23:34.000Z</Time>
            <Position>
              <LatitudeDegrees>43.2541359029710292816162109375</LatitudeDegrees>
              <LongitudeDegrees>-8.2317177392542362213134765625</LongitudeDegrees>
            </Position>
            <AltitudeMeters>145.600006103515625</AltitudeMeters>
            <DistanceMeters>53466.957200976</DistanceMeters>
          </Trackpoint>
          <Trackpoint>
            <Time>2018-04-21T11:23:35.000Z</Time>
            <Position>
              <LatitudeDegrees>43.2541556842625141143798828125</LatitudeDegrees>
              <LongitudeDegrees>-8.231677003204822540283203125</LongitudeDegrees>
            </Position>
            <AltitudeMeters>145.8000030517578125</AltitudeMeters>
            <DistanceMeters>53470.925633074</DistanceMeters>
          </Trackpoint>
          <Trackpoint>
            <Time>2018-04-21T11:23:40.000Z</Time>
            <Position>
              <LatitudeDegrees>43.25422734953463077545166015625</LatitudeDegrees>
              <LongitudeDegrees>-8.23148011229932308197021484375</LongitudeDegrees>
            </Position>
            <AltitudeMeters>146.600006103515625</AltitudeMeters>
            <DistanceMeters>53488.76840122</DistanceMeters>
          </Trackpoint>
          <Trackpoint>
            <Time>2018-04-21T11:23:46.000Z</Time>
            <Position>
              <LatitudeDegrees>43.25428359210491180419921875</LatitudeDegrees>
              <LongitudeDegrees>-8.23118138127028942108154296875</LongitudeDegrees>
            </Position>
            <AltitudeMeters>146.600006103515625</AltitudeMeters>
            <DistanceMeters>53513.78065274</DistanceMeters>
          </Trackpoint>
          <Trackpoint>
            <Time>2018-04-21T11:23:47.000Z</Time>
            <Position>
              <LatitudeDegrees>43.2542944885790348052978515625</LatitudeDegrees>
              <LongitudeDegrees>-8.23112807236611843109130859375</LongitudeDegrees>
            </Position>
            <AltitudeMeters>147.1999969482421875</AltitudeMeters>
            <DistanceMeters>53518.270099324</DistanceMeters>
          </Trackpoint>
          <Trackpoint>
            <Time>2018-04-21T11:23:53.000Z</Time>
            <Position>
              <LatitudeDegrees>43.2543669082224369049072265625</LatitudeDegrees>
              <LongitudeDegrees>-8.23078391142189502716064453125</LongitudeDegrees>
            </Position>
            <AltitudeMeters>147.1999969482421875</AltitudeMeters>
            <DistanceMeters>53547.310207264</DistanceMeters>
          </Trackpoint>
          <Trackpoint>
            <Time>2018-04-21T11:23:59.000Z</Time>
            <Position>
              <LatitudeDegrees>43.25438627041876316070556640625</LatitudeDegrees>
              <LongitudeDegrees>-8.23041426949203014373779296875</LongitudeDegrees>
            </Position>
            <AltitudeMeters>147.1999969482421875</AltitudeMeters>
            <DistanceMeters>53577.351877659</DistanceMeters>
          </Trackpoint>
          <Trackpoint>
            <Time>2018-04-21T11:24:00.000Z</Time>
            <Position>
              <LatitudeDegrees>43.2543803192675113677978515625</LatitudeDegrees>
              <LongitudeDegrees>-8.230353333055973052978515625</LongitudeDegrees>
            </Position>
            <AltitudeMeters>147.399993896484375</AltitudeMeters>
            <DistanceMeters>53582.335120601</DistanceMeters>
          </Trackpoint>
          <Trackpoint>
            <Time>2018-04-21T11:24:04.000Z</Time>
            <Position>
              <LatitudeDegrees>43.254333548247814178466796875</LatitudeDegrees>
              <LongitudeDegrees>-8.23012425564229488372802734375</LongitudeDegrees>
            </Position>
            <AltitudeMeters>147.600006103515625</AltitudeMeters>
            <DistanceMeters>53601.621096042</DistanceMeters>
          </Trackpoint>
          <Trackpoint>
            <Time>2018-04-21T11:24:05.000Z</Time>
            <Position>
              <LatitudeDegrees>43.25431820936501026153564453125</LatitudeDegrees>
              <LongitudeDegrees>-8.2300658337771892547607421875</LongitudeDegrees>
            </Position>
            <AltitudeMeters>147.399993896484375</AltitudeMeters>
            <DistanceMeters>53606.655718628</DistanceMeters>
          </Trackpoint>
          <Trackpoint>
            <Time>2018-04-21T11:24:09.000Z</Time>
            <Position>
              <LatitudeDegrees>43.25426615774631500244140625</LatitudeDegrees>
              <LongitudeDegrees>-8.2298247702419757843017578125</LongitudeDegrees>
            </Position>
            <AltitudeMeters>148.1999969482421875</AltitudeMeters>
            <DistanceMeters>53627.038007432</DistanceMeters>
          </Trackpoint>
          <Trackpoint>
            <Time>2018-04-21T11:24:13.000Z</Time>
            <Position>
              <LatitudeDegrees>43.2542281039059162139892578125</LatitudeDegrees>
              <LongitudeDegrees>-8.229600302875041961669921875</LongitudeDegrees>
            </Position>
            <AltitudeMeters>147.8000030517578125</AltitudeMeters>
            <DistanceMeters>53645.720607486</DistanceMeters>
          </Trackpoint>
          <Trackpoint>
            <Time>2018-04-21T11:24:16.000Z</Time>
            <Position>
              <LatitudeDegrees>43.25427152216434478759765625</LatitudeDegrees>
              <LongitudeDegrees>-8.22945202700793743133544921875</LongitudeDegrees>
            </Position>
            <AltitudeMeters>147.8000030517578125</AltitudeMeters>
            <DistanceMeters>53658.675645146</DistanceMeters>
          </Trackpoint>
          <Trackpoint>
            <Time>2018-04-21T11:24:17.000Z</Time>
            <Position>
              <LatitudeDegrees>43.25429842807352542877197265625</LatitudeDegrees>
              <LongitudeDegrees>-8.22940710000693798065185546875</LongitudeDegrees>
            </Position>
            <AltitudeMeters>148</AltitudeMeters>
            <DistanceMeters>53663.390732442</DistanceMeters>
          </Trackpoint>
          <Trackpoint>
            <Time>2018-04-21T11:24:21.000Z</Time>
            <Position>
              <LatitudeDegrees>43.25444410555064678192138671875</LatitudeDegrees>
              <LongitudeDegrees>-8.22926008142530918121337890625</LongitudeDegrees>
            </Position>
            <AltitudeMeters>147.600006103515625</AltitudeMeters>
            <DistanceMeters>53683.513522703</DistanceMeters>
          </Trackpoint>
          <Trackpoint>
            <Time>2018-04-21T11:24:22.000Z</Time>
            <Position>
              <LatitudeDegrees>43.2544798962771892547607421875</LatitudeDegrees>
              <LongitudeDegrees>-8.22921968065202236175537109375</LongitudeDegrees>
            </Position>
            <AltitudeMeters>147.399993896484375</AltitudeMeters>
            <DistanceMeters>53688.671294044</DistanceMeters>
          </Trackpoint>
          <Trackpoint>
            <Time>2018-04-21T11:24:25.000Z</Time>
            <Position>
              <LatitudeDegrees>43.254598416388034820556640625</LatitudeDegrees>
              <LongitudeDegrees>-8.2290801219642162322998046875</LongitudeDegrees>
            </Position>
            <AltitudeMeters>147.1999969482421875</AltitudeMeters>
            <DistanceMeters>53706.049495234</DistanceMeters>
          </Trackpoint>
          <Trackpoint>
            <Time>2018-04-21T11:24:26.000Z</Time>
            <Position>
              <LatitudeDegrees>43.25464728288352489471435546875</LatitudeDegrees>
              <LongitudeDegrees>-8.2290355302393436431884765625</LongitudeDegrees>
            </Position>
            <AltitudeMeters>147</AltitudeMeters>
            <DistanceMeters>53712.580119327</DistanceMeters>
          </Trackpoint>
          <Trackpoint>
            <Time>2018-04-21T11:24:27.000Z</Time>
            <Position>
              <LatitudeDegrees>43.254693634808063507080078125</LatitudeDegrees>
              <LongitudeDegrees>-8.2289815507829189300537109375</LongitudeDegrees>
            </Position>
            <AltitudeMeters>146.8000030517578125</AltitudeMeters>
            <DistanceMeters>53719.345060378</DistanceMeters>
          </Trackpoint>
          <Trackpoint>
            <Time>2018-04-21T11:24:29.000Z</Time>
            <Position>
              <LatitudeDegrees>43.25480125844478607177734375</LatitudeDegrees>
              <LongitudeDegrees>-8.22888859547674655914306640625</LongitudeDegrees>
            </Position>
            <AltitudeMeters>146.1999969482421875</AltitudeMeters>
            <DistanceMeters>53733.497023685</DistanceMeters>
          </Trackpoint>
          <Trackpoint>
            <Time>2018-04-21T11:24:30.000Z</Time>
            <Position>
              <LatitudeDegrees>43.254861943423748016357421875</LatitudeDegrees>
              <LongitudeDegrees>-8.22884760797023773193359375</LongitudeDegrees>
            </Position>
            <AltitudeMeters>145.8000030517578125</AltitudeMeters>
            <DistanceMeters>53741.025154911</DistanceMeters>
          </Trackpoint>
          <Trackpoint>
            <Time>2018-04-21T11:24:32.000Z</Time>
            <Position>
              <LatitudeDegrees>43.2549747638404369354248046875</LatitudeDegrees>
              <LongitudeDegrees>-8.2287595979869365692138671875</LongitudeDegrees>
            </Position>
            <AltitudeMeters>145.1999969482421875</AltitudeMeters>
            <DistanceMeters>53755.467339846</DistanceMeters>
          </Trackpoint>
          <Trackpoint>
            <Time>2018-04-21T11:24:33.000Z</Time>
            <Position>
              <LatitudeDegrees>43.255016840994358062744140625</LatitudeDegrees>
              <LongitudeDegrees>-8.22870871983468532562255859375</LongitudeDegrees>
            </Position>
            <AltitudeMeters>145</AltitudeMeters>
            <DistanceMeters>53761.708070549</DistanceMeters>
          </Trackpoint>
          <Trackpoint>
            <Time>2018-04-21T11:24:35.000Z</Time>
            <Position>
              <LatitudeDegrees>43.2550830580294132232666015625</LatitudeDegrees>
              <LongitudeDegrees>-8.2285708375275135040283203125</LongitudeDegrees>
            </Position>
            <AltitudeMeters>143.8000030517578125</AltitudeMeters>
            <DistanceMeters>53775.095712509</DistanceMeters>
          </Trackpoint>
          <Trackpoint>
            <Time>2018-04-21T11:24:37.000Z</Time>
            <Position>
              <LatitudeDegrees>43.2551789470016956329345703125</LatitudeDegrees>
              <LongitudeDegrees>-8.2283882796764373779296875</LongitudeDegrees>
            </Position>
            <AltitudeMeters>142.1999969482421875</AltitudeMeters>
            <DistanceMeters>53793.341336593</DistanceMeters>
          </Trackpoint>
          <Trackpoint>
            <Time>2018-04-21T11:24:38.000Z</Time>
            <Position>
              <LatitudeDegrees>43.25521138496696949005126953125</LatitudeDegrees>
              <LongitudeDegrees>-8.2282694242894649505615234375</LongitudeDegrees>
            </Position>
            <AltitudeMeters>141.399993896484375</AltitudeMeters>
            <DistanceMeters>53803.630584195</DistanceMeters>
          </Trackpoint>
          <Trackpoint>
            <Time>2018-04-21T11:24:39.000Z</Time>
            <Position>
              <LatitudeDegrees>43.25524524785578250885009765625</LatitudeDegrees>
              <LongitudeDegrees>-8.22816842235624790191650390625</LongitudeDegrees>
            </Position>
            <AltitudeMeters>140.399993896484375</AltitudeMeters>
            <DistanceMeters>53812.643606313</DistanceMeters>
          </Trackpoint>
          <Trackpoint>
            <Time>2018-04-21T11:24:41.000Z</Time>
            <Position>
              <LatitudeDegrees>43.255292437970638275146484375</LatitudeDegrees>
              <LongitudeDegrees>-8.227994330227375030517578125</LongitudeDegrees>
            </Position>
            <AltitudeMeters>139.1999969482421875</AltitudeMeters>
            <DistanceMeters>53827.701667925</DistanceMeters>
          </Trackpoint>
          <Trackpoint>
            <Time>2018-04-21T11:24:42.000Z</Time>
            <Position>
              <LatitudeDegrees>43.25532487593591213226318359375</LatitudeDegrees>
              <LongitudeDegrees>-8.22790355421602725982666015625</LongitudeDegrees>
            </Position>
            <AltitudeMeters>138.600006103515625</AltitudeMeters>
            <DistanceMeters>53835.898238472</DistanceMeters>
          </Trackpoint>
          <Trackpoint>
            <Time>2018-04-21T11:24:43.000Z</Time>
            <Position>
              <LatitudeDegrees>43.25535915791988372802734375</LatitudeDegrees>
              <LongitudeDegrees>-8.22780682705342769622802734375</LongitudeDegrees>
            </Position>
            <AltitudeMeters>128.8000030517578125</AltitudeMeters>
            <DistanceMeters>53844.617942805</DistanceMeters>
          </Trackpoint>
          <Trackpoint>
            <Time>2018-04-21T11:24:44.000Z</Time>
            <Position>
              <LatitudeDegrees>43.25539595447480678558349609375</LatitudeDegrees>
              <LongitudeDegrees>-8.227709345519542694091796875</LongitudeDegrees>
            </Position>
            <AltitudeMeters>133.399993896484375</AltitudeMeters>
            <DistanceMeters>53853.518045646</DistanceMeters>
          </Trackpoint>
          <Trackpoint>
            <Time>2018-04-21T11:24:45.000Z</Time>
            <Position>
              <LatitudeDegrees>43.25543291866779327392578125</LatitudeDegrees>
              <LongitudeDegrees>-8.22760079987347126007080078125</LongitudeDegrees>
            </Position>
            <AltitudeMeters>138.600006103515625</AltitudeMeters>
            <DistanceMeters>53863.231709669</DistanceMeters>
          </Trackpoint>
          <Trackpoint>
            <Time>2018-04-21T11:24:46.000Z</Time>
            <Position>
              <LatitudeDegrees>43.25546770356595516204833984375</LatitudeDegrees>
              <LongitudeDegrees>-8.22748772799968719482421875</LongitudeDegrees>
            </Position>
            <AltitudeMeters>135.8000030517578125</AltitudeMeters>
            <DistanceMeters>53873.182327148</DistanceMeters>
          </Trackpoint>
          <Trackpoint>
            <Time>2018-04-21T11:24:47.000Z</Time>
            <Position>
              <LatitudeDegrees>43.2555038295686244964599609375</LatitudeDegrees>
              <LongitudeDegrees>-8.227373398840427398681640625</LongitudeDegrees>
            </Position>
            <AltitudeMeters>135.399993896484375</AltitudeMeters>
            <DistanceMeters>53883.285146262</DistanceMeters>
          </Trackpoint>
          <Trackpoint>
            <Time>2018-04-21T11:24:48.000Z</Time>
            <Position>
              <LatitudeDegrees>43.2555460743606090545654296875</LatitudeDegrees>
              <LongitudeDegrees>-8.2272510230541229248046875</LongitudeDegrees>
            </Position>
            <AltitudeMeters>134.600006103515625</AltitudeMeters>
            <DistanceMeters>53894.2630969</DistanceMeters>
          </Trackpoint>
          <Trackpoint>
            <Time>2018-04-21T11:24:50.000Z</Time>
            <Position>
              <LatitudeDegrees>43.25561120174825191497802734375</LatitudeDegrees>
              <LongitudeDegrees>-8.22701373137533664703369140625</LongitudeDegrees>
            </Position>
            <AltitudeMeters>133.1999969482421875</AltitudeMeters>
            <DistanceMeters>53914.818980901</DistanceMeters>
          </Trackpoint>
          <Trackpoint>
            <Time>2018-04-21T11:24:52.000Z</Time>
            <Position>
              <LatitudeDegrees>43.25567440129816532135009765625</LatitudeDegrees>
              <LongitudeDegrees>-8.22679479606449604034423828125</LongitudeDegrees>
            </Position>
            <AltitudeMeters>131.1999969482421875</AltitudeMeters>
            <DistanceMeters>53933.90965625</DistanceMeters>
          </Trackpoint>
          <Trackpoint>
            <Time>2018-04-21T11:24:53.000Z</Time>
            <Position>
              <LatitudeDegrees>43.25572771020233631134033203125</LatitudeDegrees>
              <LongitudeDegrees>-8.22668834589421749114990234375</LongitudeDegrees>
            </Position>
            <AltitudeMeters>130</AltitudeMeters>
            <DistanceMeters>53944.381582927</DistanceMeters>
          </Trackpoint>
          <Trackpoint>
            <Time>2018-04-21T11:24:55.000Z</Time>
            <Position>
              <LatitudeDegrees>43.25586886145174503326416015625</LatitudeDegrees>
              <LongitudeDegrees>-8.226492293179035186767578125</LongitudeDegrees>
            </Position>
            <AltitudeMeters>128.600006103515625</AltitudeMeters>
            <DistanceMeters>53966.728423588</DistanceMeters>
          </Trackpoint>
          <Trackpoint>
            <Time>2018-04-21T11:24:57.000Z</Time>
            <Position>
              <LatitudeDegrees>43.256038092076778411865234375</LatitudeDegrees>
              <LongitudeDegrees>-8.22630914859473705291748046875</LongitudeDegrees>
            </Position>
            <AltitudeMeters>126.1999969482421875</AltitudeMeters>
            <DistanceMeters>53990.711328941</DistanceMeters>
          </Trackpoint>
          <Trackpoint>
            <Time>2018-04-21T11:24:59.000Z</Time>
            <Position>
              <LatitudeDegrees>43.2562129385769367218017578125</LatitudeDegrees>
              <LongitudeDegrees>-8.22615290991961956024169921875</LongitudeDegrees>
            </Position>
            <AltitudeMeters>125</AltitudeMeters>
            <DistanceMeters>54013.930538316</DistanceMeters>
          </Trackpoint>
          <Trackpoint>
            <Time>2018-04-21T11:25:02.000Z</Time>
            <Position>
              <LatitudeDegrees>43.25641217641532421112060546875</LatitudeDegrees>
              <LongitudeDegrees>-8.2260063104331493377685546875</LongitudeDegrees>
            </Position>
            <AltitudeMeters>123.40000152587890625</AltitudeMeters>
            <DistanceMeters>54039.089477849</DistanceMeters>
          </Trackpoint>
          <Trackpoint>
            <Time>2018-04-21T11:25:04.000Z</Time>
            <Position>
              <LatitudeDegrees>43.25646649114787578582763671875</LatitudeDegrees>
              <LongitudeDegrees>-8.22594939731061458587646484375</LongitudeDegrees>
            </Position>
            <AltitudeMeters>121.8000030517578125</AltitudeMeters>
            <DistanceMeters>54046.693990295</DistanceMeters>
          </Trackpoint>
          <Trackpoint>
            <Time>2018-04-21T11:25:05.000Z</Time>
            <Position>
              <LatitudeDegrees>43.2564804889261722564697265625</LatitudeDegrees>
              <LongitudeDegrees>-8.22590195573866367340087890625</LongitudeDegrees>
            </Position>
            <AltitudeMeters>121.1999969482421875</AltitudeMeters>
            <DistanceMeters>54050.843731947</DistanceMeters>
          </Trackpoint>
          <Trackpoint>
            <Time>2018-04-21T11:25:06.000Z</Time>
            <Position>
              <LatitudeDegrees>43.25649063102900981903076171875</LatitudeDegrees>
              <LongitudeDegrees>-8.22584629990160465240478515625</LongitudeDegrees>
            </Position>
            <AltitudeMeters>121</AltitudeMeters>
            <DistanceMeters>54055.49421935</DistanceMeters>
          </Trackpoint>
          <Trackpoint>
            <Time>2018-04-21T11:25:08.000Z</Time>
            <Position>
              <LatitudeDegrees>43.25653622858226299285888671875</LatitudeDegrees>
              <LongitudeDegrees>-8.2257105968892574310302734375</LongitudeDegrees>
            </Position>
            <AltitudeMeters>120.59999847412109375</AltitudeMeters>
            <DistanceMeters>54067.60854155</DistanceMeters>
          </Trackpoint>
          <Trackpoint>
            <Time>2018-04-21T11:25:09.000Z</Time>
            <Position>
              <LatitudeDegrees>43.2565666548907756805419921875</LatitudeDegrees>
              <LongitudeDegrees>-8.22562518529593944549560546875</LongitudeDegrees>
            </Position>
            <AltitudeMeters>120</AltitudeMeters>
            <DistanceMeters>54075.316256706</DistanceMeters>
          </Trackpoint>
          <Trackpoint>
            <Time>2018-04-21T11:25:10.000Z</Time>
            <Position>
              <LatitudeDegrees>43.25659238733351230621337890625</LatitudeDegrees>
              <LongitudeDegrees>-8.2255392707884311676025390625</LongitudeDegrees>
            </Position>
            <AltitudeMeters>119.1999969482421875</AltitudeMeters>
            <DistanceMeters>54082.846186984</DistanceMeters>
          </Trackpoint>
          <Trackpoint>
            <Time>2018-04-21T11:25:12.000Z</Time>
            <Position>
              <LatitudeDegrees>43.25662775896489620208740234375</LatitudeDegrees>
              <LongitudeDegrees>-8.2253434695303440093994140625</LongitudeDegrees>
            </Position>
            <AltitudeMeters>117.40000152587890625</AltitudeMeters>
            <DistanceMeters>54099.198790866</DistanceMeters>
          </Trackpoint>
          <Trackpoint>
            <Time>2018-04-21T11:25:14.000Z</Time>
            <Position>
              <LatitudeDegrees>43.2566813193261623382568359375</LatitudeDegrees>
              <LongitudeDegrees>-8.22515479288995265960693359375</LongitudeDegrees>
            </Position>
            <AltitudeMeters>116.40000152587890625</AltitudeMeters>
            <DistanceMeters>54115.613950966</DistanceMeters>
          </Trackpoint>
          <Trackpoint>
            <Time>2018-04-21T11:25:16.000Z</Time>
            <Position>
              <LatitudeDegrees>43.25677880086004734039306640625</LatitudeDegrees>
              <LongitudeDegrees>-8.22499671019613742828369140625</LongitudeDegrees>
            </Position>
            <AltitudeMeters>115</AltitudeMeters>
            <DistanceMeters>54132.404394277</DistanceMeters>
          </Trackpoint>
          <Trackpoint>
            <Time>2018-04-21T11:25:17.000Z</Time>
            <Position>
              <LatitudeDegrees>43.25683093629777431488037109375</LatitudeDegrees>
              <LongitudeDegrees>-8.22492194361984729766845703125</LongitudeDegrees>
            </Position>
            <AltitudeMeters>114.40000152587890625</AltitudeMeters>
            <DistanceMeters>54140.794774242</DistanceMeters>
          </Trackpoint>
          <Trackpoint>
            <Time>2018-04-21T11:25:18.000Z</Time>
            <Position>
              <LatitudeDegrees>43.25688533484935760498046875</LatitudeDegrees>
              <LongitudeDegrees>-8.22485002689063549041748046875</LongitudeDegrees>
            </Position>
            <AltitudeMeters>114.1999969482421875</AltitudeMeters>
            <DistanceMeters>54149.199670911</DistanceMeters>
          </Trackpoint>
          <Trackpoint>
            <Time>2018-04-21T11:25:20.000Z</Time>
            <Position>
              <LatitudeDegrees>43.25699740089476108551025390625</LatitudeDegrees>
              <LongitudeDegrees>-8.224728740751743316650390625</LongitudeDegrees>
            </Position>
            <AltitudeMeters>114.1999969482421875</AltitudeMeters>
            <DistanceMeters>54165.081930051</DistanceMeters>
          </Trackpoint>
          <Trackpoint>
            <Time>2018-04-21T11:25:22.000Z</Time>
            <Position>
              <LatitudeDegrees>43.25711659155786037445068359375</LatitudeDegrees>
              <LongitudeDegrees>-8.224634192883968353271484375</LongitudeDegrees>
            </Position>
            <AltitudeMeters>114</AltitudeMeters>
            <DistanceMeters>54180.403053938</DistanceMeters>
          </Trackpoint>
          <Trackpoint>
            <Time>2018-04-21T11:25:26.000Z</Time>
            <Position>
              <LatitudeDegrees>43.25735363177955150604248046875</LatitudeDegrees>
              <LongitudeDegrees>-8.22444819845259189605712890625</LongitudeDegrees>
            </Position>
            <AltitudeMeters>113.59999847412109375</AltitudeMeters>
            <DistanceMeters>54210.790065419</DistanceMeters>
          </Trackpoint>
          <Trackpoint>
            <Time>2018-04-21T11:25:28.000Z</Time>
            <Position>
              <LatitudeDegrees>43.2574588246643543243408203125</LatitudeDegrees>
              <LongitudeDegrees>-8.22436287067830562591552734375</LongitudeDegrees>
            </Position>
            <AltitudeMeters>113.1999969482421875</AltitudeMeters>
            <DistanceMeters>54224.388517736</DistanceMeters>
          </Trackpoint>
          <Trackpoint>
            <Time>2018-04-21T11:25:29.000Z</Time>
            <Position>
              <LatitudeDegrees>43.2575252093374729156494140625</LatitudeDegrees>
              <LongitudeDegrees>-8.2243590988218784332275390625</LongitudeDegrees>
            </Position>
            <AltitudeMeters>113.1999969482421875</AltitudeMeters>
            <DistanceMeters>54231.783525711</DistanceMeters>
          </Trackpoint>
          <Trackpoint>
            <Time>2018-04-21T11:25:31.000Z</Time>
            <Position>
              <LatitudeDegrees>43.25765688903629779815673828125</LatitudeDegrees>
              <LongitudeDegrees>-8.22435717098414897918701171875</LongitudeDegrees>
            </Position>
            <AltitudeMeters>113</AltitudeMeters>
            <DistanceMeters>54246.441069119</DistanceMeters>
          </Trackpoint>
          <Trackpoint>
            <Time>2018-04-21T11:25:34.000Z</Time>
            <Position>
              <LatitudeDegrees>43.25783072970807552337646484375</LatitudeDegrees>
              <LongitudeDegrees>-8.22434225119650363922119140625</LongitudeDegrees>
            </Position>
            <AltitudeMeters>113</AltitudeMeters>
            <DistanceMeters>54265.827916252</DistanceMeters>
          </Trackpoint>
          <Trackpoint>
            <Time>2018-04-21T11:25:36.000Z</Time>
            <Position>
              <LatitudeDegrees>43.2579282112419605255126953125</LatitudeDegrees>
              <LongitudeDegrees>-8.22428827174007892608642578125</LongitudeDegrees>
            </Position>
            <AltitudeMeters>113.1999969482421875</AltitudeMeters>
            <DistanceMeters>54277.526627231</DistanceMeters>
          </Trackpoint>
          <Trackpoint>
            <Time>2018-04-21T11:25:41.000Z</Time>
            <Position>
              <LatitudeDegrees>43.2581494934856891632080078125</LatitudeDegrees>
              <LongitudeDegrees>-8.22415449656546115875244140625</LongitudeDegrees>
            </Position>
            <AltitudeMeters>113.1999969482421875</AltitudeMeters>
            <DistanceMeters>54304.437145816</DistanceMeters>
          </Trackpoint>
          <Trackpoint>
            <Time>2018-04-21T11:25:42.000Z</Time>
            <Position>
              <LatitudeDegrees>43.25820338912308216094970703125</LatitudeDegrees>
              <LongitudeDegrees>-8.2241482101380825042724609375</LongitudeDegrees>
            </Position>
            <AltitudeMeters>113.1999969482421875</AltitudeMeters>
            <DistanceMeters>54310.457671279</DistanceMeters>
          </Trackpoint>
          <Trackpoint>
            <Time>2018-04-21T11:25:45.000Z</Time>
            <Position>
              <LatitudeDegrees>43.25835728086531162261962890625</LatitudeDegrees>
              <LongitudeDegrees>-8.2241180352866649627685546875</LongitudeDegrees>
            </Position>
            <AltitudeMeters>112.8000030517578125</AltitudeMeters>
            <DistanceMeters>54327.759841497</DistanceMeters>
          </Trackpoint>
          <Trackpoint>
            <Time>2018-04-21T11:25:48.000Z</Time>
            <Position>
              <LatitudeDegrees>43.25846674852073192596435546875</LatitudeDegrees>
              <LongitudeDegrees>-8.22400378994643688201904296875</LongitudeDegrees>
            </Position>
            <AltitudeMeters>113.59999847412109375</AltitudeMeters>
            <DistanceMeters>54343.063863607</DistanceMeters>
          </Trackpoint>
          <Trackpoint>
            <Time>2018-04-21T11:25:51.000Z</Time>
            <Position>
              <LatitudeDegrees>43.258531205356121063232421875</LatitudeDegrees>
              <LongitudeDegrees>-8.22386230342090129852294921875</LongitudeDegrees>
            </Position>
            <AltitudeMeters>114</AltitudeMeters>
            <DistanceMeters>54356.591743308</DistanceMeters>
          </Trackpoint>
          <Trackpoint>
            <Time>2018-04-21T11:25:53.000Z</Time>
            <Position>
              <LatitudeDegrees>43.25858409516513347625732421875</LatitudeDegrees>
              <LongitudeDegrees>-8.2237802445888519287109375</LongitudeDegrees>
            </Position>
            <AltitudeMeters>114.40000152587890625</AltitudeMeters>
            <DistanceMeters>54365.474581141</DistanceMeters>
          </Trackpoint>
          <Trackpoint>
            <Time>2018-04-21T11:25:54.000Z</Time>
            <Position>
              <LatitudeDegrees>43.25861594639718532562255859375</LatitudeDegrees>
              <LongitudeDegrees>-8.223747052252292633056640625</LongitudeDegrees>
            </Position>
            <AltitudeMeters>114.59999847412109375</AltitudeMeters>
            <DistanceMeters>54369.923617842</DistanceMeters>
          </Trackpoint>
          <Trackpoint>
            <Time>2018-04-21T11:25:56.000Z</Time>
            <Position>
              <LatitudeDegrees>43.258685767650604248046875</LatitudeDegrees>
              <LongitudeDegrees>-8.2236955873668193817138671875</LongitudeDegrees>
            </Position>
            <AltitudeMeters>114.8000030517578125</AltitudeMeters>
            <DistanceMeters>54378.74320278</DistanceMeters>
          </Trackpoint>
          <Trackpoint>
            <Time>2018-04-21T11:25:58.000Z</Time>
            <Position>
              <LatitudeDegrees>43.2587670721113681793212890625</LatitudeDegrees>
              <LongitudeDegrees>-8.223656527698040008544921875</LongitudeDegrees>
            </Position>
            <AltitudeMeters>115.1999969482421875</AltitudeMeters>
            <DistanceMeters>54388.330074952</DistanceMeters>
          </Trackpoint>
          <Trackpoint>
            <Time>2018-04-21T11:26:00.000Z</Time>
            <Position>
              <LatitudeDegrees>43.25884879566729068756103515625</LatitudeDegrees>
              <LongitudeDegrees>-8.22362962178885936737060546875</LongitudeDegrees>
            </Position>
            <AltitudeMeters>115.40000152587890625</AltitudeMeters>
            <DistanceMeters>54397.68429543</DistanceMeters>
          </Trackpoint>
          <Trackpoint>
            <Time>2018-04-21T11:26:03.000Z</Time>
            <Position>
              <LatitudeDegrees>43.25897234492003917694091796875</LatitudeDegrees>
              <LongitudeDegrees>-8.2235898077487945556640625</LongitudeDegrees>
            </Position>
            <AltitudeMeters>115.59999847412109375</AltitudeMeters>
            <DistanceMeters>54411.809753621</DistanceMeters>
          </Trackpoint>
          <Trackpoint>
            <Time>2018-04-21T11:26:07.000Z</Time>
            <Position>
              <LatitudeDegrees>43.2591308467090129852294921875</LatitudeDegrees>
              <LongitudeDegrees>-8.22354027070105075836181640625</LongitudeDegrees>
            </Position>
            <AltitudeMeters>116.40000152587890625</AltitudeMeters>
            <DistanceMeters>54429.902301012</DistanceMeters>
          </Trackpoint>
          <Trackpoint>
            <Time>2018-04-21T11:26:10.000Z</Time>
            <Position>
              <LatitudeDegrees>43.25923821888864040374755859375</LatitudeDegrees>
              <LongitudeDegrees>-8.2235085032880306243896484375</LongitudeDegrees>
            </Position>
            <AltitudeMeters>116.8000030517578125</AltitudeMeters>
            <DistanceMeters>54442.12755337</DistanceMeters>
          </Trackpoint>
          <Trackpoint>
            <Time>2018-04-21T11:26:13.000Z</Time>
            <Position>
              <LatitudeDegrees>43.25933058746159076690673828125</LatitudeDegrees>
              <LongitudeDegrees>-8.223474808037281036376953125</LongitudeDegrees>
            </Position>
            <AltitudeMeters>117.59999847412109375</AltitudeMeters>
            <DistanceMeters>54452.765029007</DistanceMeters>
          </Trackpoint>
          <Trackpoint>
            <Time>2018-04-21T11:26:14.000Z</Time>
            <Position>
              <LatitudeDegrees>43.2593571580946445465087890625</LatitudeDegrees>
              <LongitudeDegrees>-8.22346843779087066650390625</LongitudeDegrees>
            </Position>
            <AltitudeMeters>118</AltitudeMeters>
            <DistanceMeters>54455.767031054</DistanceMeters>
          </Trackpoint>
          <Trackpoint>
            <Time>2018-04-21T11:26:17.000Z</Time>
            <Position>
              <LatitudeDegrees>43.259437121450901031494140625</LatitudeDegrees>
              <LongitudeDegrees>-8.223429210484027862548828125</LongitudeDegrees>
            </Position>
            <AltitudeMeters>118.40000152587890625</AltitudeMeters>
            <DistanceMeters>54465.218248763</DistanceMeters>
          </Trackpoint>
          <Trackpoint>
            <Time>2018-04-21T11:26:20.000Z</Time>
            <Position>
              <LatitudeDegrees>43.25951649807393550872802734375</LatitudeDegrees>
              <LongitudeDegrees>-8.2233918271958827972412109375</LongitudeDegrees>
            </Position>
            <AltitudeMeters>119.1999969482421875</AltitudeMeters>
            <DistanceMeters>54474.557977798</DistanceMeters>
          </Trackpoint>
          <Trackpoint>
            <Time>2018-04-21T11:26:22.000Z</Time>
            <Position>
              <LatitudeDegrees>43.2595683820545673370361328125</LatitudeDegrees>
              <LongitudeDegrees>-8.2233633287250995635986328125</LongitudeDegrees>
            </Position>
            <AltitudeMeters>119.8000030517578125</AltitudeMeters>
            <DistanceMeters>54480.77769222</DistanceMeters>
          </Trackpoint>
          <Trackpoint>
            <Time>2018-04-21T11:26:24.000Z</Time>
            <Position>
              <LatitudeDegrees>43.259626217186450958251953125</LatitudeDegrees>
              <LongitudeDegrees>-8.22333994321525096893310546875</LongitudeDegrees>
            </Position>
            <AltitudeMeters>120.1999969482421875</AltitudeMeters>
            <DistanceMeters>54487.489027504</DistanceMeters>
          </Trackpoint>
          <Trackpoint>
            <Time>2018-04-21T11:26:25.000Z</Time>
            <Position>
              <LatitudeDegrees>43.25965471565723419189453125</LatitudeDegrees>
              <LongitudeDegrees>-8.223322927951812744140625</LongitudeDegrees>
            </Position>
            <AltitudeMeters>120.40000152587890625</AltitudeMeters>
            <DistanceMeters>54490.949357166</DistanceMeters>
          </Trackpoint>
          <Trackpoint>
            <Time>2018-04-21T11:26:27.000Z</Time>
            <Position>
              <LatitudeDegrees>43.25970995239913463592529296875</LatitudeDegrees>
              <LongitudeDegrees>-8.22329543530941009521484375</LongitudeDegrees>
            </Position>
            <AltitudeMeters>120.8000030517578125</AltitudeMeters>
            <DistanceMeters>54497.488962814</DistanceMeters>
          </Trackpoint>
          <Trackpoint>
            <Time>2018-04-21T11:26:29.000Z</Time>
            <Position>
              <LatitudeDegrees>43.25976359657943248748779296875</LatitudeDegrees>
              <LongitudeDegrees>-8.22327196598052978515625</LongitudeDegrees>
            </Position>
            <AltitudeMeters>121.59999847412109375</AltitudeMeters>
            <DistanceMeters>54503.754964121</DistanceMeters>
          </Trackpoint>
          <Trackpoint>
            <Time>2018-04-21T11:26:32.000Z</Time>
            <Position>
              <LatitudeDegrees>43.25984741561114788055419921875</LatitudeDegrees>
              <LongitudeDegrees>-8.2232282124459743499755859375</LongitudeDegrees>
            </Position>
            <AltitudeMeters>122.1999969482421875</AltitudeMeters>
            <DistanceMeters>54513.735936184</DistanceMeters>
          </Trackpoint>
          <Trackpoint>
            <Time>2018-04-21T11:26:34.000Z</Time>
            <Position>
              <LatitudeDegrees>43.25989888049662113189697265625</LatitudeDegrees>
              <LongitudeDegrees>-8.22320080362260341644287109375</LongitudeDegrees>
            </Position>
            <AltitudeMeters>122.8000030517578125</AltitudeMeters>
            <DistanceMeters>54519.881160321</DistanceMeters>
          </Trackpoint>
          <Trackpoint>
            <Time>2018-04-21T11:26:35.000Z</Time>
            <Position>
              <LatitudeDegrees>43.25992922298610210418701171875</LatitudeDegrees>
              <LongitudeDegrees>-8.2231909967958927154541015625</LongitudeDegrees>
            </Position>
            <AltitudeMeters>123</AltitudeMeters>
            <DistanceMeters>54523.351912686</DistanceMeters>
          </Trackpoint>
          <Trackpoint>
            <Time>2018-04-21T11:26:41.000Z</Time>
            <Position>
              <LatitudeDegrees>43.26007657684385776519775390625</LatitudeDegrees>
              <LongitudeDegrees>-8.2230806909501552581787109375</LongitudeDegrees>
            </Position>
            <AltitudeMeters>123.8000030517578125</AltitudeMeters>
            <DistanceMeters>54542.031370756</DistanceMeters>
          </Trackpoint>
          <Trackpoint>
            <Time>2018-04-21T11:26:42.000Z</Time>
            <Position>
              <LatitudeDegrees>43.2601011358201503753662109375</LatitudeDegrees>
              <LongitudeDegrees>-8.22305914945900440216064453125</LongitudeDegrees>
            </Position>
            <AltitudeMeters>124</AltitudeMeters>
            <DistanceMeters>54545.276223469</DistanceMeters>
          </Trackpoint>
          <Trackpoint>
            <Time>2018-04-21T11:26:46.000Z</Time>
            <Position>
              <LatitudeDegrees>43.26019442640244960784912109375</LatitudeDegrees>
              <LongitudeDegrees>-8.22294079698622226715087890625</LongitudeDegrees>
            </Position>
            <AltitudeMeters>125</AltitudeMeters>
            <DistanceMeters>54559.412545187</DistanceMeters>
          </Trackpoint>
          <Trackpoint>
            <Time>2018-04-21T11:26:49.000Z</Time>
            <Position>
              <LatitudeDegrees>43.26026332564651966094970703125</LatitudeDegrees>
              <LongitudeDegrees>-8.22284792549908161163330078125</LongitudeDegrees>
            </Position>
            <AltitudeMeters>125.8000030517578125</AltitudeMeters>
            <DistanceMeters>54570.158549913</DistanceMeters>
          </Trackpoint>
          <Trackpoint>
            <Time>2018-04-21T11:26:53.000Z</Time>
            <Position>
              <LatitudeDegrees>43.26034404337406158447265625</LatitudeDegrees>
              <LongitudeDegrees>-8.2227246277034282684326171875</LongitudeDegrees>
            </Position>
            <AltitudeMeters>126.1999969482421875</AltitudeMeters>
            <DistanceMeters>54583.597356738</DistanceMeters>
          </Trackpoint>
          <Trackpoint>
            <Time>2018-04-21T11:26:57.000Z</Time>
            <Position>
              <LatitudeDegrees>43.26043062843382358551025390625</LatitudeDegrees>
              <LongitudeDegrees>-8.2225947082042694091796875</LongitudeDegrees>
            </Position>
            <AltitudeMeters>126.8000030517578125</AltitudeMeters>
            <DistanceMeters>54597.872254462</DistanceMeters>
          </Trackpoint>
          <Trackpoint>
            <Time>2018-04-21T11:26:59.000Z</Time>
            <Position>
              <LatitudeDegrees>43.26047555543482303619384765625</LatitudeDegrees>
              <LongitudeDegrees>-8.22253745980560779571533203125</LongitudeDegrees>
            </Position>
            <AltitudeMeters>127.1999969482421875</AltitudeMeters>
            <DistanceMeters>54604.693690082</DistanceMeters>
          </Trackpoint>
          <Trackpoint>
            <Time>2018-04-21T11:27:05.000Z</Time>
            <Position>
              <LatitudeDegrees>43.26061821542680263519287109375</LatitudeDegrees>
              <LongitudeDegrees>-8.22238490916788578033447265625</LongitudeDegrees>
            </Position>
            <AltitudeMeters>127.8000030517578125</AltitudeMeters>
            <DistanceMeters>54624.818723962</DistanceMeters>
          </Trackpoint>
          <Trackpoint>
            <Time>2018-04-21T11:27:08.000Z</Time>
            <Position>
              <LatitudeDegrees>43.2606503181159496307373046875</LatitudeDegrees>
              <LongitudeDegrees>-8.222319446504116058349609375</LongitudeDegrees>
            </Position>
            <AltitudeMeters>128.600006103515625</AltitudeMeters>
            <DistanceMeters>54631.215934795</DistanceMeters>
          </Trackpoint>
          <Trackpoint>
            <Time>2018-04-21T11:27:10.000Z</Time>
            <Position>
              <LatitudeDegrees>43.2606478035449981689453125</LatitudeDegrees>
              <LongitudeDegrees>-8.2222663052380084991455078125</LongitudeDegrees>
            </Position>
            <AltitudeMeters>129.1999969482421875</AltitudeMeters>
            <DistanceMeters>54635.533118805</DistanceMeters>
          </Trackpoint>
          <Trackpoint>
            <Time>2018-04-21T11:27:12.000Z</Time>
            <Position>
              <LatitudeDegrees>43.26064713299274444580078125</LatitudeDegrees>
              <LongitudeDegrees>-8.2222136668860912322998046875</LongitudeDegrees>
            </Position>
            <AltitudeMeters>129.600006103515625</AltitudeMeters>
            <DistanceMeters>54639.799807698</DistanceMeters>
          </Trackpoint>
          <Trackpoint>
            <Time>2018-04-21T11:27:16.000Z</Time>
            <Position>
              <LatitudeDegrees>43.2606325484812259674072265625</LatitudeDegrees>
              <LongitudeDegrees>-8.2221026904881000518798828125</LongitudeDegrees>
            </Position>
            <AltitudeMeters>130.8000030517578125</AltitudeMeters>
            <DistanceMeters>54648.940172421</DistanceMeters>
          </Trackpoint>
          <Trackpoint>
            <Time>2018-04-21T11:27:20.000Z</Time>
            <Position>
              <LatitudeDegrees>43.26061234809458255767822265625</LatitudeDegrees>
              <LongitudeDegrees>-8.22199523448944091796875</LongitudeDegrees>
            </Position>
            <AltitudeMeters>132</AltitudeMeters>
            <DistanceMeters>54657.935142401</DistanceMeters>
          </Trackpoint>
          <Trackpoint>
            <Time>2018-04-21T11:27:22.000Z</Time>
            <Position>
              <LatitudeDegrees>43.260610587894916534423828125</LatitudeDegrees>
              <LongitudeDegrees>-8.22193614207208156585693359375</LongitudeDegrees>
            </Position>
            <AltitudeMeters>132.1999969482421875</AltitudeMeters>
            <DistanceMeters>54662.728107503</DistanceMeters>
          </Trackpoint>
          <Trackpoint>
            <Time>2018-04-21T11:27:26.000Z</Time>
            <Position>
              <LatitudeDegrees>43.26058167032897472381591796875</LatitudeDegrees>
              <LongitudeDegrees>-8.22181125171482563018798828125</LongitudeDegrees>
            </Position>
            <AltitudeMeters>133.399993896484375</AltitudeMeters>
            <DistanceMeters>54673.350717128</DistanceMeters>
          </Trackpoint>
          <Trackpoint>
            <Time>2018-04-21T11:27:30.000Z</Time>
            <Position>
              <LatitudeDegrees>43.260575719177722930908203125</LatitudeDegrees>
              <LongitudeDegrees>-8.22168334387242794036865234375</LongitudeDegrees>
            </Position>
            <AltitudeMeters>134</AltitudeMeters>
            <DistanceMeters>54683.739097347</DistanceMeters>
          </Trackpoint>
          <Trackpoint>
            <Time>2018-04-21T11:27:33.000Z</Time>
            <Position>
              <LatitudeDegrees>43.26056792400777339935302734375</LatitudeDegrees>
              <LongitudeDegrees>-8.221584521234035491943359375</LongitudeDegrees>
            </Position>
            <AltitudeMeters>134.399993896484375</AltitudeMeters>
            <DistanceMeters>54691.795659237</DistanceMeters>
          </Trackpoint>
          <Trackpoint>
            <Time>2018-04-21T11:27:38.000Z</Time>
            <Position>
              <LatitudeDegrees>43.260546885430812835693359375</LatitudeDegrees>
              <LongitudeDegrees>-8.22142199613153934478759765625</LongitudeDegrees>
            </Position>
            <AltitudeMeters>135.8000030517578125</AltitudeMeters>
            <DistanceMeters>54705.175542103</DistanceMeters>
          </Trackpoint>
          <Trackpoint>
            <Time>2018-04-21T11:27:45.000Z</Time>
            <Position>
              <LatitudeDegrees>43.2605279423296451568603515625</LatitudeDegrees>
              <LongitudeDegrees>-8.22118579410016536712646484375</LongitudeDegrees>
            </Position>
            <AltitudeMeters>137</AltitudeMeters>
            <DistanceMeters>54724.436685906</DistanceMeters>
          </Trackpoint>
          <Trackpoint>
            <Time>2018-04-21T11:27:46.000Z</Time>
            <Position>
              <LatitudeDegrees>43.26052299700677394866943359375</LatitudeDegrees>
              <LongitudeDegrees>-8.22116048075258731842041015625</LongitudeDegrees>
            </Position>
            <AltitudeMeters>137</AltitudeMeters>
            <DistanceMeters>54726.561547836</DistanceMeters>
          </Trackpoint>
          <Trackpoint>
            <Time>2018-04-21T11:27:52.000Z</Time>
            <Position>
              <LatitudeDegrees>43.260524086654186248779296875</LatitudeDegrees>
              <LongitudeDegrees>-8.22096233256161212921142578125</LongitudeDegrees>
            </Position>
            <AltitudeMeters>137.8000030517578125</AltitudeMeters>
            <DistanceMeters>54742.622749341</DistanceMeters>
          </Trackpoint>
          <Trackpoint>
            <Time>2018-04-21T11:27:53.000Z</Time>
            <Position>
              <LatitudeDegrees>43.26054294593632221221923828125</LatitudeDegrees>
              <LongitudeDegrees>-8.2209372706711292266845703125</LongitudeDegrees>
            </Position>
            <AltitudeMeters>137.8000030517578125</AltitudeMeters>
            <DistanceMeters>54745.542405513</DistanceMeters>
          </Trackpoint>
          <Trackpoint>
            <Time>2018-04-21T11:27:56.000Z</Time>
            <Position>
              <LatitudeDegrees>43.26064017601311206817626953125</LatitudeDegrees>
              <LongitudeDegrees>-8.22090198285877704620361328125</LongitudeDegrees>
            </Position>
            <AltitudeMeters>137.399993896484375</AltitudeMeters>
            <DistanceMeters>54756.735810297</DistanceMeters>
          </Trackpoint>
          <Trackpoint>
            <Time>2018-04-21T11:28:00.000Z</Time>
            <Position>
              <LatitudeDegrees>43.260841928422451019287109375</LatitudeDegrees>
              <LongitudeDegrees>-8.22086996398866176605224609375</LongitudeDegrees>
            </Position>
            <AltitudeMeters>136.600006103515625</AltitudeMeters>
            <DistanceMeters>54779.340586466</DistanceMeters>
          </Trackpoint>
          <Trackpoint>
            <Time>2018-04-21T11:28:03.000Z</Time>
            <Position>
              <LatitudeDegrees>43.2610442675650119781494140625</LatitudeDegrees>
              <LongitudeDegrees>-8.22082989849150180816650390625</LongitudeDegrees>
            </Position>
            <AltitudeMeters>135.8000030517578125</AltitudeMeters>
            <DistanceMeters>54802.094276339</DistanceMeters>
          </Trackpoint>
          <Trackpoint>
            <Time>2018-04-21T11:28:06.000Z</Time>
            <Position>
              <LatitudeDegrees>43.26127300970256328582763671875</LatitudeDegrees>
              <LongitudeDegrees>-8.220787234604358673095703125</LongitudeDegrees>
            </Position>
            <AltitudeMeters>134.600006103515625</AltitudeMeters>
            <DistanceMeters>54827.787363121</DistanceMeters>
          </Trackpoint>
          <Trackpoint>
            <Time>2018-04-21T11:28:08.000Z</Time>
            <Position>
              <LatitudeDegrees>43.26139505021274089813232421875</LatitudeDegrees>
              <LongitudeDegrees>-8.22076435200870037078857421875</LongitudeDegrees>
            </Position>
            <AltitudeMeters>133.600006103515625</AltitudeMeters>
            <DistanceMeters>54841.496592896</DistanceMeters>
          </Trackpoint>
          <Trackpoint>
            <Time>2018-04-21T11:28:09.000Z</Time>
            <Position>
              <LatitudeDegrees>43.26145104132592678070068359375</LatitudeDegrees>
              <LongitudeDegrees>-8.2207481749355792999267578125</LongitudeDegrees>
            </Position>
            <AltitudeMeters>132.399993896484375</AltitudeMeters>
            <DistanceMeters>54847.86480091</DistanceMeters>
          </Trackpoint>
          <Trackpoint>
            <Time>2018-04-21T11:28:10.000Z</Time>
            <Position>
              <LatitudeDegrees>43.2615139894187450408935546875</LatitudeDegrees>
              <LongitudeDegrees>-8.22073384188115596771240234375</LongitudeDegrees>
            </Position>
            <AltitudeMeters>132</AltitudeMeters>
            <DistanceMeters>54854.967054568</DistanceMeters>
          </Trackpoint>
          <Trackpoint>
            <Time>2018-04-21T11:28:12.000Z</Time>
            <Position>
              <LatitudeDegrees>43.26165287755429744720458984375</LatitudeDegrees>
              <LongitudeDegrees>-8.2207092829048633575439453125</LongitudeDegrees>
            </Position>
            <AltitudeMeters>131.600006103515625</AltitudeMeters>
            <DistanceMeters>54870.553173921</DistanceMeters>
          </Trackpoint>
          <Trackpoint>
            <Time>2018-04-21T11:28:13.000Z</Time>
            <Position>
              <LatitudeDegrees>43.261727727949619293212890625</LatitudeDegrees>
              <LongitudeDegrees>-8.22069696150720119476318359375</LongitudeDegrees>
            </Position>
            <AltitudeMeters>131.399993896484375</AltitudeMeters>
            <DistanceMeters>54878.943553886</DistanceMeters>
          </Trackpoint>
          <Trackpoint>
            <Time>2018-04-21T11:28:15.000Z</Time>
            <Position>
              <LatitudeDegrees>43.26187265105545520782470703125</LatitudeDegrees>
              <LongitudeDegrees>-8.22067600674927234649658203125</LongitudeDegrees>
            </Position>
            <AltitudeMeters>130</AltitudeMeters>
            <DistanceMeters>54895.162807474</DistanceMeters>
          </Trackpoint>
          <Trackpoint>
            <Time>2018-04-21T11:28:21.000Z</Time>
            <Position>
              <LatitudeDegrees>43.26228906400501728057861328125</LatitudeDegrees>
              <LongitudeDegrees>-8.22056771256029605865478515625</LongitudeDegrees>
            </Position>
            <AltitudeMeters>129</AltitudeMeters>
            <DistanceMeters>54942.334263748</DistanceMeters>
          </Trackpoint>
          <Trackpoint>
            <Time>2018-04-21T11:28:22.000Z</Time>
            <Position>
              <LatitudeDegrees>43.26235461048781871795654296875</LatitudeDegrees>
              <LongitudeDegrees>-8.22053535841405391693115234375</LongitudeDegrees>
            </Position>
            <AltitudeMeters>128.8000030517578125</AltitudeMeters>
            <DistanceMeters>54950.086952882</DistanceMeters>
          </Trackpoint>
          <Trackpoint>
            <Time>2018-04-21T11:28:23.000Z</Time>
            <Position>
              <LatitudeDegrees>43.26240104623138904571533203125</LatitudeDegrees>
              <LongitudeDegrees>-8.2204712368547916412353515625</LongitudeDegrees>
            </Position>
            <AltitudeMeters>128.399993896484375</AltitudeMeters>
            <DistanceMeters>54957.415724586</DistanceMeters>
          </Trackpoint>
          <Trackpoint>
            <Time>2018-04-21T11:28:25.000Z</Time>
            <Position>
              <LatitudeDegrees>43.26249919831752777099609375</LatitudeDegrees>
              <LongitudeDegrees>-8.22034156881272792816162109375</LongitudeDegrees>
            </Position>
            <AltitudeMeters>128.1999969482421875</AltitudeMeters>
            <DistanceMeters>54972.574793995</DistanceMeters>
          </Trackpoint>
          <Trackpoint>
            <Time>2018-04-21T11:28:28.000Z</Time>
            <Position>
              <LatitudeDegrees>43.26262794435024261474609375</LatitudeDegrees>
              <LongitudeDegrees>-8.22014073841273784637451171875</LongitudeDegrees>
            </Position>
            <AltitudeMeters>127.8000030517578125</AltitudeMeters>
            <DistanceMeters>54994.261297663</DistanceMeters>
          </Trackpoint>
          <Trackpoint>
            <Time>2018-04-21T11:28:30.000Z</Time>
            <Position>
              <LatitudeDegrees>43.262695334851741790771484375</LatitudeDegrees>
              <LongitudeDegrees>-8.2199904508888721466064453125</LongitudeDegrees>
            </Position>
            <AltitudeMeters>127.59999847412109375</AltitudeMeters>
            <DistanceMeters>55008.566842827</DistanceMeters>
          </Trackpoint>
          <Trackpoint>
            <Time>2018-04-21T11:28:31.000Z</Time>
            <Position>
              <LatitudeDegrees>43.26272458769381046295166015625</LatitudeDegrees>
              <LongitudeDegrees>-8.2199183665215969085693359375</LongitudeDegrees>
            </Position>
            <AltitudeMeters>127.59999847412109375</AltitudeMeters>
            <DistanceMeters>55015.255265564</DistanceMeters>
          </Trackpoint>
          <Trackpoint>
            <Time>2018-04-21T11:28:32.000Z</Time>
            <Position>
              <LatitudeDegrees>43.26275878585875034332275390625</LatitudeDegrees>
              <LongitudeDegrees>-8.2198400795459747314453125</LongitudeDegrees>
            </Position>
            <AltitudeMeters>127.59999847412109375</AltitudeMeters>
            <DistanceMeters>55022.655156344</DistanceMeters>
          </Trackpoint>
          <Trackpoint>
            <Time>2018-04-21T11:28:35.000Z</Time>
            <Position>
              <LatitudeDegrees>43.26288099400699138641357421875</LatitudeDegrees>
              <LongitudeDegrees>-8.21962893940508365631103515625</LongitudeDegrees>
            </Position>
            <AltitudeMeters>126.8000030517578125</AltitudeMeters>
            <DistanceMeters>55044.515431855</DistanceMeters>
          </Trackpoint>
          <Trackpoint>
            <Time>2018-04-21T11:28:36.000Z</Time>
            <Position>
              <LatitudeDegrees>43.26293371617794036865234375</LatitudeDegrees>
              <LongitudeDegrees>-8.21955509483814239501953125</LongitudeDegrees>
            </Position>
            <AltitudeMeters>126.8000030517578125</AltitudeMeters>
            <DistanceMeters>55052.897197464</DistanceMeters>
          </Trackpoint>
          <Trackpoint>
            <Time>2018-04-21T11:28:38.000Z</Time>
            <Position>
              <LatitudeDegrees>43.26304293237626552581787109375</LatitudeDegrees>
              <LongitudeDegrees>-8.21940363384783267974853515625</LongitudeDegrees>
            </Position>
            <AltitudeMeters>126.40000152587890625</AltitudeMeters>
            <DistanceMeters>55070.173514106</DistanceMeters>
          </Trackpoint>
          <Trackpoint>
            <Time>2018-04-21T11:28:39.000Z</Time>
            <Position>
              <LatitudeDegrees>43.26310403645038604736328125</LatitudeDegrees>
              <LongitudeDegrees>-8.219336159527301788330078125</LongitudeDegrees>
            </Position>
            <AltitudeMeters>125.40000152587890625</AltitudeMeters>
            <DistanceMeters>55078.900464589</DistanceMeters>
          </Trackpoint>
          <Trackpoint>
            <Time>2018-04-21T11:28:41.000Z</Time>
            <Position>
              <LatitudeDegrees>43.2632346265017986297607421875</LatitudeDegrees>
              <LongitudeDegrees>-8.219208084046840667724609375</LongitudeDegrees>
            </Position>
            <AltitudeMeters>125.1999969482421875</AltitudeMeters>
            <DistanceMeters>55096.761442743</DistanceMeters>
          </Trackpoint>
          <Trackpoint>
            <Time>2018-04-21T11:28:45.000Z</Time>
            <Position>
              <LatitudeDegrees>43.26355204917490482330322265625</LatitudeDegrees>
              <LongitudeDegrees>-8.21897682733833789825439453125</LongitudeDegrees>
            </Position>
            <AltitudeMeters>124</AltitudeMeters>
            <DistanceMeters>55136.755386043</DistanceMeters>
          </Trackpoint>
          <Trackpoint>
            <Time>2018-04-21T11:28:46.000Z</Time>
            <Position>
              <LatitudeDegrees>43.263632766902446746826171875</LatitudeDegrees>
              <LongitudeDegrees>-8.21891664527356624603271484375</LongitudeDegrees>
            </Position>
            <AltitudeMeters>123</AltitudeMeters>
            <DistanceMeters>55146.978158401</DistanceMeters>
          </Trackpoint>
          <Trackpoint>
            <Time>2018-04-21T11:28:47.000Z</Time>
            <Position>
              <LatitudeDegrees>43.2637164182960987091064453125</LatitudeDegrees>
              <LongitudeDegrees>-8.21885596029460430145263671875</LongitudeDegrees>
            </Position>
            <AltitudeMeters>122.1999969482421875</AltitudeMeters>
            <DistanceMeters>55157.507701533</DistanceMeters>
          </Trackpoint>
          <Trackpoint>
            <Time>2018-04-21T11:28:49.000Z</Time>
            <Position>
              <LatitudeDegrees>43.2638864032924175262451171875</LatitudeDegrees>
              <LongitudeDegrees>-8.21871078573167324066162109375</LongitudeDegrees>
            </Position>
            <AltitudeMeters>121</AltitudeMeters>
            <DistanceMeters>55179.787768011</DistanceMeters>
          </Trackpoint>
          <Trackpoint>
            <Time>2018-04-21T11:28:51.000Z</Time>
            <Position>
              <LatitudeDegrees>43.26406200416386127471923828125</LatitudeDegrees>
              <LongitudeDegrees>-8.2185370288789272308349609375</LongitudeDegrees>
            </Position>
            <AltitudeMeters>120</AltitudeMeters>
            <DistanceMeters>55203.877930378</DistanceMeters>
          </Trackpoint>
          <Trackpoint>
            <Time>2018-04-21T11:28:53.000Z</Time>
            <Position>
              <LatitudeDegrees>43.26425126753747463226318359375</LatitudeDegrees>
              <LongitudeDegrees>-8.218368552625179290771484375</LongitudeDegrees>
            </Position>
            <AltitudeMeters>118.40000152587890625</AltitudeMeters>
            <DistanceMeters>55228.98225461</DistanceMeters>
          </Trackpoint>
          <Trackpoint>
            <Time>2018-04-21T11:28:55.000Z</Time>
            <Position>
              <LatitudeDegrees>43.2644516788423061370849609375</LatitudeDegrees>
              <LongitudeDegrees>-8.21820921264588832855224609375</LongitudeDegrees>
            </Position>
            <AltitudeMeters>116.59999847412109375</AltitudeMeters>
            <DistanceMeters>55254.757276512</DistanceMeters>
          </Trackpoint>
          <Trackpoint>
            <Time>2018-04-21T11:28:57.000Z</Time>
            <Position>
              <LatitudeDegrees>43.26466508209705352783203125</LatitudeDegrees>
              <LongitudeDegrees>-8.21805708110332489013671875</LongitudeDegrees>
            </Position>
            <AltitudeMeters>115.40000152587890625</AltitudeMeters>
            <DistanceMeters>55281.519404288</DistanceMeters>
          </Trackpoint>
          <Trackpoint>
            <Time>2018-04-21T11:28:59.000Z</Time>
            <Position>
              <LatitudeDegrees>43.26487806625664234161376953125</LatitudeDegrees>
              <LongitudeDegrees>-8.21791014634072780609130859375</LongitudeDegrees>
            </Position>
            <AltitudeMeters>113.8000030517578125</AltitudeMeters>
            <DistanceMeters>55308.048371435</DistanceMeters>
          </Trackpoint>
          <Trackpoint>
            <Time>2018-04-21T11:29:01.000Z</Time>
            <Position>
              <LatitudeDegrees>43.26508660800755023956298828125</LatitudeDegrees>
              <LongitudeDegrees>-8.217798583209514617919921875</LongitudeDegrees>
            </Position>
            <AltitudeMeters>113</AltitudeMeters>
            <DistanceMeters>55332.958424284</DistanceMeters>
          </Trackpoint>
          <Trackpoint>
            <Time>2018-04-21T11:29:02.000Z</Time>
            <Position>
              <LatitudeDegrees>43.2651674933731555938720703125</LatitudeDegrees>
              <LongitudeDegrees>-8.21776111610233783721923828125</LongitudeDegrees>
            </Position>
            <AltitudeMeters>112.8000030517578125</AltitudeMeters>
            <DistanceMeters>55342.459194996</DistanceMeters>
          </Trackpoint>
          <Trackpoint>
            <Time>2018-04-21T11:29:03.000Z</Time>
            <Position>
              <LatitudeDegrees>43.265233375132083892822265625</LatitudeDegrees>
              <LongitudeDegrees>-8.21772515773773193359375</LongitudeDegrees>
            </Position>
            <AltitudeMeters>111.59999847412109375</AltitudeMeters>
            <DistanceMeters>55350.349846242</DistanceMeters>
          </Trackpoint>
          <Trackpoint>
            <Time>2018-04-21T11:29:04.000Z</Time>
            <Position>
              <LatitudeDegrees>43.26529615558683872222900390625</LatitudeDegrees>
              <LongitudeDegrees>-8.21767226792871952056884765625</LongitudeDegrees>
            </Position>
            <AltitudeMeters>110.8000030517578125</AltitudeMeters>
            <DistanceMeters>55358.547518405</DistanceMeters>
          </Trackpoint>
          <Trackpoint>
            <Time>2018-04-21T11:29:05.000Z</Time>
            <Position>
              <LatitudeDegrees>43.26534611172974109649658203125</LatitudeDegrees>
              <LongitudeDegrees>-8.2176009379327297210693359375</LongitudeDegrees>
            </Position>
            <AltitudeMeters>110</AltitudeMeters>
            <DistanceMeters>55366.56925916</DistanceMeters>
          </Trackpoint>
          <Trackpoint>
            <Time>2018-04-21T11:29:07.000Z</Time>
            <Position>
              <LatitudeDegrees>43.26546563766896724700927734375</LatitudeDegrees>
              <LongitudeDegrees>-8.2175191305577754974365234375</LongitudeDegrees>
            </Position>
            <AltitudeMeters>110.59999847412109375</AltitudeMeters>
            <DistanceMeters>55381.43296833</DistanceMeters>
          </Trackpoint>
          <Trackpoint>
            <Time>2018-04-21T11:29:11.000Z</Time>
            <Position>
              <LatitudeDegrees>43.2657391391694545745849609375</LatitudeDegrees>
              <LongitudeDegrees>-8.217491470277309417724609375</LongitudeDegrees>
            </Position>
            <AltitudeMeters>109.8000030517578125</AltitudeMeters>
            <DistanceMeters>55411.956519355</DistanceMeters>
          </Trackpoint>
          <Trackpoint>
            <Time>2018-04-21T11:29:13.000Z</Time>
            <Position>
              <LatitudeDegrees>43.2658754289150238037109375</LatitudeDegrees>
              <LongitudeDegrees>-8.2174386642873287200927734375</LongitudeDegrees>
            </Position>
            <AltitudeMeters>109.40000152587890625</AltitudeMeters>
            <DistanceMeters>55427.717782089</DistanceMeters>
          </Trackpoint>
          <Trackpoint>
            <Time>2018-04-21T11:29:17.000Z</Time>
            <Position>
              <LatitudeDegrees>43.26613736338913440704345703125</LatitudeDegrees>
              <LongitudeDegrees>-8.217348642647266387939453125</LongitudeDegrees>
            </Position>
            <AltitudeMeters>109.1999969482421875</AltitudeMeters>
            <DistanceMeters>55457.770572072</DistanceMeters>
          </Trackpoint>
          <Trackpoint>
            <Time>2018-04-21T11:29:20.000Z</Time>
            <Position>
              <LatitudeDegrees>43.26633274555206298828125</LatitudeDegrees>
              <LongitudeDegrees>-8.2172596268355846405029296875</LongitudeDegrees>
            </Position>
            <AltitudeMeters>108.8000030517578125</AltitudeMeters>
            <DistanceMeters>55480.682456848</DistanceMeters>
          </Trackpoint>
          <Trackpoint>
            <Time>2018-04-21T11:29:21.000Z</Time>
            <Position>
              <LatitudeDegrees>43.26639351435005664825439453125</LatitudeDegrees>
              <LongitudeDegrees>-8.21720975451171398162841796875</LongitudeDegrees>
            </Position>
            <AltitudeMeters>109</AltitudeMeters>
            <DistanceMeters>55488.562228776</DistanceMeters>
          </Trackpoint>
          <Trackpoint>
            <Time>2018-04-21T11:29:23.000Z</Time>
            <Position>
              <LatitudeDegrees>43.2665189914405345916748046875</LatitudeDegrees>
              <LongitudeDegrees>-8.21712241508066654205322265625</LongitudeDegrees>
            </Position>
            <AltitudeMeters>109.1999969482421875</AltitudeMeters>
            <DistanceMeters>55504.219736412</DistanceMeters>
          </Trackpoint>
          <Trackpoint>
            <Time>2018-04-21T11:29:27.000Z</Time>
            <Position>
              <LatitudeDegrees>43.26677824370563030242919921875</LatitudeDegrees>
              <LongitudeDegrees>-8.21694664657115936279296875</LongitudeDegrees>
            </Position>
            <AltitudeMeters>107.8000030517578125</AltitudeMeters>
            <DistanceMeters>55536.399996924</DistanceMeters>
          </Trackpoint>
          <Trackpoint>
            <Time>2018-04-21T11:29:29.000Z</Time>
            <Position>
              <LatitudeDegrees>43.26692325063049793243408203125</LatitudeDegrees>
              <LongitudeDegrees>-8.21686073206365108489990234375</LongitudeDegrees>
            </Position>
            <AltitudeMeters>106.59999847412109375</AltitudeMeters>
            <DistanceMeters>55553.977627469</DistanceMeters>
          </Trackpoint>
          <Trackpoint>
            <Time>2018-04-21T11:29:31.000Z</Time>
            <Position>
              <LatitudeDegrees>43.267081417143344879150390625</LatitudeDegrees>
              <LongitudeDegrees>-8.21674883365631103515625</LongitudeDegrees>
            </Position>
            <AltitudeMeters>104.59999847412109375</AltitudeMeters>
            <DistanceMeters>55573.780611078</DistanceMeters>
          </Trackpoint>
          <Trackpoint>
            <Time>2018-04-21T11:29:32.000Z</Time>
            <Position>
              <LatitudeDegrees>43.26716666109859943389892578125</LatitudeDegrees>
              <LongitudeDegrees>-8.21667968295514583587646484375</LongitudeDegrees>
            </Position>
            <AltitudeMeters>103</AltitudeMeters>
            <DistanceMeters>55584.799613205</DistanceMeters>
          </Trackpoint>
          <Trackpoint>
            <Time>2018-04-21T11:29:33.000Z</Time>
            <Position>
              <LatitudeDegrees>43.26725877821445465087890625</LatitudeDegrees>
              <LongitudeDegrees>-8.21659259498119354248046875</LongitudeDegrees>
            </Position>
            <AltitudeMeters>101.59999847412109375</AltitudeMeters>
            <DistanceMeters>55597.247024647</DistanceMeters>
          </Trackpoint>
          <Trackpoint>
            <Time>2018-04-21T11:29:34.000Z</Time>
            <Position>
              <LatitudeDegrees>43.2673548348248004913330078125</LatitudeDegrees>
              <LongitudeDegrees>-8.21649494580924510955810546875</LongitudeDegrees>
            </Position>
            <AltitudeMeters>99.59999847412109375</AltitudeMeters>
            <DistanceMeters>55610.548728217</DistanceMeters>
          </Trackpoint>
          <Trackpoint>
            <Time>2018-04-21T11:29:35.000Z</Time>
            <Position>
              <LatitudeDegrees>43.26747394166886806488037109375</LatitudeDegrees>
              <LongitudeDegrees>-8.2163835503160953521728515625</LongitudeDegrees>
            </Position>
            <AltitudeMeters>98.1999969482421875</AltitudeMeters>
            <DistanceMeters>55626.587706293</DistanceMeters>
          </Trackpoint>
          <Trackpoint>
            <Time>2018-04-21T11:29:36.000Z</Time>
            <Position>
              <LatitudeDegrees>43.2675851695239543914794921875</LatitudeDegrees>
              <LongitudeDegrees>-8.21627332828938961029052734375</LongitudeDegrees>
            </Position>
            <AltitudeMeters>97.1999969482421875</AltitudeMeters>
            <DistanceMeters>55641.854214506</DistanceMeters>
          </Trackpoint>
          <Trackpoint>
            <Time>2018-04-21T11:29:37.000Z</Time>
            <Position>
              <LatitudeDegrees>43.26769120059907436370849609375</LatitudeDegrees>
              <LongitudeDegrees>-8.2161679677665233612060546875</LongitudeDegrees>
            </Position>
            <AltitudeMeters>95.1999969482421875</AltitudeMeters>
            <DistanceMeters>55656.420914073</DistanceMeters>
          </Trackpoint>
          <Trackpoint>
            <Time>2018-04-21T11:29:38.000Z</Time>
            <Position>
              <LatitudeDegrees>43.2677933759987354278564453125</LatitudeDegrees>
              <LongitudeDegrees>-8.2160623557865619659423828125</LongitudeDegrees>
            </Position>
            <AltitudeMeters>93.40000152587890625</AltitudeMeters>
            <DistanceMeters>55670.653999998</DistanceMeters>
          </Trackpoint>
          <Trackpoint>
            <Time>2018-04-21T11:29:39.000Z</Time>
            <Position>
              <LatitudeDegrees>43.26791231520473957061767578125</LatitudeDegrees>
              <LongitudeDegrees>-8.21595733053982257843017578125</LongitudeDegrees>
            </Position>
            <AltitudeMeters>91.40000152587890625</AltitudeMeters>
            <DistanceMeters>55686.392328907</DistanceMeters>
          </Trackpoint>
          <Trackpoint>
            <Time>2018-04-21T11:29:40.000Z</Time>
            <Position>
              <LatitudeDegrees>43.26802396215498447418212890625</LatitudeDegrees>
              <LongitudeDegrees>-8.215858675539493560791015625</LongitudeDegrees>
            </Position>
            <AltitudeMeters>89.1999969482421875</AltitudeMeters>
            <DistanceMeters>55701.168295484</DistanceMeters>
          </Trackpoint>
          <Trackpoint>
            <Time>2018-04-21T11:29:41.000Z</Time>
            <Position>
              <LatitudeDegrees>43.2681256346404552459716796875</LatitudeDegrees>
              <LongitudeDegrees>-8.21575214155018329620361328125</LongitudeDegrees>
            </Position>
            <AltitudeMeters>88.1999969482421875</AltitudeMeters>
            <DistanceMeters>55715.402015837</DistanceMeters>
          </Trackpoint>
          <Trackpoint>
            <Time>2018-04-21T11:29:42.000Z</Time>
            <Position>
              <LatitudeDegrees>43.2682168297469615936279296875</LatitudeDegrees>
              <LongitudeDegrees>-8.21563814766705036163330078125</LongitudeDegrees>
            </Position>
            <AltitudeMeters>86.8000030517578125</AltitudeMeters>
            <DistanceMeters>55729.12737393</DistanceMeters>
          </Trackpoint>
          <Trackpoint>
            <Time>2018-04-21T11:29:43.000Z</Time>
            <Position>
              <LatitudeDegrees>43.2682936079800128936767578125</LatitudeDegrees>
              <LongitudeDegrees>-8.215519376099109649658203125</LongitudeDegrees>
            </Position>
            <AltitudeMeters>85.40000152587890625</AltitudeMeters>
            <DistanceMeters>55741.999197522</DistanceMeters>
          </Trackpoint>
          <Trackpoint>
            <Time>2018-04-21T11:29:44.000Z</Time>
            <Position>
              <LatitudeDegrees>43.26835689134895801544189453125</LatitudeDegrees>
              <LongitudeDegrees>-8.215398006141185760498046875</LongitudeDegrees>
            </Position>
            <AltitudeMeters>84</AltitudeMeters>
            <DistanceMeters>55754.097109698</DistanceMeters>
          </Trackpoint>
          <Trackpoint>
            <Time>2018-04-21T11:29:45.000Z</Time>
            <Position>
              <LatitudeDegrees>43.26840835623443126678466796875</LatitudeDegrees>
              <LongitudeDegrees>-8.21527537889778614044189453125</LongitudeDegrees>
            </Position>
            <AltitudeMeters>82.59999847412109375</AltitudeMeters>
            <DistanceMeters>55765.568215745</DistanceMeters>
          </Trackpoint>
          <Trackpoint>
            <Time>2018-04-21T11:29:46.000Z</Time>
            <Position>
              <LatitudeDegrees>43.268447332084178924560546875</LatitudeDegrees>
              <LongitudeDegrees>-8.21515585295855998992919921875</LongitudeDegrees>
            </Position>
            <AltitudeMeters>81.1999969482421875</AltitudeMeters>
            <DistanceMeters>55776.181895768</DistanceMeters>
          </Trackpoint>
          <Trackpoint>
            <Time>2018-04-21T11:29:48.000Z</Time>
            <Position>
              <LatitudeDegrees>43.2685259543359279632568359375</LatitudeDegrees>
              <LongitudeDegrees>-8.214911855757236480712890625</LongitudeDegrees>
            </Position>
            <AltitudeMeters>79</AltitudeMeters>
            <DistanceMeters>55797.806268096</DistanceMeters>
          </Trackpoint>
          <Trackpoint>
            <Time>2018-04-21T11:29:49.000Z</Time>
            <Position>
              <LatitudeDegrees>43.268578089773654937744140625</LatitudeDegrees>
              <LongitudeDegrees>-8.21479643695056438446044921875</LongitudeDegrees>
            </Position>
            <AltitudeMeters>78</AltitudeMeters>
            <DistanceMeters>55808.813791238</DistanceMeters>
          </Trackpoint>
          <Trackpoint>
            <Time>2018-04-21T11:29:50.000Z</Time>
            <Position>
              <LatitudeDegrees>43.268634416162967681884765625</LatitudeDegrees>
              <LongitudeDegrees>-8.21468713693320751190185546875</LongitudeDegrees>
            </Position>
            <AltitudeMeters>77</AltitudeMeters>
            <DistanceMeters>55819.665991797</DistanceMeters>
          </Trackpoint>
          <Trackpoint>
            <Time>2018-04-21T11:29:51.000Z</Time>
            <Position>
              <LatitudeDegrees>43.26871949248015880584716796875</LatitudeDegrees>
              <LongitudeDegrees>-8.2146055810153484344482421875</LongitudeDegrees>
            </Position>
            <AltitudeMeters>76.40000152587890625</AltitudeMeters>
            <DistanceMeters>55831.213985949</DistanceMeters>
          </Trackpoint>
          <Trackpoint>
            <Time>2018-04-21T11:29:53.000Z</Time>
            <Position>
              <LatitudeDegrees>43.2688974402844905853271484375</LatitudeDegrees>
              <LongitudeDegrees>-8.2144406251609325408935546875</LongitudeDegrees>
            </Position>
            <AltitudeMeters>75.40000152587890625</AltitudeMeters>
            <DistanceMeters>55855.109567628</DistanceMeters>
          </Trackpoint>
          <Trackpoint>
            <Time>2018-04-21T11:29:55.000Z</Time>
            <Position>
              <LatitudeDegrees>43.2690811716020107269287109375</LatitudeDegrees>
              <LongitudeDegrees>-8.21428245864808559417724609375</LongitudeDegrees>
            </Position>
            <AltitudeMeters>73.40000152587890625</AltitudeMeters>
            <DistanceMeters>55879.244482401</DistanceMeters>
          </Trackpoint>
          <Trackpoint>
            <Time>2018-04-21T11:29:56.000Z</Time>
            <Position>
              <LatitudeDegrees>43.2691767252981662750244140625</LatitudeDegrees>
              <LongitudeDegrees>-8.21422018110752105712890625</LongitudeDegrees>
            </Position>
            <AltitudeMeters>72.8000030517578125</AltitudeMeters>
            <DistanceMeters>55891.016294203</DistanceMeters>
          </Trackpoint>
          <Trackpoint>
            <Time>2018-04-21T11:29:57.000Z</Time>
            <Position>
              <LatitudeDegrees>43.269264400005340576171875</LatitudeDegrees>
              <LongitudeDegrees>-8.21416326798498630523681640625</LongitudeDegrees>
            </Position>
            <AltitudeMeters>71.59999847412109375</AltitudeMeters>
            <DistanceMeters>55901.81009086</DistanceMeters>
          </Trackpoint>
          <Trackpoint>
            <Time>2018-04-21T11:29:59.000Z</Time>
            <Position>
              <LatitudeDegrees>43.2694546692073345184326171875</LatitudeDegrees>
              <LongitudeDegrees>-8.21406603790819644927978515625</LongitudeDegrees>
            </Position>
            <AltitudeMeters>70.59999847412109375</AltitudeMeters>
            <DistanceMeters>55924.406076838</DistanceMeters>
          </Trackpoint>
          <Trackpoint>
            <Time>2018-04-21T11:30:01.000Z</Time>
            <Position>
              <LatitudeDegrees>43.26959523372352123260498046875</LatitudeDegrees>
              <LongitudeDegrees>-8.2139407284557819366455078125</LongitudeDegrees>
            </Position>
            <AltitudeMeters>68.59999847412109375</AltitudeMeters>
            <DistanceMeters>55943.05820152</DistanceMeters>
          </Trackpoint>
          <Trackpoint>
            <Time>2018-04-21T11:30:03.000Z</Time>
            <Position>
              <LatitudeDegrees>43.26978885568678379058837890625</LatitudeDegrees>
              <LongitudeDegrees>-8.213836960494518280029296875</LongitudeDegrees>
            </Position>
            <AltitudeMeters>67.1999969482421875</AltitudeMeters>
            <DistanceMeters>55966.191498308</DistanceMeters>
          </Trackpoint>
          <Trackpoint>
            <Time>2018-04-21T11:30:04.000Z</Time>
            <Position>
              <LatitudeDegrees>43.26990150846540927886962890625</LatitudeDegrees>
              <LongitudeDegrees>-8.21380603127181529998779296875</LongitudeDegrees>
            </Position>
            <AltitudeMeters>66</AltitudeMeters>
            <DistanceMeters>55978.978154013</DistanceMeters>
          </Trackpoint>
          <Trackpoint>
            <Time>2018-04-21T11:30:05.000Z</Time>
            <Position>
              <LatitudeDegrees>43.27001600526273250579833984375</LatitudeDegrees>
              <LongitudeDegrees>-8.21378071792423725128173828125</LongitudeDegrees>
            </Position>
            <AltitudeMeters>64.8000030517578125</AltitudeMeters>
            <DistanceMeters>55991.885706468</DistanceMeters>
          </Trackpoint>
          <Trackpoint>
            <Time>2018-04-21T11:30:06.000Z</Time>
            <Position>
              <LatitudeDegrees>43.2701376266777515411376953125</LatitudeDegrees>
              <LongitudeDegrees>-8.21376713924109935760498046875</LongitudeDegrees>
            </Position>
            <AltitudeMeters>63.200000762939453125</AltitudeMeters>
            <DistanceMeters>56005.466882464</DistanceMeters>
          </Trackpoint>
          <Trackpoint>
            <Time>2018-04-21T11:30:07.000Z</Time>
            <Position>
              <LatitudeDegrees>43.27026293613016605377197265625</LatitudeDegrees>
              <LongitudeDegrees>-8.21376579813659191131591796875</LongitudeDegrees>
            </Position>
            <AltitudeMeters>61.59999847412109375</AltitudeMeters>
            <DistanceMeters>56019.414460635</DistanceMeters>
          </Trackpoint>
          <Trackpoint>
            <Time>2018-04-21T11:30:08.000Z</Time>
            <Position>
              <LatitudeDegrees>43.2703907601535320281982421875</LatitudeDegrees>
              <LongitudeDegrees>-8.213781304657459259033203125</LongitudeDegrees>
            </Position>
            <AltitudeMeters>60.59999847412109375</AltitudeMeters>
            <DistanceMeters>56033.696947354</DistanceMeters>
          </Trackpoint>
          <Trackpoint>
            <Time>2018-04-21T11:30:09.000Z</Time>
            <Position>
              <LatitudeDegrees>43.2705223560333251953125</LatitudeDegrees>
              <LongitudeDegrees>-8.213793374598026275634765625</LongitudeDegrees>
            </Position>
            <AltitudeMeters>59.200000762939453125</AltitudeMeters>
            <DistanceMeters>56048.376652537</DistanceMeters>
          </Trackpoint>
          <Trackpoint>
            <Time>2018-04-21T11:30:10.000Z</Time>
            <Position>
              <LatitudeDegrees>43.2706623338162899017333984375</LatitudeDegrees>
              <LongitudeDegrees>-8.21378231048583984375</LongitudeDegrees>
            </Position>
            <AltitudeMeters>58.200000762939453125</AltitudeMeters>
            <DistanceMeters>56063.982457921</DistanceMeters>
          </Trackpoint>
          <Trackpoint>
            <Time>2018-04-21T11:30:11.000Z</Time>
            <Position>
              <LatitudeDegrees>43.2708075083792209625244140625</LatitudeDegrees>
              <LongitudeDegrees>-8.21375272236764430999755859375</LongitudeDegrees>
            </Position>
            <AltitudeMeters>55.200000762939453125</AltitudeMeters>
            <DistanceMeters>56080.317657917</DistanceMeters>
          </Trackpoint>
          <Trackpoint>
            <Time>2018-04-21T11:30:12.000Z</Time>
            <Position>
              <LatitudeDegrees>43.2709523476660251617431640625</LatitudeDegrees>
              <LongitudeDegrees>-8.21370427496731281280517578125</LongitudeDegrees>
            </Position>
            <AltitudeMeters>53</AltitudeMeters>
            <DistanceMeters>56096.909822952</DistanceMeters>
          </Trackpoint>
          <Trackpoint>
            <Time>2018-04-21T11:30:13.000Z</Time>
            <Position>
              <LatitudeDegrees>43.27109307982027530670166015625</LatitudeDegrees>
              <LongitudeDegrees>-8.213637135922908782958984375</LongitudeDegrees>
            </Position>
            <AltitudeMeters>51.200000762939453125</AltitudeMeters>
            <DistanceMeters>56113.491371962</DistanceMeters>
          </Trackpoint>
          <Trackpoint>
            <Time>2018-04-21T11:30:15.000Z</Time>
            <Position>
              <LatitudeDegrees>43.27136565931141376495361328125</LatitudeDegrees>
              <LongitudeDegrees>-8.2134995050728321075439453125</LongitudeDegrees>
            </Position>
            <AltitudeMeters>49.40000152587890625</AltitudeMeters>
            <DistanceMeters>56145.815264442</DistanceMeters>
          </Trackpoint>
          <Trackpoint>
            <Time>2018-04-21T11:30:16.000Z</Time>
            <Position>
              <LatitudeDegrees>43.27149926684796810150146484375</LatitudeDegrees>
              <LongitudeDegrees>-8.21342968381941318511962890625</LongitudeDegrees>
            </Position>
            <AltitudeMeters>48.200000762939453125</AltitudeMeters>
            <DistanceMeters>56161.72649391</DistanceMeters>
          </Trackpoint>
          <Trackpoint>
            <Time>2018-04-21T11:30:17.000Z</Time>
            <Position>
              <LatitudeDegrees>43.27162407338619232177734375</LatitudeDegrees>
              <LongitudeDegrees>-8.2133638858795166015625</LongitudeDegrees>
            </Position>
            <AltitudeMeters>46.59999847412109375</AltitudeMeters>
            <DistanceMeters>56176.605990348</DistanceMeters>
          </Trackpoint>
          <Trackpoint>
            <Time>2018-04-21T11:30:18.000Z</Time>
            <Position>
              <LatitudeDegrees>43.2717355526983737945556640625</LatitudeDegrees>
              <LongitudeDegrees>-8.21330931968986988067626953125</LongitudeDegrees>
            </Position>
            <AltitudeMeters>45.200000762939453125</AltitudeMeters>
            <DistanceMeters>56189.778420605</DistanceMeters>
          </Trackpoint>
          <Trackpoint>
            <Time>2018-04-21T11:30:19.000Z</Time>
            <Position>
              <LatitudeDegrees>43.2718411646783351898193359375</LatitudeDegrees>
              <LongitudeDegrees>-8.21326003409922122955322265625</LongitudeDegrees>
            </Position>
            <AltitudeMeters>44</AltitudeMeters>
            <DistanceMeters>56202.193143507</DistanceMeters>
          </Trackpoint>
          <Trackpoint>
            <Time>2018-04-21T11:30:20.000Z</Time>
            <Position>
              <LatitudeDegrees>43.27194199897348880767822265625</LatitudeDegrees>
              <LongitudeDegrees>-8.21321879513561725616455078125</LongitudeDegrees>
            </Position>
            <AltitudeMeters>42.59999847412109375</AltitudeMeters>
            <DistanceMeters>56213.903041491</DistanceMeters>
          </Trackpoint>
          <Trackpoint>
            <Time>2018-04-21T11:30:21.000Z</Time>
            <Position>
              <LatitudeDegrees>43.27204048633575439453125</LatitudeDegrees>
              <LongitudeDegrees>-8.21318794973194599151611328125</LongitudeDegrees>
            </Position>
            <AltitudeMeters>41.40000152587890625</AltitudeMeters>
            <DistanceMeters>56225.146352398</DistanceMeters>
          </Trackpoint>
          <Trackpoint>
            <Time>2018-04-21T11:30:22.000Z</Time>
            <Position>
              <LatitudeDegrees>43.27213427983224391937255859375</LatitudeDegrees>
              <LongitudeDegrees>-8.21315743960440158843994140625</LongitudeDegrees>
            </Position>
            <AltitudeMeters>39.799999237060546875</AltitudeMeters>
            <DistanceMeters>56235.874695903</DistanceMeters>
          </Trackpoint>
          <Trackpoint>
            <Time>2018-04-21T11:30:23.000Z</Time>
            <Position>
              <LatitudeDegrees>43.27220611274242401123046875</LatitudeDegrees>
              <LongitudeDegrees>-8.21314352564513683319091796875</LongitudeDegrees>
            </Position>
            <AltitudeMeters>38.59999847412109375</AltitudeMeters>
            <DistanceMeters>56243.949171237</DistanceMeters>
          </Trackpoint>
          <Trackpoint>
            <Time>2018-04-21T11:30:24.000Z</Time>
            <Position>
              <LatitudeDegrees>43.272268138825893402099609375</LatitudeDegrees>
              <LongitudeDegrees>-8.21313254535198211669921875</LongitudeDegrees>
            </Position>
            <AltitudeMeters>37.40000152587890625</AltitudeMeters>
            <DistanceMeters>56250.909513191</DistanceMeters>
          </Trackpoint>
          <Trackpoint>
            <Time>2018-04-21T11:30:25.000Z</Time>
            <Position>
              <LatitudeDegrees>43.27233477495610713958740234375</LatitudeDegrees>
              <LongitudeDegrees>-8.2131256721913814544677734375</LongitudeDegrees>
            </Position>
            <AltitudeMeters>36.59999847412109375</AltitudeMeters>
            <DistanceMeters>56258.347137025</DistanceMeters>
          </Trackpoint>
          <Trackpoint>
            <Time>2018-04-21T11:30:26.000Z</Time>
            <Position>
              <LatitudeDegrees>43.2724037580192089080810546875</LatitudeDegrees>
              <LongitudeDegrees>-8.21312223561108112335205078125</LongitudeDegrees>
            </Position>
            <AltitudeMeters>35.799999237060546875</AltitudeMeters>
            <DistanceMeters>56266.029622277</DistanceMeters>
          </Trackpoint>
          <Trackpoint>
            <Time>2018-04-21T11:30:28.000Z</Time>
            <Position>
              <LatitudeDegrees>43.27255404554307460784912109375</LatitudeDegrees>
              <LongitudeDegrees>-8.213095329701900482177734375</LongitudeDegrees>
            </Position>
            <AltitudeMeters>34.59999847412109375</AltitudeMeters>
            <DistanceMeters>56282.898403172</DistanceMeters>
          </Trackpoint>
          <Trackpoint>
            <Time>2018-04-21T11:30:30.000Z</Time>
            <Position>
              <LatitudeDegrees>43.27268354594707489013671875</LatitudeDegrees>
              <LongitudeDegrees>-8.21305165998637676239013671875</LongitudeDegrees>
            </Position>
            <AltitudeMeters>33.59999847412109375</AltitudeMeters>
            <DistanceMeters>56297.740225324</DistanceMeters>
          </Trackpoint>
          <Trackpoint>
            <Time>2018-04-21T11:30:31.000Z</Time>
            <Position>
              <LatitudeDegrees>43.2727324962615966796875</LatitudeDegrees>
              <LongitudeDegrees>-8.21301863528788089752197265625</LongitudeDegrees>
            </Position>
            <AltitudeMeters>32.799999237060546875</AltitudeMeters>
            <DistanceMeters>56303.810045081</DistanceMeters>
          </Trackpoint>
          <Trackpoint>
            <Time>2018-04-21T11:30:33.000Z</Time>
            <Position>
              <LatitudeDegrees>43.27281723730266094207763671875</LatitudeDegrees>
              <LongitudeDegrees>-8.21291738189756870269775390625</LongitudeDegrees>
            </Position>
            <AltitudeMeters>31.3999996185302734375</AltitudeMeters>
            <DistanceMeters>56316.311747489</DistanceMeters>
          </Trackpoint>
          <Trackpoint>
            <Time>2018-04-21T11:30:35.000Z</Time>
            <Position>
              <LatitudeDegrees>43.27286015264689922332763671875</LatitudeDegrees>
              <LongitudeDegrees>-8.21278260089457035064697265625</LongitudeDegrees>
            </Position>
            <AltitudeMeters>30.3999996185302734375</AltitudeMeters>
            <DistanceMeters>56328.232961482</DistanceMeters>
          </Trackpoint>
          <Trackpoint>
            <Time>2018-04-21T11:30:36.000Z</Time>
            <Position>
              <LatitudeDegrees>43.27286015264689922332763671875</LatitudeDegrees>
              <LongitudeDegrees>-8.2127018831670284271240234375</LongitudeDegrees>
            </Position>
            <AltitudeMeters>29.200000762939453125</AltitudeMeters>
            <DistanceMeters>56334.773947814</DistanceMeters>
          </Trackpoint>
          <Trackpoint>
            <Time>2018-04-21T11:30:37.000Z</Time>
            <Position>
              <LatitudeDegrees>43.27285411767661571502685546875</LatitudeDegrees>
              <LongitudeDegrees>-8.21262468583881855010986328125</LongitudeDegrees>
            </Position>
            <AltitudeMeters>28.6000003814697265625</AltitudeMeters>
            <DistanceMeters>56341.066553412</DistanceMeters>
          </Trackpoint>
          <Trackpoint>
            <Time>2018-04-21T11:30:38.000Z</Time>
            <Position>
              <LatitudeDegrees>43.2728429697453975677490234375</LatitudeDegrees>
              <LongitudeDegrees>-8.212548159062862396240234375</LongitudeDegrees>
            </Position>
            <AltitudeMeters>27.799999237060546875</AltitudeMeters>
            <DistanceMeters>56347.391364764</DistanceMeters>
          </Trackpoint>
          <Trackpoint>
            <Time>2018-04-21T11:30:40.000Z</Time>
            <Position>
              <LatitudeDegrees>43.27280131168663501739501953125</LatitudeDegrees>
              <LongitudeDegrees>-8.2124034874141216278076171875</LongitudeDegrees>
            </Position>
            <AltitudeMeters>26.200000762939453125</AltitudeMeters>
            <DistanceMeters>56359.9987993</DistanceMeters>
          </Trackpoint>
          <Trackpoint>
            <Time>2018-04-21T11:30:41.000Z</Time>
            <Position>
              <LatitudeDegrees>43.27277147211134433746337890625</LatitudeDegrees>
              <LongitudeDegrees>-8.2123411260545253753662109375</LongitudeDegrees>
            </Position>
            <AltitudeMeters>25.799999237060546875</AltitudeMeters>
            <DistanceMeters>56366.046262371</DistanceMeters>
          </Trackpoint>
          <Trackpoint>
            <Time>2018-04-21T11:30:42.000Z</Time>
            <Position>
              <LatitudeDegrees>43.2727392017841339111328125</LatitudeDegrees>
              <LongitudeDegrees>-8.212279267609119415283203125</LongitudeDegrees>
            </Position>
            <AltitudeMeters>25</AltitudeMeters>
            <DistanceMeters>56372.213488813</DistanceMeters>
          </Trackpoint>
          <Trackpoint>
            <Time>2018-04-21T11:30:44.000Z</Time>
            <Position>
              <LatitudeDegrees>43.2726709730923175811767578125</LatitudeDegrees>
              <LongitudeDegrees>-8.2121349312365055084228515625</LongitudeDegrees>
            </Position>
            <AltitudeMeters>23.200000762939453125</AltitudeMeters>
            <DistanceMeters>56386.159448315</DistanceMeters>
          </Trackpoint>
          <Trackpoint>
            <Time>2018-04-21T11:30:46.000Z</Time>
            <Position>
              <LatitudeDegrees>43.2726059295237064361572265625</LatitudeDegrees>
              <LongitudeDegrees>-8.2119785249233245849609375</LongitudeDegrees>
            </Position>
            <AltitudeMeters>21.6000003814697265625</AltitudeMeters>
            <DistanceMeters>56400.755873344</DistanceMeters>
          </Trackpoint>
          <Trackpoint>
            <Time>2018-04-21T11:30:47.000Z</Time>
            <Position>
              <LatitudeDegrees>43.27257466502487659454345703125</LatitudeDegrees>
              <LongitudeDegrees>-8.21190115995705127716064453125</LongitudeDegrees>
            </Position>
            <AltitudeMeters>20.6000003814697265625</AltitudeMeters>
            <DistanceMeters>56407.926455975</DistanceMeters>
          </Trackpoint>
          <Trackpoint>
            <Time>2018-04-21T11:30:48.000Z</Time>
            <Position>
              <LatitudeDegrees>43.27254566363990306854248046875</LatitudeDegrees>
              <LongitudeDegrees>-8.21182957850396633148193359375</LongitudeDegrees>
            </Position>
            <AltitudeMeters>19.200000762939453125</AltitudeMeters>
            <DistanceMeters>56414.564736856</DistanceMeters>
          </Trackpoint>
          <Trackpoint>
            <Time>2018-04-21T11:30:50.000Z</Time>
            <Position>
              <LatitudeDegrees>43.27250509522855281829833984375</LatitudeDegrees>
              <LongitudeDegrees>-8.21171172894537448883056640625</LongitudeDegrees>
            </Position>
            <AltitudeMeters>17.799999237060546875</AltitudeMeters>
            <DistanceMeters>56425.128528064</DistanceMeters>
          </Trackpoint>
          <Trackpoint>
            <Time>2018-04-21T11:30:51.000Z</Time>
            <Position>
              <LatitudeDegrees>43.27249017544090747833251953125</LatitudeDegrees>
              <LongitudeDegrees>-8.2116675563156604766845703125</LongitudeDegrees>
            </Position>
            <AltitudeMeters>17</AltitudeMeters>
            <DistanceMeters>56429.074139777</DistanceMeters>
          </Trackpoint>
          <Trackpoint>
            <Time>2018-04-21T11:30:52.000Z</Time>
            <Position>
              <LatitudeDegrees>43.27247592620551586151123046875</LatitudeDegrees>
              <LongitudeDegrees>-8.2116320170462131500244140625</LongitudeDegrees>
            </Position>
            <AltitudeMeters>16.3999996185302734375</AltitudeMeters>
            <DistanceMeters>56432.363217395</DistanceMeters>
          </Trackpoint>
          <Trackpoint>
            <Time>2018-04-21T11:30:56.000Z</Time>
            <Position>
              <LatitudeDegrees>43.2724483497440814971923828125</LatitudeDegrees>
              <LongitudeDegrees>-8.211521208286285400390625</LongitudeDegrees>
            </Position>
            <AltitudeMeters>15.3999996185302734375</AltitudeMeters>
            <DistanceMeters>56441.853527319</DistanceMeters>
          </Trackpoint>
          <Trackpoint>
            <Time>2018-04-21T11:30:57.000Z</Time>
            <Position>
              <LatitudeDegrees>43.2724493555724620819091796875</LatitudeDegrees>
              <LongitudeDegrees>-8.2115026004612445831298828125</LongitudeDegrees>
            </Position>
            <AltitudeMeters>15.19999980926513671875</AltitudeMeters>
            <DistanceMeters>56443.368003934</DistanceMeters>
          </Trackpoint>
          <Trackpoint>
            <Time>2018-04-21T11:30:59.000Z</Time>
            <Position>
              <LatitudeDegrees>43.27246955595910549163818359375</LatitudeDegrees>
              <LongitudeDegrees>-8.21148097515106201171875</LongitudeDegrees>
            </Position>
            <AltitudeMeters>14.3999996185302734375</AltitudeMeters>
            <DistanceMeters>56446.218805365</DistanceMeters>
          </Trackpoint>
          <Trackpoint>
            <Time>2018-04-21T11:31:00.000Z</Time>
            <Position>
              <LatitudeDegrees>43.27248916961252689361572265625</LatitudeDegrees>
              <LongitudeDegrees>-8.21147334761917591094970703125</LongitudeDegrees>
            </Position>
            <AltitudeMeters>13.6000003814697265625</AltitudeMeters>
            <DistanceMeters>56448.487537076</DistanceMeters>
          </Trackpoint>
          <Trackpoint>
            <Time>2018-04-21T11:31:02.000Z</Time>
            <Position>
              <LatitudeDegrees>43.272555805742740631103515625</LatitudeDegrees>
              <LongitudeDegrees>-8.2114756107330322265625</LongitudeDegrees>
            </Position>
            <AltitudeMeters>12.3999996185302734375</AltitudeMeters>
            <DistanceMeters>56455.906318372</DistanceMeters>
          </Trackpoint>
          <Trackpoint>
            <Time>2018-04-21T11:31:03.000Z</Time>
            <Position>
              <LatitudeDegrees>43.2726062647998332977294921875</LatitudeDegrees>
              <LongitudeDegrees>-8.21148256771266460418701171875</LongitudeDegrees>
            </Position>
            <AltitudeMeters>11.3999996185302734375</AltitudeMeters>
            <DistanceMeters>56461.550617239</DistanceMeters>
          </Trackpoint>
          <Trackpoint>
            <Time>2018-04-21T11:31:04.000Z</Time>
            <Position>
              <LatitudeDegrees>43.27266602776944637298583984375</LatitudeDegrees>
              <LongitudeDegrees>-8.21149698458611965179443359375</LongitudeDegrees>
            </Position>
            <AltitudeMeters>10.6000003814697265625</AltitudeMeters>
            <DistanceMeters>56468.303534093</DistanceMeters>
          </Trackpoint>
          <Trackpoint>
            <Time>2018-04-21T11:31:05.000Z</Time>
            <Position>
              <LatitudeDegrees>43.27273073606193065643310546875</LatitudeDegrees>
              <LongitudeDegrees>-8.21152162738144397735595703125</LongitudeDegrees>
            </Position>
            <AltitudeMeters>10</AltitudeMeters>
            <DistanceMeters>56475.777492407</DistanceMeters>
          </Trackpoint>
          <Trackpoint>
            <Time>2018-04-21T11:31:06.000Z</Time>
            <Position>
              <LatitudeDegrees>43.272798545658588409423828125</LatitudeDegrees>
              <LongitudeDegrees>-8.2115505449473857879638671875</LongitudeDegrees>
            </Position>
            <AltitudeMeters>9.6000003814697265625</AltitudeMeters>
            <DistanceMeters>56483.680150737</DistanceMeters>
          </Trackpoint>
          <Trackpoint>
            <Time>2018-04-21T11:31:07.000Z</Time>
            <Position>
              <LatitudeDegrees>43.272895105183124542236328125</LatitudeDegrees>
              <LongitudeDegrees>-8.2116209529340267181396484375</LongitudeDegrees>
            </Position>
            <AltitudeMeters>9</AltitudeMeters>
            <DistanceMeters>56495.847652671</DistanceMeters>
          </Trackpoint>
          <Trackpoint>
            <Time>2018-04-21T11:31:08.000Z</Time>
            <Position>
              <LatitudeDegrees>43.27298336662352085113525390625</LatitudeDegrees>
              <LongitudeDegrees>-8.21168549358844757080078125</LongitudeDegrees>
            </Position>
            <AltitudeMeters>8</AltitudeMeters>
            <DistanceMeters>56506.977143162</DistanceMeters>
          </Trackpoint>
          <Trackpoint>
            <Time>2018-04-21T11:31:10.000Z</Time>
            <Position>
              <LatitudeDegrees>43.2731541059911251068115234375</LatitudeDegrees>
              <LongitudeDegrees>-8.21180208586156368255615234375</LongitudeDegrees>
            </Position>
            <AltitudeMeters>6.19999980926513671875</AltitudeMeters>
            <DistanceMeters>56528.199823314</DistanceMeters>
          </Trackpoint>
          <Trackpoint>
            <Time>2018-04-21T11:31:12.000Z</Time>
            <Position>
              <LatitudeDegrees>43.2732929103076457977294921875</LatitudeDegrees>
              <LongitudeDegrees>-8.2118771038949489593505859375</LongitudeDegrees>
            </Position>
            <AltitudeMeters>5</AltitudeMeters>
            <DistanceMeters>56544.802053688</DistanceMeters>
          </Trackpoint>
          <Trackpoint>
            <Time>2018-04-21T11:31:13.000Z</Time>
            <Position>
              <LatitudeDegrees>43.2733680121600627899169921875</LatitudeDegrees>
              <LongitudeDegrees>-8.211923539638519287109375</LongitudeDegrees>
            </Position>
            <AltitudeMeters>4.400000095367431640625</AltitudeMeters>
            <DistanceMeters>56553.969053818</DistanceMeters>
          </Trackpoint>
          <Trackpoint>
            <Time>2018-04-21T11:31:15.000Z</Time>
            <Position>
              <LatitudeDegrees>43.27355216257274150848388671875</LatitudeDegrees>
              <LongitudeDegrees>-8.21207684464752674102783203125</LongitudeDegrees>
            </Position>
            <AltitudeMeters>3.2000000476837158203125</AltitudeMeters>
            <DistanceMeters>56577.936516823</DistanceMeters>
          </Trackpoint>
          <Trackpoint>
            <Time>2018-04-21T11:31:17.000Z</Time>
            <Position>
              <LatitudeDegrees>43.27371980063617229461669921875</LatitudeDegrees>
              <LongitudeDegrees>-8.21223123930394649505615234375</LongitudeDegrees>
            </Position>
            <AltitudeMeters>2.2000000476837158203125</AltitudeMeters>
            <DistanceMeters>56600.401644074</DistanceMeters>
          </Trackpoint>
          <Trackpoint>
            <Time>2018-04-21T11:31:18.000Z</Time>
            <Position>
              <LatitudeDegrees>43.2737830840051174163818359375</LatitudeDegrees>
              <LongitudeDegrees>-8.212288655340671539306640625</LongitudeDegrees>
            </Position>
            <AltitudeMeters>1.39999997615814208984375</AltitudeMeters>
            <DistanceMeters>56608.843525576</DistanceMeters>
          </Trackpoint>
          <Trackpoint>
            <Time>2018-04-21T11:31:19.000Z</Time>
            <Position>
              <LatitudeDegrees>43.27383748255670070648193359375</LatitudeDegrees>
              <LongitudeDegrees>-8.212338946759700775146484375</LongitudeDegrees>
            </Position>
            <AltitudeMeters>0.4000000059604644775390625</AltitudeMeters>
            <DistanceMeters>56616.142047409</DistanceMeters>
          </Trackpoint>
          <Trackpoint>
            <Time>2018-04-21T11:31:21.000Z</Time>
            <Position>
              <LatitudeDegrees>43.27389565296471118927001953125</LatitudeDegrees>
              <LongitudeDegrees>-8.212411366403102874755859375</LongitudeDegrees>
            </Position>
            <AltitudeMeters>-1.39999997615814208984375</AltitudeMeters>
            <DistanceMeters>56624.880889236</DistanceMeters>
          </Trackpoint>
          <Trackpoint>
            <Time>2018-04-21T11:31:22.000Z</Time>
            <Position>
              <LatitudeDegrees>43.273927085101604461669921875</LatitudeDegrees>
              <LongitudeDegrees>-8.21245134808123111724853515625</LongitudeDegrees>
            </Position>
            <AltitudeMeters>-2.400000095367431640625</AltitudeMeters>
            <DistanceMeters>56629.651192438</DistanceMeters>
          </Trackpoint>
          <Trackpoint>
            <Time>2018-04-21T11:31:24.000Z</Time>
            <Position>
              <LatitudeDegrees>43.2739939726889133453369140625</LatitudeDegrees>
              <LongitudeDegrees>-8.2125238515436649322509765625</LongitudeDegrees>
            </Position>
            <AltitudeMeters>-3.7999999523162841796875</AltitudeMeters>
            <DistanceMeters>56639.134839489</DistanceMeters>
          </Trackpoint>
          <Trackpoint>
            <Time>2018-04-21T11:31:26.000Z</Time>
            <Position>
              <LatitudeDegrees>43.27407552860677242279052734375</LatitudeDegrees>
              <LongitudeDegrees>-8.21262032724916934967041015625</LongitudeDegrees>
            </Position>
            <AltitudeMeters>-5.400000095367431640625</AltitudeMeters>
            <DistanceMeters>56651.114991199</DistanceMeters>
          </Trackpoint>
          <Trackpoint>
            <Time>2018-04-21T11:31:28.000Z</Time>
            <Position>
              <LatitudeDegrees>43.2741438411176204681396484375</LatitudeDegrees>
              <LongitudeDegrees>-8.21271085180342197418212890625</LongitudeDegrees>
            </Position>
            <AltitudeMeters>-7.19999980926513671875</AltitudeMeters>
            <DistanceMeters>56661.680491897</DistanceMeters>
          </Trackpoint>
          <Trackpoint>
            <Time>2018-04-21T11:31:30.000Z</Time>
            <Position>
              <LatitudeDegrees>43.27420108951628208160400390625</LatitudeDegrees>
              <LongitudeDegrees>-8.21278444491326808929443359375</LongitudeDegrees>
            </Position>
            <AltitudeMeters>-9</AltitudeMeters>
            <DistanceMeters>56670.407959732</DistanceMeters>
          </Trackpoint>
          <Trackpoint>
            <Time>2018-04-21T11:31:32.000Z</Time>
            <Position>
              <LatitudeDegrees>43.27425104565918445587158203125</LatitudeDegrees>
              <LongitudeDegrees>-8.212798945605754852294921875</LongitudeDegrees>
            </Position>
            <AltitudeMeters>-9.80000019073486328125</AltitudeMeters>
            <DistanceMeters>56676.090525469</DistanceMeters>
          </Trackpoint>
          <Trackpoint>
            <Time>2018-04-21T11:31:33.000Z</Time>
            <Position>
              <LatitudeDegrees>43.27428205870091915130615234375</LatitudeDegrees>
              <LongitudeDegrees>-8.21277153678238391876220703125</LongitudeDegrees>
            </Position>
            <AltitudeMeters>-10</AltitudeMeters>
            <DistanceMeters>56680.196515328</DistanceMeters>
          </Trackpoint>
          <Trackpoint>
            <Time>2018-04-21T11:31:36.000Z</Time>
            <Position>
              <LatitudeDegrees>43.274350874125957489013671875</LatitudeDegrees>
              <LongitudeDegrees>-8.21272610686719417572021484375</LongitudeDegrees>
            </Position>
            <AltitudeMeters>-10.19999980926513671875</AltitudeMeters>
            <DistanceMeters>56688.694369253</DistanceMeters>
          </Trackpoint>
          <Trackpoint>
            <Time>2018-04-21T11:31:40.000Z</Time>
            <Position>
              <LatitudeDegrees>43.27447417192161083221435546875</LatitudeDegrees>
              <LongitudeDegrees>-8.21282099001109600067138671875</LongitudeDegrees>
            </Position>
            <AltitudeMeters>-10</AltitudeMeters>
            <DistanceMeters>56704.424663424</DistanceMeters>
          </Trackpoint>
          <Trackpoint>
            <Time>2018-04-21T11:31:42.000Z</Time>
            <Position>
              <LatitudeDegrees>43.27455262653529644012451171875</LatitudeDegrees>
              <LongitudeDegrees>-8.21290598250925540924072265625</LongitudeDegrees>
            </Position>
            <AltitudeMeters>-10</AltitudeMeters>
            <DistanceMeters>56715.546443279</DistanceMeters>
          </Trackpoint>
          <Trackpoint>
            <Time>2018-04-21T11:31:47.000Z</Time>
            <Position>
              <LatitudeDegrees>43.274769298732280731201171875</LatitudeDegrees>
              <LongitudeDegrees>-8.2130861096084117889404296875</LongitudeDegrees>
            </Position>
            <AltitudeMeters>-10.19999980926513671875</AltitudeMeters>
            <DistanceMeters>56743.736242625</DistanceMeters>
          </Trackpoint>
          <Trackpoint>
            <Time>2018-04-21T11:31:52.000Z</Time>
            <Position>
              <LatitudeDegrees>43.27489511109888553619384765625</LatitudeDegrees>
              <LongitudeDegrees>-8.21325936354696750640869140625</LongitudeDegrees>
            </Position>
            <AltitudeMeters>-10.19999980926513671875</AltitudeMeters>
            <DistanceMeters>56763.56565635</DistanceMeters>
          </Trackpoint>
          <Trackpoint>
            <Time>2018-04-21T11:31:54.000Z</Time>
            <Position>
              <LatitudeDegrees>43.2749602384865283966064453125</LatitudeDegrees>
              <LongitudeDegrees>-8.2133301906287670135498046875</LongitudeDegrees>
            </Position>
            <AltitudeMeters>-10.19999980926513671875</AltitudeMeters>
            <DistanceMeters>56772.811614045</DistanceMeters>
          </Trackpoint>
          <Trackpoint>
            <Time>2018-04-21T11:31:56.000Z</Time>
            <Position>
              <LatitudeDegrees>43.2750440575182437896728515625</LatitudeDegrees>
              <LongitudeDegrees>-8.213399089872837066650390625</LongitudeDegrees>
            </Position>
            <AltitudeMeters>-10</AltitudeMeters>
            <DistanceMeters>56783.683766576</DistanceMeters>
          </Trackpoint>
          <Trackpoint>
            <Time>2018-04-21T11:31:58.000Z</Time>
            <Position>
              <LatitudeDegrees>43.2751432992517948150634765625</LatitudeDegrees>
              <LongitudeDegrees>-8.21342800743877887725830078125</LongitudeDegrees>
            </Position>
            <AltitudeMeters>-9.6000003814697265625</AltitudeMeters>
            <DistanceMeters>56794.975563572</DistanceMeters>
          </Trackpoint>
          <Trackpoint>
            <Time>2018-04-21T11:31:59.000Z</Time>
            <Position>
              <LatitudeDegrees>43.2751987874507904052734375</LatitudeDegrees>
              <LongitudeDegrees>-8.21342918090522289276123046875</LongitudeDegrees>
            </Position>
            <AltitudeMeters>-8.6000003814697265625</AltitudeMeters>
            <DistanceMeters>56801.153030937</DistanceMeters>
          </Trackpoint>
          <Trackpoint>
            <Time>2018-04-21T11:32:00.000Z</Time>
            <Position>
              <LatitudeDegrees>43.2752542756497859954833984375</LatitudeDegrees>
              <LongitudeDegrees>-8.2134287618100643157958984375</LongitudeDegrees>
            </Position>
            <AltitudeMeters>-8.19999980926513671875</AltitudeMeters>
            <DistanceMeters>56807.329036353</DistanceMeters>
          </Trackpoint>
          <Trackpoint>
            <Time>2018-04-21T11:32:02.000Z</Time>
            <Position>
              <LatitudeDegrees>43.27536449767649173736572265625</LatitudeDegrees>
              <LongitudeDegrees>-8.21342716924846172332763671875</LongitudeDegrees>
            </Position>
            <AltitudeMeters>-9.3999996185302734375</AltitudeMeters>
            <DistanceMeters>56819.597423133</DistanceMeters>
          </Trackpoint>
          <Trackpoint>
            <Time>2018-04-21T11:32:04.000Z</Time>
            <Position>
              <LatitudeDegrees>43.2754804193973541259765625</LatitudeDegrees>
              <LongitudeDegrees>-8.21342230774462223052978515625</LongitudeDegrees>
            </Position>
            <AltitudeMeters>-9.3999996185302734375</AltitudeMeters>
            <DistanceMeters>56832.505675165</DistanceMeters>
          </Trackpoint>
          <Trackpoint>
            <Time>2018-04-21T11:32:07.000Z</Time>
            <Position>
              <LatitudeDegrees>43.275675885379314422607421875</LatitudeDegrees>
              <LongitudeDegrees>-8.21342046372592449188232421875</LongitudeDegrees>
            </Position>
            <AltitudeMeters>-9.19999980926513671875</AltitudeMeters>
            <DistanceMeters>56854.262020149</DistanceMeters>
          </Trackpoint>
          <Trackpoint>
            <Time>2018-04-21T11:32:10.000Z</Time>
            <Position>
              <LatitudeDegrees>43.27588451094925403594970703125</LatitudeDegrees>
              <LongitudeDegrees>-8.2134193740785121917724609375</LongitudeDegrees>
            </Position>
            <AltitudeMeters>-9.3999996185302734375</AltitudeMeters>
            <DistanceMeters>56877.482590653</DistanceMeters>
          </Trackpoint>
          <Trackpoint>
            <Time>2018-04-21T11:32:12.000Z</Time>
            <Position>
              <LatitudeDegrees>43.27602021396160125732421875</LatitudeDegrees>
              <LongitudeDegrees>-8.2134210504591464996337890625</LongitudeDegrees>
            </Position>
            <AltitudeMeters>-9.6000003814697265625</AltitudeMeters>
            <DistanceMeters>56892.586757339</DistanceMeters>
          </Trackpoint>
          <Trackpoint>
            <Time>2018-04-21T11:32:15.000Z</Time>
            <Position>
              <LatitudeDegrees>43.27622246928513050079345703125</LatitudeDegrees>
              <LongitudeDegrees>-8.21341962553560733795166015625</LongitudeDegrees>
            </Position>
            <AltitudeMeters>-9.3999996185302734375</AltitudeMeters>
            <DistanceMeters>56915.098263065</DistanceMeters>
          </Trackpoint>
          <Trackpoint>
            <Time>2018-04-21T11:32:17.000Z</Time>
            <Position>
              <LatitudeDegrees>43.27635238878428936004638671875</LatitudeDegrees>
              <LongitudeDegrees>-8.21339934132993221282958984375</LongitudeDegrees>
            </Position>
            <AltitudeMeters>-9.3999996185302734375</AltitudeMeters>
            <DistanceMeters>56929.651318171</DistanceMeters>
          </Trackpoint>
          <Trackpoint>
            <Time>2018-04-21T11:32:18.000Z</Time>
            <Position>
              <LatitudeDegrees>43.276409804821014404296875</LatitudeDegrees>
              <LongitudeDegrees>-8.21339732967317104339599609375</LongitudeDegrees>
            </Position>
            <AltitudeMeters>-9.19999980926513671875</AltitudeMeters>
            <DistanceMeters>56936.044292908</DistanceMeters>
          </Trackpoint>
          <Trackpoint>
            <Time>2018-04-21T11:32:49.000Z</Time>
            <Position>
              <LatitudeDegrees>43.27657987363636493682861328125</LatitudeDegrees>
              <LongitudeDegrees>-8.2134116627275943756103515625</LongitudeDegrees>
            </Position>
            <AltitudeMeters>-9.19999980926513671875</AltitudeMeters>
            <DistanceMeters>56955.008730274</DistanceMeters>
          </Trackpoint>
          <Trackpoint>
            <Time>2018-04-21T11:32:50.000Z</Time>
            <Position>
              <LatitudeDegrees>43.2766242139041423797607421875</LatitudeDegrees>
              <LongitudeDegrees>-8.21335441432893276214599609375</LongitudeDegrees>
            </Position>
            <AltitudeMeters>-8.80000019073486328125</AltitudeMeters>
            <DistanceMeters>56961.781675596</DistanceMeters>
          </Trackpoint>
          <Trackpoint>
            <Time>2018-04-21T11:32:54.000Z</Time>
            <Position>
              <LatitudeDegrees>43.27673074789345264434814453125</LatitudeDegrees>
              <LongitudeDegrees>-8.21319700218737125396728515625</LongitudeDegrees>
            </Position>
            <AltitudeMeters>-8</AltitudeMeters>
            <DistanceMeters>56979.197249304</DistanceMeters>
          </Trackpoint>
          <Trackpoint>
            <Time>2018-04-21T11:32:55.000Z</Time>
            <Position>
              <LatitudeDegrees>43.276752792298793792724609375</LatitudeDegrees>
              <LongitudeDegrees>-8.2131707668304443359375</LongitudeDegrees>
            </Position>
            <AltitudeMeters>-7.80000019073486328125</AltitudeMeters>
            <DistanceMeters>56982.442102018</DistanceMeters>
          </Trackpoint>
          <Trackpoint>
            <Time>2018-04-21T11:33:16.000Z</Time>
            <Position>
              <LatitudeDegrees>43.2768351025879383087158203125</LatitudeDegrees>
              <LongitudeDegrees>-8.2130696810781955718994140625</LongitudeDegrees>
            </Position>
            <AltitudeMeters>-7.400000095367431640625</AltitudeMeters>
            <DistanceMeters>56994.731448157</DistanceMeters>
          </Trackpoint>
          <Trackpoint>
            <Time>2018-04-21T11:33:17.000Z</Time>
            <Position>
              <LatitudeDegrees>43.2768555544316768646240234375</LatitudeDegrees>
              <LongitudeDegrees>-8.21304780431091785430908203125</LongitudeDegrees>
            </Position>
            <AltitudeMeters>-6.80000019073486328125</AltitudeMeters>
            <DistanceMeters>56997.61688235</DistanceMeters>
          </Trackpoint>
          <Trackpoint>
            <Time>2018-04-21T11:33:20.000Z</Time>
            <Position>
              <LatitudeDegrees>43.2769319973886013031005859375</LatitudeDegrees>
              <LongitudeDegrees>-8.21296281181275844573974609375</LongitudeDegrees>
            </Position>
            <AltitudeMeters>-7.19999980926513671875</AltitudeMeters>
            <DistanceMeters>57008.563530897</DistanceMeters>
          </Trackpoint>
          <Trackpoint>
            <Time>2018-04-21T11:33:23.000Z</Time>
            <Position>
              <LatitudeDegrees>43.27701958827674388885498046875</LatitudeDegrees>
              <LongitudeDegrees>-8.2128537632524967193603515625</LongitudeDegrees>
            </Position>
            <AltitudeMeters>-6.400000095367431640625</AltitudeMeters>
            <DistanceMeters>57021.721214036</DistanceMeters>
          </Trackpoint>
          <Trackpoint>
            <Time>2018-04-21T11:33:24.000Z</Time>
            <Position>
              <LatitudeDegrees>43.27705018222332000732421875</LatitudeDegrees>
              <LongitudeDegrees>-8.21281738579273223876953125</LongitudeDegrees>
            </Position>
            <AltitudeMeters>-6.19999980926513671875</AltitudeMeters>
            <DistanceMeters>57026.223715742</DistanceMeters>
          </Trackpoint>
          <Trackpoint>
            <Time>2018-04-21T11:33:27.000Z</Time>
            <Position>
              <LatitudeDegrees>43.27713928185403347015380859375</LatitudeDegrees>
              <LongitudeDegrees>-8.212705068290233612060546875</LongitudeDegrees>
            </Position>
            <AltitudeMeters>-5.400000095367431640625</AltitudeMeters>
            <DistanceMeters>57039.684342914</DistanceMeters>
          </Trackpoint>
          <Trackpoint>
            <Time>2018-04-21T11:33:29.000Z</Time>
            <Position>
              <LatitudeDegrees>43.277194015681743621826171875</LatitudeDegrees>
              <LongitudeDegrees>-8.21262829005718231201171875</LongitudeDegrees>
            </Position>
            <AltitudeMeters>-5.19999980926513671875</AltitudeMeters>
            <DistanceMeters>57048.392129768</DistanceMeters>
          </Trackpoint>
          <Trackpoint>
            <Time>2018-04-21T11:33:31.000Z</Time>
            <Position>
              <LatitudeDegrees>43.27724204398691654205322265625</LatitudeDegrees>
              <LongitudeDegrees>-8.21257171221077442169189453125</LongitudeDegrees>
            </Position>
            <AltitudeMeters>-5</AltitudeMeters>
            <DistanceMeters>57055.433089907</DistanceMeters>
          </Trackpoint>
          <Trackpoint>
            <Time>2018-04-21T11:33:46.000Z</Time>
            <Position>
              <LatitudeDegrees>43.2773326523602008819580078125</LatitudeDegrees>
              <LongitudeDegrees>-8.212428800761699676513671875</LongitudeDegrees>
            </Position>
            <AltitudeMeters>-4.400000095367431640625</AltitudeMeters>
            <DistanceMeters>57070.789242298</DistanceMeters>
          </Trackpoint>
          <Trackpoint>
            <Time>2018-04-21T11:33:47.000Z</Time>
            <Position>
              <LatitudeDegrees>43.27734866179525852203369140625</LatitudeDegrees>
              <LongitudeDegrees>-8.2124001346528530120849609375</LongitudeDegrees>
            </Position>
            <AltitudeMeters>-4.19999980926513671875</AltitudeMeters>
            <DistanceMeters>57073.715077643</DistanceMeters>
          </Trackpoint>
          <Trackpoint>
            <Time>2018-04-21T11:33:49.000Z</Time>
            <Position>
              <LatitudeDegrees>43.2773946784436702728271484375</LatitudeDegrees>
              <LongitudeDegrees>-8.21232947520911693572998046875</LongitudeDegrees>
            </Position>
            <AltitudeMeters>-3.7999999523162841796875</AltitudeMeters>
            <DistanceMeters>57081.396975167</DistanceMeters>
          </Trackpoint>
          <Trackpoint>
            <Time>2018-04-21T11:33:52.000Z</Time>
            <Position>
              <LatitudeDegrees>43.2774952612817287445068359375</LatitudeDegrees>
              <LongitudeDegrees>-8.2122281379997730255126953125</LongitudeDegrees>
            </Position>
            <AltitudeMeters>-3.400000095367431640625</AltitudeMeters>
            <DistanceMeters>57095.280635051</DistanceMeters>
          </Trackpoint>
          <Trackpoint>
            <Time>2018-04-21T11:33:54.000Z</Time>
            <Position>
              <LatitudeDegrees>43.27756784856319427490234375</LatitudeDegrees>
              <LongitudeDegrees>-8.21214825846254825592041015625</LongitudeDegrees>
            </Position>
            <AltitudeMeters>-2.599999904632568359375</AltitudeMeters>
            <DistanceMeters>57105.632878635</DistanceMeters>
          </Trackpoint>
          <Trackpoint>
            <Time>2018-04-21T11:33:56.000Z</Time>
            <Position>
              <LatitudeDegrees>43.27764571644365787506103515625</LatitudeDegrees>
              <LongitudeDegrees>-8.21206234395503997802734375</LongitudeDegrees>
            </Position>
            <AltitudeMeters>-2</AltitudeMeters>
            <DistanceMeters>57116.749785859</DistanceMeters>
          </Trackpoint>
          <Trackpoint>
            <Time>2018-04-21T11:33:58.000Z</Time>
            <Position>
              <LatitudeDegrees>43.2777242548763751983642578125</LatitudeDegrees>
              <LongitudeDegrees>-8.21196536533534526824951171875</LongitudeDegrees>
            </Position>
            <AltitudeMeters>-1.60000002384185791015625</AltitudeMeters>
            <DistanceMeters>57128.504709497</DistanceMeters>
          </Trackpoint>
          <Trackpoint>
            <Time>2018-04-21T11:33:59.000Z</Time>
            <Position>
              <LatitudeDegrees>43.277766667306423187255859375</LatitudeDegrees>
              <LongitudeDegrees>-8.21191859431564807891845703125</LongitudeDegrees>
            </Position>
            <AltitudeMeters>-1.39999997615814208984375</AltitudeMeters>
            <DistanceMeters>57134.558142425</DistanceMeters>
          </Trackpoint>
          <Trackpoint>
            <Time>2018-04-21T11:34:01.000Z</Time>
            <Position>
              <LatitudeDegrees>43.27785886824131011962890625</LatitudeDegrees>
              <LongitudeDegrees>-8.21182899177074432373046875</LongitudeDegrees>
            </Position>
            <AltitudeMeters>-0.800000011920928955078125</AltitudeMeters>
            <DistanceMeters>57147.128995131</DistanceMeters>
          </Trackpoint>
          <Trackpoint>
            <Time>2018-04-21T11:34:02.000Z</Time>
            <Position>
              <LatitudeDegrees>43.2779032923281192779541015625</LatitudeDegrees>
              <LongitudeDegrees>-8.21178113110363483428955078125</LongitudeDegrees>
            </Position>
            <AltitudeMeters>-0.20000000298023223876953125</AltitudeMeters>
            <DistanceMeters>57153.412266112</DistanceMeters>
          </Trackpoint>
          <Trackpoint>
            <Time>2018-04-21T11:34:05.000Z</Time>
            <Position>
              <LatitudeDegrees>43.27802826650440692901611328125</LatitudeDegrees>
              <LongitudeDegrees>-8.211634866893291473388671875</LongitudeDegrees>
            </Position>
            <AltitudeMeters>0.20000000298023223876953125</AltitudeMeters>
            <DistanceMeters>57171.686572858</DistanceMeters>
          </Trackpoint>
          <Trackpoint>
            <Time>2018-04-21T11:34:06.000Z</Time>
            <Position>
              <LatitudeDegrees>43.27806883491575717926025390625</LatitudeDegrees>
              <LongitudeDegrees>-8.21158767677843570709228515625</LongitudeDegrees>
            </Position>
            <AltitudeMeters>0.4000000059604644775390625</AltitudeMeters>
            <DistanceMeters>57177.604227499</DistanceMeters>
          </Trackpoint>
          <Trackpoint>
            <Time>2018-04-21T11:34:07.000Z</Time>
            <Position>
              <LatitudeDegrees>43.278109990060329437255859375</LatitudeDegrees>
              <LongitudeDegrees>-8.211540319025516510009765625</LongitudeDegrees>
            </Position>
            <AltitudeMeters>1</AltitudeMeters>
            <DistanceMeters>57183.579587091</DistanceMeters>
          </Trackpoint>
          <Trackpoint>
            <Time>2018-04-21T11:34:10.000Z</Time>
            <Position>
              <LatitudeDegrees>43.2782358862459659576416015625</LatitudeDegrees>
              <LongitudeDegrees>-8.21140252053737640380859375</LongitudeDegrees>
            </Position>
            <AltitudeMeters>1.60000002384185791015625</AltitudeMeters>
            <DistanceMeters>57201.496596261</DistanceMeters>
          </Trackpoint>
          <Trackpoint>
            <Time>2018-04-21T11:34:11.000Z</Time>
            <Position>
              <LatitudeDegrees>43.27827905304729938507080078125</LatitudeDegrees>
              <LongitudeDegrees>-8.21135767735540866851806640625</LongitudeDegrees>
            </Position>
            <AltitudeMeters>2.2000000476837158203125</AltitudeMeters>
            <DistanceMeters>57207.52012074</DistanceMeters>
          </Trackpoint>
          <Trackpoint>
            <Time>2018-04-21T11:34:12.000Z</Time>
            <Position>
              <LatitudeDegrees>43.278319202363491058349609375</LatitudeDegrees>
              <LongitudeDegrees>-8.21131040342152118682861328125</LongitudeDegrees>
            </Position>
            <AltitudeMeters>2.2000000476837158203125</AltitudeMeters>
            <DistanceMeters>57213.405643082</DistanceMeters>
          </Trackpoint>
          <Trackpoint>
            <Time>2018-04-21T11:34:14.000Z</Time>
            <Position>
              <LatitudeDegrees>43.27839153818786144256591796875</LatitudeDegrees>
              <LongitudeDegrees>-8.21121769957244396209716796875</LongitudeDegrees>
            </Position>
            <AltitudeMeters>2.599999904632568359375</AltitudeMeters>
            <DistanceMeters>57224.417267235</DistanceMeters>
          </Trackpoint>
          <Trackpoint>
            <Time>2018-04-21T11:34:17.000Z</Time>
            <Position>
              <LatitudeDegrees>43.27847602777183055877685546875</LatitudeDegrees>
              <LongitudeDegrees>-8.211038075387477874755859375</LongitudeDegrees>
            </Position>
            <AltitudeMeters>3.2000000476837158203125</AltitudeMeters>
            <DistanceMeters>57241.746294679</DistanceMeters>
          </Trackpoint>
          <Trackpoint>
            <Time>2018-04-21T11:34:19.000Z</Time>
            <Position>
              <LatitudeDegrees>43.27852229587733745574951171875</LatitudeDegrees>
              <LongitudeDegrees>-8.210897929966449737548828125</LongitudeDegrees>
            </Position>
            <AltitudeMeters>3.599999904632568359375</AltitudeMeters>
            <DistanceMeters>57254.216175046</DistanceMeters>
          </Trackpoint>
          <Trackpoint>
            <Time>2018-04-21T11:34:21.000Z</Time>
            <Position>
              <LatitudeDegrees>43.2785507105290889739990234375</LatitudeDegrees>
              <LongitudeDegrees>-8.2107877917587757110595703125</LongitudeDegrees>
            </Position>
            <AltitudeMeters>4</AltitudeMeters>
            <DistanceMeters>57263.684575066</DistanceMeters>
          </Trackpoint>
          <Trackpoint>
            <Time>2018-04-21T11:34:22.000Z</Time>
            <Position>
              <LatitudeDegrees>43.2785607688128948211669921875</LatitudeDegrees>
              <LongitudeDegrees>-8.21074806153774261474609375</LongitudeDegrees>
            </Position>
            <AltitudeMeters>4</AltitudeMeters>
            <DistanceMeters>57267.09231307</DistanceMeters>
          </Trackpoint>
          <Trackpoint>
            <Time>2018-04-21T11:34:28.000Z</Time>
            <Position>
              <LatitudeDegrees>43.27859085984528064727783203125</LatitudeDegrees>
              <LongitudeDegrees>-8.210544884204864501953125</LongitudeDegrees>
            </Position>
            <AltitudeMeters>4.19999980926513671875</AltitudeMeters>
            <DistanceMeters>57283.892971673</DistanceMeters>
          </Trackpoint>
          <Trackpoint>
            <Time>2018-04-21T11:34:29.000Z</Time>
            <Position>
              <LatitudeDegrees>43.2786050252616405487060546875</LatitudeDegrees>
              <LongitudeDegrees>-8.21052619256079196929931640625</LongitudeDegrees>
            </Position>
            <AltitudeMeters>4.400000095367431640625</AltitudeMeters>
            <DistanceMeters>57286.078586103</DistanceMeters>
          </Trackpoint>
          <Trackpoint>
            <Time>2018-04-21T11:57:05.000Z</Time>
            <Position>
              <LatitudeDegrees>43.27936585061252117156982421875</LatitudeDegrees>
              <LongitudeDegrees>-8.20987391285598278045654296875</LongitudeDegrees>
            </Position>
            <AltitudeMeters>18.3999996185302734375</AltitudeMeters>
            <DistanceMeters>57385.901107835</DistanceMeters>
          </Trackpoint>
          <Trackpoint>
            <Time>2018-04-21T11:57:06.000Z</Time>
            <Position>
              <LatitudeDegrees>43.27936585061252117156982421875</LatitudeDegrees>
              <LongitudeDegrees>-8.20987391285598278045654296875</LongitudeDegrees>
            </Position>
            <AltitudeMeters>18.3999996185302734375</AltitudeMeters>
            <DistanceMeters>57385.901107835</DistanceMeters>
          </Trackpoint>
          <Trackpoint>
            <Time>2018-04-21T11:57:08.000Z</Time>
            <Position>
              <LatitudeDegrees>43.27936585061252117156982421875</LatitudeDegrees>
              <LongitudeDegrees>-8.20987391285598278045654296875</LongitudeDegrees>
            </Position>
            <AltitudeMeters>18.3999996185302734375</AltitudeMeters>
            <DistanceMeters>57385.901107835</DistanceMeters>
          </Trackpoint>
          <Trackpoint>
            <Time>2018-04-21T11:57:11.000Z</Time>
            <Position>
              <LatitudeDegrees>43.27941211871802806854248046875</LatitudeDegrees>
              <LongitudeDegrees>-8.2099078595638275146484375</LongitudeDegrees>
            </Position>
            <AltitudeMeters>18.6000003814697265625</AltitudeMeters>
            <DistanceMeters>57391.738873546</DistanceMeters>
          </Trackpoint>
          <Trackpoint>
            <Time>2018-04-21T11:57:15.000Z</Time>
            <Position>
              <LatitudeDegrees>43.27950465492904186248779296875</LatitudeDegrees>
              <LongitudeDegrees>-8.20998908020555973052978515625</LongitudeDegrees>
            </Position>
            <AltitudeMeters>18.799999237060546875</AltitudeMeters>
            <DistanceMeters>57403.961540386</DistanceMeters>
          </Trackpoint>
          <Trackpoint>
            <Time>2018-04-21T11:57:18.000Z</Time>
            <Position>
              <LatitudeDegrees>43.2795681059360504150390625</LatitudeDegrees>
              <LongitudeDegrees>-8.21005596779286861419677734375</LongitudeDegrees>
            </Position>
            <AltitudeMeters>19.200000762939453125</AltitudeMeters>
            <DistanceMeters>57412.864179374</DistanceMeters>
          </Trackpoint>
          <Trackpoint>
            <Time>2018-04-21T11:57:23.000Z</Time>
            <Position>
              <LatitudeDegrees>43.27969794161617755889892578125</LatitudeDegrees>
              <LongitudeDegrees>-8.2101812772452831268310546875</LongitudeDegrees>
            </Position>
            <AltitudeMeters>19.200000762939453125</AltitudeMeters>
            <DistanceMeters>57430.525604305</DistanceMeters>
          </Trackpoint>
          <Trackpoint>
            <Time>2018-04-21T11:57:27.000Z</Time>
            <Position>
              <LatitudeDegrees>43.27971763908863067626953125</LatitudeDegrees>
              <LongitudeDegrees>-8.210198879241943359375</LongitudeDegrees>
            </Position>
            <AltitudeMeters>19</AltitudeMeters>
            <DistanceMeters>57433.141860781</DistanceMeters>
          </Trackpoint>
          <Trackpoint>
            <Time>2018-04-21T11:57:31.000Z</Time>
            <Position>
              <LatitudeDegrees>43.27975116670131683349609375</LatitudeDegrees>
              <LongitudeDegrees>-8.21020080707967281341552734375</LongitudeDegrees>
            </Position>
            <AltitudeMeters>19.200000762939453125</AltitudeMeters>
            <DistanceMeters>57436.87702719</DistanceMeters>
          </Trackpoint>
          <Trackpoint>
            <Time>2018-04-21T11:57:32.000Z</Time>
            <Position>
              <LatitudeDegrees>43.27977396547794342041015625</LatitudeDegrees>
              <LongitudeDegrees>-8.21018521673977375030517578125</LongitudeDegrees>
            </Position>
            <AltitudeMeters>18.6000003814697265625</AltitudeMeters>
            <DistanceMeters>57439.710353497</DistanceMeters>
          </Trackpoint>
          <Trackpoint>
            <Time>2018-04-21T11:57:33.000Z</Time>
            <Position>
              <LatitudeDegrees>43.27978913672268390655517578125</LatitudeDegrees>
              <LongitudeDegrees>-8.2101531140506267547607421875</LongitudeDegrees>
            </Position>
            <AltitudeMeters>18.6000003814697265625</AltitudeMeters>
            <DistanceMeters>57442.812942978</DistanceMeters>
          </Trackpoint>
          <Trackpoint>
            <Time>2018-04-21T11:57:36.000Z</Time>
            <Position>
              <LatitudeDegrees>43.2798566110432147979736328125</LatitudeDegrees>
              <LongitudeDegrees>-8.210093937814235687255859375</LongitudeDegrees>
            </Position>
            <AltitudeMeters>18.200000762939453125</AltitudeMeters>
            <DistanceMeters>57451.723186078</DistanceMeters>
          </Trackpoint>
          <Trackpoint>
            <Time>2018-04-21T11:57:39.000Z</Time>
            <Position>
              <LatitudeDegrees>43.279945291578769683837890625</LatitudeDegrees>
              <LongitudeDegrees>-8.210100643336772918701171875</LongitudeDegrees>
            </Position>
            <AltitudeMeters>17.3999996185302734375</AltitudeMeters>
            <DistanceMeters>57461.608248404</DistanceMeters>
          </Trackpoint>
          <Trackpoint>
            <Time>2018-04-21T11:57:40.000Z</Time>
            <Position>
              <LatitudeDegrees>43.27997471205890178680419921875</LatitudeDegrees>
              <LongitudeDegrees>-8.2100937701761722564697265625</LongitudeDegrees>
            </Position>
            <AltitudeMeters>17.200000762939453125</AltitudeMeters>
            <DistanceMeters>57464.928748869</DistanceMeters>
          </Trackpoint>
          <Trackpoint>
            <Time>2018-04-21T11:57:42.000Z</Time>
            <Position>
              <LatitudeDegrees>43.28002383001148700714111328125</LatitudeDegrees>
              <LongitudeDegrees>-8.21003803052008152008056640625</LongitudeDegrees>
            </Position>
            <AltitudeMeters>16.6000003814697265625</AltitudeMeters>
            <DistanceMeters>57472.01955035</DistanceMeters>
          </Trackpoint>
          <Trackpoint>
            <Time>2018-04-21T11:57:43.000Z</Time>
            <Position>
              <LatitudeDegrees>43.28004126437008380889892578125</LatitudeDegrees>
              <LongitudeDegrees>-8.20999293588101863861083984375</LongitudeDegrees>
            </Position>
            <AltitudeMeters>16.200000762939453125</AltitudeMeters>
            <DistanceMeters>57476.157306377</DistanceMeters>
          </Trackpoint>
          <Trackpoint>
            <Time>2018-04-21T11:57:45.000Z</Time>
            <Position>
              <LatitudeDegrees>43.28008107841014862060546875</LatitudeDegrees>
              <LongitudeDegrees>-8.20990291424095630645751953125</LongitudeDegrees>
            </Position>
            <AltitudeMeters>15.19999980926513671875</AltitudeMeters>
            <DistanceMeters>57484.692800314</DistanceMeters>
          </Trackpoint>
          <Trackpoint>
            <Time>2018-04-21T11:57:47.000Z</Time>
            <Position>
              <LatitudeDegrees>43.28010387718677520751953125</LatitudeDegrees>
              <LongitudeDegrees>-8.2098107971251010894775390625</LongitudeDegrees>
            </Position>
            <AltitudeMeters>13.80000019073486328125</AltitudeMeters>
            <DistanceMeters>57492.577154837</DistanceMeters>
          </Trackpoint>
          <Trackpoint>
            <Time>2018-04-21T11:57:49.000Z</Time>
            <Position>
              <LatitudeDegrees>43.2801125943660736083984375</LatitudeDegrees>
              <LongitudeDegrees>-8.20970878936350345611572265625</LongitudeDegrees>
            </Position>
            <AltitudeMeters>12.19999980926513671875</AltitudeMeters>
            <DistanceMeters>57500.899455379</DistanceMeters>
          </Trackpoint>
          <Trackpoint>
            <Time>2018-04-21T11:57:52.000Z</Time>
            <Position>
              <LatitudeDegrees>43.28011971898376941680908203125</LatitudeDegrees>
              <LongitudeDegrees>-8.2095645368099212646484375</LongitudeDegrees>
            </Position>
            <AltitudeMeters>10.80000019073486328125</AltitudeMeters>
            <DistanceMeters>57512.615135554</DistanceMeters>
          </Trackpoint>
          <Trackpoint>
            <Time>2018-04-21T11:57:54.000Z</Time>
            <Position>
              <LatitudeDegrees>43.2801258377730846405029296875</LatitudeDegrees>
              <LongitudeDegrees>-8.20947937667369842529296875</LongitudeDegrees>
            </Position>
            <AltitudeMeters>9.19999980926513671875</AltitudeMeters>
            <DistanceMeters>57519.549481742</DistanceMeters>
          </Trackpoint>
          <Trackpoint>
            <Time>2018-04-21T11:57:57.000Z</Time>
            <Position>
              <LatitudeDegrees>43.2801338844001293182373046875</LatitudeDegrees>
              <LongitudeDegrees>-8.2093875110149383544921875</LongitudeDegrees>
            </Position>
            <AltitudeMeters>8</AltitudeMeters>
            <DistanceMeters>57527.046360812</DistanceMeters>
          </Trackpoint>
          <Trackpoint>
            <Time>2018-04-21T11:57:59.000Z</Time>
            <Position>
              <LatitudeDegrees>43.28012156300246715545654296875</LatitudeDegrees>
              <LongitudeDegrees>-8.2093285024166107177734375</LongitudeDegrees>
            </Position>
            <AltitudeMeters>6.80000019073486328125</AltitudeMeters>
            <DistanceMeters>57532.020535061</DistanceMeters>
          </Trackpoint>
          <Trackpoint>
            <Time>2018-04-21T11:58:01.000Z</Time>
            <Position>
              <LatitudeDegrees>43.2801114208996295928955078125</LatitudeDegrees>
              <LongitudeDegrees>-8.20929304696619510650634765625</LongitudeDegrees>
            </Position>
            <AltitudeMeters>6.19999980926513671875</AltitudeMeters>
            <DistanceMeters>57535.108537769</DistanceMeters>
          </Trackpoint>
          <Trackpoint>
            <Time>2018-04-21T11:58:03.000Z</Time>
            <Position>
              <LatitudeDegrees>43.28010261990129947662353515625</LatitudeDegrees>
              <LongitudeDegrees>-8.2093016803264617919921875</LongitudeDegrees>
            </Position>
            <AltitudeMeters>5.80000019073486328125</AltitudeMeters>
            <DistanceMeters>57536.310541193</DistanceMeters>
          </Trackpoint>
          <Trackpoint>
            <Time>2018-04-21T11:58:05.000Z</Time>
            <Position>
              <LatitudeDegrees>43.28008250333368778228759765625</LatitudeDegrees>
              <LongitudeDegrees>-8.2093016803264617919921875</LongitudeDegrees>
            </Position>
            <AltitudeMeters>5.400000095367431640625</AltitudeMeters>
            <DistanceMeters>57538.551238072</DistanceMeters>
          </Trackpoint>
          <Trackpoint>
            <Time>2018-04-21T11:58:07.000Z</Time>
            <Position>
              <LatitudeDegrees>43.2800205610692501068115234375</LatitudeDegrees>
              <LongitudeDegrees>-8.2092562504112720489501953125</LongitudeDegrees>
            </Position>
            <AltitudeMeters>5.19999980926513671875</AltitudeMeters>
            <DistanceMeters>57546.36657153</DistanceMeters>
          </Trackpoint>
          <Trackpoint>
            <Time>2018-04-21T11:58:09.000Z</Time>
            <Position>
              <LatitudeDegrees>43.27995073981583118438720703125</LatitudeDegrees>
              <LongitudeDegrees>-8.2091774605214595794677734375</LongitudeDegrees>
            </Position>
            <AltitudeMeters>3.7999999523162841796875</AltitudeMeters>
            <DistanceMeters>57556.424151573</DistanceMeters>
          </Trackpoint>
          <Trackpoint>
            <Time>2018-04-21T11:58:12.000Z</Time>
            <Position>
              <LatitudeDegrees>43.279835991561412811279296875</LatitudeDegrees>
              <LongitudeDegrees>-8.20906539447605609893798828125</LongitudeDegrees>
            </Position>
            <AltitudeMeters>4.599999904632568359375</AltitudeMeters>
            <DistanceMeters>57572.09463015</DistanceMeters>
          </Trackpoint>
          <Trackpoint>
            <Time>2018-04-21T11:58:13.000Z</Time>
            <Position>
              <LatitudeDegrees>43.279797770082950592041015625</LatitudeDegrees>
              <LongitudeDegrees>-8.2090279273688793182373046875</LongitudeDegrees>
            </Position>
            <AltitudeMeters>5.19999980926513671875</AltitudeMeters>
            <DistanceMeters>57577.32109944</DistanceMeters>
          </Trackpoint>
          <Trackpoint>
            <Time>2018-04-21T11:58:17.000Z</Time>
            <Position>
              <LatitudeDegrees>43.2796671800315380096435546875</LatitudeDegrees>
              <LongitudeDegrees>-8.20887244306504726409912109375</LongitudeDegrees>
            </Position>
            <AltitudeMeters>5</AltitudeMeters>
            <DistanceMeters>57596.556205942</DistanceMeters>
          </Trackpoint>
          <Trackpoint>
            <Time>2018-04-21T11:58:18.000Z</Time>
            <Position>
              <LatitudeDegrees>43.279639519751071929931640625</LatitudeDegrees>
              <LongitudeDegrees>-8.20883891545236110687255859375</LongitudeDegrees>
            </Position>
            <AltitudeMeters>5.19999980926513671875</AltitudeMeters>
            <DistanceMeters>57600.661096031</DistanceMeters>
          </Trackpoint>
          <Trackpoint>
            <Time>2018-04-21T11:58:26.000Z</Time>
            <Position>
              <LatitudeDegrees>43.2794750668108463287353515625</LatitudeDegrees>
              <LongitudeDegrees>-8.2085533440113067626953125</LongitudeDegrees>
            </Position>
            <AltitudeMeters>5.400000095367431640625</AltitudeMeters>
            <DistanceMeters>57630.165016263</DistanceMeters>
          </Trackpoint>
          <Trackpoint>
            <Time>2018-04-21T11:58:31.000Z</Time>
            <Position>
              <LatitudeDegrees>43.2794073410332202911376953125</LatitudeDegrees>
              <LongitudeDegrees>-8.20837522856891155242919921875</LongitudeDegrees>
            </Position>
            <AltitudeMeters>5.599999904632568359375</AltitudeMeters>
            <DistanceMeters>57646.447615699</DistanceMeters>
          </Trackpoint>
          <Trackpoint>
            <Time>2018-04-21T11:58:34.000Z</Time>
            <Position>
              <LatitudeDegrees>43.279345147311687469482421875</LatitudeDegrees>
              <LongitudeDegrees>-8.20830523967742919921875</LongitudeDegrees>
            </Position>
            <AltitudeMeters>5.80000019073486328125</AltitudeMeters>
            <DistanceMeters>57655.396791526</DistanceMeters>
          </Trackpoint>
          <Trackpoint>
            <Time>2018-04-21T11:58:36.000Z</Time>
            <Position>
              <LatitudeDegrees>43.27927784062922000885009765625</LatitudeDegrees>
              <LongitudeDegrees>-8.20825050584971904754638671875</LongitudeDegrees>
            </Position>
            <AltitudeMeters>6</AltitudeMeters>
            <DistanceMeters>57664.101985465</DistanceMeters>
          </Trackpoint>
          <Trackpoint>
            <Time>2018-04-21T11:58:38.000Z</Time>
            <Position>
              <LatitudeDegrees>43.2792001403868198394775390625</LatitudeDegrees>
              <LongitudeDegrees>-8.208197616040706634521484375</LongitudeDegrees>
            </Position>
            <AltitudeMeters>6.19999980926513671875</AltitudeMeters>
            <DistanceMeters>57673.753631366</DistanceMeters>
          </Trackpoint>
          <Trackpoint>
            <Time>2018-04-21T11:58:39.000Z</Time>
            <Position>
              <LatitudeDegrees>43.2791622541844844818115234375</LatitudeDegrees>
              <LongitudeDegrees>-8.20817020721733570098876953125</LongitudeDegrees>
            </Position>
            <AltitudeMeters>6.19999980926513671875</AltitudeMeters>
            <DistanceMeters>57678.518252251</DistanceMeters>
          </Trackpoint>
          <Trackpoint>
            <Time>2018-04-21T11:58:41.000Z</Time>
            <Position>
              <LatitudeDegrees>43.27910064719617366790771484375</LatitudeDegrees>
              <LongitudeDegrees>-8.20812578313052654266357421875</LongitudeDegrees>
            </Position>
            <AltitudeMeters>6.400000095367431640625</AltitudeMeters>
            <DistanceMeters>57686.262783725</DistanceMeters>
          </Trackpoint>
          <Trackpoint>
            <Time>2018-04-21T11:58:44.000Z</Time>
            <Position>
              <LatitudeDegrees>43.27903610654175281524658203125</LatitudeDegrees>
              <LongitudeDegrees>-8.2080680318176746368408203125</LongitudeDegrees>
            </Position>
            <AltitudeMeters>6.400000095367431640625</AltitudeMeters>
            <DistanceMeters>57694.83522574</DistanceMeters>
          </Trackpoint>
          <Trackpoint>
            <Time>2018-04-21T11:58:49.000Z</Time>
            <Position>
              <LatitudeDegrees>43.27896502800285816192626953125</LatitudeDegrees>
              <LongitudeDegrees>-8.2080623321235179901123046875</LongitudeDegrees>
            </Position>
            <AltitudeMeters>6.599999904632568359375</AltitudeMeters>
            <DistanceMeters>57702.759564929</DistanceMeters>
          </Trackpoint>
          <Trackpoint>
            <Time>2018-04-21T11:58:54.000Z</Time>
            <Position>
              <LatitudeDegrees>43.2788970507681369781494140625</LatitudeDegrees>
              <LongitudeDegrees>-8.2080606557428836822509765625</LongitudeDegrees>
            </Position>
            <AltitudeMeters>7.400000095367431640625</AltitudeMeters>
            <DistanceMeters>57710.325983147</DistanceMeters>
          </Trackpoint>
          <Trackpoint>
            <Time>2018-04-21T11:58:56.000Z</Time>
            <Position>
              <LatitudeDegrees>43.278866708278656005859375</LatitudeDegrees>
              <LongitudeDegrees>-8.2080633379518985748291015625</LongitudeDegrees>
            </Position>
            <AltitudeMeters>7.599999904632568359375</AltitudeMeters>
            <DistanceMeters>57713.708453673</DistanceMeters>
          </Trackpoint>
          <Trackpoint>
            <Time>2018-04-21T11:59:00.000Z</Time>
            <Position>
              <LatitudeDegrees>43.2788430713117122650146484375</LatitudeDegrees>
              <LongitudeDegrees>-8.20805571042001247406005859375</LongitudeDegrees>
            </Position>
            <AltitudeMeters>8.3999996185302734375</AltitudeMeters>
            <DistanceMeters>57716.409620415</DistanceMeters>
          </Trackpoint>
          <Trackpoint>
            <Time>2018-04-21T11:59:01.000Z</Time>
            <Position>
              <LatitudeDegrees>43.27884198166429996490478515625</LatitudeDegrees>
              <LongitudeDegrees>-8.20804841816425323486328125</LongitudeDegrees>
            </Position>
            <AltitudeMeters>8.6000003814697265625</AltitudeMeters>
            <DistanceMeters>57717.010622126</DistanceMeters>
          </Trackpoint>
          <Trackpoint>
            <Time>2018-04-21T11:59:02.000Z</Time>
            <Position>
              <LatitudeDegrees>43.27883091755211353302001953125</LatitudeDegrees>
              <LongitudeDegrees>-8.20802721194922924041748046875</LongitudeDegrees>
            </Position>
            <AltitudeMeters>8.80000019073486328125</AltitudeMeters>
            <DistanceMeters>57719.124833053</DistanceMeters>
          </Trackpoint>
          <Trackpoint>
            <Time>2018-04-21T11:59:03.000Z</Time>
            <Position>
              <LatitudeDegrees>43.2788212783634662628173828125</LatitudeDegrees>
              <LongitudeDegrees>-8.2080013118684291839599609375</LongitudeDegrees>
            </Position>
            <AltitudeMeters>9</AltitudeMeters>
            <DistanceMeters>57721.483334078</DistanceMeters>
          </Trackpoint>
          <Trackpoint>
            <Time>2018-04-21T11:59:05.000Z</Time>
            <Position>
              <LatitudeDegrees>43.27878766693174839019775390625</LatitudeDegrees>
              <LongitudeDegrees>-8.20792235434055328369140625</LongitudeDegrees>
            </Position>
            <AltitudeMeters>9.3999996185302734375</AltitudeMeters>
            <DistanceMeters>57728.895417799</DistanceMeters>
          </Trackpoint>
          <Trackpoint>
            <Time>2018-04-21T11:59:07.000Z</Time>
            <Position>
              <LatitudeDegrees>43.27875782735645771026611328125</LatitudeDegrees>
              <LongitudeDegrees>-8.207839541137218475341796875</LongitudeDegrees>
            </Position>
            <AltitudeMeters>9.80000019073486328125</AltitudeMeters>
            <DistanceMeters>57736.382654577</DistanceMeters>
          </Trackpoint>
          <Trackpoint>
            <Time>2018-04-21T11:59:08.000Z</Time>
            <Position>
              <LatitudeDegrees>43.2787406444549560546875</LatitudeDegrees>
              <LongitudeDegrees>-8.2077947817742824554443359375</LongitudeDegrees>
            </Position>
            <AltitudeMeters>9.80000019073486328125</AltitudeMeters>
            <DistanceMeters>57740.483142638</DistanceMeters>
          </Trackpoint>
          <Trackpoint>
            <Time>2018-04-21T11:59:12.000Z</Time>
            <Position>
              <LatitudeDegrees>43.27866445295512676239013671875</LatitudeDegrees>
              <LongitudeDegrees>-8.20760275237262248992919921875</LongitudeDegrees>
            </Position>
            <AltitudeMeters>9.80000019073486328125</AltitudeMeters>
            <DistanceMeters>57758.204032526</DistanceMeters>
          </Trackpoint>
          <Trackpoint>
            <Time>2018-04-21T11:59:15.000Z</Time>
            <Position>
              <LatitudeDegrees>43.278600834310054779052734375</LatitudeDegrees>
              <LongitudeDegrees>-8.2074933685362339019775390625</LongitudeDegrees>
            </Position>
            <AltitudeMeters>10</AltitudeMeters>
            <DistanceMeters>57769.548487095</DistanceMeters>
          </Trackpoint>
          <Trackpoint>
            <Time>2018-04-21T11:59:20.000Z</Time>
            <Position>
              <LatitudeDegrees>43.2784642092883586883544921875</LatitudeDegrees>
              <LongitudeDegrees>-8.20727862417697906494140625</LongitudeDegrees>
            </Position>
            <AltitudeMeters>9.19999980926513671875</AltitudeMeters>
            <DistanceMeters>57792.657764905</DistanceMeters>
          </Trackpoint>
          <Trackpoint>
            <Time>2018-04-21T11:59:21.000Z</Time>
            <Position>
              <LatitudeDegrees>43.27842892147600650787353515625</LatitudeDegrees>
              <LongitudeDegrees>-8.207227326929569244384765625</LongitudeDegrees>
            </Position>
            <AltitudeMeters>9</AltitudeMeters>
            <DistanceMeters>57798.375183617</DistanceMeters>
          </Trackpoint>
          <Trackpoint>
            <Time>2018-04-21T11:59:24.000Z</Time>
            <Position>
              <LatitudeDegrees>43.27831828035414218902587890625</LatitudeDegrees>
              <LongitudeDegrees>-8.207093887031078338623046875</LongitudeDegrees>
            </Position>
            <AltitudeMeters>8.6000003814697265625</AltitudeMeters>
            <DistanceMeters>57814.763090851</DistanceMeters>
          </Trackpoint>
          <Trackpoint>
            <Time>2018-04-21T11:59:26.000Z</Time>
            <Position>
              <LatitudeDegrees>43.27823982574045658111572265625</LatitudeDegrees>
              <LongitudeDegrees>-8.20698668248951435089111328125</LongitudeDegrees>
            </Position>
            <AltitudeMeters>8</AltitudeMeters>
            <DistanceMeters>57827.080327324</DistanceMeters>
          </Trackpoint>
          <Trackpoint>
            <Time>2018-04-21T11:59:28.000Z</Time>
            <Position>
              <LatitudeDegrees>43.2781545817852020263671875</LatitudeDegrees>
              <LongitudeDegrees>-8.20685458369553089141845703125</LongitudeDegrees>
            </Position>
            <AltitudeMeters>8</AltitudeMeters>
            <DistanceMeters>57841.383663016</DistanceMeters>
          </Trackpoint>
          <Trackpoint>
            <Time>2018-04-21T11:59:29.000Z</Time>
            <Position>
              <LatitudeDegrees>43.27811367809772491455078125</LatitudeDegrees>
              <LongitudeDegrees>-8.2067731954157352447509765625</LongitudeDegrees>
            </Position>
            <AltitudeMeters>7.599999904632568359375</AltitudeMeters>
            <DistanceMeters>57849.396393108</DistanceMeters>
          </Trackpoint>
          <Trackpoint>
            <Time>2018-04-21T11:59:30.000Z</Time>
            <Position>
              <LatitudeDegrees>43.2780796475708484649658203125</LatitudeDegrees>
              <LongitudeDegrees>-8.20670119486749172210693359375</LongitudeDegrees>
            </Position>
            <AltitudeMeters>7.19999980926513671875</AltitudeMeters>
            <DistanceMeters>57856.352192816</DistanceMeters>
          </Trackpoint>
          <Trackpoint>
            <Time>2018-04-21T11:59:32.000Z</Time>
            <Position>
              <LatitudeDegrees>43.27801753766834735870361328125</LatitudeDegrees>
              <LongitudeDegrees>-8.20658418349921703338623046875</LongitudeDegrees>
            </Position>
            <AltitudeMeters>7.400000095367431640625</AltitudeMeters>
            <DistanceMeters>57868.086356852</DistanceMeters>
          </Trackpoint>
          <Trackpoint>
            <Time>2018-04-21T11:59:34.000Z</Time>
            <Position>
              <LatitudeDegrees>43.27795769087970256805419921875</LatitudeDegrees>
              <LongitudeDegrees>-8.2065133564174175262451171875</LongitudeDegrees>
            </Position>
            <AltitudeMeters>8.19999980926513671875</AltitudeMeters>
            <DistanceMeters>57876.879280968</DistanceMeters>
          </Trackpoint>
          <Trackpoint>
            <Time>2018-04-21T11:59:36.000Z</Time>
            <Position>
              <LatitudeDegrees>43.2779039628803730010986328125</LatitudeDegrees>
              <LongitudeDegrees>-8.20645107887685298919677734375</LongitudeDegrees>
            </Position>
            <AltitudeMeters>9</AltitudeMeters>
            <DistanceMeters>57884.703852413</DistanceMeters>
          </Trackpoint>
          <Trackpoint>
            <Time>2018-04-21T11:59:37.000Z</Time>
            <Position>
              <LatitudeDegrees>43.27787118963897228240966796875</LatitudeDegrees>
              <LongitudeDegrees>-8.2064278610050678253173828125</LongitudeDegrees>
            </Position>
            <AltitudeMeters>9.19999980926513671875</AltitudeMeters>
            <DistanceMeters>57888.807642438</DistanceMeters>
          </Trackpoint>
          <Trackpoint>
            <Time>2018-04-21T11:59:39.000Z</Time>
            <Position>
              <LatitudeDegrees>43.27781821601092815399169921875</LatitudeDegrees>
              <LongitudeDegrees>-8.206379413604736328125</LongitudeDegrees>
            </Position>
            <AltitudeMeters>10.19999980926513671875</AltitudeMeters>
            <DistanceMeters>57895.890798847</DistanceMeters>
          </Trackpoint>
          <Trackpoint>
            <Time>2018-04-21T11:59:40.000Z</Time>
            <Position>
              <LatitudeDegrees>43.27779055573046207427978515625</LatitudeDegrees>
              <LongitudeDegrees>-8.20635326206684112548828125</LongitudeDegrees>
            </Position>
            <AltitudeMeters>10.3999996185302734375</AltitudeMeters>
            <DistanceMeters>57899.627173853</DistanceMeters>
          </Trackpoint>
          <Trackpoint>
            <Time>2018-04-21T11:59:41.000Z</Time>
            <Position>
              <LatitudeDegrees>43.277762643992900848388671875</LatitudeDegrees>
              <LongitudeDegrees>-8.2063215784728527069091796875</LongitudeDegrees>
            </Position>
            <AltitudeMeters>10.6000003814697265625</AltitudeMeters>
            <DistanceMeters>57903.657695844</DistanceMeters>
          </Trackpoint>
          <Trackpoint>
            <Time>2018-04-21T11:59:44.000Z</Time>
            <Position>
              <LatitudeDegrees>43.27768745832145214080810546875</LatitudeDegrees>
              <LongitudeDegrees>-8.20626583881676197052001953125</LongitudeDegrees>
            </Position>
            <AltitudeMeters>11.6000003814697265625</AltitudeMeters>
            <DistanceMeters>57913.167016825</DistanceMeters>
          </Trackpoint>
          <Trackpoint>
            <Time>2018-04-21T11:59:47.000Z</Time>
            <Position>
              <LatitudeDegrees>43.27759475447237491607666015625</LatitudeDegrees>
              <LongitudeDegrees>-8.20621512830257415771484375</LongitudeDegrees>
            </Position>
            <AltitudeMeters>12.19999980926513671875</AltitudeMeters>
            <DistanceMeters>57924.273359347</DistanceMeters>
          </Trackpoint>
          <Trackpoint>
            <Time>2018-04-21T11:59:50.000Z</Time>
            <Position>
              <LatitudeDegrees>43.2775063253939151763916015625</LatitudeDegrees>
              <LongitudeDegrees>-8.2061479054391384124755859375</LongitudeDegrees>
            </Position>
            <AltitudeMeters>12.6000003814697265625</AltitudeMeters>
            <DistanceMeters>57935.522290906</DistanceMeters>
          </Trackpoint>
          <Trackpoint>
            <Time>2018-04-21T11:59:51.000Z</Time>
            <Position>
              <LatitudeDegrees>43.277479000389575958251953125</LatitudeDegrees>
              <LongitudeDegrees>-8.2061224244534969329833984375</LongitudeDegrees>
            </Position>
            <AltitudeMeters>10.6000003814697265625</AltitudeMeters>
            <DistanceMeters>57939.198977517</DistanceMeters>
          </Trackpoint>
          <Trackpoint>
            <Time>2018-04-21T11:59:52.000Z</Time>
            <Position>
              <LatitudeDegrees>43.27745360322296619415283203125</LatitudeDegrees>
              <LongitudeDegrees>-8.20609987713396549224853515625</LongitudeDegrees>
            </Position>
            <AltitudeMeters>12.3999996185302734375</AltitudeMeters>
            <DistanceMeters>57942.56539192</DistanceMeters>
          </Trackpoint>
          <Trackpoint>
            <Time>2018-04-21T11:59:54.000Z</Time>
            <Position>
              <LatitudeDegrees>43.27741471119225025177001953125</LatitudeDegrees>
              <LongitudeDegrees>-8.20605142973363399505615234375</LongitudeDegrees>
            </Position>
            <AltitudeMeters>14.80000019073486328125</AltitudeMeters>
            <DistanceMeters>57948.409341707</DistanceMeters>
          </Trackpoint>
          <Trackpoint>
            <Time>2018-04-21T11:59:55.000Z</Time>
            <Position>
              <LatitudeDegrees>43.277395181357860565185546875</LatitudeDegrees>
              <LongitudeDegrees>-8.2060298882424831390380859375</LongitudeDegrees>
            </Position>
            <AltitudeMeters>14.3999996185302734375</AltitudeMeters>
            <DistanceMeters>57951.197691724</DistanceMeters>
          </Trackpoint>
          <Trackpoint>
            <Time>2018-04-21T11:59:57.000Z</Time>
            <Position>
              <LatitudeDegrees>43.27735729515552520751953125</LatitudeDegrees>
              <LongitudeDegrees>-8.2059863023459911346435546875</LongitudeDegrees>
            </Position>
            <AltitudeMeters>11.6000003814697265625</AltitudeMeters>
            <DistanceMeters>57956.697760459</DistanceMeters>
          </Trackpoint>
          <Trackpoint>
            <Time>2018-04-21T11:59:58.000Z</Time>
            <Position>
              <LatitudeDegrees>43.2773386873304843902587890625</LatitudeDegrees>
              <LongitudeDegrees>-8.20596165955066680908203125</LongitudeDegrees>
            </Position>
            <AltitudeMeters>13.19999980926513671875</AltitudeMeters>
            <DistanceMeters>57959.575360171</DistanceMeters>
          </Trackpoint>
          <Trackpoint>
            <Time>2018-04-21T11:59:59.000Z</Time>
            <Position>
              <LatitudeDegrees>43.27732284553349018096923828125</LatitudeDegrees>
              <LongitudeDegrees>-8.20593710057437419891357421875</LongitudeDegrees>
            </Position>
            <AltitudeMeters>15.6000003814697265625</AltitudeMeters>
            <DistanceMeters>57962.232712194</DistanceMeters>
          </Trackpoint>
          <Trackpoint>
            <Time>2018-04-21T12:00:02.000Z</Time>
            <Position>
              <LatitudeDegrees>43.27726232819259166717529296875</LatitudeDegrees>
              <LongitudeDegrees>-8.20586971007287502288818359375</LongitudeDegrees>
            </Position>
            <AltitudeMeters>15</AltitudeMeters>
            <DistanceMeters>57970.904127682</DistanceMeters>
          </Trackpoint>
          <Trackpoint>
            <Time>2018-04-21T12:00:04.000Z</Time>
            <Position>
              <LatitudeDegrees>43.2772196643054485321044921875</LatitudeDegrees>
              <LongitudeDegrees>-8.2058277167379856109619140625</LongitudeDegrees>
            </Position>
            <AltitudeMeters>14.6000003814697265625</AltitudeMeters>
            <DistanceMeters>57976.745759207</DistanceMeters>
          </Trackpoint>
          <Trackpoint>
            <Time>2018-04-21T12:00:11.000Z</Time>
            <Position>
              <LatitudeDegrees>43.27704423107206821441650390625</LatitudeDegrees>
              <LongitudeDegrees>-8.20568145252764225006103515625</LongitudeDegrees>
            </Position>
            <AltitudeMeters>14.80000019073486328125</AltitudeMeters>
            <DistanceMeters>57999.587184879</DistanceMeters>
          </Trackpoint>
          <Trackpoint>
            <Time>2018-04-21T12:00:17.000Z</Time>
            <Position>
              <LatitudeDegrees>43.27694113366305828094482421875</LatitudeDegrees>
              <LongitudeDegrees>-8.20559411309659481048583984375</LongitudeDegrees>
            </Position>
            <AltitudeMeters>16.3999996185302734375</AltitudeMeters>
            <DistanceMeters>58013.068927298</DistanceMeters>
          </Trackpoint>
          <Trackpoint>
            <Time>2018-04-21T12:00:23.000Z</Time>
            <Position>
              <LatitudeDegrees>43.2768233679234981536865234375</LatitudeDegrees>
              <LongitudeDegrees>-8.20551448501646518707275390625</LongitudeDegrees>
            </Position>
            <AltitudeMeters>16.6000003814697265625</AltitudeMeters>
            <DistanceMeters>58027.678647244</DistanceMeters>
          </Trackpoint>
          <Trackpoint>
            <Time>2018-04-21T12:00:28.000Z</Time>
            <Position>
              <LatitudeDegrees>43.27667961828410625457763671875</LatitudeDegrees>
              <LongitudeDegrees>-8.20541859604418277740478515625</LongitudeDegrees>
            </Position>
            <AltitudeMeters>17.3999996185302734375</AltitudeMeters>
            <DistanceMeters>58045.464896654</DistanceMeters>
          </Trackpoint>
          <Trackpoint>
            <Time>2018-04-21T12:00:29.000Z</Time>
            <Position>
              <LatitudeDegrees>43.27665044926106929779052734375</LatitudeDegrees>
              <LongitudeDegrees>-8.20538557134568691253662109375</LongitudeDegrees>
            </Position>
            <AltitudeMeters>17.6000003814697265625</AltitudeMeters>
            <DistanceMeters>58049.670835283</DistanceMeters>
          </Trackpoint>
          <Trackpoint>
            <Time>2018-04-21T12:00:30.000Z</Time>
            <Position>
              <LatitudeDegrees>43.27662262134253978729248046875</LatitudeDegrees>
              <LongitudeDegrees>-8.2053536362946033477783203125</LongitudeDegrees>
            </Position>
            <AltitudeMeters>17.799999237060546875</AltitudeMeters>
            <DistanceMeters>58053.706954447</DistanceMeters>
          </Trackpoint>
          <Trackpoint>
            <Time>2018-04-21T12:00:35.000Z</Time>
            <Position>
              <LatitudeDegrees>43.27651147730648517608642578125</LatitudeDegrees>
              <LongitudeDegrees>-8.205133862793445587158203125</LongitudeDegrees>
            </Position>
            <AltitudeMeters>19.200000762939453125</AltitudeMeters>
            <DistanceMeters>58075.390959622</DistanceMeters>
          </Trackpoint>
          <Trackpoint>
            <Time>2018-04-21T12:00:36.000Z</Time>
            <Position>
              <LatitudeDegrees>43.27649638988077640533447265625</LatitudeDegrees>
              <LongitudeDegrees>-8.2050780393183231353759765625</LongitudeDegrees>
            </Position>
            <AltitudeMeters>19</AltitudeMeters>
            <DistanceMeters>58080.215846882</DistanceMeters>
          </Trackpoint>
          <Trackpoint>
            <Time>2018-04-21T12:00:43.000Z</Time>
            <Position>
              <LatitudeDegrees>43.27643386088311672210693359375</LatitudeDegrees>
              <LongitudeDegrees>-8.20468601770699024200439453125</LongitudeDegrees>
            </Position>
            <AltitudeMeters>19.799999237060546875</AltitudeMeters>
            <DistanceMeters>58112.736371063</DistanceMeters>
          </Trackpoint>
          <Trackpoint>
            <Time>2018-04-21T12:00:45.000Z</Time>
            <Position>
              <LatitudeDegrees>43.2764200307428836822509765625</LatitudeDegrees>
              <LongitudeDegrees>-8.20458996109664440155029296875</LongitudeDegrees>
            </Position>
            <AltitudeMeters>20.200000762939453125</AltitudeMeters>
            <DistanceMeters>58120.670959456</DistanceMeters>
          </Trackpoint>
          <Trackpoint>
            <Time>2018-04-21T12:00:50.000Z</Time>
            <Position>
              <LatitudeDegrees>43.27634652145206928253173828125</LatitudeDegrees>
              <LongitudeDegrees>-8.20437253452837467193603515625</LongitudeDegrees>
            </Position>
            <AltitudeMeters>21.3999996185302734375</AltitudeMeters>
            <DistanceMeters>58140.096893014</DistanceMeters>
          </Trackpoint>
          <Trackpoint>
            <Time>2018-04-21T12:00:55.000Z</Time>
            <Position>
              <LatitudeDegrees>43.27626370824873447418212890625</LatitudeDegrees>
              <LongitudeDegrees>-8.20419064722955226898193359375</LongitudeDegrees>
            </Position>
            <AltitudeMeters>22.6000003814697265625</AltitudeMeters>
            <DistanceMeters>58157.480809093</DistanceMeters>
          </Trackpoint>
          <Trackpoint>
            <Time>2018-04-21T12:00:59.000Z</Time>
            <Position>
              <LatitudeDegrees>43.27623210847377777099609375</LatitudeDegrees>
              <LongitudeDegrees>-8.20403574965894222259521484375</LongitudeDegrees>
            </Position>
            <AltitudeMeters>22.6000003814697265625</AltitudeMeters>
            <DistanceMeters>58170.516451714</DistanceMeters>
          </Trackpoint>
          <Trackpoint>
            <Time>2018-04-21T12:01:00.000Z</Time>
            <Position>
              <LatitudeDegrees>43.27622682787477970123291015625</LatitudeDegrees>
              <LongitudeDegrees>-8.20398897863924503326416015625</LongitudeDegrees>
            </Position>
            <AltitudeMeters>22.799999237060546875</AltitudeMeters>
            <DistanceMeters>58174.352989815</DistanceMeters>
          </Trackpoint>
          <Trackpoint>
            <Time>2018-04-21T12:01:01.000Z</Time>
            <Position>
              <LatitudeDegrees>43.27621936798095703125</LatitudeDegrees>
              <LongitudeDegrees>-8.2039357535541057586669921875</LongitudeDegrees>
            </Position>
            <AltitudeMeters>22.6000003814697265625</AltitudeMeters>
            <DistanceMeters>58178.744828073</DistanceMeters>
          </Trackpoint>
          <Trackpoint>
            <Time>2018-04-21T12:01:04.000Z</Time>
            <Position>
              <LatitudeDegrees>43.2761940546333789825439453125</LatitudeDegrees>
              <LongitudeDegrees>-8.20377297699451446533203125</LongitudeDegrees>
            </Position>
            <AltitudeMeters>22</AltitudeMeters>
            <DistanceMeters>58192.232597349</DistanceMeters>
          </Trackpoint>
          <Trackpoint>
            <Time>2018-04-21T12:01:06.000Z</Time>
            <Position>
              <LatitudeDegrees>43.2761692441999912261962890625</LatitudeDegrees>
              <LongitudeDegrees>-8.2036179117858409881591796875</LongitudeDegrees>
            </Position>
            <AltitudeMeters>21.6000003814697265625</AltitudeMeters>
            <DistanceMeters>58205.097754602</DistanceMeters>
          </Trackpoint>
          <Trackpoint>
            <Time>2018-04-21T12:01:07.000Z</Time>
            <Position>
              <LatitudeDegrees>43.276157341897487640380859375</LatitudeDegrees>
              <LongitudeDegrees>-8.2035045884549617767333984375</LongitudeDegrees>
            </Position>
            <AltitudeMeters>20.799999237060546875</AltitudeMeters>
            <DistanceMeters>58214.376372431</DistanceMeters>
          </Trackpoint>
          <Trackpoint>
            <Time>2018-04-21T12:01:08.000Z</Time>
            <Position>
              <LatitudeDegrees>43.27615323476493358612060546875</LatitudeDegrees>
              <LongitudeDegrees>-8.20338070392608642578125</LongitudeDegrees>
            </Position>
            <AltitudeMeters>20</AltitudeMeters>
            <DistanceMeters>58224.426317954</DistanceMeters>
          </Trackpoint>
          <Trackpoint>
            <Time>2018-04-21T12:01:10.000Z</Time>
            <Position>
              <LatitudeDegrees>43.2761571742594242095947265625</LatitudeDegrees>
              <LongitudeDegrees>-8.20310217328369617462158203125</LongitudeDegrees>
            </Position>
            <AltitudeMeters>18.6000003814697265625</AltitudeMeters>
            <DistanceMeters>58247.001113506</DistanceMeters>
          </Trackpoint>
          <Trackpoint>
            <Time>2018-04-21T12:01:11.000Z</Time>
            <Position>
              <LatitudeDegrees>43.27616731636226177215576171875</LatitudeDegrees>
              <LongitudeDegrees>-8.20295867510139942169189453125</LongitudeDegrees>
            </Position>
            <AltitudeMeters>18</AltitudeMeters>
            <DistanceMeters>58258.684376557</DistanceMeters>
          </Trackpoint>
          <Trackpoint>
            <Time>2018-04-21T12:01:12.000Z</Time>
            <Position>
              <LatitudeDegrees>43.2761712558567523956298828125</LatitudeDegrees>
              <LongitudeDegrees>-8.20281199179589748382568359375</LongitudeDegrees>
            </Position>
            <AltitudeMeters>17.200000762939453125</AltitudeMeters>
            <DistanceMeters>58270.578669628</DistanceMeters>
          </Trackpoint>
          <Trackpoint>
            <Time>2018-04-21T12:01:14.000Z</Time>
            <Position>
              <LatitudeDegrees>43.27616966329514980316162109375</LatitudeDegrees>
              <LongitudeDegrees>-8.2025262527167797088623046875</LongitudeDegrees>
            </Position>
            <AltitudeMeters>15.80000019073486328125</AltitudeMeters>
            <DistanceMeters>58293.733815683</DistanceMeters>
          </Trackpoint>
          <Trackpoint>
            <Time>2018-04-21T12:01:15.000Z</Time>
            <Position>
              <LatitudeDegrees>43.2761643826961517333984375</LatitudeDegrees>
              <LongitudeDegrees>-8.20238434709608554840087890625</LongitudeDegrees>
            </Position>
            <AltitudeMeters>15.80000019073486328125</AltitudeMeters>
            <DistanceMeters>58305.248136434</DistanceMeters>
          </Trackpoint>
          <Trackpoint>
            <Time>2018-04-21T12:01:18.000Z</Time>
            <Position>
              <LatitudeDegrees>43.2761628739535808563232421875</LatitudeDegrees>
              <LongitudeDegrees>-8.2020136155188083648681640625</LongitudeDegrees>
            </Position>
            <AltitudeMeters>14.19999980926513671875</AltitudeMeters>
            <DistanceMeters>58335.290558282</DistanceMeters>
          </Trackpoint>
          <Trackpoint>
            <Time>2018-04-21T12:01:19.000Z</Time>
            <Position>
              <LatitudeDegrees>43.27617309987545013427734375</LatitudeDegrees>
              <LongitudeDegrees>-8.2019284553825855255126953125</LongitudeDegrees>
            </Position>
            <AltitudeMeters>13.6000003814697265625</AltitudeMeters>
            <DistanceMeters>58342.285195812</DistanceMeters>
          </Trackpoint>
          <Trackpoint>
            <Time>2018-04-21T12:01:20.000Z</Time>
            <Position>
              <LatitudeDegrees>43.27619112096726894378662109375</LatitudeDegrees>
              <LongitudeDegrees>-8.2018681056797504425048828125</LongitudeDegrees>
            </Position>
            <AltitudeMeters>12.80000019073486328125</AltitudeMeters>
            <DistanceMeters>58347.570936679</DistanceMeters>
          </Trackpoint>
          <Trackpoint>
            <Time>2018-04-21T12:01:22.000Z</Time>
            <Position>
              <LatitudeDegrees>43.2762406580150127410888671875</LatitudeDegrees>
              <LongitudeDegrees>-8.20183633826673030853271484375</LongitudeDegrees>
            </Position>
            <AltitudeMeters>11.6000003814697265625</AltitudeMeters>
            <DistanceMeters>58353.656357248</DistanceMeters>
          </Trackpoint>
          <Trackpoint>
            <Time>2018-04-21T12:01:24.000Z</Time>
            <Position>
              <LatitudeDegrees>43.2763271592557430267333984375</LatitudeDegrees>
              <LongitudeDegrees>-8.201860897243022918701171875</LongitudeDegrees>
            </Position>
            <AltitudeMeters>10</AltitudeMeters>
            <DistanceMeters>58363.48691563</DistanceMeters>
          </Trackpoint>
          <Trackpoint>
            <Time>2018-04-21T12:01:25.000Z</Time>
            <Position>
              <LatitudeDegrees>43.27637828886508941650390625</LatitudeDegrees>
              <LongitudeDegrees>-8.2018691115081310272216796875</LongitudeDegrees>
            </Position>
            <AltitudeMeters>8.6000003814697265625</AltitudeMeters>
            <DistanceMeters>58369.216167577</DistanceMeters>
          </Trackpoint>
          <Trackpoint>
            <Time>2018-04-21T12:01:26.000Z</Time>
            <Position>
              <LatitudeDegrees>43.27644961886107921600341796875</LatitudeDegrees>
              <LongitudeDegrees>-8.2018801756203174591064453125</LongitudeDegrees>
            </Position>
            <AltitudeMeters>7.599999904632568359375</AltitudeMeters>
            <DistanceMeters>58377.205761458</DistanceMeters>
          </Trackpoint>
          <Trackpoint>
            <Time>2018-04-21T12:01:27.000Z</Time>
            <Position>
              <LatitudeDegrees>43.2765157520771026611328125</LatitudeDegrees>
              <LongitudeDegrees>-8.20186835713684558868408203125</LongitudeDegrees>
            </Position>
            <AltitudeMeters>6.19999980926513671875</AltitudeMeters>
            <DistanceMeters>58384.628801702</DistanceMeters>
          </Trackpoint>
          <Trackpoint>
            <Time>2018-04-21T12:01:28.000Z</Time>
            <Position>
              <LatitudeDegrees>43.27657635323703289031982421875</LatitudeDegrees>
              <LongitudeDegrees>-8.2018436305224895477294921875</LongitudeDegrees>
            </Position>
            <AltitudeMeters>5.599999904632568359375</AltitudeMeters>
            <DistanceMeters>58391.66591327</DistanceMeters>
          </Trackpoint>
          <Trackpoint>
            <Time>2018-04-21T12:01:30.000Z</Time>
            <Position>
              <LatitudeDegrees>43.27668950892984867095947265625</LatitudeDegrees>
              <LongitudeDegrees>-8.2017832808196544647216796875</LongitudeDegrees>
            </Position>
            <AltitudeMeters>5</AltitudeMeters>
            <DistanceMeters>58405.17676059</DistanceMeters>
          </Trackpoint>
          <Trackpoint>
            <Time>2018-04-21T12:01:33.000Z</Time>
            <Position>
              <LatitudeDegrees>43.27680031768977642059326171875</LatitudeDegrees>
              <LongitudeDegrees>-8.20163919590413570404052734375</LongitudeDegrees>
            </Position>
            <AltitudeMeters>5</AltitudeMeters>
            <DistanceMeters>58422.160243795</DistanceMeters>
          </Trackpoint>
          <Trackpoint>
            <Time>2018-04-21T12:01:36.000Z</Time>
            <Position>
              <LatitudeDegrees>43.276789672672748565673828125</LatitudeDegrees>
              <LongitudeDegrees>-8.20135789923369884490966796875</LongitudeDegrees>
            </Position>
            <AltitudeMeters>5</AltitudeMeters>
            <DistanceMeters>58444.985454866</DistanceMeters>
          </Trackpoint>
          <Trackpoint>
            <Time>2018-04-21T12:01:37.000Z</Time>
            <Position>
              <LatitudeDegrees>43.27678539790213108062744140625</LatitudeDegrees>
              <LongitudeDegrees>-8.2012622617185115814208984375</LongitudeDegrees>
            </Position>
            <AltitudeMeters>5</AltitudeMeters>
            <DistanceMeters>58452.749782934</DistanceMeters>
          </Trackpoint>
          <Trackpoint>
            <Time>2018-04-21T12:01:45.000Z</Time>
            <Position>
              <LatitudeDegrees>43.27682093717157840728759765625</LatitudeDegrees>
              <LongitudeDegrees>-8.20057687349617481231689453125</LongitudeDegrees>
            </Position>
            <AltitudeMeters>5</AltitudeMeters>
            <DistanceMeters>58508.429761608</DistanceMeters>
          </Trackpoint>
          <Trackpoint>
            <Time>2018-04-21T12:01:46.000Z</Time>
            <Position>
              <LatitudeDegrees>43.2768431492149829864501953125</LatitudeDegrees>
              <LongitudeDegrees>-8.20050068199634552001953125</LongitudeDegrees>
            </Position>
            <AltitudeMeters>4.80000019073486328125</AltitudeMeters>
            <DistanceMeters>58515.080273951</DistanceMeters>
          </Trackpoint>
          <Trackpoint>
            <Time>2018-04-21T12:01:50.000Z</Time>
            <Position>
              <LatitudeDegrees>43.2769672013819217681884765625</LatitudeDegrees>
              <LongitudeDegrees>-8.20018828846514225006103515625</LongitudeDegrees>
            </Position>
            <AltitudeMeters>4.400000095367431640625</AltitudeMeters>
            <DistanceMeters>58543.915206215</DistanceMeters>
          </Trackpoint>
          <Trackpoint>
            <Time>2018-04-21T12:01:52.000Z</Time>
            <Position>
              <LatitudeDegrees>43.27702201902866363525390625</LatitudeDegrees>
              <LongitudeDegrees>-8.2000344805419445037841796875</LongitudeDegrees>
            </Position>
            <AltitudeMeters>4</AltitudeMeters>
            <DistanceMeters>58557.792035109</DistanceMeters>
          </Trackpoint>
          <Trackpoint>
            <Time>2018-04-21T12:01:56.000Z</Time>
            <Position>
              <LatitudeDegrees>43.27709234319627285003662109375</LatitudeDegrees>
              <LongitudeDegrees>-8.1997075863182544708251953125</LongitudeDegrees>
            </Position>
            <AltitudeMeters>4</AltitudeMeters>
            <DistanceMeters>58585.413605643</DistanceMeters>
          </Trackpoint>
          <Trackpoint>
            <Time>2018-04-21T12:01:57.000Z</Time>
            <Position>
              <LatitudeDegrees>43.27710357494652271270751953125</LatitudeDegrees>
              <LongitudeDegrees>-8.19962234236299991607666015625</LongitudeDegrees>
            </Position>
            <AltitudeMeters>4</AltitudeMeters>
            <DistanceMeters>58592.43401569</DistanceMeters>
          </Trackpoint>
          <Trackpoint>
            <Time>2018-04-21T12:02:01.000Z</Time>
            <Position>
              <LatitudeDegrees>43.27719996683299541473388671875</LatitudeDegrees>
              <LongitudeDegrees>-8.1993193365633487701416015625</LongitudeDegrees>
            </Position>
            <AltitudeMeters>4</AltitudeMeters>
            <DistanceMeters>58619.22919022</DistanceMeters>
          </Trackpoint>
          <Trackpoint>
            <Time>2018-04-21T12:02:02.000Z</Time>
            <Position>
              <LatitudeDegrees>43.27724958769977092742919921875</LatitudeDegrees>
              <LongitudeDegrees>-8.1992777623236179351806640625</LongitudeDegrees>
            </Position>
            <AltitudeMeters>4</AltitudeMeters>
            <DistanceMeters>58625.698688216</DistanceMeters>
          </Trackpoint>
          <Trackpoint>
            <Time>2018-04-21T12:02:07.000Z</Time>
            <Position>
              <LatitudeDegrees>43.27748126350343227386474609375</LatitudeDegrees>
              <LongitudeDegrees>-8.1990910135209560394287109375</LongitudeDegrees>
            </Position>
            <AltitudeMeters>3.7999999523162841796875</AltitudeMeters>
            <DistanceMeters>58655.597239811</DistanceMeters>
          </Trackpoint>
          <Trackpoint>
            <Time>2018-04-21T12:02:13.000Z</Time>
            <Position>
              <LatitudeDegrees>43.27771344222128391265869140625</LatitudeDegrees>
              <LongitudeDegrees>-8.198783732950687408447265625</LongitudeDegrees>
            </Position>
            <AltitudeMeters>3.599999904632568359375</AltitudeMeters>
            <DistanceMeters>58691.48313205</DistanceMeters>
          </Trackpoint>
          <Trackpoint>
            <Time>2018-04-21T12:02:15.000Z</Time>
            <Position>
              <LatitudeDegrees>43.27777035534381866455078125</LatitudeDegrees>
              <LongitudeDegrees>-8.19866982288658618927001953125</LongitudeDegrees>
            </Position>
            <AltitudeMeters>4.19999980926513671875</AltitudeMeters>
            <DistanceMeters>58702.677746867</DistanceMeters>
          </Trackpoint>
          <Trackpoint>
            <Time>2018-04-21T12:02:18.000Z</Time>
            <Position>
              <LatitudeDegrees>43.27783648855984210968017578125</LatitudeDegrees>
              <LongitudeDegrees>-8.19845658726990222930908203125</LongitudeDegrees>
            </Position>
            <AltitudeMeters>4</AltitudeMeters>
            <DistanceMeters>58721.459170565</DistanceMeters>
          </Trackpoint>
          <Trackpoint>
            <Time>2018-04-21T12:02:22.000Z</Time>
            <Position>
              <LatitudeDegrees>43.27794134616851806640625</LatitudeDegrees>
              <LongitudeDegrees>-8.19816942326724529266357421875</LongitudeDegrees>
            </Position>
            <AltitudeMeters>4.599999904632568359375</AltitudeMeters>
            <DistanceMeters>58747.491461031</DistanceMeters>
          </Trackpoint>
          <Trackpoint>
            <Time>2018-04-21T12:02:24.000Z</Time>
            <Position>
              <LatitudeDegrees>43.27801066450774669647216796875</LatitudeDegrees>
              <LongitudeDegrees>-8.198036067187786102294921875</LongitudeDegrees>
            </Position>
            <AltitudeMeters>4.400000095367431640625</AltitudeMeters>
            <DistanceMeters>58760.76904298</DistanceMeters>
          </Trackpoint>
          <Trackpoint>
            <Time>2018-04-21T12:02:30.000Z</Time>
            <Position>
              <LatitudeDegrees>43.278176374733448028564453125</LatitudeDegrees>
              <LongitudeDegrees>-8.19762828759849071502685546875</LongitudeDegrees>
            </Position>
            <AltitudeMeters>4.80000019073486328125</AltitudeMeters>
            <DistanceMeters>58798.611038338</DistanceMeters>
          </Trackpoint>
          <Trackpoint>
            <Time>2018-04-21T12:02:37.000Z</Time>
            <Position>
              <LatitudeDegrees>43.2783140055835247039794921875</LatitudeDegrees>
              <LongitudeDegrees>-8.197118081152439117431640625</LongitudeDegrees>
            </Position>
            <AltitudeMeters>4.80000019073486328125</AltitudeMeters>
            <DistanceMeters>58842.700566528</DistanceMeters>
          </Trackpoint>
          <Trackpoint>
            <Time>2018-04-21T12:02:39.000Z</Time>
            <Position>
              <LatitudeDegrees>43.27834744937717914581298828125</LatitudeDegrees>
              <LongitudeDegrees>-8.1969697214663028717041015625</LongitudeDegrees>
            </Position>
            <AltitudeMeters>4.80000019073486328125</AltitudeMeters>
            <DistanceMeters>58855.285777723</DistanceMeters>
          </Trackpoint>
          <Trackpoint>
            <Time>2018-04-21T12:02:43.000Z</Time>
            <Position>
              <LatitudeDegrees>43.278402350842952728271484375</LatitudeDegrees>
              <LongitudeDegrees>-8.19667048752307891845703125</LongitudeDegrees>
            </Position>
            <AltitudeMeters>5.19999980926513671875</AltitudeMeters>
            <DistanceMeters>58880.291168806</DistanceMeters>
          </Trackpoint>
          <Trackpoint>
            <Time>2018-04-21T12:02:45.000Z</Time>
            <Position>
              <LatitudeDegrees>43.2784199528396129608154296875</LatitudeDegrees>
              <LongitudeDegrees>-8.19652908481657505035400390625</LongitudeDegrees>
            </Position>
            <AltitudeMeters>5</AltitudeMeters>
            <DistanceMeters>58891.915542505</DistanceMeters>
          </Trackpoint>
          <Trackpoint>
            <Time>2018-04-21T12:02:46.000Z</Time>
            <Position>
              <LatitudeDegrees>43.27843545936048030853271484375</LatitudeDegrees>
              <LongitudeDegrees>-8.19645951502025127410888671875</LongitudeDegrees>
            </Position>
            <AltitudeMeters>5.19999980926513671875</AltitudeMeters>
            <DistanceMeters>58897.811029273</DistanceMeters>
          </Trackpoint>
          <Trackpoint>
            <Time>2018-04-21T12:02:49.000Z</Time>
            <Position>
              <LatitudeDegrees>43.27854509465396404266357421875</LatitudeDegrees>
              <LongitudeDegrees>-8.19628651253879070281982421875</LongitudeDegrees>
            </Position>
            <AltitudeMeters>5</AltitudeMeters>
            <DistanceMeters>58916.396709627</DistanceMeters>
          </Trackpoint>
          <Trackpoint>
            <Time>2018-04-21T12:02:50.000Z</Time>
            <Position>
              <LatitudeDegrees>43.27858683653175830841064453125</LatitudeDegrees>
              <LongitudeDegrees>-8.1962299346923828125</LongitudeDegrees>
            </Position>
            <AltitudeMeters>5</AltitudeMeters>
            <DistanceMeters>58922.923184218</DistanceMeters>
          </Trackpoint>
          <Trackpoint>
            <Time>2018-04-21T12:02:57.000Z</Time>
            <Position>
              <LatitudeDegrees>43.27888213098049163818359375</LatitudeDegrees>
              <LongitudeDegrees>-8.1958187185227870941162109375</LongitudeDegrees>
            </Position>
            <AltitudeMeters>4.19999980926513671875</AltitudeMeters>
            <DistanceMeters>58969.726421649</DistanceMeters>
          </Trackpoint>
          <Trackpoint>
            <Time>2018-04-21T12:02:58.000Z</Time>
            <Position>
              <LatitudeDegrees>43.2789248786866664886474609375</LatitudeDegrees>
              <LongitudeDegrees>-8.1957580335438251495361328125</LongitudeDegrees>
            </Position>
            <AltitudeMeters>4</AltitudeMeters>
            <DistanceMeters>58976.569004959</DistanceMeters>
          </Trackpoint>
          <Trackpoint>
            <Time>2018-04-21T12:03:03.000Z</Time>
            <Position>
              <LatitudeDegrees>43.2791166566312313079833984375</LatitudeDegrees>
              <LongitudeDegrees>-8.19540859200060367584228515625</LongitudeDegrees>
            </Position>
            <AltitudeMeters>3.400000095367431640625</AltitudeMeters>
            <DistanceMeters>59012.028615284</DistanceMeters>
          </Trackpoint>
          <Trackpoint>
            <Time>2018-04-21T12:03:09.000Z</Time>
            <Position>
              <LatitudeDegrees>43.27928178012371063232421875</LatitudeDegrees>
              <LongitudeDegrees>-8.19495479576289653778076171875</LongitudeDegrees>
            </Position>
            <AltitudeMeters>4.400000095367431640625</AltitudeMeters>
            <DistanceMeters>59053.136868783</DistanceMeters>
          </Trackpoint>
          <Trackpoint>
            <Time>2018-04-21T12:03:15.000Z</Time>
            <Position>
              <LatitudeDegrees>43.27943022362887859344482421875</LatitudeDegrees>
              <LongitudeDegrees>-8.194564282894134521484375</LongitudeDegrees>
            </Position>
            <AltitudeMeters>5.19999980926513671875</AltitudeMeters>
            <DistanceMeters>59088.834043285</DistanceMeters>
          </Trackpoint>
          <Trackpoint>
            <Time>2018-04-21T12:03:16.000Z</Time>
            <Position>
              <LatitudeDegrees>43.27945369295775890350341796875</LatitudeDegrees>
              <LongitudeDegrees>-8.19450736977159976959228515625</LongitudeDegrees>
            </Position>
            <AltitudeMeters>5.599999904632568359375</AltitudeMeters>
            <DistanceMeters>59094.133433603</DistanceMeters>
          </Trackpoint>
          <Trackpoint>
            <Time>2018-04-21T12:03:19.000Z</Time>
            <Position>
              <LatitudeDegrees>43.2795106060802936553955078125</LatitudeDegrees>
              <LongitudeDegrees>-8.19440309889614582061767578125</LongitudeDegrees>
            </Position>
            <AltitudeMeters>6.19999980926513671875</AltitudeMeters>
            <DistanceMeters>59104.693805002</DistanceMeters>
          </Trackpoint>
          <Trackpoint>
            <Time>2018-04-21T12:03:20.000Z</Time>
            <Position>
              <LatitudeDegrees>43.27952854335308074951171875</LatitudeDegrees>
              <LongitudeDegrees>-8.19439203478395938873291015625</LongitudeDegrees>
            </Position>
            <AltitudeMeters>6.400000095367431640625</AltitudeMeters>
            <DistanceMeters>59106.883547131</DistanceMeters>
          </Trackpoint>
          <Trackpoint>
            <Time>2018-04-21T12:03:23.000Z</Time>
            <Position>
              <LatitudeDegrees>43.2795991189777851104736328125</LatitudeDegrees>
              <LongitudeDegrees>-8.194363117218017578125</LongitudeDegrees>
            </Position>
            <AltitudeMeters>4.19999980926513671875</AltitudeMeters>
            <DistanceMeters>59115.081219294</DistanceMeters>
          </Trackpoint>
          <Trackpoint>
            <Time>2018-04-21T12:03:24.000Z</Time>
            <Position>
              <LatitudeDegrees>43.2796319760382175445556640625</LatitudeDegrees>
              <LongitudeDegrees>-8.19432011805474758148193359375</LongitudeDegrees>
            </Position>
            <AltitudeMeters>3.2000000476837158203125</AltitudeMeters>
            <DistanceMeters>59120.132852301</DistanceMeters>
          </Trackpoint>
          <Trackpoint>
            <Time>2018-04-21T12:03:25.000Z</Time>
            <Position>
              <LatitudeDegrees>43.27965418808162212371826171875</LatitudeDegrees>
              <LongitudeDegrees>-8.19427250884473323822021484375</LongitudeDegrees>
            </Position>
            <AltitudeMeters>2.599999904632568359375</AltitudeMeters>
            <DistanceMeters>59124.715859808</DistanceMeters>
          </Trackpoint>
          <Trackpoint>
            <Time>2018-04-21T12:03:30.000Z</Time>
            <Position>
              <LatitudeDegrees>43.2797452993690967559814453125</LatitudeDegrees>
              <LongitudeDegrees>-8.19404653273522853851318359375</LongitudeDegrees>
            </Position>
            <AltitudeMeters>3.7999999523162841796875</AltitudeMeters>
            <DistanceMeters>59145.647205892</DistanceMeters>
          </Trackpoint>
          <Trackpoint>
            <Time>2018-04-21T12:03:32.000Z</Time>
            <Position>
              <LatitudeDegrees>43.27977036125957965850830078125</LatitudeDegrees>
              <LongitudeDegrees>-8.19397310726344585418701171875</LongitudeDegrees>
            </Position>
            <AltitudeMeters>3.7999999523162841796875</AltitudeMeters>
            <DistanceMeters>59152.217119545</DistanceMeters>
          </Trackpoint>
          <Trackpoint>
            <Time>2018-04-21T12:03:38.000Z</Time>
            <Position>
              <LatitudeDegrees>43.279794752597808837890625</LatitudeDegrees>
              <LongitudeDegrees>-8.19371628575026988983154296875</LongitudeDegrees>
            </Position>
            <AltitudeMeters>4.400000095367431640625</AltitudeMeters>
            <DistanceMeters>59173.203613975</DistanceMeters>
          </Trackpoint>
          <Trackpoint>
            <Time>2018-04-21T12:03:39.000Z</Time>
            <Position>
              <LatitudeDegrees>43.2797992788255214691162109375</LatitudeDegrees>
              <LongitudeDegrees>-8.19367102347314357757568359375</LongitudeDegrees>
            </Position>
            <AltitudeMeters>4.80000019073486328125</AltitudeMeters>
            <DistanceMeters>59176.907218452</DistanceMeters>
          </Trackpoint>
          <Trackpoint>
            <Time>2018-04-21T12:03:44.000Z</Time>
            <Position>
              <LatitudeDegrees>43.2798230834305286407470703125</LatitudeDegrees>
              <LongitudeDegrees>-8.193439431488513946533203125</LongitudeDegrees>
            </Position>
            <AltitudeMeters>4.400000095367431640625</AltitudeMeters>
            <DistanceMeters>59195.859271655</DistanceMeters>
          </Trackpoint>
          <Trackpoint>
            <Time>2018-04-21T12:03:45.000Z</Time>
            <Position>
              <LatitudeDegrees>43.27983423136174678802490234375</LatitudeDegrees>
              <LongitudeDegrees>-8.1933849491178989410400390625</LongitudeDegrees>
            </Position>
            <AltitudeMeters>4.400000095367431640625</AltitudeMeters>
            <DistanceMeters>59200.445233718</DistanceMeters>
          </Trackpoint>
          <Trackpoint>
            <Time>2018-04-21T12:03:48.000Z</Time>
            <Position>
              <LatitudeDegrees>43.27986289747059345245361328125</LatitudeDegrees>
              <LongitudeDegrees>-8.1932665966451168060302734375</LongitudeDegrees>
            </Position>
            <AltitudeMeters>5.400000095367431640625</AltitudeMeters>
            <DistanceMeters>59210.55207421</DistanceMeters>
          </Trackpoint>
          <Trackpoint>
            <Time>2018-04-21T12:03:50.000Z</Time>
            <Position>
              <LatitudeDegrees>43.27989994548261165618896484375</LatitudeDegrees>
              <LongitudeDegrees>-8.1931735575199127197265625</LongitudeDegrees>
            </Position>
            <AltitudeMeters>5</AltitudeMeters>
            <DistanceMeters>59219.145032669</DistanceMeters>
          </Trackpoint>
          <Trackpoint>
            <Time>2018-04-21T12:03:52.000Z</Time>
            <Position>
              <LatitudeDegrees>43.27995711006224155426025390625</LatitudeDegrees>
              <LongitudeDegrees>-8.1930394470691680908203125</LongitudeDegrees>
            </Position>
            <AltitudeMeters>4.19999980926513671875</AltitudeMeters>
            <DistanceMeters>59231.737416969</DistanceMeters>
          </Trackpoint>
          <Trackpoint>
            <Time>2018-04-21T12:03:57.000Z</Time>
            <Position>
              <LatitudeDegrees>43.2800607942044734954833984375</LatitudeDegrees>
              <LongitudeDegrees>-8.19270861335098743438720703125</LongitudeDegrees>
            </Position>
            <AltitudeMeters>4.400000095367431640625</AltitudeMeters>
            <DistanceMeters>59260.923151686</DistanceMeters>
          </Trackpoint>
          <Trackpoint>
            <Time>2018-04-21T12:03:58.000Z</Time>
            <Position>
              <LatitudeDegrees>43.280074037611484527587890625</LatitudeDegrees>
              <LongitudeDegrees>-8.192642144858837127685546875</LongitudeDegrees>
            </Position>
            <AltitudeMeters>3.400000095367431640625</AltitudeMeters>
            <DistanceMeters>59266.507133595</DistanceMeters>
          </Trackpoint>
          <Trackpoint>
            <Time>2018-04-21T12:04:02.000Z</Time>
            <Position>
              <LatitudeDegrees>43.2801100797951221466064453125</LatitudeDegrees>
              <LongitudeDegrees>-8.192421533167362213134765625</LongitudeDegrees>
            </Position>
            <AltitudeMeters>4</AltitudeMeters>
            <DistanceMeters>59284.827830673</DistanceMeters>
          </Trackpoint>
          <Trackpoint>
            <Time>2018-04-21T12:04:05.000Z</Time>
            <Position>
              <LatitudeDegrees>43.28010546974837779998779296875</LatitudeDegrees>
              <LongitudeDegrees>-8.19228180684149265289306640625</LongitudeDegrees>
            </Position>
            <AltitudeMeters>4.400000095367431640625</AltitudeMeters>
            <DistanceMeters>59296.161932644</DistanceMeters>
          </Trackpoint>
          <Trackpoint>
            <Time>2018-04-21T12:04:07.000Z</Time>
            <Position>
              <LatitudeDegrees>43.2801077328622341156005859375</LatitudeDegrees>
              <LongitudeDegrees>-8.192196898162364959716796875</LongitudeDegrees>
            </Position>
            <AltitudeMeters>4.400000095367431640625</AltitudeMeters>
            <DistanceMeters>59303.046616461</DistanceMeters>
          </Trackpoint>
          <Trackpoint>
            <Time>2018-04-21T12:04:13.000Z</Time>
            <Position>
              <LatitudeDegrees>43.28012994490563869476318359375</LatitudeDegrees>
              <LongitudeDegrees>-8.19190328009426593780517578125</LongitudeDegrees>
            </Position>
            <AltitudeMeters>4</AltitudeMeters>
            <DistanceMeters>59326.966371342</DistanceMeters>
          </Trackpoint>
          <Trackpoint>
            <Time>2018-04-21T12:04:18.000Z</Time>
            <Position>
              <LatitudeDegrees>43.2801555097103118896484375</LatitudeDegrees>
              <LongitudeDegrees>-8.19173849187791347503662109375</LongitudeDegrees>
            </Position>
            <AltitudeMeters>5.599999904632568359375</AltitudeMeters>
            <DistanceMeters>59340.618836609</DistanceMeters>
          </Trackpoint>
          <Trackpoint>
            <Time>2018-04-21T12:04:21.000Z</Time>
            <Position>
              <LatitudeDegrees>43.28017386607825756072998046875</LatitudeDegrees>
              <LongitudeDegrees>-8.191688619554042816162109375</LongitudeDegrees>
            </Position>
            <AltitudeMeters>6.80000019073486328125</AltitudeMeters>
            <DistanceMeters>59345.146338517</DistanceMeters>
          </Trackpoint>
          <Trackpoint>
            <Time>2018-04-21T12:04:23.000Z</Time>
            <Position>
              <LatitudeDegrees>43.2801928929984569549560546875</LatitudeDegrees>
              <LongitudeDegrees>-8.19165282882750034332275390625</LongitudeDegrees>
            </Position>
            <AltitudeMeters>7.599999904632568359375</AltitudeMeters>
            <DistanceMeters>59348.737292313</DistanceMeters>
          </Trackpoint>
          <Trackpoint>
            <Time>2018-04-21T12:04:24.000Z</Time>
            <Position>
              <LatitudeDegrees>43.2802104949951171875</LatitudeDegrees>
              <LongitudeDegrees>-8.1916331313550472259521484375</LongitudeDegrees>
            </Position>
            <AltitudeMeters>7.599999904632568359375</AltitudeMeters>
            <DistanceMeters>59351.265788728</DistanceMeters>
          </Trackpoint>
          <Trackpoint>
            <Time>2018-04-21T12:04:28.000Z</Time>
            <Position>
              <LatitudeDegrees>43.28030596487224102020263671875</LatitudeDegrees>
              <LongitudeDegrees>-8.19156800396740436553955078125</LongitudeDegrees>
            </Position>
            <AltitudeMeters>7.80000019073486328125</AltitudeMeters>
            <DistanceMeters>59363.130055735</DistanceMeters>
          </Trackpoint>
          <Trackpoint>
            <Time>2018-04-21T12:04:29.000Z</Time>
            <Position>
              <LatitudeDegrees>43.28032909892499446868896484375</LatitudeDegrees>
              <LongitudeDegrees>-8.191552497446537017822265625</LongitudeDegrees>
            </Position>
            <AltitudeMeters>8</AltitudeMeters>
            <DistanceMeters>59365.996651201</DistanceMeters>
          </Trackpoint>
          <Trackpoint>
            <Time>2018-04-21T12:04:30.000Z</Time>
            <Position>
              <LatitudeDegrees>43.28035541810095310211181640625</LatitudeDegrees>
              <LongitudeDegrees>-8.19153405725955963134765625</LongitudeDegrees>
            </Position>
            <AltitudeMeters>8</AltitudeMeters>
            <DistanceMeters>59369.285728819</DistanceMeters>
          </Trackpoint>
          <Trackpoint>
            <Time>2018-04-21T12:04:34.000Z</Time>
            <Position>
              <LatitudeDegrees>43.2804825715720653533935546875</LatitudeDegrees>
              <LongitudeDegrees>-8.1914638169109821319580078125</LongitudeDegrees>
            </Position>
            <AltitudeMeters>7</AltitudeMeters>
            <DistanceMeters>59384.53951457</DistanceMeters>
          </Trackpoint>
          <Trackpoint>
            <Time>2018-04-21T12:04:35.000Z</Time>
            <Position>
              <LatitudeDegrees>43.2805217988789081573486328125</LatitudeDegrees>
              <LongitudeDegrees>-8.19143339060246944427490234375</LongitudeDegrees>
            </Position>
            <AltitudeMeters>7</AltitudeMeters>
            <DistanceMeters>59389.553468381</DistanceMeters>
          </Trackpoint>
          <Trackpoint>
            <Time>2018-04-21T12:04:36.000Z</Time>
            <Position>
              <LatitudeDegrees>43.28055826015770435333251953125</LatitudeDegrees>
              <LongitudeDegrees>-8.19140304811298847198486328125</LongitudeDegrees>
            </Position>
            <AltitudeMeters>6.80000019073486328125</AltitudeMeters>
            <DistanceMeters>59394.297195871</DistanceMeters>
          </Trackpoint>
          <Trackpoint>
            <Time>2018-04-21T12:04:42.000Z</Time>
            <Position>
              <LatitudeDegrees>43.28076747246086597442626953125</LatitudeDegrees>
              <LongitudeDegrees>-8.1911972723901271820068359375</LongitudeDegrees>
            </Position>
            <AltitudeMeters>7.19999980926513671875</AltitudeMeters>
            <DistanceMeters>59422.936835073</DistanceMeters>
          </Trackpoint>
          <Trackpoint>
            <Time>2018-04-21T12:04:45.000Z</Time>
            <Position>
              <LatitudeDegrees>43.28084877692162990570068359375</LatitudeDegrees>
              <LongitudeDegrees>-8.19109459407627582550048828125</LongitudeDegrees>
            </Position>
            <AltitudeMeters>7.80000019073486328125</AltitudeMeters>
            <DistanceMeters>59435.228752705</DistanceMeters>
          </Trackpoint>
          <Trackpoint>
            <Time>2018-04-21T12:04:49.000Z</Time>
            <Position>
              <LatitudeDegrees>43.28096495009958744049072265625</LatitudeDegrees>
              <LongitudeDegrees>-8.19097255356609821319580078125</LongitudeDegrees>
            </Position>
            <AltitudeMeters>8.3999996185302734375</AltitudeMeters>
            <DistanceMeters>59451.50691486</DistanceMeters>
          </Trackpoint>
          <Trackpoint>
            <Time>2018-04-21T12:04:52.000Z</Time>
            <Position>
              <LatitudeDegrees>43.28099797479808330535888671875</LatitudeDegrees>
              <LongitudeDegrees>-8.1908428855240345001220703125</LongitudeDegrees>
            </Position>
            <AltitudeMeters>9</AltitudeMeters>
            <DistanceMeters>59462.638433578</DistanceMeters>
          </Trackpoint>
          <Trackpoint>
            <Time>2018-04-21T12:04:53.000Z</Time>
            <Position>
              <LatitudeDegrees>43.28100509941577911376953125</LatitudeDegrees>
              <LongitudeDegrees>-8.1908043287694454193115234375</LongitudeDegrees>
            </Position>
            <AltitudeMeters>9.19999980926513671875</AltitudeMeters>
            <DistanceMeters>59465.860946248</DistanceMeters>
          </Trackpoint>
          <Trackpoint>
            <Time>2018-04-21T12:04:59.000Z</Time>
            <Position>
              <LatitudeDegrees>43.28106285072863101959228515625</LatitudeDegrees>
              <LongitudeDegrees>-8.190458826720714569091796875</LongitudeDegrees>
            </Position>
            <AltitudeMeters>9.6000003814697265625</AltitudeMeters>
            <DistanceMeters>59494.584647167</DistanceMeters>
          </Trackpoint>
          <Trackpoint>
            <Time>2018-04-21T12:05:05.000Z</Time>
            <Position>
              <LatitudeDegrees>43.2811326719820499420166015625</LatitudeDegrees>
              <LongitudeDegrees>-8.19014878012239933013916015625</LongitudeDegrees>
            </Position>
            <AltitudeMeters>9.19999980926513671875</AltitudeMeters>
            <DistanceMeters>59520.881476901</DistanceMeters>
          </Trackpoint>
          <Trackpoint>
            <Time>2018-04-21T12:05:10.000Z</Time>
            <Position>
              <LatitudeDegrees>43.28116661868989467620849609375</LatitudeDegrees>
              <LongitudeDegrees>-8.189916349947452545166015625</LongitudeDegrees>
            </Position>
            <AltitudeMeters>10.3999996185302734375</AltitudeMeters>
            <DistanceMeters>59540.090040708</DistanceMeters>
          </Trackpoint>
          <Trackpoint>
            <Time>2018-04-21T12:05:15.000Z</Time>
            <Position>
              <LatitudeDegrees>43.2811940275132656097412109375</LatitudeDegrees>
              <LongitudeDegrees>-8.18972046487033367156982421875</LongitudeDegrees>
            </Position>
            <AltitudeMeters>11</AltitudeMeters>
            <DistanceMeters>59556.252685338</DistanceMeters>
          </Trackpoint>
          <Trackpoint>
            <Time>2018-04-21T12:05:19.000Z</Time>
            <Position>
              <LatitudeDegrees>43.2812691293656826019287109375</LatitudeDegrees>
              <LongitudeDegrees>-8.18946230225265026092529296875</LongitudeDegrees>
            </Position>
            <AltitudeMeters>10.19999980926513671875</AltitudeMeters>
            <DistanceMeters>59578.779428908</DistanceMeters>
          </Trackpoint>
          <Trackpoint>
            <Time>2018-04-21T12:05:20.000Z</Time>
            <Position>
              <LatitudeDegrees>43.2812941074371337890625</LatitudeDegrees>
              <LongitudeDegrees>-8.18939507938921451568603515625</LongitudeDegrees>
            </Position>
            <AltitudeMeters>10.3999996185302734375</AltitudeMeters>
            <DistanceMeters>59584.895193507</DistanceMeters>
          </Trackpoint>
          <Trackpoint>
            <Time>2018-04-21T12:05:26.000Z</Time>
            <Position>
              <LatitudeDegrees>43.2814146392047405242919921875</LatitudeDegrees>
              <LongitudeDegrees>-8.18900875747203826904296875</LongitudeDegrees>
            </Position>
            <AltitudeMeters>10.3999996185302734375</AltitudeMeters>
            <DistanceMeters>59618.951500537</DistanceMeters>
          </Trackpoint>
          <Trackpoint>
            <Time>2018-04-21T12:05:28.000Z</Time>
            <Position>
              <LatitudeDegrees>43.2814357616007328033447265625</LatitudeDegrees>
              <LongitudeDegrees>-8.188884370028972625732421875</LongitudeDegrees>
            </Position>
            <AltitudeMeters>10.6000003814697265625</AltitudeMeters>
            <DistanceMeters>59629.300254405</DistanceMeters>
          </Trackpoint>
          <Trackpoint>
            <Time>2018-04-21T12:05:32.000Z</Time>
            <Position>
              <LatitudeDegrees>43.28144590370357036590576171875</LatitudeDegrees>
              <LongitudeDegrees>-8.18861304782330989837646484375</LongitudeDegrees>
            </Position>
            <AltitudeMeters>10.19999980926513671875</AltitudeMeters>
            <DistanceMeters>59651.313659918</DistanceMeters>
          </Trackpoint>
          <Trackpoint>
            <Time>2018-04-21T12:05:34.000Z</Time>
            <Position>
              <LatitudeDegrees>43.2814428023993968963623046875</LatitudeDegrees>
              <LongitudeDegrees>-8.18846452049911022186279296875</LongitudeDegrees>
            </Position>
            <AltitudeMeters>10.19999980926513671875</AltitudeMeters>
            <DistanceMeters>59663.353210868</DistanceMeters>
          </Trackpoint>
          <Trackpoint>
            <Time>2018-04-21T12:05:37.000Z</Time>
            <Position>
              <LatitudeDegrees>43.281415142118930816650390625</LatitudeDegrees>
              <LongitudeDegrees>-8.18826603703200817108154296875</LongitudeDegrees>
            </Position>
            <AltitudeMeters>10</AltitudeMeters>
            <DistanceMeters>59679.72761253</DistanceMeters>
          </Trackpoint>
          <Trackpoint>
            <Time>2018-04-21T12:05:39.000Z</Time>
            <Position>
              <LatitudeDegrees>43.28138052485883235931396484375</LatitudeDegrees>
              <LongitudeDegrees>-8.18813092075288295745849609375</LongitudeDegrees>
            </Position>
            <AltitudeMeters>9.6000003814697265625</AltitudeMeters>
            <DistanceMeters>59691.334105557</DistanceMeters>
          </Trackpoint>
          <Trackpoint>
            <Time>2018-04-21T12:05:40.000Z</Time>
            <Position>
              <LatitudeDegrees>43.2813584804534912109375</LatitudeDegrees>
              <LongitudeDegrees>-8.1880577467381954193115234375</LongitudeDegrees>
            </Position>
            <AltitudeMeters>9</AltitudeMeters>
            <DistanceMeters>59697.750344214</DistanceMeters>
          </Trackpoint>
          <Trackpoint>
            <Time>2018-04-21T12:05:42.000Z</Time>
            <Position>
              <LatitudeDegrees>43.2813117094337940216064453125</LatitudeDegrees>
              <LongitudeDegrees>-8.187902681529521942138671875</LongitudeDegrees>
            </Position>
            <AltitudeMeters>8.3999996185302734375</AltitudeMeters>
            <DistanceMeters>59711.35045656</DistanceMeters>
          </Trackpoint>
          <Trackpoint>
            <Time>2018-04-21T12:05:43.000Z</Time>
            <Position>
              <LatitudeDegrees>43.2812838815152645111083984375</LatitudeDegrees>
              <LongitudeDegrees>-8.18784224800765514373779296875</LongitudeDegrees>
            </Position>
            <AltitudeMeters>8.19999980926513671875</AltitudeMeters>
            <DistanceMeters>59717.144748943</DistanceMeters>
          </Trackpoint>
          <Trackpoint>
            <Time>2018-04-21T12:05:46.000Z</Time>
            <Position>
              <LatitudeDegrees>43.28118489123880863189697265625</LatitudeDegrees>
              <LongitudeDegrees>-8.18771056830883026123046875</LongitudeDegrees>
            </Position>
            <AltitudeMeters>8.6000003814697265625</AltitudeMeters>
            <DistanceMeters>59732.482366797</DistanceMeters>
          </Trackpoint>
          <Trackpoint>
            <Time>2018-04-21T12:05:47.000Z</Time>
            <Position>
              <LatitudeDegrees>43.28114331699907779693603515625</LatitudeDegrees>
              <LongitudeDegrees>-8.18767963908612728118896484375</LongitudeDegrees>
            </Position>
            <AltitudeMeters>8</AltitudeMeters>
            <DistanceMeters>59737.74499394</DistanceMeters>
          </Trackpoint>
          <Trackpoint>
            <Time>2018-04-21T12:05:49.000Z</Time>
            <Position>
              <LatitudeDegrees>43.28106368891894817352294921875</LatitudeDegrees>
              <LongitudeDegrees>-8.18763638846576213836669921875</LongitudeDegrees>
            </Position>
            <AltitudeMeters>7.80000019073486328125</AltitudeMeters>
            <DistanceMeters>59747.275183281</DistanceMeters>
          </Trackpoint>
          <Trackpoint>
            <Time>2018-04-21T12:05:50.000Z</Time>
            <Position>
              <LatitudeDegrees>43.28102814964950084686279296875</LatitudeDegrees>
              <LongitudeDegrees>-8.1876205466687679290771484375</LongitudeDegrees>
            </Position>
            <AltitudeMeters>7.80000019073486328125</AltitudeMeters>
            <DistanceMeters>59751.432534158</DistanceMeters>
          </Trackpoint>
          <Trackpoint>
            <Time>2018-04-21T12:05:54.000Z</Time>
            <Position>
              <LatitudeDegrees>43.28087509609758853912353515625</LatitudeDegrees>
              <LongitudeDegrees>-8.1876054592430591583251953125</LongitudeDegrees>
            </Position>
            <AltitudeMeters>8.19999980926513671875</AltitudeMeters>
            <DistanceMeters>59768.511454771</DistanceMeters>
          </Trackpoint>
          <Trackpoint>
            <Time>2018-04-21T12:05:56.000Z</Time>
            <Position>
              <LatitudeDegrees>43.2807910256087779998779296875</LatitudeDegrees>
              <LongitudeDegrees>-8.18756782449781894683837890625</LongitudeDegrees>
            </Position>
            <AltitudeMeters>7.19999980926513671875</AltitudeMeters>
            <DistanceMeters>59778.353029845</DistanceMeters>
          </Trackpoint>
          <Trackpoint>
            <Time>2018-04-21T12:05:58.000Z</Time>
            <Position>
              <LatitudeDegrees>43.280696980655193328857421875</LatitudeDegrees>
              <LongitudeDegrees>-8.187515102326869964599609375</LongitudeDegrees>
            </Position>
            <AltitudeMeters>6.80000019073486328125</AltitudeMeters>
            <DistanceMeters>59789.658413606</DistanceMeters>
          </Trackpoint>
          <Trackpoint>
            <Time>2018-04-21T12:05:59.000Z</Time>
            <Position>
              <LatitudeDegrees>43.280643336474895477294921875</LatitudeDegrees>
              <LongitudeDegrees>-8.1874897889792919158935546875</LongitudeDegrees>
            </Position>
            <AltitudeMeters>6.599999904632568359375</AltitudeMeters>
            <DistanceMeters>59795.971792846</DistanceMeters>
          </Trackpoint>
          <Trackpoint>
            <Time>2018-04-21T12:06:03.000Z</Time>
            <Position>
              <LatitudeDegrees>43.28039355576038360595703125</LatitudeDegrees>
              <LongitudeDegrees>-8.187347464263439178466796875</LongitudeDegrees>
            </Position>
            <AltitudeMeters>6.400000095367431640625</AltitudeMeters>
            <DistanceMeters>59826.069770166</DistanceMeters>
          </Trackpoint>
          <Trackpoint>
            <Time>2018-04-21T12:06:04.000Z</Time>
            <Position>
              <LatitudeDegrees>43.28033932484686374664306640625</LatitudeDegrees>
              <LongitudeDegrees>-8.18733648397028446197509765625</LongitudeDegrees>
            </Position>
            <AltitudeMeters>6.400000095367431640625</AltitudeMeters>
            <DistanceMeters>59832.170751653</DistanceMeters>
          </Trackpoint>
          <Trackpoint>
            <Time>2018-04-21T12:06:09.000Z</Time>
            <Position>
              <LatitudeDegrees>43.280122987926006317138671875</LatitudeDegrees>
              <LongitudeDegrees>-8.18721771240234375</LongitudeDegrees>
            </Position>
            <AltitudeMeters>6.599999904632568359375</AltitudeMeters>
            <DistanceMeters>59858.101555386</DistanceMeters>
          </Trackpoint>
          <Trackpoint>
            <Time>2018-04-21T12:06:10.000Z</Time>
            <Position>
              <LatitudeDegrees>43.2800882868468761444091796875</LatitudeDegrees>
              <LongitudeDegrees>-8.18718485534191131591796875</LongitudeDegrees>
            </Position>
            <AltitudeMeters>6.80000019073486328125</AltitudeMeters>
            <DistanceMeters>59862.792642285</DistanceMeters>
          </Trackpoint>
          <Trackpoint>
            <Time>2018-04-21T12:06:15.000Z</Time>
            <Position>
              <LatitudeDegrees>43.27993615530431270599365234375</LatitudeDegrees>
              <LongitudeDegrees>-8.18699751980602741241455078125</LongitudeDegrees>
            </Position>
            <AltitudeMeters>7.400000095367431640625</AltitudeMeters>
            <DistanceMeters>59885.533033392</DistanceMeters>
          </Trackpoint>
          <Trackpoint>
            <Time>2018-04-21T12:06:17.000Z</Time>
            <Position>
              <LatitudeDegrees>43.27986993826925754547119140625</LatitudeDegrees>
              <LongitudeDegrees>-8.18691638298332691192626953125</LongitudeDegrees>
            </Position>
            <AltitudeMeters>7.599999904632568359375</AltitudeMeters>
            <DistanceMeters>59895.408499234</DistanceMeters>
          </Trackpoint>
          <Trackpoint>
            <Time>2018-04-21T12:06:20.000Z</Time>
            <Position>
              <LatitudeDegrees>43.279789388179779052734375</LatitudeDegrees>
              <LongitudeDegrees>-8.18680004216730594635009765625</LongitudeDegrees>
            </Position>
            <AltitudeMeters>7.400000095367431640625</AltitudeMeters>
            <DistanceMeters>59908.418138845</DistanceMeters>
          </Trackpoint>
          <Trackpoint>
            <Time>2018-04-21T12:06:23.000Z</Time>
            <Position>
              <LatitudeDegrees>43.2796593010425567626953125</LatitudeDegrees>
              <LongitudeDegrees>-8.1866438873112201690673828125</LongitudeDegrees>
            </Position>
            <AltitudeMeters>6.400000095367431640625</AltitudeMeters>
            <DistanceMeters>59927.646906618</DistanceMeters>
          </Trackpoint>
          <Trackpoint>
            <Time>2018-04-21T12:06:24.000Z</Time>
            <Position>
              <LatitudeDegrees>43.27961294911801815032958984375</LatitudeDegrees>
              <LongitudeDegrees>-8.1865778379142284393310546875</LongitudeDegrees>
            </Position>
            <AltitudeMeters>5.80000019073486328125</AltitudeMeters>
            <DistanceMeters>59935.080887236</DistanceMeters>
          </Trackpoint>
          <Trackpoint>
            <Time>2018-04-21T12:06:26.000Z</Time>
            <Position>
              <LatitudeDegrees>43.279521502554416656494140625</LatitudeDegrees>
              <LongitudeDegrees>-8.186448253691196441650390625</LongitudeDegrees>
            </Position>
            <AltitudeMeters>4.599999904632568359375</AltitudeMeters>
            <DistanceMeters>59949.704507525</DistanceMeters>
          </Trackpoint>
          <Trackpoint>
            <Time>2018-04-21T12:06:28.000Z</Time>
            <Position>
              <LatitudeDegrees>43.27945335768163204193115234375</LatitudeDegrees>
              <LongitudeDegrees>-8.18635110743343830108642578125</LongitudeDegrees>
            </Position>
            <AltitudeMeters>4.599999904632568359375</AltitudeMeters>
            <DistanceMeters>59960.635471412</DistanceMeters>
          </Trackpoint>
          <Trackpoint>
            <Time>2018-04-21T12:06:34.000Z</Time>
            <Position>
              <LatitudeDegrees>43.2792715542018413543701171875</LatitudeDegrees>
              <LongitudeDegrees>-8.1860963813960552215576171875</LongitudeDegrees>
            </Position>
            <AltitudeMeters>4.19999980926513671875</AltitudeMeters>
            <DistanceMeters>59989.54015499</DistanceMeters>
          </Trackpoint>
          <Trackpoint>
            <Time>2018-04-21T12:06:37.000Z</Time>
            <Position>
              <LatitudeDegrees>43.27916242182254791259765625</LatitudeDegrees>
              <LongitudeDegrees>-8.1859106384217739105224609375</LongitudeDegrees>
            </Position>
            <AltitudeMeters>4</AltitudeMeters>
            <DistanceMeters>60008.881068017</DistanceMeters>
          </Trackpoint>
          <Trackpoint>
            <Time>2018-04-21T12:06:39.000Z</Time>
            <Position>
              <LatitudeDegrees>43.27914557419717311859130859375</LatitudeDegrees>
              <LongitudeDegrees>-8.1857731752097606658935546875</LongitudeDegrees>
            </Position>
            <AltitudeMeters>3.599999904632568359375</AltitudeMeters>
            <DistanceMeters>60020.1764631</DistanceMeters>
          </Trackpoint>
          <Trackpoint>
            <Time>2018-04-21T12:06:42.000Z</Time>
            <Position>
              <LatitudeDegrees>43.2791642658412456512451171875</LatitudeDegrees>
              <LongitudeDegrees>-8.185586594045162200927734375</LongitudeDegrees>
            </Position>
            <AltitudeMeters>3.2000000476837158203125</AltitudeMeters>
            <DistanceMeters>60035.437646921</DistanceMeters>
          </Trackpoint>
          <Trackpoint>
            <Time>2018-04-21T12:06:44.000Z</Time>
            <Position>
              <LatitudeDegrees>43.27917759306728839874267578125</LatitudeDegrees>
              <LongitudeDegrees>-8.1854700855910778045654296875</LongitudeDegrees>
            </Position>
            <AltitudeMeters>3</AltitudeMeters>
            <DistanceMeters>60044.994802525</DistanceMeters>
          </Trackpoint>
          <Trackpoint>
            <Time>2018-04-21T12:06:46.000Z</Time>
            <Position>
              <LatitudeDegrees>43.27920642681419849395751953125</LatitudeDegrees>
              <LongitudeDegrees>-8.18535600788891315460205078125</LongitudeDegrees>
            </Position>
            <AltitudeMeters>3.2000000476837158203125</AltitudeMeters>
            <DistanceMeters>60054.779785945</DistanceMeters>
          </Trackpoint>
          <Trackpoint>
            <Time>2018-04-21T12:06:50.000Z</Time>
            <Position>
              <LatitudeDegrees>43.279232494533061981201171875</LatitudeDegrees>
              <LongitudeDegrees>-8.1851113401353359222412109375</LongitudeDegrees>
            </Position>
            <AltitudeMeters>3.2000000476837158203125</AltitudeMeters>
            <DistanceMeters>60074.816231202</DistanceMeters>
          </Trackpoint>
          <Trackpoint>
            <Time>2018-04-21T12:11:41.000Z</Time>
            <Position>
              <LatitudeDegrees>43.2792336679995059967041015625</LatitudeDegrees>
              <LongitudeDegrees>-8.18458688445389270782470703125</LongitudeDegrees>
            </Position>
            <AltitudeMeters>3</AltitudeMeters>
            <DistanceMeters>60117.31304483</DistanceMeters>
          </Trackpoint>
          <Trackpoint>
            <Time>2018-04-21T12:11:42.000Z</Time>
            <Position>
              <LatitudeDegrees>43.2792380265891551971435546875</LatitudeDegrees>
              <LongitudeDegrees>-8.1845556199550628662109375</LongitudeDegrees>
            </Position>
            <AltitudeMeters>3</AltitudeMeters>
            <DistanceMeters>60119.894555321</DistanceMeters>
          </Trackpoint>
          <Trackpoint>
            <Time>2018-04-21T12:11:44.000Z</Time>
            <Position>
              <LatitudeDegrees>43.27924833633005619049072265625</LatitudeDegrees>
              <LongitudeDegrees>-8.1844870559871196746826171875</LongitudeDegrees>
            </Position>
            <AltitudeMeters>3.7999999523162841796875</AltitudeMeters>
            <DistanceMeters>60125.56757854</DistanceMeters>
          </Trackpoint>
          <Trackpoint>
            <Time>2018-04-21T12:11:46.000Z</Time>
            <Position>
              <LatitudeDegrees>43.27925839461386203765869140625</LatitudeDegrees>
              <LongitudeDegrees>-8.18440767936408519744873046875</LongitudeDegrees>
            </Position>
            <AltitudeMeters>1</AltitudeMeters>
            <DistanceMeters>60132.096128212</DistanceMeters>
          </Trackpoint>
          <Trackpoint>
            <Time>2018-04-21T12:11:47.000Z</Time>
            <Position>
              <LatitudeDegrees>43.27926007099449634552001953125</LatitudeDegrees>
              <LongitudeDegrees>-8.18436342291533946990966796875</LongitudeDegrees>
            </Position>
            <AltitudeMeters>3.400000095367431640625</AltitudeMeters>
            <DistanceMeters>60135.687082008</DistanceMeters>
          </Trackpoint>
          <Trackpoint>
            <Time>2018-04-21T12:11:49.000Z</Time>
            <Position>
              <LatitudeDegrees>43.27924883924424648284912109375</LatitudeDegrees>
              <LongitudeDegrees>-8.184289075434207916259765625</LongitudeDegrees>
            </Position>
            <AltitudeMeters>5</AltitudeMeters>
            <DistanceMeters>60141.839648988</DistanceMeters>
          </Trackpoint>
          <Trackpoint>
            <Time>2018-04-21T12:11:50.000Z</Time>
            <Position>
              <LatitudeDegrees>43.27924867160618305206298828125</LatitudeDegrees>
              <LongitudeDegrees>-8.18424507044255733489990234375</LongitudeDegrees>
            </Position>
            <AltitudeMeters>3.400000095367431640625</AltitudeMeters>
            <DistanceMeters>60145.405367378</DistanceMeters>
          </Trackpoint>
          <Trackpoint>
            <Time>2018-04-21T12:11:55.000Z</Time>
            <Position>
              <LatitudeDegrees>43.2792775891721248626708984375</LatitudeDegrees>
              <LongitudeDegrees>-8.18400182761251926422119140625</LongitudeDegrees>
            </Position>
            <AltitudeMeters>3.7999999523162841796875</AltitudeMeters>
            <DistanceMeters>60165.376356747</DistanceMeters>
          </Trackpoint>
          <Trackpoint>
            <Time>2018-04-21T12:11:59.000Z</Time>
            <Position>
              <LatitudeDegrees>43.27927163802087306976318359375</LatitudeDegrees>
              <LongitudeDegrees>-8.1838346086442470550537109375</LongitudeDegrees>
            </Position>
            <AltitudeMeters>4.400000095367431640625</AltitudeMeters>
            <DistanceMeters>60178.942231504</DistanceMeters>
          </Trackpoint>
          <Trackpoint>
            <Time>2018-04-21T12:12:01.000Z</Time>
            <Position>
              <LatitudeDegrees>43.27924481593072414398193359375</LatitudeDegrees>
              <LongitudeDegrees>-8.18376260809600353240966796875</LongitudeDegrees>
            </Position>
            <AltitudeMeters>3.400000095367431640625</AltitudeMeters>
            <DistanceMeters>60185.495630894</DistanceMeters>
          </Trackpoint>
          <Trackpoint>
            <Time>2018-04-21T12:12:03.000Z</Time>
            <Position>
              <LatitudeDegrees>43.2792048342525959014892578125</LatitudeDegrees>
              <LongitudeDegrees>-8.18371097557246685028076171875</LongitudeDegrees>
            </Position>
            <AltitudeMeters>3.2000000476837158203125</AltitudeMeters>
            <DistanceMeters>60191.603269209</DistanceMeters>
          </Trackpoint>
          <Trackpoint>
            <Time>2018-04-21T12:12:06.000Z</Time>
            <Position>
              <LatitudeDegrees>43.27910919673740863800048828125</LatitudeDegrees>
              <LongitudeDegrees>-8.18363989703357219696044921875</LongitudeDegrees>
            </Position>
            <AltitudeMeters>3.7999999523162841796875</AltitudeMeters>
            <DistanceMeters>60203.70640517</DistanceMeters>
          </Trackpoint>
          <Trackpoint>
            <Time>2018-04-21T12:12:12.000Z</Time>
            <Position>
              <LatitudeDegrees>43.27892311848700046539306640625</LatitudeDegrees>
              <LongitudeDegrees>-8.18344912491738796234130859375</LongitudeDegrees>
            </Position>
            <AltitudeMeters>4</AltitudeMeters>
            <DistanceMeters>60229.550177613</DistanceMeters>
          </Trackpoint>
          <Trackpoint>
            <Time>2018-04-21T12:12:14.000Z</Time>
            <Position>
              <LatitudeDegrees>43.278863020241260528564453125</LatitudeDegrees>
              <LongitudeDegrees>-8.18339598365128040313720703125</LongitudeDegrees>
            </Position>
            <AltitudeMeters>2.2000000476837158203125</AltitudeMeters>
            <DistanceMeters>60237.505224798</DistanceMeters>
          </Trackpoint>
          <Trackpoint>
            <Time>2018-04-21T12:12:16.000Z</Time>
            <Position>
              <LatitudeDegrees>43.27880409546196460723876953125</LatitudeDegrees>
              <LongitudeDegrees>-8.1833216361701488494873046875</LongitudeDegrees>
            </Position>
            <AltitudeMeters>3.400000095367431640625</AltitudeMeters>
            <DistanceMeters>60246.410399212</DistanceMeters>
          </Trackpoint>
          <Trackpoint>
            <Time>2018-04-21T12:12:17.000Z</Time>
            <Position>
              <LatitudeDegrees>43.278780877590179443359375</LatitudeDegrees>
              <LongitudeDegrees>-8.183279223740100860595703125</LongitudeDegrees>
            </Position>
            <AltitudeMeters>5.400000095367431640625</AltitudeMeters>
            <DistanceMeters>60250.709767361</DistanceMeters>
          </Trackpoint>
          <Trackpoint>
            <Time>2018-04-21T12:12:18.000Z</Time>
            <Position>
              <LatitudeDegrees>43.278765119612216949462890625</LatitudeDegrees>
              <LongitudeDegrees>-8.1832398287951946258544921875</LongitudeDegrees>
            </Position>
            <AltitudeMeters>4</AltitudeMeters>
            <DistanceMeters>60254.35066728</DistanceMeters>
          </Trackpoint>
          <Trackpoint>
            <Time>2018-04-21T12:12:19.000Z</Time>
            <Position>
              <LatitudeDegrees>43.27873921953141689300537109375</LatitudeDegrees>
              <LongitudeDegrees>-8.18320672027766704559326171875</LongitudeDegrees>
            </Position>
            <AltitudeMeters>3.7999999523162841796875</AltitudeMeters>
            <DistanceMeters>60258.288260612</DistanceMeters>
          </Trackpoint>
          <Trackpoint>
            <Time>2018-04-21T12:12:22.000Z</Time>
            <Position>
              <LatitudeDegrees>43.27863008715212345123291015625</LatitudeDegrees>
              <LongitudeDegrees>-8.18313564173877239227294921875</LongitudeDegrees>
            </Position>
            <AltitudeMeters>4.400000095367431640625</AltitudeMeters>
            <DistanceMeters>60271.73143434</DistanceMeters>
          </Trackpoint>
          <Trackpoint>
            <Time>2018-04-21T12:12:25.000Z</Time>
            <Position>
              <LatitudeDegrees>43.2785168476402759552001953125</LatitudeDegrees>
              <LongitudeDegrees>-8.183067329227924346923828125</LongitudeDegrees>
            </Position>
            <AltitudeMeters>4.19999980926513671875</AltitudeMeters>
            <DistanceMeters>60285.497194551</DistanceMeters>
          </Trackpoint>
          <Trackpoint>
            <Time>2018-04-21T12:12:26.000Z</Time>
            <Position>
              <LatitudeDegrees>43.27848122455179691314697265625</LatitudeDegrees>
              <LongitudeDegrees>-8.18303271196782588958740234375</LongitudeDegrees>
            </Position>
            <AltitudeMeters>4.19999980926513671875</AltitudeMeters>
            <DistanceMeters>60290.35379415</DistanceMeters>
          </Trackpoint>
          <Trackpoint>
            <Time>2018-04-21T12:12:31.000Z</Time>
            <Position>
              <LatitudeDegrees>43.27826681546866893768310546875</LatitudeDegrees>
              <LongitudeDegrees>-8.18291746079921722412109375</LongitudeDegrees>
            </Position>
            <AltitudeMeters>4.19999980926513671875</AltitudeMeters>
            <DistanceMeters>60315.980369018</DistanceMeters>
          </Trackpoint>
          <Trackpoint>
            <Time>2018-04-21T12:12:33.000Z</Time>
            <Position>
              <LatitudeDegrees>43.27819322235882282257080078125</LatitudeDegrees>
              <LongitudeDegrees>-8.18286909721791744232177734375</LongitudeDegrees>
            </Position>
            <AltitudeMeters>4.19999980926513671875</AltitudeMeters>
            <DistanceMeters>60325.060767028</DistanceMeters>
          </Trackpoint>
          <Trackpoint>
            <Time>2018-04-21T12:12:36.000Z</Time>
            <Position>
              <LatitudeDegrees>43.2780714333057403564453125</LatitudeDegrees>
              <LongitudeDegrees>-8.1827831827104091644287109375</LongitudeDegrees>
            </Position>
            <AltitudeMeters>4.19999980926513671875</AltitudeMeters>
            <DistanceMeters>60340.299153286</DistanceMeters>
          </Trackpoint>
          <Trackpoint>
            <Time>2018-04-21T12:12:44.000Z</Time>
            <Position>
              <LatitudeDegrees>43.2777120172977447509765625</LatitudeDegrees>
              <LongitudeDegrees>-8.18265686742961406707763671875</LongitudeDegrees>
            </Position>
            <AltitudeMeters>4.19999980926513671875</AltitudeMeters>
            <DistanceMeters>60381.591623111</DistanceMeters>
          </Trackpoint>
          <Trackpoint>
            <Time>2018-04-21T12:12:45.000Z</Time>
            <Position>
              <LatitudeDegrees>43.277662731707096099853515625</LatitudeDegrees>
              <LongitudeDegrees>-8.182651586830615997314453125</LongitudeDegrees>
            </Position>
            <AltitudeMeters>4.400000095367431640625</AltitudeMeters>
            <DistanceMeters>60387.093333412</DistanceMeters>
          </Trackpoint>
          <Trackpoint>
            <Time>2018-04-21T12:12:48.000Z</Time>
            <Position>
              <LatitudeDegrees>43.2775349915027618408203125</LatitudeDegrees>
              <LongitudeDegrees>-8.1826252676546573638916015625</LongitudeDegrees>
            </Position>
            <AltitudeMeters>5</AltitudeMeters>
            <DistanceMeters>60401.470344569</DistanceMeters>
          </Trackpoint>
          <Trackpoint>
            <Time>2018-04-21T12:12:50.000Z</Time>
            <Position>
              <LatitudeDegrees>43.2774684391915798187255859375</LatitudeDegrees>
              <LongitudeDegrees>-8.1826031394302845001220703125</LongitudeDegrees>
            </Position>
            <AltitudeMeters>5.599999904632568359375</AltitudeMeters>
            <DistanceMeters>60409.091463364</DistanceMeters>
          </Trackpoint>
          <Trackpoint>
            <Time>2018-04-21T12:12:52.000Z</Time>
            <Position>
              <LatitudeDegrees>43.2774094305932521820068359375</LatitudeDegrees>
              <LongitudeDegrees>-8.18259651772677898406982421875</LongitudeDegrees>
            </Position>
            <AltitudeMeters>6.19999980926513671875</AltitudeMeters>
            <DistanceMeters>60415.681961653</DistanceMeters>
          </Trackpoint>
          <Trackpoint>
            <Time>2018-04-21T12:12:54.000Z</Time>
            <Position>
              <LatitudeDegrees>43.27735302038490772247314453125</LatitudeDegrees>
              <LongitudeDegrees>-8.18261613138020038604736328125</LongitudeDegrees>
            </Position>
            <AltitudeMeters>7</AltitudeMeters>
            <DistanceMeters>60422.159131958</DistanceMeters>
          </Trackpoint>
          <Trackpoint>
            <Time>2018-04-21T12:12:55.000Z</Time>
            <Position>
              <LatitudeDegrees>43.27732779085636138916015625</LatitudeDegrees>
              <LongitudeDegrees>-8.18263021297752857208251953125</LongitudeDegrees>
            </Position>
            <AltitudeMeters>7.19999980926513671875</AltitudeMeters>
            <DistanceMeters>60425.188085187</DistanceMeters>
          </Trackpoint>
          <Trackpoint>
            <Time>2018-04-21T12:12:57.000Z</Time>
            <Position>
              <LatitudeDegrees>43.277261741459369659423828125</LatitudeDegrees>
              <LongitudeDegrees>-8.182667680084705352783203125</LongitudeDegrees>
            </Position>
            <AltitudeMeters>7.400000095367431640625</AltitudeMeters>
            <DistanceMeters>60433.141997153</DistanceMeters>
          </Trackpoint>
          <Trackpoint>
            <Time>2018-04-21T12:13:00.000Z</Time>
            <Position>
              <LatitudeDegrees>43.27713198959827423095703125</LatitudeDegrees>
              <LongitudeDegrees>-8.1826941668987274169921875</LongitudeDegrees>
            </Position>
            <AltitudeMeters>7.400000095367431640625</AltitudeMeters>
            <DistanceMeters>60447.74213361</DistanceMeters>
          </Trackpoint>
          <Trackpoint>
            <Time>2018-04-21T12:13:02.000Z</Time>
            <Position>
              <LatitudeDegrees>43.27705630101263523101806640625</LatitudeDegrees>
              <LongitudeDegrees>-8.1826899759471416473388671875</LongitudeDegrees>
            </Position>
            <AltitudeMeters>8.19999980926513671875</AltitudeMeters>
            <DistanceMeters>60456.173311568</DistanceMeters>
          </Trackpoint>
          <Trackpoint>
            <Time>2018-04-21T12:13:05.000Z</Time>
            <Position>
              <LatitudeDegrees>43.2769615016877651214599609375</LatitudeDegrees>
              <LongitudeDegrees>-8.1826671771705150604248046875</LongitudeDegrees>
            </Position>
            <AltitudeMeters>9</AltitudeMeters>
            <DistanceMeters>60466.885229294</DistanceMeters>
          </Trackpoint>
          <Trackpoint>
            <Time>2018-04-21T12:13:10.000Z</Time>
            <Position>
              <LatitudeDegrees>43.27674784697592258453369140625</LatitudeDegrees>
              <LongitudeDegrees>-8.18251219578087329864501953125</LongitudeDegrees>
            </Position>
            <AltitudeMeters>8.19999980926513671875</AltitudeMeters>
            <DistanceMeters>60493.777957352</DistanceMeters>
          </Trackpoint>
          <Trackpoint>
            <Time>2018-04-21T12:13:15.000Z</Time>
            <Position>
              <LatitudeDegrees>43.27649421058595180511474609375</LatitudeDegrees>
              <LongitudeDegrees>-8.18230264820158481597900390625</LongitudeDegrees>
            </Position>
            <AltitudeMeters>7.400000095367431640625</AltitudeMeters>
            <DistanceMeters>60526.72140446</DistanceMeters>
          </Trackpoint>
          <Trackpoint>
            <Time>2018-04-21T12:13:16.000Z</Time>
            <Position>
              <LatitudeDegrees>43.2764446735382080078125</LatitudeDegrees>
              <LongitudeDegrees>-8.18225436843931674957275390625</LongitudeDegrees>
            </Position>
            <AltitudeMeters>7.19999980926513671875</AltitudeMeters>
            <DistanceMeters>60533.482339821</DistanceMeters>
          </Trackpoint>
          <Trackpoint>
            <Time>2018-04-21T12:13:22.000Z</Time>
            <Position>
              <LatitudeDegrees>43.27617720700800418853759765625</LatitudeDegrees>
              <LongitudeDegrees>-8.1820261292159557342529296875</LongitudeDegrees>
            </Position>
            <AltitudeMeters>8</AltitudeMeters>
            <DistanceMeters>60568.529423696</DistanceMeters>
          </Trackpoint>
          <Trackpoint>
            <Time>2018-04-21T12:13:24.000Z</Time>
            <Position>
              <LatitudeDegrees>43.276116438210010528564453125</LatitudeDegrees>
              <LongitudeDegrees>-8.18196393549442291259765625</LongitudeDegrees>
            </Position>
            <AltitudeMeters>8.6000003814697265625</AltitudeMeters>
            <DistanceMeters>60576.96434944</DistanceMeters>
          </Trackpoint>
          <Trackpoint>
            <Time>2018-04-21T12:13:27.000Z</Time>
            <Position>
              <LatitudeDegrees>43.276052065193653106689453125</LatitudeDegrees>
              <LongitudeDegrees>-8.18187533877789974212646484375</LongitudeDegrees>
            </Position>
            <AltitudeMeters>8.6000003814697265625</AltitudeMeters>
            <DistanceMeters>60587.107310592</DistanceMeters>
          </Trackpoint>
          <Trackpoint>
            <Time>2018-04-21T12:13:31.000Z</Time>
            <Position>
              <LatitudeDegrees>43.27593212015926837921142578125</LatitudeDegrees>
              <LongitudeDegrees>-8.181769140064716339111328125</LongitudeDegrees>
            </Position>
            <AltitudeMeters>9.80000019073486328125</AltitudeMeters>
            <DistanceMeters>60602.990991077</DistanceMeters>
          </Trackpoint>
          <Trackpoint>
            <Time>2018-04-21T12:13:32.000Z</Time>
            <Position>
              <LatitudeDegrees>43.27590278349816799163818359375</LatitudeDegrees>
              <LongitudeDegrees>-8.18174089305102825164794921875</LongitudeDegrees>
            </Position>
            <AltitudeMeters>10</AltitudeMeters>
            <DistanceMeters>60606.978717825</DistanceMeters>
          </Trackpoint>
          <Trackpoint>
            <Time>2018-04-21T12:13:38.000Z</Time>
            <Position>
              <LatitudeDegrees>43.27579063363373279571533203125</LatitudeDegrees>
              <LongitudeDegrees>-8.18154660053551197052001953125</LongitudeDegrees>
            </Position>
            <AltitudeMeters>10.80000019073486328125</AltitudeMeters>
            <DistanceMeters>60627.070970001</DistanceMeters>
          </Trackpoint>
          <Trackpoint>
            <Time>2018-04-21T12:13:39.000Z</Time>
            <Position>
              <LatitudeDegrees>43.2757672481238842010498046875</LatitudeDegrees>
              <LongitudeDegrees>-8.18151022307574748992919921875</LongitudeDegrees>
            </Position>
            <AltitudeMeters>11</AltitudeMeters>
            <DistanceMeters>60631.002825908</DistanceMeters>
          </Trackpoint>
          <Trackpoint>
            <Time>2018-04-21T12:13:41.000Z</Time>
            <Position>
              <LatitudeDegrees>43.2757283560931682586669921875</LatitudeDegrees>
              <LongitudeDegrees>-8.18142414093017578125</LongitudeDegrees>
            </Position>
            <AltitudeMeters>12</AltitudeMeters>
            <DistanceMeters>60639.212606087</DistanceMeters>
          </Trackpoint>
          <Trackpoint>
            <Time>2018-04-21T12:13:43.000Z</Time>
            <Position>
              <LatitudeDegrees>43.27569860033690929412841796875</LatitudeDegrees>
              <LongitudeDegrees>-8.18134509958326816558837890625</LongitudeDegrees>
            </Position>
            <AltitudeMeters>12.6000003814697265625</AltitudeMeters>
            <DistanceMeters>60646.423374434</DistanceMeters>
          </Trackpoint>
          <Trackpoint>
            <Time>2018-04-21T12:13:45.000Z</Time>
            <Position>
              <LatitudeDegrees>43.27567697502672672271728515625</LatitudeDegrees>
              <LongitudeDegrees>-8.18126111291348934173583984375</LongitudeDegrees>
            </Position>
            <AltitudeMeters>13.19999980926513671875</AltitudeMeters>
            <DistanceMeters>60653.64290359</DistanceMeters>
          </Trackpoint>
          <Trackpoint>
            <Time>2018-04-21T12:13:48.000Z</Time>
            <Position>
              <LatitudeDegrees>43.27566205523908138275146484375</LatitudeDegrees>
              <LongitudeDegrees>-8.1811446882784366607666015625</LongitudeDegrees>
            </Position>
            <AltitudeMeters>14.19999980926513671875</AltitudeMeters>
            <DistanceMeters>60663.222237431</DistanceMeters>
          </Trackpoint>
          <Trackpoint>
            <Time>2018-04-21T12:13:49.000Z</Time>
            <Position>
              <LatitudeDegrees>43.2756626419723033905029296875</LatitudeDegrees>
              <LongitudeDegrees>-8.181104622781276702880859375</LongitudeDegrees>
            </Position>
            <AltitudeMeters>14.6000003814697265625</AltitudeMeters>
            <DistanceMeters>60666.468481292</DistanceMeters>
          </Trackpoint>
          <Trackpoint>
            <Time>2018-04-21T12:13:52.000Z</Time>
            <Position>
              <LatitudeDegrees>43.27568384818732738494873046875</LatitudeDegrees>
              <LongitudeDegrees>-8.18097445182502269744873046875</LongitudeDegrees>
            </Position>
            <AltitudeMeters>14.6000003814697265625</AltitudeMeters>
            <DistanceMeters>60677.278161638</DistanceMeters>
          </Trackpoint>
          <Trackpoint>
            <Time>2018-04-21T12:13:54.000Z</Time>
            <Position>
              <LatitudeDegrees>43.27571117319166660308837890625</LatitudeDegrees>
              <LongitudeDegrees>-8.18087956868112087249755859375</LongitudeDegrees>
            </Position>
            <AltitudeMeters>14.80000019073486328125</AltitudeMeters>
            <DistanceMeters>60685.547124018</DistanceMeters>
          </Trackpoint>
          <Trackpoint>
            <Time>2018-04-21T12:13:57.000Z</Time>
            <Position>
              <LatitudeDegrees>43.27574151568114757537841796875</LatitudeDegrees>
              <LongitudeDegrees>-8.18073548376560211181640625</LongitudeDegrees>
            </Position>
            <AltitudeMeters>15.19999980926513671875</AltitudeMeters>
            <DistanceMeters>60697.701631438</DistanceMeters>
          </Trackpoint>
          <Trackpoint>
            <Time>2018-04-21T12:14:01.000Z</Time>
            <Position>
              <LatitudeDegrees>43.27577739022672176361083984375</LatitudeDegrees>
              <LongitudeDegrees>-8.1805596314370632171630859375</LongitudeDegrees>
            </Position>
            <AltitudeMeters>15.6000003814697265625</AltitudeMeters>
            <DistanceMeters>60712.500802836</DistanceMeters>
          </Trackpoint>
          <Trackpoint>
            <Time>2018-04-21T12:14:05.000Z</Time>
            <Position>
              <LatitudeDegrees>43.275803625583648681640625</LatitudeDegrees>
              <LongitudeDegrees>-8.1804090924561023712158203125</LongitudeDegrees>
            </Position>
            <AltitudeMeters>16.3999996185302734375</AltitudeMeters>
            <DistanceMeters>60725.044329133</DistanceMeters>
          </Trackpoint>
          <Trackpoint>
            <Time>2018-04-21T12:14:07.000Z</Time>
            <Position>
              <LatitudeDegrees>43.2758108340203762054443359375</LatitudeDegrees>
              <LongitudeDegrees>-8.1803413666784763336181640625</LongitudeDegrees>
            </Position>
            <AltitudeMeters>16.6000003814697265625</AltitudeMeters>
            <DistanceMeters>60730.590178064</DistanceMeters>
          </Trackpoint>
          <Trackpoint>
            <Time>2018-04-21T12:14:12.000Z</Time>
            <Position>
              <LatitudeDegrees>43.2758148573338985443115234375</LatitudeDegrees>
              <LongitudeDegrees>-8.1801686994731426239013671875</LongitudeDegrees>
            </Position>
            <AltitudeMeters>17.799999237060546875</AltitudeMeters>
            <DistanceMeters>60744.589454798</DistanceMeters>
          </Trackpoint>
          <Trackpoint>
            <Time>2018-04-21T12:14:18.000Z</Time>
            <Position>
              <LatitudeDegrees>43.2757820002734661102294921875</LatitudeDegrees>
              <LongitudeDegrees>-8.17994029261171817779541015625</LongitudeDegrees>
            </Position>
            <AltitudeMeters>19.3999996185302734375</AltitudeMeters>
            <DistanceMeters>60763.456027175</DistanceMeters>
          </Trackpoint>
          <Trackpoint>
            <Time>2018-04-21T12:14:19.000Z</Time>
            <Position>
              <LatitudeDegrees>43.27577454037964344024658203125</LatitudeDegrees>
              <LongitudeDegrees>-8.17990022711455821990966796875</LongitudeDegrees>
            </Position>
            <AltitudeMeters>19.799999237060546875</AltitudeMeters>
            <DistanceMeters>60766.804960579</DistanceMeters>
          </Trackpoint>
          <Trackpoint>
            <Time>2018-04-21T12:14:22.000Z</Time>
            <Position>
              <LatitudeDegrees>43.2757253386080265045166015625</LatitudeDegrees>
              <LongitudeDegrees>-8.17980475723743438720703125</LongitudeDegrees>
            </Position>
            <AltitudeMeters>20.6000003814697265625</AltitudeMeters>
            <DistanceMeters>60776.283369229</DistanceMeters>
          </Trackpoint>
          <Trackpoint>
            <Time>2018-04-21T12:14:24.000Z</Time>
            <Position>
              <LatitudeDegrees>43.275691308081150054931640625</LatitudeDegrees>
              <LongitudeDegrees>-8.17975957877933979034423828125</LongitudeDegrees>
            </Position>
            <AltitudeMeters>21</AltitudeMeters>
            <DistanceMeters>60781.55114152</DistanceMeters>
          </Trackpoint>
          <Trackpoint>
            <Time>2018-04-21T12:14:27.000Z</Time>
            <Position>
              <LatitudeDegrees>43.2756535895168781280517578125</LatitudeDegrees>
              <LongitudeDegrees>-8.179727308452129364013671875</LongitudeDegrees>
            </Position>
            <AltitudeMeters>21.799999237060546875</AltitudeMeters>
            <DistanceMeters>60786.496184191</DistanceMeters>
          </Trackpoint>
          <Trackpoint>
            <Time>2018-04-21T12:14:30.000Z</Time>
            <Position>
              <LatitudeDegrees>43.27560086734592914581298828125</LatitudeDegrees>
              <LongitudeDegrees>-8.1797097064554691314697265625</LongitudeDegrees>
            </Position>
            <AltitudeMeters>22.6000003814697265625</AltitudeMeters>
            <DistanceMeters>60792.534681411</DistanceMeters>
          </Trackpoint>
          <Trackpoint>
            <Time>2018-04-21T12:14:32.000Z</Time>
            <Position>
              <LatitudeDegrees>43.275572620332241058349609375</LatitudeDegrees>
              <LongitudeDegrees>-8.179692439734935760498046875</LongitudeDegrees>
            </Position>
            <AltitudeMeters>23.200000762939453125</AltitudeMeters>
            <DistanceMeters>60795.976695399</DistanceMeters>
          </Trackpoint>
          <Trackpoint>
            <Time>2018-04-21T12:14:36.000Z</Time>
            <Position>
              <LatitudeDegrees>43.27551956288516521453857421875</LatitudeDegrees>
              <LongitudeDegrees>-8.17967307753860950469970703125</LongitudeDegrees>
            </Position>
            <AltitudeMeters>24.3999996185302734375</AltitudeMeters>
            <DistanceMeters>60802.085812025</DistanceMeters>
          </Trackpoint>
          <Trackpoint>
            <Time>2018-04-21T12:14:38.000Z</Time>
            <Position>
              <LatitudeDegrees>43.27550648711621761322021484375</LatitudeDegrees>
              <LongitudeDegrees>-8.17967064678668975830078125</LongitudeDegrees>
            </Position>
            <AltitudeMeters>24.6000003814697265625</AltitudeMeters>
            <DistanceMeters>60803.551812773</DistanceMeters>
          </Trackpoint>
          <Trackpoint>
            <Time>2018-04-21T12:14:44.000Z</Time>
            <Position>
              <LatitudeDegrees>43.27546927146613597869873046875</LatitudeDegrees>
              <LongitudeDegrees>-8.179654218256473541259765625</LongitudeDegrees>
            </Position>
            <AltitudeMeters>25.3999996185302734375</AltitudeMeters>
            <DistanceMeters>60807.902334607</DistanceMeters>
          </Trackpoint>
          <Trackpoint>
            <Time>2018-04-21T12:14:45.000Z</Time>
            <Position>
              <LatitudeDegrees>43.27544881962239742279052734375</LatitudeDegrees>
              <LongitudeDegrees>-8.17964809946715831756591796875</LongitudeDegrees>
            </Position>
            <AltitudeMeters>25.6000003814697265625</AltitudeMeters>
            <DistanceMeters>60810.23388045</DistanceMeters>
          </Trackpoint>
          <Trackpoint>
            <Time>2018-04-21T12:14:49.000Z</Time>
            <Position>
              <LatitudeDegrees>43.27540406025946140289306640625</LatitudeDegrees>
              <LongitudeDegrees>-8.17961272783577442169189453125</LongitudeDegrees>
            </Position>
            <AltitudeMeters>26.799999237060546875</AltitudeMeters>
            <DistanceMeters>60815.982014904</DistanceMeters>
          </Trackpoint>
          <Trackpoint>
            <Time>2018-04-21T12:14:50.000Z</Time>
            <Position>
              <LatitudeDegrees>43.27538989484310150146484375</LatitudeDegrees>
              <LongitudeDegrees>-8.17962010391056537628173828125</LongitudeDegrees>
            </Position>
            <AltitudeMeters>27.200000762939453125</AltitudeMeters>
            <DistanceMeters>60817.671246729</DistanceMeters>
          </Trackpoint>
          <Trackpoint>
            <Time>2018-04-21T12:14:52.000Z</Time>
            <Position>
              <LatitudeDegrees>43.27535712160170078277587890625</LatitudeDegrees>
              <LongitudeDegrees>-8.179613649845123291015625</LongitudeDegrees>
            </Position>
            <AltitudeMeters>27.3999996185302734375</AltitudeMeters>
            <DistanceMeters>60821.356519442</DistanceMeters>
          </Trackpoint>
          <Trackpoint>
            <Time>2018-04-21T12:14:53.000Z</Time>
            <Position>
              <LatitudeDegrees>43.275339938700199127197265625</LatitudeDegrees>
              <LongitudeDegrees>-8.17960736341774463653564453125</LongitudeDegrees>
            </Position>
            <AltitudeMeters>27.799999237060546875</AltitudeMeters>
            <DistanceMeters>60823.338458708</DistanceMeters>
          </Trackpoint>
          <Trackpoint>
            <Time>2018-04-21T12:14:57.000Z</Time>
            <Position>
              <LatitudeDegrees>43.27527380548417568206787109375</LatitudeDegrees>
              <LongitudeDegrees>-8.1795621849596500396728515625</LongitudeDegrees>
            </Position>
            <AltitudeMeters>29</AltitudeMeters>
            <DistanceMeters>60831.559230697</DistanceMeters>
          </Trackpoint>
          <Trackpoint>
            <Time>2018-04-21T12:14:58.000Z</Time>
            <Position>
              <LatitudeDegrees>43.2752680219709873199462890625</LatitudeDegrees>
              <LongitudeDegrees>-8.17955757491290569305419921875</LongitudeDegrees>
            </Position>
            <AltitudeMeters>29.200000762939453125</AltitudeMeters>
            <DistanceMeters>60832.301413063</DistanceMeters>
          </Trackpoint>
          <Trackpoint>
            <Time>2018-04-21T12:15:03.000Z</Time>
            <Position>
              <LatitudeDegrees>43.27518529258668422698974609375</LatitudeDegrees>
              <LongitudeDegrees>-8.17950527183711528778076171875</LongitudeDegrees>
            </Position>
            <AltitudeMeters>30.200000762939453125</AltitudeMeters>
            <DistanceMeters>60842.437694914</DistanceMeters>
          </Trackpoint>
          <Trackpoint>
            <Time>2018-04-21T12:15:04.000Z</Time>
            <Position>
              <LatitudeDegrees>43.27517540194094181060791015625</LatitudeDegrees>
              <LongitudeDegrees>-8.17949269898235797882080078125</LongitudeDegrees>
            </Position>
            <AltitudeMeters>30.6000003814697265625</AltitudeMeters>
            <DistanceMeters>60843.937191175</DistanceMeters>
          </Trackpoint>
          <Trackpoint>
            <Time>2018-04-21T12:15:08.000Z</Time>
            <Position>
              <LatitudeDegrees>43.27512041665613651275634765625</LatitudeDegrees>
              <LongitudeDegrees>-8.17943234927952289581298828125</LongitudeDegrees>
            </Position>
            <AltitudeMeters>31.3999996185302734375</AltitudeMeters>
            <DistanceMeters>60851.770989711</DistanceMeters>
          </Trackpoint>
          <Trackpoint>
            <Time>2018-04-21T12:15:10.000Z</Time>
            <Position>
              <LatitudeDegrees>43.275094516575336456298828125</LatitudeDegrees>
              <LongitudeDegrees>-8.17938591353595256805419921875</LongitudeDegrees>
            </Position>
            <AltitudeMeters>31.3999996185302734375</AltitudeMeters>
            <DistanceMeters>60856.511860968</DistanceMeters>
          </Trackpoint>
          <Trackpoint>
            <Time>2018-04-21T12:15:14.000Z</Time>
            <Position>
              <LatitudeDegrees>43.2750175707042217254638671875</LatitudeDegrees>
              <LongitudeDegrees>-8.17917686887085437774658203125</LongitudeDegrees>
            </Position>
            <AltitudeMeters>30</AltitudeMeters>
            <DistanceMeters>60875.493908019</DistanceMeters>
          </Trackpoint>
          <Trackpoint>
            <Time>2018-04-21T12:15:16.000Z</Time>
            <Position>
              <LatitudeDegrees>43.2749578915536403656005859375</LatitudeDegrees>
              <LongitudeDegrees>-8.1789754517376422882080078125</LongitudeDegrees>
            </Position>
            <AltitudeMeters>28.799999237060546875</AltitudeMeters>
            <DistanceMeters>60893.115663572</DistanceMeters>
          </Trackpoint>
          <Trackpoint>
            <Time>2018-04-21T12:15:17.000Z</Time>
            <Position>
              <LatitudeDegrees>43.2749287225306034088134765625</LatitudeDegrees>
              <LongitudeDegrees>-8.17886875011026859283447265625</LongitudeDegrees>
            </Position>
            <AltitudeMeters>28.6000003814697265625</AltitudeMeters>
            <DistanceMeters>60902.351360735</DistanceMeters>
          </Trackpoint>
          <Trackpoint>
            <Time>2018-04-21T12:15:19.000Z</Time>
            <Position>
              <LatitudeDegrees>43.27487130649387836456298828125</LatitudeDegrees>
              <LongitudeDegrees>-8.17864914424717426300048828125</LongitudeDegrees>
            </Position>
            <AltitudeMeters>27.3999996185302734375</AltitudeMeters>
            <DistanceMeters>60921.260005497</DistanceMeters>
          </Trackpoint>
          <Trackpoint>
            <Time>2018-04-21T12:15:21.000Z</Time>
            <Position>
              <LatitudeDegrees>43.27480852603912353515625</LatitudeDegrees>
              <LongitudeDegrees>-8.17842819727957248687744140625</LongitudeDegrees>
            </Position>
            <AltitudeMeters>26.200000762939453125</AltitudeMeters>
            <DistanceMeters>60940.479848554</DistanceMeters>
          </Trackpoint>
          <Trackpoint>
            <Time>2018-04-21T12:15:23.000Z</Time>
            <Position>
              <LatitudeDegrees>43.2747409678995609283447265625</LatitudeDegrees>
              <LongitudeDegrees>-8.1782321445643901824951171875</LongitudeDegrees>
            </Position>
            <AltitudeMeters>26.200000762939453125</AltitudeMeters>
            <DistanceMeters>60958.056965367</DistanceMeters>
          </Trackpoint>
          <Trackpoint>
            <Time>2018-04-21T12:15:26.000Z</Time>
            <Position>
              <LatitudeDegrees>43.2746061868965625762939453125</LatitudeDegrees>
              <LongitudeDegrees>-8.1779949367046356201171875</LongitudeDegrees>
            </Position>
            <AltitudeMeters>24.200000762939453125</AltitudeMeters>
            <DistanceMeters>60982.440161078</DistanceMeters>
          </Trackpoint>
          <Trackpoint>
            <Time>2018-04-21T12:15:27.000Z</Time>
            <Position>
              <LatitudeDegrees>43.27454659156501293182373046875</LatitudeDegrees>
              <LongitudeDegrees>-8.17792511545121669769287109375</LongitudeDegrees>
            </Position>
            <AltitudeMeters>24.200000762939453125</AltitudeMeters>
            <DistanceMeters>60991.157793977</DistanceMeters>
          </Trackpoint>
          <Trackpoint>
            <Time>2018-04-21T12:15:28.000Z</Time>
            <Position>
              <LatitudeDegrees>43.2744915224611759185791015625</LatitudeDegrees>
              <LongitudeDegrees>-8.17786308936774730682373046875</LongitudeDegrees>
            </Position>
            <AltitudeMeters>23.3999996185302734375</AltitudeMeters>
            <DistanceMeters>60999.084411912</DistanceMeters>
          </Trackpoint>
          <Trackpoint>
            <Time>2018-04-21T12:15:29.000Z</Time>
            <Position>
              <LatitudeDegrees>43.27443310059607028961181640625</LatitudeDegrees>
              <LongitudeDegrees>-8.177813552320003509521484375</LongitudeDegrees>
            </Position>
            <AltitudeMeters>24</AltitudeMeters>
            <DistanceMeters>61006.725647041</DistanceMeters>
          </Trackpoint>
          <Trackpoint>
            <Time>2018-04-21T12:15:31.000Z</Time>
            <Position>
              <LatitudeDegrees>43.2742994092404842376708984375</LatitudeDegrees>
              <LongitudeDegrees>-8.1777221895754337310791015625</LongitudeDegrees>
            </Position>
            <AltitudeMeters>22.6000003814697265625</AltitudeMeters>
            <DistanceMeters>61023.345816667</DistanceMeters>
          </Trackpoint>
          <Trackpoint>
            <Time>2018-04-21T12:15:32.000Z</Time>
            <Position>
              <LatitudeDegrees>43.27422916889190673828125</LatitudeDegrees>
              <LongitudeDegrees>-8.17766276188194751739501953125</LongitudeDegrees>
            </Position>
            <AltitudeMeters>21.3999996185302734375</AltitudeMeters>
            <DistanceMeters>61032.527580859</DistanceMeters>
          </Trackpoint>
          <Trackpoint>
            <Time>2018-04-21T12:15:33.000Z</Time>
            <Position>
              <LatitudeDegrees>43.2741562463343143463134765625</LatitudeDegrees>
              <LongitudeDegrees>-8.1776021607220172882080078125</LongitudeDegrees>
            </Position>
            <AltitudeMeters>19.799999237060546875</AltitudeMeters>
            <DistanceMeters>61042.014084</DistanceMeters>
          </Trackpoint>
          <Trackpoint>
            <Time>2018-04-21T12:15:35.000Z</Time>
            <Position>
              <LatitudeDegrees>43.273991458117961883544921875</LatitudeDegrees>
              <LongitudeDegrees>-8.17746293731033802032470703125</LongitudeDegrees>
            </Position>
            <AltitudeMeters>17.6000003814697265625</AltitudeMeters>
            <DistanceMeters>61063.547649088</DistanceMeters>
          </Trackpoint>
          <Trackpoint>
            <Time>2018-04-21T12:15:36.000Z</Time>
            <Position>
              <LatitudeDegrees>43.27389799989759922027587890625</LatitudeDegrees>
              <LongitudeDegrees>-8.1773862428963184356689453125</LongitudeDegrees>
            </Position>
            <AltitudeMeters>15.80000019073486328125</AltitudeMeters>
            <DistanceMeters>61075.664952541</DistanceMeters>
          </Trackpoint>
          <Trackpoint>
            <Time>2018-04-21T12:15:39.000Z</Time>
            <Position>
              <LatitudeDegrees>43.27361695468425750732421875</LatitudeDegrees>
              <LongitudeDegrees>-8.17716504447162151336669921875</LongitudeDegrees>
            </Position>
            <AltitudeMeters>14.19999980926513671875</AltitudeMeters>
            <DistanceMeters>61111.717792423</DistanceMeters>
          </Trackpoint>
          <Trackpoint>
            <Time>2018-04-21T12:15:40.000Z</Time>
            <Position>
              <LatitudeDegrees>43.27352919615805149078369140625</LatitudeDegrees>
              <LongitudeDegrees>-8.17709933035075664520263671875</LongitudeDegrees>
            </Position>
            <AltitudeMeters>14.3999996185302734375</AltitudeMeters>
            <DistanceMeters>61122.842007792</DistanceMeters>
          </Trackpoint>
          <Trackpoint>
            <Time>2018-04-21T12:15:43.000Z</Time>
            <Position>
              <LatitudeDegrees>43.2732919044792652130126953125</LatitudeDegrees>
              <LongitudeDegrees>-8.17686782218515872955322265625</LongitudeDegrees>
            </Position>
            <AltitudeMeters>14.80000019073486328125</AltitudeMeters>
            <DistanceMeters>61155.238313673</DistanceMeters>
          </Trackpoint>
          <Trackpoint>
            <Time>2018-04-21T12:15:44.000Z</Time>
            <Position>
              <LatitudeDegrees>43.27324639074504375457763671875</LatitudeDegrees>
              <LongitudeDegrees>-8.176765143871307373046875</LongitudeDegrees>
            </Position>
            <AltitudeMeters>14.3999996185302734375</AltitudeMeters>
            <DistanceMeters>61164.980290034</DistanceMeters>
          </Trackpoint>
          <Trackpoint>
            <Time>2018-04-21T12:15:47.000Z</Time>
            <Position>
              <LatitudeDegrees>43.27315888367593288421630859375</LatitudeDegrees>
              <LongitudeDegrees>-8.17644721828401088714599609375</LongitudeDegrees>
            </Position>
            <AltitudeMeters>13.6000003814697265625</AltitudeMeters>
            <DistanceMeters>61192.523943429</DistanceMeters>
          </Trackpoint>
          <Trackpoint>
            <Time>2018-04-21T12:15:48.000Z</Time>
            <Position>
              <LatitudeDegrees>43.27312099747359752655029296875</LatitudeDegrees>
              <LongitudeDegrees>-8.17635602317750453948974609375</LongitudeDegrees>
            </Position>
            <AltitudeMeters>13.3999996185302734375</AltitudeMeters>
            <DistanceMeters>61201.032417021</DistanceMeters>
          </Trackpoint>
          <Trackpoint>
            <Time>2018-04-21T12:15:50.000Z</Time>
            <Position>
              <LatitudeDegrees>43.273024521768093109130859375</LatitudeDegrees>
              <LongitudeDegrees>-8.176224343478679656982421875</LongitudeDegrees>
            </Position>
            <AltitudeMeters>13.6000003814697265625</AltitudeMeters>
            <DistanceMeters>61216.171517728</DistanceMeters>
          </Trackpoint>
          <Trackpoint>
            <Time>2018-04-21T12:15:52.000Z</Time>
            <Position>
              <LatitudeDegrees>43.27293558977544307708740234375</LatitudeDegrees>
              <LongitudeDegrees>-8.17614261992275714874267578125</LongitudeDegrees>
            </Position>
            <AltitudeMeters>13.3999996185302734375</AltitudeMeters>
            <DistanceMeters>61228.081364107</DistanceMeters>
          </Trackpoint>
          <Trackpoint>
            <Time>2018-04-21T12:15:53.000Z</Time>
            <Position>
              <LatitudeDegrees>43.2729033194482326507568359375</LatitudeDegrees>
              <LongitudeDegrees>-8.17611931823194026947021484375</LongitudeDegrees>
            </Position>
            <AltitudeMeters>13.80000019073486328125</AltitudeMeters>
            <DistanceMeters>61232.139794769</DistanceMeters>
          </Trackpoint>
          <Trackpoint>
            <Time>2018-04-21T12:15:55.000Z</Time>
            <Position>
              <LatitudeDegrees>43.27285914681851863861083984375</LatitudeDegrees>
              <LongitudeDegrees>-8.1760800071060657501220703125</LongitudeDegrees>
            </Position>
            <AltitudeMeters>15.3999996185302734375</AltitudeMeters>
            <DistanceMeters>61237.997634856</DistanceMeters>
          </Trackpoint>
          <Trackpoint>
            <Time>2018-04-21T12:15:57.000Z</Time>
            <Position>
              <LatitudeDegrees>43.2728258706629276275634765625</LatitudeDegrees>
              <LongitudeDegrees>-8.1760441325604915618896484375</LongitudeDegrees>
            </Position>
            <AltitudeMeters>16</AltitudeMeters>
            <DistanceMeters>61242.706014372</DistanceMeters>
          </Trackpoint>
          <Trackpoint>
            <Time>2018-04-21T12:15:59.000Z</Time>
            <Position>
              <LatitudeDegrees>43.27279351651668548583984375</LatitudeDegrees>
              <LongitudeDegrees>-8.17601270042359828948974609375</LongitudeDegrees>
            </Position>
            <AltitudeMeters>16.6000003814697265625</AltitudeMeters>
            <DistanceMeters>61247.116318745</DistanceMeters>
          </Trackpoint>
          <Trackpoint>
            <Time>2018-04-21T12:16:01.000Z</Time>
            <Position>
              <LatitudeDegrees>43.2727762497961521148681640625</LatitudeDegrees>
              <LongitudeDegrees>-8.17596877925097942352294921875</LongitudeDegrees>
            </Position>
            <AltitudeMeters>17.3999996185302734375</AltitudeMeters>
            <DistanceMeters>61251.161377276</DistanceMeters>
          </Trackpoint>
          <Trackpoint>
            <Time>2018-04-21T12:16:03.000Z</Time>
            <Position>
              <LatitudeDegrees>43.27276091091334819793701171875</LatitudeDegrees>
              <LongitudeDegrees>-8.17591530270874500274658203125</LongitudeDegrees>
            </Position>
            <AltitudeMeters>17.799999237060546875</AltitudeMeters>
            <DistanceMeters>61255.819625197</DistanceMeters>
          </Trackpoint>
          <Trackpoint>
            <Time>2018-04-21T12:16:04.000Z</Time>
            <Position>
              <LatitudeDegrees>43.2727633416652679443359375</LatitudeDegrees>
              <LongitudeDegrees>-8.1758813560009002685546875</LongitudeDegrees>
            </Position>
            <AltitudeMeters>18</AltitudeMeters>
            <DistanceMeters>61258.583579732</DistanceMeters>
          </Trackpoint>
          <Trackpoint>
            <Time>2018-04-21T12:16:07.000Z</Time>
            <Position>
              <LatitudeDegrees>43.2727767527103424072265625</LatitudeDegrees>
              <LongitudeDegrees>-8.17576711066067218780517578125</LongitudeDegrees>
            </Position>
            <AltitudeMeters>18.200000762939453125</AltitudeMeters>
            <DistanceMeters>61267.961421407</DistanceMeters>
          </Trackpoint>
          <Trackpoint>
            <Time>2018-04-21T12:16:10.000Z</Time>
            <Position>
              <LatitudeDegrees>43.27280692756175994873046875</LatitudeDegrees>
              <LongitudeDegrees>-8.1756498478353023529052734375</LongitudeDegrees>
            </Position>
            <AltitudeMeters>18.3999996185302734375</AltitudeMeters>
            <DistanceMeters>61278.039630566</DistanceMeters>
          </Trackpoint>
          <Trackpoint>
            <Time>2018-04-21T12:16:14.000Z</Time>
            <Position>
              <LatitudeDegrees>43.272756971418857574462890625</LatitudeDegrees>
              <LongitudeDegrees>-8.17551263608038425445556640625</LongitudeDegrees>
            </Position>
            <AltitudeMeters>19.200000762939453125</AltitudeMeters>
            <DistanceMeters>61290.471798052</DistanceMeters>
          </Trackpoint>
          <Trackpoint>
            <Time>2018-04-21T12:16:19.000Z</Time>
            <Position>
              <LatitudeDegrees>43.2726998068392276763916015625</LatitudeDegrees>
              <LongitudeDegrees>-8.17541909404098987579345703125</LongitudeDegrees>
            </Position>
            <AltitudeMeters>20.200000762939453125</AltitudeMeters>
            <DistanceMeters>61300.369185044</DistanceMeters>
          </Trackpoint>
          <Trackpoint>
            <Time>2018-04-21T12:16:20.000Z</Time>
            <Position>
              <LatitudeDegrees>43.27268647961318492889404296875</LatitudeDegrees>
              <LongitudeDegrees>-8.17540786229074001312255859375</LongitudeDegrees>
            </Position>
            <AltitudeMeters>20.6000003814697265625</AltitudeMeters>
            <DistanceMeters>61302.108459493</DistanceMeters>
          </Trackpoint>
          <Trackpoint>
            <Time>2018-04-21T12:16:24.000Z</Time>
            <Position>
              <LatitudeDegrees>43.27265362255275249481201171875</LatitudeDegrees>
              <LongitudeDegrees>-8.17536167800426483154296875</LongitudeDegrees>
            </Position>
            <AltitudeMeters>20.799999237060546875</AltitudeMeters>
            <DistanceMeters>61307.340109491</DistanceMeters>
          </Trackpoint>
          <Trackpoint>
            <Time>2018-04-21T12:16:25.000Z</Time>
            <Position>
              <LatitudeDegrees>43.27264658175408840179443359375</LatitudeDegrees>
              <LongitudeDegrees>-8.17532722838222980499267578125</LongitudeDegrees>
            </Position>
            <AltitudeMeters>20.200000762939453125</AltitudeMeters>
            <DistanceMeters>61310.238034799</DistanceMeters>
          </Trackpoint>
          <Trackpoint>
            <Time>2018-04-21T12:16:27.000Z</Time>
            <Position>
              <LatitudeDegrees>43.2726491801440715789794921875</LatitudeDegrees>
              <LongitudeDegrees>-8.17518155090510845184326171875</LongitudeDegrees>
            </Position>
            <AltitudeMeters>19</AltitudeMeters>
            <DistanceMeters>61322.046609669</DistanceMeters>
          </Trackpoint>
          <Trackpoint>
            <Time>2018-04-21T12:16:29.000Z</Time>
            <Position>
              <LatitudeDegrees>43.27269435860216617584228515625</LatitudeDegrees>
              <LongitudeDegrees>-8.1750305928289890289306640625</LongitudeDegrees>
            </Position>
            <AltitudeMeters>17.799999237060546875</AltitudeMeters>
            <DistanceMeters>61335.273427163</DistanceMeters>
          </Trackpoint>
          <Trackpoint>
            <Time>2018-04-21T12:16:30.000Z</Time>
            <Position>
              <LatitudeDegrees>43.27274465002119541168212890625</LatitudeDegrees>
              <LongitudeDegrees>-8.17496605217456817626953125</LongitudeDegrees>
            </Position>
            <AltitudeMeters>17</AltitudeMeters>
            <DistanceMeters>61342.934725805</DistanceMeters>
          </Trackpoint>
          <Trackpoint>
            <Time>2018-04-21T12:16:31.000Z</Time>
            <Position>
              <LatitudeDegrees>43.27283299528062343597412109375</LatitudeDegrees>
              <LongitudeDegrees>-8.17489287815988063812255859375</LongitudeDegrees>
            </Position>
            <AltitudeMeters>16</AltitudeMeters>
            <DistanceMeters>61354.417633809</DistanceMeters>
          </Trackpoint>
          <Trackpoint>
            <Time>2018-04-21T12:16:32.000Z</Time>
            <Position>
              <LatitudeDegrees>43.27289803884923458099365234375</LatitudeDegrees>
              <LongitudeDegrees>-8.1748327799141407012939453125</LongitudeDegrees>
            </Position>
            <AltitudeMeters>15.6000003814697265625</AltitudeMeters>
            <DistanceMeters>61363.143549496</DistanceMeters>
          </Trackpoint>
          <Trackpoint>
            <Time>2018-04-21T12:16:33.000Z</Time>
            <Position>
              <LatitudeDegrees>43.2729965262115001678466796875</LatitudeDegrees>
              <LongitudeDegrees>-8.174755163490772247314453125</LongitudeDegrees>
            </Position>
            <AltitudeMeters>14.80000019073486328125</AltitudeMeters>
            <DistanceMeters>61375.781745259</DistanceMeters>
          </Trackpoint>
          <Trackpoint>
            <Time>2018-04-21T12:16:35.000Z</Time>
            <Position>
              <LatitudeDegrees>43.273147903382778167724609375</LatitudeDegrees>
              <LongitudeDegrees>-8.17462516017258167266845703125</LongitudeDegrees>
            </Position>
            <AltitudeMeters>12.3999996185302734375</AltitudeMeters>
            <DistanceMeters>61395.652556078</DistanceMeters>
          </Trackpoint>
          <Trackpoint>
            <Time>2018-04-21T12:16:37.000Z</Time>
            <Position>
              <LatitudeDegrees>43.27324873767793178558349609375</LatitudeDegrees>
              <LongitudeDegrees>-8.17451787181198596954345703125</LongitudeDegrees>
            </Position>
            <AltitudeMeters>10.3999996185302734375</AltitudeMeters>
            <DistanceMeters>61409.849432714</DistanceMeters>
          </Trackpoint>
          <Trackpoint>
            <Time>2018-04-21T12:16:41.000Z</Time>
            <Position>
              <LatitudeDegrees>43.2734085805714130401611328125</LatitudeDegrees>
              <LongitudeDegrees>-8.174328692257404327392578125</LongitudeDegrees>
            </Position>
            <AltitudeMeters>10</AltitudeMeters>
            <DistanceMeters>61433.334492627</DistanceMeters>
          </Trackpoint>
          <Trackpoint>
            <Time>2018-04-21T12:16:42.000Z</Time>
            <Position>
              <LatitudeDegrees>43.27339340932667255401611328125</LatitudeDegrees>
              <LongitudeDegrees>-8.17422081716358661651611328125</LongitudeDegrees>
            </Position>
            <AltitudeMeters>10</AltitudeMeters>
            <DistanceMeters>61442.237638758</DistanceMeters>
          </Trackpoint>
          <Trackpoint>
            <Time>2018-04-21T12:16:44.000Z</Time>
            <Position>
              <LatitudeDegrees>43.27333557419478893280029296875</LatitudeDegrees>
              <LongitudeDegrees>-8.17397740669548511505126953125</LongitudeDegrees>
            </Position>
            <AltitudeMeters>10.19999980926513671875</AltitudeMeters>
            <DistanceMeters>61462.986999825</DistanceMeters>
          </Trackpoint>
          <Trackpoint>
            <Time>2018-04-21T12:16:45.000Z</Time>
            <Position>
              <LatitudeDegrees>43.2732962630689144134521484375</LatitudeDegrees>
              <LongitudeDegrees>-8.17386089824140071868896484375</LongitudeDegrees>
            </Position>
            <AltitudeMeters>9.80000019073486328125</AltitudeMeters>
            <DistanceMeters>61473.393184367</DistanceMeters>
          </Trackpoint>
          <Trackpoint>
            <Time>2018-04-21T12:16:46.000Z</Time>
            <Position>
              <LatitudeDegrees>43.27325879596173763275146484375</LatitudeDegrees>
              <LongitudeDegrees>-8.1737582199275493621826171875</LongitudeDegrees>
            </Position>
            <AltitudeMeters>9.19999980926513671875</AltitudeMeters>
            <DistanceMeters>61482.700952811</DistanceMeters>
          </Trackpoint>
          <Trackpoint>
            <Time>2018-04-21T12:16:50.000Z</Time>
            <Position>
              <LatitudeDegrees>43.27309048734605312347412109375</LatitudeDegrees>
              <LongitudeDegrees>-8.1733692996203899383544921875</LongitudeDegrees>
            </Position>
            <AltitudeMeters>8.80000019073486328125</AltitudeMeters>
            <DistanceMeters>61519.365259158</DistanceMeters>
          </Trackpoint>
          <Trackpoint>
            <Time>2018-04-21T12:16:51.000Z</Time>
            <Position>
              <LatitudeDegrees>43.27304924838244915008544921875</LatitudeDegrees>
              <LongitudeDegrees>-8.17327835597097873687744140625</LongitudeDegrees>
            </Position>
            <AltitudeMeters>8.3999996185302734375</AltitudeMeters>
            <DistanceMeters>61528.047602053</DistanceMeters>
          </Trackpoint>
          <Trackpoint>
            <Time>2018-04-21T12:16:53.000Z</Time>
            <Position>
              <LatitudeDegrees>43.272949755191802978515625</LatitudeDegrees>
              <LongitudeDegrees>-8.173111975193023681640625</LongitudeDegrees>
            </Position>
            <AltitudeMeters>8.3999996185302734375</AltitudeMeters>
            <DistanceMeters>61545.495552281</DistanceMeters>
          </Trackpoint>
          <Trackpoint>
            <Time>2018-04-21T12:16:55.000Z</Time>
            <Position>
              <LatitudeDegrees>43.272842466831207275390625</LatitudeDegrees>
              <LongitudeDegrees>-8.17298197187483310699462890625</LongitudeDegrees>
            </Position>
            <AltitudeMeters>9.19999980926513671875</AltitudeMeters>
            <DistanceMeters>61561.419829555</DistanceMeters>
          </Trackpoint>
          <Trackpoint>
            <Time>2018-04-21T12:16:58.000Z</Time>
            <Position>
              <LatitudeDegrees>43.2726850546896457672119140625</LatitudeDegrees>
              <LongitudeDegrees>-8.1728854961693286895751953125</LongitudeDegrees>
            </Position>
            <AltitudeMeters>10.19999980926513671875</AltitudeMeters>
            <DistanceMeters>61580.605344299</DistanceMeters>
          </Trackpoint>
          <Trackpoint>
            <Time>2018-04-21T12:16:59.000Z</Time>
            <Position>
              <LatitudeDegrees>43.27263065613806247711181640625</LatitudeDegrees>
              <LongitudeDegrees>-8.17286462523043155670166015625</LongitudeDegrees>
            </Position>
            <AltitudeMeters>10.19999980926513671875</AltitudeMeters>
            <DistanceMeters>61586.891488946</DistanceMeters>
          </Trackpoint>
          <Trackpoint>
            <Time>2018-04-21T12:17:01.000Z</Time>
            <Position>
              <LatitudeDegrees>43.27251599170267581939697265625</LatitudeDegrees>
              <LongitudeDegrees>-8.17283377982676029205322265625</LongitudeDegrees>
            </Position>
            <AltitudeMeters>10.3999996185302734375</AltitudeMeters>
            <DistanceMeters>61599.896268903</DistanceMeters>
          </Trackpoint>
          <Trackpoint>
            <Time>2018-04-21T12:17:04.000Z</Time>
            <Position>
              <LatitudeDegrees>43.2723105512559413909912109375</LatitudeDegrees>
              <LongitudeDegrees>-8.17279346287250518798828125</LongitudeDegrees>
            </Position>
            <AltitudeMeters>10</AltitudeMeters>
            <DistanceMeters>61622.994602969</DistanceMeters>
          </Trackpoint>
          <Trackpoint>
            <Time>2018-04-21T12:17:07.000Z</Time>
            <Position>
              <LatitudeDegrees>43.27210125513374805450439453125</LatitudeDegrees>
              <LongitudeDegrees>-8.172793798148632049560546875</LongitudeDegrees>
            </Position>
            <AltitudeMeters>9.6000003814697265625</AltitudeMeters>
            <DistanceMeters>61646.289913097</DistanceMeters>
          </Trackpoint>
          <Trackpoint>
            <Time>2018-04-21T12:17:10.000Z</Time>
            <Position>
              <LatitudeDegrees>43.27196563594043254852294921875</LatitudeDegrees>
              <LongitudeDegrees>-8.17270637489855289459228515625</LongitudeDegrees>
            </Position>
            <AltitudeMeters>9</AltitudeMeters>
            <DistanceMeters>61662.964867785</DistanceMeters>
          </Trackpoint>
          <Trackpoint>
            <Time>2018-04-21T12:17:12.000Z</Time>
            <Position>
              <LatitudeDegrees>43.27193520963191986083984375</LatitudeDegrees>
              <LongitudeDegrees>-8.1725532375276088714599609375</LongitudeDegrees>
            </Position>
            <AltitudeMeters>8.80000019073486328125</AltitudeMeters>
            <DistanceMeters>61675.828972143</DistanceMeters>
          </Trackpoint>
          <Trackpoint>
            <Time>2018-04-21T12:17:15.000Z</Time>
            <Position>
              <LatitudeDegrees>43.2719169370830059051513671875</LatitudeDegrees>
              <LongitudeDegrees>-8.17226238548755645751953125</LongitudeDegrees>
            </Position>
            <AltitudeMeters>8.3999996185302734375</AltitudeMeters>
            <DistanceMeters>61699.486998226</DistanceMeters>
          </Trackpoint>
          <Trackpoint>
            <Time>2018-04-21T12:17:16.000Z</Time>
            <Position>
              <LatitudeDegrees>43.2719172723591327667236328125</LatitudeDegrees>
              <LongitudeDegrees>-8.17220631055533885955810546875</LongitudeDegrees>
            </Position>
            <AltitudeMeters>6.80000019073486328125</AltitudeMeters>
            <DistanceMeters>61704.03042807</DistanceMeters>
          </Trackpoint>
          <Trackpoint>
            <Time>2018-04-21T12:17:18.000Z</Time>
            <Position>
              <LatitudeDegrees>43.27191232703626155853271484375</LatitudeDegrees>
              <LongitudeDegrees>-8.17213037051260471343994140625</LongitudeDegrees>
            </Position>
            <AltitudeMeters>6.599999904632568359375</AltitudeMeters>
            <DistanceMeters>61710.209357039</DistanceMeters>
          </Trackpoint>
          <Trackpoint>
            <Time>2018-04-21T12:17:19.000Z</Time>
            <Position>
              <LatitudeDegrees>43.27190143056213855743408203125</LatitudeDegrees>
              <LongitudeDegrees>-8.172114528715610504150390625</LongitudeDegrees>
            </Position>
            <AltitudeMeters>8.19999980926513671875</AltitudeMeters>
            <DistanceMeters>61711.974399921</DistanceMeters>
          </Trackpoint>
          <Trackpoint>
            <Time>2018-04-21T12:17:20.000Z</Time>
            <Position>
              <LatitudeDegrees>43.27188952825963497161865234375</LatitudeDegrees>
              <LongitudeDegrees>-8.172113187611103057861328125</LongitudeDegrees>
            </Position>
            <AltitudeMeters>7.80000019073486328125</AltitudeMeters>
            <DistanceMeters>61713.301375771</DistanceMeters>
          </Trackpoint>
          <Trackpoint>
            <Time>2018-04-21T12:17:21.000Z</Time>
            <Position>
              <LatitudeDegrees>43.27187259681522846221923828125</LatitudeDegrees>
              <LongitudeDegrees>-8.1721203960478305816650390625</LongitudeDegrees>
            </Position>
            <AltitudeMeters>8</AltitudeMeters>
            <DistanceMeters>61715.276468939</DistanceMeters>
          </Trackpoint>
          <Trackpoint>
            <Time>2018-04-21T12:17:24.000Z</Time>
            <Position>
              <LatitudeDegrees>43.2717764563858509063720703125</LatitudeDegrees>
              <LongitudeDegrees>-8.17218636162579059600830078125</LongitudeDegrees>
            </Position>
            <AltitudeMeters>7.19999980926513671875</AltitudeMeters>
            <DistanceMeters>61727.237761978</DistanceMeters>
          </Trackpoint>
          <Trackpoint>
            <Time>2018-04-21T12:17:25.000Z</Time>
            <Position>
              <LatitudeDegrees>43.271731026470661163330078125</LatitudeDegrees>
              <LongitudeDegrees>-8.172214441001415252685546875</LongitudeDegrees>
            </Position>
            <AltitudeMeters>7</AltitudeMeters>
            <DistanceMeters>61732.782796721</DistanceMeters>
          </Trackpoint>
          <Trackpoint>
            <Time>2018-04-21T12:17:28.000Z</Time>
            <Position>
              <LatitudeDegrees>43.27155475504696369171142578125</LatitudeDegrees>
              <LongitudeDegrees>-8.172292225062847137451171875</LongitudeDegrees>
            </Position>
            <AltitudeMeters>5.400000095367431640625</AltitudeMeters>
            <DistanceMeters>61753.389794922</DistanceMeters>
          </Trackpoint>
          <Trackpoint>
            <Time>2018-04-21T12:17:31.000Z</Time>
            <Position>
              <LatitudeDegrees>43.27138225547969341278076171875</LatitudeDegrees>
              <LongitudeDegrees>-8.172390460968017578125</LongitudeDegrees>
            </Position>
            <AltitudeMeters>5.80000019073486328125</AltitudeMeters>
            <DistanceMeters>61774.174377118</DistanceMeters>
          </Trackpoint>
          <Trackpoint>
            <Time>2018-04-21T12:17:37.000Z</Time>
            <Position>
              <LatitudeDegrees>43.27105988748371601104736328125</LatitudeDegrees>
              <LongitudeDegrees>-8.17250973545014858245849609375</LongitudeDegrees>
            </Position>
            <AltitudeMeters>4.80000019073486328125</AltitudeMeters>
            <DistanceMeters>61811.333710794</DistanceMeters>
          </Trackpoint>
          <Trackpoint>
            <Time>2018-04-21T12:17:40.000Z</Time>
            <Position>
              <LatitudeDegrees>43.27090498991310596466064453125</LatitudeDegrees>
              <LongitudeDegrees>-8.1725119985640048980712890625</LongitudeDegrees>
            </Position>
            <AltitudeMeters>5.19999980926513671875</AltitudeMeters>
            <DistanceMeters>61828.575233829</DistanceMeters>
          </Trackpoint>
          <Trackpoint>
            <Time>2018-04-21T12:17:43.000Z</Time>
            <Position>
              <LatitudeDegrees>43.27074824832379817962646484375</LatitudeDegrees>
              <LongitudeDegrees>-8.1724912114441394805908203125</LongitudeDegrees>
            </Position>
            <AltitudeMeters>5.19999980926513671875</AltitudeMeters>
            <DistanceMeters>61846.101931763</DistanceMeters>
          </Trackpoint>
          <Trackpoint>
            <Time>2018-04-21T12:17:46.000Z</Time>
            <Position>
              <LatitudeDegrees>43.27057139016687870025634765625</LatitudeDegrees>
              <LongitudeDegrees>-8.1724563427269458770751953125</LongitudeDegrees>
            </Position>
            <AltitudeMeters>5.80000019073486328125</AltitudeMeters>
            <DistanceMeters>61865.988187513</DistanceMeters>
          </Trackpoint>
          <Trackpoint>
            <Time>2018-04-21T12:17:50.000Z</Time>
            <Position>
              <LatitudeDegrees>43.27036888338625431060791015625</LatitudeDegrees>
              <LongitudeDegrees>-8.17242625169456005096435546875</LongitudeDegrees>
            </Position>
            <AltitudeMeters>5.80000019073486328125</AltitudeMeters>
            <DistanceMeters>61888.659179795</DistanceMeters>
          </Trackpoint>
          <Trackpoint>
            <Time>2018-04-21T12:17:53.000Z</Time>
            <Position>
              <LatitudeDegrees>43.270208537578582763671875</LatitudeDegrees>
              <LongitudeDegrees>-8.17241116426885128021240234375</LongitudeDegrees>
            </Position>
            <AltitudeMeters>6.599999904632568359375</AltitudeMeters>
            <DistanceMeters>61906.547438203</DistanceMeters>
          </Trackpoint>
          <Trackpoint>
            <Time>2018-04-21T12:17:55.000Z</Time>
            <Position>
              <LatitudeDegrees>43.270103931427001953125</LatitudeDegrees>
              <LongitudeDegrees>-8.172396831214427947998046875</LongitudeDegrees>
            </Position>
            <AltitudeMeters>6.400000095367431640625</AltitudeMeters>
            <DistanceMeters>61918.248464613</DistanceMeters>
          </Trackpoint>
          <Trackpoint>
            <Time>2018-04-21T12:17:56.000Z</Time>
            <Position>
              <LatitudeDegrees>43.27005271799862384796142578125</LatitudeDegrees>
              <LongitudeDegrees>-8.17239423282444477081298828125</LongitudeDegrees>
            </Position>
            <AltitudeMeters>6.599999904632568359375</AltitudeMeters>
            <DistanceMeters>61923.953234153</DistanceMeters>
          </Trackpoint>
          <Trackpoint>
            <Time>2018-04-21T12:17:59.000Z</Time>
            <Position>
              <LatitudeDegrees>43.26989564113318920135498046875</LatitudeDegrees>
              <LongitudeDegrees>-8.17237579263746738433837890625</LongitudeDegrees>
            </Position>
            <AltitudeMeters>6.80000019073486328125</AltitudeMeters>
            <DistanceMeters>61941.500014098</DistanceMeters>
          </Trackpoint>
          <Trackpoint>
            <Time>2018-04-21T12:18:01.000Z</Time>
            <Position>
              <LatitudeDegrees>43.269783072173595428466796875</LatitudeDegrees>
              <LongitudeDegrees>-8.17233555950224399566650390625</LongitudeDegrees>
            </Position>
            <AltitudeMeters>6.80000019073486328125</AltitudeMeters>
            <DistanceMeters>61954.447033408</DistanceMeters>
          </Trackpoint>
          <Trackpoint>
            <Time>2018-04-21T12:18:02.000Z</Time>
            <Position>
              <LatitudeDegrees>43.26973973773419857025146484375</LatitudeDegrees>
              <LongitudeDegrees>-8.17227688618004322052001953125</LongitudeDegrees>
            </Position>
            <AltitudeMeters>6.80000019073486328125</AltitudeMeters>
            <DistanceMeters>61961.21997873</DistanceMeters>
          </Trackpoint>
          <Trackpoint>
            <Time>2018-04-21T12:18:05.000Z</Time>
            <Position>
              <LatitudeDegrees>43.26961652375757694244384765625</LatitudeDegrees>
              <LongitudeDegrees>-8.17213858477771282196044921875</LongitudeDegrees>
            </Position>
            <AltitudeMeters>7.599999904632568359375</AltitudeMeters>
            <DistanceMeters>61978.93169394</DistanceMeters>
          </Trackpoint>
          <Trackpoint>
            <Time>2018-04-21T12:18:09.000Z</Time>
            <Position>
              <LatitudeDegrees>43.26945324428379535675048828125</LatitudeDegrees>
              <LongitudeDegrees>-8.1719698570668697357177734375</LongitudeDegrees>
            </Position>
            <AltitudeMeters>9</AltitudeMeters>
            <DistanceMeters>62001.674864536</DistanceMeters>
          </Trackpoint>
          <Trackpoint>
            <Time>2018-04-21T12:18:13.000Z</Time>
            <Position>
              <LatitudeDegrees>43.26931293122470378875732421875</LatitudeDegrees>
              <LongitudeDegrees>-8.1718209944665431976318359375</LongitudeDegrees>
            </Position>
            <AltitudeMeters>9.3999996185302734375</AltitudeMeters>
            <DistanceMeters>62021.408872663</DistanceMeters>
          </Trackpoint>
          <Trackpoint>
            <Time>2018-04-21T12:18:14.000Z</Time>
            <Position>
              <LatitudeDegrees>43.26928124763071537017822265625</LatitudeDegrees>
              <LongitudeDegrees>-8.1717764027416706085205078125</LongitudeDegrees>
            </Position>
            <AltitudeMeters>9.6000003814697265625</AltitudeMeters>
            <DistanceMeters>62026.456929291</DistanceMeters>
          </Trackpoint>
          <Trackpoint>
            <Time>2018-04-21T12:18:16.000Z</Time>
            <Position>
              <LatitudeDegrees>43.26922626234591007232666015625</LatitudeDegrees>
              <LongitudeDegrees>-8.17169518209993839263916015625</LongitudeDegrees>
            </Position>
            <AltitudeMeters>10</AltitudeMeters>
            <DistanceMeters>62035.444366845</DistanceMeters>
          </Trackpoint>
          <Trackpoint>
            <Time>2018-04-21T12:18:19.000Z</Time>
            <Position>
              <LatitudeDegrees>43.2691395096480846405029296875</LatitudeDegrees>
              <LongitudeDegrees>-8.17158739082515239715576171875</LongitudeDegrees>
            </Position>
            <AltitudeMeters>10.3999996185302734375</AltitudeMeters>
            <DistanceMeters>62048.465454177</DistanceMeters>
          </Trackpoint>
          <Trackpoint>
            <Time>2018-04-21T12:18:22.000Z</Time>
            <Position>
              <LatitudeDegrees>43.2690241746604442596435546875</LatitudeDegrees>
              <LongitudeDegrees>-8.1714538671076297760009765625</LongitudeDegrees>
            </Position>
            <AltitudeMeters>10</AltitudeMeters>
            <DistanceMeters>62065.255359669</DistanceMeters>
          </Trackpoint>
          <Trackpoint>
            <Time>2018-04-21T12:18:25.000Z</Time>
            <Position>
              <LatitudeDegrees>43.2688870467245578765869140625</LatitudeDegrees>
              <LongitudeDegrees>-8.1713073514401912689208984375</LongitudeDegrees>
            </Position>
            <AltitudeMeters>9.19999980926513671875</AltitudeMeters>
            <DistanceMeters>62084.59300419</DistanceMeters>
          </Trackpoint>
          <Trackpoint>
            <Time>2018-04-21T12:18:27.000Z</Time>
            <Position>
              <LatitudeDegrees>43.26877959072589874267578125</LatitudeDegrees>
              <LongitudeDegrees>-8.1712151505053043365478515625</LongitudeDegrees>
            </Position>
            <AltitudeMeters>9.19999980926513671875</AltitudeMeters>
            <DistanceMeters>62098.695429641</DistanceMeters>
          </Trackpoint>
          <Trackpoint>
            <Time>2018-04-21T12:18:28.000Z</Time>
            <Position>
              <LatitudeDegrees>43.26872460544109344482421875</LatitudeDegrees>
              <LongitudeDegrees>-8.171171061694622039794921875</LongitudeDegrees>
            </Position>
            <AltitudeMeters>9</AltitudeMeters>
            <DistanceMeters>62105.782409617</DistanceMeters>
          </Trackpoint>
          <Trackpoint>
            <Time>2018-04-21T12:18:32.000Z</Time>
            <Position>
              <LatitudeDegrees>43.2684884034097194671630859375</LatitudeDegrees>
              <LongitudeDegrees>-8.17101842723786830902099609375</LongitudeDegrees>
            </Position>
            <AltitudeMeters>8.80000019073486328125</AltitudeMeters>
            <DistanceMeters>62134.836973223</DistanceMeters>
          </Trackpoint>
          <Trackpoint>
            <Time>2018-04-21T12:18:34.000Z</Time>
            <Position>
              <LatitudeDegrees>43.2683806121349334716796875</LatitudeDegrees>
              <LongitudeDegrees>-8.17095371894538402557373046875</LongitudeDegrees>
            </Position>
            <AltitudeMeters>8.80000019073486328125</AltitudeMeters>
            <DistanceMeters>62147.929985527</DistanceMeters>
          </Trackpoint>
          <Trackpoint>
            <Time>2018-04-21T12:18:36.000Z</Time>
            <Position>
              <LatitudeDegrees>43.26828011311590671539306640625</LatitudeDegrees>
              <LongitudeDegrees>-8.17088549025356769561767578125</LongitudeDegrees>
            </Position>
            <AltitudeMeters>8.6000003814697265625</AltitudeMeters>
            <DistanceMeters>62160.407829013</DistanceMeters>
          </Trackpoint>
          <Trackpoint>
            <Time>2018-04-21T12:18:39.000Z</Time>
            <Position>
              <LatitudeDegrees>43.268130831420421600341796875</LatitudeDegrees>
              <LongitudeDegrees>-8.170753978192806243896484375</LongitudeDegrees>
            </Position>
            <AltitudeMeters>9.19999980926513671875</AltitudeMeters>
            <DistanceMeters>62180.147784907</DistanceMeters>
          </Trackpoint>
          <Trackpoint>
            <Time>2018-04-21T12:18:46.000Z</Time>
            <Position>
              <LatitudeDegrees>43.26782396994531154632568359375</LatitudeDegrees>
              <LongitudeDegrees>-8.17042767070233821868896484375</LongitudeDegrees>
            </Position>
            <AltitudeMeters>9.19999980926513671875</AltitudeMeters>
            <DistanceMeters>62223.343776917</DistanceMeters>
          </Trackpoint>
          <Trackpoint>
            <Time>2018-04-21T12:18:53.000Z</Time>
            <Position>
              <LatitudeDegrees>43.26753613539040088653564453125</LatitudeDegrees>
              <LongitudeDegrees>-8.170059956610202789306640625</LongitudeDegrees>
            </Position>
            <AltitudeMeters>9.19999980926513671875</AltitudeMeters>
            <DistanceMeters>62267.098393895</DistanceMeters>
          </Trackpoint>
          <Trackpoint>
            <Time>2018-04-21T12:18:56.000Z</Time>
            <Position>
              <LatitudeDegrees>43.267414681613445281982421875</LatitudeDegrees>
              <LongitudeDegrees>-8.1698539294302463531494140625</LongitudeDegrees>
            </Position>
            <AltitudeMeters>8.80000019073486328125</AltitudeMeters>
            <DistanceMeters>62288.581998509</DistanceMeters>
          </Trackpoint>
          <Trackpoint>
            <Time>2018-04-21T12:18:58.000Z</Time>
            <Position>
              <LatitudeDegrees>43.2673628814518451690673828125</LatitudeDegrees>
              <LongitudeDegrees>-8.169678412377834320068359375</LongitudeDegrees>
            </Position>
            <AltitudeMeters>8.3999996185302734375</AltitudeMeters>
            <DistanceMeters>62303.930504438</DistanceMeters>
          </Trackpoint>
          <Trackpoint>
            <Time>2018-04-21T12:19:01.000Z</Time>
            <Position>
              <LatitudeDegrees>43.26734251342713832855224609375</LatitudeDegrees>
              <LongitudeDegrees>-8.16941522061824798583984375</LongitudeDegrees>
            </Position>
            <AltitudeMeters>8.19999980926513671875</AltitudeMeters>
            <DistanceMeters>62325.381509201</DistanceMeters>
          </Trackpoint>
          <Trackpoint>
            <Time>2018-04-21T12:19:02.000Z</Time>
            <Position>
              <LatitudeDegrees>43.2673431001603603363037109375</LatitudeDegrees>
              <LongitudeDegrees>-8.1693308986723423004150390625</LongitudeDegrees>
            </Position>
            <AltitudeMeters>7.80000019073486328125</AltitudeMeters>
            <DistanceMeters>62332.216830373</DistanceMeters>
          </Trackpoint>
          <Trackpoint>
            <Time>2018-04-21T12:19:03.000Z</Time>
            <Position>
              <LatitudeDegrees>43.26736045069992542266845703125</LatitudeDegrees>
              <LongitudeDegrees>-8.169251941144466400146484375</LongitudeDegrees>
            </Position>
            <AltitudeMeters>7.599999904632568359375</AltitudeMeters>
            <DistanceMeters>62338.901201566</DistanceMeters>
          </Trackpoint>
          <Trackpoint>
            <Time>2018-04-21T12:19:05.000Z</Time>
            <Position>
              <LatitudeDegrees>43.267409317195415496826171875</LatitudeDegrees>
              <LongitudeDegrees>-8.16912981681525707244873046875</LongitudeDegrees>
            </Position>
            <AltitudeMeters>7.599999904632568359375</AltitudeMeters>
            <DistanceMeters>62350.195397414</DistanceMeters>
          </Trackpoint>
          <Trackpoint>
            <Time>2018-04-21T12:19:09.000Z</Time>
            <Position>
              <LatitudeDegrees>43.26756530441343784332275390625</LatitudeDegrees>
              <LongitudeDegrees>-8.16892798058688640594482421875</LongitudeDegrees>
            </Position>
            <AltitudeMeters>8.3999996185302734375</AltitudeMeters>
            <DistanceMeters>62374.049374168</DistanceMeters>
          </Trackpoint>
          <Trackpoint>
            <Time>2018-04-21T12:19:12.000Z</Time>
            <Position>
              <LatitudeDegrees>43.26765633188188076019287109375</LatitudeDegrees>
              <LongitudeDegrees>-8.16881633363664150238037109375</LongitudeDegrees>
            </Position>
            <AltitudeMeters>6</AltitudeMeters>
            <DistanceMeters>62387.63320949</DistanceMeters>
          </Trackpoint>
          <Trackpoint>
            <Time>2018-04-21T12:19:13.000Z</Time>
            <Position>
              <LatitudeDegrees>43.2676751911640167236328125</LatitudeDegrees>
              <LongitudeDegrees>-8.16877928562462329864501953125</LongitudeDegrees>
            </Position>
            <AltitudeMeters>10.3999996185302734375</AltitudeMeters>
            <DistanceMeters>62391.296362994</DistanceMeters>
          </Trackpoint>
          <Trackpoint>
            <Time>2018-04-21T12:19:15.000Z</Time>
            <Position>
              <LatitudeDegrees>43.26771332882344722747802734375</LatitudeDegrees>
              <LongitudeDegrees>-8.16871088929474353790283203125</LongitudeDegrees>
            </Position>
            <AltitudeMeters>12.3999996185302734375</AltitudeMeters>
            <DistanceMeters>62398.278725253</DistanceMeters>
          </Trackpoint>
          <Trackpoint>
            <Time>2018-04-21T12:19:16.000Z</Time>
            <Position>
              <LatitudeDegrees>43.267733193933963775634765625</LatitudeDegrees>
              <LongitudeDegrees>-8.1686697341501712799072265625</LongitudeDegrees>
            </Position>
            <AltitudeMeters>11.19999980926513671875</AltitudeMeters>
            <DistanceMeters>62402.281143973</DistanceMeters>
          </Trackpoint>
          <Trackpoint>
            <Time>2018-04-21T12:19:20.000Z</Time>
            <Position>
              <LatitudeDegrees>43.26776680536568164825439453125</LatitudeDegrees>
              <LongitudeDegrees>-8.1684658862650394439697265625</LongitudeDegrees>
            </Position>
            <AltitudeMeters>10.3999996185302734375</AltitudeMeters>
            <DistanceMeters>62419.220438796</DistanceMeters>
          </Trackpoint>
          <Trackpoint>
            <Time>2018-04-21T12:19:21.000Z</Time>
            <Position>
              <LatitudeDegrees>43.2677689008414745330810546875</LatitudeDegrees>
              <LongitudeDegrees>-8.1683991663157939910888671875</LongitudeDegrees>
            </Position>
            <AltitudeMeters>10.19999980926513671875</AltitudeMeters>
            <DistanceMeters>62424.633626217</DistanceMeters>
          </Trackpoint>
          <Trackpoint>
            <Time>2018-04-21T12:19:26.000Z</Time>
            <Position>
              <LatitudeDegrees>43.26775456778705120086669921875</LatitudeDegrees>
              <LongitudeDegrees>-8.16802524961531162261962890625</LongitudeDegrees>
            </Position>
            <AltitudeMeters>10</AltitudeMeters>
            <DistanceMeters>62454.979898243</DistanceMeters>
          </Trackpoint>
          <Trackpoint>
            <Time>2018-04-21T12:19:31.000Z</Time>
            <Position>
              <LatitudeDegrees>43.26772439293563365936279296875</LatitudeDegrees>
              <LongitudeDegrees>-8.16768913529813289642333984375</LongitudeDegrees>
            </Position>
            <AltitudeMeters>10</AltitudeMeters>
            <DistanceMeters>62482.426666673</DistanceMeters>
          </Trackpoint>
          <Trackpoint>
            <Time>2018-04-21T12:19:32.000Z</Time>
            <Position>
              <LatitudeDegrees>43.26770603656768798828125</LatitudeDegrees>
              <LongitudeDegrees>-8.167629204690456390380859375</LongitudeDegrees>
            </Position>
            <AltitudeMeters>10.19999980926513671875</AltitudeMeters>
            <DistanceMeters>62487.695296</DistanceMeters>
          </Trackpoint>
          <Trackpoint>
            <Time>2018-04-21T12:19:39.000Z</Time>
            <Position>
              <LatitudeDegrees>43.2675798051059246063232421875</LatitudeDegrees>
              <LongitudeDegrees>-8.167183957993984222412109375</LongitudeDegrees>
            </Position>
            <AltitudeMeters>11.19999980926513671875</AltitudeMeters>
            <DistanceMeters>62526.419352534</DistanceMeters>
          </Trackpoint>
          <Trackpoint>
            <Time>2018-04-21T12:19:40.000Z</Time>
            <Position>
              <LatitudeDegrees>43.26755273155868053436279296875</LatitudeDegrees>
              <LongitudeDegrees>-8.16712771542370319366455078125</LongitudeDegrees>
            </Position>
            <AltitudeMeters>11.19999980926513671875</AltitudeMeters>
            <DistanceMeters>62531.884008315</DistanceMeters>
          </Trackpoint>
          <Trackpoint>
            <Time>2018-04-21T12:19:42.000Z</Time>
            <Position>
              <LatitudeDegrees>43.2674954831600189208984375</LatitudeDegrees>
              <LongitudeDegrees>-8.1670332513749599456787109375</LongitudeDegrees>
            </Position>
            <AltitudeMeters>11.3999996185302734375</AltitudeMeters>
            <DistanceMeters>62541.844149871</DistanceMeters>
          </Trackpoint>
          <Trackpoint>
            <Time>2018-04-21T12:19:44.000Z</Time>
            <Position>
              <LatitudeDegrees>43.2674376480281352996826171875</LatitudeDegrees>
              <LongitudeDegrees>-8.166972734034061431884765625</LongitudeDegrees>
            </Position>
            <AltitudeMeters>11.80000019073486328125</AltitudeMeters>
            <DistanceMeters>62549.936498996</DistanceMeters>
          </Trackpoint>
          <Trackpoint>
            <Time>2018-04-21T12:19:47.000Z</Time>
            <Position>
              <LatitudeDegrees>43.26733446680009365081787109375</LatitudeDegrees>
              <LongitudeDegrees>-8.166889250278472900390625</LongitudeDegrees>
            </Position>
            <AltitudeMeters>11.6000003814697265625</AltitudeMeters>
            <DistanceMeters>62563.265329551</DistanceMeters>
          </Trackpoint>
          <Trackpoint>
            <Time>2018-04-21T12:19:49.000Z</Time>
            <Position>
              <LatitudeDegrees>43.2672455348074436187744140625</LatitudeDegrees>
              <LongitudeDegrees>-8.1668503582477569580078125</LongitudeDegrees>
            </Position>
            <AltitudeMeters>11.6000003814697265625</AltitudeMeters>
            <DistanceMeters>62573.653275137</DistanceMeters>
          </Trackpoint>
          <Trackpoint>
            <Time>2018-04-21T12:19:56.000Z</Time>
            <Position>
              <LatitudeDegrees>43.266888298094272613525390625</LatitudeDegrees>
              <LongitudeDegrees>-8.16678690724074840545654296875</LongitudeDegrees>
            </Position>
            <AltitudeMeters>11.80000019073486328125</AltitudeMeters>
            <DistanceMeters>62613.745540318</DistanceMeters>
          </Trackpoint>
          <Trackpoint>
            <Time>2018-04-21T12:20:00.000Z</Time>
            <Position>
              <LatitudeDegrees>43.2666765712201595306396484375</LatitudeDegrees>
              <LongitudeDegrees>-8.16686737351119518280029296875</LongitudeDegrees>
            </Position>
            <AltitudeMeters>10.80000019073486328125</AltitudeMeters>
            <DistanceMeters>62638.196783665</DistanceMeters>
          </Trackpoint>
          <Trackpoint>
            <Time>2018-04-21T12:20:01.000Z</Time>
            <Position>
              <LatitudeDegrees>43.266621418297290802001953125</LatitudeDegrees>
              <LongitudeDegrees>-8.166895620524883270263671875</LongitudeDegrees>
            </Position>
            <AltitudeMeters>10.6000003814697265625</AltitudeMeters>
            <DistanceMeters>62644.748804988</DistanceMeters>
          </Trackpoint>
          <Trackpoint>
            <Time>2018-04-21T12:20:02.000Z</Time>
            <Position>
              <LatitudeDegrees>43.2665620744228363037109375</LatitudeDegrees>
              <LongitudeDegrees>-8.16691942512989044189453125</LongitudeDegrees>
            </Position>
            <AltitudeMeters>10.3999996185302734375</AltitudeMeters>
            <DistanceMeters>62651.629552825</DistanceMeters>
          </Trackpoint>
          <Trackpoint>
            <Time>2018-04-21T12:20:03.000Z</Time>
            <Position>
              <LatitudeDegrees>43.26649376191198825836181640625</LatitudeDegrees>
              <LongitudeDegrees>-8.1669343449175357818603515625</LongitudeDegrees>
            </Position>
            <AltitudeMeters>10</AltitudeMeters>
            <DistanceMeters>62659.328476242</DistanceMeters>
          </Trackpoint>
          <Trackpoint>
            <Time>2018-04-21T12:20:05.000Z</Time>
            <Position>
              <LatitudeDegrees>43.2663661055266857147216796875</LatitudeDegrees>
              <LongitudeDegrees>-8.16690911538898944854736328125</LongitudeDegrees>
            </Position>
            <AltitudeMeters>9.19999980926513671875</AltitudeMeters>
            <DistanceMeters>62673.683172838</DistanceMeters>
          </Trackpoint>
          <Trackpoint>
            <Time>2018-04-21T12:20:08.000Z</Time>
            <Position>
              <LatitudeDegrees>43.266202323138713836669921875</LatitudeDegrees>
              <LongitudeDegrees>-8.166803419589996337890625</LongitudeDegrees>
            </Position>
            <AltitudeMeters>9</AltitudeMeters>
            <DistanceMeters>62693.824801727</DistanceMeters>
          </Trackpoint>
          <Trackpoint>
            <Time>2018-04-21T12:20:09.000Z</Time>
            <Position>
              <LatitudeDegrees>43.2661582343280315399169921875</LatitudeDegrees>
              <LongitudeDegrees>-8.16675606183707714080810546875</LongitudeDegrees>
            </Position>
            <AltitudeMeters>8.80000019073486328125</AltitudeMeters>
            <DistanceMeters>62700.054670792</DistanceMeters>
          </Trackpoint>
          <Trackpoint>
            <Time>2018-04-21T12:20:10.000Z</Time>
            <Position>
              <LatitudeDegrees>43.26612018048763275146484375</LatitudeDegrees>
              <LongitudeDegrees>-8.16670618951320648193359375</LongitudeDegrees>
            </Position>
            <AltitudeMeters>9</AltitudeMeters>
            <DistanceMeters>62705.909426993</DistanceMeters>
          </Trackpoint>
          <Trackpoint>
            <Time>2018-04-21T12:20:11.000Z</Time>
            <Position>
              <LatitudeDegrees>43.266092352569103240966796875</LatitudeDegrees>
              <LongitudeDegrees>-8.1666530482470989227294921875</LongitudeDegrees>
            </Position>
            <AltitudeMeters>9.19999980926513671875</AltitudeMeters>
            <DistanceMeters>62711.214777903</DistanceMeters>
          </Trackpoint>
          <Trackpoint>
            <Time>2018-04-21T12:20:13.000Z</Time>
            <Position>
              <LatitudeDegrees>43.26606008224189281463623046875</LatitudeDegrees>
              <LongitudeDegrees>-8.16655556671321392059326171875</LongitudeDegrees>
            </Position>
            <AltitudeMeters>10.6000003814697265625</AltitudeMeters>
            <DistanceMeters>62719.893479858</DistanceMeters>
          </Trackpoint>
          <Trackpoint>
            <Time>2018-04-21T12:20:18.000Z</Time>
            <Position>
              <LatitudeDegrees>43.26593644917011260986328125</LatitudeDegrees>
              <LongitudeDegrees>-8.16640150733292102813720703125</LongitudeDegrees>
            </Position>
            <AltitudeMeters>10.80000019073486328125</AltitudeMeters>
            <DistanceMeters>62738.474543949</DistanceMeters>
          </Trackpoint>
          <Trackpoint>
            <Time>2018-04-21T12:20:20.000Z</Time>
            <Position>
              <LatitudeDegrees>43.26586964540183544158935546875</LatitudeDegrees>
              <LongitudeDegrees>-8.16635892726480960845947265625</LongitudeDegrees>
            </Position>
            <AltitudeMeters>10.6000003814697265625</AltitudeMeters>
            <DistanceMeters>62746.671114497</DistanceMeters>
          </Trackpoint>
          <Trackpoint>
            <Time>2018-04-21T12:20:23.000Z</Time>
            <Position>
              <LatitudeDegrees>43.26575330458581447601318359375</LatitudeDegrees>
              <LongitudeDegrees>-8.16627443768084049224853515625</LongitudeDegrees>
            </Position>
            <AltitudeMeters>10.3999996185302734375</AltitudeMeters>
            <DistanceMeters>62761.319413936</DistanceMeters>
          </Trackpoint>
          <Trackpoint>
            <Time>2018-04-21T12:20:28.000Z</Time>
            <Position>
              <LatitudeDegrees>43.2656040228903293609619140625</LatitudeDegrees>
              <LongitudeDegrees>-8.16606975160539150238037109375</LongitudeDegrees>
            </Position>
            <AltitudeMeters>11.19999980926513671875</AltitudeMeters>
            <DistanceMeters>62784.798705595</DistanceMeters>
          </Trackpoint>
          <Trackpoint>
            <Time>2018-04-21T12:20:31.000Z</Time>
            <Position>
              <LatitudeDegrees>43.26555247418582439422607421875</LatitudeDegrees>
              <LongitudeDegrees>-8.1659637205302715301513671875</LongitudeDegrees>
            </Position>
            <AltitudeMeters>11.80000019073486328125</AltitudeMeters>
            <DistanceMeters>62795.131741155</DistanceMeters>
          </Trackpoint>
          <Trackpoint>
            <Time>2018-04-21T12:20:33.000Z</Time>
            <Position>
              <LatitudeDegrees>43.26551978476345539093017578125</LatitudeDegrees>
              <LongitudeDegrees>-8.16589993424713611602783203125</LongitudeDegrees>
            </Position>
            <AltitudeMeters>12.3999996185302734375</AltitudeMeters>
            <DistanceMeters>62801.453696417</DistanceMeters>
          </Trackpoint>
          <Trackpoint>
            <Time>2018-04-21T12:20:35.000Z</Time>
            <Position>
              <LatitudeDegrees>43.26548676006495952606201171875</LatitudeDegrees>
              <LongitudeDegrees>-8.165836818516254425048828125</LongitudeDegrees>
            </Position>
            <AltitudeMeters>13</AltitudeMeters>
            <DistanceMeters>62807.753473078</DistanceMeters>
          </Trackpoint>
          <Trackpoint>
            <Time>2018-04-21T12:20:38.000Z</Time>
            <Position>
              <LatitudeDegrees>43.26543219387531280517578125</LatitudeDegrees>
              <LongitudeDegrees>-8.165752328932285308837890625</LongitudeDegrees>
            </Position>
            <AltitudeMeters>13.6000003814697265625</AltitudeMeters>
            <DistanceMeters>62816.906671931</DistanceMeters>
          </Trackpoint>
          <Trackpoint>
            <Time>2018-04-21T12:20:39.000Z</Time>
            <Position>
              <LatitudeDegrees>43.26541484333574771881103515625</LatitudeDegrees>
              <LongitudeDegrees>-8.1657263450324535369873046875</LongitudeDegrees>
            </Position>
            <AltitudeMeters>14.19999980926513671875</AltitudeMeters>
            <DistanceMeters>62819.763801453</DistanceMeters>
          </Trackpoint>
          <Trackpoint>
            <Time>2018-04-21T12:20:40.000Z</Time>
            <Position>
              <LatitudeDegrees>43.26539506204426288604736328125</LatitudeDegrees>
              <LongitudeDegrees>-8.16569424234330654144287109375</LongitudeDegrees>
            </Position>
            <AltitudeMeters>14.3999996185302734375</AltitudeMeters>
            <DistanceMeters>62823.172864137</DistanceMeters>
          </Trackpoint>
          <Trackpoint>
            <Time>2018-04-21T12:20:42.000Z</Time>
            <Position>
              <LatitudeDegrees>43.26534963212907314300537109375</LatitudeDegrees>
              <LongitudeDegrees>-8.16563774831593036651611328125</LongitudeDegrees>
            </Position>
            <AltitudeMeters>14.80000019073486328125</AltitudeMeters>
            <DistanceMeters>62829.993637835</DistanceMeters>
          </Trackpoint>
          <Trackpoint>
            <Time>2018-04-21T12:20:45.000Z</Time>
            <Position>
              <LatitudeDegrees>43.26526816003024578094482421875</LatitudeDegrees>
              <LongitudeDegrees>-8.16554789431393146514892578125</LongitudeDegrees>
            </Position>
            <AltitudeMeters>15.19999980926513671875</AltitudeMeters>
            <DistanceMeters>62841.623448021</DistanceMeters>
          </Trackpoint>
          <Trackpoint>
            <Time>2018-04-21T12:20:46.000Z</Time>
            <Position>
              <LatitudeDegrees>43.26524016447365283966064453125</LatitudeDegrees>
              <LongitudeDegrees>-8.1655167974531650543212890625</LongitudeDegrees>
            </Position>
            <AltitudeMeters>15.19999980926513671875</AltitudeMeters>
            <DistanceMeters>62845.63150316</DistanceMeters>
          </Trackpoint>
          <Trackpoint>
            <Time>2018-04-21T12:20:47.000Z</Time>
            <Position>
              <LatitudeDegrees>43.26521233655512332916259765625</LatitudeDegrees>
              <LongitudeDegrees>-8.16547933034598827362060546875</LongitudeDegrees>
            </Position>
            <AltitudeMeters>15.3999996185302734375</AltitudeMeters>
            <DistanceMeters>62849.969553334</DistanceMeters>
          </Trackpoint>
          <Trackpoint>
            <Time>2018-04-21T12:20:51.000Z</Time>
            <Position>
              <LatitudeDegrees>43.2651165314018726348876953125</LatitudeDegrees>
              <LongitudeDegrees>-8.16532577387988567352294921875</LongitudeDegrees>
            </Position>
            <AltitudeMeters>16.200000762939453125</AltitudeMeters>
            <DistanceMeters>62866.358838062</DistanceMeters>
          </Trackpoint>
          <Trackpoint>
            <Time>2018-04-21T12:20:53.000Z</Time>
            <Position>
              <LatitudeDegrees>43.265059702098369598388671875</LatitudeDegrees>
              <LongitudeDegrees>-8.165264837443828582763671875</LongitudeDegrees>
            </Position>
            <AltitudeMeters>16.200000762939453125</AltitudeMeters>
            <DistanceMeters>62874.383955207</DistanceMeters>
          </Trackpoint>
          <Trackpoint>
            <Time>2018-04-21T12:20:59.000Z</Time>
            <Position>
              <LatitudeDegrees>43.26484906487166881561279296875</LatitudeDegrees>
              <LongitudeDegrees>-8.16510566510260105133056640625</LongitudeDegrees>
            </Position>
            <AltitudeMeters>16.200000762939453125</AltitudeMeters>
            <DistanceMeters>62901.143383487</DistanceMeters>
          </Trackpoint>
          <Trackpoint>
            <Time>2018-04-21T12:21:00.000Z</Time>
            <Position>
              <LatitudeDegrees>43.26479852199554443359375</LatitudeDegrees>
              <LongitudeDegrees>-8.16508437506854534149169921875</LongitudeDegrees>
            </Position>
            <AltitudeMeters>16</AltitudeMeters>
            <DistanceMeters>62907.027371343</DistanceMeters>
          </Trackpoint>
          <Trackpoint>
            <Time>2018-04-21T12:21:03.000Z</Time>
            <Position>
              <LatitudeDegrees>43.26464571990072727203369140625</LatitudeDegrees>
              <LongitudeDegrees>-8.16503785550594329833984375</LongitudeDegrees>
            </Position>
            <AltitudeMeters>15.19999980926513671875</AltitudeMeters>
            <DistanceMeters>62924.447351793</DistanceMeters>
          </Trackpoint>
          <Trackpoint>
            <Time>2018-04-21T12:21:04.000Z</Time>
            <Position>
              <LatitudeDegrees>43.2645975239574909210205078125</LatitudeDegrees>
              <LongitudeDegrees>-8.16502620466053485870361328125</LongitudeDegrees>
            </Position>
            <AltitudeMeters>14.3999996185302734375</AltitudeMeters>
            <DistanceMeters>62929.894629205</DistanceMeters>
          </Trackpoint>
          <Trackpoint>
            <Time>2018-04-21T12:21:06.000Z</Time>
            <Position>
              <LatitudeDegrees>43.26448545791208744049072265625</LatitudeDegrees>
              <LongitudeDegrees>-8.1649696268141269683837890625</LongitudeDegrees>
            </Position>
            <AltitudeMeters>14.6000003814697265625</AltitudeMeters>
            <DistanceMeters>62943.183767815</DistanceMeters>
          </Trackpoint>
          <Trackpoint>
            <Time>2018-04-21T12:21:08.000Z</Time>
            <Position>
              <LatitudeDegrees>43.26437464915215969085693359375</LatitudeDegrees>
              <LongitudeDegrees>-8.1648861430585384368896484375</LongitudeDegrees>
            </Position>
            <AltitudeMeters>13.80000019073486328125</AltitudeMeters>
            <DistanceMeters>62957.250931538</DistanceMeters>
          </Trackpoint>
          <Trackpoint>
            <Time>2018-04-21T12:21:11.000Z</Time>
            <Position>
              <LatitudeDegrees>43.26424556784331798553466796875</LatitudeDegrees>
              <LongitudeDegrees>-8.16474054940044879913330078125</LongitudeDegrees>
            </Position>
            <AltitudeMeters>13</AltitudeMeters>
            <DistanceMeters>62975.842684175</DistanceMeters>
          </Trackpoint>
          <Trackpoint>
            <Time>2018-04-21T12:21:12.000Z</Time>
            <Position>
              <LatitudeDegrees>43.26421204023063182830810546875</LatitudeDegrees>
              <LongitudeDegrees>-8.1647104583680629730224609375</LongitudeDegrees>
            </Position>
            <AltitudeMeters>12.6000003814697265625</AltitudeMeters>
            <DistanceMeters>62980.301857678</DistanceMeters>
          </Trackpoint>
          <Trackpoint>
            <Time>2018-04-21T12:21:16.000Z</Time>
            <Position>
              <LatitudeDegrees>43.26411162503063678741455078125</LatitudeDegrees>
              <LongitudeDegrees>-8.1645847298204898834228515625</LongitudeDegrees>
            </Position>
            <AltitudeMeters>11.80000019073486328125</AltitudeMeters>
            <DistanceMeters>62995.426934756</DistanceMeters>
          </Trackpoint>
          <Trackpoint>
            <Time>2018-04-21T12:21:17.000Z</Time>
            <Position>
              <LatitudeDegrees>43.26406653039157390594482421875</LatitudeDegrees>
              <LongitudeDegrees>-8.16456117667257785797119140625</LongitudeDegrees>
            </Position>
            <AltitudeMeters>11.3999996185302734375</AltitudeMeters>
            <DistanceMeters>63000.797415569</DistanceMeters>
          </Trackpoint>
          <Trackpoint>
            <Time>2018-04-21T12:21:21.000Z</Time>
            <Position>
              <LatitudeDegrees>43.26393141411244869232177734375</LatitudeDegrees>
              <LongitudeDegrees>-8.16443108953535556793212890625</LongitudeDegrees>
            </Position>
            <AltitudeMeters>10.6000003814697265625</AltitudeMeters>
            <DistanceMeters>63019.164139984</DistanceMeters>
          </Trackpoint>
          <Trackpoint>
            <Time>2018-04-21T12:21:23.000Z</Time>
            <Position>
              <LatitudeDegrees>43.26389260590076446533203125</LatitudeDegrees>
              <LongitudeDegrees>-8.1643547303974628448486328125</LongitudeDegrees>
            </Position>
            <AltitudeMeters>11.19999980926513671875</AltitudeMeters>
            <DistanceMeters>63026.711438985</DistanceMeters>
          </Trackpoint>
          <Trackpoint>
            <Time>2018-04-21T12:21:25.000Z</Time>
            <Position>
              <LatitudeDegrees>43.263878859579563140869140625</LatitudeDegrees>
              <LongitudeDegrees>-8.1642601825296878814697265625</LongitudeDegrees>
            </Position>
            <AltitudeMeters>11.19999980926513671875</AltitudeMeters>
            <DistanceMeters>63034.526194706</DistanceMeters>
          </Trackpoint>
          <Trackpoint>
            <Time>2018-04-21T12:21:27.000Z</Time>
            <Position>
              <LatitudeDegrees>43.263866119086742401123046875</LatitudeDegrees>
              <LongitudeDegrees>-8.16416773013770580291748046875</LongitudeDegrees>
            </Position>
            <AltitudeMeters>11</AltitudeMeters>
            <DistanceMeters>63042.153235578</DistanceMeters>
          </Trackpoint>
          <Trackpoint>
            <Time>2018-04-21T12:21:28.000Z</Time>
            <Position>
              <LatitudeDegrees>43.26386368833482265472412109375</LatitudeDegrees>
              <LongitudeDegrees>-8.16412313841283321380615234375</LongitudeDegrees>
            </Position>
            <AltitudeMeters>11</AltitudeMeters>
            <DistanceMeters>63045.776732666</DistanceMeters>
          </Trackpoint>
          <Trackpoint>
            <Time>2018-04-21T12:21:32.000Z</Time>
            <Position>
              <LatitudeDegrees>43.2638825476169586181640625</LatitudeDegrees>
              <LongitudeDegrees>-8.16394544206559658050537109375</LongitudeDegrees>
            </Position>
            <AltitudeMeters>11.19999980926513671875</AltitudeMeters>
            <DistanceMeters>63060.331028706</DistanceMeters>
          </Trackpoint>
          <Trackpoint>
            <Time>2018-04-21T12:21:34.000Z</Time>
            <Position>
              <LatitudeDegrees>43.2638967968523502349853515625</LatitudeDegrees>
              <LongitudeDegrees>-8.16386329941451549530029296875</LongitudeDegrees>
            </Position>
            <AltitudeMeters>11</AltitudeMeters>
            <DistanceMeters>63067.174271829</DistanceMeters>
          </Trackpoint>
          <Trackpoint>
            <Time>2018-04-21T12:21:39.000Z</Time>
            <Position>
              <LatitudeDegrees>43.2639799453318119049072265625</LatitudeDegrees>
              <LongitudeDegrees>-8.1636479683220386505126953125</LongitudeDegrees>
            </Position>
            <AltitudeMeters>10.80000019073486328125</AltitudeMeters>
            <DistanceMeters>63086.928860754</DistanceMeters>
          </Trackpoint>
          <Trackpoint>
            <Time>2018-04-21T12:21:45.000Z</Time>
            <Position>
              <LatitudeDegrees>43.26411715708673000335693359375</LatitudeDegrees>
              <LongitudeDegrees>-8.1633877940475940704345703125</LongitudeDegrees>
            </Position>
            <AltitudeMeters>10.80000019073486328125</AltitudeMeters>
            <DistanceMeters>63112.965486857</DistanceMeters>
          </Trackpoint>
          <Trackpoint>
            <Time>2018-04-21T12:21:50.000Z</Time>
            <Position>
              <LatitudeDegrees>43.26421354897320270538330078125</LatitudeDegrees>
              <LongitudeDegrees>-8.1632302142679691314697265625</LongitudeDegrees>
            </Position>
            <AltitudeMeters>10.6000003814697265625</AltitudeMeters>
            <DistanceMeters>63129.645314651</DistanceMeters>
          </Trackpoint>
          <Trackpoint>
            <Time>2018-04-21T12:21:51.000Z</Time>
            <Position>
              <LatitudeDegrees>43.26422444544732570648193359375</LatitudeDegrees>
              <LongitudeDegrees>-8.16321286372840404510498046875</LongitudeDegrees>
            </Position>
            <AltitudeMeters>10.3999996185302734375</AltitudeMeters>
            <DistanceMeters>63131.502594705</DistanceMeters>
          </Trackpoint>
          <Trackpoint>
            <Time>2018-04-21T12:27:09.000Z</Time>
            <Position>
              <LatitudeDegrees>43.26422729529440402984619140625</LatitudeDegrees>
              <LongitudeDegrees>-8.1632218323647975921630859375</LongitudeDegrees>
            </Position>
            <AltitudeMeters>10.3999996185302734375</AltitudeMeters>
            <DistanceMeters>63132.291945878</DistanceMeters>
          </Trackpoint>
          <Trackpoint>
            <Time>2018-04-21T12:27:10.000Z</Time>
            <Position>
              <LatitudeDegrees>43.26422729529440402984619140625</LatitudeDegrees>
              <LongitudeDegrees>-8.1632218323647975921630859375</LongitudeDegrees>
            </Position>
            <AltitudeMeters>10.19999980926513671875</AltitudeMeters>
            <DistanceMeters>63132.291945878</DistanceMeters>
          </Trackpoint>
          <Trackpoint>
            <Time>2018-04-21T12:27:13.000Z</Time>
            <Position>
              <LatitudeDegrees>43.26421178877353668212890625</LatitudeDegrees>
              <LongitudeDegrees>-8.16325242631137371063232421875</LongitudeDegrees>
            </Position>
            <AltitudeMeters>10.6000003814697265625</AltitudeMeters>
            <DistanceMeters>63135.311942105</DistanceMeters>
          </Trackpoint>
          <Trackpoint>
            <Time>2018-04-21T12:27:14.000Z</Time>
            <Position>
              <LatitudeDegrees>43.26420307159423828125</LatitudeDegrees>
              <LongitudeDegrees>-8.1632749736309051513671875</LongitudeDegrees>
            </Position>
            <AltitudeMeters>10.6000003814697265625</AltitudeMeters>
            <DistanceMeters>63137.378636605</DistanceMeters>
          </Trackpoint>
          <Trackpoint>
            <Time>2018-04-21T12:27:17.000Z</Time>
            <Position>
              <LatitudeDegrees>43.264181278645992279052734375</LatitudeDegrees>
              <LongitudeDegrees>-8.163335323333740234375</LongitudeDegrees>
            </Position>
            <AltitudeMeters>10.6000003814697265625</AltitudeMeters>
            <DistanceMeters>63142.837505743</DistanceMeters>
          </Trackpoint>
          <Trackpoint>
            <Time>2018-04-21T12:27:20.000Z</Time>
            <Position>
              <LatitudeDegrees>43.26415571384131908416748046875</LatitudeDegrees>
              <LongitudeDegrees>-8.16339357756078243255615234375</LongitudeDegrees>
            </Position>
            <AltitudeMeters>10.80000019073486328125</AltitudeMeters>
            <DistanceMeters>63148.350693325</DistanceMeters>
          </Trackpoint>
          <Trackpoint>
            <Time>2018-04-21T12:27:21.000Z</Time>
            <Position>
              <LatitudeDegrees>43.2641415484249591827392578125</LatitudeDegrees>
              <LongitudeDegrees>-8.1634171307086944580078125</LongitudeDegrees>
            </Position>
            <AltitudeMeters>11</AltitudeMeters>
            <DistanceMeters>63150.825040073</DistanceMeters>
          </Trackpoint>
          <Trackpoint>
            <Time>2018-04-21T12:27:28.000Z</Time>
            <Position>
              <LatitudeDegrees>43.26402747072279453277587890625</LatitudeDegrees>
              <LongitudeDegrees>-8.16362030804157257080078125</LongitudeDegrees>
            </Position>
            <AltitudeMeters>10.6000003814697265625</AltitudeMeters>
            <DistanceMeters>63171.6191782</DistanceMeters>
          </Trackpoint>
          <Trackpoint>
            <Time>2018-04-21T12:27:34.000Z</Time>
            <Position>
              <LatitudeDegrees>43.2639531232416629791259765625</LatitudeDegrees>
              <LongitudeDegrees>-8.16378970630466938018798828125</LongitudeDegrees>
            </Position>
            <AltitudeMeters>11.19999980926513671875</AltitudeMeters>
            <DistanceMeters>63187.650272224</DistanceMeters>
          </Trackpoint>
          <Trackpoint>
            <Time>2018-04-21T12:27:39.000Z</Time>
            <Position>
              <LatitudeDegrees>43.26386838220059871673583984375</LatitudeDegrees>
              <LongitudeDegrees>-8.16397301852703094482421875</LongitudeDegrees>
            </Position>
            <AltitudeMeters>11.3999996185302734375</AltitudeMeters>
            <DistanceMeters>63205.248952909</DistanceMeters>
          </Trackpoint>
          <Trackpoint>
            <Time>2018-04-21T12:27:40.000Z</Time>
            <Position>
              <LatitudeDegrees>43.2638582400977611541748046875</LatitudeDegrees>
              <LongitudeDegrees>-8.16402456723153591156005859375</LongitudeDegrees>
            </Position>
            <AltitudeMeters>11.19999980926513671875</AltitudeMeters>
            <DistanceMeters>63209.576582577</DistanceMeters>
          </Trackpoint>
          <Trackpoint>
            <Time>2018-04-21T12:27:46.000Z</Time>
            <Position>
              <LatitudeDegrees>43.263873495161533355712890625</LatitudeDegrees>
              <LongitudeDegrees>-8.1642984040081501007080078125</LongitudeDegrees>
            </Position>
            <AltitudeMeters>10.80000019073486328125</AltitudeMeters>
            <DistanceMeters>63231.835969237</DistanceMeters>
          </Trackpoint>
          <Trackpoint>
            <Time>2018-04-21T12:27:47.000Z</Time>
            <Position>
              <LatitudeDegrees>43.26388053596019744873046875</LatitudeDegrees>
              <LongitudeDegrees>-8.164338134229183197021484375</LongitudeDegrees>
            </Position>
            <AltitudeMeters>9.19999980926513671875</AltitudeMeters>
            <DistanceMeters>63235.149663996</DistanceMeters>
          </Trackpoint>
          <Trackpoint>
            <Time>2018-04-21T12:27:48.000Z</Time>
            <Position>
              <LatitudeDegrees>43.26388648711144924163818359375</LatitudeDegrees>
              <LongitudeDegrees>-8.16437962464988231658935546875</LongitudeDegrees>
            </Position>
            <AltitudeMeters>10.3999996185302734375</AltitudeMeters>
            <DistanceMeters>63238.577218438</DistanceMeters>
          </Trackpoint>
          <Trackpoint>
            <Time>2018-04-21T12:27:50.000Z</Time>
            <Position>
              <LatitudeDegrees>43.26391515322029590606689453125</LatitudeDegrees>
              <LongitudeDegrees>-8.164448440074920654296875</LongitudeDegrees>
            </Position>
            <AltitudeMeters>11.3999996185302734375</AltitudeMeters>
            <DistanceMeters>63245.002598544</DistanceMeters>
          </Trackpoint>
          <Trackpoint>
            <Time>2018-04-21T12:27:51.000Z</Time>
            <Position>
              <LatitudeDegrees>43.263935856521129608154296875</LatitudeDegrees>
              <LongitudeDegrees>-8.16447081975638866424560546875</LongitudeDegrees>
            </Position>
            <AltitudeMeters>11.19999980926513671875</AltitudeMeters>
            <DistanceMeters>63247.93460004</DistanceMeters>
          </Trackpoint>
          <Trackpoint>
            <Time>2018-04-21T12:27:56.000Z</Time>
            <Position>
              <LatitudeDegrees>43.26406485401093959808349609375</LatitudeDegrees>
              <LongitudeDegrees>-8.1645880825817584991455078125</LongitudeDegrees>
            </Position>
            <AltitudeMeters>11.6000003814697265625</AltitudeMeters>
            <DistanceMeters>63265.153063091</DistanceMeters>
          </Trackpoint>
          <Trackpoint>
            <Time>2018-04-21T12:27:58.000Z</Time>
            <Position>
              <LatitudeDegrees>43.2641214318573474884033203125</LatitudeDegrees>
              <LongitudeDegrees>-8.16462605260312557220458984375</LongitudeDegrees>
            </Position>
            <AltitudeMeters>12.19999980926513671875</AltitudeMeters>
            <DistanceMeters>63272.161887233</DistanceMeters>
          </Trackpoint>
          <Trackpoint>
            <Time>2018-04-21T12:28:00.000Z</Time>
            <Position>
              <LatitudeDegrees>43.2641814462840557098388671875</LatitudeDegrees>
              <LongitudeDegrees>-8.1646589934825897216796875</LongitudeDegrees>
            </Position>
            <AltitudeMeters>12.6000003814697265625</AltitudeMeters>
            <DistanceMeters>63279.355101954</DistanceMeters>
          </Trackpoint>
          <Trackpoint>
            <Time>2018-04-21T12:28:01.000Z</Time>
            <Position>
              <LatitudeDegrees>43.26421338133513927459716796875</LatitudeDegrees>
              <LongitudeDegrees>-8.16467709839344024658203125</LongitudeDegrees>
            </Position>
            <AltitudeMeters>12.80000019073486328125</AltitudeMeters>
            <DistanceMeters>63283.199869195</DistanceMeters>
          </Trackpoint>
          <Trackpoint>
            <Time>2018-04-21T12:28:03.000Z</Time>
            <Position>
              <LatitudeDegrees>43.26427641324698925018310546875</LatitudeDegrees>
              <LongitudeDegrees>-8.1647117994725704193115234375</LongitudeDegrees>
            </Position>
            <AltitudeMeters>13.3999996185302734375</AltitudeMeters>
            <DistanceMeters>63290.757928707</DistanceMeters>
          </Trackpoint>
          <Trackpoint>
            <Time>2018-04-21T12:28:05.000Z</Time>
            <Position>
              <LatitudeDegrees>43.26434061862528324127197265625</LatitudeDegrees>
              <LongitudeDegrees>-8.16475345753133296966552734375</LongitudeDegrees>
            </Position>
            <AltitudeMeters>13.80000019073486328125</AltitudeMeters>
            <DistanceMeters>63298.661729618</DistanceMeters>
          </Trackpoint>
          <Trackpoint>
            <Time>2018-04-21T12:28:06.000Z</Time>
            <Position>
              <LatitudeDegrees>43.26437246985733509063720703125</LatitudeDegrees>
              <LongitudeDegrees>-8.1647770106792449951171875</LongitudeDegrees>
            </Position>
            <AltitudeMeters>13.80000019073486328125</AltitudeMeters>
            <DistanceMeters>63302.688889571</DistanceMeters>
          </Trackpoint>
          <Trackpoint>
            <Time>2018-04-21T12:28:08.000Z</Time>
            <Position>
              <LatitudeDegrees>43.2644402794539928436279296875</LatitudeDegrees>
              <LongitudeDegrees>-8.1648257933557033538818359375</LongitudeDegrees>
            </Position>
            <AltitudeMeters>14.19999980926513671875</AltitudeMeters>
            <DistanceMeters>63311.209029508</DistanceMeters>
          </Trackpoint>
          <Trackpoint>
            <Time>2018-04-21T12:28:11.000Z</Time>
            <Position>
              <LatitudeDegrees>43.2645391859114170074462890625</LatitudeDegrees>
              <LongitudeDegrees>-8.1648928485810756683349609375</LongitudeDegrees>
            </Position>
            <AltitudeMeters>14.80000019073486328125</AltitudeMeters>
            <DistanceMeters>63323.486245642</DistanceMeters>
          </Trackpoint>
          <Trackpoint>
            <Time>2018-04-21T12:28:12.000Z</Time>
            <Position>
              <LatitudeDegrees>43.264568187296390533447265625</LatitudeDegrees>
              <LongitudeDegrees>-8.1649069301784038543701171875</LongitudeDegrees>
            </Position>
            <AltitudeMeters>15.19999980926513671875</AltitudeMeters>
            <DistanceMeters>63326.909845972</DistanceMeters>
          </Trackpoint>
          <Trackpoint>
            <Time>2018-04-21T12:28:15.000Z</Time>
            <Position>
              <LatitudeDegrees>43.26465091668069362640380859375</LatitudeDegrees>
              <LongitudeDegrees>-8.16493517719209194183349609375</LongitudeDegrees>
            </Position>
            <AltitudeMeters>16</AltitudeMeters>
            <DistanceMeters>63336.398252696</DistanceMeters>
          </Trackpoint>
          <Trackpoint>
            <Time>2018-04-21T12:28:17.000Z</Time>
            <Position>
              <LatitudeDegrees>43.2646981067955493927001953125</LatitudeDegrees>
              <LongitudeDegrees>-8.16495479084551334381103515625</LongitudeDegrees>
            </Position>
            <AltitudeMeters>16.6000003814697265625</AltitudeMeters>
            <DistanceMeters>63341.885171217</DistanceMeters>
          </Trackpoint>
          <Trackpoint>
            <Time>2018-04-21T12:28:18.000Z</Time>
            <Position>
              <LatitudeDegrees>43.26472383923828601837158203125</LatitudeDegrees>
              <LongitudeDegrees>-8.16496811807155609130859375</LongitudeDegrees>
            </Position>
            <AltitudeMeters>16.6000003814697265625</AltitudeMeters>
            <DistanceMeters>63344.94379169</DistanceMeters>
          </Trackpoint>
          <Trackpoint>
            <Time>2018-04-21T12:28:24.000Z</Time>
            <Position>
              <LatitudeDegrees>43.26496389694511890411376953125</LatitudeDegrees>
              <LongitudeDegrees>-8.1651412881910800933837890625</LongitudeDegrees>
            </Position>
            <AltitudeMeters>16.799999237060546875</AltitudeMeters>
            <DistanceMeters>63375.124611279</DistanceMeters>
          </Trackpoint>
          <Trackpoint>
            <Time>2018-04-21T12:28:28.000Z</Time>
            <Position>
              <LatitudeDegrees>43.26512801460921764373779296875</LatitudeDegrees>
              <LongitudeDegrees>-8.16528151743113994598388671875</LongitudeDegrees>
            </Position>
            <AltitudeMeters>16.3999996185302734375</AltitudeMeters>
            <DistanceMeters>63396.638457941</DistanceMeters>
          </Trackpoint>
          <Trackpoint>
            <Time>2018-04-21T12:28:29.000Z</Time>
            <Position>
              <LatitudeDegrees>43.2651695050299167633056640625</LatitudeDegrees>
              <LongitudeDegrees>-8.1653240136802196502685546875</LongitudeDegrees>
            </Position>
            <AltitudeMeters>16.3999996185302734375</AltitudeMeters>
            <DistanceMeters>63402.399930063</DistanceMeters>
          </Trackpoint>
          <Trackpoint>
            <Time>2018-04-21T12:28:35.000Z</Time>
            <Position>
              <LatitudeDegrees>43.2654373906552791595458984375</LatitudeDegrees>
              <LongitudeDegrees>-8.16560790874063968658447265625</LongitudeDegrees>
            </Position>
            <AltitudeMeters>15.19999980926513671875</AltitudeMeters>
            <DistanceMeters>63440.062171205</DistanceMeters>
          </Trackpoint>
          <Trackpoint>
            <Time>2018-04-21T12:28:36.000Z</Time>
            <Position>
              <LatitudeDegrees>43.26548986136913299560546875</LatitudeDegrees>
              <LongitudeDegrees>-8.1656696833670139312744140625</LongitudeDegrees>
            </Position>
            <AltitudeMeters>14.3999996185302734375</AltitudeMeters>
            <DistanceMeters>63447.75522788</DistanceMeters>
          </Trackpoint>
          <Trackpoint>
            <Time>2018-04-21T12:28:37.000Z</Time>
            <Position>
              <LatitudeDegrees>43.26554425992071628570556640625</LatitudeDegrees>
              <LongitudeDegrees>-8.16573699004948139190673828125</LongitudeDegrees>
            </Position>
            <AltitudeMeters>14</AltitudeMeters>
            <DistanceMeters>63455.905396119</DistanceMeters>
          </Trackpoint>
          <Trackpoint>
            <Time>2018-04-21T12:28:39.000Z</Time>
            <Position>
              <LatitudeDegrees>43.26566361822187900543212890625</LatitudeDegrees>
              <LongitudeDegrees>-8.16588082350790500640869140625</LongitudeDegrees>
            </Position>
            <AltitudeMeters>12.80000019073486328125</AltitudeMeters>
            <DistanceMeters>63473.579854088</DistanceMeters>
          </Trackpoint>
          <Trackpoint>
            <Time>2018-04-21T12:28:41.000Z</Time>
            <Position>
              <LatitudeDegrees>43.2657870836555957794189453125</LatitudeDegrees>
              <LongitudeDegrees>-8.16603538580238819122314453125</LongitudeDegrees>
            </Position>
            <AltitudeMeters>12.19999980926513671875</AltitudeMeters>
            <DistanceMeters>63492.174520717</DistanceMeters>
          </Trackpoint>
          <Trackpoint>
            <Time>2018-04-21T12:28:45.000Z</Time>
            <Position>
              <LatitudeDegrees>43.26599813997745513916015625</LatitudeDegrees>
              <LongitudeDegrees>-8.16636554896831512451171875</LongitudeDegrees>
            </Position>
            <AltitudeMeters>12</AltitudeMeters>
            <DistanceMeters>63527.781779994</DistanceMeters>
          </Trackpoint>
          <Trackpoint>
            <Time>2018-04-21T12:28:46.000Z</Time>
            <Position>
              <LatitudeDegrees>43.26604507863521575927734375</LatitudeDegrees>
              <LongitudeDegrees>-8.166434951126575469970703125</LongitudeDegrees>
            </Position>
            <AltitudeMeters>12.19999980926513671875</AltitudeMeters>
            <DistanceMeters>63535.458385941</DistanceMeters>
          </Trackpoint>
          <Trackpoint>
            <Time>2018-04-21T12:28:47.000Z</Time>
            <Position>
              <LatitudeDegrees>43.266091011464595794677734375</LatitudeDegrees>
              <LongitudeDegrees>-8.16650527529418468475341796875</LongitudeDegrees>
            </Position>
            <AltitudeMeters>11.3999996185302734375</AltitudeMeters>
            <DistanceMeters>63543.114968487</DistanceMeters>
          </Trackpoint>
          <Trackpoint>
            <Time>2018-04-21T12:28:48.000Z</Time>
            <Position>
              <LatitudeDegrees>43.26613903976976871490478515625</LatitudeDegrees>
              <LongitudeDegrees>-8.16658389754593372344970703125</LongitudeDegrees>
            </Position>
            <AltitudeMeters>10.80000019073486328125</AltitudeMeters>
            <DistanceMeters>63551.432927714</DistanceMeters>
          </Trackpoint>
          <Trackpoint>
            <Time>2018-04-21T12:28:49.000Z</Time>
            <Position>
              <LatitudeDegrees>43.26619050465524196624755859375</LatitudeDegrees>
              <LongitudeDegrees>-8.16665229387581348419189453125</LongitudeDegrees>
            </Position>
            <AltitudeMeters>10.19999980926513671875</AltitudeMeters>
            <DistanceMeters>63559.40385099</DistanceMeters>
          </Trackpoint>
          <Trackpoint>
            <Time>2018-04-21T12:28:51.000Z</Time>
            <Position>
              <LatitudeDegrees>43.26628890819847583770751953125</LatitudeDegrees>
              <LongitudeDegrees>-8.16676561720669269561767578125</LongitudeDegrees>
            </Position>
            <AltitudeMeters>9.80000019073486328125</AltitudeMeters>
            <DistanceMeters>63573.697713645</DistanceMeters>
          </Trackpoint>
          <Trackpoint>
            <Time>2018-04-21T12:28:52.000Z</Time>
            <Position>
              <LatitudeDegrees>43.26633718796074390411376953125</LatitudeDegrees>
              <LongitudeDegrees>-8.16680568270385265350341796875</LongitudeDegrees>
            </Position>
            <AltitudeMeters>9.6000003814697265625</AltitudeMeters>
            <DistanceMeters>63579.97667166</DistanceMeters>
          </Trackpoint>
          <Trackpoint>
            <Time>2018-04-21T12:28:53.000Z</Time>
            <Position>
              <LatitudeDegrees>43.266382701694965362548828125</LatitudeDegrees>
              <LongitudeDegrees>-8.1668304093182086944580078125</LongitudeDegrees>
            </Position>
            <AltitudeMeters>9</AltitudeMeters>
            <DistanceMeters>63585.423949072</DistanceMeters>
          </Trackpoint>
          <Trackpoint>
            <Time>2018-04-21T12:28:54.000Z</Time>
            <Position>
              <LatitudeDegrees>43.26642938889563083648681640625</LatitudeDegrees>
              <LongitudeDegrees>-8.16684088669717311859130859375</LongitudeDegrees>
            </Position>
            <AltitudeMeters>9</AltitudeMeters>
            <DistanceMeters>63590.689149418</DistanceMeters>
          </Trackpoint>
          <Trackpoint>
            <Time>2018-04-21T12:28:58.000Z</Time>
            <Position>
              <LatitudeDegrees>43.266569785773754119873046875</LatitudeDegrees>
              <LongitudeDegrees>-8.16678087227046489715576171875</LongitudeDegrees>
            </Position>
            <AltitudeMeters>10</AltitudeMeters>
            <DistanceMeters>63607.054725097</DistanceMeters>
          </Trackpoint>
          <Trackpoint>
            <Time>2018-04-21T12:29:00.000Z</Time>
            <Position>
              <LatitudeDegrees>43.266623429954051971435546875</LatitudeDegrees>
              <LongitudeDegrees>-8.1667459197342395782470703125</LongitudeDegrees>
            </Position>
            <AltitudeMeters>10.19999980926513671875</AltitudeMeters>
            <DistanceMeters>63613.663011538</DistanceMeters>
          </Trackpoint>
          <Trackpoint>
            <Time>2018-04-21T12:29:03.000Z</Time>
            <Position>
              <LatitudeDegrees>43.26668738387525081634521484375</LatitudeDegrees>
              <LongitudeDegrees>-8.16671431995928287506103515625</LongitudeDegrees>
            </Position>
            <AltitudeMeters>10.6000003814697265625</AltitudeMeters>
            <DistanceMeters>63621.228236221</DistanceMeters>
          </Trackpoint>
          <Trackpoint>
            <Time>2018-04-21T12:29:07.000Z</Time>
            <Position>
              <LatitudeDegrees>43.26681160368025302886962890625</LatitudeDegrees>
              <LongitudeDegrees>-8.1666741706430912017822265625</LongitudeDegrees>
            </Position>
            <AltitudeMeters>11.19999980926513671875</AltitudeMeters>
            <DistanceMeters>63635.432107803</DistanceMeters>
          </Trackpoint>
          <Trackpoint>
            <Time>2018-04-21T12:29:08.000Z</Time>
            <Position>
              <LatitudeDegrees>43.2668462209403514862060546875</LatitudeDegrees>
              <LongitudeDegrees>-8.1666644476354122161865234375</LongitudeDegrees>
            </Position>
            <AltitudeMeters>11.6000003814697265625</AltitudeMeters>
            <DistanceMeters>63639.366259684</DistanceMeters>
          </Trackpoint>
          <Trackpoint>
            <Time>2018-04-21T12:29:09.000Z</Time>
            <Position>
              <LatitudeDegrees>43.2668784074485301971435546875</LatitudeDegrees>
              <LongitudeDegrees>-8.16665899939835071563720703125</LongitudeDegrees>
            </Position>
            <AltitudeMeters>11.80000019073486328125</AltitudeMeters>
            <DistanceMeters>63642.976024262</DistanceMeters>
          </Trackpoint>
          <Trackpoint>
            <Time>2018-04-21T12:29:11.000Z</Time>
            <Position>
              <LatitudeDegrees>43.26694588176906108856201171875</LatitudeDegrees>
              <LongitudeDegrees>-8.16666570492088794708251953125</LongitudeDegrees>
            </Position>
            <AltitudeMeters>12.19999980926513671875</AltitudeMeters>
            <DistanceMeters>63650.506554128</DistanceMeters>
          </Trackpoint>
          <Trackpoint>
            <Time>2018-04-21T12:29:12.000Z</Time>
            <Position>
              <LatitudeDegrees>43.26697974465787410736083984375</LatitudeDegrees>
              <LongitudeDegrees>-8.16667358390986919403076171875</LongitudeDegrees>
            </Position>
            <AltitudeMeters>12.19999980926513671875</AltitudeMeters>
            <DistanceMeters>63654.328943916</DistanceMeters>
          </Trackpoint>
          <Trackpoint>
            <Time>2018-04-21T12:29:13.000Z</Time>
            <Position>
              <LatitudeDegrees>43.2670279406011104583740234375</LatitudeDegrees>
              <LongitudeDegrees>-8.1666865758597850799560546875</LongitudeDegrees>
            </Position>
            <AltitudeMeters>12.3999996185302734375</AltitudeMeters>
            <DistanceMeters>63659.7969036</DistanceMeters>
          </Trackpoint>
          <Trackpoint>
            <Time>2018-04-21T12:29:14.000Z</Time>
            <Position>
              <LatitudeDegrees>43.26708736829459667205810546875</LatitudeDegrees>
              <LongitudeDegrees>-8.16670962609350681304931640625</LongitudeDegrees>
            </Position>
            <AltitudeMeters>12.3999996185302734375</AltitudeMeters>
            <DistanceMeters>63666.67042962</DistanceMeters>
          </Trackpoint>
          <Trackpoint>
            <Time>2018-04-21T12:29:17.000Z</Time>
            <Position>
              <LatitudeDegrees>43.2672488875687122344970703125</LatitudeDegrees>
              <LongitudeDegrees>-8.16684138961136341094970703125</LongitudeDegrees>
            </Position>
            <AltitudeMeters>12.19999980926513671875</AltitudeMeters>
            <DistanceMeters>63687.580409805</DistanceMeters>
          </Trackpoint>
          <Trackpoint>
            <Time>2018-04-21T12:29:18.000Z</Time>
            <Position>
              <LatitudeDegrees>43.26729834079742431640625</LatitudeDegrees>
              <LongitudeDegrees>-8.1668924354016780853271484375</LongitudeDegrees>
            </Position>
            <AltitudeMeters>12.19999980926513671875</AltitudeMeters>
            <DistanceMeters>63694.467060768</DistanceMeters>
          </Trackpoint>
          <Trackpoint>
            <Time>2018-04-21T12:29:23.000Z</Time>
            <Position>
              <LatitudeDegrees>43.26750763691961765289306640625</LatitudeDegrees>
              <LongitudeDegrees>-8.16717297770082950592041015625</LongitudeDegrees>
            </Position>
            <AltitudeMeters>12</AltitudeMeters>
            <DistanceMeters>63727.018946892</DistanceMeters>
          </Trackpoint>
          <Trackpoint>
            <Time>2018-04-21T12:29:24.000Z</Time>
            <Position>
              <LatitudeDegrees>43.26754116453230381011962890625</LatitudeDegrees>
              <LongitudeDegrees>-8.1672404520213603973388671875</LongitudeDegrees>
            </Position>
            <AltitudeMeters>12</AltitudeMeters>
            <DistanceMeters>63733.63952021</DistanceMeters>
          </Trackpoint>
          <Trackpoint>
            <Time>2018-04-21T12:29:27.000Z</Time>
            <Position>
              <LatitudeDegrees>43.26763370074331760406494140625</LatitudeDegrees>
              <LongitudeDegrees>-8.16747103817760944366455078125</LongitudeDegrees>
            </Position>
            <AltitudeMeters>11.19999980926513671875</AltitudeMeters>
            <DistanceMeters>63754.977831871</DistanceMeters>
          </Trackpoint>
          <Trackpoint>
            <Time>2018-04-21T12:29:30.000Z</Time>
            <Position>
              <LatitudeDegrees>43.2677196152508258819580078125</LatitudeDegrees>
              <LongitudeDegrees>-8.1677319668233394622802734375</LongitudeDegrees>
            </Position>
            <AltitudeMeters>11.19999980926513671875</AltitudeMeters>
            <DistanceMeters>63778.18614934</DistanceMeters>
          </Trackpoint>
          <Trackpoint>
            <Time>2018-04-21T12:29:33.000Z</Time>
            <Position>
              <LatitudeDegrees>43.26777912676334381103515625</LatitudeDegrees>
              <LongitudeDegrees>-8.16800848580896854400634765625</LongitudeDegrees>
            </Position>
            <AltitudeMeters>10.80000019073486328125</AltitudeMeters>
            <DistanceMeters>63801.554994049</DistanceMeters>
          </Trackpoint>
          <Trackpoint>
            <Time>2018-04-21T12:29:35.000Z</Time>
            <Position>
              <LatitudeDegrees>43.26779094524681568145751953125</LatitudeDegrees>
              <LongitudeDegrees>-8.16819607280194759368896484375</LongitudeDegrees>
            </Position>
            <AltitudeMeters>10.80000019073486328125</AltitudeMeters>
            <DistanceMeters>63816.81499442</DistanceMeters>
          </Trackpoint>
          <Trackpoint>
            <Time>2018-04-21T12:29:37.000Z</Time>
            <Position>
              <LatitudeDegrees>43.2677878439426422119140625</LatitudeDegrees>
              <LongitudeDegrees>-8.1683777086436748504638671875</LongitudeDegrees>
            </Position>
            <AltitudeMeters>11.19999980926513671875</AltitudeMeters>
            <DistanceMeters>63831.540149617</DistanceMeters>
          </Trackpoint>
          <Trackpoint>
            <Time>2018-04-21T12:29:40.000Z</Time>
            <Position>
              <LatitudeDegrees>43.26776362024247646331787109375</LatitudeDegrees>
              <LongitudeDegrees>-8.168614916503429412841796875</LongitudeDegrees>
            </Position>
            <AltitudeMeters>12</AltitudeMeters>
            <DistanceMeters>63850.953063111</DistanceMeters>
          </Trackpoint>
          <Trackpoint>
            <Time>2018-04-21T12:29:44.000Z</Time>
            <Position>
              <LatitudeDegrees>43.26764878816902637481689453125</LatitudeDegrees>
              <LongitudeDegrees>-8.16887165419757366180419921875</LongitudeDegrees>
            </Position>
            <AltitudeMeters>11</AltitudeMeters>
            <DistanceMeters>63875.372525186</DistanceMeters>
          </Trackpoint>
          <Trackpoint>
            <Time>2018-04-21T12:29:47.000Z</Time>
            <Position>
              <LatitudeDegrees>43.267515599727630615234375</LatitudeDegrees>
              <LongitudeDegrees>-8.1690620072185993194580078125</LongitudeDegrees>
            </Position>
            <AltitudeMeters>9.6000003814697265625</AltitudeMeters>
            <DistanceMeters>63896.768101721</DistanceMeters>
          </Trackpoint>
          <Trackpoint>
            <Time>2018-04-21T12:29:48.000Z</Time>
            <Position>
              <LatitudeDegrees>43.26747813262045383453369140625</LatitudeDegrees>
              <LongitudeDegrees>-8.16912495531141757965087890625</LongitudeDegrees>
            </Position>
            <AltitudeMeters>9.3999996185302734375</AltitudeMeters>
            <DistanceMeters>63903.357229701</DistanceMeters>
          </Trackpoint>
          <Trackpoint>
            <Time>2018-04-21T12:29:49.000Z</Time>
            <Position>
              <LatitudeDegrees>43.26745298691093921661376953125</LatitudeDegrees>
              <LongitudeDegrees>-8.16918698139488697052001953125</LongitudeDegrees>
            </Position>
            <AltitudeMeters>8.80000019073486328125</AltitudeMeters>
            <DistanceMeters>63909.110859881</DistanceMeters>
          </Trackpoint>
          <Trackpoint>
            <Time>2018-04-21T12:29:50.000Z</Time>
            <Position>
              <LatitudeDegrees>43.2674284279346466064453125</LatitudeDegrees>
              <LongitudeDegrees>-8.16924163140356540679931640625</LongitudeDegrees>
            </Position>
            <AltitudeMeters>7.19999980926513671875</AltitudeMeters>
            <DistanceMeters>63914.31481984</DistanceMeters>
          </Trackpoint>
          <Trackpoint>
            <Time>2018-04-21T12:29:53.000Z</Time>
            <Position>
              <LatitudeDegrees>43.26734553091228008270263671875</LatitudeDegrees>
              <LongitudeDegrees>-8.16939644515514373779296875</LongitudeDegrees>
            </Position>
            <AltitudeMeters>8.19999980926513671875</AltitudeMeters>
            <DistanceMeters>63929.88905765</DistanceMeters>
          </Trackpoint>
          <Trackpoint>
            <Time>2018-04-21T12:29:54.000Z</Time>
            <Position>
              <LatitudeDegrees>43.2673330418765544891357421875</LatitudeDegrees>
              <LongitudeDegrees>-8.16945168189704418182373046875</LongitudeDegrees>
            </Position>
            <AltitudeMeters>7.400000095367431640625</AltitudeMeters>
            <DistanceMeters>63934.577256244</DistanceMeters>
          </Trackpoint>
          <Trackpoint>
            <Time>2018-04-21T12:29:55.000Z</Time>
            <Position>
              <LatitudeDegrees>43.2673265039920806884765625</LatitudeDegrees>
              <LongitudeDegrees>-8.1695096008479595184326171875</LongitudeDegrees>
            </Position>
            <AltitudeMeters>7.599999904632568359375</AltitudeMeters>
            <DistanceMeters>63939.326691048</DistanceMeters>
          </Trackpoint>
          <Trackpoint>
            <Time>2018-04-21T12:29:59.000Z</Time>
            <Position>
              <LatitudeDegrees>43.2673431001603603363037109375</LatitudeDegrees>
              <LongitudeDegrees>-8.16975192166864871978759765625</LongitudeDegrees>
            </Position>
            <AltitudeMeters>8</AltitudeMeters>
            <DistanceMeters>63959.052918618</DistanceMeters>
          </Trackpoint>
          <Trackpoint>
            <Time>2018-04-21T12:30:00.000Z</Time>
            <Position>
              <LatitudeDegrees>43.26735625974833965301513671875</LatitudeDegrees>
              <LongitudeDegrees>-8.1698136962950229644775390625</LongitudeDegrees>
            </Position>
            <AltitudeMeters>8.19999980926513671875</AltitudeMeters>
            <DistanceMeters>63964.269876582</DistanceMeters>
          </Trackpoint>
          <Trackpoint>
            <Time>2018-04-21T12:30:01.000Z</Time>
            <Position>
              <LatitudeDegrees>43.26737436465919017791748046875</LatitudeDegrees>
              <LongitudeDegrees>-8.16987521946430206298828125</LongitudeDegrees>
            </Position>
            <AltitudeMeters>8.19999980926513671875</AltitudeMeters>
            <DistanceMeters>63969.647918498</DistanceMeters>
          </Trackpoint>
          <Trackpoint>
            <Time>2018-04-21T12:30:04.000Z</Time>
            <Position>
              <LatitudeDegrees>43.26744611375033855438232421875</LatitudeDegrees>
              <LongitudeDegrees>-8.17004679702222347259521484375</LongitudeDegrees>
            </Position>
            <AltitudeMeters>8.6000003814697265625</AltitudeMeters>
            <DistanceMeters>63985.68351817</DistanceMeters>
          </Trackpoint>
          <Trackpoint>
            <Time>2018-04-21T12:30:06.000Z</Time>
            <Position>
              <LatitudeDegrees>43.2675107382237911224365234375</LatitudeDegrees>
              <LongitudeDegrees>-8.17015509121119976043701171875</LongitudeDegrees>
            </Position>
            <AltitudeMeters>8.80000019073486328125</AltitudeMeters>
            <DistanceMeters>63997.03155413</DistanceMeters>
          </Trackpoint>
          <Trackpoint>
            <Time>2018-04-21T12:30:09.000Z</Time>
            <Position>
              <LatitudeDegrees>43.26760469935834407806396484375</LatitudeDegrees>
              <LongitudeDegrees>-8.17031803540885448455810546875</LongitudeDegrees>
            </Position>
            <AltitudeMeters>9.3999996185302734375</AltitudeMeters>
            <DistanceMeters>64013.877300844</DistanceMeters>
          </Trackpoint>
          <Trackpoint>
            <Time>2018-04-21T12:30:11.000Z</Time>
            <Position>
              <LatitudeDegrees>43.26766605488955974578857421875</LatitudeDegrees>
              <LongitudeDegrees>-8.1704262457787990570068359375</LongitudeDegrees>
            </Position>
            <AltitudeMeters>9.3999996185302734375</AltitudeMeters>
            <DistanceMeters>64024.992583382</DistanceMeters>
          </Trackpoint>
          <Trackpoint>
            <Time>2018-04-21T12:30:12.000Z</Time>
            <Position>
              <LatitudeDegrees>43.2676991634070873260498046875</LatitudeDegrees>
              <LongitudeDegrees>-8.1704745255410671234130859375</LongitudeDegrees>
            </Position>
            <AltitudeMeters>9.3999996185302734375</AltitudeMeters>
            <DistanceMeters>64030.368106112</DistanceMeters>
          </Trackpoint>
          <Trackpoint>
            <Time>2018-04-21T12:30:17.000Z</Time>
            <Position>
              <LatitudeDegrees>43.26789312064647674560546875</LatitudeDegrees>
              <LongitudeDegrees>-8.17071232013404369354248046875</LongitudeDegrees>
            </Position>
            <AltitudeMeters>9.6000003814697265625</AltitudeMeters>
            <DistanceMeters>64059.30682221</DistanceMeters>
          </Trackpoint>
          <Trackpoint>
            <Time>2018-04-21T12:30:22.000Z</Time>
            <Position>
              <LatitudeDegrees>43.2681457512080669403076171875</LatitudeDegrees>
              <LongitudeDegrees>-8.17093209363520145416259765625</LongitudeDegrees>
            </Position>
            <AltitudeMeters>9.6000003814697265625</AltitudeMeters>
            <DistanceMeters>64092.591955211</DistanceMeters>
          </Trackpoint>
          <Trackpoint>
            <Time>2018-04-21T12:30:23.000Z</Time>
            <Position>
              <LatitudeDegrees>43.26819981448352336883544921875</LatitudeDegrees>
              <LongitudeDegrees>-8.17096025682985782623291015625</LongitudeDegrees>
            </Position>
            <AltitudeMeters>9.6000003814697265625</AltitudeMeters>
            <DistanceMeters>64099.027165431</DistanceMeters>
          </Trackpoint>
          <Trackpoint>
            <Time>2018-04-21T12:30:30.000Z</Time>
            <Position>
              <LatitudeDegrees>43.26859544031322002410888671875</LatitudeDegrees>
              <LongitudeDegrees>-8.1711340136826038360595703125</LongitudeDegrees>
            </Position>
            <AltitudeMeters>10</AltitudeMeters>
            <DistanceMeters>64145.258028209</DistanceMeters>
          </Trackpoint>
          <Trackpoint>
            <Time>2018-04-21T12:30:37.000Z</Time>
            <Position>
              <LatitudeDegrees>43.268936835229396820068359375</LatitudeDegrees>
              <LongitudeDegrees>-8.17140835337340831756591796875</LongitudeDegrees>
            </Position>
            <AltitudeMeters>10.3999996185302734375</AltitudeMeters>
            <DistanceMeters>64189.282788148</DistanceMeters>
          </Trackpoint>
          <Trackpoint>
            <Time>2018-04-21T12:30:38.000Z</Time>
            <Position>
              <LatitudeDegrees>43.268979080021381378173828125</LatitudeDegrees>
              <LongitudeDegrees>-8.17144967615604400634765625</LongitudeDegrees>
            </Position>
            <AltitudeMeters>10.3999996185302734375</AltitudeMeters>
            <DistanceMeters>64195.055221091</DistanceMeters>
          </Trackpoint>
          <Trackpoint>
            <Time>2018-04-21T12:30:41.000Z</Time>
            <Position>
              <LatitudeDegrees>43.2690989412367343902587890625</LatitudeDegrees>
              <LongitudeDegrees>-8.1715718843042850494384765625</LongitudeDegrees>
            </Position>
            <AltitudeMeters>10.3999996185302734375</AltitudeMeters>
            <DistanceMeters>64211.670500114</DistanceMeters>
          </Trackpoint>
          <Trackpoint>
            <Time>2018-04-21T12:30:43.000Z</Time>
            <Position>
              <LatitudeDegrees>43.26916448771953582763671875</LatitudeDegrees>
              <LongitudeDegrees>-8.171637766063213348388671875</LongitudeDegrees>
            </Position>
            <AltitudeMeters>11.19999980926513671875</AltitudeMeters>
            <DistanceMeters>64220.711032283</DistanceMeters>
          </Trackpoint>
          <Trackpoint>
            <Time>2018-04-21T12:30:48.000Z</Time>
            <Position>
              <LatitudeDegrees>43.26936271972954273223876953125</LatitudeDegrees>
              <LongitudeDegrees>-8.1718940846621990203857421875</LongitudeDegrees>
            </Position>
            <AltitudeMeters>10.3999996185302734375</AltitudeMeters>
            <DistanceMeters>64251.014871216</DistanceMeters>
          </Trackpoint>
          <Trackpoint>
            <Time>2018-04-21T12:30:52.000Z</Time>
            <Position>
              <LatitudeDegrees>43.269580900669097900390625</LatitudeDegrees>
              <LongitudeDegrees>-8.1721217371523380279541015625</LongitudeDegrees>
            </Position>
            <AltitudeMeters>9</AltitudeMeters>
            <DistanceMeters>64281.512525286</DistanceMeters>
          </Trackpoint>
          <Trackpoint>
            <Time>2018-04-21T12:30:54.000Z</Time>
            <Position>
              <LatitudeDegrees>43.26970403082668781280517578125</LatitudeDegrees>
              <LongitudeDegrees>-8.17223715595901012420654296875</LongitudeDegrees>
            </Position>
            <AltitudeMeters>8.3999996185302734375</AltitudeMeters>
            <DistanceMeters>64298.104962438</DistanceMeters>
          </Trackpoint>
          <Trackpoint>
            <Time>2018-04-21T12:30:55.000Z</Time>
            <Position>
              <LatitudeDegrees>43.2697691582143306732177734375</LatitudeDegrees>
              <LongitudeDegrees>-8.17228593863546848297119140625</LongitudeDegrees>
            </Position>
            <AltitudeMeters>8</AltitudeMeters>
            <DistanceMeters>64306.361903588</DistanceMeters>
          </Trackpoint>
          <Trackpoint>
            <Time>2018-04-21T12:30:58.000Z</Time>
            <Position>
              <LatitudeDegrees>43.2699572481215000152587890625</LatitudeDegrees>
              <LongitudeDegrees>-8.17236087284982204437255859375</LongitudeDegrees>
            </Position>
            <AltitudeMeters>8</AltitudeMeters>
            <DistanceMeters>64328.15971454</DistanceMeters>
          </Trackpoint>
          <Trackpoint>
            <Time>2018-04-21T12:31:04.000Z</Time>
            <Position>
              <LatitudeDegrees>43.2703371159732341766357421875</LatitudeDegrees>
              <LongitudeDegrees>-8.17245122976601123809814453125</LongitudeDegrees>
            </Position>
            <AltitudeMeters>7.19999980926513671875</AltitudeMeters>
            <DistanceMeters>64371.069090285</DistanceMeters>
          </Trackpoint>
          <Trackpoint>
            <Time>2018-04-21T12:31:05.000Z</Time>
            <Position>
              <LatitudeDegrees>43.27040358446538448333740234375</LatitudeDegrees>
              <LongitudeDegrees>-8.17246614955365657806396484375</LongitudeDegrees>
            </Position>
            <AltitudeMeters>6.80000019073486328125</AltitudeMeters>
            <DistanceMeters>64378.564764746</DistanceMeters>
          </Trackpoint>
          <Trackpoint>
            <Time>2018-04-21T12:31:07.000Z</Time>
            <Position>
              <LatitudeDegrees>43.27054523862898349761962890625</LatitudeDegrees>
              <LongitudeDegrees>-8.17247872240841388702392578125</LongitudeDegrees>
            </Position>
            <AltitudeMeters>4.19999980926513671875</AltitudeMeters>
            <DistanceMeters>64394.36379551</DistanceMeters>
          </Trackpoint>
          <Trackpoint>
            <Time>2018-04-21T12:31:08.000Z</Time>
            <Position>
              <LatitudeDegrees>43.2706174068152904510498046875</LatitudeDegrees>
              <LongitudeDegrees>-8.17248232662677764892578125</LongitudeDegrees>
            </Position>
            <AltitudeMeters>5.400000095367431640625</AltitudeMeters>
            <DistanceMeters>64402.401842347</DistanceMeters>
          </Trackpoint>
          <Trackpoint>
            <Time>2018-04-21T12:31:09.000Z</Time>
            <Position>
              <LatitudeDegrees>43.2706861384212970733642578125</LatitudeDegrees>
              <LongitudeDegrees>-8.17248710431158542633056640625</LongitudeDegrees>
            </Position>
            <AltitudeMeters>4.599999904632568359375</AltitudeMeters>
            <DistanceMeters>64410.060783304</DistanceMeters>
          </Trackpoint>
          <Trackpoint>
            <Time>2018-04-21T12:31:10.000Z</Time>
            <Position>
              <LatitudeDegrees>43.27075528912246227264404296875</LatitudeDegrees>
              <LongitudeDegrees>-8.17249012179672718048095703125</LongitudeDegrees>
            </Position>
            <AltitudeMeters>7.599999904632568359375</AltitudeMeters>
            <DistanceMeters>64417.760879532</DistanceMeters>
          </Trackpoint>
          <Trackpoint>
            <Time>2018-04-21T12:31:11.000Z</Time>
            <Position>
              <LatitudeDegrees>43.2708232663571834564208984375</LatitudeDegrees>
              <LongitudeDegrees>-8.17249112762510776519775390625</LongitudeDegrees>
            </Position>
            <AltitudeMeters>6.400000095367431640625</AltitudeMeters>
            <DistanceMeters>64425.327894448</DistanceMeters>
          </Trackpoint>
          <Trackpoint>
            <Time>2018-04-21T12:31:15.000Z</Time>
            <Position>
              <LatitudeDegrees>43.2710629887878894805908203125</LatitudeDegrees>
              <LongitudeDegrees>-8.172474615275859832763671875</LongitudeDegrees>
            </Position>
            <AltitudeMeters>5.599999904632568359375</AltitudeMeters>
            <DistanceMeters>64452.043079677</DistanceMeters>
          </Trackpoint>
          <Trackpoint>
            <Time>2018-04-21T12:31:18.000Z</Time>
            <Position>
              <LatitudeDegrees>43.27121914364397525787353515625</LatitudeDegrees>
              <LongitudeDegrees>-8.1724050454795360565185546875</LongitudeDegrees>
            </Position>
            <AltitudeMeters>6.19999980926513671875</AltitudeMeters>
            <DistanceMeters>64470.314915553</DistanceMeters>
          </Trackpoint>
          <Trackpoint>
            <Time>2018-04-21T12:31:21.000Z</Time>
            <Position>
              <LatitudeDegrees>43.2713449560105800628662109375</LatitudeDegrees>
              <LongitudeDegrees>-8.17234494723379611968994140625</LongitudeDegrees>
            </Position>
            <AltitudeMeters>5.400000095367431640625</AltitudeMeters>
            <DistanceMeters>64485.140910319</DistanceMeters>
          </Trackpoint>
          <Trackpoint>
            <Time>2018-04-21T12:31:22.000Z</Time>
            <Position>
              <LatitudeDegrees>43.2713841833174228668212890625</LatitudeDegrees>
              <LongitudeDegrees>-8.17232583649456501007080078125</LongitudeDegrees>
            </Position>
            <AltitudeMeters>3.7999999523162841796875</AltitudeMeters>
            <DistanceMeters>64489.773889027</DistanceMeters>
          </Trackpoint>
          <Trackpoint>
            <Time>2018-04-21T12:31:23.000Z</Time>
            <Position>
              <LatitudeDegrees>43.27142634429037570953369140625</LatitudeDegrees>
              <LongitudeDegrees>-8.17230052314698696136474609375</LongitudeDegrees>
            </Position>
            <AltitudeMeters>4.80000019073486328125</AltitudeMeters>
            <DistanceMeters>64494.894762194</DistanceMeters>
          </Trackpoint>
          <Trackpoint>
            <Time>2018-04-21T12:31:25.000Z</Time>
            <Position>
              <LatitudeDegrees>43.27151049859821796417236328125</LatitudeDegrees>
              <LongitudeDegrees>-8.17226104438304901123046875</LongitudeDegrees>
            </Position>
            <AltitudeMeters>7</AltitudeMeters>
            <DistanceMeters>64504.792149186</DistanceMeters>
          </Trackpoint>
          <Trackpoint>
            <Time>2018-04-21T12:31:26.000Z</Time>
            <Position>
              <LatitudeDegrees>43.27154804952442646026611328125</LatitudeDegrees>
              <LongitudeDegrees>-8.1722467951476573944091796875</LongitudeDegrees>
            </Position>
            <AltitudeMeters>4.80000019073486328125</AltitudeMeters>
            <DistanceMeters>64509.128117262</DistanceMeters>
          </Trackpoint>
          <Trackpoint>
            <Time>2018-04-21T12:31:27.000Z</Time>
            <Position>
              <LatitudeDegrees>43.271588198840618133544921875</LatitudeDegrees>
              <LongitudeDegrees>-8.1722320429980754852294921875</LongitudeDegrees>
            </Position>
            <AltitudeMeters>6</AltitudeMeters>
            <DistanceMeters>64513.755245015</DistanceMeters>
          </Trackpoint>
          <Trackpoint>
            <Time>2018-04-21T12:31:29.000Z</Time>
            <Position>
              <LatitudeDegrees>43.271667659282684326171875</LatitudeDegrees>
              <LongitudeDegrees>-8.17218870855867862701416015625</LongitudeDegrees>
            </Position>
            <AltitudeMeters>7.80000019073486328125</AltitudeMeters>
            <DistanceMeters>64523.271210893</DistanceMeters>
          </Trackpoint>
          <Trackpoint>
            <Time>2018-04-21T12:31:33.000Z</Time>
            <Position>
              <LatitudeDegrees>43.2717948965728282928466796875</LatitudeDegrees>
              <LongitudeDegrees>-8.172114528715610504150390625</LongitudeDegrees>
            </Position>
            <AltitudeMeters>7.80000019073486328125</AltitudeMeters>
            <DistanceMeters>64538.656150403</DistanceMeters>
          </Trackpoint>
          <Trackpoint>
            <Time>2018-04-21T12:31:34.000Z</Time>
            <Position>
              <LatitudeDegrees>43.27182230539619922637939453125</LatitudeDegrees>
              <LongitudeDegrees>-8.17209969274699687957763671875</LongitudeDegrees>
            </Position>
            <AltitudeMeters>8</AltitudeMeters>
            <DistanceMeters>64541.934227731</DistanceMeters>
          </Trackpoint>
          <Trackpoint>
            <Time>2018-04-21T12:31:36.000Z</Time>
            <Position>
              <LatitudeDegrees>43.2718549109995365142822265625</LatitudeDegrees>
              <LongitudeDegrees>-8.17207521758973598480224609375</LongitudeDegrees>
            </Position>
            <AltitudeMeters>8.80000019073486328125</AltitudeMeters>
            <DistanceMeters>64546.070892434</DistanceMeters>
          </Trackpoint>
          <Trackpoint>
            <Time>2018-04-21T12:31:37.000Z</Time>
            <Position>
              <LatitudeDegrees>43.27186505310237407684326171875</LatitudeDegrees>
              <LongitudeDegrees>-8.1720711104571819305419921875</LongitudeDegrees>
            </Position>
            <AltitudeMeters>8.80000019073486328125</AltitudeMeters>
            <DistanceMeters>64547.242460451</DistanceMeters>
          </Trackpoint>
          <Trackpoint>
            <Time>2018-04-21T12:31:38.000Z</Time>
            <Position>
              <LatitudeDegrees>43.27187393791973590850830078125</LatitudeDegrees>
              <LongitudeDegrees>-8.17207320593297481536865234375</LongitudeDegrees>
            </Position>
            <AltitudeMeters>8.80000019073486328125</AltitudeMeters>
            <DistanceMeters>64548.23910904</DistanceMeters>
          </Trackpoint>
          <Trackpoint>
            <Time>2018-04-21T12:31:42.000Z</Time>
            <Position>
              <LatitudeDegrees>43.27191802673041820526123046875</LatitudeDegrees>
              <LongitudeDegrees>-8.17210279405117034912109375</LongitudeDegrees>
            </Position>
            <AltitudeMeters>8.19999980926513671875</AltitudeMeters>
            <DistanceMeters>64553.701285581</DistanceMeters>
          </Trackpoint>
          <Trackpoint>
            <Time>2018-04-21T12:31:43.000Z</Time>
            <Position>
              <LatitudeDegrees>43.27194686047732830047607421875</LatitudeDegrees>
              <LongitudeDegrees>-8.17210949957370758056640625</LongitudeDegrees>
            </Position>
            <AltitudeMeters>7.80000019073486328125</AltitudeMeters>
            <DistanceMeters>64556.957250837</DistanceMeters>
          </Trackpoint>
          <Trackpoint>
            <Time>2018-04-21T12:31:46.000Z</Time>
            <Position>
              <LatitudeDegrees>43.27208482660353183746337890625</LatitudeDegrees>
              <LongitudeDegrees>-8.17211176268756389617919921875</LongitudeDegrees>
            </Position>
            <AltitudeMeters>6.599999904632568359375</AltitudeMeters>
            <DistanceMeters>64572.314579269</DistanceMeters>
          </Trackpoint>
          <Trackpoint>
            <Time>2018-04-21T12:31:47.000Z</Time>
            <Position>
              <LatitudeDegrees>43.27211483381688594818115234375</LatitudeDegrees>
              <LongitudeDegrees>-8.17210975103080272674560546875</LongitudeDegrees>
            </Position>
            <AltitudeMeters>6.19999980926513671875</AltitudeMeters>
            <DistanceMeters>64575.658115516</DistanceMeters>
          </Trackpoint>
          <Trackpoint>
            <Time>2018-04-21T12:31:51.000Z</Time>
            <Position>
              <LatitudeDegrees>43.27219412662088871002197265625</LatitudeDegrees>
              <LongitudeDegrees>-8.17209566943347454071044921875</LongitudeDegrees>
            </Position>
            <AltitudeMeters>4.400000095367431640625</AltitudeMeters>
            <DistanceMeters>64584.556696321</DistanceMeters>
          </Trackpoint>
          <Trackpoint>
            <Time>2018-04-21T12:31:54.000Z</Time>
            <Position>
              <LatitudeDegrees>43.2722456753253936767578125</LatitudeDegrees>
              <LongitudeDegrees>-8.17209281958639621734619140625</LongitudeDegrees>
            </Position>
            <AltitudeMeters>6.80000019073486328125</AltitudeMeters>
            <DistanceMeters>64590.299329791</DistanceMeters>
          </Trackpoint>
          <Trackpoint>
            <Time>2018-04-21T12:31:55.000Z</Time>
            <Position>
              <LatitudeDegrees>43.27228196896612644195556640625</LatitudeDegrees>
              <LongitudeDegrees>-8.17209181375801563262939453125</LongitudeDegrees>
            </Position>
            <AltitudeMeters>5.599999904632568359375</AltitudeMeters>
            <DistanceMeters>64594.33992111</DistanceMeters>
          </Trackpoint>
          <Trackpoint>
            <Time>2018-04-21T12:31:56.000Z</Time>
            <Position>
              <LatitudeDegrees>43.2723236270248889923095703125</LatitudeDegrees>
              <LongitudeDegrees>-8.172088377177715301513671875</LongitudeDegrees>
            </Position>
            <AltitudeMeters>5.80000019073486328125</AltitudeMeters>
            <DistanceMeters>64598.984579615</DistanceMeters>
          </Trackpoint>
          <Trackpoint>
            <Time>2018-04-21T12:32:00.000Z</Time>
            <Position>
              <LatitudeDegrees>43.2724979706108570098876953125</LatitudeDegrees>
              <LongitudeDegrees>-8.172044791281223297119140625</LongitudeDegrees>
            </Position>
            <AltitudeMeters>5.599999904632568359375</AltitudeMeters>
            <DistanceMeters>64618.708289289</DistanceMeters>
          </Trackpoint>
          <Trackpoint>
            <Time>2018-04-21T12:32:01.000Z</Time>
            <Position>
              <LatitudeDegrees>43.27254650183022022247314453125</LatitudeDegrees>
              <LongitudeDegrees>-8.17202459089457988739013671875</LongitudeDegrees>
            </Position>
            <AltitudeMeters>5.400000095367431640625</AltitudeMeters>
            <DistanceMeters>64624.352588155</DistanceMeters>
          </Trackpoint>
          <Trackpoint>
            <Time>2018-04-21T12:32:05.000Z</Time>
            <Position>
              <LatitudeDegrees>43.27273811213672161102294921875</LatitudeDegrees>
              <LongitudeDegrees>-8.17197899334132671356201171875</LongitudeDegrees>
            </Position>
            <AltitudeMeters>6</AltitudeMeters>
            <DistanceMeters>64645.996995421</DistanceMeters>
          </Trackpoint>
          <Trackpoint>
            <Time>2018-04-21T12:32:07.000Z</Time>
            <Position>
              <LatitudeDegrees>43.2728225179016590118408203125</LatitudeDegrees>
              <LongitudeDegrees>-8.17197966389358043670654296875</LongitudeDegrees>
            </Position>
            <AltitudeMeters>6</AltitudeMeters>
            <DistanceMeters>64655.392153602</DistanceMeters>
          </Trackpoint>
          <Trackpoint>
            <Time>2018-04-21T12:32:10.000Z</Time>
            <Position>
              <LatitudeDegrees>43.27291949652135372161865234375</LatitudeDegrees>
              <LongitudeDegrees>-8.17196273244917392730712890625</LongitudeDegrees>
            </Position>
            <AltitudeMeters>6.80000019073486328125</AltitudeMeters>
            <DistanceMeters>64666.272608656</DistanceMeters>
          </Trackpoint>
          <Trackpoint>
            <Time>2018-04-21T12:32:12.000Z</Time>
            <Position>
              <LatitudeDegrees>43.27296760864555835723876953125</LatitudeDegrees>
              <LongitudeDegrees>-8.17195820622146129608154296875</LongitudeDegrees>
            </Position>
            <AltitudeMeters>6.80000019073486328125</AltitudeMeters>
            <DistanceMeters>64671.63972556</DistanceMeters>
          </Trackpoint>
          <Trackpoint>
            <Time>2018-04-21T12:32:15.000Z</Time>
            <Position>
              <LatitudeDegrees>43.2730464823544025421142578125</LatitudeDegrees>
              <LongitudeDegrees>-8.17194915376603603363037109375</LongitudeDegrees>
            </Position>
            <AltitudeMeters>7.19999980926513671875</AltitudeMeters>
            <DistanceMeters>64680.449065884</DistanceMeters>
          </Trackpoint>
          <Trackpoint>
            <Time>2018-04-21T12:32:18.000Z</Time>
            <Position>
              <LatitudeDegrees>43.27313709072768688201904296875</LatitudeDegrees>
              <LongitudeDegrees>-8.1719641573727130889892578125</LongitudeDegrees>
            </Position>
            <AltitudeMeters>7.19999980926513671875</AltitudeMeters>
            <DistanceMeters>64690.607150523</DistanceMeters>
          </Trackpoint>
          <Trackpoint>
            <Time>2018-04-21T12:32:24.000Z</Time>
            <Position>
              <LatitudeDegrees>43.27344931662082672119140625</LatitudeDegrees>
              <LongitudeDegrees>-8.17208108492195606231689453125</LongitudeDegrees>
            </Position>
            <AltitudeMeters>6.599999904632568359375</AltitudeMeters>
            <DistanceMeters>64726.627164175</DistanceMeters>
          </Trackpoint>
          <Trackpoint>
            <Time>2018-04-21T12:32:32.000Z</Time>
            <Position>
              <LatitudeDegrees>43.27387436293065547943115234375</LatitudeDegrees>
              <LongitudeDegrees>-8.17219038493931293487548828125</LongitudeDegrees>
            </Position>
            <AltitudeMeters>7.599999904632568359375</AltitudeMeters>
            <DistanceMeters>64774.757608705</DistanceMeters>
          </Trackpoint>
          <Trackpoint>
            <Time>2018-04-21T12:32:34.000Z</Time>
            <Position>
              <LatitudeDegrees>43.27394879423081874847412109375</LatitudeDegrees>
              <LongitudeDegrees>-8.172253333032131195068359375</LongitudeDegrees>
            </Position>
            <AltitudeMeters>7.80000019073486328125</AltitudeMeters>
            <DistanceMeters>64784.487063538</DistanceMeters>
          </Trackpoint>
          <Trackpoint>
            <Time>2018-04-21T12:32:37.000Z</Time>
            <Position>
              <LatitudeDegrees>43.274045102298259735107421875</LatitudeDegrees>
              <LongitudeDegrees>-8.17235223948955535888671875</LongitudeDegrees>
            </Position>
            <AltitudeMeters>9.19999980926513671875</AltitudeMeters>
            <DistanceMeters>64797.871669867</DistanceMeters>
          </Trackpoint>
          <Trackpoint>
            <Time>2018-04-21T12:32:41.000Z</Time>
            <Position>
              <LatitudeDegrees>43.27415918000042438507080078125</LatitudeDegrees>
              <LongitudeDegrees>-8.172512166202068328857421875</LongitudeDegrees>
            </Position>
            <AltitudeMeters>9.6000003814697265625</AltitudeMeters>
            <DistanceMeters>64816.014805666</DistanceMeters>
          </Trackpoint>
          <Trackpoint>
            <Time>2018-04-21T12:32:43.000Z</Time>
            <Position>
              <LatitudeDegrees>43.27418901957571506500244140625</LatitudeDegrees>
              <LongitudeDegrees>-8.17256891168653964996337890625</LongitudeDegrees>
            </Position>
            <AltitudeMeters>10</AltitudeMeters>
            <DistanceMeters>64821.687828885</DistanceMeters>
          </Trackpoint>
          <Trackpoint>
            <Time>2018-04-21T12:32:44.000Z</Time>
            <Position>
              <LatitudeDegrees>43.27420779503881931304931640625</LatitudeDegrees>
              <LongitudeDegrees>-8.17259690724313259124755859375</LongitudeDegrees>
            </Position>
            <AltitudeMeters>10.19999980926513671875</AltitudeMeters>
            <DistanceMeters>64824.771442106</DistanceMeters>
          </Trackpoint>
          <Trackpoint>
            <Time>2018-04-21T12:32:48.000Z</Time>
            <Position>
              <LatitudeDegrees>43.2742866687476634979248046875</LatitudeDegrees>
              <LongitudeDegrees>-8.17274912260472774505615234375</LongitudeDegrees>
            </Position>
            <AltitudeMeters>9.80000019073486328125</AltitudeMeters>
            <DistanceMeters>64839.911437497</DistanceMeters>
          </Trackpoint>
          <Trackpoint>
            <Time>2018-04-21T12:32:50.000Z</Time>
            <Position>
              <LatitudeDegrees>43.2743379659950733184814453125</LatitudeDegrees>
              <LongitudeDegrees>-8.17284283228218555450439453125</LongitudeDegrees>
            </Position>
            <AltitudeMeters>8.80000019073486328125</AltitudeMeters>
            <DistanceMeters>64849.41220821</DistanceMeters>
          </Trackpoint>
          <Trackpoint>
            <Time>2018-04-21T12:32:53.000Z</Time>
            <Position>
              <LatitudeDegrees>43.27440326102077960968017578125</LatitudeDegrees>
              <LongitudeDegrees>-8.17299203015863895416259765625</LongitudeDegrees>
            </Position>
            <AltitudeMeters>8.19999980926513671875</AltitudeMeters>
            <DistanceMeters>64863.518475062</DistanceMeters>
          </Trackpoint>
          <Trackpoint>
            <Time>2018-04-21T12:32:54.000Z</Time>
            <Position>
              <LatitudeDegrees>43.27440862543880939483642578125</LatitudeDegrees>
              <LongitudeDegrees>-8.1730534695088863372802734375</LongitudeDegrees>
            </Position>
            <AltitudeMeters>7.19999980926513671875</AltitudeMeters>
            <DistanceMeters>64868.532428874</DistanceMeters>
          </Trackpoint>
          <Trackpoint>
            <Time>2018-04-21T12:32:58.000Z</Time>
            <Position>
              <LatitudeDegrees>43.27442907728254795074462890625</LatitudeDegrees>
              <LongitudeDegrees>-8.1732398830354213714599609375</LongitudeDegrees>
            </Position>
            <AltitudeMeters>6</AltitudeMeters>
            <DistanceMeters>64883.809284757</DistanceMeters>
          </Trackpoint>
          <Trackpoint>
            <Time>2018-04-21T12:33:02.000Z</Time>
            <Position>
              <LatitudeDegrees>43.27441851608455181121826171875</LatitudeDegrees>
              <LongitudeDegrees>-8.17328296601772308349609375</LongitudeDegrees>
            </Position>
            <AltitudeMeters>3.599999904632568359375</AltitudeMeters>
            <DistanceMeters>64887.49333211</DistanceMeters>
          </Trackpoint>
          <Trackpoint>
            <Time>2018-04-21T12:33:03.000Z</Time>
            <Position>
              <LatitudeDegrees>43.27441851608455181121826171875</LatitudeDegrees>
              <LongitudeDegrees>-8.17328296601772308349609375</LongitudeDegrees>
            </Position>
            <AltitudeMeters>5.400000095367431640625</AltitudeMeters>
            <DistanceMeters>64887.49333211</DistanceMeters>
          </Trackpoint>
          <Trackpoint>
            <Time>2018-04-21T12:33:09.000Z</Time>
            <Position>
              <LatitudeDegrees>43.27445916831493377685546875</LatitudeDegrees>
              <LongitudeDegrees>-8.1732656992971897125244140625</LongitudeDegrees>
            </Position>
            <AltitudeMeters>5.80000019073486328125</AltitudeMeters>
            <DistanceMeters>64892.229439149</DistanceMeters>
          </Trackpoint>
          <Trackpoint>
            <Time>2018-04-21T12:33:12.000Z</Time>
            <Position>
              <LatitudeDegrees>43.2744906842708587646484375</LatitudeDegrees>
              <LongitudeDegrees>-8.17325413227081298828125</LongitudeDegrees>
            </Position>
            <AltitudeMeters>5.80000019073486328125</AltitudeMeters>
            <DistanceMeters>64895.860404807</DistanceMeters>
          </Trackpoint>
          <Trackpoint>
            <Time>2018-04-21T12:33:13.000Z</Time>
            <Position>
              <LatitudeDegrees>43.2745119743049144744873046875</LatitudeDegrees>
              <LongitudeDegrees>-8.17324499599635601043701171875</LongitudeDegrees>
            </Position>
            <AltitudeMeters>5.599999904632568359375</AltitudeMeters>
            <DistanceMeters>64898.343858493</DistanceMeters>
          </Trackpoint>
          <Trackpoint>
            <Time>2018-04-21T12:33:17.000Z</Time>
            <Position>
              <LatitudeDegrees>43.2745867408812046051025390625</LatitudeDegrees>
              <LongitudeDegrees>-8.17321767099201679229736328125</LongitudeDegrees>
            </Position>
            <AltitudeMeters>5</AltitudeMeters>
            <DistanceMeters>64906.955187528</DistanceMeters>
          </Trackpoint>
          <Trackpoint>
            <Time>2018-04-21T12:33:18.000Z</Time>
            <Position>
              <LatitudeDegrees>43.27458615414798259735107421875</LatitudeDegrees>
              <LongitudeDegrees>-8.1732206046581268310546875</LongitudeDegrees>
            </Position>
            <AltitudeMeters>5.19999980926513671875</AltitudeMeters>
            <DistanceMeters>64907.187954491</DistanceMeters>
          </Trackpoint>
          <Trackpoint>
            <Time>2018-04-21T12:33:25.000Z</Time>
            <Position>
              <LatitudeDegrees>43.274603672325611114501953125</LatitudeDegrees>
              <LongitudeDegrees>-8.17318246699869632720947265625</LongitudeDegrees>
            </Position>
            <AltitudeMeters>6</AltitudeMeters>
            <DistanceMeters>64910.842469925</DistanceMeters>
          </Trackpoint>
          <Trackpoint>
            <Time>2018-04-21T12:33:30.000Z</Time>
            <Position>
              <LatitudeDegrees>43.274714313447475433349609375</LatitudeDegrees>
              <LongitudeDegrees>-8.173177354037761688232421875</LongitudeDegrees>
            </Position>
            <AltitudeMeters>6.19999980926513671875</AltitudeMeters>
            <DistanceMeters>64923.163737927</DistanceMeters>
          </Trackpoint>
          <Trackpoint>
            <Time>2018-04-21T12:33:31.000Z</Time>
            <Position>
              <LatitudeDegrees>43.27473266981542110443115234375</LatitudeDegrees>
              <LongitudeDegrees>-8.17317442037165164947509765625</LongitudeDegrees>
            </Position>
            <AltitudeMeters>6.400000095367431640625</AltitudeMeters>
            <DistanceMeters>64925.219480074</DistanceMeters>
          </Trackpoint>
          <Trackpoint>
            <Time>2018-04-21T12:33:37.000Z</Time>
            <Position>
              <LatitudeDegrees>43.274763263761997222900390625</LatitudeDegrees>
              <LongitudeDegrees>-8.17316687665879726409912109375</LongitudeDegrees>
            </Position>
            <AltitudeMeters>6.599999904632568359375</AltitudeMeters>
            <DistanceMeters>64928.678504689</DistanceMeters>
          </Trackpoint>
          <Trackpoint>
            <Time>2018-04-21T12:33:38.000Z</Time>
            <Position>
              <LatitudeDegrees>43.27481095679104328155517578125</LatitudeDegrees>
              <LongitudeDegrees>-8.1731644459068775177001953125</LongitudeDegrees>
            </Position>
            <AltitudeMeters>6.599999904632568359375</AltitudeMeters>
            <DistanceMeters>64933.989809502</DistanceMeters>
          </Trackpoint>
          <Trackpoint>
            <Time>2018-04-21T12:33:42.000Z</Time>
            <Position>
              <LatitudeDegrees>43.2748769223690032958984375</LatitudeDegrees>
              <LongitudeDegrees>-8.1731530465185642242431640625</LongitudeDegrees>
            </Position>
            <AltitudeMeters>7.80000019073486328125</AltitudeMeters>
            <DistanceMeters>64941.389090107</DistanceMeters>
          </Trackpoint>
          <Trackpoint>
            <Time>2018-04-21T12:33:45.000Z</Time>
            <Position>
              <LatitudeDegrees>43.27491690404713153839111328125</LatitudeDegrees>
              <LongitudeDegrees>-8.173155896365642547607421875</LongitudeDegrees>
            </Position>
            <AltitudeMeters>8.3999996185302734375</AltitudeMeters>
            <DistanceMeters>64945.846238094</DistanceMeters>
          </Trackpoint>
          <Trackpoint>
            <Time>2018-04-21T12:33:46.000Z</Time>
            <Position>
              <LatitudeDegrees>43.27494557015597820281982421875</LatitudeDegrees>
              <LongitudeDegrees>-8.17315313033759593963623046875</LongitudeDegrees>
            </Position>
            <AltitudeMeters>9</AltitudeMeters>
            <DistanceMeters>64949.046254764</DistanceMeters>
          </Trackpoint>
          <Trackpoint>
            <Time>2018-04-21T12:33:50.000Z</Time>
            <Position>
              <LatitudeDegrees>43.27501237392425537109375</LatitudeDegrees>
              <LongitudeDegrees>-8.1731213629245758056640625</LongitudeDegrees>
            </Position>
            <AltitudeMeters>10.19999980926513671875</AltitudeMeters>
            <DistanceMeters>64956.915132332</DistanceMeters>
          </Trackpoint>
          <Trackpoint>
            <Time>2018-04-21T12:33:51.000Z</Time>
            <Position>
              <LatitudeDegrees>43.2750284671783447265625</LatitudeDegrees>
              <LongitudeDegrees>-8.1731087900698184967041015625</LongitudeDegrees>
            </Position>
            <AltitudeMeters>10.3999996185302734375</AltitudeMeters>
            <DistanceMeters>64958.975262408</DistanceMeters>
          </Trackpoint>
          <Trackpoint>
            <Time>2018-04-21T12:33:54.000Z</Time>
            <Position>
              <LatitudeDegrees>43.275060318410396575927734375</LatitudeDegrees>
              <LongitudeDegrees>-8.17306973040103912353515625</LongitudeDegrees>
            </Position>
            <AltitudeMeters>11.3999996185302734375</AltitudeMeters>
            <DistanceMeters>64963.72849828</DistanceMeters>
          </Trackpoint>
          <Trackpoint>
            <Time>2018-04-21T12:33:56.000Z</Time>
            <Position>
              <LatitudeDegrees>43.2750769145786762237548828125</LatitudeDegrees>
              <LongitudeDegrees>-8.173040561378002166748046875</LongitudeDegrees>
            </Position>
            <AltitudeMeters>12.19999980926513671875</AltitudeMeters>
            <DistanceMeters>64966.730500327</DistanceMeters>
          </Trackpoint>
          <Trackpoint>
            <Time>2018-04-21T12:33:58.000Z</Time>
            <Position>
              <LatitudeDegrees>43.27508856542408466339111328125</LatitudeDegrees>
              <LongitudeDegrees>-8.17300946451723575592041015625</LongitudeDegrees>
            </Position>
            <AltitudeMeters>12.6000003814697265625</AltitudeMeters>
            <DistanceMeters>64969.565419733</DistanceMeters>
          </Trackpoint>
          <Trackpoint>
            <Time>2018-04-21T12:34:03.000Z</Time>
            <Position>
              <LatitudeDegrees>43.275142125785350799560546875</LatitudeDegrees>
              <LongitudeDegrees>-8.172889687120914459228515625</LongitudeDegrees>
            </Position>
            <AltitudeMeters>13</AltitudeMeters>
            <DistanceMeters>64980.95634456</DistanceMeters>
          </Trackpoint>
          <Trackpoint>
            <Time>2018-04-21T12:34:06.000Z</Time>
            <Position>
              <LatitudeDegrees>43.27517330646514892578125</LatitudeDegrees>
              <LongitudeDegrees>-8.1728097237646579742431640625</LongitudeDegrees>
            </Position>
            <AltitudeMeters>13.80000019073486328125</AltitudeMeters>
            <DistanceMeters>64988.306647096</DistanceMeters>
          </Trackpoint>
          <Trackpoint>
            <Time>2018-04-21T12:34:10.000Z</Time>
            <Position>
              <LatitudeDegrees>43.2751717977225780487060546875</LatitudeDegrees>
              <LongitudeDegrees>-8.17274660803377628326416015625</LongitudeDegrees>
            </Position>
            <AltitudeMeters>14.19999980926513671875</AltitudeMeters>
            <DistanceMeters>64993.423992275</DistanceMeters>
          </Trackpoint>
          <Trackpoint>
            <Time>2018-04-21T12:34:13.000Z</Time>
            <Position>
              <LatitudeDegrees>43.2751644216477870941162109375</LatitudeDegrees>
              <LongitudeDegrees>-8.17267083562910556793212890625</LongitudeDegrees>
            </Position>
            <AltitudeMeters>13.80000019073486328125</AltitudeMeters>
            <DistanceMeters>64999.61824726</DistanceMeters>
          </Trackpoint>
          <Trackpoint>
            <Time>2018-04-21T12:34:15.000Z</Time>
            <Position>
              <LatitudeDegrees>43.27516324818134307861328125</LatitudeDegrees>
              <LongitudeDegrees>-8.17260562442243099212646484375</LongitudeDegrees>
            </Position>
            <AltitudeMeters>13.6000003814697265625</AltitudeMeters>
            <DistanceMeters>65004.903988127</DistanceMeters>
          </Trackpoint>
          <Trackpoint>
            <Time>2018-04-21T12:34:19.000Z</Time>
            <Position>
              <LatitudeDegrees>43.27517540194094181060791015625</LatitudeDegrees>
              <LongitudeDegrees>-8.1725143454968929290771484375</LongitudeDegrees>
            </Position>
            <AltitudeMeters>15</AltitudeMeters>
            <DistanceMeters>65012.423718089</DistanceMeters>
          </Trackpoint>
          <Trackpoint>
            <Time>2018-04-21T12:34:20.000Z</Time>
            <Position>
              <LatitudeDegrees>43.27517791651189327239990234375</LatitudeDegrees>
              <LongitudeDegrees>-8.1725099869072437286376953125</LongitudeDegrees>
            </Position>
            <AltitudeMeters>15</AltitudeMeters>
            <DistanceMeters>65012.869432887</DistanceMeters>
          </Trackpoint>
          <Trackpoint>
            <Time>2018-04-21T12:34:25.000Z</Time>
            <Position>
              <LatitudeDegrees>43.275197781622409820556640625</LatitudeDegrees>
              <LongitudeDegrees>-8.17246623337268829345703125</LongitudeDegrees>
            </Position>
            <AltitudeMeters>16</AltitudeMeters>
            <DistanceMeters>65017.047367516</DistanceMeters>
          </Trackpoint>
          <Trackpoint>
            <Time>2018-04-21T12:34:27.000Z</Time>
            <Position>
              <LatitudeDegrees>43.27520021237432956695556640625</LatitudeDegrees>
              <LongitudeDegrees>-8.17246145568788051605224609375</LongitudeDegrees>
            </Position>
            <AltitudeMeters>16.3999996185302734375</AltitudeMeters>
            <DistanceMeters>65017.503099629</DistanceMeters>
          </Trackpoint>
          <Trackpoint>
            <Time>2018-04-21T12:34:35.000Z</Time>
            <Position>
              <LatitudeDegrees>43.2752080075442790985107421875</LatitudeDegrees>
              <LongitudeDegrees>-8.17241686396300792694091796875</LongitudeDegrees>
            </Position>
            <AltitudeMeters>16.6000003814697265625</AltitudeMeters>
            <DistanceMeters>65021.220089938</DistanceMeters>
          </Trackpoint>
          <Trackpoint>
            <Time>2018-04-21T12:34:38.000Z</Time>
            <Position>
              <LatitudeDegrees>43.2752170599997043609619140625</LatitudeDegrees>
              <LongitudeDegrees>-8.17234880290925502777099609375</LongitudeDegrees>
            </Position>
            <AltitudeMeters>17.200000762939453125</AltitudeMeters>
            <DistanceMeters>65026.827471339</DistanceMeters>
          </Trackpoint>
          <Trackpoint>
            <Time>2018-04-21T12:34:43.000Z</Time>
            <Position>
              <LatitudeDegrees>43.27522116713225841522216796875</LatitudeDegrees>
              <LongitudeDegrees>-8.1722357310354709625244140625</LongitudeDegrees>
            </Position>
            <AltitudeMeters>18.200000762939453125</AltitudeMeters>
            <DistanceMeters>65036.002348592</DistanceMeters>
          </Trackpoint>
          <Trackpoint>
            <Time>2018-04-21T12:34:45.000Z</Time>
            <Position>
              <LatitudeDegrees>43.2752251066267490386962890625</LatitudeDegrees>
              <LongitudeDegrees>-8.1721864454448223114013671875</LongitudeDegrees>
            </Position>
            <AltitudeMeters>18.3999996185302734375</AltitudeMeters>
            <DistanceMeters>65040.02052936</DistanceMeters>
          </Trackpoint>
          <Trackpoint>
            <Time>2018-04-21T12:34:49.000Z</Time>
            <Position>
              <LatitudeDegrees>43.27522066421806812286376953125</LatitudeDegrees>
              <LongitudeDegrees>-8.1720962561666965484619140625</LongitudeDegrees>
            </Position>
            <AltitudeMeters>19</AltitudeMeters>
            <DistanceMeters>65047.34560371</DistanceMeters>
          </Trackpoint>
          <Trackpoint>
            <Time>2018-04-21T12:34:56.000Z</Time>
            <Position>
              <LatitudeDegrees>43.2752123661339282989501953125</LatitudeDegrees>
              <LongitudeDegrees>-8.17205577157437801361083984375</LongitudeDegrees>
            </Position>
            <AltitudeMeters>17</AltitudeMeters>
            <DistanceMeters>65050.753341714</DistanceMeters>
          </Trackpoint>
          <Trackpoint>
            <Time>2018-04-21T12:35:03.000Z</Time>
            <Position>
              <LatitudeDegrees>43.27520457096397876739501953125</LatitudeDegrees>
              <LongitudeDegrees>-8.1719993613660335540771484375</LongitudeDegrees>
            </Position>
            <AltitudeMeters>17.200000762939453125</AltitudeMeters>
            <DistanceMeters>65055.406740828</DistanceMeters>
          </Trackpoint>
          <Trackpoint>
            <Time>2018-04-21T12:35:05.000Z</Time>
            <Position>
              <LatitudeDegrees>43.2752080075442790985107421875</LatitudeDegrees>
              <LongitudeDegrees>-8.17194965668022632598876953125</LongitudeDegrees>
            </Position>
            <AltitudeMeters>17.799999237060546875</AltitudeMeters>
            <DistanceMeters>65059.454031115</DistanceMeters>
          </Trackpoint>
          <Trackpoint>
            <Time>2018-04-21T12:35:06.000Z</Time>
            <Position>
              <LatitudeDegrees>43.27521077357232570648193359375</LatitudeDegrees>
              <LongitudeDegrees>-8.17194311879575252532958984375</LongitudeDegrees>
            </Position>
            <AltitudeMeters>18.200000762939453125</AltitudeMeters>
            <DistanceMeters>65060.069874611</DistanceMeters>
          </Trackpoint>
          <Trackpoint>
            <Time>2018-04-21T12:35:10.000Z</Time>
            <Position>
              <LatitudeDegrees>43.275208175182342529296875</LatitudeDegrees>
              <LongitudeDegrees>-8.17191210575401782989501953125</LongitudeDegrees>
            </Position>
            <AltitudeMeters>19.6000003814697265625</AltitudeMeters>
            <DistanceMeters>65062.598371026</DistanceMeters>
          </Trackpoint>
          <Trackpoint>
            <Time>2018-04-21T12:35:13.000Z</Time>
            <Position>
              <LatitudeDegrees>43.2752147130668163299560546875</LatitudeDegrees>
              <LongitudeDegrees>-8.17189718596637248992919921875</LongitudeDegrees>
            </Position>
            <AltitudeMeters>19.799999237060546875</AltitudeMeters>
            <DistanceMeters>65064.011044695</DistanceMeters>
          </Trackpoint>
          <Trackpoint>
            <Time>2018-04-21T12:35:17.000Z</Time>
            <Position>
              <LatitudeDegrees>43.2752244360744953155517578125</LatitudeDegrees>
              <LongitudeDegrees>-8.171875476837158203125</LongitudeDegrees>
            </Position>
            <AltitudeMeters>20.799999237060546875</AltitudeMeters>
            <DistanceMeters>65066.075553373</DistanceMeters>
          </Trackpoint>
          <Trackpoint>
            <Time>2018-04-21T12:35:21.000Z</Time>
            <Position>
              <LatitudeDegrees>43.27523089013993740081787109375</LatitudeDegrees>
              <LongitudeDegrees>-8.171862401068210601806640625</LongitudeDegrees>
            </Position>
            <AltitudeMeters>22</AltitudeMeters>
            <DistanceMeters>65067.357533838</DistanceMeters>
          </Trackpoint>
          <Trackpoint>
            <Time>2018-04-21T12:35:26.000Z</Time>
            <Position>
              <LatitudeDegrees>43.2752666808664798736572265625</LatitudeDegrees>
              <LongitudeDegrees>-8.17167808301746845245361328125</LongitudeDegrees>
            </Position>
            <AltitudeMeters>23.200000762939453125</AltitudeMeters>
            <DistanceMeters>65082.815959144</DistanceMeters>
          </Trackpoint>
          <Trackpoint>
            <Time>2018-04-21T12:35:32.000Z</Time>
            <Position>
              <LatitudeDegrees>43.2753209955990314483642578125</LatitudeDegrees>
              <LongitudeDegrees>-8.171564675867557525634765625</LongitudeDegrees>
            </Position>
            <AltitudeMeters>23.799999237060546875</AltitudeMeters>
            <DistanceMeters>65093.816096613</DistanceMeters>
          </Trackpoint>
          <Trackpoint>
            <Time>2018-04-21T12:35:34.000Z</Time>
            <Position>
              <LatitudeDegrees>43.275340609252452850341796875</LatitudeDegrees>
              <LongitudeDegrees>-8.1715326569974422454833984375</LongitudeDegrees>
            </Position>
            <AltitudeMeters>24.200000762939453125</AltitudeMeters>
            <DistanceMeters>65097.205234739</DistanceMeters>
          </Trackpoint>
          <Trackpoint>
            <Time>2018-04-21T12:35:39.000Z</Time>
            <Position>
              <LatitudeDegrees>43.275349996984004974365234375</LatitudeDegrees>
              <LongitudeDegrees>-8.171516396105289459228515625</LongitudeDegrees>
            </Position>
            <AltitudeMeters>25.200000762939453125</AltitudeMeters>
            <DistanceMeters>65098.883741173</DistanceMeters>
          </Trackpoint>
          <Trackpoint>
            <Time>2018-04-21T12:35:43.000Z</Time>
            <Position>
              <LatitudeDegrees>43.2753427885472774505615234375</LatitudeDegrees>
              <LongitudeDegrees>-8.1714954413473606109619140625</LongitudeDegrees>
            </Position>
            <AltitudeMeters>25.3999996185302734375</AltitudeMeters>
            <DistanceMeters>65100.760368418</DistanceMeters>
          </Trackpoint>
          <Trackpoint>
            <Time>2018-04-21T12:35:45.000Z</Time>
            <Position>
              <LatitudeDegrees>43.275342285633087158203125</LatitudeDegrees>
              <LongitudeDegrees>-8.17145227454602718353271484375</LongitudeDegrees>
            </Position>
            <AltitudeMeters>25.200000762939453125</AltitudeMeters>
            <DistanceMeters>65104.259623146</DistanceMeters>
          </Trackpoint>
          <Trackpoint>
            <Time>2018-04-21T12:35:48.000Z</Time>
            <Position>
              <LatitudeDegrees>43.27534429728984832763671875</LatitudeDegrees>
              <LongitudeDegrees>-8.17137055099010467529296875</LongitudeDegrees>
            </Position>
            <AltitudeMeters>24</AltitudeMeters>
            <DistanceMeters>65110.887012664</DistanceMeters>
          </Trackpoint>
          <Trackpoint>
            <Time>2018-04-21T12:35:51.000Z</Time>
            <Position>
              <LatitudeDegrees>43.27534471638500690460205078125</LatitudeDegrees>
              <LongitudeDegrees>-8.17127960734069347381591796875</LongitudeDegrees>
            </Position>
            <AltitudeMeters>24</AltitudeMeters>
            <DistanceMeters>65118.256332832</DistanceMeters>
          </Trackpoint>
          <Trackpoint>
            <Time>2018-04-21T12:35:58.000Z</Time>
            <Position>
              <LatitudeDegrees>43.27535192482173442840576171875</LatitudeDegrees>
              <LongitudeDegrees>-8.1710652820765972137451171875</LongitudeDegrees>
            </Position>
            <AltitudeMeters>24</AltitudeMeters>
            <DistanceMeters>65135.642326588</DistanceMeters>
          </Trackpoint>
          <Trackpoint>
            <Time>2018-04-21T12:36:06.000Z</Time>
            <Position>
              <LatitudeDegrees>43.27536173164844512939453125</LatitudeDegrees>
              <LongitudeDegrees>-8.17080862820148468017578125</LongitudeDegrees>
            </Position>
            <AltitudeMeters>24.799999237060546875</AltitudeMeters>
            <DistanceMeters>65156.469008799</DistanceMeters>
          </Trackpoint>
          <Trackpoint>
            <Time>2018-04-21T12:36:07.000Z</Time>
            <Position>
              <LatitudeDegrees>43.2753682695329189300537109375</LatitudeDegrees>
              <LongitudeDegrees>-8.1707766093313694000244140625</LongitudeDegrees>
            </Position>
            <AltitudeMeters>25</AltitudeMeters>
            <DistanceMeters>65159.163481189</DistanceMeters>
          </Trackpoint>
          <Trackpoint>
            <Time>2018-04-21T12:36:11.000Z</Time>
            <Position>
              <LatitudeDegrees>43.27542602084577083587646484375</LatitudeDegrees>
              <LongitudeDegrees>-8.17065247334539890289306640625</LongitudeDegrees>
            </Position>
            <AltitudeMeters>26.3999996185302734375</AltitudeMeters>
            <DistanceMeters>65171.101348102</DistanceMeters>
          </Trackpoint>
          <Trackpoint>
            <Time>2018-04-21T12:36:13.000Z</Time>
            <Position>
              <LatitudeDegrees>43.2754450477659702301025390625</LatitudeDegrees>
              <LongitudeDegrees>-8.1706223823130130767822265625</LongitudeDegrees>
            </Position>
            <AltitudeMeters>26.3999996185302734375</AltitudeMeters>
            <DistanceMeters>65174.332256391</DistanceMeters>
          </Trackpoint>
          <Trackpoint>
            <Time>2018-04-21T12:36:19.000Z</Time>
            <Position>
              <LatitudeDegrees>43.2754551060497760772705078125</LatitudeDegrees>
              <LongitudeDegrees>-8.1706455163657665252685546875</LongitudeDegrees>
            </Position>
            <AltitudeMeters>27.6000003814697265625</AltitudeMeters>
            <DistanceMeters>65176.515804046</DistanceMeters>
          </Trackpoint>
          <Trackpoint>
            <Time>2018-04-21T12:36:24.000Z</Time>
            <Position>
              <LatitudeDegrees>43.27548905275762081146240234375</LatitudeDegrees>
              <LongitudeDegrees>-8.17063696682453155517578125</LongitudeDegrees>
            </Position>
            <AltitudeMeters>28.799999237060546875</AltitudeMeters>
            <DistanceMeters>65180.357046672</DistanceMeters>
          </Trackpoint>
          <Trackpoint>
            <Time>2018-04-21T12:36:27.000Z</Time>
            <Position>
              <LatitudeDegrees>43.27548779547214508056640625</LatitudeDegrees>
              <LongitudeDegrees>-8.17066018469631671905517578125</LongitudeDegrees>
            </Position>
            <AltitudeMeters>29.799999237060546875</AltitudeMeters>
            <DistanceMeters>65182.243273095</DistanceMeters>
          </Trackpoint>
          <Trackpoint>
            <Time>2018-04-21T12:36:32.000Z</Time>
            <Position>
              <LatitudeDegrees>43.27550196088850498199462890625</LatitudeDegrees>
              <LongitudeDegrees>-8.17068315111100673675537109375</LongitudeDegrees>
            </Position>
            <AltitudeMeters>30.799999237060546875</AltitudeMeters>
            <DistanceMeters>65184.680851873</DistanceMeters>
          </Trackpoint>
          <Trackpoint>
            <Time>2018-04-21T12:36:33.000Z</Time>
            <Position>
              <LatitudeDegrees>43.27550263144075870513916015625</LatitudeDegrees>
              <LongitudeDegrees>-8.1706891022622585296630859375</LongitudeDegrees>
            </Position>
            <AltitudeMeters>30.799999237060546875</AltitudeMeters>
            <DistanceMeters>65185.174625165</DistanceMeters>
          </Trackpoint>
          <Trackpoint>
            <Time>2018-04-21T12:36:34.000Z</Time>
            <Position>
              <LatitudeDegrees>43.275508917868137359619140625</LatitudeDegrees>
              <LongitudeDegrees>-8.1706993281841278076171875</LongitudeDegrees>
            </Position>
            <AltitudeMeters>31.200000762939453125</AltitudeMeters>
            <DistanceMeters>65186.262255624</DistanceMeters>
          </Trackpoint>
          <Trackpoint>
            <Time>2018-04-21T12:36:40.000Z</Time>
            <Position>
              <LatitudeDegrees>43.27549626119434833526611328125</LatitudeDegrees>
              <LongitudeDegrees>-8.1706817261874675750732421875</LongitudeDegrees>
            </Position>
            <AltitudeMeters>31.200000762939453125</AltitudeMeters>
            <DistanceMeters>65188.264592743</DistanceMeters>
          </Trackpoint>
          <Trackpoint>
            <Time>2018-04-21T12:36:44.000Z</Time>
            <Position>
              <LatitudeDegrees>43.2754993624985218048095703125</LatitudeDegrees>
              <LongitudeDegrees>-8.17069991491734981536865234375</LongitudeDegrees>
            </Position>
            <AltitudeMeters>31.799999237060546875</AltitudeMeters>
            <DistanceMeters>65189.782047683</DistanceMeters>
          </Trackpoint>
          <Trackpoint>
            <Time>2018-04-21T12:36:47.000Z</Time>
            <Position>
              <LatitudeDegrees>43.27549860812723636627197265625</LatitudeDegrees>
              <LongitudeDegrees>-8.17072623409330844879150390625</LongitudeDegrees>
            </Position>
            <AltitudeMeters>32.200000762939453125</AltitudeMeters>
            <DistanceMeters>65191.919620765</DistanceMeters>
          </Trackpoint>
          <Trackpoint>
            <Time>2018-04-21T12:36:48.000Z</Time>
            <Position>
              <LatitudeDegrees>43.2755382545292377471923828125</LatitudeDegrees>
              <LongitudeDegrees>-8.1707645393908023834228515625</LongitudeDegrees>
            </Position>
            <AltitudeMeters>32.40000152587890625</AltitudeMeters>
            <DistanceMeters>65197.314427191</DistanceMeters>
          </Trackpoint>
          <Trackpoint>
            <Time>2018-04-21T12:36:51.000Z</Time>
            <Position>
              <LatitudeDegrees>43.27554655261337757110595703125</LatitudeDegrees>
              <LongitudeDegrees>-8.17078582942485809326171875</LongitudeDegrees>
            </Position>
            <AltitudeMeters>33.40000152587890625</AltitudeMeters>
            <DistanceMeters>65199.271147001</DistanceMeters>
          </Trackpoint>
          <Trackpoint>
            <Time>2018-04-21T12:36:54.000Z</Time>
            <Position>
              <LatitudeDegrees>43.275583684444427490234375</LatitudeDegrees>
              <LongitudeDegrees>-8.170865289866924285888671875</LongitudeDegrees>
            </Position>
            <AltitudeMeters>34.200000762939453125</AltitudeMeters>
            <DistanceMeters>65206.923010542</DistanceMeters>
          </Trackpoint>
          <Trackpoint>
            <Time>2018-04-21T12:36:55.000Z</Time>
            <Position>
              <LatitudeDegrees>43.2755851931869983673095703125</LatitudeDegrees>
              <LongitudeDegrees>-8.1708875857293605804443359375</LongitudeDegrees>
            </Position>
            <AltitudeMeters>34.59999847412109375</AltitudeMeters>
            <DistanceMeters>65208.738493371</DistanceMeters>
          </Trackpoint>
          <Trackpoint>
            <Time>2018-04-21T12:37:00.000Z</Time>
            <Position>
              <LatitudeDegrees>43.27558494172990322113037109375</LatitudeDegrees>
              <LongitudeDegrees>-8.17091415636241436004638671875</LongitudeDegrees>
            </Position>
            <AltitudeMeters>35.200000762939453125</AltitudeMeters>
            <DistanceMeters>65210.892897997</DistanceMeters>
          </Trackpoint>
          <Trackpoint>
            <Time>2018-04-21T12:37:03.000Z</Time>
            <Position>
              <LatitudeDegrees>43.27558276243507862091064453125</LatitudeDegrees>
              <LongitudeDegrees>-8.17092119716107845306396484375</LongitudeDegrees>
            </Position>
            <AltitudeMeters>35.799999237060546875</AltitudeMeters>
            <DistanceMeters>65211.516029835</DistanceMeters>
          </Trackpoint>
          <Trackpoint>
            <Time>2018-04-21T12:37:06.000Z</Time>
            <Position>
              <LatitudeDegrees>43.2755808345973491668701171875</LatitudeDegrees>
              <LongitudeDegrees>-8.17093209363520145416259765625</LongitudeDegrees>
            </Position>
            <AltitudeMeters>37</AltitudeMeters>
            <DistanceMeters>65212.427494059</DistanceMeters>
          </Trackpoint>
          <Trackpoint>
            <Time>2018-04-21T12:37:07.000Z</Time>
            <Position>
              <LatitudeDegrees>43.27558242715895175933837890625</LatitudeDegrees>
              <LongitudeDegrees>-8.17093578167259693145751953125</LongitudeDegrees>
            </Position>
            <AltitudeMeters>36.799999237060546875</AltitudeMeters>
            <DistanceMeters>65212.783051467</DistanceMeters>
          </Trackpoint>
          <Trackpoint>
            <Time>2018-04-21T12:37:11.000Z</Time>
            <Position>
              <LatitudeDegrees>43.27558510936796665191650390625</LatitudeDegrees>
              <LongitudeDegrees>-8.17095640115439891815185546875</LongitudeDegrees>
            </Position>
            <AltitudeMeters>38.200000762939453125</AltitudeMeters>
            <DistanceMeters>65214.480282856</DistanceMeters>
          </Trackpoint>
          <Trackpoint>
            <Time>2018-04-21T12:37:15.000Z</Time>
            <Position>
              <LatitudeDegrees>43.27558041550219058990478515625</LatitudeDegrees>
              <LongitudeDegrees>-8.17099210806190967559814453125</LongitudeDegrees>
            </Position>
            <AltitudeMeters>38.799999237060546875</AltitudeMeters>
            <DistanceMeters>65217.42150934</DistanceMeters>
          </Trackpoint>
          <Trackpoint>
            <Time>2018-04-21T12:37:17.000Z</Time>
            <Position>
              <LatitudeDegrees>43.27558360062539577484130859375</LatitudeDegrees>
              <LongitudeDegrees>-8.17100551910698413848876953125</LongitudeDegrees>
            </Position>
            <AltitudeMeters>39.40000152587890625</AltitudeMeters>
            <DistanceMeters>65218.565782509</DistanceMeters>
          </Trackpoint>
          <Trackpoint>
            <Time>2018-04-21T12:37:22.000Z</Time>
            <Position>
              <LatitudeDegrees>43.27558435499668121337890625</LatitudeDegrees>
              <LongitudeDegrees>-8.1710374541580677032470703125</LongitudeDegrees>
            </Position>
            <AltitudeMeters>40.40000152587890625</AltitudeMeters>
            <DistanceMeters>65221.156023192</DistanceMeters>
          </Trackpoint>
          <Trackpoint>
            <Time>2018-04-21T12:37:27.000Z</Time>
            <Position>
              <LatitudeDegrees>43.27559374272823333740234375</LatitudeDegrees>
              <LongitudeDegrees>-8.17106880247592926025390625</LongitudeDegrees>
            </Position>
            <AltitudeMeters>41.799999237060546875</AltitudeMeters>
            <DistanceMeters>65223.903593738</DistanceMeters>
          </Trackpoint>
          <Trackpoint>
            <Time>2018-04-21T12:37:28.000Z</Time>
            <Position>
              <LatitudeDegrees>43.2755945809185504913330078125</LatitudeDegrees>
              <LongitudeDegrees>-8.171075172722339630126953125</LongitudeDegrees>
            </Position>
            <AltitudeMeters>41.59999847412109375</AltitudeMeters>
            <DistanceMeters>65224.432680092</DistanceMeters>
          </Trackpoint>
          <Trackpoint>
            <Time>2018-04-21T12:37:31.000Z</Time>
            <Position>
              <LatitudeDegrees>43.27559265308082103729248046875</LatitudeDegrees>
              <LongitudeDegrees>-8.17108154296875</LongitudeDegrees>
            </Position>
            <AltitudeMeters>40.59999847412109375</AltitudeMeters>
            <DistanceMeters>65224.994865716</DistanceMeters>
          </Trackpoint>
          <Trackpoint>
            <Time>2018-04-21T12:37:33.000Z</Time>
            <Position>
              <LatitudeDegrees>43.2756978459656238555908203125</LatitudeDegrees>
              <LongitudeDegrees>-8.17123149521648883819580078125</LongitudeDegrees>
            </Position>
            <AltitudeMeters>41.799999237060546875</AltitudeMeters>
            <DistanceMeters>65241.868998892</DistanceMeters>
          </Trackpoint>
          <Trackpoint>
            <Time>2018-04-21T12:37:35.000Z</Time>
            <Position>
              <LatitudeDegrees>43.27569977380335330963134765625</LatitudeDegrees>
              <LongitudeDegrees>-8.1712491810321807861328125</LongitudeDegrees>
            </Position>
            <AltitudeMeters>42.40000152587890625</AltitudeMeters>
            <DistanceMeters>65243.316402683</DistanceMeters>
          </Trackpoint>
          <Trackpoint>
            <Time>2018-04-21T12:37:40.000Z</Time>
            <Position>
              <LatitudeDegrees>43.2757052220404148101806640625</LatitudeDegrees>
              <LongitudeDegrees>-8.17128228954970836639404296875</LongitudeDegrees>
            </Position>
            <AltitudeMeters>42.799999237060546875</AltitudeMeters>
            <DistanceMeters>65246.067257834</DistanceMeters>
          </Trackpoint>
          <Trackpoint>
            <Time>2018-04-21T12:37:41.000Z</Time>
            <Position>
              <LatitudeDegrees>43.2757057249546051025390625</LatitudeDegrees>
              <LongitudeDegrees>-8.17128262482583522796630859375</LongitudeDegrees>
            </Position>
            <AltitudeMeters>43</AltitudeMeters>
            <DistanceMeters>65246.162284548</DistanceMeters>
          </Trackpoint>
          <Trackpoint>
            <Time>2018-04-21T12:37:45.000Z</Time>
            <Position>
              <LatitudeDegrees>43.2757055573165416717529296875</LatitudeDegrees>
              <LongitudeDegrees>-8.171309530735015869140625</LongitudeDegrees>
            </Position>
            <AltitudeMeters>44.200000762939453125</AltitudeMeters>
            <DistanceMeters>65248.339620106</DistanceMeters>
          </Trackpoint>
          <Trackpoint>
            <Time>2018-04-21T12:37:48.000Z</Time>
            <Position>
              <LatitudeDegrees>43.2757082395255565643310546875</LatitudeDegrees>
              <LongitudeDegrees>-8.17132227122783660888671875</LongitudeDegrees>
            </Position>
            <AltitudeMeters>44.59999847412109375</AltitudeMeters>
            <DistanceMeters>65249.410516791</DistanceMeters>
          </Trackpoint>
          <Trackpoint>
            <Time>2018-04-21T12:37:51.000Z</Time>
            <Position>
              <LatitudeDegrees>43.275702707469463348388671875</LatitudeDegrees>
              <LongitudeDegrees>-8.17134079523384571075439453125</LongitudeDegrees>
            </Position>
            <AltitudeMeters>45.59999847412109375</AltitudeMeters>
            <DistanceMeters>65251.034333997</DistanceMeters>
          </Trackpoint>
          <Trackpoint>
            <Time>2018-04-21T12:37:55.000Z</Time>
            <Position>
              <LatitudeDegrees>43.2757405936717987060546875</LatitudeDegrees>
              <LongitudeDegrees>-8.171465434134006500244140625</LongitudeDegrees>
            </Position>
            <AltitudeMeters>46</AltitudeMeters>
            <DistanceMeters>65261.979332586</DistanceMeters>
          </Trackpoint>
          <Trackpoint>
            <Time>2018-04-21T12:38:01.000Z</Time>
            <Position>
              <LatitudeDegrees>43.2757447846233844757080078125</LatitudeDegrees>
              <LongitudeDegrees>-8.1715249456465244293212890625</LongitudeDegrees>
            </Position>
            <AltitudeMeters>46.200000762939453125</AltitudeMeters>
            <DistanceMeters>65266.824763295</DistanceMeters>
          </Trackpoint>
          <Trackpoint>
            <Time>2018-04-21T12:38:06.000Z</Time>
            <Position>
              <LatitudeDegrees>43.275750987231731414794921875</LatitudeDegrees>
              <LongitudeDegrees>-8.171570710837841033935546875</LongitudeDegrees>
            </Position>
            <AltitudeMeters>46.200000762939453125</AltitudeMeters>
            <DistanceMeters>65270.597216141</DistanceMeters>
          </Trackpoint>
          <Trackpoint>
            <Time>2018-04-21T12:38:12.000Z</Time>
            <Position>
              <LatitudeDegrees>43.27575140632688999176025390625</LatitudeDegrees>
              <LongitudeDegrees>-8.17157573997974395751953125</LongitudeDegrees>
            </Position>
            <AltitudeMeters>46.40000152587890625</AltitudeMeters>
            <DistanceMeters>65271.000380346</DistanceMeters>
          </Trackpoint>
          <Trackpoint>
            <Time>2018-04-21T12:38:21.000Z</Time>
            <Position>
              <LatitudeDegrees>43.2757434435188770294189453125</LatitudeDegrees>
              <LongitudeDegrees>-8.17165327258408069610595703125</LongitudeDegrees>
            </Position>
            <AltitudeMeters>46.40000152587890625</AltitudeMeters>
            <DistanceMeters>65277.345859907</DistanceMeters>
          </Trackpoint>
          <Trackpoint>
            <Time>2018-04-21T12:38:23.000Z</Time>
            <Position>
              <LatitudeDegrees>43.27574528753757476806640625</LatitudeDegrees>
              <LongitudeDegrees>-8.1716764904558658599853515625</LongitudeDegrees>
            </Position>
            <AltitudeMeters>46.59999847412109375</AltitudeMeters>
            <DistanceMeters>65279.239253777</DistanceMeters>
          </Trackpoint>
          <Trackpoint>
            <Time>2018-04-21T12:38:25.000Z</Time>
            <Position>
              <LatitudeDegrees>43.2757472991943359375</LatitudeDegrees>
              <LongitudeDegrees>-8.171727955341339111328125</LongitudeDegrees>
            </Position>
            <AltitudeMeters>46.799999237060546875</AltitudeMeters>
            <DistanceMeters>65283.415026474</DistanceMeters>
          </Trackpoint>
          <Trackpoint>
            <Time>2018-04-21T12:38:27.000Z</Time>
            <Position>
              <LatitudeDegrees>43.2757588662207126617431640625</LatitudeDegrees>
              <LongitudeDegrees>-8.17177715711295604705810546875</LongitudeDegrees>
            </Position>
            <AltitudeMeters>46.799999237060546875</AltitudeMeters>
            <DistanceMeters>65287.603754029</DistanceMeters>
          </Trackpoint>
          <Trackpoint>
            <Time>2018-04-21T12:38:30.000Z</Time>
            <Position>
              <LatitudeDegrees>43.27579515986144542694091796875</LatitudeDegrees>
              <LongitudeDegrees>-8.171867430210113525390625</LongitudeDegrees>
            </Position>
            <AltitudeMeters>47</AltitudeMeters>
            <DistanceMeters>65295.960163613</DistanceMeters>
          </Trackpoint>
          <Trackpoint>
            <Time>2018-04-21T12:38:31.000Z</Time>
            <Position>
              <LatitudeDegrees>43.27580505050718784332275390625</LatitudeDegrees>
              <LongitudeDegrees>-8.1718927435576915740966796875</LongitudeDegrees>
            </Position>
            <AltitudeMeters>47</AltitudeMeters>
            <DistanceMeters>65298.287833235</DistanceMeters>
          </Trackpoint>
          <Trackpoint>
            <Time>2018-04-21T12:38:37.000Z</Time>
            <Position>
              <LatitudeDegrees>43.2758747041225433349609375</LatitudeDegrees>
              <LongitudeDegrees>-8.17201453261077404022216796875</LongitudeDegrees>
            </Position>
            <AltitudeMeters>47.799999237060546875</AltitudeMeters>
            <DistanceMeters>65310.837836953</DistanceMeters>
          </Trackpoint>
          <Trackpoint>
            <Time>2018-04-21T12:38:38.000Z</Time>
            <Position>
              <LatitudeDegrees>43.27589071355760097503662109375</LatitudeDegrees>
              <LongitudeDegrees>-8.17201889120042324066162109375</LongitudeDegrees>
            </Position>
            <AltitudeMeters>48.200000762939453125</AltitudeMeters>
            <DistanceMeters>65312.655805044</DistanceMeters>
          </Trackpoint>
          <Trackpoint>
            <Time>2018-04-21T12:38:41.000Z</Time>
            <Position>
              <LatitudeDegrees>43.2759348861873149871826171875</LatitudeDegrees>
              <LongitudeDegrees>-8.17204655148088932037353515625</LongitudeDegrees>
            </Position>
            <AltitudeMeters>48.799999237060546875</AltitudeMeters>
            <DistanceMeters>65318.059809783</DistanceMeters>
          </Trackpoint>
          <Trackpoint>
            <Time>2018-04-21T12:38:42.000Z</Time>
            <Position>
              <LatitudeDegrees>43.27594787813723087310791015625</LatitudeDegrees>
              <LongitudeDegrees>-8.17205644212663173675537109375</LongitudeDegrees>
            </Position>
            <AltitudeMeters>49.200000762939453125</AltitudeMeters>
            <DistanceMeters>65319.711198013</DistanceMeters>
          </Trackpoint>
          <Trackpoint>
            <Time>2018-04-21T12:38:45.000Z</Time>
            <Position>
              <LatitudeDegrees>43.275976963341236114501953125</LatitudeDegrees>
              <LongitudeDegrees>-8.1720751337707042694091796875</LongitudeDegrees>
            </Position>
            <AltitudeMeters>49.799999237060546875</AltitudeMeters>
            <DistanceMeters>65323.287031936</DistanceMeters>
          </Trackpoint>
          <Trackpoint>
            <Time>2018-04-21T12:38:49.000Z</Time>
            <Position>
              <LatitudeDegrees>43.2760240696370601654052734375</LatitudeDegrees>
              <LongitudeDegrees>-8.17212425172328948974609375</LongitudeDegrees>
            </Position>
            <AltitudeMeters>51.200000762939453125</AltitudeMeters>
            <DistanceMeters>65329.869989999</DistanceMeters>
          </Trackpoint>
          <Trackpoint>
            <Time>2018-04-21T12:38:55.000Z</Time>
            <Position>
              <LatitudeDegrees>43.27609757892787456512451171875</LatitudeDegrees>
              <LongitudeDegrees>-8.17217663861811161041259765625</LongitudeDegrees>
            </Position>
            <AltitudeMeters>52.40000152587890625</AltitudeMeters>
            <DistanceMeters>65339.087581293</DistanceMeters>
          </Trackpoint>
          <Trackpoint>
            <Time>2018-04-21T12:38:56.000Z</Time>
            <Position>
              <LatitudeDegrees>43.2761132530868053436279296875</LatitudeDegrees>
              <LongitudeDegrees>-8.17218367941677570343017578125</LongitudeDegrees>
            </Position>
            <AltitudeMeters>52.59999847412109375</AltitudeMeters>
            <DistanceMeters>65340.922851985</DistanceMeters>
          </Trackpoint>
          <Trackpoint>
            <Time>2018-04-21T12:38:59.000Z</Time>
            <Position>
              <LatitudeDegrees>43.27613848261535167694091796875</LatitudeDegrees>
              <LongitudeDegrees>-8.17219910211861133575439453125</LongitudeDegrees>
            </Position>
            <AltitudeMeters>53.40000152587890625</AltitudeMeters>
            <DistanceMeters>65343.996198688</DistanceMeters>
          </Trackpoint>
          <Trackpoint>
            <Time>2018-04-21T12:39:02.000Z</Time>
            <Position>
              <LatitudeDegrees>43.27618860639631748199462890625</LatitudeDegrees>
              <LongitudeDegrees>-8.1722201406955718994140625</LongitudeDegrees>
            </Position>
            <AltitudeMeters>54</AltitudeMeters>
            <DistanceMeters>65349.82932204</DistanceMeters>
          </Trackpoint>
          <Trackpoint>
            <Time>2018-04-21T12:39:04.000Z</Time>
            <Position>
              <LatitudeDegrees>43.27622833661735057830810546875</LatitudeDegrees>
              <LongitudeDegrees>-8.17222977988421916961669921875</LongitudeDegrees>
            </Position>
            <AltitudeMeters>54.59999847412109375</AltitudeMeters>
            <DistanceMeters>65354.318768624</DistanceMeters>
          </Trackpoint>
          <Trackpoint>
            <Time>2018-04-21T12:39:07.000Z</Time>
            <Position>
              <LatitudeDegrees>43.2762963138520717620849609375</LatitudeDegrees>
              <LongitudeDegrees>-8.1722496449947357177734375</LongitudeDegrees>
            </Position>
            <AltitudeMeters>54.799999237060546875</AltitudeMeters>
            <DistanceMeters>65362.0545502</DistanceMeters>
          </Trackpoint>
          <Trackpoint>
            <Time>2018-04-21T12:39:13.000Z</Time>
            <Position>
              <LatitudeDegrees>43.2764113135635852813720703125</LatitudeDegrees>
              <LongitudeDegrees>-8.1722866930067539215087890625</LongitudeDegrees>
            </Position>
            <AltitudeMeters>55</AltitudeMeters>
            <DistanceMeters>65375.201591434</DistanceMeters>
          </Trackpoint>
          <Trackpoint>
            <Time>2018-04-21T12:39:19.000Z</Time>
            <Position>
              <LatitudeDegrees>43.276530839502811431884765625</LatitudeDegrees>
              <LongitudeDegrees>-8.17228962667286396026611328125</LongitudeDegrees>
            </Position>
            <AltitudeMeters>55.799999237060546875</AltitudeMeters>
            <DistanceMeters>65388.507028243</DistanceMeters>
          </Trackpoint>
          <Trackpoint>
            <Time>2018-04-21T12:39:20.000Z</Time>
            <Position>
              <LatitudeDegrees>43.276551626622676849365234375</LatitudeDegrees>
              <LongitudeDegrees>-8.17229197360575199127197265625</LongitudeDegrees>
            </Position>
            <AltitudeMeters>55.799999237060546875</AltitudeMeters>
            <DistanceMeters>65390.826925991</DistanceMeters>
          </Trackpoint>
          <Trackpoint>
            <Time>2018-04-21T12:39:25.000Z</Time>
            <Position>
              <LatitudeDegrees>43.27664575539529323577880859375</LatitudeDegrees>
              <LongitudeDegrees>-8.17231125198304653167724609375</LongitudeDegrees>
            </Position>
            <AltitudeMeters>56.799999237060546875</AltitudeMeters>
            <DistanceMeters>65401.418888498</DistanceMeters>
          </Trackpoint>
          <Trackpoint>
            <Time>2018-04-21T12:39:26.000Z</Time>
            <Position>
              <LatitudeDegrees>43.27667467296123504638671875</LatitudeDegrees>
              <LongitudeDegrees>-8.1723158620297908782958984375</LongitudeDegrees>
            </Position>
            <AltitudeMeters>56.799999237060546875</AltitudeMeters>
            <DistanceMeters>65404.658170645</DistanceMeters>
          </Trackpoint>
          <Trackpoint>
            <Time>2018-04-21T12:39:30.000Z</Time>
            <Position>
              <LatitudeDegrees>43.2768159918487071990966796875</LatitudeDegrees>
              <LongitudeDegrees>-8.17237411625683307647705078125</LongitudeDegrees>
            </Position>
            <AltitudeMeters>58</AltitudeMeters>
            <DistanceMeters>65421.080480564</DistanceMeters>
          </Trackpoint>
          <Trackpoint>
            <Time>2018-04-21T12:39:33.000Z</Time>
            <Position>
              <LatitudeDegrees>43.2768998108804225921630859375</LatitudeDegrees>
              <LongitudeDegrees>-8.1724248267710208892822265625</LongitudeDegrees>
            </Position>
            <AltitudeMeters>58.59999847412109375</AltitudeMeters>
            <DistanceMeters>65431.274504289</DistanceMeters>
          </Trackpoint>
          <Trackpoint>
            <Time>2018-04-21T12:39:36.000Z</Time>
            <Position>
              <LatitudeDegrees>43.2769715599715709686279296875</LatitudeDegrees>
              <LongitudeDegrees>-8.17245156504213809967041015625</LongitudeDegrees>
            </Position>
            <AltitudeMeters>59</AltitudeMeters>
            <DistanceMeters>65439.54892509</DistanceMeters>
          </Trackpoint>
          <Trackpoint>
            <Time>2018-04-21T12:39:40.000Z</Time>
            <Position>
              <LatitudeDegrees>43.27704138122498989105224609375</LatitudeDegrees>
              <LongitudeDegrees>-8.17250051535665988922119140625</LongitudeDegrees>
            </Position>
            <AltitudeMeters>59.59999847412109375</AltitudeMeters>
            <DistanceMeters>65448.273805859</DistanceMeters>
          </Trackpoint>
          <Trackpoint>
            <Time>2018-04-21T12:39:43.000Z</Time>
            <Position>
              <LatitudeDegrees>43.27709452249109745025634765625</LatitudeDegrees>
              <LongitudeDegrees>-8.1725492142140865325927734375</LongitudeDegrees>
            </Position>
            <AltitudeMeters>60</AltitudeMeters>
            <DistanceMeters>65455.384319062</DistanceMeters>
          </Trackpoint>
          <Trackpoint>
            <Time>2018-04-21T12:39:47.000Z</Time>
            <Position>
              <LatitudeDegrees>43.27717549167573451995849609375</LatitudeDegrees>
              <LongitudeDegrees>-8.1725787185132503509521484375</LongitudeDegrees>
            </Position>
            <AltitudeMeters>61.40000152587890625</AltitudeMeters>
            <DistanceMeters>65464.707597233</DistanceMeters>
          </Trackpoint>
          <Trackpoint>
            <Time>2018-04-21T12:39:50.000Z</Time>
            <Position>
              <LatitudeDegrees>43.27721958048641681671142578125</LatitudeDegrees>
              <LongitudeDegrees>-8.17259841598570346832275390625</LongitudeDegrees>
            </Position>
            <AltitudeMeters>62.799999237060546875</AltitudeMeters>
            <DistanceMeters>65469.867994062</DistanceMeters>
          </Trackpoint>
          <Trackpoint>
            <Time>2018-04-21T12:39:52.000Z</Time>
            <Position>
              <LatitudeDegrees>43.2772518508136272430419921875</LatitudeDegrees>
              <LongitudeDegrees>-8.1726139225065708160400390625</LongitudeDegrees>
            </Position>
            <AltitudeMeters>63</AltitudeMeters>
            <DistanceMeters>65473.673811006</DistanceMeters>
          </Trackpoint>
          <Trackpoint>
            <Time>2018-04-21T12:39:56.000Z</Time>
            <Position>
              <LatitudeDegrees>43.27731882221996784210205078125</LatitudeDegrees>
              <LongitudeDegrees>-8.17264166660606861114501953125</LongitudeDegrees>
            </Position>
            <AltitudeMeters>63.799999237060546875</AltitudeMeters>
            <DistanceMeters>65481.460205117</DistanceMeters>
          </Trackpoint>
          <Trackpoint>
            <Time>2018-04-21T12:39:57.000Z</Time>
            <Position>
              <LatitudeDegrees>43.27733541838824748992919921875</LatitudeDegrees>
              <LongitudeDegrees>-8.17264133132994174957275390625</LongitudeDegrees>
            </Position>
            <AltitudeMeters>64</AltitudeMeters>
            <DistanceMeters>65483.307735603</DistanceMeters>
          </Trackpoint>
          <Trackpoint>
            <Time>2018-04-21T12:39:59.000Z</Time>
            <Position>
              <LatitudeDegrees>43.277367688715457916259765625</LatitudeDegrees>
              <LongitudeDegrees>-8.172635547816753387451171875</LongitudeDegrees>
            </Position>
            <AltitudeMeters>64.40000152587890625</AltitudeMeters>
            <DistanceMeters>65486.931232691</DistanceMeters>
          </Trackpoint>
          <Trackpoint>
            <Time>2018-04-21T12:40:01.000Z</Time>
            <Position>
              <LatitudeDegrees>43.27740549109876155853271484375</LatitudeDegrees>
              <LongitudeDegrees>-8.172630183398723602294921875</LongitudeDegrees>
            </Position>
            <AltitudeMeters>65</AltitudeMeters>
            <DistanceMeters>65491.161789571</DistanceMeters>
          </Trackpoint>
          <Trackpoint>
            <Time>2018-04-21T12:40:06.000Z</Time>
            <Position>
              <LatitudeDegrees>43.27749249525368213653564453125</LatitudeDegrees>
              <LongitudeDegrees>-8.172640241682529449462890625</LongitudeDegrees>
            </Position>
            <AltitudeMeters>65.8000030517578125</AltitudeMeters>
            <DistanceMeters>65500.879636012</DistanceMeters>
          </Trackpoint>
          <Trackpoint>
            <Time>2018-04-21T12:40:07.000Z</Time>
            <Position>
              <LatitudeDegrees>43.27751018106937408447265625</LatitudeDegrees>
              <LongitudeDegrees>-8.17263781093060970306396484375</LongitudeDegrees>
            </Position>
            <AltitudeMeters>66</AltitudeMeters>
            <DistanceMeters>65502.859295875</DistanceMeters>
          </Trackpoint>
          <Trackpoint>
            <Time>2018-04-21T12:40:12.000Z</Time>
            <Position>
              <LatitudeDegrees>43.27760405838489532470703125</LatitudeDegrees>
              <LongitudeDegrees>-8.17262825556099414825439453125</LongitudeDegrees>
            </Position>
            <AltitudeMeters>66.8000030517578125</AltitudeMeters>
            <DistanceMeters>65513.336395152</DistanceMeters>
          </Trackpoint>
          <Trackpoint>
            <Time>2018-04-21T12:40:13.000Z</Time>
            <Position>
              <LatitudeDegrees>43.277619816362857818603515625</LatitudeDegrees>
              <LongitudeDegrees>-8.1726243160665035247802734375</LongitudeDegrees>
            </Position>
            <AltitudeMeters>67</AltitudeMeters>
            <DistanceMeters>65515.119254347</DistanceMeters>
          </Trackpoint>
          <Trackpoint>
            <Time>2018-04-21T12:40:18.000Z</Time>
            <Position>
              <LatitudeDegrees>43.277704305946826934814453125</LatitudeDegrees>
              <LongitudeDegrees>-8.17260394804179668426513671875</LongitudeDegrees>
            </Position>
            <AltitudeMeters>68.1999969482421875</AltitudeMeters>
            <DistanceMeters>65524.667429658</DistanceMeters>
          </Trackpoint>
          <Trackpoint>
            <Time>2018-04-21T12:40:19.000Z</Time>
            <Position>
              <LatitudeDegrees>43.27772081829607486724853515625</LatitudeDegrees>
              <LongitudeDegrees>-8.17260445095598697662353515625</LongitudeDegrees>
            </Position>
            <AltitudeMeters>68.40000152587890625</AltitudeMeters>
            <DistanceMeters>65526.505158852</DistanceMeters>
          </Trackpoint>
          <Trackpoint>
            <Time>2018-04-21T12:40:25.000Z</Time>
            <Position>
              <LatitudeDegrees>43.27784889377653598785400390625</LatitudeDegrees>
              <LongitudeDegrees>-8.17259137518703937530517578125</LongitudeDegrees>
            </Position>
            <AltitudeMeters>69.1999969482421875</AltitudeMeters>
            <DistanceMeters>65540.799653239</DistanceMeters>
          </Trackpoint>
          <Trackpoint>
            <Time>2018-04-21T12:40:26.000Z</Time>
            <Position>
              <LatitudeDegrees>43.2778714410960674285888671875</LatitudeDegrees>
              <LongitudeDegrees>-8.172589950263500213623046875</LongitudeDegrees>
            </Position>
            <AltitudeMeters>69.40000152587890625</AltitudeMeters>
            <DistanceMeters>65543.31382378</DistanceMeters>
          </Trackpoint>
          <Trackpoint>
            <Time>2018-04-21T12:40:31.000Z</Time>
            <Position>
              <LatitudeDegrees>43.2779696770012378692626953125</LatitudeDegrees>
              <LongitudeDegrees>-8.1725824065506458282470703125</LongitudeDegrees>
            </Position>
            <AltitudeMeters>70</AltitudeMeters>
            <DistanceMeters>65554.264596136</DistanceMeters>
          </Trackpoint>
          <Trackpoint>
            <Time>2018-04-21T12:40:34.000Z</Time>
            <Position>
              <LatitudeDegrees>43.27802726067602634429931640625</LatitudeDegrees>
              <LongitudeDegrees>-8.17256706766784191131591796875</LongitudeDegrees>
            </Position>
            <AltitudeMeters>70.40000152587890625</AltitudeMeters>
            <DistanceMeters>65560.793145807</DistanceMeters>
          </Trackpoint>
          <Trackpoint>
            <Time>2018-04-21T12:40:36.000Z</Time>
            <Position>
              <LatitudeDegrees>43.2780538313090801239013671875</LatitudeDegrees>
              <LongitudeDegrees>-8.1725666485726833343505859375</LongitudeDegrees>
            </Position>
            <AltitudeMeters>70.8000030517578125</AltitudeMeters>
            <DistanceMeters>65563.749683309</DistanceMeters>
          </Trackpoint>
          <Trackpoint>
            <Time>2018-04-21T12:40:41.000Z</Time>
            <Position>
              <LatitudeDegrees>43.27815433032810688018798828125</LatitudeDegrees>
              <LongitudeDegrees>-8.17261853255331516265869140625</LongitudeDegrees>
            </Position>
            <AltitudeMeters>70.8000030517578125</AltitudeMeters>
            <DistanceMeters>65575.698891179</DistanceMeters>
          </Trackpoint>
          <Trackpoint>
            <Time>2018-04-21T12:40:43.000Z</Time>
            <Position>
              <LatitudeDegrees>43.27818416990339756011962890625</LatitudeDegrees>
              <LongitudeDegrees>-8.17265541292726993560791015625</LongitudeDegrees>
            </Position>
            <AltitudeMeters>70.8000030517578125</AltitudeMeters>
            <DistanceMeters>65580.166157563</DistanceMeters>
          </Trackpoint>
          <Trackpoint>
            <Time>2018-04-21T12:40:45.000Z</Time>
            <Position>
              <LatitudeDegrees>43.27818752266466617584228515625</LatitudeDegrees>
              <LongitudeDegrees>-8.1726799719035625457763671875</LongitudeDegrees>
            </Position>
            <AltitudeMeters>70.8000030517578125</AltitudeMeters>
            <DistanceMeters>65582.188686828</DistanceMeters>
          </Trackpoint>
          <Trackpoint>
            <Time>2018-04-21T12:40:48.000Z</Time>
            <Position>
              <LatitudeDegrees>43.278169333934783935546875</LatitudeDegrees>
              <LongitudeDegrees>-8.17275457084178924560546875</LongitudeDegrees>
            </Position>
            <AltitudeMeters>71.1999969482421875</AltitudeMeters>
            <DistanceMeters>65588.563272618</DistanceMeters>
          </Trackpoint>
          <Trackpoint>
            <Time>2018-04-21T12:40:49.000Z</Time>
            <Position>
              <LatitudeDegrees>43.27815298922359943389892578125</LatitudeDegrees>
              <LongitudeDegrees>-8.1727751903235912322998046875</LongitudeDegrees>
            </Position>
            <AltitudeMeters>71.59999847412109375</AltitudeMeters>
            <DistanceMeters>65591.033967192</DistanceMeters>
          </Trackpoint>
          <Trackpoint>
            <Time>2018-04-21T12:40:51.000Z</Time>
            <Position>
              <LatitudeDegrees>43.278115689754486083984375</LatitudeDegrees>
              <LongitudeDegrees>-8.17281433381140232086181640625</LongitudeDegrees>
            </Position>
            <AltitudeMeters>72</AltitudeMeters>
            <DistanceMeters>65596.258708438</DistanceMeters>
          </Trackpoint>
          <Trackpoint>
            <Time>2018-04-21T12:40:53.000Z</Time>
            <Position>
              <LatitudeDegrees>43.27808593399822711944580078125</LatitudeDegrees>
              <LongitudeDegrees>-8.1728472746908664703369140625</LongitudeDegrees>
            </Position>
            <AltitudeMeters>72.59999847412109375</AltitudeMeters>
            <DistanceMeters>65600.512679899</DistanceMeters>
          </Trackpoint>
          <Trackpoint>
            <Time>2018-04-21T12:40:58.000Z</Time>
            <Position>
              <LatitudeDegrees>43.27804100699722766876220703125</LatitudeDegrees>
              <LongitudeDegrees>-8.1729310937225818634033203125</LongitudeDegrees>
            </Position>
            <AltitudeMeters>73.59999847412109375</AltitudeMeters>
            <DistanceMeters>65608.946535017</DistanceMeters>
          </Trackpoint>
          <Trackpoint>
            <Time>2018-04-21T12:40:59.000Z</Time>
            <Position>
              <LatitudeDegrees>43.27803111635148525238037109375</LatitudeDegrees>
              <LongitudeDegrees>-8.17295179702341556549072265625</LongitudeDegrees>
            </Position>
            <AltitudeMeters>73.8000030517578125</AltitudeMeters>
            <DistanceMeters>65610.953376838</DistanceMeters>
          </Trackpoint>
          <Trackpoint>
            <Time>2018-04-21T12:41:04.000Z</Time>
            <Position>
              <LatitudeDegrees>43.27797126956284046173095703125</LatitudeDegrees>
              <LongitudeDegrees>-8.1730243004858493804931640625</LongitudeDegrees>
            </Position>
            <AltitudeMeters>74.8000030517578125</AltitudeMeters>
            <DistanceMeters>65619.835198037</DistanceMeters>
          </Trackpoint>
          <Trackpoint>
            <Time>2018-04-21T12:41:07.000Z</Time>
            <Position>
              <LatitudeDegrees>43.2779381610453128814697265625</LatitudeDegrees>
              <LongitudeDegrees>-8.17307199351489543914794921875</LongitudeDegrees>
            </Position>
            <AltitudeMeters>75.59999847412109375</AltitudeMeters>
            <DistanceMeters>65625.175327381</DistanceMeters>
          </Trackpoint>
          <Trackpoint>
            <Time>2018-04-21T12:41:09.000Z</Time>
            <Position>
              <LatitudeDegrees>43.277912177145481109619140625</LatitudeDegrees>
              <LongitudeDegrees>-8.17309948615729808807373046875</LongitudeDegrees>
            </Position>
            <AltitudeMeters>76</AltitudeMeters>
            <DistanceMeters>65628.826134529</DistanceMeters>
          </Trackpoint>
          <Trackpoint>
            <Time>2018-04-21T12:41:14.000Z</Time>
            <Position>
              <LatitudeDegrees>43.27789851464331150054931640625</LatitudeDegrees>
              <LongitudeDegrees>-8.17314944230020046234130859375</LongitudeDegrees>
            </Position>
            <AltitudeMeters>77.40000152587890625</AltitudeMeters>
            <DistanceMeters>65633.149588963</DistanceMeters>
          </Trackpoint>
          <Trackpoint>
            <Time>2018-04-21T12:41:19.000Z</Time>
            <Position>
              <LatitudeDegrees>43.27783606946468353271484375</LatitudeDegrees>
              <LongitudeDegrees>-8.17324834875762462615966796875</LongitudeDegrees>
            </Position>
            <AltitudeMeters>78.59999847412109375</AltitudeMeters>
            <DistanceMeters>65643.757737371</DistanceMeters>
          </Trackpoint>
          <Trackpoint>
            <Time>2018-04-21T12:41:20.000Z</Time>
            <Position>
              <LatitudeDegrees>43.27783179469406604766845703125</LatitudeDegrees>
              <LongitudeDegrees>-8.17325673066079616546630859375</LongitudeDegrees>
            </Position>
            <AltitudeMeters>79</AltitudeMeters>
            <DistanceMeters>65644.58616106</DistanceMeters>
          </Trackpoint>
          <Trackpoint>
            <Time>2018-04-21T12:41:23.000Z</Time>
            <Position>
              <LatitudeDegrees>43.2778171263635158538818359375</LatitudeDegrees>
              <LongitudeDegrees>-8.17329637706279754638671875</LongitudeDegrees>
            </Position>
            <AltitudeMeters>80</AltitudeMeters>
            <DistanceMeters>65648.189666288</DistanceMeters>
          </Trackpoint>
          <Trackpoint>
            <Time>2018-04-21T12:41:27.000Z</Time>
            <Position>
              <LatitudeDegrees>43.2777812518179416656494140625</LatitudeDegrees>
              <LongitudeDegrees>-8.17334960214793682098388671875</LongitudeDegrees>
            </Position>
            <AltitudeMeters>81</AltitudeMeters>
            <DistanceMeters>65654.067512192</DistanceMeters>
          </Trackpoint>
          <Trackpoint>
            <Time>2018-04-21T12:41:28.000Z</Time>
            <Position>
              <LatitudeDegrees>43.27777328900992870330810546875</LatitudeDegrees>
              <LongitudeDegrees>-8.17336552776396274566650390625</LongitudeDegrees>
            </Position>
            <AltitudeMeters>81</AltitudeMeters>
            <DistanceMeters>65655.634732915</DistanceMeters>
          </Trackpoint>
          <Trackpoint>
            <Time>2018-04-21T12:41:34.000Z</Time>
            <Position>
              <LatitudeDegrees>43.27773171477019786834716796875</LatitudeDegrees>
              <LongitudeDegrees>-8.173465020954608917236328125</LongitudeDegrees>
            </Position>
            <AltitudeMeters>82.1999969482421875</AltitudeMeters>
            <DistanceMeters>65664.930852082</DistanceMeters>
          </Trackpoint>
          <Trackpoint>
            <Time>2018-04-21T12:41:35.000Z</Time>
            <Position>
              <LatitudeDegrees>43.277716375887393951416015625</LatitudeDegrees>
              <LongitudeDegrees>-8.17348035983741283416748046875</LongitudeDegrees>
            </Position>
            <AltitudeMeters>82.1999969482421875</AltitudeMeters>
            <DistanceMeters>65667.042926362</DistanceMeters>
          </Trackpoint>
          <Trackpoint>
            <Time>2018-04-21T12:41:40.000Z</Time>
            <Position>
              <LatitudeDegrees>43.27764035202562808990478515625</LatitudeDegrees>
              <LongitudeDegrees>-8.173520676791667938232421875</LongitudeDegrees>
            </Position>
            <AltitudeMeters>81.40000152587890625</AltitudeMeters>
            <DistanceMeters>65676.112876549</DistanceMeters>
          </Trackpoint>
          <Trackpoint>
            <Time>2018-04-21T12:41:45.000Z</Time>
            <Position>
              <LatitudeDegrees>43.27763096429407596588134765625</LatitudeDegrees>
              <LongitudeDegrees>-8.17352143116295337677001953125</LongitudeDegrees>
            </Position>
            <AltitudeMeters>81.40000152587890625</AltitudeMeters>
            <DistanceMeters>65677.162480916</DistanceMeters>
          </Trackpoint>
          <Trackpoint>
            <Time>2018-04-21T12:41:52.000Z</Time>
            <Position>
              <LatitudeDegrees>43.27771805226802825927734375</LatitudeDegrees>
              <LongitudeDegrees>-8.17347566597163677215576171875</LongitudeDegrees>
            </Position>
            <AltitudeMeters>81.8000030517578125</AltitudeMeters>
            <DistanceMeters>65687.54042492</DistanceMeters>
          </Trackpoint>
          <Trackpoint>
            <Time>2018-04-21T12:41:53.000Z</Time>
            <Position>
              <LatitudeDegrees>43.277734816074371337890625</LatitudeDegrees>
              <LongitudeDegrees>-8.17347734235227108001708984375</LongitudeDegrees>
            </Position>
            <AltitudeMeters>81.8000030517578125</AltitudeMeters>
            <DistanceMeters>65689.407403631</DistanceMeters>
          </Trackpoint>
          <Trackpoint>
            <Time>2018-04-21T12:41:57.000Z</Time>
            <Position>
              <LatitudeDegrees>43.27781151048839092254638671875</LatitudeDegrees>
              <LongitudeDegrees>-8.17346275784075260162353515625</LongitudeDegrees>
            </Position>
            <AltitudeMeters>82.40000152587890625</AltitudeMeters>
            <DistanceMeters>65698.025022134</DistanceMeters>
          </Trackpoint>
          <Trackpoint>
            <Time>2018-04-21T12:42:00.000Z</Time>
            <Position>
              <LatitudeDegrees>43.2778452895581722259521484375</LatitudeDegrees>
              <LongitudeDegrees>-8.173449598252773284912109375</LongitudeDegrees>
            </Position>
            <AltitudeMeters>83.1999969482421875</AltitudeMeters>
            <DistanceMeters>65701.932688864</DistanceMeters>
          </Trackpoint>
          <Trackpoint>
            <Time>2018-04-21T12:42:04.000Z</Time>
            <Position>
              <LatitudeDegrees>43.277888037264347076416015625</LatitudeDegrees>
              <LongitudeDegrees>-8.17344389855861663818359375</LongitudeDegrees>
            </Position>
            <AltitudeMeters>84</AltitudeMeters>
            <DistanceMeters>65706.714336441</DistanceMeters>
          </Trackpoint>
          <Trackpoint>
            <Time>2018-04-21T12:42:06.000Z</Time>
            <Position>
              <LatitudeDegrees>43.27790220268070697784423828125</LatitudeDegrees>
              <LongitudeDegrees>-8.1734457425773143768310546875</LongitudeDegrees>
            </Position>
            <AltitudeMeters>84.40000152587890625</AltitudeMeters>
            <DistanceMeters>65708.298748399</DistanceMeters>
          </Trackpoint>
          <Trackpoint>
            <Time>2018-04-21T12:42:11.000Z</Time>
            <Position>
              <LatitudeDegrees>43.2779837585985660552978515625</LatitudeDegrees>
              <LongitudeDegrees>-8.1734403781592845916748046875</LongitudeDegrees>
            </Position>
            <AltitudeMeters>85.59999847412109375</AltitudeMeters>
            <DistanceMeters>65717.386601784</DistanceMeters>
          </Trackpoint>
          <Trackpoint>
            <Time>2018-04-21T12:42:12.000Z</Time>
            <Position>
              <LatitudeDegrees>43.2780015282332897186279296875</LatitudeDegrees>
              <LongitudeDegrees>-8.17343945614993572235107421875</LongitudeDegrees>
            </Position>
            <AltitudeMeters>85.8000030517578125</AltitudeMeters>
            <DistanceMeters>65719.366261648</DistanceMeters>
          </Trackpoint>
          <Trackpoint>
            <Time>2018-04-21T12:42:16.000Z</Time>
            <Position>
              <LatitudeDegrees>43.27806967310607433319091796875</LatitudeDegrees>
              <LongitudeDegrees>-8.173439539968967437744140625</LongitudeDegrees>
            </Position>
            <AltitudeMeters>87</AltitudeMeters>
            <DistanceMeters>65726.95115565</DistanceMeters>
          </Trackpoint>
          <Trackpoint>
            <Time>2018-04-21T12:42:20.000Z</Time>
            <Position>
              <LatitudeDegrees>43.27814796008169651031494140625</LatitudeDegrees>
              <LongitudeDegrees>-8.17344599403440952301025390625</LongitudeDegrees>
            </Position>
            <AltitudeMeters>87.8000030517578125</AltitudeMeters>
            <DistanceMeters>65735.680175357</DistanceMeters>
          </Trackpoint>
          <Trackpoint>
            <Time>2018-04-21T12:42:21.000Z</Time>
            <Position>
              <LatitudeDegrees>43.27816740609705448150634765625</LatitudeDegrees>
              <LongitudeDegrees>-8.173444569110870361328125</LongitudeDegrees>
            </Position>
            <AltitudeMeters>88.1999969482421875</AltitudeMeters>
            <DistanceMeters>65737.849200444</DistanceMeters>
          </Trackpoint>
          <Trackpoint>
            <Time>2018-04-21T12:42:25.000Z</Time>
            <Position>
              <LatitudeDegrees>43.2782275043427944183349609375</LatitudeDegrees>
              <LongitudeDegrees>-8.17344725131988525390625</LongitudeDegrees>
            </Position>
            <AltitudeMeters>89.1999969482421875</AltitudeMeters>
            <DistanceMeters>65744.541672271</DistanceMeters>
          </Trackpoint>
          <Trackpoint>
            <Time>2018-04-21T12:42:27.000Z</Time>
            <Position>
              <LatitudeDegrees>43.27825625427067279815673828125</LatitudeDegrees>
              <LongitudeDegrees>-8.17344716750085353851318359375</LongitudeDegrees>
            </Position>
            <AltitudeMeters>89.59999847412109375</AltitudeMeters>
            <DistanceMeters>65747.741688941</DistanceMeters>
          </Trackpoint>
          <Trackpoint>
            <Time>2018-04-21T12:42:30.000Z</Time>
            <Position>
              <LatitudeDegrees>43.27830336056649684906005859375</LatitudeDegrees>
              <LongitudeDegrees>-8.17344926297664642333984375</LongitudeDegrees>
            </Position>
            <AltitudeMeters>90.40000152587890625</AltitudeMeters>
            <DistanceMeters>65752.987129144</DistanceMeters>
          </Trackpoint>
          <Trackpoint>
            <Time>2018-04-21T12:42:34.000Z</Time>
            <Position>
              <LatitudeDegrees>43.27836873941123485565185546875</LatitudeDegrees>
              <LongitudeDegrees>-8.17345705814659595489501953125</LongitudeDegrees>
            </Position>
            <AltitudeMeters>91.59999847412109375</AltitudeMeters>
            <DistanceMeters>65760.291216468</DistanceMeters>
          </Trackpoint>
          <Trackpoint>
            <Time>2018-04-21T12:42:35.000Z</Time>
            <Position>
              <LatitudeDegrees>43.2783857546746730804443359375</LatitudeDegrees>
              <LongitudeDegrees>-8.1734611652791500091552734375</LongitudeDegrees>
            </Position>
            <AltitudeMeters>91.8000030517578125</AltitudeMeters>
            <DistanceMeters>65762.215360782</DistanceMeters>
          </Trackpoint>
          <Trackpoint>
            <Time>2018-04-21T12:42:38.000Z</Time>
            <Position>
              <LatitudeDegrees>43.27842657454311847686767578125</LatitudeDegrees>
              <LongitudeDegrees>-8.1734571419656276702880859375</LongitudeDegrees>
            </Position>
            <AltitudeMeters>92.59999847412109375</AltitudeMeters>
            <DistanceMeters>65766.77070003</DistanceMeters>
          </Trackpoint>
          <Trackpoint>
            <Time>2018-04-21T12:42:42.000Z</Time>
            <Position>
              <LatitudeDegrees>43.27848994173109531402587890625</LatitudeDegrees>
              <LongitudeDegrees>-8.17344901151955127716064453125</LongitudeDegrees>
            </Position>
            <AltitudeMeters>93.40000152587890625</AltitudeMeters>
            <DistanceMeters>65773.85385644</DistanceMeters>
          </Trackpoint>
          <Trackpoint>
            <Time>2018-04-21T12:42:43.000Z</Time>
            <Position>
              <LatitudeDegrees>43.2785020954906940460205078125</LatitudeDegrees>
              <LongitudeDegrees>-8.173449933528900146484375</LongitudeDegrees>
            </Position>
            <AltitudeMeters>93.59999847412109375</AltitudeMeters>
            <DistanceMeters>65775.211109399</DistanceMeters>
          </Trackpoint>
          <Trackpoint>
            <Time>2018-04-21T12:42:47.000Z</Time>
            <Position>
              <LatitudeDegrees>43.27856336720287799835205078125</LatitudeDegrees>
              <LongitudeDegrees>-8.17345521412789821624755859375</LongitudeDegrees>
            </Position>
            <AltitudeMeters>94.59999847412109375</AltitudeMeters>
            <DistanceMeters>65782.045109353</DistanceMeters>
          </Trackpoint>
          <Trackpoint>
            <Time>2018-04-21T12:42:48.000Z</Time>
            <Position>
              <LatitudeDegrees>43.27857560478150844573974609375</LatitudeDegrees>
              <LongitudeDegrees>-8.17346007563173770904541015625</LongitudeDegrees>
            </Position>
            <AltitudeMeters>94.8000030517578125</AltitudeMeters>
            <DistanceMeters>65783.460975508</DistanceMeters>
          </Trackpoint>
          <Trackpoint>
            <Time>2018-04-21T12:42:51.000Z</Time>
            <Position>
              <LatitudeDegrees>43.27861416153609752655029296875</LatitudeDegrees>
              <LongitudeDegrees>-8.17346259020268917083740234375</LongitudeDegrees>
            </Position>
            <AltitudeMeters>95.59999847412109375</AltitudeMeters>
            <DistanceMeters>65787.758242818</DistanceMeters>
          </Trackpoint>
          <Trackpoint>
            <Time>2018-04-21T12:42:55.000Z</Time>
            <Position>
              <LatitudeDegrees>43.27867425978183746337890625</LatitudeDegrees>
              <LongitudeDegrees>-8.17347147502005100250244140625</LongitudeDegrees>
            </Position>
            <AltitudeMeters>96.59999847412109375</AltitudeMeters>
            <DistanceMeters>65794.485704682</DistanceMeters>
          </Trackpoint>
          <Trackpoint>
            <Time>2018-04-21T12:42:56.000Z</Time>
            <Position>
              <LatitudeDegrees>43.27868892811238765716552734375</LatitudeDegrees>
              <LongitudeDegrees>-8.17347616888582706451416015625</LongitudeDegrees>
            </Position>
            <AltitudeMeters>96.8000030517578125</AltitudeMeters>
            <DistanceMeters>65796.158822639</DistanceMeters>
          </Trackpoint>
          <Trackpoint>
            <Time>2018-04-21T12:43:01.000Z</Time>
            <Position>
              <LatitudeDegrees>43.278737962245941162109375</LatitudeDegrees>
              <LongitudeDegrees>-8.17348337732255458831787109375</LongitudeDegrees>
            </Position>
            <AltitudeMeters>97.59999847412109375</AltitudeMeters>
            <DistanceMeters>65801.648209225</DistanceMeters>
          </Trackpoint>
          <Trackpoint>
            <Time>2018-04-21T12:43:02.000Z</Time>
            <Position>
              <LatitudeDegrees>43.27875296585261821746826171875</LatitudeDegrees>
              <LongitudeDegrees>-8.17348949611186981201171875</LongitudeDegrees>
            </Position>
            <AltitudeMeters>97.8000030517578125</AltitudeMeters>
            <DistanceMeters>65803.390077672</DistanceMeters>
          </Trackpoint>
          <Trackpoint>
            <Time>2018-04-21T12:43:07.000Z</Time>
            <Position>
              <LatitudeDegrees>43.27881800942122936248779296875</LatitudeDegrees>
              <LongitudeDegrees>-8.1735040806233882904052734375</LongitudeDegrees>
            </Position>
            <AltitudeMeters>98.8000030517578125</AltitudeMeters>
            <DistanceMeters>65810.725007491</DistanceMeters>
          </Trackpoint>
          <Trackpoint>
            <Time>2018-04-21T12:43:09.000Z</Time>
            <Position>
              <LatitudeDegrees>43.27884935773909091949462890625</LatitudeDegrees>
              <LongitudeDegrees>-8.17350399680435657501220703125</LongitudeDegrees>
            </Position>
            <AltitudeMeters>99.1999969482421875</AltitudeMeters>
            <DistanceMeters>65814.213924665</DistanceMeters>
          </Trackpoint>
          <Trackpoint>
            <Time>2018-04-21T12:43:13.000Z</Time>
            <Position>
              <LatitudeDegrees>43.27890761196613311767578125</LatitudeDegrees>
              <LongitudeDegrees>-8.17352025769650936126708984375</LongitudeDegrees>
            </Position>
            <AltitudeMeters>99.8000030517578125</AltitudeMeters>
            <DistanceMeters>65820.830404892</DistanceMeters>
          </Trackpoint>
          <Trackpoint>
            <Time>2018-04-21T12:43:15.000Z</Time>
            <Position>
              <LatitudeDegrees>43.278936445713043212890625</LatitudeDegrees>
              <LongitudeDegrees>-8.17352704703807830810546875</LongitudeDegrees>
            </Position>
            <AltitudeMeters>100.1999969482421875</AltitudeMeters>
            <DistanceMeters>65824.084983155</DistanceMeters>
          </Trackpoint>
          <Trackpoint>
            <Time>2018-04-21T12:43:19.000Z</Time>
            <Position>
              <LatitudeDegrees>43.2789952866733074188232421875</LatitudeDegrees>
              <LongitudeDegrees>-8.1735402904450893402099609375</LongitudeDegrees>
            </Position>
            <AltitudeMeters>100.8000030517578125</AltitudeMeters>
            <DistanceMeters>65830.721903593</DistanceMeters>
          </Trackpoint>
          <Trackpoint>
            <Time>2018-04-21T12:43:22.000Z</Time>
            <Position>
              <LatitudeDegrees>43.2790428958833217620849609375</LatitudeDegrees>
              <LongitudeDegrees>-8.1735446490347385406494140625</LongitudeDegrees>
            </Position>
            <AltitudeMeters>101.1999969482421875</AltitudeMeters>
            <DistanceMeters>65836.032358256</DistanceMeters>
          </Trackpoint>
          <Trackpoint>
            <Time>2018-04-21T12:43:26.000Z</Time>
            <Position>
              <LatitudeDegrees>43.279098384082317352294921875</LatitudeDegrees>
              <LongitudeDegrees>-8.17355261184275150299072265625</LongitudeDegrees>
            </Position>
            <AltitudeMeters>102</AltitudeMeters>
            <DistanceMeters>65842.241901429</DistanceMeters>
          </Trackpoint>
          <Trackpoint>
            <Time>2018-04-21T12:43:29.000Z</Time>
            <Position>
              <LatitudeDegrees>43.279140293598175048828125</LatitudeDegrees>
              <LongitudeDegrees>-8.17356836982071399688720703125</LongitudeDegrees>
            </Position>
            <AltitudeMeters>102.40000152587890625</AltitudeMeters>
            <DistanceMeters>65847.078005025</DistanceMeters>
          </Trackpoint>
          <Trackpoint>
            <Time>2018-04-21T12:43:32.000Z</Time>
            <Position>
              <LatitudeDegrees>43.27916443347930908203125</LatitudeDegrees>
              <LongitudeDegrees>-8.1735677830874919891357421875</LongitudeDegrees>
            </Position>
            <AltitudeMeters>102.8000030517578125</AltitudeMeters>
            <DistanceMeters>65849.76576639</DistanceMeters>
          </Trackpoint>
          <Trackpoint>
            <Time>2018-04-21T12:43:33.000Z</Time>
            <Position>
              <LatitudeDegrees>43.27917021699249744415283203125</LatitudeDegrees>
              <LongitudeDegrees>-8.1735681183636188507080078125</LongitudeDegrees>
            </Position>
            <AltitudeMeters>103.1999969482421875</AltitudeMeters>
            <DistanceMeters>65850.410268924</DistanceMeters>
          </Trackpoint>
          <Trackpoint>
            <Time>2018-04-21T12:43:35.000Z</Time>
            <Position>
              <LatitudeDegrees>43.27920776791870594024658203125</LatitudeDegrees>
              <LongitudeDegrees>-8.17357021383941173553466796875</LongitudeDegrees>
            </Position>
            <AltitudeMeters>104.40000152587890625</AltitudeMeters>
            <DistanceMeters>65854.592524066</DistanceMeters>
          </Trackpoint>
          <Trackpoint>
            <Time>2018-04-21T12:43:39.000Z</Time>
            <Position>
              <LatitudeDegrees>43.27926543541252613067626953125</LatitudeDegrees>
              <LongitudeDegrees>-8.17359167151153087615966796875</LongitudeDegrees>
            </Position>
            <AltitudeMeters>103.8000030517578125</AltitudeMeters>
            <DistanceMeters>65861.243036409</DistanceMeters>
          </Trackpoint>
          <Trackpoint>
            <Time>2018-04-21T12:43:45.000Z</Time>
            <Position>
              <LatitudeDegrees>43.27939753420650959014892578125</LatitudeDegrees>
              <LongitudeDegrees>-8.1736160628497600555419921875</LongitudeDegrees>
            </Position>
            <AltitudeMeters>104.8000030517578125</AltitudeMeters>
            <DistanceMeters>65876.078164419</DistanceMeters>
          </Trackpoint>
          <Trackpoint>
            <Time>2018-04-21T12:43:50.000Z</Time>
            <Position>
              <LatitudeDegrees>43.2794700376689434051513671875</LatitudeDegrees>
              <LongitudeDegrees>-8.17364850081503391265869140625</LongitudeDegrees>
            </Position>
            <AltitudeMeters>105.40000152587890625</AltitudeMeters>
            <DistanceMeters>65884.564853392</DistanceMeters>
          </Trackpoint>
          <Trackpoint>
            <Time>2018-04-21T12:43:51.000Z</Time>
            <Position>
              <LatitudeDegrees>43.27948537655174732208251953125</LatitudeDegrees>
              <LongitudeDegrees>-8.17365218885242938995361328125</LongitudeDegrees>
            </Position>
            <AltitudeMeters>105.59999847412109375</AltitudeMeters>
            <DistanceMeters>65886.298928205</DistanceMeters>
          </Trackpoint>
          <Trackpoint>
            <Time>2018-04-21T12:43:57.000Z</Time>
            <Position>
              <LatitudeDegrees>43.2795655913650989532470703125</LatitudeDegrees>
              <LongitudeDegrees>-8.17369376309216022491455078125</LongitudeDegrees>
            </Position>
            <AltitudeMeters>106.59999847412109375</AltitudeMeters>
            <DistanceMeters>65895.841427398</DistanceMeters>
          </Trackpoint>
          <Trackpoint>
            <Time>2018-04-21T12:44:05.000Z</Time>
            <Position>
              <LatitudeDegrees>43.27962921001017093658447265625</LatitudeDegrees>
              <LongitudeDegrees>-8.17372259683907032012939453125</LongitudeDegrees>
            </Position>
            <AltitudeMeters>107.59999847412109375</AltitudeMeters>
            <DistanceMeters>65903.298451653</DistanceMeters>
          </Trackpoint>
          <Trackpoint>
            <Time>2018-04-21T12:44:11.000Z</Time>
            <Position>
              <LatitudeDegrees>43.27972568571567535400390625</LatitudeDegrees>
              <LongitudeDegrees>-8.17374891601502895355224609375</LongitudeDegrees>
            </Position>
            <AltitudeMeters>108.40000152587890625</AltitudeMeters>
            <DistanceMeters>65914.24674991</DistanceMeters>
          </Trackpoint>
          <Trackpoint>
            <Time>2018-04-21T12:44:13.000Z</Time>
            <Position>
              <LatitudeDegrees>43.279782347381114959716796875</LatitudeDegrees>
              <LongitudeDegrees>-8.1737756542861461639404296875</LongitudeDegrees>
            </Position>
            <AltitudeMeters>108.8000030517578125</AltitudeMeters>
            <DistanceMeters>65920.915567383</DistanceMeters>
          </Trackpoint>
          <Trackpoint>
            <Time>2018-04-21T12:44:19.000Z</Time>
            <Position>
              <LatitudeDegrees>43.2798800803720951080322265625</LatitudeDegrees>
              <LongitudeDegrees>-8.17382049746811389923095703125</LongitudeDegrees>
            </Position>
            <AltitudeMeters>109.40000152587890625</AltitudeMeters>
            <DistanceMeters>65932.384311581</DistanceMeters>
          </Trackpoint>
          <Trackpoint>
            <Time>2018-04-21T12:44:22.000Z</Time>
            <Position>
              <LatitudeDegrees>43.27992618083953857421875</LatitudeDegrees>
              <LongitudeDegrees>-8.1738450564444065093994140625</LongitudeDegrees>
            </Position>
            <AltitudeMeters>109.8000030517578125</AltitudeMeters>
            <DistanceMeters>65937.887662959</DistanceMeters>
          </Trackpoint>
          <Trackpoint>
            <Time>2018-04-21T12:44:26.000Z</Time>
            <Position>
              <LatitudeDegrees>43.27999784611165523529052734375</LatitudeDegrees>
              <LongitudeDegrees>-8.17389023490250110626220703125</LongitudeDegrees>
            </Position>
            <AltitudeMeters>110.40000152587890625</AltitudeMeters>
            <DistanceMeters>65946.663625698</DistanceMeters>
          </Trackpoint>
          <Trackpoint>
            <Time>2018-04-21T12:44:27.000Z</Time>
            <Position>
              <LatitudeDegrees>43.28001645393669605255126953125</LatitudeDegrees>
              <LongitudeDegrees>-8.17389677278697490692138671875</LongitudeDegrees>
            </Position>
            <AltitudeMeters>110.8000030517578125</AltitudeMeters>
            <DistanceMeters>65948.80119878</DistanceMeters>
          </Trackpoint>
          <Trackpoint>
            <Time>2018-04-21T12:44:28.000Z</Time>
            <Position>
              <LatitudeDegrees>43.28003925271332263946533203125</LatitudeDegrees>
              <LongitudeDegrees>-8.1739027239382266998291015625</LongitudeDegrees>
            </Position>
            <AltitudeMeters>110.8000030517578125</AltitudeMeters>
            <DistanceMeters>65951.38445767</DistanceMeters>
          </Trackpoint>
          <Trackpoint>
            <Time>2018-04-21T12:44:32.000Z</Time>
            <Position>
              <LatitudeDegrees>43.2801047153770923614501953125</LatitudeDegrees>
              <LongitudeDegrees>-8.17394454963505268096923828125</LongitudeDegrees>
            </Position>
            <AltitudeMeters>111.40000152587890625</AltitudeMeters>
            <DistanceMeters>65959.420819205</DistanceMeters>
          </Trackpoint>
          <Trackpoint>
            <Time>2018-04-21T12:44:35.000Z</Time>
            <Position>
              <LatitudeDegrees>43.28015224076807498931884765625</LatitudeDegrees>
              <LongitudeDegrees>-8.17397455684840679168701171875</LongitudeDegrees>
            </Position>
            <AltitudeMeters>112</AltitudeMeters>
            <DistanceMeters>65965.243095991</DistanceMeters>
          </Trackpoint>
          <Trackpoint>
            <Time>2018-04-21T12:44:40.000Z</Time>
            <Position>
              <LatitudeDegrees>43.2802332937717437744140625</LatitudeDegrees>
              <LongitudeDegrees>-8.174010850489139556884765625</LongitudeDegrees>
            </Position>
            <AltitudeMeters>112.8000030517578125</AltitudeMeters>
            <DistanceMeters>65974.731502714</DistanceMeters>
          </Trackpoint>
          <Trackpoint>
            <Time>2018-04-21T12:44:41.000Z</Time>
            <Position>
              <LatitudeDegrees>43.28023941256105899810791015625</LatitudeDegrees>
              <LongitudeDegrees>-8.174014873802661895751953125</LongitudeDegrees>
            </Position>
            <AltitudeMeters>113.1999969482421875</AltitudeMeters>
            <DistanceMeters>65975.491716429</DistanceMeters>
          </Trackpoint>
          <Trackpoint>
            <Time>2018-04-21T12:44:48.000Z</Time>
            <Position>
              <LatitudeDegrees>43.28034804202616214752197265625</LatitudeDegrees>
              <LongitudeDegrees>-8.17407564260065555572509765625</LongitudeDegrees>
            </Position>
            <AltitudeMeters>114.59999847412109375</AltitudeMeters>
            <DistanceMeters>65988.546740857</DistanceMeters>
          </Trackpoint>
          <Trackpoint>
            <Time>2018-04-21T12:44:49.000Z</Time>
            <Position>
              <LatitudeDegrees>43.28035508282482624053955078125</LatitudeDegrees>
              <LongitudeDegrees>-8.17407933063805103302001953125</LongitudeDegrees>
            </Position>
            <AltitudeMeters>114.59999847412109375</AltitudeMeters>
            <DistanceMeters>65989.391356769</DistanceMeters>
          </Trackpoint>
          <Trackpoint>
            <Time>2018-04-21T12:44:56.000Z</Time>
            <Position>
              <LatitudeDegrees>43.28039229847490787506103515625</LatitudeDegrees>
              <LongitudeDegrees>-8.17409458570182323455810546875</LongitudeDegrees>
            </Position>
            <AltitudeMeters>117.59999847412109375</AltitudeMeters>
            <DistanceMeters>65993.714811203</DistanceMeters>
          </Trackpoint>
          <Trackpoint>
            <Time>2018-04-21T12:44:57.000Z</Time>
            <Position>
              <LatitudeDegrees>43.28039531596004962921142578125</LatitudeDegrees>
              <LongitudeDegrees>-8.1740958429872989654541015625</LongitudeDegrees>
            </Position>
            <AltitudeMeters>117.1999969482421875</AltitudeMeters>
            <DistanceMeters>65994.07036861</DistanceMeters>
          </Trackpoint>
          <Trackpoint>
            <Time>2018-04-21T12:45:03.000Z</Time>
            <Position>
              <LatitudeDegrees>43.2805459387600421905517578125</LatitudeDegrees>
              <LongitudeDegrees>-8.17413532175123691558837890625</LongitudeDegrees>
            </Position>
            <AltitudeMeters>117</AltitudeMeters>
            <DistanceMeters>66011.137653278</DistanceMeters>
          </Trackpoint>
          <Trackpoint>
            <Time>2018-04-21T12:45:10.000Z</Time>
            <Position>
              <LatitudeDegrees>43.2807112298905849456787109375</LatitudeDegrees>
              <LongitudeDegrees>-8.17417387850582599639892578125</LongitudeDegrees>
            </Position>
            <AltitudeMeters>118.40000152587890625</AltitudeMeters>
            <DistanceMeters>66029.798248334</DistanceMeters>
          </Trackpoint>
          <Trackpoint>
            <Time>2018-04-21T12:45:11.000Z</Time>
            <Position>
              <LatitudeDegrees>43.2807293348014354705810546875</LatitudeDegrees>
              <LongitudeDegrees>-8.17418552935123443603515625</LongitudeDegrees>
            </Position>
            <AltitudeMeters>118.59999847412109375</AltitudeMeters>
            <DistanceMeters>66032.022766684</DistanceMeters>
          </Trackpoint>
          <Trackpoint>
            <Time>2018-04-21T12:45:16.000Z</Time>
            <Position>
              <LatitudeDegrees>43.28084391541779041290283203125</LatitudeDegrees>
              <LongitudeDegrees>-8.1742250919342041015625</LongitudeDegrees>
            </Position>
            <AltitudeMeters>119.59999847412109375</AltitudeMeters>
            <DistanceMeters>66045.172211682</DistanceMeters>
          </Trackpoint>
          <Trackpoint>
            <Time>2018-04-21T12:45:18.000Z</Time>
            <Position>
              <LatitudeDegrees>43.28088297508656978607177734375</LatitudeDegrees>
              <LongitudeDegrees>-8.17422844469547271728515625</LongitudeDegrees>
            </Position>
            <AltitudeMeters>119.8000030517578125</AltitudeMeters>
            <DistanceMeters>66049.527919501</DistanceMeters>
          </Trackpoint>
          <Trackpoint>
            <Time>2018-04-21T12:45:23.000Z</Time>
            <Position>
              <LatitudeDegrees>43.2809972204267978668212890625</LatitudeDegrees>
              <LongitudeDegrees>-8.1742505729198455810546875</LongitudeDegrees>
            </Position>
            <AltitudeMeters>120.59999847412109375</AltitudeMeters>
            <DistanceMeters>66062.369541518</DistanceMeters>
          </Trackpoint>
          <Trackpoint>
            <Time>2018-04-21T12:45:27.000Z</Time>
            <Position>
              <LatitudeDegrees>43.28111029230058193206787109375</LatitudeDegrees>
              <LongitudeDegrees>-8.17425526678562164306640625</LongitudeDegrees>
            </Position>
            <AltitudeMeters>120.8000030517578125</AltitudeMeters>
            <DistanceMeters>66074.960132925</DistanceMeters>
          </Trackpoint>
          <Trackpoint>
            <Time>2018-04-21T12:45:29.000Z</Time>
            <Position>
              <LatitudeDegrees>43.28117600642144680023193359375</LatitudeDegrees>
              <LongitudeDegrees>-8.17425685934722423553466796875</LongitudeDegrees>
            </Position>
            <AltitudeMeters>120.8000030517578125</AltitudeMeters>
            <DistanceMeters>66082.275338527</DistanceMeters>
          </Trackpoint>
          <Trackpoint>
            <Time>2018-04-21T12:45:36.000Z</Time>
            <Position>
              <LatitudeDegrees>43.2814337499439716339111328125</LatitudeDegrees>
              <LongitudeDegrees>-8.17426943220198154449462890625</LongitudeDegrees>
            </Position>
            <AltitudeMeters>121.1999969482421875</AltitudeMeters>
            <DistanceMeters>66110.980642489</DistanceMeters>
          </Trackpoint>
          <Trackpoint>
            <Time>2018-04-21T12:45:43.000Z</Time>
            <Position>
              <LatitudeDegrees>43.28169417567551136016845703125</LatitudeDegrees>
              <LongitudeDegrees>-8.17428066395223140716552734375</LongitudeDegrees>
            </Position>
            <AltitudeMeters>121.8000030517578125</AltitudeMeters>
            <DistanceMeters>66139.980765584</DistanceMeters>
          </Trackpoint>
          <Trackpoint>
            <Time>2018-04-21T12:45:44.000Z</Time>
            <Position>
              <LatitudeDegrees>43.28172837384045124053955078125</LatitudeDegrees>
              <LongitudeDegrees>-8.174279741942882537841796875</LongitudeDegrees>
            </Position>
            <AltitudeMeters>122</AltitudeMeters>
            <DistanceMeters>66143.787768696</DistanceMeters>
          </Trackpoint>
          <Trackpoint>
            <Time>2018-04-21T12:45:51.000Z</Time>
            <Position>
              <LatitudeDegrees>43.28192585147917270660400390625</LatitudeDegrees>
              <LongitudeDegrees>-8.174336738884449005126953125</LongitudeDegrees>
            </Position>
            <AltitudeMeters>122.8000030517578125</AltitudeMeters>
            <DistanceMeters>66166.247468834</DistanceMeters>
          </Trackpoint>
          <Trackpoint>
            <Time>2018-04-21T12:45:52.000Z</Time>
            <Position>
              <LatitudeDegrees>43.28194596804678440093994140625</LatitudeDegrees>
              <LongitudeDegrees>-8.17435073666274547576904296875</LongitudeDegrees>
            </Position>
            <AltitudeMeters>123</AltitudeMeters>
            <DistanceMeters>66168.758045134</DistanceMeters>
          </Trackpoint>
          <Trackpoint>
            <Time>2018-04-21T12:45:56.000Z</Time>
            <Position>
              <LatitudeDegrees>43.28202291391789913177490234375</LatitudeDegrees>
              <LongitudeDegrees>-8.174396418035030364990234375</LongitudeDegrees>
            </Position>
            <AltitudeMeters>124</AltitudeMeters>
            <DistanceMeters>66178.087616766</DistanceMeters>
          </Trackpoint>
          <Trackpoint>
            <Time>2018-04-21T12:45:58.000Z</Time>
            <Position>
              <LatitudeDegrees>43.28206314705312252044677734375</LatitudeDegrees>
              <LongitudeDegrees>-8.174426257610321044921875</LongitudeDegrees>
            </Position>
            <AltitudeMeters>124.1999969482421875</AltitudeMeters>
            <DistanceMeters>66183.177537131</DistanceMeters>
          </Trackpoint>
          <Trackpoint>
            <Time>2018-04-21T12:46:01.000Z</Time>
            <Position>
              <LatitudeDegrees>43.28211712650954723358154296875</LatitudeDegrees>
              <LongitudeDegrees>-8.174464814364910125732421875</LongitudeDegrees>
            </Position>
            <AltitudeMeters>125.1999969482421875</AltitudeMeters>
            <DistanceMeters>66189.949149065</DistanceMeters>
          </Trackpoint>
          <Trackpoint>
            <Time>2018-04-21T12:46:05.000Z</Time>
            <Position>
              <LatitudeDegrees>43.28217311762273311614990234375</LatitudeDegrees>
              <LongitudeDegrees>-8.17451837472617626190185546875</LongitudeDegrees>
            </Position>
            <AltitudeMeters>126</AltitudeMeters>
            <DistanceMeters>66197.542966825</DistanceMeters>
          </Trackpoint>
          <Trackpoint>
            <Time>2018-04-21T12:46:07.000Z</Time>
            <Position>
              <LatitudeDegrees>43.282193653285503387451171875</LatitudeDegrees>
              <LongitudeDegrees>-8.17454435862600803375244140625</LongitudeDegrees>
            </Position>
            <AltitudeMeters>126.40000152587890625</AltitudeMeters>
            <DistanceMeters>66200.648465439</DistanceMeters>
          </Trackpoint>
          <Trackpoint>
            <Time>2018-04-21T12:46:12.000Z</Time>
            <Position>
              <LatitudeDegrees>43.28225903213024139404296875</LatitudeDegrees>
              <LongitudeDegrees>-8.17462767474353313446044921875</LongitudeDegrees>
            </Position>
            <AltitudeMeters>127.59999847412109375</AltitudeMeters>
            <DistanceMeters>66210.574095595</DistanceMeters>
          </Trackpoint>
          <Trackpoint>
            <Time>2018-04-21T12:46:13.000Z</Time>
            <Position>
              <LatitudeDegrees>43.282276801764965057373046875</LatitudeDegrees>
              <LongitudeDegrees>-8.1746393255889415740966796875</LongitudeDegrees>
            </Position>
            <AltitudeMeters>127.8000030517578125</AltitudeMeters>
            <DistanceMeters>66212.765898659</DistanceMeters>
          </Trackpoint>
          <Trackpoint>
            <Time>2018-04-21T12:46:17.000Z</Time>
            <Position>
              <LatitudeDegrees>43.282370679080486297607421875</LatitudeDegrees>
              <LongitudeDegrees>-8.1747070513665676116943359375</LongitudeDegrees>
            </Position>
            <AltitudeMeters>128.399993896484375</AltitudeMeters>
            <DistanceMeters>66224.568354302</DistanceMeters>
          </Trackpoint>
          <Trackpoint>
            <Time>2018-04-21T12:46:18.000Z</Time>
            <Position>
              <LatitudeDegrees>43.28239238820970058441162109375</LatitudeDegrees>
              <LongitudeDegrees>-8.17472591064870357513427734375</LongitudeDegrees>
            </Position>
            <AltitudeMeters>128.399993896484375</AltitudeMeters>
            <DistanceMeters>66227.42864262</DistanceMeters>
          </Trackpoint>
          <Trackpoint>
            <Time>2018-04-21T12:46:19.000Z</Time>
            <Position>
              <LatitudeDegrees>43.28241703100502490997314453125</LatitudeDegrees>
              <LongitudeDegrees>-8.17474485374987125396728515625</LongitudeDegrees>
            </Position>
            <AltitudeMeters>128.600006103515625</AltitudeMeters>
            <DistanceMeters>66230.571714943</DistanceMeters>
          </Trackpoint>
          <Trackpoint>
            <Time>2018-04-21T12:46:25.000Z</Time>
            <Position>
              <LatitudeDegrees>43.28248643316328525543212890625</LatitudeDegrees>
              <LongitudeDegrees>-8.1748881004750728607177734375</LongitudeDegrees>
            </Position>
            <AltitudeMeters>129.600006103515625</AltitudeMeters>
            <DistanceMeters>66244.513788875</DistanceMeters>
          </Trackpoint>
          <Trackpoint>
            <Time>2018-04-21T12:46:31.000Z</Time>
            <Position>
              <LatitudeDegrees>43.2825337909162044525146484375</LatitudeDegrees>
              <LongitudeDegrees>-8.17501877434551715850830078125</LongitudeDegrees>
            </Position>
            <AltitudeMeters>130.8000030517578125</AltitudeMeters>
            <DistanceMeters>66256.34146592</DistanceMeters>
          </Trackpoint>
          <Trackpoint>
            <Time>2018-04-21T12:46:32.000Z</Time>
            <Position>
              <LatitudeDegrees>43.2825421728193759918212890625</LatitudeDegrees>
              <LongitudeDegrees>-8.1750406511127948760986328125</LongitudeDegrees>
            </Position>
            <AltitudeMeters>131</AltitudeMeters>
            <DistanceMeters>66258.346056656</DistanceMeters>
          </Trackpoint>
          <Trackpoint>
            <Time>2018-04-21T12:46:37.000Z</Time>
            <Position>
              <LatitudeDegrees>43.28258852474391460418701171875</LatitudeDegrees>
              <LongitudeDegrees>-8.17513746209442615509033203125</LongitudeDegrees>
            </Position>
            <AltitudeMeters>131.8000030517578125</AltitudeMeters>
            <DistanceMeters>66267.734484435</DistanceMeters>
          </Trackpoint>
          <Trackpoint>
            <Time>2018-04-21T12:46:39.000Z</Time>
            <Position>
              <LatitudeDegrees>43.28260780312120914459228515625</LatitudeDegrees>
              <LongitudeDegrees>-8.17517467774450778961181640625</LongitudeDegrees>
            </Position>
            <AltitudeMeters>132.1999969482421875</AltitudeMeters>
            <DistanceMeters>66271.434429825</DistanceMeters>
          </Trackpoint>
          <Trackpoint>
            <Time>2018-04-21T12:46:42.000Z</Time>
            <Position>
              <LatitudeDegrees>43.2826397381722927093505859375</LatitudeDegrees>
              <LongitudeDegrees>-8.17523385398089885711669921875</LongitudeDegrees>
            </Position>
            <AltitudeMeters>133</AltitudeMeters>
            <DistanceMeters>66277.402228539</DistanceMeters>
          </Trackpoint>
          <Trackpoint>
            <Time>2018-04-21T12:46:47.000Z</Time>
            <Position>
              <LatitudeDegrees>43.2826843298971652984619140625</LatitudeDegrees>
              <LongitudeDegrees>-8.1753206066787242889404296875</LongitudeDegrees>
            </Position>
            <AltitudeMeters>134</AltitudeMeters>
            <DistanceMeters>66286.00726351</DistanceMeters>
          </Trackpoint>
          <Trackpoint>
            <Time>2018-04-21T12:46:50.000Z</Time>
            <Position>
              <LatitudeDegrees>43.2827118225395679473876953125</LatitudeDegrees>
              <LongitudeDegrees>-8.17537316121160984039306640625</LongitudeDegrees>
            </Position>
            <AltitudeMeters>134.8000030517578125</AltitudeMeters>
            <DistanceMeters>66291.251842887</DistanceMeters>
          </Trackpoint>
          <Trackpoint>
            <Time>2018-04-21T12:46:51.000Z</Time>
            <Position>
              <LatitudeDegrees>43.28272439539432525634765625</LatitudeDegrees>
              <LongitudeDegrees>-8.1753873266279697418212890625</LongitudeDegrees>
            </Position>
            <AltitudeMeters>135.1999969482421875</AltitudeMeters>
            <DistanceMeters>66293.064837048</DistanceMeters>
          </Trackpoint>
          <Trackpoint>
            <Time>2018-04-21T12:46:56.000Z</Time>
            <Position>
              <LatitudeDegrees>43.28276672400534152984619140625</LatitudeDegrees>
              <LongitudeDegrees>-8.17546603269875049591064453125</LongitudeDegrees>
            </Position>
            <AltitudeMeters>136.1999969482421875</AltitudeMeters>
            <DistanceMeters>66300.994871875</DistanceMeters>
          </Trackpoint>
          <Trackpoint>
            <Time>2018-04-21T12:47:00.000Z</Time>
            <Position>
              <LatitudeDegrees>43.28279941342771053314208984375</LatitudeDegrees>
              <LongitudeDegrees>-8.17552152089774608612060546875</LongitudeDegrees>
            </Position>
            <AltitudeMeters>137.1999969482421875</AltitudeMeters>
            <DistanceMeters>66306.77980604</DistanceMeters>
          </Trackpoint>
          <Trackpoint>
            <Time>2018-04-21T12:47:04.000Z</Time>
            <Position>
              <LatitudeDegrees>43.28284584917128086090087890625</LatitudeDegrees>
              <LongitudeDegrees>-8.17558237351477146148681640625</LongitudeDegrees>
            </Position>
            <AltitudeMeters>138.1999969482421875</AltitudeMeters>
            <DistanceMeters>66313.923261925</DistanceMeters>
          </Trackpoint>
          <Trackpoint>
            <Time>2018-04-21T12:47:06.000Z</Time>
            <Position>
              <LatitudeDegrees>43.28287350945174694061279296875</LatitudeDegrees>
              <LongitudeDegrees>-8.1756077706813812255859375</LongitudeDegrees>
            </Position>
            <AltitudeMeters>138.399993896484375</AltitudeMeters>
            <DistanceMeters>66317.628085294</DistanceMeters>
          </Trackpoint>
          <Trackpoint>
            <Time>2018-04-21T12:47:09.000Z</Time>
            <Position>
              <LatitudeDegrees>43.282900415360927581787109375</LatitudeDegrees>
              <LongitudeDegrees>-8.17563585005700588226318359375</LongitudeDegrees>
            </Position>
            <AltitudeMeters>139.399993896484375</AltitudeMeters>
            <DistanceMeters>66321.388550653</DistanceMeters>
          </Trackpoint>
          <Trackpoint>
            <Time>2018-04-21T12:47:10.000Z</Time>
            <Position>
              <LatitudeDegrees>43.28291055746376514434814453125</LatitudeDegrees>
              <LongitudeDegrees>-8.175647668540477752685546875</LongitudeDegrees>
            </Position>
            <AltitudeMeters>139.600006103515625</AltitudeMeters>
            <DistanceMeters>66322.872915383</DistanceMeters>
          </Trackpoint>
          <Trackpoint>
            <Time>2018-04-21T12:47:14.000Z</Time>
            <Position>
              <LatitudeDegrees>43.2829512096941471099853515625</LatitudeDegrees>
              <LongitudeDegrees>-8.17569854669272899627685546875</LongitudeDegrees>
            </Position>
            <AltitudeMeters>140.8000030517578125</AltitudeMeters>
            <DistanceMeters>66328.993845636</DistanceMeters>
          </Trackpoint>
          <Trackpoint>
            <Time>2018-04-21T12:47:17.000Z</Time>
            <Position>
              <LatitudeDegrees>43.282997645437717437744140625</LatitudeDegrees>
              <LongitudeDegrees>-8.1757313199341297149658203125</LongitudeDegrees>
            </Position>
            <AltitudeMeters>141.399993896484375</AltitudeMeters>
            <DistanceMeters>66334.804478633</DistanceMeters>
          </Trackpoint>
          <Trackpoint>
            <Time>2018-04-21T12:47:20.000Z</Time>
            <Position>
              <LatitudeDegrees>43.283047936856746673583984375</LatitudeDegrees>
              <LongitudeDegrees>-8.1757752411067485809326171875</LongitudeDegrees>
            </Position>
            <AltitudeMeters>142</AltitudeMeters>
            <DistanceMeters>66341.437316068</DistanceMeters>
          </Trackpoint>
          <Trackpoint>
            <Time>2018-04-21T12:47:23.000Z</Time>
            <Position>
              <LatitudeDegrees>43.283094875514507293701171875</LatitudeDegrees>
              <LongitudeDegrees>-8.1758134625852108001708984375</LongitudeDegrees>
            </Position>
            <AltitudeMeters>142.600006103515625</AltitudeMeters>
            <DistanceMeters>66347.510110498</DistanceMeters>
          </Trackpoint>
          <Trackpoint>
            <Time>2018-04-21T12:47:25.000Z</Time>
            <Position>
              <LatitudeDegrees>43.28312404453754425048828125</LatitudeDegrees>
              <LongitudeDegrees>-8.17584187723696231842041015625</LongitudeDegrees>
            </Position>
            <AltitudeMeters>143</AltitudeMeters>
            <DistanceMeters>66351.48990372</DistanceMeters>
          </Trackpoint>
          <Trackpoint>
            <Time>2018-04-21T12:47:29.000Z</Time>
            <Position>
              <LatitudeDegrees>43.28317768871784210205078125</LatitudeDegrees>
              <LongitudeDegrees>-8.17589635960757732391357421875</LongitudeDegrees>
            </Position>
            <AltitudeMeters>144</AltitudeMeters>
            <DistanceMeters>66358.915376551</DistanceMeters>
          </Trackpoint>
          <Trackpoint>
            <Time>2018-04-21T12:47:30.000Z</Time>
            <Position>
              <LatitudeDegrees>43.2831899262964725494384765625</LatitudeDegrees>
              <LongitudeDegrees>-8.17590759135782718658447265625</LongitudeDegrees>
            </Position>
            <AltitudeMeters>144</AltitudeMeters>
            <DistanceMeters>66360.553037292</DistanceMeters>
          </Trackpoint>
          <Trackpoint>
            <Time>2018-04-21T12:47:33.000Z</Time>
            <Position>
              <LatitudeDegrees>43.2832291536033153533935546875</LatitudeDegrees>
              <LongitudeDegrees>-8.17593676038086414337158203125</LongitudeDegrees>
            </Position>
            <AltitudeMeters>144.600006103515625</AltitudeMeters>
            <DistanceMeters>66365.516307236</DistanceMeters>
          </Trackpoint>
          <Trackpoint>
            <Time>2018-04-21T12:47:36.000Z</Time>
            <Position>
              <LatitudeDegrees>43.2832703925669193267822265625</LatitudeDegrees>
              <LongitudeDegrees>-8.17597028799355030059814453125</LongitudeDegrees>
            </Position>
            <AltitudeMeters>145.1999969482421875</AltitudeMeters>
            <DistanceMeters>66370.849668353</DistanceMeters>
          </Trackpoint>
          <Trackpoint>
            <Time>2018-04-21T12:47:43.000Z</Time>
            <Position>
              <LatitudeDegrees>43.28335278667509555816650390625</LatitudeDegrees>
              <LongitudeDegrees>-8.1760840304195880889892578125</LongitudeDegrees>
            </Position>
            <AltitudeMeters>146.1999969482421875</AltitudeMeters>
            <DistanceMeters>66383.850628736</DistanceMeters>
          </Trackpoint>
          <Trackpoint>
            <Time>2018-04-21T12:47:44.000Z</Time>
            <Position>
              <LatitudeDegrees>43.2833634316921234130859375</LatitudeDegrees>
              <LongitudeDegrees>-8.1761081703007221221923828125</LongitudeDegrees>
            </Position>
            <AltitudeMeters>146.399993896484375</AltitudeMeters>
            <DistanceMeters>66386.135225896</DistanceMeters>
          </Trackpoint>
          <Trackpoint>
            <Time>2018-04-21T12:47:50.000Z</Time>
            <Position>
              <LatitudeDegrees>43.28344414941966533660888671875</LatitudeDegrees>
              <LongitudeDegrees>-8.1761909835040569305419921875</LongitudeDegrees>
            </Position>
            <AltitudeMeters>147.1999969482421875</AltitudeMeters>
            <DistanceMeters>66397.348378192</DistanceMeters>
          </Trackpoint>
          <Trackpoint>
            <Time>2018-04-21T12:47:51.000Z</Time>
            <Position>
              <LatitudeDegrees>43.28345923684537410736083984375</LatitudeDegrees>
              <LongitudeDegrees>-8.176207579672336578369140625</LongitudeDegrees>
            </Position>
            <AltitudeMeters>147.1999969482421875</AltitudeMeters>
            <DistanceMeters>66399.498587284</DistanceMeters>
          </Trackpoint>
          <Trackpoint>
            <Time>2018-04-21T12:47:57.000Z</Time>
            <Position>
              <LatitudeDegrees>43.28355680219829082489013671875</LatitudeDegrees>
              <LongitudeDegrees>-8.1763291172683238983154296875</LongitudeDegrees>
            </Position>
            <AltitudeMeters>148</AltitudeMeters>
            <DistanceMeters>66414.157978786</DistanceMeters>
          </Trackpoint>
          <Trackpoint>
            <Time>2018-04-21T12:48:01.000Z</Time>
            <Position>
              <LatitudeDegrees>43.2836298085749149322509765625</LatitudeDegrees>
              <LongitudeDegrees>-8.17641855217516422271728515625</LongitudeDegrees>
            </Position>
            <AltitudeMeters>149</AltitudeMeters>
            <DistanceMeters>66425.045486006</DistanceMeters>
          </Trackpoint>
          <Trackpoint>
            <Time>2018-04-21T12:48:04.000Z</Time>
            <Position>
              <LatitudeDegrees>43.2836884818971157073974609375</LatitudeDegrees>
              <LongitudeDegrees>-8.1764826737344264984130859375</LongitudeDegrees>
            </Position>
            <AltitudeMeters>148.1999969482421875</AltitudeMeters>
            <DistanceMeters>66433.390541401</DistanceMeters>
          </Trackpoint>
          <Trackpoint>
            <Time>2018-04-21T12:48:10.000Z</Time>
            <Position>
              <LatitudeDegrees>43.283829800784587860107421875</LatitudeDegrees>
              <LongitudeDegrees>-8.17660731263458728790283203125</LongitudeDegrees>
            </Position>
            <AltitudeMeters>148.8000030517578125</AltitudeMeters>
            <DistanceMeters>66452.082564239</DistanceMeters>
          </Trackpoint>
          <Trackpoint>
            <Time>2018-04-21T12:48:17.000Z</Time>
            <Position>
              <LatitudeDegrees>43.28402149491012096405029296875</LatitudeDegrees>
              <LongitudeDegrees>-8.1766898743808269500732421875</LongitudeDegrees>
            </Position>
            <AltitudeMeters>149.399993896484375</AltitudeMeters>
            <DistanceMeters>66474.442533882</DistanceMeters>
          </Trackpoint>
          <Trackpoint>
            <Time>2018-04-21T12:48:22.000Z</Time>
            <Position>
              <LatitudeDegrees>43.28416231088340282440185546875</LatitudeDegrees>
              <LongitudeDegrees>-8.17674712277948856353759765625</LongitudeDegrees>
            </Position>
            <AltitudeMeters>149.8000030517578125</AltitudeMeters>
            <DistanceMeters>66490.787404992</DistanceMeters>
          </Trackpoint>
          <Trackpoint>
            <Time>2018-04-21T12:48:25.000Z</Time>
            <Position>
              <LatitudeDegrees>43.28424914740025997161865234375</LatitudeDegrees>
              <LongitudeDegrees>-8.1767850928008556365966796875</LongitudeDegrees>
            </Position>
            <AltitudeMeters>150</AltitudeMeters>
            <DistanceMeters>66500.929920994</DistanceMeters>
          </Trackpoint>
          <Trackpoint>
            <Time>2018-04-21T12:48:26.000Z</Time>
            <Position>
              <LatitudeDegrees>43.2842799089848995208740234375</LatitudeDegrees>
              <LongitudeDegrees>-8.176803030073642730712890625</LongitudeDegrees>
            </Position>
            <AltitudeMeters>150.1999969482421875</AltitudeMeters>
            <DistanceMeters>66504.650553627</DistanceMeters>
          </Trackpoint>
          <Trackpoint>
            <Time>2018-04-21T12:48:31.000Z</Time>
            <Position>
              <LatitudeDegrees>43.28444100916385650634765625</LatitudeDegrees>
              <LongitudeDegrees>-8.17687234841287136077880859375</LongitudeDegrees>
            </Position>
            <AltitudeMeters>150.399993896484375</AltitudeMeters>
            <DistanceMeters>66523.439908822</DistanceMeters>
          </Trackpoint>
          <Trackpoint>
            <Time>2018-04-21T12:48:32.000Z</Time>
            <Position>
              <LatitudeDegrees>43.284475542604923248291015625</LatitudeDegrees>
              <LongitudeDegrees>-8.17687771283090114593505859375</LongitudeDegrees>
            </Position>
            <AltitudeMeters>150.399993896484375</AltitudeMeters>
            <DistanceMeters>66527.306924027</DistanceMeters>
          </Trackpoint>
          <Trackpoint>
            <Time>2018-04-21T12:48:37.000Z</Time>
            <Position>
              <LatitudeDegrees>43.2846584357321262359619140625</LatitudeDegrees>
              <LongitudeDegrees>-8.1768360547721385955810546875</LongitudeDegrees>
            </Position>
            <AltitudeMeters>150.399993896484375</AltitudeMeters>
            <DistanceMeters>66547.941291824</DistanceMeters>
          </Trackpoint>
          <Trackpoint>
            <Time>2018-04-21T12:48:43.000Z</Time>
            <Position>
              <LatitudeDegrees>43.2848626188933849334716796875</LatitudeDegrees>
              <LongitudeDegrees>-8.17671594209969043731689453125</LongitudeDegrees>
            </Position>
            <AltitudeMeters>150.600006103515625</AltitudeMeters>
            <DistanceMeters>66572.663218001</DistanceMeters>
          </Trackpoint>
          <Trackpoint>
            <Time>2018-04-21T12:48:50.000Z</Time>
            <Position>
              <LatitudeDegrees>43.285116255283355712890625</LatitudeDegrees>
              <LongitudeDegrees>-8.17657965235412120819091796875</LongitudeDegrees>
            </Position>
            <AltitudeMeters>151.399993896484375</AltitudeMeters>
            <DistanceMeters>66602.975995152</DistanceMeters>
          </Trackpoint>
          <Trackpoint>
            <Time>2018-04-21T12:48:51.000Z</Time>
            <Position>
              <LatitudeDegrees>43.2851512916386127471923828125</LatitudeDegrees>
              <LongitudeDegrees>-8.17655785940587520599365234375</LongitudeDegrees>
            </Position>
            <AltitudeMeters>151.399993896484375</AltitudeMeters>
            <DistanceMeters>66607.257473306</DistanceMeters>
          </Trackpoint>
          <Trackpoint>
            <Time>2018-04-21T12:48:56.000Z</Time>
            <Position>
              <LatitudeDegrees>43.2853427343070507049560546875</LatitudeDegrees>
              <LongitudeDegrees>-8.1764568574726581573486328125</LongitudeDegrees>
            </Position>
            <AltitudeMeters>151.600006103515625</AltitudeMeters>
            <DistanceMeters>66630.082882186</DistanceMeters>
          </Trackpoint>
          <Trackpoint>
            <Time>2018-04-21T12:48:59.000Z</Time>
            <Position>
              <LatitudeDegrees>43.285461254417896270751953125</LatitudeDegrees>
              <LongitudeDegrees>-8.17638653330504894256591796875</LongitudeDegrees>
            </Position>
            <AltitudeMeters>151.600006103515625</AltitudeMeters>
            <DistanceMeters>66644.452354269</DistanceMeters>
          </Trackpoint>
          <Trackpoint>
            <Time>2018-04-21T12:49:05.000Z</Time>
            <Position>
              <LatitudeDegrees>43.2856706343591213226318359375</LatitudeDegrees>
              <LongitudeDegrees>-8.17634202539920806884765625</LongitudeDegrees>
            </Position>
            <AltitudeMeters>151.600006103515625</AltitudeMeters>
            <DistanceMeters>66668.034109879</DistanceMeters>
          </Trackpoint>
          <Trackpoint>
            <Time>2018-04-21T12:49:07.000Z</Time>
            <Position>
              <LatitudeDegrees>43.28571329824626445770263671875</LatitudeDegrees>
              <LongitudeDegrees>-8.17639030516147613525390625</LongitudeDegrees>
            </Position>
            <AltitudeMeters>151.600006103515625</AltitudeMeters>
            <DistanceMeters>66674.18667686</DistanceMeters>
          </Trackpoint>
          <Trackpoint>
            <Time>2018-04-21T12:49:10.000Z</Time>
            <Position>
              <LatitudeDegrees>43.28577113337814807891845703125</LatitudeDegrees>
              <LongitudeDegrees>-8.17648694850504398345947265625</LongitudeDegrees>
            </Position>
            <AltitudeMeters>151.8000030517578125</AltitudeMeters>
            <DistanceMeters>66684.322958712</DistanceMeters>
          </Trackpoint>
          <Trackpoint>
            <Time>2018-04-21T12:49:16.000Z</Time>
            <Position>
              <LatitudeDegrees>43.2858661003410816192626953125</LatitudeDegrees>
              <LongitudeDegrees>-8.176790960133075714111328125</LongitudeDegrees>
            </Position>
            <AltitudeMeters>152.1999969482421875</AltitudeMeters>
            <DistanceMeters>66711.126557013</DistanceMeters>
          </Trackpoint>
          <Trackpoint>
            <Time>2018-04-21T12:49:20.000Z</Time>
            <Position>
              <LatitudeDegrees>43.28594145365059375762939453125</LatitudeDegrees>
              <LongitudeDegrees>-8.1770117394626140594482421875</LongitudeDegrees>
            </Position>
            <AltitudeMeters>152.1999969482421875</AltitudeMeters>
            <DistanceMeters>66730.882974305</DistanceMeters>
          </Trackpoint>
          <Trackpoint>
            <Time>2018-04-21T12:49:22.000Z</Time>
            <Position>
              <LatitudeDegrees>43.28598235733807086944580078125</LatitudeDegrees>
              <LongitudeDegrees>-8.17712229676544666290283203125</LongitudeDegrees>
            </Position>
            <AltitudeMeters>152.399993896484375</AltitudeMeters>
            <DistanceMeters>66740.930673277</DistanceMeters>
          </Trackpoint>
          <Trackpoint>
            <Time>2018-04-21T12:49:23.000Z</Time>
            <Position>
              <LatitudeDegrees>43.2859998755156993865966796875</LatitudeDegrees>
              <LongitudeDegrees>-8.17717753350734710693359375</LongitudeDegrees>
            </Position>
            <AltitudeMeters>152.1999969482421875</AltitudeMeters>
            <DistanceMeters>66745.811384461</DistanceMeters>
          </Trackpoint>
          <Trackpoint>
            <Time>2018-04-21T12:49:24.000Z</Time>
            <Position>
              <LatitudeDegrees>43.2860250212252140045166015625</LatitudeDegrees>
              <LongitudeDegrees>-8.17721617408096790313720703125</LongitudeDegrees>
            </Position>
            <AltitudeMeters>152.1999969482421875</AltitudeMeters>
            <DistanceMeters>66750.009801927</DistanceMeters>
          </Trackpoint>
          <Trackpoint>
            <Time>2018-04-21T12:49:26.000Z</Time>
            <Position>
              <LatitudeDegrees>43.2860992848873138427734375</LatitudeDegrees>
              <LongitudeDegrees>-8.177181221544742584228515625</LongitudeDegrees>
            </Position>
            <AltitudeMeters>151.399993896484375</AltitudeMeters>
            <DistanceMeters>66758.747093628</DistanceMeters>
          </Trackpoint>
          <Trackpoint>
            <Time>2018-04-21T12:49:27.000Z</Time>
            <Position>
              <LatitudeDegrees>43.286131136119365692138671875</LatitudeDegrees>
              <LongitudeDegrees>-8.1771341152489185333251953125</LongitudeDegrees>
            </Position>
            <AltitudeMeters>150.600006103515625</AltitudeMeters>
            <DistanceMeters>66763.956256681</DistanceMeters>
          </Trackpoint>
          <Trackpoint>
            <Time>2018-04-21T12:49:29.000Z</Time>
            <Position>
              <LatitudeDegrees>43.286192156374454498291015625</LatitudeDegrees>
              <LongitudeDegrees>-8.1770145893096923828125</LongitudeDegrees>
            </Position>
            <AltitudeMeters>149.600006103515625</AltitudeMeters>
            <DistanceMeters>66775.783933725</DistanceMeters>
          </Trackpoint>
          <Trackpoint>
            <Time>2018-04-21T12:49:30.000Z</Time>
            <Position>
              <LatitudeDegrees>43.28622962348163127899169921875</LatitudeDegrees>
              <LongitudeDegrees>-8.17695532925426959991455078125</LongitudeDegrees>
            </Position>
            <AltitudeMeters>149.600006103515625</AltitudeMeters>
            <DistanceMeters>66782.142918103</DistanceMeters>
          </Trackpoint>
          <Trackpoint>
            <Time>2018-04-21T12:49:31.000Z</Time>
            <Position>
              <LatitudeDegrees>43.28627086244523525238037109375</LatitudeDegrees>
              <LongitudeDegrees>-8.1768970750272274017333984375</LongitudeDegrees>
            </Position>
            <AltitudeMeters>148</AltitudeMeters>
            <DistanceMeters>66788.726561997</DistanceMeters>
          </Trackpoint>
          <Trackpoint>
            <Time>2018-04-21T12:49:34.000Z</Time>
            <Position>
              <LatitudeDegrees>43.286408074200153350830078125</LatitudeDegrees>
              <LongitudeDegrees>-8.17671208642423152923583984375</LongitudeDegrees>
            </Position>
            <AltitudeMeters>149.399993896484375</AltitudeMeters>
            <DistanceMeters>66810.124670703</DistanceMeters>
          </Trackpoint>
          <Trackpoint>
            <Time>2018-04-21T12:49:36.000Z</Time>
            <Position>
              <LatitudeDegrees>43.28650237061083316802978515625</LatitudeDegrees>
              <LongitudeDegrees>-8.17659457214176654815673828125</LongitudeDegrees>
            </Position>
            <AltitudeMeters>148.1999969482421875</AltitudeMeters>
            <DistanceMeters>66824.295444851</DistanceMeters>
          </Trackpoint>
          <Trackpoint>
            <Time>2018-04-21T12:49:42.000Z</Time>
            <Position>
              <LatitudeDegrees>43.2867881096899509429931640625</LatitudeDegrees>
              <LongitudeDegrees>-8.1762298755347728729248046875</LongitudeDegrees>
            </Position>
            <AltitudeMeters>148.1999969482421875</AltitudeMeters>
            <DistanceMeters>66867.706535294</DistanceMeters>
          </Trackpoint>
          <Trackpoint>
            <Time>2018-04-21T12:49:46.000Z</Time>
            <Position>
              <LatitudeDegrees>43.286976031959056854248046875</LatitudeDegrees>
              <LongitudeDegrees>-8.17599107511341571807861328125</LongitudeDegrees>
            </Position>
            <AltitudeMeters>148</AltitudeMeters>
            <DistanceMeters>66896.199024347</DistanceMeters>
          </Trackpoint>
          <Trackpoint>
            <Time>2018-04-21T12:49:50.000Z</Time>
            <Position>
              <LatitudeDegrees>43.2871398143470287322998046875</LatitudeDegrees>
              <LongitudeDegrees>-8.1757909990847110748291015625</LongitudeDegrees>
            </Position>
            <AltitudeMeters>148</AltitudeMeters>
            <DistanceMeters>66920.592957558</DistanceMeters>
          </Trackpoint>
          <Trackpoint>
            <Time>2018-04-21T12:49:56.000Z</Time>
            <Position>
              <LatitudeDegrees>43.28737660311162471771240234375</LatitudeDegrees>
              <LongitudeDegrees>-8.17558572627604007720947265625</LongitudeDegrees>
            </Position>
            <AltitudeMeters>148.399993896484375</AltitudeMeters>
            <DistanceMeters>66951.756939198</DistanceMeters>
          </Trackpoint>
          <Trackpoint>
            <Time>2018-04-21T12:49:59.000Z</Time>
            <Position>
              <LatitudeDegrees>43.28750568442046642303466796875</LatitudeDegrees>
              <LongitudeDegrees>-8.1755308248102664947509765625</LongitudeDegrees>
            </Position>
            <AltitudeMeters>148.8000030517578125</AltitudeMeters>
            <DistanceMeters>66966.79669933</DistanceMeters>
          </Trackpoint>
          <Trackpoint>
            <Time>2018-04-21T12:50:01.000Z</Time>
            <Position>
              <LatitudeDegrees>43.287594281136989593505859375</LatitudeDegrees>
              <LongitudeDegrees>-8.1755251251161098480224609375</LongitudeDegrees>
            </Position>
            <AltitudeMeters>148.8000030517578125</AltitudeMeters>
            <DistanceMeters>66976.668506915</DistanceMeters>
          </Trackpoint>
          <Trackpoint>
            <Time>2018-04-21T12:50:03.000Z</Time>
            <Position>
              <LatitudeDegrees>43.28767751343548297882080078125</LatitudeDegrees>
              <LongitudeDegrees>-8.17552923224866390228271484375</LongitudeDegrees>
            </Position>
            <AltitudeMeters>149.399993896484375</AltitudeMeters>
            <DistanceMeters>66985.938848738</DistanceMeters>
          </Trackpoint>
          <Trackpoint>
            <Time>2018-04-21T12:50:08.000Z</Time>
            <Position>
              <LatitudeDegrees>43.28789209015667438507080078125</LatitudeDegrees>
              <LongitudeDegrees>-8.17552805878221988677978515625</LongitudeDegrees>
            </Position>
            <AltitudeMeters>149.1999969482421875</AltitudeMeters>
            <DistanceMeters>67009.821767501</DistanceMeters>
          </Trackpoint>
          <Trackpoint>
            <Time>2018-04-21T12:50:13.000Z</Time>
            <Position>
              <LatitudeDegrees>43.28810884617269039154052734375</LatitudeDegrees>
              <LongitudeDegrees>-8.1755187548696994781494140625</LongitudeDegrees>
            </Position>
            <AltitudeMeters>149</AltitudeMeters>
            <DistanceMeters>67033.958927069</DistanceMeters>
          </Trackpoint>
          <Trackpoint>
            <Time>2018-04-21T12:50:15.000Z</Time>
            <Position>
              <LatitudeDegrees>43.28819232992827892303466796875</LatitudeDegrees>
              <LongitudeDegrees>-8.17550810985267162322998046875</LongitudeDegrees>
            </Position>
            <AltitudeMeters>149.1999969482421875</AltitudeMeters>
            <DistanceMeters>67043.290918133</DistanceMeters>
          </Trackpoint>
          <Trackpoint>
            <Time>2018-04-21T12:50:19.000Z</Time>
            <Position>
              <LatitudeDegrees>43.2883585430681705474853515625</LatitudeDegrees>
              <LongitudeDegrees>-8.17550458945333957672119140625</LongitudeDegrees>
            </Position>
            <AltitudeMeters>149.399993896484375</AltitudeMeters>
            <DistanceMeters>67061.792841491</DistanceMeters>
          </Trackpoint>
          <Trackpoint>
            <Time>2018-04-21T12:50:22.000Z</Time>
            <Position>
              <LatitudeDegrees>43.28846055082976818084716796875</LatitudeDegrees>
              <LongitudeDegrees>-8.17552017979323863983154296875</LongitudeDegrees>
            </Position>
            <AltitudeMeters>149.8000030517578125</AltitudeMeters>
            <DistanceMeters>67073.216222544</DistanceMeters>
          </Trackpoint>
          <Trackpoint>
            <Time>2018-04-21T12:50:25.000Z</Time>
            <Position>
              <LatitudeDegrees>43.2885392569005489349365234375</LatitudeDegrees>
              <LongitudeDegrees>-8.175512887537479400634765625</LongitudeDegrees>
            </Position>
            <AltitudeMeters>150.399993896484375</AltitudeMeters>
            <DistanceMeters>67081.996814362</DistanceMeters>
          </Trackpoint>
          <Trackpoint>
            <Time>2018-04-21T12:50:27.000Z</Time>
            <Position>
              <LatitudeDegrees>43.288581669330596923828125</LatitudeDegrees>
              <LongitudeDegrees>-8.1755190901458263397216796875</LongitudeDegrees>
            </Position>
            <AltitudeMeters>150.8000030517578125</AltitudeMeters>
            <DistanceMeters>67086.744347491</DistanceMeters>
          </Trackpoint>
          <Trackpoint>
            <Time>2018-04-21T12:50:29.000Z</Time>
            <Position>
              <LatitudeDegrees>43.28863657079637050628662109375</LatitudeDegrees>
              <LongitudeDegrees>-8.1755214370787143707275390625</LongitudeDegrees>
            </Position>
            <AltitudeMeters>151.1999969482421875</AltitudeMeters>
            <DistanceMeters>67092.858635387</DistanceMeters>
          </Trackpoint>
          <Trackpoint>
            <Time>2018-04-21T12:50:30.000Z</Time>
            <Position>
              <LatitudeDegrees>43.28866858966648578643798828125</LatitudeDegrees>
              <LongitudeDegrees>-8.1755227781832218170166015625</LongitudeDegrees>
            </Position>
            <AltitudeMeters>151.399993896484375</AltitudeMeters>
            <DistanceMeters>67096.424353776</DistanceMeters>
          </Trackpoint>
          <Trackpoint>
            <Time>2018-04-21T12:50:32.000Z</Time>
            <Position>
              <LatitudeDegrees>43.28872508369386196136474609375</LatitudeDegrees>
              <LongitudeDegrees>-8.175525628030300140380859375</LongitudeDegrees>
            </Position>
            <AltitudeMeters>151.399993896484375</AltitudeMeters>
            <DistanceMeters>67102.716241818</DistanceMeters>
          </Trackpoint>
          <Trackpoint>
            <Time>2018-04-21T12:50:35.000Z</Time>
            <Position>
              <LatitudeDegrees>43.28881527297198772430419921875</LatitudeDegrees>
              <LongitudeDegrees>-8.175517581403255462646484375</LongitudeDegrees>
            </Position>
            <AltitudeMeters>151.600006103515625</AltitudeMeters>
            <DistanceMeters>67112.775617377</DistanceMeters>
          </Trackpoint>
          <Trackpoint>
            <Time>2018-04-21T12:50:38.000Z</Time>
            <Position>
              <LatitudeDegrees>43.28888920135796070098876953125</LatitudeDegrees>
              <LongitudeDegrees>-8.175528980791568756103515625</LongitudeDegrees>
            </Position>
            <AltitudeMeters>151.8000030517578125</AltitudeMeters>
            <DistanceMeters>67121.055493002</DistanceMeters>
          </Trackpoint>
          <Trackpoint>
            <Time>2018-04-21T12:50:44.000Z</Time>
            <Position>
              <LatitudeDegrees>43.289062790572643280029296875</LatitudeDegrees>
              <LongitudeDegrees>-8.175558485090732574462890625</LongitudeDegrees>
            </Position>
            <AltitudeMeters>152</AltitudeMeters>
            <DistanceMeters>67140.523681631</DistanceMeters>
          </Trackpoint>
          <Trackpoint>
            <Time>2018-04-21T12:50:48.000Z</Time>
            <Position>
              <LatitudeDegrees>43.28912070952355861663818359375</LatitudeDegrees>
              <LongitudeDegrees>-8.17559771239757537841796875</LongitudeDegrees>
            </Position>
            <AltitudeMeters>152</AltitudeMeters>
            <DistanceMeters>67147.710616809</DistanceMeters>
          </Trackpoint>
          <Trackpoint>
            <Time>2018-04-21T12:50:54.000Z</Time>
            <Position>
              <LatitudeDegrees>43.28923721797764301300048828125</LatitudeDegrees>
              <LongitudeDegrees>-8.17567625083029270172119140625</LongitudeDegrees>
            </Position>
            <AltitudeMeters>151.8000030517578125</AltitudeMeters>
            <DistanceMeters>67162.155615127</DistanceMeters>
          </Trackpoint>
          <Trackpoint>
            <Time>2018-04-21T12:50:59.000Z</Time>
            <Position>
              <LatitudeDegrees>43.28932304866611957550048828125</LatitudeDegrees>
              <LongitudeDegrees>-8.17565462552011013031005859375</LongitudeDegrees>
            </Position>
            <AltitudeMeters>151.600006103515625</AltitudeMeters>
            <DistanceMeters>67171.86834948</DistanceMeters>
          </Trackpoint>
          <Trackpoint>
            <Time>2018-04-21T12:51:01.000Z</Time>
            <Position>
              <LatitudeDegrees>43.289343751966953277587890625</LatitudeDegrees>
              <LongitudeDegrees>-8.17561355419456958770751953125</LongitudeDegrees>
            </Position>
            <AltitudeMeters>152</AltitudeMeters>
            <DistanceMeters>67175.915639767</DistanceMeters>
          </Trackpoint>
          <Trackpoint>
            <Time>2018-04-21T12:51:04.000Z</Time>
            <Position>
              <LatitudeDegrees>43.28937803395092487335205078125</LatitudeDegrees>
              <LongitudeDegrees>-8.1755734048783779144287109375</LongitudeDegrees>
            </Position>
            <AltitudeMeters>152.600006103515625</AltitudeMeters>
            <DistanceMeters>67180.928693003</DistanceMeters>
          </Trackpoint>
          <Trackpoint>
            <Time>2018-04-21T12:51:08.000Z</Time>
            <Position>
              <LatitudeDegrees>43.2894210331141948699951171875</LatitudeDegrees>
              <LongitudeDegrees>-8.175543732941150665283203125</LongitudeDegrees>
            </Position>
            <AltitudeMeters>152.600006103515625</AltitudeMeters>
            <DistanceMeters>67186.284019583</DistanceMeters>
          </Trackpoint>
          <Trackpoint>
            <Time>2018-04-21T12:51:10.000Z</Time>
            <Position>
              <LatitudeDegrees>43.28946151770651340484619140625</LatitudeDegrees>
              <LongitudeDegrees>-8.17553761415183544158935546875</LongitudeDegrees>
            </Position>
            <AltitudeMeters>152.399993896484375</AltitudeMeters>
            <DistanceMeters>67190.816504984</DistanceMeters>
          </Trackpoint>
          <Trackpoint>
            <Time>2018-04-21T12:51:15.000Z</Time>
            <Position>
              <LatitudeDegrees>43.2896791957318782806396484375</LatitudeDegrees>
              <LongitudeDegrees>-8.17551883868873119354248046875</LongitudeDegrees>
            </Position>
            <AltitudeMeters>151.8000030517578125</AltitudeMeters>
            <DistanceMeters>67215.092250468</DistanceMeters>
          </Trackpoint>
          <Trackpoint>
            <Time>2018-04-21T12:51:18.000Z</Time>
            <Position>
              <LatitudeDegrees>43.28979997895658016204833984375</LatitudeDegrees>
              <LongitudeDegrees>-8.1754996441304683685302734375</LongitudeDegrees>
            </Position>
            <AltitudeMeters>151.399993896484375</AltitudeMeters>
            <DistanceMeters>67228.625469244</DistanceMeters>
          </Trackpoint>
          <Trackpoint>
            <Time>2018-04-21T12:51:21.000Z</Time>
            <Position>
              <LatitudeDegrees>43.2899078540503978729248046875</LatitudeDegrees>
              <LongitudeDegrees>-8.17548497579991817474365234375</LongitudeDegrees>
            </Position>
            <AltitudeMeters>151.8000030517578125</AltitudeMeters>
            <DistanceMeters>67240.690494411</DistanceMeters>
          </Trackpoint>
          <Trackpoint>
            <Time>2018-04-21T12:51:26.000Z</Time>
            <Position>
              <LatitudeDegrees>43.29005344770848751068115234375</LatitudeDegrees>
              <LongitudeDegrees>-8.17547676153481006622314453125</LongitudeDegrees>
            </Position>
            <AltitudeMeters>152.399993896484375</AltitudeMeters>
            <DistanceMeters>67256.908912852</DistanceMeters>
          </Trackpoint>
          <Trackpoint>
            <Time>2018-04-21T12:51:27.000Z</Time>
            <Position>
              <LatitudeDegrees>43.29008999280631542205810546875</LatitudeDegrees>
              <LongitudeDegrees>-8.17547910846769809722900390625</LongitudeDegrees>
            </Position>
            <AltitudeMeters>152.600006103515625</AltitudeMeters>
            <DistanceMeters>67260.980671729</DistanceMeters>
          </Trackpoint>
          <Trackpoint>
            <Time>2018-04-21T12:51:34.000Z</Time>
            <Position>
              <LatitudeDegrees>43.290373049676418304443359375</LatitudeDegrees>
              <LongitudeDegrees>-8.1754594109952449798583984375</LongitudeDegrees>
            </Position>
            <AltitudeMeters>153</AltitudeMeters>
            <DistanceMeters>67292.525819755</DistanceMeters>
          </Trackpoint>
          <Trackpoint>
            <Time>2018-04-21T12:51:40.000Z</Time>
            <Position>
              <LatitudeDegrees>43.2905710302293300628662109375</LatitudeDegrees>
              <LongitudeDegrees>-8.1754235364496707916259765625</LongitudeDegrees>
            </Position>
            <AltitudeMeters>152.8000030517578125</AltitudeMeters>
            <DistanceMeters>67314.752322451</DistanceMeters>
          </Trackpoint>
          <Trackpoint>
            <Time>2018-04-21T12:51:47.000Z</Time>
            <Position>
              <LatitudeDegrees>43.290838412940502166748046875</LatitudeDegrees>
              <LongitudeDegrees>-8.175406269729137420654296875</LongitudeDegrees>
            </Position>
            <AltitudeMeters>152.399993896484375</AltitudeMeters>
            <DistanceMeters>67344.545584345</DistanceMeters>
          </Trackpoint>
          <Trackpoint>
            <Time>2018-04-21T12:51:54.000Z</Time>
            <Position>
              <LatitudeDegrees>43.29119003377854824066162109375</LatitudeDegrees>
              <LongitudeDegrees>-8.1753725744783878326416015625</LongitudeDegrees>
            </Position>
            <AltitudeMeters>152</AltitudeMeters>
            <DistanceMeters>67383.776773839</DistanceMeters>
          </Trackpoint>
          <Trackpoint>
            <Time>2018-04-21T12:51:59.000Z</Time>
            <Position>
              <LatitudeDegrees>43.29139824025332927703857421875</LatitudeDegrees>
              <LongitudeDegrees>-8.17534030415117740631103515625</LongitudeDegrees>
            </Position>
            <AltitudeMeters>151.1999969482421875</AltitudeMeters>
            <DistanceMeters>67407.097460235</DistanceMeters>
          </Trackpoint>
          <Trackpoint>
            <Time>2018-04-21T12:52:00.000Z</Time>
            <Position>
              <LatitudeDegrees>43.2914249785244464874267578125</LatitudeDegrees>
              <LongitudeDegrees>-8.17535069771111011505126953125</LongitudeDegrees>
            </Position>
            <AltitudeMeters>150.1999969482421875</AltitudeMeters>
            <DistanceMeters>67410.188385805</DistanceMeters>
          </Trackpoint>
          <Trackpoint>
            <Time>2018-04-21T12:52:05.000Z</Time>
            <Position>
              <LatitudeDegrees>43.2916003279387950897216796875</LatitudeDegrees>
              <LongitudeDegrees>-8.1753913499414920806884765625</LongitudeDegrees>
            </Position>
            <AltitudeMeters>149</AltitudeMeters>
            <DistanceMeters>67429.980878733</DistanceMeters>
          </Trackpoint>
          <Trackpoint>
            <Time>2018-04-21T12:52:06.000Z</Time>
            <Position>
              <LatitudeDegrees>43.291634358465671539306640625</LatitudeDegrees>
              <LongitudeDegrees>-8.17540459334850311279296875</LongitudeDegrees>
            </Position>
            <AltitudeMeters>147.399993896484375</AltitudeMeters>
            <DistanceMeters>67433.917325249</DistanceMeters>
          </Trackpoint>
          <Trackpoint>
            <Time>2018-04-21T12:52:10.000Z</Time>
            <Position>
              <LatitudeDegrees>43.2917448319494724273681640625</LatitudeDegrees>
              <LongitudeDegrees>-8.175404928624629974365234375</LongitudeDegrees>
            </Position>
            <AltitudeMeters>146.399993896484375</AltitudeMeters>
            <DistanceMeters>67446.213282711</DistanceMeters>
          </Trackpoint>
          <Trackpoint>
            <Time>2018-04-21T12:52:11.000Z</Time>
            <Position>
              <LatitudeDegrees>43.2917622663080692291259765625</LatitudeDegrees>
              <LongitudeDegrees>-8.17538958974182605743408203125</LongitudeDegrees>
            </Position>
            <AltitudeMeters>146.399993896484375</AltitudeMeters>
            <DistanceMeters>67448.517558074</DistanceMeters>
          </Trackpoint>
          <Trackpoint>
            <Time>2018-04-21T12:52:16.000Z</Time>
            <Position>
              <LatitudeDegrees>43.291836194694042205810546875</LatitudeDegrees>
              <LongitudeDegrees>-8.17535053007304668426513671875</LongitudeDegrees>
            </Position>
            <AltitudeMeters>146.399993896484375</AltitudeMeters>
            <DistanceMeters>67457.333558752</DistanceMeters>
          </Trackpoint>
          <Trackpoint>
            <Time>2018-04-21T12:52:19.000Z</Time>
            <Position>
              <LatitudeDegrees>43.29189310781657695770263671875</LatitudeDegrees>
              <LongitudeDegrees>-8.17534952424466609954833984375</LongitudeDegrees>
            </Position>
            <AltitudeMeters>144.8000030517578125</AltitudeMeters>
            <DistanceMeters>67463.66835628</DistanceMeters>
          </Trackpoint>
          <Trackpoint>
            <Time>2018-04-21T12:52:20.000Z</Time>
            <Position>
              <LatitudeDegrees>43.2919205166399478912353515625</LatitudeDegrees>
              <LongitudeDegrees>-8.1753668747842311859130859375</LongitudeDegrees>
            </Position>
            <AltitudeMeters>144.399993896484375</AltitudeMeters>
            <DistanceMeters>67467.028057986</DistanceMeters>
          </Trackpoint>
          <Trackpoint>
            <Time>2018-04-21T12:52:22.000Z</Time>
            <Position>
              <LatitudeDegrees>43.29197726212441921234130859375</LatitudeDegrees>
              <LongitudeDegrees>-8.17540098913013935089111328125</LongitudeDegrees>
            </Position>
            <AltitudeMeters>143.1999969482421875</AltitudeMeters>
            <DistanceMeters>67473.922571921</DistanceMeters>
          </Trackpoint>
          <Trackpoint>
            <Time>2018-04-21T12:52:24.000Z</Time>
            <Position>
              <LatitudeDegrees>43.292024619877338409423828125</LatitudeDegrees>
              <LongitudeDegrees>-8.17543602548539638519287109375</LongitudeDegrees>
            </Position>
            <AltitudeMeters>141.8000030517578125</AltitudeMeters>
            <DistanceMeters>67479.909254927</DistanceMeters>
          </Trackpoint>
          <Trackpoint>
            <Time>2018-04-21T12:52:27.000Z</Time>
            <Position>
              <LatitudeDegrees>43.29206611029803752899169921875</LatitudeDegrees>
              <LongitudeDegrees>-8.175445497035980224609375</LongitudeDegrees>
            </Position>
            <AltitudeMeters>141.399993896484375</AltitudeMeters>
            <DistanceMeters>67484.589742663</DistanceMeters>
          </Trackpoint>
          <Trackpoint>
            <Time>2018-04-21T12:52:32.000Z</Time>
            <Position>
              <LatitudeDegrees>43.29208019189536571502685546875</LatitudeDegrees>
              <LongitudeDegrees>-8.17543116398155689239501953125</LongitudeDegrees>
            </Position>
            <AltitudeMeters>142</AltitudeMeters>
            <DistanceMeters>67486.539527826</DistanceMeters>
          </Trackpoint>
          <Trackpoint>
            <Time>2018-04-21T12:52:35.000Z</Time>
            <Position>
              <LatitudeDegrees>43.2920804433524608612060546875</LatitudeDegrees>
              <LongitudeDegrees>-8.1754413060843944549560546875</LongitudeDegrees>
            </Position>
            <AltitudeMeters>141.8000030517578125</AltitudeMeters>
            <DistanceMeters>67487.367951516</DistanceMeters>
          </Trackpoint>
          <Trackpoint>
            <Time>2018-04-21T12:52:38.000Z</Time>
            <Position>
              <LatitudeDegrees>43.292097039520740509033203125</LatitudeDegrees>
              <LongitudeDegrees>-8.175429739058017730712890625</LongitudeDegrees>
            </Position>
            <AltitudeMeters>142</AltitudeMeters>
            <DistanceMeters>67489.43682953</DistanceMeters>
          </Trackpoint>
          <Trackpoint>
            <Time>2018-04-21T12:52:43.000Z</Time>
            <Position>
              <LatitudeDegrees>43.29215914942324161529541015625</LatitudeDegrees>
              <LongitudeDegrees>-8.17537014372646808624267578125</LongitudeDegrees>
            </Position>
            <AltitudeMeters>140.8000030517578125</AltitudeMeters>
            <DistanceMeters>67497.868542988</DistanceMeters>
          </Trackpoint>
          <Trackpoint>
            <Time>2018-04-21T12:52:44.000Z</Time>
            <Position>
              <LatitudeDegrees>43.29217021353542804718017578125</LatitudeDegrees>
              <LongitudeDegrees>-8.1753541342914104461669921875</LongitudeDegrees>
            </Position>
            <AltitudeMeters>140.600006103515625</AltitudeMeters>
            <DistanceMeters>67499.656459949</DistanceMeters>
          </Trackpoint>
          <Trackpoint>
            <Time>2018-04-21T12:52:48.000Z</Time>
            <Position>
              <LatitudeDegrees>43.292231820523738861083984375</LatitudeDegrees>
              <LongitudeDegrees>-8.175304345786571502685546875</LongitudeDegrees>
            </Position>
            <AltitudeMeters>139.399993896484375</AltitudeMeters>
            <DistanceMeters>67507.612074683</DistanceMeters>
          </Trackpoint>
          <Trackpoint>
            <Time>2018-04-21T12:52:49.000Z</Time>
            <Position>
              <LatitudeDegrees>43.29224531538784503936767578125</LatitudeDegrees>
              <LongitudeDegrees>-8.1752947904169559478759765625</LongitudeDegrees>
            </Position>
            <AltitudeMeters>139</AltitudeMeters>
            <DistanceMeters>67509.301306508</DistanceMeters>
          </Trackpoint>
          <Trackpoint>
            <Time>2018-04-21T12:52:53.000Z</Time>
            <Position>
              <LatitudeDegrees>43.29230247996747493743896484375</LatitudeDegrees>
              <LongitudeDegrees>-8.17529235966503620147705078125</LongitudeDegrees>
            </Position>
            <AltitudeMeters>138.1999969482421875</AltitudeMeters>
            <DistanceMeters>67515.666677903</DistanceMeters>
          </Trackpoint>
          <Trackpoint>
            <Time>2018-04-21T12:52:54.000Z</Time>
            <Position>
              <LatitudeDegrees>43.2923158071935176849365234375</LatitudeDegrees>
              <LongitudeDegrees>-8.175294958055019378662109375</LongitudeDegrees>
            </Position>
            <AltitudeMeters>138</AltitudeMeters>
            <DistanceMeters>67517.166174164</DistanceMeters>
          </Trackpoint>
          <Trackpoint>
            <Time>2018-04-21T12:53:01.000Z</Time>
            <Position>
              <LatitudeDegrees>43.29233609139919281005859375</LatitudeDegrees>
              <LongitudeDegrees>-8.17528934217989444732666015625</LongitudeDegrees>
            </Position>
            <AltitudeMeters>137.8000030517578125</AltitudeMeters>
            <DistanceMeters>67519.468489275</DistanceMeters>
          </Trackpoint>
          <Trackpoint>
            <Time>2018-04-21T12:53:07.000Z</Time>
            <Position>
              <LatitudeDegrees>43.29234036616981029510498046875</LatitudeDegrees>
              <LongitudeDegrees>-8.17528925836086273193359375</LongitudeDegrees>
            </Position>
            <AltitudeMeters>138</AltitudeMeters>
            <DistanceMeters>67519.943622847</DistanceMeters>
          </Trackpoint>
          <Trackpoint>
            <Time>2018-04-21T12:53:09.000Z</Time>
            <Position>
              <LatitudeDegrees>43.2923362590372562408447265625</LatitudeDegrees>
              <LongitudeDegrees>-8.1753001548349857330322265625</LongitudeDegrees>
            </Position>
            <AltitudeMeters>138.8000030517578125</AltitudeMeters>
            <DistanceMeters>67520.940271435</DistanceMeters>
          </Trackpoint>
          <Trackpoint>
            <Time>2018-04-21T12:53:13.000Z</Time>
            <Position>
              <LatitudeDegrees>43.29233609139919281005859375</LatitudeDegrees>
              <LongitudeDegrees>-8.17528934217989444732666015625</LongitudeDegrees>
            </Position>
            <AltitudeMeters>138.399993896484375</AltitudeMeters>
            <DistanceMeters>67521.816374453</DistanceMeters>
          </Trackpoint>
          <Trackpoint>
            <Time>2018-04-21T12:53:15.000Z</Time>
            <Position>
              <LatitudeDegrees>43.29233609139919281005859375</LatitudeDegrees>
              <LongitudeDegrees>-8.17528934217989444732666015625</LongitudeDegrees>
            </Position>
            <AltitudeMeters>138.1999969482421875</AltitudeMeters>
            <DistanceMeters>67521.816374453</DistanceMeters>
          </Trackpoint>
          <Trackpoint>
            <Time>2018-04-21T12:53:18.000Z</Time>
            <Position>
              <LatitudeDegrees>43.29233609139919281005859375</LatitudeDegrees>
              <LongitudeDegrees>-8.17528934217989444732666015625</LongitudeDegrees>
            </Position>
            <AltitudeMeters>138.1999969482421875</AltitudeMeters>
            <DistanceMeters>67521.816374453</DistanceMeters>
          </Trackpoint>
          <Trackpoint>
            <Time>2018-04-21T12:53:23.000Z</Time>
            <Position>
              <LatitudeDegrees>43.29233969561755657196044921875</LatitudeDegrees>
              <LongitudeDegrees>-8.1752966344356536865234375</LongitudeDegrees>
            </Position>
            <AltitudeMeters>138.399993896484375</AltitudeMeters>
            <DistanceMeters>67522.533810414</DistanceMeters>
          </Trackpoint>
          <Trackpoint>
            <Time>2018-04-21T12:53:26.000Z</Time>
            <Position>
              <LatitudeDegrees>43.292444050312042236328125</LatitudeDegrees>
              <LongitudeDegrees>-8.17537466995418071746826171875</LongitudeDegrees>
            </Position>
            <AltitudeMeters>138.600006103515625</AltitudeMeters>
            <DistanceMeters>67535.757896787</DistanceMeters>
          </Trackpoint>
          <Trackpoint>
            <Time>2018-04-21T12:53:28.000Z</Time>
            <Position>
              <LatitudeDegrees>43.29252116382122039794921875</LatitudeDegrees>
              <LongitudeDegrees>-8.17540861666202545166015625</LongitudeDegrees>
            </Position>
            <AltitudeMeters>138.8000030517578125</AltitudeMeters>
            <DistanceMeters>67544.770918905</DistanceMeters>
          </Trackpoint>
          <Trackpoint>
            <Time>2018-04-21T12:53:33.000Z</Time>
            <Position>
              <LatitudeDegrees>43.2926115207374095916748046875</LatitudeDegrees>
              <LongitudeDegrees>-8.17551481537520885467529296875</LongitudeDegrees>
            </Position>
            <AltitudeMeters>138.8000030517578125</AltitudeMeters>
            <DistanceMeters>67558.005585231</DistanceMeters>
          </Trackpoint>
          <Trackpoint>
            <Time>2018-04-21T12:53:35.000Z</Time>
            <Position>
              <LatitudeDegrees>43.29263758845627307891845703125</LatitudeDegrees>
              <LongitudeDegrees>-8.17556242458522319793701171875</LongitudeDegrees>
            </Position>
            <AltitudeMeters>138.600006103515625</AltitudeMeters>
            <DistanceMeters>67562.832343691</DistanceMeters>
          </Trackpoint>
          <Trackpoint>
            <Time>2018-04-21T12:53:39.000Z</Time>
            <Position>
              <LatitudeDegrees>43.2926970161497592926025390625</LatitudeDegrees>
              <LongitudeDegrees>-8.17565211094915866851806640625</LongitudeDegrees>
            </Position>
            <AltitudeMeters>138.1999969482421875</AltitudeMeters>
            <DistanceMeters>67572.657848628</DistanceMeters>
          </Trackpoint>
          <Trackpoint>
            <Time>2018-04-21T12:53:44.000Z</Time>
            <Position>
              <LatitudeDegrees>43.2927739620208740234375</LatitudeDegrees>
              <LongitudeDegrees>-8.17584690637886524200439453125</LongitudeDegrees>
            </Position>
            <AltitudeMeters>137</AltitudeMeters>
            <DistanceMeters>67590.612617605</DistanceMeters>
          </Trackpoint>
          <Trackpoint>
            <Time>2018-04-21T12:53:45.000Z</Time>
            <Position>
              <LatitudeDegrees>43.2927861995995044708251953125</LatitudeDegrees>
              <LongitudeDegrees>-8.175874650478363037109375</LongitudeDegrees>
            </Position>
            <AltitudeMeters>136.600006103515625</AltitudeMeters>
            <DistanceMeters>67593.239208248</DistanceMeters>
          </Trackpoint>
          <Trackpoint>
            <Time>2018-04-21T12:53:47.000Z</Time>
            <Position>
              <LatitudeDegrees>43.2928101718425750732421875</LatitudeDegrees>
              <LongitudeDegrees>-8.17592938430607318878173828125</LongitudeDegrees>
            </Position>
            <AltitudeMeters>135.600006103515625</AltitudeMeters>
            <DistanceMeters>67598.414457685</DistanceMeters>
          </Trackpoint>
          <Trackpoint>
            <Time>2018-04-21T12:53:50.000Z</Time>
            <Position>
              <LatitudeDegrees>43.2928128540515899658203125</LatitudeDegrees>
              <LongitudeDegrees>-8.17599124275147914886474609375</LongitudeDegrees>
            </Position>
            <AltitudeMeters>134.8000030517578125</AltitudeMeters>
            <DistanceMeters>67603.434711001</DistanceMeters>
          </Trackpoint>
          <Trackpoint>
            <Time>2018-04-21T12:53:55.000Z</Time>
            <Position>
              <LatitudeDegrees>43.29280103556811809539794921875</LatitudeDegrees>
              <LongitudeDegrees>-8.176035247743129730224609375</LongitudeDegrees>
            </Position>
            <AltitudeMeters>134.600006103515625</AltitudeMeters>
            <DistanceMeters>67607.235779575</DistanceMeters>
          </Trackpoint>
          <Trackpoint>
            <Time>2018-04-21T12:53:56.000Z</Time>
            <Position>
              <LatitudeDegrees>43.292788378894329071044921875</LatitudeDegrees>
              <LongitudeDegrees>-8.17607388831675052642822265625</LongitudeDegrees>
            </Position>
            <AltitudeMeters>134.399993896484375</AltitudeMeters>
            <DistanceMeters>67610.667283573</DistanceMeters>
          </Trackpoint>
          <Trackpoint>
            <Time>2018-04-21T12:54:02.000Z</Time>
            <Position>
              <LatitudeDegrees>43.29278142191469669342041015625</LatitudeDegrees>
              <LongitudeDegrees>-8.1760867126286029815673828125</LongitudeDegrees>
            </Position>
            <AltitudeMeters>134.1999969482421875</AltitudeMeters>
            <DistanceMeters>67611.966754348</DistanceMeters>
          </Trackpoint>
          <Trackpoint>
            <Time>2018-04-21T12:54:54.000Z</Time>
            <Position>
              <LatitudeDegrees>43.29272375442087650299072265625</LatitudeDegrees>
              <LongitudeDegrees>-8.176281340420246124267578125</LongitudeDegrees>
            </Position>
            <AltitudeMeters>134</AltitudeMeters>
            <DistanceMeters>67628.990598608</DistanceMeters>
          </Trackpoint>
          <Trackpoint>
            <Time>2018-04-21T12:54:56.000Z</Time>
            <Position>
              <LatitudeDegrees>43.2927191443741321563720703125</LatitudeDegrees>
              <LongitudeDegrees>-8.17629181779921054840087890625</LongitudeDegrees>
            </Position>
            <AltitudeMeters>134.8000030517578125</AltitudeMeters>
            <DistanceMeters>67629.982706632</DistanceMeters>
          </Trackpoint>
          <Trackpoint>
            <Time>2018-04-21T12:54:57.000Z</Time>
            <Position>
              <LatitudeDegrees>43.29271906055510044097900390625</LatitudeDegrees>
              <LongitudeDegrees>-8.1762862019240856170654296875</LongitudeDegrees>
            </Position>
            <AltitudeMeters>135.399993896484375</AltitudeMeters>
            <DistanceMeters>67630.438438745</DistanceMeters>
          </Trackpoint>
          <Trackpoint>
            <Time>2018-04-21T12:55:00.000Z</Time>
            <Position>
              <LatitudeDegrees>43.2926933281123638153076171875</LatitudeDegrees>
              <LongitudeDegrees>-8.176330290734767913818359375</LongitudeDegrees>
            </Position>
            <AltitudeMeters>135.399993896484375</AltitudeMeters>
            <DistanceMeters>67635.017503879</DistanceMeters>
          </Trackpoint>
          <Trackpoint>
            <Time>2018-04-21T12:55:01.000Z</Time>
            <Position>
              <LatitudeDegrees>43.292677067220211029052734375</LatitudeDegrees>
              <LongitudeDegrees>-8.17634738981723785400390625</LongitudeDegrees>
            </Position>
            <AltitudeMeters>135.1999969482421875</AltitudeMeters>
            <DistanceMeters>67637.294182134</DistanceMeters>
          </Trackpoint>
          <Trackpoint>
            <Time>2018-04-21T12:55:07.000Z</Time>
            <Position>
              <LatitudeDegrees>43.292611353099346160888671875</LatitudeDegrees>
              <LongitudeDegrees>-8.176403045654296875</LongitudeDegrees>
            </Position>
            <AltitudeMeters>136</AltitudeMeters>
            <DistanceMeters>67645.88608966</DistanceMeters>
          </Trackpoint>
          <Trackpoint>
            <Time>2018-04-21T12:55:10.000Z</Time>
            <Position>
              <LatitudeDegrees>43.2925558649003505706787109375</LatitudeDegrees>
              <LongitudeDegrees>-8.176434896886348724365234375</LongitudeDegrees>
            </Position>
            <AltitudeMeters>136.399993896484375</AltitudeMeters>
            <DistanceMeters>67652.579236098</DistanceMeters>
          </Trackpoint>
          <Trackpoint>
            <Time>2018-04-21T12:55:13.000Z</Time>
            <Position>
              <LatitudeDegrees>43.29250750131905078887939453125</LatitudeDegrees>
              <LongitudeDegrees>-8.17648007534444332122802734375</LongitudeDegrees>
            </Position>
            <AltitudeMeters>136.8000030517578125</AltitudeMeters>
            <DistanceMeters>67659.088392623</DistanceMeters>
          </Trackpoint>
          <Trackpoint>
            <Time>2018-04-21T12:55:19.000Z</Time>
            <Position>
              <LatitudeDegrees>43.29242602922022342681884765625</LatitudeDegrees>
              <LongitudeDegrees>-8.17662156186997890472412109375</LongitudeDegrees>
            </Position>
            <AltitudeMeters>137.399993896484375</AltitudeMeters>
            <DistanceMeters>67673.703365364</DistanceMeters>
          </Trackpoint>
          <Trackpoint>
            <Time>2018-04-21T12:55:20.000Z</Time>
            <Position>
              <LatitudeDegrees>43.29241094179451465606689453125</LatitudeDegrees>
              <LongitudeDegrees>-8.1766506470739841461181640625</LongitudeDegrees>
            </Position>
            <AltitudeMeters>137.600006103515625</AltitudeMeters>
            <DistanceMeters>67676.598172946</DistanceMeters>
          </Trackpoint>
          <Trackpoint>
            <Time>2018-04-21T12:55:26.000Z</Time>
            <Position>
              <LatitudeDegrees>43.2923345826566219329833984375</LatitudeDegrees>
              <LongitudeDegrees>-8.17677947692573070526123046875</LongitudeDegrees>
            </Position>
            <AltitudeMeters>138.399993896484375</AltitudeMeters>
            <DistanceMeters>67690.057793803</DistanceMeters>
          </Trackpoint>
          <Trackpoint>
            <Time>2018-04-21T12:55:28.000Z</Time>
            <Position>
              <LatitudeDegrees>43.29229946248233318328857421875</LatitudeDegrees>
              <LongitudeDegrees>-8.1768095679581165313720703125</LongitudeDegrees>
            </Position>
            <AltitudeMeters>138.600006103515625</AltitudeMeters>
            <DistanceMeters>67694.664384695</DistanceMeters>
          </Trackpoint>
          <Trackpoint>
            <Time>2018-04-21T12:55:32.000Z</Time>
            <Position>
              <LatitudeDegrees>43.29224330373108386993408203125</LatitudeDegrees>
              <LongitudeDegrees>-8.176907636225223541259765625</LongitudeDegrees>
            </Position>
            <AltitudeMeters>138.8000030517578125</AltitudeMeters>
            <DistanceMeters>67704.773458595</DistanceMeters>
          </Trackpoint>
          <Trackpoint>
            <Time>2018-04-21T12:55:36.000Z</Time>
            <Position>
              <LatitudeDegrees>43.29220323823392391204833984375</LatitudeDegrees>
              <LongitudeDegrees>-8.17704736255109310150146484375</LongitudeDegrees>
            </Position>
            <AltitudeMeters>139.600006103515625</AltitudeMeters>
            <DistanceMeters>67716.939847257</DistanceMeters>
          </Trackpoint>
          <Trackpoint>
            <Time>2018-04-21T12:55:40.000Z</Time>
            <Position>
              <LatitudeDegrees>43.292147330939769744873046875</LatitudeDegrees>
              <LongitudeDegrees>-8.17718826234340667724609375</LongitudeDegrees>
            </Position>
            <AltitudeMeters>140</AltitudeMeters>
            <DistanceMeters>67729.94080764</DistanceMeters>
          </Trackpoint>
          <Trackpoint>
            <Time>2018-04-21T12:55:46.000Z</Time>
            <Position>
              <LatitudeDegrees>43.2920231111347675323486328125</LatitudeDegrees>
              <LongitudeDegrees>-8.17737090401351451873779296875</LongitudeDegrees>
            </Position>
            <AltitudeMeters>140.399993896484375</AltitudeMeters>
            <DistanceMeters>67750.191533346</DistanceMeters>
          </Trackpoint>
          <Trackpoint>
            <Time>2018-04-21T12:55:47.000Z</Time>
            <Position>
              <LatitudeDegrees>43.29200441949069499969482421875</LatitudeDegrees>
              <LongitudeDegrees>-8.17739403806626796722412109375</LongitudeDegrees>
            </Position>
            <AltitudeMeters>140.600006103515625</AltitudeMeters>
            <DistanceMeters>67752.991195174</DistanceMeters>
          </Trackpoint>
          <Trackpoint>
            <Time>2018-04-21T12:55:52.000Z</Time>
            <Position>
              <LatitudeDegrees>43.29190651886165142059326171875</LatitudeDegrees>
              <LongitudeDegrees>-8.1775253824889659881591796875</LongitudeDegrees>
            </Position>
            <AltitudeMeters>141</AltitudeMeters>
            <DistanceMeters>67768.221579401</DistanceMeters>
          </Trackpoint>
          <Trackpoint>
            <Time>2018-04-21T12:55:59.000Z</Time>
            <Position>
              <LatitudeDegrees>43.2917748391628265380859375</LatitudeDegrees>
              <LongitudeDegrees>-8.177730403840541839599609375</LongitudeDegrees>
            </Position>
            <AltitudeMeters>141.8000030517578125</AltitudeMeters>
            <DistanceMeters>67790.372793675</DistanceMeters>
          </Trackpoint>
          <Trackpoint>
            <Time>2018-04-21T12:56:05.000Z</Time>
            <Position>
              <LatitudeDegrees>43.291650451719760894775390625</LatitudeDegrees>
              <LongitudeDegrees>-8.177948333323001861572265625</LongitudeDegrees>
            </Position>
            <AltitudeMeters>141.600006103515625</AltitudeMeters>
            <DistanceMeters>67812.808759919</DistanceMeters>
          </Trackpoint>
          <Trackpoint>
            <Time>2018-04-21T12:56:10.000Z</Time>
            <Position>
              <LatitudeDegrees>43.291543833911418914794921875</LatitudeDegrees>
              <LongitudeDegrees>-8.1780537776648998260498046875</LongitudeDegrees>
            </Position>
            <AltitudeMeters>140.8000030517578125</AltitudeMeters>
            <DistanceMeters>67827.4302188</DistanceMeters>
          </Trackpoint>
          <Trackpoint>
            <Time>2018-04-21T12:56:11.000Z</Time>
            <Position>
              <LatitudeDegrees>43.29151759855449199676513671875</LatitudeDegrees>
              <LongitudeDegrees>-8.1780822761356830596923828125</LongitudeDegrees>
            </Position>
            <AltitudeMeters>139</AltitudeMeters>
            <DistanceMeters>67831.152064749</DistanceMeters>
          </Trackpoint>
          <Trackpoint>
            <Time>2018-04-21T12:56:12.000Z</Time>
            <Position>
              <LatitudeDegrees>43.2914973981678485870361328125</LatitudeDegrees>
              <LongitudeDegrees>-8.17809727974236011505126953125</LongitudeDegrees>
            </Position>
            <AltitudeMeters>140</AltitudeMeters>
            <DistanceMeters>67833.708972128</DistanceMeters>
          </Trackpoint>
          <Trackpoint>
            <Time>2018-04-21T12:56:13.000Z</Time>
            <Position>
              <LatitudeDegrees>43.29147635959088802337646484375</LatitudeDegrees>
              <LongitudeDegrees>-8.1781102716922760009765625</LongitudeDegrees>
            </Position>
            <AltitudeMeters>141</AltitudeMeters>
            <DistanceMeters>67836.276452567</DistanceMeters>
          </Trackpoint>
          <Trackpoint>
            <Time>2018-04-21T12:56:14.000Z</Time>
            <Position>
              <LatitudeDegrees>43.2914514653384685516357421875</LatitudeDegrees>
              <LongitudeDegrees>-8.17812167108058929443359375</LongitudeDegrees>
            </Position>
            <AltitudeMeters>142</AltitudeMeters>
            <DistanceMeters>67839.196108739</DistanceMeters>
          </Trackpoint>
          <Trackpoint>
            <Time>2018-04-21T12:56:15.000Z</Time>
            <Position>
              <LatitudeDegrees>43.29143193550407886505126953125</LatitudeDegrees>
              <LongitudeDegrees>-8.1781359203159809112548828125</LongitudeDegrees>
            </Position>
            <AltitudeMeters>142.1999969482421875</AltitudeMeters>
            <DistanceMeters>67841.65764917</DistanceMeters>
          </Trackpoint>
          <Trackpoint>
            <Time>2018-04-21T12:56:22.000Z</Time>
            <Position>
              <LatitudeDegrees>43.291289024055004119873046875</LatitudeDegrees>
              <LongitudeDegrees>-8.1782076694071292877197265625</LongitudeDegrees>
            </Position>
            <AltitudeMeters>143</AltitudeMeters>
            <DistanceMeters>67858.592412167</DistanceMeters>
          </Trackpoint>
          <Trackpoint>
            <Time>2018-04-21T12:56:23.000Z</Time>
            <Position>
              <LatitudeDegrees>43.29126186668872833251953125</LatitudeDegrees>
              <LongitudeDegrees>-8.17821831442415714263916015625</LongitudeDegrees>
            </Position>
            <AltitudeMeters>143.600006103515625</AltitudeMeters>
            <DistanceMeters>67861.735484491</DistanceMeters>
          </Trackpoint>
          <Trackpoint>
            <Time>2018-04-21T12:56:28.000Z</Time>
            <Position>
              <LatitudeDegrees>43.291127420961856842041015625</LatitudeDegrees>
              <LongitudeDegrees>-8.17825821228325366973876953125</LongitudeDegrees>
            </Position>
            <AltitudeMeters>143.399993896484375</AltitudeMeters>
            <DistanceMeters>67877.044521169</DistanceMeters>
          </Trackpoint>
          <Trackpoint>
            <Time>2018-04-21T12:56:35.000Z</Time>
            <Position>
              <LatitudeDegrees>43.290863893926143646240234375</LatitudeDegrees>
              <LongitudeDegrees>-8.17827598191797733306884765625</LongitudeDegrees>
            </Position>
            <AltitudeMeters>144.399993896484375</AltitudeMeters>
            <DistanceMeters>67906.411004795</DistanceMeters>
          </Trackpoint>
          <Trackpoint>
            <Time>2018-04-21T12:56:37.000Z</Time>
            <Position>
              <LatitudeDegrees>43.29078032635152339935302734375</LatitudeDegrees>
              <LongitudeDegrees>-8.1782918237149715423583984375</LongitudeDegrees>
            </Position>
            <AltitudeMeters>144.8000030517578125</AltitudeMeters>
            <DistanceMeters>67915.799913477</DistanceMeters>
          </Trackpoint>
          <Trackpoint>
            <Time>2018-04-21T12:56:41.000Z</Time>
            <Position>
              <LatitudeDegrees>43.2906122691929340362548828125</LatitudeDegrees>
              <LongitudeDegrees>-8.17828855477273464202880859375</LongitudeDegrees>
            </Position>
            <AltitudeMeters>145.600006103515625</AltitudeMeters>
            <DistanceMeters>67934.507147709</DistanceMeters>
          </Trackpoint>
          <Trackpoint>
            <Time>2018-04-21T12:56:42.000Z</Time>
            <Position>
              <LatitudeDegrees>43.290592990815639495849609375</LatitudeDegrees>
              <LongitudeDegrees>-8.17828503437340259552001953125</LongitudeDegrees>
            </Position>
            <AltitudeMeters>146</AltitudeMeters>
            <DistanceMeters>67936.674090198</DistanceMeters>
          </Trackpoint>
          <Trackpoint>
            <Time>2018-04-21T12:56:44.000Z</Time>
            <Position>
              <LatitudeDegrees>43.29055921174585819244384765625</LatitudeDegrees>
              <LongitudeDegrees>-8.178331553936004638671875</LongitudeDegrees>
            </Position>
            <AltitudeMeters>146.1999969482421875</AltitudeMeters>
            <DistanceMeters>67941.997282838</DistanceMeters>
          </Trackpoint>
          <Trackpoint>
            <Time>2018-04-21T12:56:45.000Z</Time>
            <Position>
              <LatitudeDegrees>43.29054613597691059112548828125</LatitudeDegrees>
              <LongitudeDegrees>-8.178370110690593719482421875</LongitudeDegrees>
            </Position>
            <AltitudeMeters>146.1999969482421875</AltitudeMeters>
            <DistanceMeters>67945.441919313</DistanceMeters>
          </Trackpoint>
          <Trackpoint>
            <Time>2018-04-21T12:56:48.000Z</Time>
            <Position>
              <LatitudeDegrees>43.29053607769310474395751953125</LatitudeDegrees>
              <LongitudeDegrees>-8.1785094179213047027587890625</LongitudeDegrees>
            </Position>
            <AltitudeMeters>146.1999969482421875</AltitudeMeters>
            <DistanceMeters>67956.783189474</DistanceMeters>
          </Trackpoint>
          <Trackpoint>
            <Time>2018-04-21T12:56:50.000Z</Time>
            <Position>
              <LatitudeDegrees>43.290530629456043243408203125</LatitudeDegrees>
              <LongitudeDegrees>-8.17861041985452175140380859375</LongitudeDegrees>
            </Position>
            <AltitudeMeters>146.1999969482421875</AltitudeMeters>
            <DistanceMeters>67964.988018533</DistanceMeters>
          </Trackpoint>
          <Trackpoint>
            <Time>2018-04-21T12:56:55.000Z</Time>
            <Position>
              <LatitudeDegrees>43.29048226587474346160888671875</LatitudeDegrees>
              <LongitudeDegrees>-8.17889741621911525726318359375</LongitudeDegrees>
            </Position>
            <AltitudeMeters>145.8000030517578125</AltitudeMeters>
            <DistanceMeters>67988.853916836</DistanceMeters>
          </Trackpoint>
          <Trackpoint>
            <Time>2018-04-21T12:56:57.000Z</Time>
            <Position>
              <LatitudeDegrees>43.29045644961297512054443359375</LatitudeDegrees>
              <LongitudeDegrees>-8.1790237314999103546142578125</LongitudeDegrees>
            </Position>
            <AltitudeMeters>145.600006103515625</AltitudeMeters>
            <DistanceMeters>67999.48247536</DistanceMeters>
          </Trackpoint>
          <Trackpoint>
            <Time>2018-04-21T12:57:01.000Z</Time>
            <Position>
              <LatitudeDegrees>43.29040967859327793121337890625</LatitudeDegrees>
              <LongitudeDegrees>-8.17928952164947986602783203125</LongitudeDegrees>
            </Position>
            <AltitudeMeters>144.1999969482421875</AltitudeMeters>
            <DistanceMeters>68021.635931629</DistanceMeters>
          </Trackpoint>
          <Trackpoint>
            <Time>2018-04-21T12:57:04.000Z</Time>
            <Position>
              <LatitudeDegrees>43.29037933610379695892333984375</LatitudeDegrees>
              <LongitudeDegrees>-8.17946135066449642181396484375</LongitudeDegrees>
            </Position>
            <AltitudeMeters>143.600006103515625</AltitudeMeters>
            <DistanceMeters>68035.960716344</DistanceMeters>
          </Trackpoint>
          <Trackpoint>
            <Time>2018-04-21T12:57:07.000Z</Time>
            <Position>
              <LatitudeDegrees>43.29035536386072635650634765625</LatitudeDegrees>
              <LongitudeDegrees>-8.1796071119606494903564453125</LongitudeDegrees>
            </Position>
            <AltitudeMeters>145.600006103515625</AltitudeMeters>
            <DistanceMeters>68048.067209261</DistanceMeters>
          </Trackpoint>
          <Trackpoint>
            <Time>2018-04-21T12:57:11.000Z</Time>
            <Position>
              <LatitudeDegrees>43.29032787121832370758056640625</LatitudeDegrees>
              <LongitudeDegrees>-8.1797812879085540771484375</LongitudeDegrees>
            </Position>
            <AltitudeMeters>146</AltitudeMeters>
            <DistanceMeters>68062.506267573</DistanceMeters>
          </Trackpoint>
          <Trackpoint>
            <Time>2018-04-21T12:57:14.000Z</Time>
            <Position>
              <LatitudeDegrees>43.29030976630747318267822265625</LatitudeDegrees>
              <LongitudeDegrees>-8.17990022711455821990966796875</LongitudeDegrees>
            </Position>
            <AltitudeMeters>146.8000030517578125</AltitudeMeters>
            <DistanceMeters>68072.350594894</DistanceMeters>
          </Trackpoint>
          <Trackpoint>
            <Time>2018-04-21T12:57:18.000Z</Time>
            <Position>
              <LatitudeDegrees>43.29029350541532039642333984375</LatitudeDegrees>
              <LongitudeDegrees>-8.18006048910319805145263671875</LongitudeDegrees>
            </Position>
            <AltitudeMeters>147.8000030517578125</AltitudeMeters>
            <DistanceMeters>68085.459804817</DistanceMeters>
          </Trackpoint>
          <Trackpoint>
            <Time>2018-04-21T12:57:19.000Z</Time>
            <Position>
              <LatitudeDegrees>43.290287554264068603515625</LatitudeDegrees>
              <LongitudeDegrees>-8.18010055460035800933837890625</LongitudeDegrees>
            </Position>
            <AltitudeMeters>147.8000030517578125</AltitudeMeters>
            <DistanceMeters>68088.773499576</DistanceMeters>
          </Trackpoint>
          <Trackpoint>
            <Time>2018-04-21T12:57:24.000Z</Time>
            <Position>
              <LatitudeDegrees>43.29026835970580577850341796875</LatitudeDegrees>
              <LongitudeDegrees>-8.1802790053188800811767578125</LongitudeDegrees>
            </Position>
            <AltitudeMeters>149.1999969482421875</AltitudeMeters>
            <DistanceMeters>68103.387854438</DistanceMeters>
          </Trackpoint>
          <Trackpoint>
            <Time>2018-04-21T12:57:25.000Z</Time>
            <Position>
              <LatitudeDegrees>43.2902602292597293853759765625</LatitudeDegrees>
              <LongitudeDegrees>-8.18031177856028079986572265625</LongitudeDegrees>
            </Position>
            <AltitudeMeters>149.600006103515625</AltitudeMeters>
            <DistanceMeters>68106.193959686</DistanceMeters>
          </Trackpoint>
          <Trackpoint>
            <Time>2018-04-21T12:57:29.000Z</Time>
            <Position>
              <LatitudeDegrees>43.290231227874755859375</LatitudeDegrees>
              <LongitudeDegrees>-8.1804464757442474365234375</LongitudeDegrees>
            </Position>
            <AltitudeMeters>150.399993896484375</AltitudeMeters>
            <DistanceMeters>68117.573780699</DistanceMeters>
          </Trackpoint>
          <Trackpoint>
            <Time>2018-04-21T12:57:33.000Z</Time>
            <Position>
              <LatitudeDegrees>43.29021337442100048065185546875</LatitudeDegrees>
              <LongitudeDegrees>-8.18058393895626068115234375</LongitudeDegrees>
            </Position>
            <AltitudeMeters>151</AltitudeMeters>
            <DistanceMeters>68128.886350847</DistanceMeters>
          </Trackpoint>
          <Trackpoint>
            <Time>2018-04-21T12:57:34.000Z</Time>
            <Position>
              <LatitudeDegrees>43.2902089320123195648193359375</LatitudeDegrees>
              <LongitudeDegrees>-8.18062006495893001556396484375</LongitudeDegrees>
            </Position>
            <AltitudeMeters>151.600006103515625</AltitudeMeters>
            <DistanceMeters>68131.852037017</DistanceMeters>
          </Trackpoint>
          <Trackpoint>
            <Time>2018-04-21T12:57:38.000Z</Time>
            <Position>
              <LatitudeDegrees>43.29017951153218746185302734375</LatitudeDegrees>
              <LongitudeDegrees>-8.1807728670537471771240234375</LongitudeDegrees>
            </Position>
            <AltitudeMeters>152.8000030517578125</AltitudeMeters>
            <DistanceMeters>68144.656688437</DistanceMeters>
          </Trackpoint>
          <Trackpoint>
            <Time>2018-04-21T12:57:40.000Z</Time>
            <Position>
              <LatitudeDegrees>43.29017213545739650726318359375</LatitudeDegrees>
              <LongitudeDegrees>-8.18085459060966968536376953125</LongitudeDegrees>
            </Position>
            <AltitudeMeters>153.1999969482421875</AltitudeMeters>
            <DistanceMeters>68151.327536712</DistanceMeters>
          </Trackpoint>
          <Trackpoint>
            <Time>2018-04-21T12:57:43.000Z</Time>
            <Position>
              <LatitudeDegrees>43.2901646755635738372802734375</LatitudeDegrees>
              <LongitudeDegrees>-8.180968500673770904541015625</LongitudeDegrees>
            </Position>
            <AltitudeMeters>153.8000030517578125</AltitudeMeters>
            <DistanceMeters>68160.593494128</DistanceMeters>
          </Trackpoint>
          <Trackpoint>
            <Time>2018-04-21T12:57:48.000Z</Time>
            <Position>
              <LatitudeDegrees>43.290141709148883819580078125</LatitudeDegrees>
              <LongitudeDegrees>-8.1811678223311901092529296875</LongitudeDegrees>
            </Position>
            <AltitudeMeters>155</AltitudeMeters>
            <DistanceMeters>68176.942508249</DistanceMeters>
          </Trackpoint>
          <Trackpoint>
            <Time>2018-04-21T12:57:51.000Z</Time>
            <Position>
              <LatitudeDegrees>43.29011564143002033233642578125</LatitudeDegrees>
              <LongitudeDegrees>-8.18128709681332111358642578125</LongitudeDegrees>
            </Position>
            <AltitudeMeters>156</AltitudeMeters>
            <DistanceMeters>68187.032358686</DistanceMeters>
          </Trackpoint>
          <Trackpoint>
            <Time>2018-04-21T12:57:55.000Z</Time>
            <Position>
              <LatitudeDegrees>43.29009971581399440765380859375</LatitudeDegrees>
              <LongitudeDegrees>-8.18145657889544963836669921875</LongitudeDegrees>
            </Position>
            <AltitudeMeters>156.8000030517578125</AltitudeMeters>
            <DistanceMeters>68200.876938947</DistanceMeters>
          </Trackpoint>
          <Trackpoint>
            <Time>2018-04-21T12:57:57.000Z</Time>
            <Position>
              <LatitudeDegrees>43.29008303582668304443359375</LatitudeDegrees>
              <LongitudeDegrees>-8.18153679370880126953125</LongitudeDegrees>
            </Position>
            <AltitudeMeters>157.399993896484375</AltitudeMeters>
            <DistanceMeters>68207.635870573</DistanceMeters>
          </Trackpoint>
          <Trackpoint>
            <Time>2018-04-21T12:58:01.000Z</Time>
            <Position>
              <LatitudeDegrees>43.29005998559296131134033203125</LatitudeDegrees>
              <LongitudeDegrees>-8.18170107901096343994140625</LongitudeDegrees>
            </Position>
            <AltitudeMeters>158.600006103515625</AltitudeMeters>
            <DistanceMeters>68221.190424617</DistanceMeters>
          </Trackpoint>
          <Trackpoint>
            <Time>2018-04-21T12:58:02.000Z</Time>
            <Position>
              <LatitudeDegrees>43.29005361534655094146728515625</LatitudeDegrees>
              <LongitudeDegrees>-8.1817444972693920135498046875</LongitudeDegrees>
            </Position>
            <AltitudeMeters>158.600006103515625</AltitudeMeters>
            <DistanceMeters>68224.778862858</DistanceMeters>
          </Trackpoint>
          <Trackpoint>
            <Time>2018-04-21T12:58:06.000Z</Time>
            <Position>
              <LatitudeDegrees>43.2900278829038143157958984375</LatitudeDegrees>
              <LongitudeDegrees>-8.1819138117134571075439453125</LongitudeDegrees>
            </Position>
            <AltitudeMeters>159.600006103515625</AltitudeMeters>
            <DistanceMeters>68238.791356647</DistanceMeters>
          </Trackpoint>
          <Trackpoint>
            <Time>2018-04-21T12:58:11.000Z</Time>
            <Position>
              <LatitudeDegrees>43.28999125398695468902587890625</LatitudeDegrees>
              <LongitudeDegrees>-8.1821391172707080841064453125</LongitudeDegrees>
            </Position>
            <AltitudeMeters>159.600006103515625</AltitudeMeters>
            <DistanceMeters>68257.494487436</DistanceMeters>
          </Trackpoint>
          <Trackpoint>
            <Time>2018-04-21T12:58:14.000Z</Time>
            <Position>
              <LatitudeDegrees>43.2899641804397106170654296875</LatitudeDegrees>
              <LongitudeDegrees>-8.1823114491999149322509765625</LongitudeDegrees>
            </Position>
            <AltitudeMeters>159.1999969482421875</AltitudeMeters>
            <DistanceMeters>68271.777606389</DistanceMeters>
          </Trackpoint>
          <Trackpoint>
            <Time>2018-04-21T12:58:16.000Z</Time>
            <Position>
              <LatitudeDegrees>43.289941214025020599365234375</LatitudeDegrees>
              <LongitudeDegrees>-8.1824482418596744537353515625</LongitudeDegrees>
            </Position>
            <AltitudeMeters>158.8000030517578125</AltitudeMeters>
            <DistanceMeters>68283.15068051</DistanceMeters>
          </Trackpoint>
          <Trackpoint>
            <Time>2018-04-21T12:58:18.000Z</Time>
            <Position>
              <LatitudeDegrees>43.289917744696140289306640625</LatitudeDegrees>
              <LongitudeDegrees>-8.18259987048804759979248046875</LongitudeDegrees>
            </Position>
            <AltitudeMeters>158.399993896484375</AltitudeMeters>
            <DistanceMeters>68295.709315594</DistanceMeters>
          </Trackpoint>
          <Trackpoint>
            <Time>2018-04-21T12:58:22.000Z</Time>
            <Position>
              <LatitudeDegrees>43.28988798893988132476806640625</LatitudeDegrees>
              <LongitudeDegrees>-8.18286247551441192626953125</LongitudeDegrees>
            </Position>
            <AltitudeMeters>157.600006103515625</AltitudeMeters>
            <DistanceMeters>68317.24057414</DistanceMeters>
          </Trackpoint>
          <Trackpoint>
            <Time>2018-04-21T12:58:23.000Z</Time>
            <Position>
              <LatitudeDegrees>43.28987793065607547760009765625</LatitudeDegrees>
              <LongitudeDegrees>-8.1829337216913700103759765625</LongitudeDegrees>
            </Position>
            <AltitudeMeters>156.600006103515625</AltitudeMeters>
            <DistanceMeters>68323.120724028</DistanceMeters>
          </Trackpoint>
          <Trackpoint>
            <Time>2018-04-21T12:58:26.000Z</Time>
            <Position>
              <LatitudeDegrees>43.28984457068145275115966796875</LatitudeDegrees>
              <LongitudeDegrees>-8.1831586919724941253662109375</LongitudeDegrees>
            </Position>
            <AltitudeMeters>155.399993896484375</AltitudeMeters>
            <DistanceMeters>68341.721217271</DistanceMeters>
          </Trackpoint>
          <Trackpoint>
            <Time>2018-04-21T12:58:28.000Z</Time>
            <Position>
              <LatitudeDegrees>43.28982646577060222625732421875</LatitudeDegrees>
              <LongitudeDegrees>-8.1833243183791637420654296875</LongitudeDegrees>
            </Position>
            <AltitudeMeters>153.1999969482421875</AltitudeMeters>
            <DistanceMeters>68355.290087106</DistanceMeters>
          </Trackpoint>
          <Trackpoint>
            <Time>2018-04-21T12:58:30.000Z</Time>
            <Position>
              <LatitudeDegrees>43.2898133061826229095458984375</LatitudeDegrees>
              <LongitudeDegrees>-8.18348449654877185821533203125</LongitudeDegrees>
            </Position>
            <AltitudeMeters>151.399993896484375</AltitudeMeters>
            <DistanceMeters>68368.349606768</DistanceMeters>
          </Trackpoint>
          <Trackpoint>
            <Time>2018-04-21T12:58:32.000Z</Time>
            <Position>
              <LatitudeDegrees>43.2898079417645931243896484375</LatitudeDegrees>
              <LongitudeDegrees>-8.18362430669367313385009765625</LongitudeDegrees>
            </Position>
            <AltitudeMeters>149.600006103515625</AltitudeMeters>
            <DistanceMeters>68379.692071187</DistanceMeters>
          </Trackpoint>
          <Trackpoint>
            <Time>2018-04-21T12:58:33.000Z</Time>
            <Position>
              <LatitudeDegrees>43.28982043080031871795654296875</LatitudeDegrees>
              <LongitudeDegrees>-8.18368717096745967864990234375</LongitudeDegrees>
            </Position>
            <AltitudeMeters>149</AltitudeMeters>
            <DistanceMeters>68384.970974094</DistanceMeters>
          </Trackpoint>
          <Trackpoint>
            <Time>2018-04-21T12:58:34.000Z</Time>
            <Position>
              <LatitudeDegrees>43.28983627259731292724609375</LatitudeDegrees>
              <LongitudeDegrees>-8.1837538070976734161376953125</LongitudeDegrees>
            </Position>
            <AltitudeMeters>148.399993896484375</AltitudeMeters>
            <DistanceMeters>68390.651155705</DistanceMeters>
          </Trackpoint>
          <Trackpoint>
            <Time>2018-04-21T12:58:37.000Z</Time>
            <Position>
              <LatitudeDegrees>43.2899723947048187255859375</LatitudeDegrees>
              <LongitudeDegrees>-8.1839140690863132476806640625</LongitudeDegrees>
            </Position>
            <AltitudeMeters>147.600006103515625</AltitudeMeters>
            <DistanceMeters>68410.604503054</DistanceMeters>
          </Trackpoint>
          <Trackpoint>
            <Time>2018-04-21T12:58:39.000Z</Time>
            <Position>
              <LatitudeDegrees>43.29010977409780025482177734375</LatitudeDegrees>
              <LongitudeDegrees>-8.18399973213672637939453125</LongitudeDegrees>
            </Position>
            <AltitudeMeters>147.600006103515625</AltitudeMeters>
            <DistanceMeters>68427.396559719</DistanceMeters>
          </Trackpoint>
          <Trackpoint>
            <Time>2018-04-21T12:58:40.000Z</Time>
            <Position>
              <LatitudeDegrees>43.29018454067409038543701171875</LatitudeDegrees>
              <LongitudeDegrees>-8.184045664966106414794921875</LongitudeDegrees>
            </Position>
            <AltitudeMeters>146.600006103515625</AltitudeMeters>
            <DistanceMeters>68436.512192634</DistanceMeters>
          </Trackpoint>
          <Trackpoint>
            <Time>2018-04-21T12:58:41.000Z</Time>
            <Position>
              <LatitudeDegrees>43.2902622409164905548095703125</LatitudeDegrees>
              <LongitudeDegrees>-8.1840937770903110504150390625</LongitudeDegrees>
            </Position>
            <AltitudeMeters>145.399993896484375</AltitudeMeters>
            <DistanceMeters>68445.99774384</DistanceMeters>
          </Trackpoint>
          <Trackpoint>
            <Time>2018-04-21T12:58:42.000Z</Time>
            <Position>
              <LatitudeDegrees>43.29034321010112762451171875</LatitudeDegrees>
              <LongitudeDegrees>-8.18413744680583477020263671875</LongitudeDegrees>
            </Position>
            <AltitudeMeters>145</AltitudeMeters>
            <DistanceMeters>68455.679282638</DistanceMeters>
          </Trackpoint>
          <Trackpoint>
            <Time>2018-04-21T12:58:44.000Z</Time>
            <Position>
              <LatitudeDegrees>43.2904981076717376708984375</LatitudeDegrees>
              <LongitudeDegrees>-8.18423551507294178009033203125</LongitudeDegrees>
            </Position>
            <AltitudeMeters>144.399993896484375</AltitudeMeters>
            <DistanceMeters>68474.662281099</DistanceMeters>
          </Trackpoint>
          <Trackpoint>
            <Time>2018-04-21T12:58:46.000Z</Time>
            <Position>
              <LatitudeDegrees>43.2906411029398441314697265625</LatitudeDegrees>
              <LongitudeDegrees>-8.18434037268161773681640625</LongitudeDegrees>
            </Position>
            <AltitudeMeters>142.8000030517578125</AltitudeMeters>
            <DistanceMeters>68492.703097191</DistanceMeters>
          </Trackpoint>
          <Trackpoint>
            <Time>2018-04-21T12:58:48.000Z</Time>
            <Position>
              <LatitudeDegrees>43.290761299431324005126953125</LatitudeDegrees>
              <LongitudeDegrees>-8.1844387762248516082763671875</LongitudeDegrees>
            </Position>
            <AltitudeMeters>141.600006103515625</AltitudeMeters>
            <DistanceMeters>68508.276175341</DistanceMeters>
          </Trackpoint>
          <Trackpoint>
            <Time>2018-04-21T12:58:50.000Z</Time>
            <Position>
              <LatitudeDegrees>43.29090303741395473480224609375</LatitudeDegrees>
              <LongitudeDegrees>-8.18454078398644924163818359375</LongitudeDegrees>
            </Position>
            <AltitudeMeters>140.1999969482421875</AltitudeMeters>
            <DistanceMeters>68526.085510112</DistanceMeters>
          </Trackpoint>
          <Trackpoint>
            <Time>2018-04-21T12:58:52.000Z</Time>
            <Position>
              <LatitudeDegrees>43.29106874763965606689453125</LatitudeDegrees>
              <LongitudeDegrees>-8.184642791748046875</LongitudeDegrees>
            </Position>
            <AltitudeMeters>139.8000030517578125</AltitudeMeters>
            <DistanceMeters>68546.296510533</DistanceMeters>
          </Trackpoint>
          <Trackpoint>
            <Time>2018-04-21T12:58:53.000Z</Time>
            <Position>
              <LatitudeDegrees>43.29115265049040317535400390625</LatitudeDegrees>
              <LongitudeDegrees>-8.1846966035664081573486328125</LongitudeDegrees>
            </Position>
            <AltitudeMeters>139.1999969482421875</AltitudeMeters>
            <DistanceMeters>68556.602857569</DistanceMeters>
          </Trackpoint>
          <Trackpoint>
            <Time>2018-04-21T12:58:54.000Z</Time>
            <Position>
              <LatitudeDegrees>43.2912355475127696990966796875</LatitudeDegrees>
              <LongitudeDegrees>-8.18475619889795780181884765625</LongitudeDegrees>
            </Position>
            <AltitudeMeters>138</AltitudeMeters>
            <DistanceMeters>68567.016415463</DistanceMeters>
          </Trackpoint>
          <Trackpoint>
            <Time>2018-04-21T12:58:55.000Z</Time>
            <Position>
              <LatitudeDegrees>43.291316516697406768798828125</LatitudeDegrees>
              <LongitudeDegrees>-8.1848122738301753997802734375</LongitudeDegrees>
            </Position>
            <AltitudeMeters>136.8000030517578125</AltitudeMeters>
            <DistanceMeters>68577.108950441</DistanceMeters>
          </Trackpoint>
          <Trackpoint>
            <Time>2018-04-21T12:58:56.000Z</Time>
            <Position>
              <LatitudeDegrees>43.29139941371977329254150390625</LatitudeDegrees>
              <LongitudeDegrees>-8.18486281670629978179931640625</LongitudeDegrees>
            </Position>
            <AltitudeMeters>135.1999969482421875</AltitudeMeters>
            <DistanceMeters>68587.203274717</DistanceMeters>
          </Trackpoint>
          <Trackpoint>
            <Time>2018-04-21T12:58:57.000Z</Time>
            <Position>
              <LatitudeDegrees>43.29148658551275730133056640625</LatitudeDegrees>
              <LongitudeDegrees>-8.18491226993501186370849609375</LongitudeDegrees>
            </Position>
            <AltitudeMeters>133.8000030517578125</AltitudeMeters>
            <DistanceMeters>68597.700178678</DistanceMeters>
          </Trackpoint>
          <Trackpoint>
            <Time>2018-04-21T12:58:59.000Z</Time>
            <Position>
              <LatitudeDegrees>43.2916704006493091583251953125</LatitudeDegrees>
              <LongitudeDegrees>-8.1849852763116359710693359375</LongitudeDegrees>
            </Position>
            <AltitudeMeters>132.8000030517578125</AltitudeMeters>
            <DistanceMeters>68618.996765717</DistanceMeters>
          </Trackpoint>
          <Trackpoint>
            <Time>2018-04-21T12:59:02.000Z</Time>
            <Position>
              <LatitudeDegrees>43.291978351771831512451171875</LatitudeDegrees>
              <LongitudeDegrees>-8.18504269234836101531982421875</LongitudeDegrees>
            </Position>
            <AltitudeMeters>131.600006103515625</AltitudeMeters>
            <DistanceMeters>68653.586489747</DistanceMeters>
          </Trackpoint>
          <Trackpoint>
            <Time>2018-04-21T12:59:03.000Z</Time>
            <Position>
              <LatitudeDegrees>43.29207533039152622222900390625</LatitudeDegrees>
              <LongitudeDegrees>-8.18506188690662384033203125</LongitudeDegrees>
            </Position>
            <AltitudeMeters>130.600006103515625</AltitudeMeters>
            <DistanceMeters>68664.491814445</DistanceMeters>
          </Trackpoint>
          <Trackpoint>
            <Time>2018-04-21T12:59:04.000Z</Time>
            <Position>
              <LatitudeDegrees>43.292165435850620269775390625</LatitudeDegrees>
              <LongitudeDegrees>-8.185078315436840057373046875</LongitudeDegrees>
            </Position>
            <AltitudeMeters>129.600006103515625</AltitudeMeters>
            <DistanceMeters>68674.608924531</DistanceMeters>
          </Trackpoint>
          <Trackpoint>
            <Time>2018-04-21T12:59:05.000Z</Time>
            <Position>
              <LatitudeDegrees>43.2922242768108844757080078125</LatitudeDegrees>
              <LongitudeDegrees>-8.1851046346127986907958984375</LongitudeDegrees>
            </Position>
            <AltitudeMeters>128</AltitudeMeters>
            <DistanceMeters>68681.496231085</DistanceMeters>
          </Trackpoint>
          <Trackpoint>
            <Time>2018-04-21T12:59:06.000Z</Time>
            <Position>
              <LatitudeDegrees>43.292276076972484588623046875</LatitudeDegrees>
              <LongitudeDegrees>-8.18512760102748870849609375</LongitudeDegrees>
            </Position>
            <AltitudeMeters>127</AltitudeMeters>
            <DistanceMeters>68687.555627987</DistanceMeters>
          </Trackpoint>
          <Trackpoint>
            <Time>2018-04-21T12:59:07.000Z</Time>
            <Position>
              <LatitudeDegrees>43.29233516938984394073486328125</LatitudeDegrees>
              <LongitudeDegrees>-8.18515836261212825775146484375</LongitudeDegrees>
            </Position>
            <AltitudeMeters>125.59999847412109375</AltitudeMeters>
            <DistanceMeters>68694.588888878</DistanceMeters>
          </Trackpoint>
          <Trackpoint>
            <Time>2018-04-21T12:59:09.000Z</Time>
            <Position>
              <LatitudeDegrees>43.29245670698583126068115234375</LatitudeDegrees>
              <LongitudeDegrees>-8.1852236576378345489501953125</LongitudeDegrees>
            </Position>
            <AltitudeMeters>124.40000152587890625</AltitudeMeters>
            <DistanceMeters>68709.113994937</DistanceMeters>
          </Trackpoint>
          <Trackpoint>
            <Time>2018-04-21T12:59:12.000Z</Time>
            <Position>
              <LatitudeDegrees>43.29266541637480258941650390625</LatitudeDegrees>
              <LongitudeDegrees>-8.1853208877146244049072265625</LongitudeDegrees>
            </Position>
            <AltitudeMeters>123.40000152587890625</AltitudeMeters>
            <DistanceMeters>68733.643038813</DistanceMeters>
          </Trackpoint>
          <Trackpoint>
            <Time>2018-04-21T12:59:13.000Z</Time>
            <Position>
              <LatitudeDegrees>43.2927084155380725860595703125</LatitudeDegrees>
              <LongitudeDegrees>-8.185337148606777191162109375</LongitudeDegrees>
            </Position>
            <AltitudeMeters>121.1999969482421875</AltitudeMeters>
            <DistanceMeters>68738.606308757</DistanceMeters>
          </Trackpoint>
          <Trackpoint>
            <Time>2018-04-21T12:59:15.000Z</Time>
            <Position>
              <LatitudeDegrees>43.2927533425390720367431640625</LatitudeDegrees>
              <LongitudeDegrees>-8.18536723963916301727294921875</LongitudeDegrees>
            </Position>
            <AltitudeMeters>120</AltitudeMeters>
            <DistanceMeters>68744.169228132</DistanceMeters>
          </Trackpoint>
          <Trackpoint>
            <Time>2018-04-21T12:59:19.000Z</Time>
            <Position>
              <LatitudeDegrees>43.29272928647696971893310546875</LatitudeDegrees>
              <LongitudeDegrees>-8.18546690046787261962890625</LongitudeDegrees>
            </Position>
            <AltitudeMeters>119</AltitudeMeters>
            <DistanceMeters>68752.67504805</DistanceMeters>
          </Trackpoint>
          <Trackpoint>
            <Time>2018-04-21T12:59:20.000Z</Time>
            <Position>
              <LatitudeDegrees>43.29271637834608554840087890625</LatitudeDegrees>
              <LongitudeDegrees>-8.18549229763448238372802734375</LongitudeDegrees>
            </Position>
            <AltitudeMeters>119</AltitudeMeters>
            <DistanceMeters>68755.18562435</DistanceMeters>
          </Trackpoint>
          <Trackpoint>
            <Time>2018-04-21T12:59:23.000Z</Time>
            <Position>
              <LatitudeDegrees>43.29267933033406734466552734375</LatitudeDegrees>
              <LongitudeDegrees>-8.18558936007320880889892578125</LongitudeDegrees>
            </Position>
            <AltitudeMeters>119.40000152587890625</AltitudeMeters>
            <DistanceMeters>68764.064394949</DistanceMeters>
          </Trackpoint>
          <Trackpoint>
            <Time>2018-04-21T12:59:26.000Z</Time>
            <Position>
              <LatitudeDegrees>43.29265259206295013427734375</LatitudeDegrees>
              <LongitudeDegrees>-8.1856605224311351776123046875</LongitudeDegrees>
            </Position>
            <AltitudeMeters>119.59999847412109375</AltitudeMeters>
            <DistanceMeters>68770.551316887</DistanceMeters>
          </Trackpoint>
          <Trackpoint>
            <Time>2018-04-21T12:59:31.000Z</Time>
            <Position>
              <LatitudeDegrees>43.29264060594141483306884765625</LatitudeDegrees>
              <LongitudeDegrees>-8.18568994291126728057861328125</LongitudeDegrees>
            </Position>
            <AltitudeMeters>119.1999969482421875</AltitudeMeters>
            <DistanceMeters>68773.282405158</DistanceMeters>
          </Trackpoint>
          <Trackpoint>
            <Time>2018-04-21T12:59:36.000Z</Time>
            <Position>
              <LatitudeDegrees>43.29261763952672481536865234375</LatitudeDegrees>
              <LongitudeDegrees>-8.18569564260542392730712890625</LongitudeDegrees>
            </Position>
            <AltitudeMeters>119.8000030517578125</AltitudeMeters>
            <DistanceMeters>68775.881346708</DistanceMeters>
          </Trackpoint>
          <Trackpoint>
            <Time>2018-04-21T12:59:37.000Z</Time>
            <Position>
              <LatitudeDegrees>43.29261193983256816864013671875</LatitudeDegrees>
              <LongitudeDegrees>-8.18572171032428741455078125</LongitudeDegrees>
            </Position>
            <AltitudeMeters>119.8000030517578125</AltitudeMeters>
            <DistanceMeters>68778.085474909</DistanceMeters>
          </Trackpoint>
          <Trackpoint>
            <Time>2018-04-21T12:59:38.000Z</Time>
            <Position>
              <LatitudeDegrees>43.29260741360485553741455078125</LatitudeDegrees>
              <LongitudeDegrees>-8.18575968034565448760986328125</LongitudeDegrees>
            </Position>
            <AltitudeMeters>120</AltitudeMeters>
            <DistanceMeters>68781.202582904</DistanceMeters>
          </Trackpoint>
          <Trackpoint>
            <Time>2018-04-21T12:59:41.000Z</Time>
            <Position>
              <LatitudeDegrees>43.29261613078415393829345703125</LatitudeDegrees>
              <LongitudeDegrees>-8.185852132737636566162109375</LongitudeDegrees>
            </Position>
            <AltitudeMeters>120.8000030517578125</AltitudeMeters>
            <DistanceMeters>68788.754666247</DistanceMeters>
          </Trackpoint>
          <Trackpoint>
            <Time>2018-04-21T12:59:42.000Z</Time>
            <Position>
              <LatitudeDegrees>43.292618729174137115478515625</LatitudeDegrees>
              <LongitudeDegrees>-8.1858932040631771087646484375</LongitudeDegrees>
            </Position>
            <AltitudeMeters>120.8000030517578125</AltitudeMeters>
            <DistanceMeters>68792.095500647</DistanceMeters>
          </Trackpoint>
          <Trackpoint>
            <Time>2018-04-21T12:59:44.000Z</Time>
            <Position>
              <LatitudeDegrees>43.292624093592166900634765625</LatitudeDegrees>
              <LongitudeDegrees>-8.1859743408858776092529296875</LongitudeDegrees>
            </Position>
            <AltitudeMeters>120.40000152587890625</AltitudeMeters>
            <DistanceMeters>68798.694899005</DistanceMeters>
          </Trackpoint>
          <Trackpoint>
            <Time>2018-04-21T12:59:48.000Z</Time>
            <Position>
              <LatitudeDegrees>43.2926162146031856536865234375</LatitudeDegrees>
              <LongitudeDegrees>-8.186133764684200286865234375</LongitudeDegrees>
            </Position>
            <AltitudeMeters>120.40000152587890625</AltitudeMeters>
            <DistanceMeters>68811.640174539</DistanceMeters>
          </Trackpoint>
          <Trackpoint>
            <Time>2018-04-21T12:59:49.000Z</Time>
            <Position>
              <LatitudeDegrees>43.2926038093864917755126953125</LatitudeDegrees>
              <LongitudeDegrees>-8.18617156706750392913818359375</LongitudeDegrees>
            </Position>
            <AltitudeMeters>120.59999847412109375</AltitudeMeters>
            <DistanceMeters>68814.999876245</DistanceMeters>
          </Trackpoint>
          <Trackpoint>
            <Time>2018-04-21T12:59:54.000Z</Time>
            <Position>
              <LatitudeDegrees>43.2925478182733058929443359375</LatitudeDegrees>
              <LongitudeDegrees>-8.18632763810455799102783203125</LongitudeDegrees>
            </Position>
            <AltitudeMeters>120.8000030517578125</AltitudeMeters>
            <DistanceMeters>68829.095897034</DistanceMeters>
          </Trackpoint>
          <Trackpoint>
            <Time>2018-04-21T12:59:57.000Z</Time>
            <Position>
              <LatitudeDegrees>43.2925028912723064422607421875</LatitudeDegrees>
              <LongitudeDegrees>-8.18639486096799373626708984375</LongitudeDegrees>
            </Position>
            <AltitudeMeters>121.1999969482421875</AltitudeMeters>
            <DistanceMeters>68836.489683803</DistanceMeters>
          </Trackpoint>
          <Trackpoint>
            <Time>2018-04-21T12:59:59.000Z</Time>
            <Position>
              <LatitudeDegrees>43.29245704226195812225341796875</LatitudeDegrees>
              <LongitudeDegrees>-8.18643559701740741729736328125</LongitudeDegrees>
            </Position>
            <AltitudeMeters>121</AltitudeMeters>
            <DistanceMeters>68842.566937513</DistanceMeters>
          </Trackpoint>
          <Trackpoint>
            <Time>2018-04-21T13:00:05.000Z</Time>
            <Position>
              <LatitudeDegrees>43.29229594208300113677978515625</LatitudeDegrees>
              <LongitudeDegrees>-8.18668185733258724212646484375</LongitudeDegrees>
            </Position>
            <AltitudeMeters>120</AltitudeMeters>
            <DistanceMeters>68869.390742073</DistanceMeters>
          </Trackpoint>
          <Trackpoint>
            <Time>2018-04-21T13:00:09.000Z</Time>
            <Position>
              <LatitudeDegrees>43.29214339144527912139892578125</LatitudeDegrees>
              <LongitudeDegrees>-8.18685167469084262847900390625</LongitudeDegrees>
            </Position>
            <AltitudeMeters>119</AltitudeMeters>
            <DistanceMeters>68891.243994069</DistanceMeters>
          </Trackpoint>
          <Trackpoint>
            <Time>2018-04-21T13:00:10.000Z</Time>
            <Position>
              <LatitudeDegrees>43.29209645278751850128173828125</LatitudeDegrees>
              <LongitudeDegrees>-8.186890818178653717041015625</LongitudeDegrees>
            </Position>
            <AltitudeMeters>118.59999847412109375</AltitudeMeters>
            <DistanceMeters>68897.355327489</DistanceMeters>
          </Trackpoint>
          <Trackpoint>
            <Time>2018-04-21T13:00:13.000Z</Time>
            <Position>
              <LatitudeDegrees>43.2920254580676555633544921875</LatitudeDegrees>
              <LongitudeDegrees>-8.1869768165051937103271484375</LongitudeDegrees>
            </Position>
            <AltitudeMeters>117.59999847412109375</AltitudeMeters>
            <DistanceMeters>68907.890014931</DistanceMeters>
          </Trackpoint>
          <Trackpoint>
            <Time>2018-04-21T13:00:14.000Z</Time>
            <Position>
              <LatitudeDegrees>43.29201162792742252349853515625</LatitudeDegrees>
              <LongitudeDegrees>-8.18701780401170253753662109375</LongitudeDegrees>
            </Position>
            <AltitudeMeters>117.40000152587890625</AltitudeMeters>
            <DistanceMeters>68911.550702495</DistanceMeters>
          </Trackpoint>
          <Trackpoint>
            <Time>2018-04-21T13:00:18.000Z</Time>
            <Position>
              <LatitudeDegrees>43.2919342629611492156982421875</LatitudeDegrees>
              <LongitudeDegrees>-8.1871922314167022705078125</LongitudeDegrees>
            </Position>
            <AltitudeMeters>116.59999847412109375</AltitudeMeters>
            <DistanceMeters>68928.098452738</DistanceMeters>
          </Trackpoint>
          <Trackpoint>
            <Time>2018-04-21T13:00:23.000Z</Time>
            <Position>
              <LatitudeDegrees>43.2917921058833599090576171875</LatitudeDegrees>
              <LongitudeDegrees>-8.18741560913622379302978515625</LongitudeDegrees>
            </Position>
            <AltitudeMeters>117</AltitudeMeters>
            <DistanceMeters>68952.136643012</DistanceMeters>
          </Trackpoint>
          <Trackpoint>
            <Time>2018-04-21T13:00:29.000Z</Time>
            <Position>
              <LatitudeDegrees>43.291712142527103424072265625</LatitudeDegrees>
              <LongitudeDegrees>-8.18768885917961597442626953125</LongitudeDegrees>
            </Position>
            <AltitudeMeters>116.8000030517578125</AltitudeMeters>
            <DistanceMeters>68975.99572973</DistanceMeters>
          </Trackpoint>
          <Trackpoint>
            <Time>2018-04-21T13:00:36.000Z</Time>
            <Position>
              <LatitudeDegrees>43.2915844023227691650390625</LatitudeDegrees>
              <LongitudeDegrees>-8.1881026737391948699951171875</LongitudeDegrees>
            </Position>
            <AltitudeMeters>116</AltitudeMeters>
            <DistanceMeters>69012.410680858</DistanceMeters>
          </Trackpoint>
          <Trackpoint>
            <Time>2018-04-21T13:00:38.000Z</Time>
            <Position>
              <LatitudeDegrees>43.29154408536851406097412109375</LatitudeDegrees>
              <LongitudeDegrees>-8.1881821341812610626220703125</LongitudeDegrees>
            </Position>
            <AltitudeMeters>115.1999969482421875</AltitudeMeters>
            <DistanceMeters>69020.257724331</DistanceMeters>
          </Trackpoint>
          <Trackpoint>
            <Time>2018-04-21T13:00:40.000Z</Time>
            <Position>
              <LatitudeDegrees>43.29150594770908355712890625</LatitudeDegrees>
              <LongitudeDegrees>-8.18822748027741909027099609375</LongitudeDegrees>
            </Position>
            <AltitudeMeters>115</AltitudeMeters>
            <DistanceMeters>69025.872347815</DistanceMeters>
          </Trackpoint>
          <Trackpoint>
            <Time>2018-04-21T13:00:47.000Z</Time>
            <Position>
              <LatitudeDegrees>43.29135800711810588836669921875</LatitudeDegrees>
              <LongitudeDegrees>-8.18832881748676300048828125</LongitudeDegrees>
            </Position>
            <AltitudeMeters>114.8000030517578125</AltitudeMeters>
            <DistanceMeters>69044.271738182</DistanceMeters>
          </Trackpoint>
          <Trackpoint>
            <Time>2018-04-21T13:00:52.000Z</Time>
            <Position>
              <LatitudeDegrees>43.2912974059581756591796875</LatitudeDegrees>
              <LongitudeDegrees>-8.1883846409618854522705078125</LongitudeDegrees>
            </Position>
            <AltitudeMeters>114.8000030517578125</AltitudeMeters>
            <DistanceMeters>69052.393048319</DistanceMeters>
          </Trackpoint>
          <Trackpoint>
            <Time>2018-04-21T13:00:53.000Z</Time>
            <Position>
              <LatitudeDegrees>43.29129866324365139007568359375</LatitudeDegrees>
              <LongitudeDegrees>-8.1884141452610492706298828125</LongitudeDegrees>
            </Position>
            <AltitudeMeters>114.8000030517578125</AltitudeMeters>
            <DistanceMeters>69054.787646102</DistanceMeters>
          </Trackpoint>
          <Trackpoint>
            <Time>2018-04-21T13:00:56.000Z</Time>
            <Position>
              <LatitudeDegrees>43.2912623696029186248779296875</LatitudeDegrees>
              <LongitudeDegrees>-8.1884845532476902008056640625</LongitudeDegrees>
            </Position>
            <AltitudeMeters>114</AltitudeMeters>
            <DistanceMeters>69061.777117725</DistanceMeters>
          </Trackpoint>
          <Trackpoint>
            <Time>2018-04-21T13:00:57.000Z</Time>
            <Position>
              <LatitudeDegrees>43.2912529818713665008544921875</LatitudeDegrees>
              <LongitudeDegrees>-8.18850542418658733367919921875</LongitudeDegrees>
            </Position>
            <AltitudeMeters>114.1999969482421875</AltitudeMeters>
            <DistanceMeters>69063.765879521</DistanceMeters>
          </Trackpoint>
          <Trackpoint>
            <Time>2018-04-21T13:01:02.000Z</Time>
            <Position>
              <LatitudeDegrees>43.291162960231304168701171875</LatitudeDegrees>
              <LongitudeDegrees>-8.1885888241231441497802734375</LongitudeDegrees>
            </Position>
            <AltitudeMeters>114.8000030517578125</AltitudeMeters>
            <DistanceMeters>69075.850348738</DistanceMeters>
          </Trackpoint>
          <Trackpoint>
            <Time>2018-04-21T13:01:03.000Z</Time>
            <Position>
              <LatitudeDegrees>43.29114787280559539794921875</LatitudeDegrees>
              <LongitudeDegrees>-8.188603408634662628173828125</LongitudeDegrees>
            </Position>
            <AltitudeMeters>114.8000030517578125</AltitudeMeters>
            <DistanceMeters>69077.903893405</DistanceMeters>
          </Trackpoint>
          <Trackpoint>
            <Time>2018-04-21T13:01:06.000Z</Time>
            <Position>
              <LatitudeDegrees>43.2910893671214580535888671875</LatitudeDegrees>
              <LongitudeDegrees>-8.18866400979459285736083984375</LongitudeDegrees>
            </Position>
            <AltitudeMeters>114.8000030517578125</AltitudeMeters>
            <DistanceMeters>69086.058492287</DistanceMeters>
          </Trackpoint>
          <Trackpoint>
            <Time>2018-04-21T13:01:08.000Z</Time>
            <Position>
              <LatitudeDegrees>43.2910343818366527557373046875</LatitudeDegrees>
              <LongitudeDegrees>-8.1887480802834033966064453125</LongitudeDegrees>
            </Position>
            <AltitudeMeters>113.59999847412109375</AltitudeMeters>
            <DistanceMeters>69095.214650308</DistanceMeters>
          </Trackpoint>
          <Trackpoint>
            <Time>2018-04-21T13:01:11.000Z</Time>
            <Position>
              <LatitudeDegrees>43.29095902852714061737060546875</LatitudeDegrees>
              <LongitudeDegrees>-8.188881687819957733154296875</LongitudeDegrees>
            </Position>
            <AltitudeMeters>112.8000030517578125</AltitudeMeters>
            <DistanceMeters>69108.908062497</DistanceMeters>
          </Trackpoint>
          <Trackpoint>
            <Time>2018-04-21T13:01:14.000Z</Time>
            <Position>
              <LatitudeDegrees>43.29088794998824596405029296875</LatitudeDegrees>
              <LongitudeDegrees>-8.18906910717487335205078125</LongitudeDegrees>
            </Position>
            <AltitudeMeters>111.40000152587890625</AltitudeMeters>
            <DistanceMeters>69126.029228973</DistanceMeters>
          </Trackpoint>
          <Trackpoint>
            <Time>2018-04-21T13:01:15.000Z</Time>
            <Position>
              <LatitudeDegrees>43.2908550091087818145751953125</LatitudeDegrees>
              <LongitudeDegrees>-8.18913473747670650482177734375</LongitudeDegrees>
            </Position>
            <AltitudeMeters>111</AltitudeMeters>
            <DistanceMeters>69132.488250042</DistanceMeters>
          </Trackpoint>
          <Trackpoint>
            <Time>2018-04-21T13:01:19.000Z</Time>
            <Position>
              <LatitudeDegrees>43.29070120118558406829833984375</LatitudeDegrees>
              <LongitudeDegrees>-8.18927555344998836517333984375</LongitudeDegrees>
            </Position>
            <AltitudeMeters>111.59999847412109375</AltitudeMeters>
            <DistanceMeters>69153.060600972</DistanceMeters>
          </Trackpoint>
          <Trackpoint>
            <Time>2018-04-21T13:01:22.000Z</Time>
            <Position>
              <LatitudeDegrees>43.29059399664402008056640625</LatitudeDegrees>
              <LongitudeDegrees>-8.18938753567636013031005859375</LongitudeDegrees>
            </Position>
            <AltitudeMeters>112.40000152587890625</AltitudeMeters>
            <DistanceMeters>69168.049841513</DistanceMeters>
          </Trackpoint>
          <Trackpoint>
            <Time>2018-04-21T13:01:23.000Z</Time>
            <Position>
              <LatitudeDegrees>43.29057790338993072509765625</LatitudeDegrees>
              <LongitudeDegrees>-8.1894166208803653717041015625</LongitudeDegrees>
            </Position>
            <AltitudeMeters>112.40000152587890625</AltitudeMeters>
            <DistanceMeters>69171.009431713</DistanceMeters>
          </Trackpoint>
          <Trackpoint>
            <Time>2018-04-21T13:01:27.000Z</Time>
            <Position>
              <LatitudeDegrees>43.290487043559551239013671875</LatitudeDegrees>
              <LongitudeDegrees>-8.18948325701057910919189453125</LongitudeDegrees>
            </Position>
            <AltitudeMeters>113.1999969482421875</AltitudeMeters>
            <DistanceMeters>69182.473056903</DistanceMeters>
          </Trackpoint>
          <Trackpoint>
            <Time>2018-04-21T13:01:29.000Z</Time>
            <Position>
              <LatitudeDegrees>43.2904580421745777130126953125</LatitudeDegrees>
              <LongitudeDegrees>-8.18948392756283283233642578125</LongitudeDegrees>
            </Position>
            <AltitudeMeters>113.59999847412109375</AltitudeMeters>
            <DistanceMeters>69185.702567437</DistanceMeters>
          </Trackpoint>
          <Trackpoint>
            <Time>2018-04-21T13:01:31.000Z</Time>
            <Position>
              <LatitudeDegrees>43.29041135497391223907470703125</LatitudeDegrees>
              <LongitudeDegrees>-8.1894665770232677459716796875</LongitudeDegrees>
            </Position>
            <AltitudeMeters>113.8000030517578125</AltitudeMeters>
            <DistanceMeters>69191.08648287</DistanceMeters>
          </Trackpoint>
          <Trackpoint>
            <Time>2018-04-21T13:01:33.000Z</Time>
            <Position>
              <LatitudeDegrees>43.2903869636356830596923828125</LatitudeDegrees>
              <LongitudeDegrees>-8.18943212740123271942138671875</LongitudeDegrees>
            </Position>
            <AltitudeMeters>114.8000030517578125</AltitudeMeters>
            <DistanceMeters>69194.981419124</DistanceMeters>
          </Trackpoint>
          <Trackpoint>
            <Time>2018-04-21T13:01:34.000Z</Time>
            <Position>
              <LatitudeDegrees>43.29036961309611797332763671875</LatitudeDegrees>
              <LongitudeDegrees>-8.18941251374781131744384765625</LongitudeDegrees>
            </Position>
            <AltitudeMeters>114.8000030517578125</AltitudeMeters>
            <DistanceMeters>69197.482987228</DistanceMeters>
          </Trackpoint>
          <Trackpoint>
            <Time>2018-04-21T13:01:37.000Z</Time>
            <Position>
              <LatitudeDegrees>43.29031378962099552154541015625</LatitudeDegrees>
              <LongitudeDegrees>-8.189371861517429351806640625</LongitudeDegrees>
            </Position>
            <AltitudeMeters>115.1999969482421875</AltitudeMeters>
            <DistanceMeters>69204.515606134</DistanceMeters>
          </Trackpoint>
          <Trackpoint>
            <Time>2018-04-21T13:01:39.000Z</Time>
            <Position>
              <LatitudeDegrees>43.29027037136256694793701171875</LatitudeDegrees>
              <LongitudeDegrees>-8.189367167651653289794921875</LongitudeDegrees>
            </Position>
            <AltitudeMeters>116</AltitudeMeters>
            <DistanceMeters>69209.363831478</DistanceMeters>
          </Trackpoint>
          <Trackpoint>
            <Time>2018-04-21T13:01:40.000Z</Time>
            <Position>
              <LatitudeDegrees>43.29026232473552227020263671875</LatitudeDegrees>
              <LongitudeDegrees>-8.18936926312744617462158203125</LongitudeDegrees>
            </Position>
            <AltitudeMeters>116</AltitudeMeters>
            <DistanceMeters>69210.275295703</DistanceMeters>
          </Trackpoint>
          <Trackpoint>
            <Time>2018-04-21T13:01:41.000Z</Time>
            <Position>
              <LatitudeDegrees>43.29025092534720897674560546875</LatitudeDegrees>
              <LongitudeDegrees>-8.18938703276216983795166015625</LongitudeDegrees>
            </Position>
            <AltitudeMeters>116</AltitudeMeters>
            <DistanceMeters>69212.194741245</DistanceMeters>
          </Trackpoint>
          <Trackpoint>
            <Time>2018-04-21T13:01:44.000Z</Time>
            <Position>
              <LatitudeDegrees>43.29025897197425365447998046875</LatitudeDegrees>
              <LongitudeDegrees>-8.18949314765632152557373046875</LongitudeDegrees>
            </Position>
            <AltitudeMeters>115.8000030517578125</AltitudeMeters>
            <DistanceMeters>69220.838516606</DistanceMeters>
          </Trackpoint>
          <Trackpoint>
            <Time>2018-04-21T13:01:47.000Z</Time>
            <Position>
              <LatitudeDegrees>43.2902575470507144927978515625</LatitudeDegrees>
              <LongitudeDegrees>-8.1896840035915374755859375</LongitudeDegrees>
            </Position>
            <AltitudeMeters>115</AltitudeMeters>
            <DistanceMeters>69236.301322434</DistanceMeters>
          </Trackpoint>
          <Trackpoint>
            <Time>2018-04-21T13:01:48.000Z</Time>
            <Position>
              <LatitudeDegrees>43.29024120233952999114990234375</LatitudeDegrees>
              <LongitudeDegrees>-8.1897591054439544677734375</LongitudeDegrees>
            </Position>
            <AltitudeMeters>114.40000152587890625</AltitudeMeters>
            <DistanceMeters>69242.651780796</DistanceMeters>
          </Trackpoint>
          <Trackpoint>
            <Time>2018-04-21T13:01:50.000Z</Time>
            <Position>
              <LatitudeDegrees>43.29019124619662761688232421875</LatitudeDegrees>
              <LongitudeDegrees>-8.18989782594144344329833984375</LongitudeDegrees>
            </Position>
            <AltitudeMeters>113</AltitudeMeters>
            <DistanceMeters>69255.190626874</DistanceMeters>
          </Trackpoint>
          <Trackpoint>
            <Time>2018-04-21T13:01:52.000Z</Time>
            <Position>
              <LatitudeDegrees>43.290094435214996337890625</LatitudeDegrees>
              <LongitudeDegrees>-8.190053813159465789794921875</LongitudeDegrees>
            </Position>
            <AltitudeMeters>111.1999969482421875</AltitudeMeters>
            <DistanceMeters>69271.798023564</DistanceMeters>
          </Trackpoint>
          <Trackpoint>
            <Time>2018-04-21T13:01:54.000Z</Time>
            <Position>
              <LatitudeDegrees>43.28998739831149578094482421875</LatitudeDegrees>
              <LongitudeDegrees>-8.1901813857257366180419921875</LongitudeDegrees>
            </Position>
            <AltitudeMeters>109.59999847412109375</AltitudeMeters>
            <DistanceMeters>69287.569595639</DistanceMeters>
          </Trackpoint>
          <Trackpoint>
            <Time>2018-04-21T13:01:55.000Z</Time>
            <Position>
              <LatitudeDegrees>43.28993140719830989837646484375</LatitudeDegrees>
              <LongitudeDegrees>-8.1902336888015270233154296875</LongitudeDegrees>
            </Position>
            <AltitudeMeters>108.40000152587890625</AltitudeMeters>
            <DistanceMeters>69295.105519654</DistanceMeters>
          </Trackpoint>
          <Trackpoint>
            <Time>2018-04-21T13:01:56.000Z</Time>
            <Position>
              <LatitudeDegrees>43.28986938111484050750732421875</LatitudeDegrees>
              <LongitudeDegrees>-8.19029697217047214508056640625</LongitudeDegrees>
            </Position>
            <AltitudeMeters>107</AltitudeMeters>
            <DistanceMeters>69303.705306051</DistanceMeters>
          </Trackpoint>
          <Trackpoint>
            <Time>2018-04-21T13:01:58.000Z</Time>
            <Position>
              <LatitudeDegrees>43.28974063508212566375732421875</LatitudeDegrees>
              <LongitudeDegrees>-8.19043426774442195892333984375</LongitudeDegrees>
            </Position>
            <AltitudeMeters>105.40000152587890625</AltitudeMeters>
            <DistanceMeters>69321.845206426</DistanceMeters>
          </Trackpoint>
          <Trackpoint>
            <Time>2018-04-21T13:01:59.000Z</Time>
            <Position>
              <LatitudeDegrees>43.289673328399658203125</LatitudeDegrees>
              <LongitudeDegrees>-8.19050584919750690460205078125</LongitudeDegrees>
            </Position>
            <AltitudeMeters>104</AltitudeMeters>
            <DistanceMeters>69331.318373779</DistanceMeters>
          </Trackpoint>
          <Trackpoint>
            <Time>2018-04-21T13:02:00.000Z</Time>
            <Position>
              <LatitudeDegrees>43.28960518352687358856201171875</LatitudeDegrees>
              <LongitudeDegrees>-8.19059528410434722900390625</LongitudeDegrees>
            </Position>
            <AltitudeMeters>102.40000152587890625</AltitudeMeters>
            <DistanceMeters>69341.807532534</DistanceMeters>
          </Trackpoint>
          <Trackpoint>
            <Time>2018-04-21T13:02:01.000Z</Time>
            <Position>
              <LatitudeDegrees>43.28953846357762813568115234375</LatitudeDegrees>
              <LongitudeDegrees>-8.19069393910467624664306640625</LongitudeDegrees>
            </Position>
            <AltitudeMeters>101</AltitudeMeters>
            <DistanceMeters>69352.717410518</DistanceMeters>
          </Trackpoint>
          <Trackpoint>
            <Time>2018-04-21T13:02:02.000Z</Time>
            <Position>
              <LatitudeDegrees>43.2894753478467464447021484375</LatitudeDegrees>
              <LongitudeDegrees>-8.19079536013305187225341796875</LongitudeDegrees>
            </Position>
            <AltitudeMeters>98.8000030517578125</AltitudeMeters>
            <DistanceMeters>69363.527926201</DistanceMeters>
          </Trackpoint>
          <Trackpoint>
            <Time>2018-04-21T13:02:03.000Z</Time>
            <Position>
              <LatitudeDegrees>43.28942346386611461639404296875</LatitudeDegrees>
              <LongitudeDegrees>-8.190905749797821044921875</LongitudeDegrees>
            </Position>
            <AltitudeMeters>97.59999847412109375</AltitudeMeters>
            <DistanceMeters>69374.173463264</DistanceMeters>
          </Trackpoint>
          <Trackpoint>
            <Time>2018-04-21T13:02:05.000Z</Time>
            <Position>
              <LatitudeDegrees>43.2893445901572704315185546875</LatitudeDegrees>
              <LongitudeDegrees>-8.19113784469664096832275390625</LongitudeDegrees>
            </Position>
            <AltitudeMeters>96</AltitudeMeters>
            <DistanceMeters>69394.925435354</DistanceMeters>
          </Trackpoint>
          <Trackpoint>
            <Time>2018-04-21T13:02:06.000Z</Time>
            <Position>
              <LatitudeDegrees>43.289310224354267120361328125</LatitudeDegrees>
              <LongitudeDegrees>-8.19125770591199398040771484375</LongitudeDegrees>
            </Position>
            <AltitudeMeters>94.40000152587890625</AltitudeMeters>
            <DistanceMeters>69405.362379933</DistanceMeters>
          </Trackpoint>
          <Trackpoint>
            <Time>2018-04-21T13:02:07.000Z</Time>
            <Position>
              <LatitudeDegrees>43.28927376307547092437744140625</LatitudeDegrees>
              <LongitudeDegrees>-8.1913692690432071685791015625</LongitudeDegrees>
            </Position>
            <AltitudeMeters>93</AltitudeMeters>
            <DistanceMeters>69415.270253621</DistanceMeters>
          </Trackpoint>
          <Trackpoint>
            <Time>2018-04-21T13:02:08.000Z</Time>
            <Position>
              <LatitudeDegrees>43.2892334461212158203125</LatitudeDegrees>
              <LongitudeDegrees>-8.19148150272667407989501953125</LongitudeDegrees>
            </Position>
            <AltitudeMeters>91.59999847412109375</AltitudeMeters>
            <DistanceMeters>69425.409653027</DistanceMeters>
          </Trackpoint>
          <Trackpoint>
            <Time>2018-04-21T13:02:09.000Z</Time>
            <Position>
              <LatitudeDegrees>43.28918717801570892333984375</LatitudeDegrees>
              <LongitudeDegrees>-8.19158795289695262908935546875</LongitudeDegrees>
            </Position>
            <AltitudeMeters>90.40000152587890625</AltitudeMeters>
            <DistanceMeters>69435.454205984</DistanceMeters>
          </Trackpoint>
          <Trackpoint>
            <Time>2018-04-21T13:02:10.000Z</Time>
            <Position>
              <LatitudeDegrees>43.289141245186328887939453125</LatitudeDegrees>
              <LongitudeDegrees>-8.1916891224682331085205078125</LongitudeDegrees>
            </Position>
            <AltitudeMeters>88.59999847412109375</AltitudeMeters>
            <DistanceMeters>69445.114268612</DistanceMeters>
          </Trackpoint>
          <Trackpoint>
            <Time>2018-04-21T13:02:11.000Z</Time>
            <Position>
              <LatitudeDegrees>43.2890958152711391448974609375</LatitudeDegrees>
              <LongitudeDegrees>-8.19177973084151744842529296875</LongitudeDegrees>
            </Position>
            <AltitudeMeters>86.59999847412109375</AltitudeMeters>
            <DistanceMeters>69454.028564586</DistanceMeters>
          </Trackpoint>
          <Trackpoint>
            <Time>2018-04-21T13:02:12.000Z</Time>
            <Position>
              <LatitudeDegrees>43.28904636204242706298828125</LatitudeDegrees>
              <LongitudeDegrees>-8.19186740554869174957275390625</LongitudeDegrees>
            </Position>
            <AltitudeMeters>85</AltitudeMeters>
            <DistanceMeters>69463.01499734</DistanceMeters>
          </Trackpoint>
          <Trackpoint>
            <Time>2018-04-21T13:02:14.000Z</Time>
            <Position>
              <LatitudeDegrees>43.28893370926380157470703125</LatitudeDegrees>
              <LongitudeDegrees>-8.19202682934701442718505859375</LongitudeDegrees>
            </Position>
            <AltitudeMeters>83.59999847412109375</AltitudeMeters>
            <DistanceMeters>69481.015976844</DistanceMeters>
          </Trackpoint>
          <Trackpoint>
            <Time>2018-04-21T13:02:16.000Z</Time>
            <Position>
              <LatitudeDegrees>43.2888109982013702392578125</LatitudeDegrees>
              <LongitudeDegrees>-8.19219346158206462860107421875</LongitudeDegrees>
            </Position>
            <AltitudeMeters>81.8000030517578125</AltitudeMeters>
            <DistanceMeters>69500.220074116</DistanceMeters>
          </Trackpoint>
          <Trackpoint>
            <Time>2018-04-21T13:02:17.000Z</Time>
            <Position>
              <LatitudeDegrees>43.2887548394501209259033203125</LatitudeDegrees>
              <LongitudeDegrees>-8.192304857075214385986328125</LongitudeDegrees>
            </Position>
            <AltitudeMeters>81.40000152587890625</AltitudeMeters>
            <DistanceMeters>69511.198847289</DistanceMeters>
          </Trackpoint>
          <Trackpoint>
            <Time>2018-04-21T13:02:19.000Z</Time>
            <Position>
              <LatitudeDegrees>43.28866892494261264801025390625</LatitudeDegrees>
              <LongitudeDegrees>-8.1925263069570064544677734375</LongitudeDegrees>
            </Position>
            <AltitudeMeters>80.8000030517578125</AltitudeMeters>
            <DistanceMeters>69531.529679027</DistanceMeters>
          </Trackpoint>
          <Trackpoint>
            <Time>2018-04-21T13:02:23.000Z</Time>
            <Position>
              <LatitudeDegrees>43.2886089943349361419677734375</LatitudeDegrees>
              <LongitudeDegrees>-8.19299812428653240203857421875</LongitudeDegrees>
            </Position>
            <AltitudeMeters>80</AltitudeMeters>
            <DistanceMeters>69570.332939282</DistanceMeters>
          </Trackpoint>
          <Trackpoint>
            <Time>2018-04-21T13:02:24.000Z</Time>
            <Position>
              <LatitudeDegrees>43.28859650529921054840087890625</LatitudeDegrees>
              <LongitudeDegrees>-8.19310759194195270538330078125</LongitudeDegrees>
            </Position>
            <AltitudeMeters>78.59999847412109375</AltitudeMeters>
            <DistanceMeters>69579.310323771</DistanceMeters>
          </Trackpoint>
          <Trackpoint>
            <Time>2018-04-21T13:02:30.000Z</Time>
            <Position>
              <LatitudeDegrees>43.28851000405848026275634765625</LatitudeDegrees>
              <LongitudeDegrees>-8.19370371289551258087158203125</LongitudeDegrees>
            </Position>
            <AltitudeMeters>78.40000152587890625</AltitudeMeters>
            <DistanceMeters>69628.557179314</DistanceMeters>
          </Trackpoint>
          <Trackpoint>
            <Time>2018-04-21T13:02:33.000Z</Time>
            <Position>
              <LatitudeDegrees>43.28844060190021991729736328125</LatitudeDegrees>
              <LongitudeDegrees>-8.19394796155393123626708984375</LongitudeDegrees>
            </Position>
            <AltitudeMeters>77.59999847412109375</AltitudeMeters>
            <DistanceMeters>69649.799848169</DistanceMeters>
          </Trackpoint>
          <Trackpoint>
            <Time>2018-04-21T13:02:35.000Z</Time>
            <Position>
              <LatitudeDegrees>43.28841947950422763824462890625</LatitudeDegrees>
              <LongitudeDegrees>-8.19412582553923130035400390625</LongitudeDegrees>
            </Position>
            <AltitudeMeters>77.40000152587890625</AltitudeMeters>
            <DistanceMeters>69664.400603104</DistanceMeters>
          </Trackpoint>
          <Trackpoint>
            <Time>2018-04-21T13:02:41.000Z</Time>
            <Position>
              <LatitudeDegrees>43.288411013782024383544921875</LatitudeDegrees>
              <LongitudeDegrees>-8.194637708365917205810546875</LongitudeDegrees>
            </Position>
            <AltitudeMeters>78</AltitudeMeters>
            <DistanceMeters>69705.883002111</DistanceMeters>
          </Trackpoint>
          <Trackpoint>
            <Time>2018-04-21T13:02:46.000Z</Time>
            <Position>
              <LatitudeDegrees>43.2884323038160800933837890625</LatitudeDegrees>
              <LongitudeDegrees>-8.19498161785304546356201171875</LongitudeDegrees>
            </Position>
            <AltitudeMeters>78.8000030517578125</AltitudeMeters>
            <DistanceMeters>69733.846540329</DistanceMeters>
          </Trackpoint>
          <Trackpoint>
            <Time>2018-04-21T13:02:47.000Z</Time>
            <Position>
              <LatitudeDegrees>43.288441188633441925048828125</LatitudeDegrees>
              <LongitudeDegrees>-8.1950365193188190460205078125</LongitudeDegrees>
            </Position>
            <AltitudeMeters>78.40000152587890625</AltitudeMeters>
            <DistanceMeters>69738.401879577</DistanceMeters>
          </Trackpoint>
          <Trackpoint>
            <Time>2018-04-21T13:02:48.000Z</Time>
            <Position>
              <LatitudeDegrees>43.2884594611823558807373046875</LatitudeDegrees>
              <LongitudeDegrees>-8.1950908340513706207275390625</LongitudeDegrees>
            </Position>
            <AltitudeMeters>78.40000152587890625</AltitudeMeters>
            <DistanceMeters>69743.249173555</DistanceMeters>
          </Trackpoint>
          <Trackpoint>
            <Time>2018-04-21T13:02:50.000Z</Time>
            <Position>
              <LatitudeDegrees>43.288508914411067962646484375</LatitudeDegrees>
              <LongitudeDegrees>-8.1952101923525333404541015625</LongitudeDegrees>
            </Position>
            <AltitudeMeters>77.8000030517578125</AltitudeMeters>
            <DistanceMeters>69754.375823906</DistanceMeters>
          </Trackpoint>
          <Trackpoint>
            <Time>2018-04-21T13:02:51.000Z</Time>
            <Position>
              <LatitudeDegrees>43.2885439507663249969482421875</LatitudeDegrees>
              <LongitudeDegrees>-8.19527045823633670806884765625</LongitudeDegrees>
            </Position>
            <AltitudeMeters>77.59999847412109375</AltitudeMeters>
            <DistanceMeters>69760.624507811</DistanceMeters>
          </Trackpoint>
          <Trackpoint>
            <Time>2018-04-21T13:02:52.000Z</Time>
            <Position>
              <LatitudeDegrees>43.2885771431028842926025390625</LatitudeDegrees>
              <LongitudeDegrees>-8.19533742964267730712890625</LongitudeDegrees>
            </Position>
            <AltitudeMeters>77.59999847412109375</AltitudeMeters>
            <DistanceMeters>69767.188233485</DistanceMeters>
          </Trackpoint>
          <Trackpoint>
            <Time>2018-04-21T13:02:54.000Z</Time>
            <Position>
              <LatitudeDegrees>43.288618214428424835205078125</LatitudeDegrees>
              <LongitudeDegrees>-8.1954163871705532073974609375</LongitudeDegrees>
            </Position>
            <AltitudeMeters>77</AltitudeMeters>
            <DistanceMeters>69775.050796892</DistanceMeters>
          </Trackpoint>
          <Trackpoint>
            <Time>2018-04-21T13:02:55.000Z</Time>
            <Position>
              <LatitudeDegrees>43.288625590503215789794921875</LatitudeDegrees>
              <LongitudeDegrees>-8.19542719982564449310302734375</LongitudeDegrees>
            </Position>
            <AltitudeMeters>76.40000152587890625</AltitudeMeters>
            <DistanceMeters>69776.252800316</DistanceMeters>
          </Trackpoint>
          <Trackpoint>
            <Time>2018-04-21T13:02:59.000Z</Time>
            <Position>
              <LatitudeDegrees>43.28864403069019317626953125</LatitudeDegrees>
              <LongitudeDegrees>-8.19545418955385684967041015625</LongitudeDegrees>
            </Position>
            <AltitudeMeters>75.1999969482421875</AltitudeMeters>
            <DistanceMeters>69779.248780287</DistanceMeters>
          </Trackpoint>
          <Trackpoint>
            <Time>2018-04-21T13:03:04.000Z</Time>
            <Position>
              <LatitudeDegrees>43.28859801404178142547607421875</LatitudeDegrees>
              <LongitudeDegrees>-8.19536299444735050201416015625</LongitudeDegrees>
            </Position>
            <AltitudeMeters>75.40000152587890625</AltitudeMeters>
            <DistanceMeters>69788.238729351</DistanceMeters>
          </Trackpoint>
          <Trackpoint>
            <Time>2018-04-21T13:03:09.000Z</Time>
            <Position>
              <LatitudeDegrees>43.28853950835764408111572265625</LatitudeDegrees>
              <LongitudeDegrees>-8.195225112140178680419921875</LongitudeDegrees>
            </Position>
            <AltitudeMeters>76.1999969482421875</AltitudeMeters>
            <DistanceMeters>69801.169347876</DistanceMeters>
          </Trackpoint>
          <Trackpoint>
            <Time>2018-04-21T13:03:10.000Z</Time>
            <Position>
              <LatitudeDegrees>43.28852458856999874114990234375</LatitudeDegrees>
              <LongitudeDegrees>-8.19519870914518833160400390625</LongitudeDegrees>
            </Position>
            <AltitudeMeters>76.40000152587890625</AltitudeMeters>
            <DistanceMeters>69803.877192419</DistanceMeters>
          </Trackpoint>
          <Trackpoint>
            <Time>2018-04-21T13:03:16.000Z</Time>
            <Position>
              <LatitudeDegrees>43.28846138902008533477783203125</LatitudeDegrees>
              <LongitudeDegrees>-8.1950284726917743682861328125</LongitudeDegrees>
            </Position>
            <AltitudeMeters>77.40000152587890625</AltitudeMeters>
            <DistanceMeters>69819.359549449</DistanceMeters>
          </Trackpoint>
          <Trackpoint>
            <Time>2018-04-21T13:03:17.000Z</Time>
            <Position>
              <LatitudeDegrees>43.28845451585948467254638671875</LatitudeDegrees>
              <LongitudeDegrees>-8.19499569945037364959716796875</LongitudeDegrees>
            </Position>
            <AltitudeMeters>77.59999847412109375</AltitudeMeters>
            <DistanceMeters>69822.123503984</DistanceMeters>
          </Trackpoint>
          <Trackpoint>
            <Time>2018-04-21T13:03:18.000Z</Time>
            <Position>
              <LatitudeDegrees>43.2884289510548114776611328125</LatitudeDegrees>
              <LongitudeDegrees>-8.1949708051979541778564453125</LongitudeDegrees>
            </Position>
            <AltitudeMeters>77.59999847412109375</AltitudeMeters>
            <DistanceMeters>69825.60983198</DistanceMeters>
          </Trackpoint>
          <Trackpoint>
            <Time>2018-04-21T13:03:21.000Z</Time>
            <Position>
              <LatitudeDegrees>43.28836432658135890960693359375</LatitudeDegrees>
              <LongitudeDegrees>-8.19492965005338191986083984375</LongitudeDegrees>
            </Position>
            <AltitudeMeters>78</AltitudeMeters>
            <DistanceMeters>69833.537589043</DistanceMeters>
          </Trackpoint>
          <Trackpoint>
            <Time>2018-04-21T13:03:23.000Z</Time>
            <Position>
              <LatitudeDegrees>43.28832308761775493621826171875</LatitudeDegrees>
              <LongitudeDegrees>-8.1948859803378582000732421875</LongitudeDegrees>
            </Position>
            <AltitudeMeters>78.59999847412109375</AltitudeMeters>
            <DistanceMeters>69839.331881426</DistanceMeters>
          </Trackpoint>
          <Trackpoint>
            <Time>2018-04-21T13:03:26.000Z</Time>
            <Position>
              <LatitudeDegrees>43.2882733829319477081298828125</LatitudeDegrees>
              <LongitudeDegrees>-8.19484197534620761871337890625</LongitudeDegrees>
            </Position>
            <AltitudeMeters>79.40000152587890625</AltitudeMeters>
            <DistanceMeters>69845.914153585</DistanceMeters>
          </Trackpoint>
          <Trackpoint>
            <Time>2018-04-21T13:03:27.000Z</Time>
            <Position>
              <LatitudeDegrees>43.288257122039794921875</LatitudeDegrees>
              <LongitudeDegrees>-8.19482353515923023223876953125</LongitudeDegrees>
            </Position>
            <AltitudeMeters>79.40000152587890625</AltitudeMeters>
            <DistanceMeters>69848.261140298</DistanceMeters>
          </Trackpoint>
          <Trackpoint>
            <Time>2018-04-21T13:03:29.000Z</Time>
            <Position>
              <LatitudeDegrees>43.2882297970354557037353515625</LatitudeDegrees>
              <LongitudeDegrees>-8.1947921030223369598388671875</LongitudeDegrees>
            </Position>
            <AltitudeMeters>79.59999847412109375</AltitudeMeters>
            <DistanceMeters>69852.227296266</DistanceMeters>
          </Trackpoint>
          <Trackpoint>
            <Time>2018-04-21T13:03:34.000Z</Time>
            <Position>
              <LatitudeDegrees>43.28818964771926403045654296875</LatitudeDegrees>
              <LongitudeDegrees>-8.194729574024677276611328125</LongitudeDegrees>
            </Position>
            <AltitudeMeters>80.1999969482421875</AltitudeMeters>
            <DistanceMeters>69858.982887014</DistanceMeters>
          </Trackpoint>
          <Trackpoint>
            <Time>2018-04-21T13:03:39.000Z</Time>
            <Position>
              <LatitudeDegrees>43.2881379313766956329345703125</LatitudeDegrees>
              <LongitudeDegrees>-8.1946532987058162689208984375</LongitudeDegrees>
            </Position>
            <AltitudeMeters>80.8000030517578125</AltitudeMeters>
            <DistanceMeters>69867.427976934</DistanceMeters>
          </Trackpoint>
          <Trackpoint>
            <Time>2018-04-21T13:03:42.000Z</Time>
            <Position>
              <LatitudeDegrees>43.2880987040698528289794921875</LatitudeDegrees>
              <LongitudeDegrees>-8.19460786879062652587890625</LongitudeDegrees>
            </Position>
            <AltitudeMeters>81.40000152587890625</AltitudeMeters>
            <DistanceMeters>69873.137493197</DistanceMeters>
          </Trackpoint>
          <Trackpoint>
            <Time>2018-04-21T13:03:45.000Z</Time>
            <Position>
              <LatitudeDegrees>43.288039527833461761474609375</LatitudeDegrees>
              <LongitudeDegrees>-8.19456436671316623687744140625</LongitudeDegrees>
            </Position>
            <AltitudeMeters>82</AltitudeMeters>
            <DistanceMeters>69880.607826016</DistanceMeters>
          </Trackpoint>
          <Trackpoint>
            <Time>2018-04-21T13:03:49.000Z</Time>
            <Position>
              <LatitudeDegrees>43.2879635877907276153564453125</LatitudeDegrees>
              <LongitudeDegrees>-8.19449999369680881500244140625</LongitudeDegrees>
            </Position>
            <AltitudeMeters>83.1999969482421875</AltitudeMeters>
            <DistanceMeters>69890.539822546</DistanceMeters>
          </Trackpoint>
          <Trackpoint>
            <Time>2018-04-21T13:03:53.000Z</Time>
            <Position>
              <LatitudeDegrees>43.28790348954498767852783203125</LatitudeDegrees>
              <LongitudeDegrees>-8.19447115994989871978759765625</LongitudeDegrees>
            </Position>
            <AltitudeMeters>84</AltitudeMeters>
            <DistanceMeters>69897.625528229</DistanceMeters>
          </Trackpoint>
          <Trackpoint>
            <Time>2018-04-21T13:03:54.000Z</Time>
            <Position>
              <LatitudeDegrees>43.2878921739757061004638671875</LatitudeDegrees>
              <LongitudeDegrees>-8.19446244277060031890869140625</LongitudeDegrees>
            </Position>
            <AltitudeMeters>84.1999969482421875</AltitudeMeters>
            <DistanceMeters>69899.069809247</DistanceMeters>
          </Trackpoint>
          <Trackpoint>
            <Time>2018-04-21T13:03:57.000Z</Time>
            <Position>
              <LatitudeDegrees>43.28784749843180179595947265625</LatitudeDegrees>
              <LongitudeDegrees>-8.1944127380847930908203125</LongitudeDegrees>
            </Position>
            <AltitudeMeters>84.59999847412109375</AltitudeMeters>
            <DistanceMeters>69905.468431489</DistanceMeters>
          </Trackpoint>
          <Trackpoint>
            <Time>2018-04-21T13:03:59.000Z</Time>
            <Position>
              <LatitudeDegrees>43.2878060080111026763916015625</LatitudeDegrees>
              <LongitudeDegrees>-8.1944008357822895050048828125</LongitudeDegrees>
            </Position>
            <AltitudeMeters>85.59999847412109375</AltitudeMeters>
            <DistanceMeters>69910.185433541</DistanceMeters>
          </Trackpoint>
          <Trackpoint>
            <Time>2018-04-21T13:04:03.000Z</Time>
            <Position>
              <LatitudeDegrees>43.2877399586141109466552734375</LatitudeDegrees>
              <LongitudeDegrees>-8.19437761791050434112548828125</LongitudeDegrees>
            </Position>
            <AltitudeMeters>86.8000030517578125</AltitudeMeters>
            <DistanceMeters>69917.774493269</DistanceMeters>
          </Trackpoint>
          <Trackpoint>
            <Time>2018-04-21T13:04:05.000Z</Time>
            <Position>
              <LatitudeDegrees>43.28772663138806819915771484375</LatitudeDegrees>
              <LongitudeDegrees>-8.19438130594789981842041015625</LongitudeDegrees>
            </Position>
            <AltitudeMeters>87.1999969482421875</AltitudeMeters>
            <DistanceMeters>69919.288969884</DistanceMeters>
          </Trackpoint>
          <Trackpoint>
            <Time>2018-04-21T13:04:08.000Z</Time>
            <Position>
              <LatitudeDegrees>43.28771732747554779052734375</LatitudeDegrees>
              <LongitudeDegrees>-8.19440980441868305206298828125</LongitudeDegrees>
            </Position>
            <AltitudeMeters>88.8000030517578125</AltitudeMeters>
            <DistanceMeters>69921.817466299</DistanceMeters>
          </Trackpoint>
          <Trackpoint>
            <Time>2018-04-21T13:04:10.000Z</Time>
            <Position>
              <LatitudeDegrees>43.28771732747554779052734375</LatitudeDegrees>
              <LongitudeDegrees>-8.19443914107978343963623046875</LongitudeDegrees>
            </Position>
            <AltitudeMeters>89.1999969482421875</AltitudeMeters>
            <DistanceMeters>69924.195033933</DistanceMeters>
          </Trackpoint>
          <Trackpoint>
            <Time>2018-04-21T13:04:11.000Z</Time>
            <Position>
              <LatitudeDegrees>43.2877178303897380828857421875</LatitudeDegrees>
              <LongitudeDegrees>-8.19445087574422359466552734375</LongitudeDegrees>
            </Position>
            <AltitudeMeters>90</AltitudeMeters>
            <DistanceMeters>69925.145301077</DistanceMeters>
          </Trackpoint>
          <Trackpoint>
            <Time>2018-04-21T13:04:15.000Z</Time>
            <Position>
              <LatitudeDegrees>43.28772093169391155242919921875</LatitudeDegrees>
              <LongitudeDegrees>-8.19450787268579006195068359375</LongitudeDegrees>
            </Position>
            <AltitudeMeters>91</AltitudeMeters>
            <DistanceMeters>69929.777305139</DistanceMeters>
          </Trackpoint>
          <Trackpoint>
            <Time>2018-04-21T13:04:18.000Z</Time>
            <Position>
              <LatitudeDegrees>43.2877050898969173431396484375</LatitudeDegrees>
              <LongitudeDegrees>-8.19454944692552089691162109375</LongitudeDegrees>
            </Position>
            <AltitudeMeters>92</AltitudeMeters>
            <DistanceMeters>69933.578373714</DistanceMeters>
          </Trackpoint>
          <Trackpoint>
            <Time>2018-04-21T13:04:20.000Z</Time>
            <Position>
              <LatitudeDegrees>43.28770768828690052032470703125</LatitudeDegrees>
              <LongitudeDegrees>-8.194569312036037445068359375</LongitudeDegrees>
            </Position>
            <AltitudeMeters>92.1999969482421875</AltitudeMeters>
            <DistanceMeters>69935.213275126</DistanceMeters>
          </Trackpoint>
          <Trackpoint>
            <Time>2018-04-21T13:04:23.000Z</Time>
            <Position>
              <LatitudeDegrees>43.2877131365239620208740234375</LatitudeDegrees>
              <LongitudeDegrees>-8.19461516104638576507568359375</LongitudeDegrees>
            </Position>
            <AltitudeMeters>93.40000152587890625</AltitudeMeters>
            <DistanceMeters>69938.976141037</DistanceMeters>
          </Trackpoint>
          <Trackpoint>
            <Time>2018-04-21T13:04:26.000Z</Time>
            <Position>
              <LatitudeDegrees>43.28769511543214321136474609375</LatitudeDegrees>
              <LongitudeDegrees>-8.19467970170080661773681640625</LongitudeDegrees>
            </Position>
            <AltitudeMeters>94.59999847412109375</AltitudeMeters>
            <DistanceMeters>69944.575464694</DistanceMeters>
          </Trackpoint>
          <Trackpoint>
            <Time>2018-04-21T13:04:33.000Z</Time>
            <Position>
              <LatitudeDegrees>43.28768488951027393341064453125</LatitudeDegrees>
              <LongitudeDegrees>-8.19482403807342052459716796875</LongitudeDegrees>
            </Position>
            <AltitudeMeters>95.40000152587890625</AltitudeMeters>
            <DistanceMeters>69956.324625455</DistanceMeters>
          </Trackpoint>
          <Trackpoint>
            <Time>2018-04-21T13:04:34.000Z</Time>
            <Position>
              <LatitudeDegrees>43.2876812852919101715087890625</LatitudeDegrees>
              <LongitudeDegrees>-8.1948487646877765655517578125</LongitudeDegrees>
            </Position>
            <AltitudeMeters>95.40000152587890625</AltitudeMeters>
            <DistanceMeters>69958.369356585</DistanceMeters>
          </Trackpoint>
          <Trackpoint>
            <Time>2018-04-21T13:04:57.000Z</Time>
            <Position>
              <LatitudeDegrees>43.2876501046121120452880859375</LatitudeDegrees>
              <LongitudeDegrees>-8.19493518210947513580322265625</LongitudeDegrees>
            </Position>
            <AltitudeMeters>95.59999847412109375</AltitudeMeters>
            <DistanceMeters>69966.183534528</DistanceMeters>
          </Trackpoint>
          <Trackpoint>
            <Time>2018-04-21T13:04:58.000Z</Time>
            <Position>
              <LatitudeDegrees>43.28764867968857288360595703125</LatitudeDegrees>
              <LongitudeDegrees>-8.1949196755886077880859375</LongitudeDegrees>
            </Position>
            <AltitudeMeters>95.59999847412109375</AltitudeMeters>
            <DistanceMeters>69967.451349028</DistanceMeters>
          </Trackpoint>
          <Trackpoint>
            <Time>2018-04-21T13:05:00.000Z</Time>
            <Position>
              <LatitudeDegrees>43.28764935024082660675048828125</LatitudeDegrees>
              <LongitudeDegrees>-8.1948786042630672454833984375</LongitudeDegrees>
            </Position>
            <AltitudeMeters>95.40000152587890625</AltitudeMeters>
            <DistanceMeters>69970.779997972</DistanceMeters>
          </Trackpoint>
          <Trackpoint>
            <Time>2018-04-21T13:05:04.000Z</Time>
            <Position>
              <LatitudeDegrees>43.28766611404716968536376953125</LatitudeDegrees>
              <LongitudeDegrees>-8.1947904266417026519775390625</LongitudeDegrees>
            </Position>
            <AltitudeMeters>98.1999969482421875</AltitudeMeters>
            <DistanceMeters>69978.164007829</DistanceMeters>
          </Trackpoint>
          <Trackpoint>
            <Time>2018-04-21T13:05:06.000Z</Time>
            <Position>
              <LatitudeDegrees>43.28766460530459880828857421875</LatitudeDegrees>
              <LongitudeDegrees>-8.19475698284804821014404296875</LongitudeDegrees>
            </Position>
            <AltitudeMeters>102.40000152587890625</AltitudeMeters>
            <DistanceMeters>69980.880176538</DistanceMeters>
          </Trackpoint>
          <Trackpoint>
            <Time>2018-04-21T13:05:07.000Z</Time>
            <Position>
              <LatitudeDegrees>43.28766292892396450042724609375</LatitudeDegrees>
              <LongitudeDegrees>-8.19473904557526111602783203125</LongitudeDegrees>
            </Position>
            <AltitudeMeters>97</AltitudeMeters>
            <DistanceMeters>69982.346177286</DistanceMeters>
          </Trackpoint>
          <Trackpoint>
            <Time>2018-04-21T13:05:08.000Z</Time>
            <Position>
              <LatitudeDegrees>43.28766100108623504638671875</LatitudeDegrees>
              <LongitudeDegrees>-8.1947273947298526763916015625</LongitudeDegrees>
            </Position>
            <AltitudeMeters>98.8000030517578125</AltitudeMeters>
            <DistanceMeters>69983.315263428</DistanceMeters>
          </Trackpoint>
          <Trackpoint>
            <Time>2018-04-21T13:05:09.000Z</Time>
            <Position>
              <LatitudeDegrees>43.2876604981720447540283203125</LatitudeDegrees>
              <LongitudeDegrees>-8.19471842609345912933349609375</LongitudeDegrees>
            </Position>
            <AltitudeMeters>89.8000030517578125</AltitudeMeters>
            <DistanceMeters>69984.038965324</DistanceMeters>
          </Trackpoint>
          <Trackpoint>
            <Time>2018-04-21T13:05:10.000Z</Time>
            <Position>
              <LatitudeDegrees>43.28765965998172760009765625</LatitudeDegrees>
              <LongitudeDegrees>-8.19471339695155620574951171875</LongitudeDegrees>
            </Position>
            <AltitudeMeters>94.59999847412109375</AltitudeMeters>
            <DistanceMeters>69984.46393771</DistanceMeters>
          </Trackpoint>
          <Trackpoint>
            <Time>2018-04-21T13:05:11.000Z</Time>
            <Position>
              <LatitudeDegrees>43.28765722922980785369873046875</LatitudeDegrees>
              <LongitudeDegrees>-8.1947066076099872589111328125</LongitudeDegrees>
            </Position>
            <AltitudeMeters>93.40000152587890625</AltitudeMeters>
            <DistanceMeters>69985.079781205</DistanceMeters>
          </Trackpoint>
          <Trackpoint>
            <Time>2018-04-21T13:05:15.000Z</Time>
            <Position>
              <LatitudeDegrees>43.28764499165117740631103515625</LatitudeDegrees>
              <LongitudeDegrees>-8.194698393344879150390625</LongitudeDegrees>
            </Position>
            <AltitudeMeters>94.59999847412109375</AltitudeMeters>
            <DistanceMeters>69986.59425782</DistanceMeters>
          </Trackpoint>
          <Trackpoint>
            <Time>2018-04-21T13:05:19.000Z</Time>
            <Position>
              <LatitudeDegrees>43.2876232825219631195068359375</LatitudeDegrees>
              <LongitudeDegrees>-8.19468053989112377166748046875</LongitudeDegrees>
            </Position>
            <AltitudeMeters>96</AltitudeMeters>
            <DistanceMeters>69989.410000549</DistanceMeters>
          </Trackpoint>
          <Trackpoint>
            <Time>2018-04-21T13:05:21.000Z</Time>
            <Position>
              <LatitudeDegrees>43.28761330805718898773193359375</LatitudeDegrees>
              <LongitudeDegrees>-8.1946675479412078857421875</LongitudeDegrees>
            </Position>
            <AltitudeMeters>97.40000152587890625</AltitudeMeters>
            <DistanceMeters>69990.939310786</DistanceMeters>
          </Trackpoint>
          <Trackpoint>
            <Time>2018-04-21T13:05:25.000Z</Time>
            <Position>
              <LatitudeDegrees>43.28759436495602130889892578125</LatitudeDegrees>
              <LongitudeDegrees>-8.19465153850615024566650390625</LongitudeDegrees>
            </Position>
            <AltitudeMeters>98.59999847412109375</AltitudeMeters>
            <DistanceMeters>69993.415481601</DistanceMeters>
          </Trackpoint>
          <Trackpoint>
            <Time>2018-04-21T13:05:27.000Z</Time>
            <Position>
              <LatitudeDegrees>43.28758430667221546173095703125</LatitudeDegrees>
              <LongitudeDegrees>-8.1946422345936298370361328125</LongitudeDegrees>
            </Position>
            <AltitudeMeters>98.8000030517578125</AltitudeMeters>
            <DistanceMeters>69994.766064972</DistanceMeters>
          </Trackpoint>
          <Trackpoint>
            <Time>2018-04-21T13:05:28.000Z</Time>
            <Position>
              <LatitudeDegrees>43.287582211196422576904296875</LatitudeDegrees>
              <LongitudeDegrees>-8.1946375407278537750244140625</LongitudeDegrees>
            </Position>
            <AltitudeMeters>99.8000030517578125</AltitudeMeters>
            <DistanceMeters>69995.21177977</DistanceMeters>
          </Trackpoint>
          <Trackpoint>
            <Time>2018-04-21T13:05:31.000Z</Time>
            <Position>
              <LatitudeDegrees>43.28757114708423614501953125</LatitudeDegrees>
              <LongitudeDegrees>-8.19462203420698642730712890625</LongitudeDegrees>
            </Position>
            <AltitudeMeters>99.8000030517578125</AltitudeMeters>
            <DistanceMeters>69996.974262762</DistanceMeters>
          </Trackpoint>
          <Trackpoint>
            <Time>2018-04-21T13:05:35.000Z</Time>
            <Position>
              <LatitudeDegrees>43.2874321751296520233154296875</LatitudeDegrees>
              <LongitudeDegrees>-8.19447107613086700439453125</LongitudeDegrees>
            </Position>
            <AltitudeMeters>100.8000030517578125</AltitudeMeters>
            <DistanceMeters>70016.693393619</DistanceMeters>
          </Trackpoint>
          <Trackpoint>
            <Time>2018-04-21T13:05:36.000Z</Time>
            <Position>
              <LatitudeDegrees>43.28743075020611286163330078125</LatitudeDegrees>
              <LongitudeDegrees>-8.19446294568479061126708984375</LongitudeDegrees>
            </Position>
            <AltitudeMeters>101</AltitudeMeters>
            <DistanceMeters>70017.372020099</DistanceMeters>
          </Trackpoint>
          <Trackpoint>
            <Time>2018-04-21T13:05:41.000Z</Time>
            <Position>
              <LatitudeDegrees>43.28736084513366222381591796875</LatitudeDegrees>
              <LongitudeDegrees>-8.19440511055290699005126953125</LongitudeDegrees>
            </Position>
            <AltitudeMeters>102</AltitudeMeters>
            <DistanceMeters>70026.454903913</DistanceMeters>
          </Trackpoint>
          <Trackpoint>
            <Time>2018-04-21T13:05:43.000Z</Time>
            <Position>
              <LatitudeDegrees>43.28735078684985637664794921875</LatitudeDegrees>
              <LongitudeDegrees>-8.19439320825040340423583984375</LongitudeDegrees>
            </Position>
            <AltitudeMeters>102.40000152587890625</AltitudeMeters>
            <DistanceMeters>70027.933172664</DistanceMeters>
          </Trackpoint>
          <Trackpoint>
            <Time>2018-04-21T13:05:46.000Z</Time>
            <Position>
              <LatitudeDegrees>43.28730334527790546417236328125</LatitudeDegrees>
              <LongitudeDegrees>-8.19433562457561492919921875</LongitudeDegrees>
            </Position>
            <AltitudeMeters>103.1999969482421875</AltitudeMeters>
            <DistanceMeters>70034.979260961</DistanceMeters>
          </Trackpoint>
          <Trackpoint>
            <Time>2018-04-21T13:05:48.000Z</Time>
            <Position>
              <LatitudeDegrees>43.28724634833633899688720703125</LatitudeDegrees>
              <LongitudeDegrees>-8.19430117495357990264892578125</LongitudeDegrees>
            </Position>
            <AltitudeMeters>103.1999969482421875</AltitudeMeters>
            <DistanceMeters>70041.910350823</DistanceMeters>
          </Trackpoint>
          <Trackpoint>
            <Time>2018-04-21T13:05:50.000Z</Time>
            <Position>
              <LatitudeDegrees>43.28719723038375377655029296875</LatitudeDegrees>
              <LongitudeDegrees>-8.1942737661302089691162109375</LongitudeDegrees>
            </Position>
            <AltitudeMeters>103.59999847412109375</AltitudeMeters>
            <DistanceMeters>70047.811196082</DistanceMeters>
          </Trackpoint>
          <Trackpoint>
            <Time>2018-04-21T13:05:54.000Z</Time>
            <Position>
              <LatitudeDegrees>43.2871492020785808563232421875</LatitudeDegrees>
              <LongitudeDegrees>-8.1942147575318813323974609375</LongitudeDegrees>
            </Position>
            <AltitudeMeters>104.1999969482421875</AltitudeMeters>
            <DistanceMeters>70054.983037926</DistanceMeters>
          </Trackpoint>
          <Trackpoint>
            <Time>2018-04-21T13:05:57.000Z</Time>
            <Position>
              <LatitudeDegrees>43.28713185153901576995849609375</LatitudeDegrees>
              <LongitudeDegrees>-8.19418969564139842987060546875</LongitudeDegrees>
            </Position>
            <AltitudeMeters>104.59999847412109375</AltitudeMeters>
            <DistanceMeters>70057.785923315</DistanceMeters>
          </Trackpoint>
          <Trackpoint>
            <Time>2018-04-21T13:06:01.000Z</Time>
            <Position>
              <LatitudeDegrees>43.28706110827624797821044921875</LatitudeDegrees>
              <LongitudeDegrees>-8.194101937115192413330078125</LongitudeDegrees>
            </Position>
            <AltitudeMeters>105.1999969482421875</AltitudeMeters>
            <DistanceMeters>70068.394922928</DistanceMeters>
          </Trackpoint>
          <Trackpoint>
            <Time>2018-04-21T13:06:03.000Z</Time>
            <Position>
              <LatitudeDegrees>43.2870273292064666748046875</LatitudeDegrees>
              <LongitudeDegrees>-8.1940694153308868408203125</LongitudeDegrees>
            </Position>
            <AltitudeMeters>105.40000152587890625</AltitudeMeters>
            <DistanceMeters>70072.985805024</DistanceMeters>
          </Trackpoint>
          <Trackpoint>
            <Time>2018-04-21T13:06:05.000Z</Time>
            <Position>
              <LatitudeDegrees>43.287009559571743011474609375</LatitudeDegrees>
              <LongitudeDegrees>-8.19404435344040393829345703125</LongitudeDegrees>
            </Position>
            <AltitudeMeters>105.59999847412109375</AltitudeMeters>
            <DistanceMeters>70075.82072443</DistanceMeters>
          </Trackpoint>
          <Trackpoint>
            <Time>2018-04-21T13:06:08.000Z</Time>
            <Position>
              <LatitudeDegrees>43.286983408033847808837890625</LatitudeDegrees>
              <LongitudeDegrees>-8.19400529377162456512451171875</LongitudeDegrees>
            </Position>
            <AltitudeMeters>106.40000152587890625</AltitudeMeters>
            <DistanceMeters>70080.121142614</DistanceMeters>
          </Trackpoint>
          <Trackpoint>
            <Time>2018-04-21T13:06:13.000Z</Time>
            <Position>
              <LatitudeDegrees>43.2869262434542179107666015625</LatitudeDegrees>
              <LongitudeDegrees>-8.19390957243740558624267578125</LongitudeDegrees>
            </Position>
            <AltitudeMeters>106.40000152587890625</AltitudeMeters>
            <DistanceMeters>70090.152651568</DistanceMeters>
          </Trackpoint>
          <Trackpoint>
            <Time>2018-04-21T13:06:20.000Z</Time>
            <Position>
              <LatitudeDegrees>43.28682524152100086212158203125</LatitudeDegrees>
              <LongitudeDegrees>-8.1938090734183788299560546875</LongitudeDegrees>
            </Position>
            <AltitudeMeters>107.40000152587890625</AltitudeMeters>
            <DistanceMeters>70104.033384296</DistanceMeters>
          </Trackpoint>
          <Trackpoint>
            <Time>2018-04-21T13:06:27.000Z</Time>
            <Position>
              <LatitudeDegrees>43.2866881974041461944580078125</LatitudeDegrees>
              <LongitudeDegrees>-8.1937287747859954833984375</LongitudeDegrees>
            </Position>
            <AltitudeMeters>108.40000152587890625</AltitudeMeters>
            <DistanceMeters>70120.616022442</DistanceMeters>
          </Trackpoint>
          <Trackpoint>
            <Time>2018-04-21T13:06:28.000Z</Time>
            <Position>
              <LatitudeDegrees>43.28666456043720245361328125</LatitudeDegrees>
              <LongitudeDegrees>-8.19372676312923431396484375</LongitudeDegrees>
            </Position>
            <AltitudeMeters>108.59999847412109375</AltitudeMeters>
            <DistanceMeters>70123.252906752</DistanceMeters>
          </Trackpoint>
          <Trackpoint>
            <Time>2018-04-21T13:06:32.000Z</Time>
            <Position>
              <LatitudeDegrees>43.28660010360181331634521484375</LatitudeDegrees>
              <LongitudeDegrees>-8.1937155313789844512939453125</LongitudeDegrees>
            </Position>
            <AltitudeMeters>109.59999847412109375</AltitudeMeters>
            <DistanceMeters>70130.484932938</DistanceMeters>
          </Trackpoint>
          <Trackpoint>
            <Time>2018-04-21T13:06:33.000Z</Time>
            <Position>
              <LatitudeDegrees>43.28658786602318286895751953125</LatitudeDegrees>
              <LongitudeDegrees>-8.19371377117931842803955078125</LongitudeDegrees>
            </Position>
            <AltitudeMeters>109.59999847412109375</AltitudeMeters>
            <DistanceMeters>70131.855427703</DistanceMeters>
          </Trackpoint>
          <Trackpoint>
            <Time>2018-04-21T13:06:38.000Z</Time>
            <Position>
              <LatitudeDegrees>43.2865078188478946685791015625</LatitudeDegrees>
              <LongitudeDegrees>-8.19369784556329250335693359375</LongitudeDegrees>
            </Position>
            <AltitudeMeters>110.8000030517578125</AltitudeMeters>
            <DistanceMeters>70140.85742226</DistanceMeters>
          </Trackpoint>
          <Trackpoint>
            <Time>2018-04-21T13:06:39.000Z</Time>
            <Position>
              <LatitudeDegrees>43.28648711554706096649169921875</LatitudeDegrees>
              <LongitudeDegrees>-8.19369734264910221099853515625</LongitudeDegrees>
            </Position>
            <AltitudeMeters>111</AltitudeMeters>
            <DistanceMeters>70143.159737372</DistanceMeters>
          </Trackpoint>
          <Trackpoint>
            <Time>2018-04-21T13:06:43.000Z</Time>
            <Position>
              <LatitudeDegrees>43.28640547581017017364501953125</LatitudeDegrees>
              <LongitudeDegrees>-8.19369080476462841033935546875</LongitudeDegrees>
            </Position>
            <AltitudeMeters>111.8000030517578125</AltitudeMeters>
            <DistanceMeters>70152.26149112</DistanceMeters>
          </Trackpoint>
          <Trackpoint>
            <Time>2018-04-21T13:06:46.000Z</Time>
            <Position>
              <LatitudeDegrees>43.28637211583554744720458984375</LatitudeDegrees>
              <LongitudeDegrees>-8.19369197823107242584228515625</LongitudeDegrees>
            </Position>
            <AltitudeMeters>112.1999969482421875</AltitudeMeters>
            <DistanceMeters>70155.97605123</DistanceMeters>
          </Trackpoint>
          <Trackpoint>
            <Time>2018-04-21T13:06:49.000Z</Time>
            <Position>
              <LatitudeDegrees>43.28632148914039134979248046875</LatitudeDegrees>
              <LongitudeDegrees>-8.19369130767881870269775390625</LongitudeDegrees>
            </Position>
            <AltitudeMeters>112.8000030517578125</AltitudeMeters>
            <DistanceMeters>70161.611544008</DistanceMeters>
          </Trackpoint>
          <Trackpoint>
            <Time>2018-04-21T13:06:52.000Z</Time>
            <Position>
              <LatitudeDegrees>43.286261223256587982177734375</LatitudeDegrees>
              <LongitudeDegrees>-8.19367714226245880126953125</LongitudeDegrees>
            </Position>
            <AltitudeMeters>113.40000152587890625</AltitudeMeters>
            <DistanceMeters>70168.417739138</DistanceMeters>
          </Trackpoint>
          <Trackpoint>
            <Time>2018-04-21T13:06:56.000Z</Time>
            <Position>
              <LatitudeDegrees>43.2861701957881450653076171875</LatitudeDegrees>
              <LongitudeDegrees>-8.19367303512990474700927734375</LongitudeDegrees>
            </Position>
            <AltitudeMeters>113.59999847412109375</AltitudeMeters>
            <DistanceMeters>70178.554911818</DistanceMeters>
          </Trackpoint>
          <Trackpoint>
            <Time>2018-04-21T13:06:57.000Z</Time>
            <Position>
              <LatitudeDegrees>43.28614949248731136322021484375</LatitudeDegrees>
              <LongitudeDegrees>-8.193681500852108001708984375</LongitudeDegrees>
            </Position>
            <AltitudeMeters>114.1999969482421875</AltitudeMeters>
            <DistanceMeters>70180.958918666</DistanceMeters>
          </Trackpoint>
          <Trackpoint>
            <Time>2018-04-21T13:06:59.000Z</Time>
            <Position>
              <LatitudeDegrees>43.28612166456878185272216796875</LatitudeDegrees>
              <LongitudeDegrees>-8.19370656274259090423583984375</LongitudeDegrees>
            </Position>
            <AltitudeMeters>114.8000030517578125</AltitudeMeters>
            <DistanceMeters>70184.662523142</DistanceMeters>
          </Trackpoint>
          <Trackpoint>
            <Time>2018-04-21T13:07:01.000Z</Time>
            <Position>
              <LatitudeDegrees>43.28611110337078571319580078125</LatitudeDegrees>
              <LongitudeDegrees>-8.19374025799334049224853515625</LongitudeDegrees>
            </Position>
            <AltitudeMeters>115.59999847412109375</AltitudeMeters>
            <DistanceMeters>70187.634292777</DistanceMeters>
          </Trackpoint>
          <Trackpoint>
            <Time>2018-04-21T13:07:02.000Z</Time>
            <Position>
              <LatitudeDegrees>43.28611177392303943634033203125</LatitudeDegrees>
              <LongitudeDegrees>-8.19375551305711269378662109375</LongitudeDegrees>
            </Position>
            <AltitudeMeters>116.40000152587890625</AltitudeMeters>
            <DistanceMeters>70188.873289547</DistanceMeters>
          </Trackpoint>
          <Trackpoint>
            <Time>2018-04-21T13:07:05.000Z</Time>
            <Position>
              <LatitudeDegrees>43.2861128635704517364501953125</LatitudeDegrees>
              <LongitudeDegrees>-8.19379893131554126739501953125</LongitudeDegrees>
            </Position>
            <AltitudeMeters>116.59999847412109375</AltitudeMeters>
            <DistanceMeters>70192.393128304</DistanceMeters>
          </Trackpoint>
          <Trackpoint>
            <Time>2018-04-21T13:07:09.000Z</Time>
            <Position>
              <LatitudeDegrees>43.28611210919916629791259765625</LatitudeDegrees>
              <LongitudeDegrees>-8.1938724406063556671142578125</LongitudeDegrees>
            </Position>
            <AltitudeMeters>117.40000152587890625</AltitudeMeters>
            <DistanceMeters>70198.348809649</DistanceMeters>
          </Trackpoint>
          <Trackpoint>
            <Time>2018-04-21T13:07:11.000Z</Time>
            <Position>
              <LatitudeDegrees>43.2861088402569293975830078125</LatitudeDegrees>
              <LongitudeDegrees>-8.1939093209803104400634765625</LongitudeDegrees>
            </Position>
            <AltitudeMeters>117.8000030517578125</AltitudeMeters>
            <DistanceMeters>70201.358322346</DistanceMeters>
          </Trackpoint>
          <Trackpoint>
            <Time>2018-04-21T13:07:15.000Z</Time>
            <Position>
              <LatitudeDegrees>43.28609752468764781951904296875</LatitudeDegrees>
              <LongitudeDegrees>-8.19397620856761932373046875</LongitudeDegrees>
            </Position>
            <AltitudeMeters>119</AltitudeMeters>
            <DistanceMeters>70206.922053292</DistanceMeters>
          </Trackpoint>
          <Trackpoint>
            <Time>2018-04-21T13:07:16.000Z</Time>
            <Position>
              <LatitudeDegrees>43.28609484247863292694091796875</LatitudeDegrees>
              <LongitudeDegrees>-8.19399238564074039459228515625</LongitudeDegrees>
            </Position>
            <AltitudeMeters>119.40000152587890625</AltitudeMeters>
            <DistanceMeters>70208.265933975</DistanceMeters>
          </Trackpoint>
          <Trackpoint>
            <Time>2018-04-21T13:07:20.000Z</Time>
            <Position>
              <LatitudeDegrees>43.28608763404190540313720703125</LatitudeDegrees>
              <LongitudeDegrees>-8.19405189715325832366943359375</LongitudeDegrees>
            </Position>
            <AltitudeMeters>120.1999969482421875</AltitudeMeters>
            <DistanceMeters>70213.154963771</DistanceMeters>
          </Trackpoint>
          <Trackpoint>
            <Time>2018-04-21T13:07:24.000Z</Time>
            <Position>
              <LatitudeDegrees>43.28607941977679729461669921875</LatitudeDegrees>
              <LongitudeDegrees>-8.19409917108714580535888671875</LongitudeDegrees>
            </Position>
            <AltitudeMeters>121.1999969482421875</AltitudeMeters>
            <DistanceMeters>70217.093703586</DistanceMeters>
          </Trackpoint>
          <Trackpoint>
            <Time>2018-04-21T13:07:30.000Z</Time>
            <Position>
              <LatitudeDegrees>43.2860602252185344696044921875</LatitudeDegrees>
              <LongitudeDegrees>-8.19417377002537250518798828125</LongitudeDegrees>
            </Position>
            <AltitudeMeters>122.59999847412109375</AltitudeMeters>
            <DistanceMeters>70223.503605911</DistanceMeters>
          </Trackpoint>
          <Trackpoint>
            <Time>2018-04-21T13:07:33.000Z</Time>
            <Position>
              <LatitudeDegrees>43.2860577106475830078125</LatitudeDegrees>
              <LongitudeDegrees>-8.194176368415355682373046875</LongitudeDegrees>
            </Position>
            <AltitudeMeters>122.8000030517578125</AltitudeMeters>
            <DistanceMeters>70223.859163319</DistanceMeters>
          </Trackpoint>
          <Trackpoint>
            <Time>2018-04-21T13:07:39.000Z</Time>
            <Position>
              <LatitudeDegrees>43.2860340736806392669677734375</LatitudeDegrees>
              <LongitudeDegrees>-8.194194138050079345703125</LongitudeDegrees>
            </Position>
            <AltitudeMeters>123.8000030517578125</AltitudeMeters>
            <DistanceMeters>70226.85815584</DistanceMeters>
          </Trackpoint>
          <Trackpoint>
            <Time>2018-04-21T13:07:40.000Z</Time>
            <Position>
              <LatitudeDegrees>43.28603583388030529022216796875</LatitudeDegrees>
              <LongitudeDegrees>-8.19419975392520427703857421875</LongitudeDegrees>
            </Position>
            <AltitudeMeters>124</AltitudeMeters>
            <DistanceMeters>70227.360989948</DistanceMeters>
          </Trackpoint>
          <Trackpoint>
            <Time>2018-04-21T13:07:46.000Z</Time>
            <Position>
              <LatitudeDegrees>43.2860295474529266357421875</LatitudeDegrees>
              <LongitudeDegrees>-8.194223977625370025634765625</LongitudeDegrees>
            </Position>
            <AltitudeMeters>125</AltitudeMeters>
            <DistanceMeters>70229.442920949</DistanceMeters>
          </Trackpoint>
          <Trackpoint>
            <Time>2018-04-21T13:07:47.000Z</Time>
            <Position>
              <LatitudeDegrees>43.2860277034342288970947265625</LatitudeDegrees>
              <LongitudeDegrees>-8.1942274980247020721435546875</LongitudeDegrees>
            </Position>
            <AltitudeMeters>126.1999969482421875</AltitudeMeters>
            <DistanceMeters>70229.78554464</DistanceMeters>
          </Trackpoint>
          <Trackpoint>
            <Time>2018-04-21T13:07:52.000Z</Time>
            <Position>
              <LatitudeDegrees>43.2860494963824748992919921875</LatitudeDegrees>
              <LongitudeDegrees>-8.19424434565007686614990234375</LongitudeDegrees>
            </Position>
            <AltitudeMeters>126.1999969482421875</AltitudeMeters>
            <DistanceMeters>70232.567410114</DistanceMeters>
          </Trackpoint>
          <Trackpoint>
            <Time>2018-04-21T13:08:01.000Z</Time>
            <Position>
              <LatitudeDegrees>43.2860169745981693267822265625</LatitudeDegrees>
              <LongitudeDegrees>-8.19428809918463230133056640625</LongitudeDegrees>
            </Position>
            <AltitudeMeters>127</AltitudeMeters>
            <DistanceMeters>70237.634214563</DistanceMeters>
          </Trackpoint>
          <Trackpoint>
            <Time>2018-04-21T13:08:05.000Z</Time>
            <Position>
              <LatitudeDegrees>43.28600398264825344085693359375</LatitudeDegrees>
              <LongitudeDegrees>-8.19430871866643428802490234375</LongitudeDegrees>
            </Position>
            <AltitudeMeters>127.40000152587890625</AltitudeMeters>
            <DistanceMeters>70239.84447956</DistanceMeters>
          </Trackpoint>
          <Trackpoint>
            <Time>2018-04-21T13:08:09.000Z</Time>
            <Position>
              <LatitudeDegrees>43.28595603816211223602294921875</LatitudeDegrees>
              <LongitudeDegrees>-8.1943766959011554718017578125</LongitudeDegrees>
            </Position>
            <AltitudeMeters>127.1999969482421875</AltitudeMeters>
            <DistanceMeters>70247.512846909</DistanceMeters>
          </Trackpoint>
          <Trackpoint>
            <Time>2018-04-21T13:08:16.000Z</Time>
            <Position>
              <LatitudeDegrees>43.2859019748866558074951171875</LatitudeDegrees>
              <LongitudeDegrees>-8.1945342756807804107666015625</LongitudeDegrees>
            </Position>
            <AltitudeMeters>128.1999969482421875</AltitudeMeters>
            <DistanceMeters>70261.627113324</DistanceMeters>
          </Trackpoint>
          <Trackpoint>
            <Time>2018-04-21T13:08:18.000Z</Time>
            <Position>
              <LatitudeDegrees>43.28589878976345062255859375</LatitudeDegrees>
              <LongitudeDegrees>-8.19456319324672222137451171875</LongitudeDegrees>
            </Position>
            <AltitudeMeters>128.399993896484375</AltitudeMeters>
            <DistanceMeters>70263.997072722</DistanceMeters>
          </Trackpoint>
          <Trackpoint>
            <Time>2018-04-21T13:08:23.000Z</Time>
            <Position>
              <LatitudeDegrees>43.28589820303022861480712890625</LatitudeDegrees>
              <LongitudeDegrees>-8.1946435756981372833251953125</LongitudeDegrees>
            </Position>
            <AltitudeMeters>129</AltitudeMeters>
            <DistanceMeters>70270.510389783</DistanceMeters>
          </Trackpoint>
          <Trackpoint>
            <Time>2018-04-21T13:08:24.000Z</Time>
            <Position>
              <LatitudeDegrees>43.285897783935070037841796875</LatitudeDegrees>
              <LongitudeDegrees>-8.19467131979763507843017578125</LongitudeDegrees>
            </Position>
            <AltitudeMeters>129.1999969482421875</AltitudeMeters>
            <DistanceMeters>70272.759132278</DistanceMeters>
          </Trackpoint>
          <Trackpoint>
            <Time>2018-04-21T13:08:25.000Z</Time>
            <Position>
              <LatitudeDegrees>43.2858959399163722991943359375</LatitudeDegrees>
              <LongitudeDegrees>-8.194693028926849365234375</LongitudeDegrees>
            </Position>
            <AltitudeMeters>129.600006103515625</AltitudeMeters>
            <DistanceMeters>70274.531832648</DistanceMeters>
          </Trackpoint>
          <Trackpoint>
            <Time>2018-04-21T13:08:31.000Z</Time>
            <Position>
              <LatitudeDegrees>43.2858500070869922637939453125</LatitudeDegrees>
              <LongitudeDegrees>-8.194839544594287872314453125</LongitudeDegrees>
            </Position>
            <AltitudeMeters>130.600006103515625</AltitudeMeters>
            <DistanceMeters>70287.456863179</DistanceMeters>
          </Trackpoint>
          <Trackpoint>
            <Time>2018-04-21T13:08:37.000Z</Time>
            <Position>
              <LatitudeDegrees>43.28578974120318889617919921875</LatitudeDegrees>
              <LongitudeDegrees>-8.19503928534686565399169921875</LongitudeDegrees>
            </Position>
            <AltitudeMeters>128.600006103515625</AltitudeMeters>
            <DistanceMeters>70304.975315679</DistanceMeters>
          </Trackpoint>
          <Trackpoint>
            <Time>2018-04-21T13:08:38.000Z</Time>
            <Position>
              <LatitudeDegrees>43.285784460604190826416015625</LatitudeDegrees>
              <LongitudeDegrees>-8.195074237883090972900390625</LongitudeDegrees>
            </Position>
            <AltitudeMeters>128</AltitudeMeters>
            <DistanceMeters>70307.867002175</DistanceMeters>
          </Trackpoint>
          <Trackpoint>
            <Time>2018-04-21T13:08:40.000Z</Time>
            <Position>
              <LatitudeDegrees>43.285770714282989501953125</LatitudeDegrees>
              <LongitudeDegrees>-8.1951645947992801666259765625</LongitudeDegrees>
            </Position>
            <AltitudeMeters>127.40000152587890625</AltitudeMeters>
            <DistanceMeters>70315.345791749</DistanceMeters>
          </Trackpoint>
          <Trackpoint>
            <Time>2018-04-21T13:08:44.000Z</Time>
            <Position>
              <LatitudeDegrees>43.28572922386229038238525390625</LatitudeDegrees>
              <LongitudeDegrees>-8.19533315487205982208251953125</LongitudeDegrees>
            </Position>
            <AltitudeMeters>126.8000030517578125</AltitudeMeters>
            <DistanceMeters>70329.762318357</DistanceMeters>
          </Trackpoint>
          <Trackpoint>
            <Time>2018-04-21T13:08:47.000Z</Time>
            <Position>
              <LatitudeDegrees>43.285706005990505218505859375</LatitudeDegrees>
              <LongitudeDegrees>-8.19540356285870075225830078125</LongitudeDegrees>
            </Position>
            <AltitudeMeters>126.59999847412109375</AltitudeMeters>
            <DistanceMeters>70336.025436755</DistanceMeters>
          </Trackpoint>
          <Trackpoint>
            <Time>2018-04-21T13:08:48.000Z</Time>
            <Position>
              <LatitudeDegrees>43.28569921664893627166748046875</LatitudeDegrees>
              <LongitudeDegrees>-8.19543306715786457061767578125</LongitudeDegrees>
            </Position>
            <AltitudeMeters>125.1999969482421875</AltitudeMeters>
            <DistanceMeters>70338.532413661</DistanceMeters>
          </Trackpoint>
          <Trackpoint>
            <Time>2018-04-21T13:08:51.000Z</Time>
            <Position>
              <LatitudeDegrees>43.28563786111772060394287109375</LatitudeDegrees>
              <LongitudeDegrees>-8.1955545209348201751708984375</LongitudeDegrees>
            </Position>
            <AltitudeMeters>125.59999847412109375</AltitudeMeters>
            <DistanceMeters>70350.510303898</DistanceMeters>
          </Trackpoint>
          <Trackpoint>
            <Time>2018-04-21T13:08:56.000Z</Time>
            <Position>
              <LatitudeDegrees>43.28545890748500823974609375</LatitudeDegrees>
              <LongitudeDegrees>-8.19581083953380584716796875</LongitudeDegrees>
            </Position>
            <AltitudeMeters>125.1999969482421875</AltitudeMeters>
            <DistanceMeters>70379.285516487</DistanceMeters>
          </Trackpoint>
          <Trackpoint>
            <Time>2018-04-21T13:08:57.000Z</Time>
            <Position>
              <LatitudeDegrees>43.28541330993175506591796875</LatitudeDegrees>
              <LongitudeDegrees>-8.19585836492478847503662109375</LongitudeDegrees>
            </Position>
            <AltitudeMeters>125</AltitudeMeters>
            <DistanceMeters>70385.655851136</DistanceMeters>
          </Trackpoint>
          <Trackpoint>
            <Time>2018-04-21T13:09:03.000Z</Time>
            <Position>
              <LatitudeDegrees>43.28518691472709178924560546875</LatitudeDegrees>
              <LongitudeDegrees>-8.195998258888721466064453125</LongitudeDegrees>
            </Position>
            <AltitudeMeters>124.8000030517578125</AltitudeMeters>
            <DistanceMeters>70413.285920313</DistanceMeters>
          </Trackpoint>
          <Trackpoint>
            <Time>2018-04-21T13:09:05.000Z</Time>
            <Position>
              <LatitudeDegrees>43.28511516563594341278076171875</LatitudeDegrees>
              <LongitudeDegrees>-8.19600638933479785919189453125</LongitudeDegrees>
            </Position>
            <AltitudeMeters>124.1999969482421875</AltitudeMeters>
            <DistanceMeters>70421.298650404</DistanceMeters>
          </Trackpoint>
          <Trackpoint>
            <Time>2018-04-21T13:09:07.000Z</Time>
            <Position>
              <LatitudeDegrees>43.28505213372409343719482421875</LatitudeDegrees>
              <LongitudeDegrees>-8.19602231495082378387451171875</LongitudeDegrees>
            </Position>
            <AltitudeMeters>122.8000030517578125</AltitudeMeters>
            <DistanceMeters>70428.431986283</DistanceMeters>
          </Trackpoint>
          <Trackpoint>
            <Time>2018-04-21T13:09:09.000Z</Time>
            <Position>
              <LatitudeDegrees>43.28500293195247650146484375</LatitudeDegrees>
              <LongitudeDegrees>-8.19604930467903614044189453125</LongitudeDegrees>
            </Position>
            <AltitudeMeters>121.59999847412109375</AltitudeMeters>
            <DistanceMeters>70434.328238848</DistanceMeters>
          </Trackpoint>
          <Trackpoint>
            <Time>2018-04-21T13:09:11.000Z</Time>
            <Position>
              <LatitudeDegrees>43.2849645428359508514404296875</LatitudeDegrees>
              <LongitudeDegrees>-8.1960783898830413818359375</LongitudeDegrees>
            </Position>
            <AltitudeMeters>121.1999969482421875</AltitudeMeters>
            <DistanceMeters>70439.208024866</DistanceMeters>
          </Trackpoint>
          <Trackpoint>
            <Time>2018-04-21T13:09:14.000Z</Time>
            <Position>
              <LatitudeDegrees>43.28489338047802448272705078125</LatitudeDegrees>
              <LongitudeDegrees>-8.19607629440724849700927734375</LongitudeDegrees>
            </Position>
            <AltitudeMeters>119.8000030517578125</AltitudeMeters>
            <DistanceMeters>70447.130084654</DistanceMeters>
          </Trackpoint>
          <Trackpoint>
            <Time>2018-04-21T13:09:16.000Z</Time>
            <Position>
              <LatitudeDegrees>43.28484258614480495452880859375</LatitudeDegrees>
              <LongitudeDegrees>-8.19606187753379344940185546875</LongitudeDegrees>
            </Position>
            <AltitudeMeters>118.59999847412109375</AltitudeMeters>
            <DistanceMeters>70452.903299716</DistanceMeters>
          </Trackpoint>
          <Trackpoint>
            <Time>2018-04-21T13:09:18.000Z</Time>
            <Position>
              <LatitudeDegrees>43.28478022478520870208740234375</LatitudeDegrees>
              <LongitudeDegrees>-8.19607528857886791229248046875</LongitudeDegrees>
            </Position>
            <AltitudeMeters>117.59999847412109375</AltitudeMeters>
            <DistanceMeters>70459.928852922</DistanceMeters>
          </Trackpoint>
          <Trackpoint>
            <Time>2018-04-21T13:09:19.000Z</Time>
            <Position>
              <LatitudeDegrees>43.28474954701960086822509765625</LatitudeDegrees>
              <LongitudeDegrees>-8.19611032493412494659423828125</LongitudeDegrees>
            </Position>
            <AltitudeMeters>117.1999969482421875</AltitudeMeters>
            <DistanceMeters>70464.369763521</DistanceMeters>
          </Trackpoint>
          <Trackpoint>
            <Time>2018-04-21T13:09:21.000Z</Time>
            <Position>
              <LatitudeDegrees>43.28469959087669849395751953125</LatitudeDegrees>
              <LongitudeDegrees>-8.1961955688893795013427734375</LongitudeDegrees>
            </Position>
            <AltitudeMeters>116.40000152587890625</AltitudeMeters>
            <DistanceMeters>70473.236830432</DistanceMeters>
          </Trackpoint>
          <Trackpoint>
            <Time>2018-04-21T13:09:22.000Z</Time>
            <Position>
              <LatitudeDegrees>43.28467796556651592254638671875</LatitudeDegrees>
              <LongitudeDegrees>-8.19624125026166439056396484375</LongitudeDegrees>
            </Position>
            <AltitudeMeters>116.40000152587890625</AltitudeMeters>
            <DistanceMeters>70477.652250575</DistanceMeters>
          </Trackpoint>
          <Trackpoint>
            <Time>2018-04-21T13:09:24.000Z</Time>
            <Position>
              <LatitudeDegrees>43.284628428518772125244140625</LatitudeDegrees>
              <LongitudeDegrees>-8.19634200073778629302978515625</LongitudeDegrees>
            </Position>
            <AltitudeMeters>116.59999847412109375</AltitudeMeters>
            <DistanceMeters>70487.502996814</DistanceMeters>
          </Trackpoint>
          <Trackpoint>
            <Time>2018-04-21T13:09:29.000Z</Time>
            <Position>
              <LatitudeDegrees>43.28451870940625667572021484375</LatitudeDegrees>
              <LongitudeDegrees>-8.196570239961147308349609375</LongitudeDegrees>
            </Position>
            <AltitudeMeters>115.8000030517578125</AltitudeMeters>
            <DistanceMeters>70509.663992674</DistanceMeters>
          </Trackpoint>
          <Trackpoint>
            <Time>2018-04-21T13:09:35.000Z</Time>
            <Position>
              <LatitudeDegrees>43.28442583791911602020263671875</LatitudeDegrees>
              <LongitudeDegrees>-8.19676444865763187408447265625</LongitudeDegrees>
            </Position>
            <AltitudeMeters>115.59999847412109375</AltitudeMeters>
            <DistanceMeters>70528.490796985</DistanceMeters>
          </Trackpoint>
          <Trackpoint>
            <Time>2018-04-21T13:09:36.000Z</Time>
            <Position>
              <LatitudeDegrees>43.2844136841595172882080078125</LatitudeDegrees>
              <LongitudeDegrees>-8.1967893429100513458251953125</LongitudeDegrees>
            </Position>
            <AltitudeMeters>115.40000152587890625</AltitudeMeters>
            <DistanceMeters>70530.917236731</DistanceMeters>
          </Trackpoint>
          <Trackpoint>
            <Time>2018-04-21T13:09:38.000Z</Time>
            <Position>
              <LatitudeDegrees>43.28439750708639621734619140625</LatitudeDegrees>
              <LongitudeDegrees>-8.19682915695011615753173828125</LongitudeDegrees>
            </Position>
            <AltitudeMeters>115</AltitudeMeters>
            <DistanceMeters>70534.612297703</DistanceMeters>
          </Trackpoint>
          <Trackpoint>
            <Time>2018-04-21T13:09:41.000Z</Time>
            <Position>
              <LatitudeDegrees>43.2844009436666965484619140625</LatitudeDegrees>
              <LongitudeDegrees>-8.196855895221233367919921875</LongitudeDegrees>
            </Position>
            <AltitudeMeters>114.59999847412109375</AltitudeMeters>
            <DistanceMeters>70536.812325197</DistanceMeters>
          </Trackpoint>
          <Trackpoint>
            <Time>2018-04-21T13:09:44.000Z</Time>
            <Position>
              <LatitudeDegrees>43.28438392840325832366943359375</LatitudeDegrees>
              <LongitudeDegrees>-8.196856565773487091064453125</LongitudeDegrees>
            </Position>
            <AltitudeMeters>114.40000152587890625</AltitudeMeters>
            <DistanceMeters>70538.708102194</DistanceMeters>
          </Trackpoint>
          <Trackpoint>
            <Time>2018-04-21T13:09:47.000Z</Time>
            <Position>
              <LatitudeDegrees>43.28437269665300846099853515625</LatitudeDegrees>
              <LongitudeDegrees>-8.19683267734944820404052734375</LongitudeDegrees>
            </Position>
            <AltitudeMeters>114.1999969482421875</AltitudeMeters>
            <DistanceMeters>70541.012377558</DistanceMeters>
          </Trackpoint>
          <Trackpoint>
            <Time>2018-04-21T13:09:51.000Z</Time>
            <Position>
              <LatitudeDegrees>43.28430547378957271575927734375</LatitudeDegrees>
              <LongitudeDegrees>-8.19681222550570964813232421875</LongitudeDegrees>
            </Position>
            <AltitudeMeters>113.59999847412109375</AltitudeMeters>
            <DistanceMeters>70548.675443988</DistanceMeters>
          </Trackpoint>
          <Trackpoint>
            <Time>2018-04-21T13:09:53.000Z</Time>
            <Position>
              <LatitudeDegrees>43.28427060507237911224365234375</LatitudeDegrees>
              <LongitudeDegrees>-8.19679043255746364593505859375</LongitudeDegrees>
            </Position>
            <AltitudeMeters>113.40000152587890625</AltitudeMeters>
            <DistanceMeters>70552.940015943</DistanceMeters>
          </Trackpoint>
          <Trackpoint>
            <Time>2018-04-21T13:09:54.000Z</Time>
            <Position>
              <LatitudeDegrees>43.284249566495418548583984375</LatitudeDegrees>
              <LongitudeDegrees>-8.19678255356848239898681640625</LongitudeDegrees>
            </Position>
            <AltitudeMeters>113.1999969482421875</AltitudeMeters>
            <DistanceMeters>70555.366455689</DistanceMeters>
          </Trackpoint>
          <Trackpoint>
            <Time>2018-04-21T13:09:56.000Z</Time>
            <Position>
              <LatitudeDegrees>43.28421276994049549102783203125</LatitudeDegrees>
              <LongitudeDegrees>-8.19679009728133678436279296875</LongitudeDegrees>
            </Position>
            <AltitudeMeters>112.1999969482421875</AltitudeMeters>
            <DistanceMeters>70559.505302752</DistanceMeters>
          </Trackpoint>
          <Trackpoint>
            <Time>2018-04-21T13:09:58.000Z</Time>
            <Position>
              <LatitudeDegrees>43.28418041579425334930419921875</LatitudeDegrees>
              <LongitudeDegrees>-8.19682446308434009552001953125</LongitudeDegrees>
            </Position>
            <AltitudeMeters>111.59999847412109375</AltitudeMeters>
            <DistanceMeters>70564.056675662</DistanceMeters>
          </Trackpoint>
          <Trackpoint>
            <Time>2018-04-21T13:10:02.000Z</Time>
            <Position>
              <LatitudeDegrees>43.2840582914650440216064453125</LatitudeDegrees>
              <LongitudeDegrees>-8.1968580745160579681396484375</LongitudeDegrees>
            </Position>
            <AltitudeMeters>110.59999847412109375</AltitudeMeters>
            <DistanceMeters>70577.91950679</DistanceMeters>
          </Trackpoint>
          <Trackpoint>
            <Time>2018-04-21T13:10:03.000Z</Time>
            <Position>
              <LatitudeDegrees>43.2840247638523578643798828125</LatitudeDegrees>
              <LongitudeDegrees>-8.19683485664427280426025390625</LongitudeDegrees>
            </Position>
            <AltitudeMeters>109.8000030517578125</AltitudeMeters>
            <DistanceMeters>70582.098521966</DistanceMeters>
          </Trackpoint>
          <Trackpoint>
            <Time>2018-04-21T13:10:04.000Z</Time>
            <Position>
              <LatitudeDegrees>43.28399081714451313018798828125</LatitudeDegrees>
              <LongitudeDegrees>-8.19682245142757892608642578125</LongitudeDegrees>
            </Position>
            <AltitudeMeters>109.1999969482421875</AltitudeMeters>
            <DistanceMeters>70586.007343955</DistanceMeters>
          </Trackpoint>
          <Trackpoint>
            <Time>2018-04-21T13:10:06.000Z</Time>
            <Position>
              <LatitudeDegrees>43.28393273055553436279296875</LatitudeDegrees>
              <LongitudeDegrees>-8.1968278996646404266357421875</LongitudeDegrees>
            </Position>
            <AltitudeMeters>108.40000152587890625</AltitudeMeters>
            <DistanceMeters>70592.487301938</DistanceMeters>
          </Trackpoint>
          <Trackpoint>
            <Time>2018-04-21T13:10:07.000Z</Time>
            <Position>
              <LatitudeDegrees>43.2839144580066204071044921875</LatitudeDegrees>
              <LongitudeDegrees>-8.19683938287198543548583984375</LongitudeDegrees>
            </Position>
            <AltitudeMeters>108.1999969482421875</AltitudeMeters>
            <DistanceMeters>70594.723965156</DistanceMeters>
          </Trackpoint>
          <Trackpoint>
            <Time>2018-04-21T13:10:11.000Z</Time>
            <Position>
              <LatitudeDegrees>43.28382552601397037506103515625</LatitudeDegrees>
              <LongitudeDegrees>-8.1968523748219013214111328125</LongitudeDegrees>
            </Position>
            <AltitudeMeters>107.40000152587890625</AltitudeMeters>
            <DistanceMeters>70604.678211929</DistanceMeters>
          </Trackpoint>
          <Trackpoint>
            <Time>2018-04-21T13:10:12.000Z</Time>
            <Position>
              <LatitudeDegrees>43.28379920683801174163818359375</LatitudeDegrees>
              <LongitudeDegrees>-8.19684223271906375885009765625</LongitudeDegrees>
            </Position>
            <AltitudeMeters>106.59999847412109375</AltitudeMeters>
            <DistanceMeters>70607.722034925</DistanceMeters>
          </Trackpoint>
          <Trackpoint>
            <Time>2018-04-21T13:10:13.000Z</Time>
            <Position>
              <LatitudeDegrees>43.2837820239365100860595703125</LatitudeDegrees>
              <LongitudeDegrees>-8.1968419812619686126708984375</LongitudeDegrees>
            </Position>
            <AltitudeMeters>106.40000152587890625</AltitudeMeters>
            <DistanceMeters>70609.634410662</DistanceMeters>
          </Trackpoint>
          <Trackpoint>
            <Time>2018-04-21T13:10:14.000Z</Time>
            <Position>
              <LatitudeDegrees>43.28377221710979938507080078125</LatitudeDegrees>
              <LongitudeDegrees>-8.1968414783477783203125</LongitudeDegrees>
            </Position>
            <AltitudeMeters>105.59999847412109375</AltitudeMeters>
            <DistanceMeters>70610.72618449</DistanceMeters>
          </Trackpoint>
          <Trackpoint>
            <Time>2018-04-21T13:10:15.000Z</Time>
            <Position>
              <LatitudeDegrees>43.28375528566539287567138671875</LatitudeDegrees>
              <LongitudeDegrees>-8.19684994406998157501220703125</LongitudeDegrees>
            </Position>
            <AltitudeMeters>105.59999847412109375</AltitudeMeters>
            <DistanceMeters>70612.733026311</DistanceMeters>
          </Trackpoint>
          <Trackpoint>
            <Time>2018-04-21T13:10:16.000Z</Time>
            <Position>
              <LatitudeDegrees>43.28373634256422519683837890625</LatitudeDegrees>
              <LongitudeDegrees>-8.1968629360198974609375</LongitudeDegrees>
            </Position>
            <AltitudeMeters>105.8000030517578125</AltitudeMeters>
            <DistanceMeters>70615.091527337</DistanceMeters>
          </Trackpoint>
          <Trackpoint>
            <Time>2018-04-21T13:10:21.000Z</Time>
            <Position>
              <LatitudeDegrees>43.28361220657825469970703125</LatitudeDegrees>
              <LongitudeDegrees>-8.19693108089268207550048828125</LongitudeDegrees>
            </Position>
            <AltitudeMeters>105.1999969482421875</AltitudeMeters>
            <DistanceMeters>70629.970416882</DistanceMeters>
          </Trackpoint>
          <Trackpoint>
            <Time>2018-04-21T13:10:22.000Z</Time>
            <Position>
              <LatitudeDegrees>43.2835905812680721282958984375</LatitudeDegrees>
              <LongitudeDegrees>-8.19695304147899150848388671875</LongitudeDegrees>
            </Position>
            <AltitudeMeters>105</AltitudeMeters>
            <DistanceMeters>70632.966396853</DistanceMeters>
          </Trackpoint>
          <Trackpoint>
            <Time>2018-04-21T13:10:25.000Z</Time>
            <Position>
              <LatitudeDegrees>43.28353500925004482269287109375</LatitudeDegrees>
              <LongitudeDegrees>-8.197016827762126922607421875</LongitudeDegrees>
            </Position>
            <AltitudeMeters>104.40000152587890625</AltitudeMeters>
            <DistanceMeters>70641.027440835</DistanceMeters>
          </Trackpoint>
          <Trackpoint>
            <Time>2018-04-21T13:10:28.000Z</Time>
            <Position>
              <LatitudeDegrees>43.28346745111048221588134765625</LatitudeDegrees>
              <LongitudeDegrees>-8.197095282375812530517578125</LongitudeDegrees>
            </Position>
            <AltitudeMeters>104.59999847412109375</AltitudeMeters>
            <DistanceMeters>70650.874061107</DistanceMeters>
          </Trackpoint>
          <Trackpoint>
            <Time>2018-04-21T13:10:31.000Z</Time>
            <Position>
              <LatitudeDegrees>43.28339553438127040863037109375</LatitudeDegrees>
              <LongitudeDegrees>-8.1971593201160430908203125</LongitudeDegrees>
            </Position>
            <AltitudeMeters>104</AltitudeMeters>
            <DistanceMeters>70660.412774346</DistanceMeters>
          </Trackpoint>
          <Trackpoint>
            <Time>2018-04-21T13:10:32.000Z</Time>
            <Position>
              <LatitudeDegrees>43.28336410224437713623046875</LatitudeDegrees>
              <LongitudeDegrees>-8.197163008153438568115234375</LongitudeDegrees>
            </Position>
            <AltitudeMeters>103.1999969482421875</AltitudeMeters>
            <DistanceMeters>70663.924908231</DistanceMeters>
          </Trackpoint>
          <Trackpoint>
            <Time>2018-04-21T13:10:33.000Z</Time>
            <Position>
              <LatitudeDegrees>43.28333300538361072540283203125</LatitudeDegrees>
              <LongitudeDegrees>-8.1971593201160430908203125</LongitudeDegrees>
            </Position>
            <AltitudeMeters>103.1999969482421875</AltitudeMeters>
            <DistanceMeters>70667.398261384</DistanceMeters>
          </Trackpoint>
          <Trackpoint>
            <Time>2018-04-21T13:10:36.000Z</Time>
            <Position>
              <LatitudeDegrees>43.28323208726942539215087890625</LatitudeDegrees>
              <LongitudeDegrees>-8.19711380638182163238525390625</LongitudeDegrees>
            </Position>
            <AltitudeMeters>102.1999969482421875</AltitudeMeters>
            <DistanceMeters>70679.220592931</DistanceMeters>
          </Trackpoint>
          <Trackpoint>
            <Time>2018-04-21T13:10:37.000Z</Time>
            <Position>
              <LatitudeDegrees>43.2831983081996440887451171875</LatitudeDegrees>
              <LongitudeDegrees>-8.197128474712371826171875</LongitudeDegrees>
            </Position>
            <AltitudeMeters>101.59999847412109375</AltitudeMeters>
            <DistanceMeters>70683.163915342</DistanceMeters>
          </Trackpoint>
          <Trackpoint>
            <Time>2018-04-21T13:10:39.000Z</Time>
            <Position>
              <LatitudeDegrees>43.28314642421901226043701171875</LatitudeDegrees>
              <LongitudeDegrees>-8.1972070969641208648681640625</LongitudeDegrees>
            </Position>
            <AltitudeMeters>100.59999847412109375</AltitudeMeters>
            <DistanceMeters>70691.762126542</DistanceMeters>
          </Trackpoint>
          <Trackpoint>
            <Time>2018-04-21T13:10:40.000Z</Time>
            <Position>
              <LatitudeDegrees>43.28312630765140056610107421875</LatitudeDegrees>
              <LongitudeDegrees>-8.19725646637380123138427734375</LongitudeDegrees>
            </Position>
            <AltitudeMeters>100.40000152587890625</AltitudeMeters>
            <DistanceMeters>70696.346119112</DistanceMeters>
          </Trackpoint>
          <Trackpoint>
            <Time>2018-04-21T13:10:47.000Z</Time>
            <Position>
              <LatitudeDegrees>43.28296302817761898040771484375</LatitudeDegrees>
              <LongitudeDegrees>-8.19762292318046092987060546875</LongitudeDegrees>
            </Position>
            <AltitudeMeters>100.40000152587890625</AltitudeMeters>
            <DistanceMeters>70731.158335923</DistanceMeters>
          </Trackpoint>
          <Trackpoint>
            <Time>2018-04-21T13:10:53.000Z</Time>
            <Position>
              <LatitudeDegrees>43.2828167639672756195068359375</LatitudeDegrees>
              <LongitudeDegrees>-8.197903297841548919677734375</LongitudeDegrees>
            </Position>
            <AltitudeMeters>99.8000030517578125</AltitudeMeters>
            <DistanceMeters>70759.106531077</DistanceMeters>
          </Trackpoint>
          <Trackpoint>
            <Time>2018-04-21T13:10:58.000Z</Time>
            <Position>
              <LatitudeDegrees>43.2827411592006683349609375</LatitudeDegrees>
              <LongitudeDegrees>-8.198172189295291900634765625</LongitudeDegrees>
            </Position>
            <AltitudeMeters>100.40000152587890625</AltitudeMeters>
            <DistanceMeters>70782.462233975</DistanceMeters>
          </Trackpoint>
          <Trackpoint>
            <Time>2018-04-21T13:11:00.000Z</Time>
            <Position>
              <LatitudeDegrees>43.28269765712320804595947265625</LatitudeDegrees>
              <LongitudeDegrees>-8.1982736103236675262451171875</LongitudeDegrees>
            </Position>
            <AltitudeMeters>100.1999969482421875</AltitudeMeters>
            <DistanceMeters>70792.00000049</DistanceMeters>
          </Trackpoint>
          <Trackpoint>
            <Time>2018-04-21T13:11:03.000Z</Time>
            <Position>
              <LatitudeDegrees>43.28262255527079105377197265625</LatitudeDegrees>
              <LongitudeDegrees>-8.1984040327370166778564453125</LongitudeDegrees>
            </Position>
            <AltitudeMeters>101</AltitudeMeters>
            <DistanceMeters>70805.47437309</DistanceMeters>
          </Trackpoint>
          <Trackpoint>
            <Time>2018-04-21T13:11:05.000Z</Time>
            <Position>
              <LatitudeDegrees>43.28258366324007511138916015625</LatitudeDegrees>
              <LongitudeDegrees>-8.19847770966589450836181640625</LongitudeDegrees>
            </Position>
            <AltitudeMeters>102</AltitudeMeters>
            <DistanceMeters>70812.848593072</DistanceMeters>
          </Trackpoint>
          <Trackpoint>
            <Time>2018-04-21T13:11:07.000Z</Time>
            <Position>
              <LatitudeDegrees>43.282547704875469207763671875</LatitudeDegrees>
              <LongitudeDegrees>-8.1985594332218170166015625</LongitudeDegrees>
            </Position>
            <AltitudeMeters>102.1999969482421875</AltitudeMeters>
            <DistanceMeters>70820.584958283</DistanceMeters>
          </Trackpoint>
          <Trackpoint>
            <Time>2018-04-21T13:11:10.000Z</Time>
            <Position>
              <LatitudeDegrees>43.28249984420835971832275390625</LatitudeDegrees>
              <LongitudeDegrees>-8.198705948889255523681640625</LongitudeDegrees>
            </Position>
            <AltitudeMeters>102.8000030517578125</AltitudeMeters>
            <DistanceMeters>70833.59702704</DistanceMeters>
          </Trackpoint>
          <Trackpoint>
            <Time>2018-04-21T13:11:14.000Z</Time>
            <Position>
              <LatitudeDegrees>43.28245818614959716796875</LatitudeDegrees>
              <LongitudeDegrees>-8.1989243812859058380126953125</LongitudeDegrees>
            </Position>
            <AltitudeMeters>102.59999847412109375</AltitudeMeters>
            <DistanceMeters>70851.893309827</DistanceMeters>
          </Trackpoint>
          <Trackpoint>
            <Time>2018-04-21T13:11:15.000Z</Time>
            <Position>
              <LatitudeDegrees>43.2824596948921680450439453125</LatitudeDegrees>
              <LongitudeDegrees>-8.19898766465485095977783203125</LongitudeDegrees>
            </Position>
            <AltitudeMeters>102.40000152587890625</AltitudeMeters>
            <DistanceMeters>70857.024752403</DistanceMeters>
          </Trackpoint>
          <Trackpoint>
            <Time>2018-04-21T13:11:21.000Z</Time>
            <Position>
              <LatitudeDegrees>43.2824756205081939697265625</LatitudeDegrees>
              <LongitudeDegrees>-8.19943006150424480438232421875</LongitudeDegrees>
            </Position>
            <AltitudeMeters>101.1999969482421875</AltitudeMeters>
            <DistanceMeters>70892.914041528</DistanceMeters>
          </Trackpoint>
          <Trackpoint>
            <Time>2018-04-21T13:11:22.000Z</Time>
            <Position>
              <LatitudeDegrees>43.282477967441082000732421875</LatitudeDegrees>
              <LongitudeDegrees>-8.199526369571685791015625</LongitudeDegrees>
            </Position>
            <AltitudeMeters>100.8000030517578125</AltitudeMeters>
            <DistanceMeters>70900.721282782</DistanceMeters>
          </Trackpoint>
          <Trackpoint>
            <Time>2018-04-21T13:11:25.000Z</Time>
            <Position>
              <LatitudeDegrees>43.28250403515994548797607421875</LatitudeDegrees>
              <LongitudeDegrees>-8.1998091749846935272216796875</LongitudeDegrees>
            </Position>
            <AltitudeMeters>99.1999969482421875</AltitudeMeters>
            <DistanceMeters>70923.818834954</DistanceMeters>
          </Trackpoint>
          <Trackpoint>
            <Time>2018-04-21T13:11:26.000Z</Time>
            <Position>
              <LatitudeDegrees>43.28252197243273258209228515625</LatitudeDegrees>
              <LongitudeDegrees>-8.19989860989153385162353515625</LongitudeDegrees>
            </Position>
            <AltitudeMeters>98.1999969482421875</AltitudeMeters>
            <DistanceMeters>70931.334961498</DistanceMeters>
          </Trackpoint>
          <Trackpoint>
            <Time>2018-04-21T13:11:27.000Z</Time>
            <Position>
              <LatitudeDegrees>43.282544352114200592041015625</LatitudeDegrees>
              <LongitudeDegrees>-8.1999821774661540985107421875</LongitudeDegrees>
            </Position>
            <AltitudeMeters>97.8000030517578125</AltitudeMeters>
            <DistanceMeters>70938.55011158</DistanceMeters>
          </Trackpoint>
          <Trackpoint>
            <Time>2018-04-21T13:11:31.000Z</Time>
            <Position>
              <LatitudeDegrees>43.28264124691486358642578125</LatitudeDegrees>
              <LongitudeDegrees>-8.200288452208042144775390625</LongitudeDegrees>
            </Position>
            <AltitudeMeters>95.8000030517578125</AltitudeMeters>
            <DistanceMeters>70965.608374052</DistanceMeters>
          </Trackpoint>
          <Trackpoint>
            <Time>2018-04-21T13:11:33.000Z</Time>
            <Position>
              <LatitudeDegrees>43.2826806418597698211669921875</LatitudeDegrees>
              <LongitudeDegrees>-8.20043739862740039825439453125</LongitudeDegrees>
            </Position>
            <AltitudeMeters>94</AltitudeMeters>
            <DistanceMeters>70978.448589615</DistanceMeters>
          </Trackpoint>
          <Trackpoint>
            <Time>2018-04-21T13:11:35.000Z</Time>
            <Position>
              <LatitudeDegrees>43.28268416225910186767578125</LatitudeDegrees>
              <LongitudeDegrees>-8.20059279911220073699951171875</LongitudeDegrees>
            </Position>
            <AltitudeMeters>92.59999847412109375</AltitudeMeters>
            <DistanceMeters>70991.045992658</DistanceMeters>
          </Trackpoint>
          <Trackpoint>
            <Time>2018-04-21T13:11:37.000Z</Time>
            <Position>
              <LatitudeDegrees>43.28266060911118984222412109375</LatitudeDegrees>
              <LongitudeDegrees>-8.20075389929115772247314453125</LongitudeDegrees>
            </Position>
            <AltitudeMeters>90.8000030517578125</AltitudeMeters>
            <DistanceMeters>71004.35991021</DistanceMeters>
          </Trackpoint>
          <Trackpoint>
            <Time>2018-04-21T13:11:39.000Z</Time>
            <Position>
              <LatitudeDegrees>43.28261232934892177581787109375</LatitudeDegrees>
              <LongitudeDegrees>-8.20091784931719303131103515625</LongitudeDegrees>
            </Position>
            <AltitudeMeters>89.59999847412109375</AltitudeMeters>
            <DistanceMeters>71018.689737088</DistanceMeters>
          </Trackpoint>
          <Trackpoint>
            <Time>2018-04-21T13:11:41.000Z</Time>
            <Position>
              <LatitudeDegrees>43.28258031047880649566650390625</LatitudeDegrees>
              <LongitudeDegrees>-8.20109688676893711090087890625</LongitudeDegrees>
            </Position>
            <AltitudeMeters>88.59999847412109375</AltitudeMeters>
            <DistanceMeters>71033.627682696</DistanceMeters>
          </Trackpoint>
          <Trackpoint>
            <Time>2018-04-21T13:11:43.000Z</Time>
            <Position>
              <LatitudeDegrees>43.28256254084408283233642578125</LatitudeDegrees>
              <LongitudeDegrees>-8.2012766785919666290283203125</LongitudeDegrees>
            </Position>
            <AltitudeMeters>87.40000152587890625</AltitudeMeters>
            <DistanceMeters>71048.32890202</DistanceMeters>
          </Trackpoint>
          <Trackpoint>
            <Time>2018-04-21T13:11:44.000Z</Time>
            <Position>
              <LatitudeDegrees>43.2825626246631145477294921875</LatitudeDegrees>
              <LongitudeDegrees>-8.2013658620417118072509765625</LongitudeDegrees>
            </Position>
            <AltitudeMeters>86.8000030517578125</AltitudeMeters>
            <DistanceMeters>71055.554682393</DistanceMeters>
          </Trackpoint>
          <Trackpoint>
            <Time>2018-04-21T13:11:46.000Z</Time>
            <Position>
              <LatitudeDegrees>43.2825914584100246429443359375</LatitudeDegrees>
              <LongitudeDegrees>-8.20154406130313873291015625</LongitudeDegrees>
            </Position>
            <AltitudeMeters>85.8000030517578125</AltitudeMeters>
            <DistanceMeters>71070.345919397</DistanceMeters>
          </Trackpoint>
          <Trackpoint>
            <Time>2018-04-21T13:11:48.000Z</Time>
            <Position>
              <LatitudeDegrees>43.28264887444674968719482421875</LatitudeDegrees>
              <LongitudeDegrees>-8.20172687061131000518798828125</LongitudeDegrees>
            </Position>
            <AltitudeMeters>83.8000030517578125</AltitudeMeters>
            <DistanceMeters>71086.477806237</DistanceMeters>
          </Trackpoint>
          <Trackpoint>
            <Time>2018-04-21T13:11:49.000Z</Time>
            <Position>
              <LatitudeDegrees>43.282680809497833251953125</LatitudeDegrees>
              <LongitudeDegrees>-8.2018178142607212066650390625</LongitudeDegrees>
            </Position>
            <AltitudeMeters>83</AltitudeMeters>
            <DistanceMeters>71094.658938592</DistanceMeters>
          </Trackpoint>
          <Trackpoint>
            <Time>2018-04-21T13:11:50.000Z</Time>
            <Position>
              <LatitudeDegrees>43.28271006233990192413330078125</LatitudeDegrees>
              <LongitudeDegrees>-8.2019076682627201080322265625</LongitudeDegrees>
            </Position>
            <AltitudeMeters>82.40000152587890625</AltitudeMeters>
            <DistanceMeters>71102.634392088</DistanceMeters>
          </Trackpoint>
          <Trackpoint>
            <Time>2018-04-21T13:11:52.000Z</Time>
            <Position>
              <LatitudeDegrees>43.28275415115058422088623046875</LatitudeDegrees>
              <LongitudeDegrees>-8.20208377204835414886474609375</LongitudeDegrees>
            </Position>
            <AltitudeMeters>81.59999847412109375</AltitudeMeters>
            <DistanceMeters>71117.723605038</DistanceMeters>
          </Trackpoint>
          <Trackpoint>
            <Time>2018-04-21T13:11:53.000Z</Time>
            <Position>
              <LatitudeDegrees>43.282766640186309814453125</LatitudeDegrees>
              <LongitudeDegrees>-8.202170692384243011474609375</LongitudeDegrees>
            </Position>
            <AltitudeMeters>80.8000030517578125</AltitudeMeters>
            <DistanceMeters>71124.902997515</DistanceMeters>
          </Trackpoint>
          <Trackpoint>
            <Time>2018-04-21T13:11:55.000Z</Time>
            <Position>
              <LatitudeDegrees>43.28276035375893115997314453125</LatitudeDegrees>
              <LongitudeDegrees>-8.20235886611044406890869140625</LongitudeDegrees>
            </Position>
            <AltitudeMeters>79.40000152587890625</AltitudeMeters>
            <DistanceMeters>71140.165956341</DistanceMeters>
          </Trackpoint>
          <Trackpoint>
            <Time>2018-04-21T13:11:56.000Z</Time>
            <Position>
              <LatitudeDegrees>43.28274627216160297393798828125</LatitudeDegrees>
              <LongitudeDegrees>-8.2024605385959148406982421875</LongitudeDegrees>
            </Position>
            <AltitudeMeters>79.1999969482421875</AltitudeMeters>
            <DistanceMeters>71148.552030234</DistanceMeters>
          </Trackpoint>
          <Trackpoint>
            <Time>2018-04-21T13:11:58.000Z</Time>
            <Position>
              <LatitudeDegrees>43.28271525911986827850341796875</LatitudeDegrees>
              <LongitudeDegrees>-8.202669918537139892578125</LongitudeDegrees>
            </Position>
            <AltitudeMeters>77.59999847412109375</AltitudeMeters>
            <DistanceMeters>71165.864635391</DistanceMeters>
          </Trackpoint>
          <Trackpoint>
            <Time>2018-04-21T13:11:59.000Z</Time>
            <Position>
              <LatitudeDegrees>43.28270989470183849334716796875</LatitudeDegrees>
              <LongitudeDegrees>-8.20276848971843719482421875</LongitudeDegrees>
            </Position>
            <AltitudeMeters>76.59999847412109375</AltitudeMeters>
            <DistanceMeters>71173.873420129</DistanceMeters>
          </Trackpoint>
          <Trackpoint>
            <Time>2018-04-21T13:12:01.000Z</Time>
            <Position>
              <LatitudeDegrees>43.282722048461437225341796875</LatitudeDegrees>
              <LongitudeDegrees>-8.202941827476024627685546875</LongitudeDegrees>
            </Position>
            <AltitudeMeters>75.40000152587890625</AltitudeMeters>
            <DistanceMeters>71187.982887351</DistanceMeters>
          </Trackpoint>
          <Trackpoint>
            <Time>2018-04-21T13:12:02.000Z</Time>
            <Position>
              <LatitudeDegrees>43.28273654915392398834228515625</LatitudeDegrees>
              <LongitudeDegrees>-8.2030217908322811126708984375</LongitudeDegrees>
            </Position>
            <AltitudeMeters>74.59999847412109375</AltitudeMeters>
            <DistanceMeters>71194.659148081</DistanceMeters>
          </Trackpoint>
          <Trackpoint>
            <Time>2018-04-21T13:12:03.000Z</Time>
            <Position>
              <LatitudeDegrees>43.28275658190250396728515625</LatitudeDegrees>
              <LongitudeDegrees>-8.20309513248503208160400390625</LongitudeDegrees>
            </Position>
            <AltitudeMeters>73.59999847412109375</AltitudeMeters>
            <DistanceMeters>71201.006050555</DistanceMeters>
          </Trackpoint>
          <Trackpoint>
            <Time>2018-04-21T13:12:05.000Z</Time>
            <Position>
              <LatitudeDegrees>43.28281466849148273468017578125</LatitudeDegrees>
              <LongitudeDegrees>-8.20319403894245624542236328125</LongitudeDegrees>
            </Position>
            <AltitudeMeters>72</AltitudeMeters>
            <DistanceMeters>71211.302316745</DistanceMeters>
          </Trackpoint>
          <Trackpoint>
            <Time>2018-04-21T13:12:07.000Z</Time>
            <Position>
              <LatitudeDegrees>43.2828519679605960845947265625</LatitudeDegrees>
              <LongitudeDegrees>-8.20329680107533931732177734375</LongitudeDegrees>
            </Position>
            <AltitudeMeters>71</AltitudeMeters>
            <DistanceMeters>71220.606203717</DistanceMeters>
          </Trackpoint>
          <Trackpoint>
            <Time>2018-04-21T13:12:08.000Z</Time>
            <Position>
              <LatitudeDegrees>43.28286311589181423187255859375</LatitudeDegrees>
              <LongitudeDegrees>-8.2033627666532993316650390625</LongitudeDegrees>
            </Position>
            <AltitudeMeters>71</AltitudeMeters>
            <DistanceMeters>71226.093122239</DistanceMeters>
          </Trackpoint>
          <Trackpoint>
            <Time>2018-04-21T13:12:09.000Z</Time>
            <Position>
              <LatitudeDegrees>43.28287635929882526397705078125</LatitudeDegrees>
              <LongitudeDegrees>-8.20343661122024059295654296875</LongitudeDegrees>
            </Position>
            <AltitudeMeters>70.8000030517578125</AltitudeMeters>
            <DistanceMeters>71232.255954503</DistanceMeters>
          </Trackpoint>
          <Trackpoint>
            <Time>2018-04-21T13:12:12.000Z</Time>
            <Position>
              <LatitudeDegrees>43.28293268568813800811767578125</LatitudeDegrees>
              <LongitudeDegrees>-8.2036889903247356414794921875</LongitudeDegrees>
            </Position>
            <AltitudeMeters>69.40000152587890625</AltitudeMeters>
            <DistanceMeters>71253.644354926</DistanceMeters>
          </Trackpoint>
          <Trackpoint>
            <Time>2018-04-21T13:12:14.000Z</Time>
            <Position>
              <LatitudeDegrees>43.28298716805875301361083984375</LatitudeDegrees>
              <LongitudeDegrees>-8.20386928506195545196533203125</LongitudeDegrees>
            </Position>
            <AltitudeMeters>68.8000030517578125</AltitudeMeters>
            <DistanceMeters>71269.461665</DistanceMeters>
          </Trackpoint>
          <Trackpoint>
            <Time>2018-04-21T13:12:15.000Z</Time>
            <Position>
              <LatitudeDegrees>43.2830115593969821929931640625</LatitudeDegrees>
              <LongitudeDegrees>-8.20395804941654205322265625</LongitudeDegrees>
            </Position>
            <AltitudeMeters>68.40000152587890625</AltitudeMeters>
            <DistanceMeters>71277.14943778</DistanceMeters>
          </Trackpoint>
          <Trackpoint>
            <Time>2018-04-21T13:12:17.000Z</Time>
            <Position>
              <LatitudeDegrees>43.28304651193320751190185546875</LatitudeDegrees>
              <LongitudeDegrees>-8.2041322253644466400146484375</LongitudeDegrees>
            </Position>
            <AltitudeMeters>66.40000152587890625</AltitudeMeters>
            <DistanceMeters>71291.788487413</DistanceMeters>
          </Trackpoint>
          <Trackpoint>
            <Time>2018-04-21T13:12:19.000Z</Time>
            <Position>
              <LatitudeDegrees>43.2830722443759441375732421875</LatitudeDegrees>
              <LongitudeDegrees>-8.20429391227662563323974609375</LongitudeDegrees>
            </Position>
            <AltitudeMeters>65.59999847412109375</AltitudeMeters>
            <DistanceMeters>71305.198706367</DistanceMeters>
          </Trackpoint>
          <Trackpoint>
            <Time>2018-04-21T13:12:20.000Z</Time>
            <Position>
              <LatitudeDegrees>43.28308138065040111541748046875</LatitudeDegrees>
              <LongitudeDegrees>-8.2043696008622646331787109375</LongitudeDegrees>
            </Position>
            <AltitudeMeters>64.8000030517578125</AltitudeMeters>
            <DistanceMeters>71311.41479011</DistanceMeters>
          </Trackpoint>
          <Trackpoint>
            <Time>2018-04-21T13:12:21.000Z</Time>
            <Position>
              <LatitudeDegrees>43.2830977253615856170654296875</LatitudeDegrees>
              <LongitudeDegrees>-8.20443958975374698638916015625</LongitudeDegrees>
            </Position>
            <AltitudeMeters>64</AltitudeMeters>
            <DistanceMeters>71317.370471454</DistanceMeters>
          </Trackpoint>
          <Trackpoint>
            <Time>2018-04-21T13:12:22.000Z</Time>
            <Position>
              <LatitudeDegrees>43.28312831930816173553466796875</LatitudeDegrees>
              <LongitudeDegrees>-8.2045112550258636474609375</LongitudeDegrees>
            </Position>
            <AltitudeMeters>63</AltitudeMeters>
            <DistanceMeters>71324.101958927</DistanceMeters>
          </Trackpoint>
          <Trackpoint>
            <Time>2018-04-21T13:12:23.000Z</Time>
            <Position>
              <LatitudeDegrees>43.28317039646208286285400390625</LatitudeDegrees>
              <LongitudeDegrees>-8.20458426140248775482177734375</LongitudeDegrees>
            </Position>
            <AltitudeMeters>61.59999847412109375</AltitudeMeters>
            <DistanceMeters>71331.646864619</DistanceMeters>
          </Trackpoint>
          <Trackpoint>
            <Time>2018-04-21T13:12:26.000Z</Time>
            <Position>
              <LatitudeDegrees>43.28334809280931949615478515625</LatitudeDegrees>
              <LongitudeDegrees>-8.2047833316028118133544921875</LongitudeDegrees>
            </Position>
            <AltitudeMeters>60</AltitudeMeters>
            <DistanceMeters>71357.168216737</DistanceMeters>
          </Trackpoint>
          <Trackpoint>
            <Time>2018-04-21T13:12:27.000Z</Time>
            <Position>
              <LatitudeDegrees>43.28340492211282253265380859375</LatitudeDegrees>
              <LongitudeDegrees>-8.20483806543052196502685546875</LongitudeDegrees>
            </Position>
            <AltitudeMeters>59.200000762939453125</AltitudeMeters>
            <DistanceMeters>71364.892900882</DistanceMeters>
          </Trackpoint>
          <Trackpoint>
            <Time>2018-04-21T13:12:28.000Z</Time>
            <Position>
              <LatitudeDegrees>43.28346175141632556915283203125</LatitudeDegrees>
              <LongitudeDegrees>-8.2048894464969635009765625</LongitudeDegrees>
            </Position>
            <AltitudeMeters>58.40000152587890625</AltitudeMeters>
            <DistanceMeters>71372.464687682</DistanceMeters>
          </Trackpoint>
          <Trackpoint>
            <Time>2018-04-21T13:12:30.000Z</Time>
            <Position>
              <LatitudeDegrees>43.28357356600463390350341796875</LatitudeDegrees>
              <LongitudeDegrees>-8.20499782450497150421142578125</LongitudeDegrees>
            </Position>
            <AltitudeMeters>56.40000152587890625</AltitudeMeters>
            <DistanceMeters>71387.695664796</DistanceMeters>
          </Trackpoint>
          <Trackpoint>
            <Time>2018-04-21T13:12:31.000Z</Time>
            <Position>
              <LatitudeDegrees>43.2836231030523777008056640625</LatitudeDegrees>
              <LongitudeDegrees>-8.2050503790378570556640625</LongitudeDegrees>
            </Position>
            <AltitudeMeters>55.40000152587890625</AltitudeMeters>
            <DistanceMeters>71394.661842428</DistanceMeters>
          </Trackpoint>
          <Trackpoint>
            <Time>2018-04-21T13:12:32.000Z</Time>
            <Position>
              <LatitudeDegrees>43.28367213718593120574951171875</LatitudeDegrees>
              <LongitudeDegrees>-8.20509664714336395263671875</LongitudeDegrees>
            </Position>
            <AltitudeMeters>54.200000762939453125</AltitudeMeters>
            <DistanceMeters>71401.283097682</DistanceMeters>
          </Trackpoint>
          <Trackpoint>
            <Time>2018-04-21T13:12:33.000Z</Time>
            <Position>
              <LatitudeDegrees>43.28371823765337467193603515625</LatitudeDegrees>
              <LongitudeDegrees>-8.205136545002460479736328125</LongitudeDegrees>
            </Position>
            <AltitudeMeters>53</AltitudeMeters>
            <DistanceMeters>71407.348452695</DistanceMeters>
          </Trackpoint>
          <Trackpoint>
            <Time>2018-04-21T13:12:34.000Z</Time>
            <Position>
              <LatitudeDegrees>43.28376031480729579925537109375</LatitudeDegrees>
              <LongitudeDegrees>-8.205169737339019775390625</LongitudeDegrees>
            </Position>
            <AltitudeMeters>51.59999847412109375</AltitudeMeters>
            <DistanceMeters>71412.749114406</DistanceMeters>
          </Trackpoint>
          <Trackpoint>
            <Time>2018-04-21T13:12:36.000Z</Time>
            <Position>
              <LatitudeDegrees>43.28381965868175029754638671875</LatitudeDegrees>
              <LongitudeDegrees>-8.20523620583117008209228515625</LongitudeDegrees>
            </Position>
            <AltitudeMeters>50.200000762939453125</AltitudeMeters>
            <DistanceMeters>71421.271903557</DistanceMeters>
          </Trackpoint>
          <Trackpoint>
            <Time>2018-04-21T13:12:37.000Z</Time>
            <Position>
              <LatitudeDegrees>43.28383893705904483795166015625</LatitudeDegrees>
              <LongitudeDegrees>-8.20528616197407245635986328125</LongitudeDegrees>
            </Position>
            <AltitudeMeters>49</AltitudeMeters>
            <DistanceMeters>71425.852940301</DistanceMeters>
          </Trackpoint>
          <Trackpoint>
            <Time>2018-04-21T13:12:39.000Z</Time>
            <Position>
              <LatitudeDegrees>43.28384061343967914581298828125</LatitudeDegrees>
              <LongitudeDegrees>-8.20539034903049468994140625</LongitudeDegrees>
            </Position>
            <AltitudeMeters>48</AltitudeMeters>
            <DistanceMeters>71434.296960884</DistanceMeters>
          </Trackpoint>
          <Trackpoint>
            <Time>2018-04-21T13:12:41.000Z</Time>
            <Position>
              <LatitudeDegrees>43.28379602171480655670166015625</LatitudeDegrees>
              <LongitudeDegrees>-8.2054889202117919921875</LongitudeDegrees>
            </Position>
            <AltitudeMeters>46.59999847412109375</AltitudeMeters>
            <DistanceMeters>71443.70076536</DistanceMeters>
          </Trackpoint>
          <Trackpoint>
            <Time>2018-04-21T13:12:43.000Z</Time>
            <Position>
              <LatitudeDegrees>43.2837391085922718048095703125</LatitudeDegrees>
              <LongitudeDegrees>-8.205610625445842742919921875</LongitudeDegrees>
            </Position>
            <AltitudeMeters>45.40000152587890625</AltitudeMeters>
            <DistanceMeters>71455.421069232</DistanceMeters>
          </Trackpoint>
          <Trackpoint>
            <Time>2018-04-21T13:12:44.000Z</Time>
            <Position>
              <LatitudeDegrees>43.2837055809795856475830078125</LatitudeDegrees>
              <LongitudeDegrees>-8.20569033734500408172607421875</LongitudeDegrees>
            </Position>
            <AltitudeMeters>44.200000762939453125</AltitudeMeters>
            <DistanceMeters>71462.880514992</DistanceMeters>
          </Trackpoint>
          <Trackpoint>
            <Time>2018-04-21T13:12:46.000Z</Time>
            <Position>
              <LatitudeDegrees>43.28363374806940555572509765625</LatitudeDegrees>
              <LongitudeDegrees>-8.2058612443506717681884765625</LongitudeDegrees>
            </Position>
            <AltitudeMeters>42</AltitudeMeters>
            <DistanceMeters>71478.870436332</DistanceMeters>
          </Trackpoint>
          <Trackpoint>
            <Time>2018-04-21T13:12:48.000Z</Time>
            <Position>
              <LatitudeDegrees>43.28357725404202938079833984375</LatitudeDegrees>
              <LongitudeDegrees>-8.2060386054217815399169921875</LongitudeDegrees>
            </Position>
            <AltitudeMeters>39.40000152587890625</AltitudeMeters>
            <DistanceMeters>71494.556465879</DistanceMeters>
          </Trackpoint>
          <Trackpoint>
            <Time>2018-04-21T13:12:49.000Z</Time>
            <Position>
              <LatitudeDegrees>43.2835520245134830474853515625</LatitudeDegrees>
              <LongitudeDegrees>-8.206124268472194671630859375</LongitudeDegrees>
            </Position>
            <AltitudeMeters>38.40000152587890625</AltitudeMeters>
            <DistanceMeters>71502.044305663</DistanceMeters>
          </Trackpoint>
          <Trackpoint>
            <Time>2018-04-21T13:12:50.000Z</Time>
            <Position>
              <LatitudeDegrees>43.2835275493562221527099609375</LatitudeDegrees>
              <LongitudeDegrees>-8.20621085353195667266845703125</LongitudeDegrees>
            </Position>
            <AltitudeMeters>36.59999847412109375</AltitudeMeters>
            <DistanceMeters>71509.570037485</DistanceMeters>
          </Trackpoint>
          <Trackpoint>
            <Time>2018-04-21T13:12:52.000Z</Time>
            <Position>
              <LatitudeDegrees>43.283482454717159271240234375</LatitudeDegrees>
              <LongitudeDegrees>-8.2063789106905460357666015625</LongitudeDegrees>
            </Position>
            <AltitudeMeters>35.59999847412109375</AltitudeMeters>
            <DistanceMeters>71524.082082235</DistanceMeters>
          </Trackpoint>
          <Trackpoint>
            <Time>2018-04-21T13:12:54.000Z</Time>
            <Position>
              <LatitudeDegrees>43.28344046138226985931396484375</LatitudeDegrees>
              <LongitudeDegrees>-8.2065297849476337432861328125</LongitudeDegrees>
            </Position>
            <AltitudeMeters>33.799999237060546875</AltitudeMeters>
            <DistanceMeters>71537.170265843</DistanceMeters>
          </Trackpoint>
          <Trackpoint>
            <Time>2018-04-21T13:12:55.000Z</Time>
            <Position>
              <LatitudeDegrees>43.28342185355722904205322265625</LatitudeDegrees>
              <LongitudeDegrees>-8.20660513825714588165283203125</LongitudeDegrees>
            </Position>
            <AltitudeMeters>32.59999847412109375</AltitudeMeters>
            <DistanceMeters>71543.616692124</DistanceMeters>
          </Trackpoint>
          <Trackpoint>
            <Time>2018-04-21T13:12:57.000Z</Time>
            <Position>
              <LatitudeDegrees>43.28339335508644580841064453125</LatitudeDegrees>
              <LongitudeDegrees>-8.20675316266715526580810546875</LongitudeDegrees>
            </Position>
            <AltitudeMeters>30.6000003814697265625</AltitudeMeters>
            <DistanceMeters>71556.022683535</DistanceMeters>
          </Trackpoint>
          <Trackpoint>
            <Time>2018-04-21T13:12:59.000Z</Time>
            <Position>
              <LatitudeDegrees>43.28336100094020366668701171875</LatitudeDegrees>
              <LongitudeDegrees>-8.20689397864043712615966796875</LongitudeDegrees>
            </Position>
            <AltitudeMeters>28.799999237060546875</AltitudeMeters>
            <DistanceMeters>71567.98699596</DistanceMeters>
          </Trackpoint>
          <Trackpoint>
            <Time>2018-04-21T13:13:00.000Z</Time>
            <Position>
              <LatitudeDegrees>43.28334289602935314178466796875</LatitudeDegrees>
              <LongitudeDegrees>-8.20695918984711170196533203125</LongitudeDegrees>
            </Position>
            <AltitudeMeters>28.6000003814697265625</AltitudeMeters>
            <DistanceMeters>71573.642482744</DistanceMeters>
          </Trackpoint>
          <Trackpoint>
            <Time>2018-04-21T13:13:01.000Z</Time>
            <Position>
              <LatitudeDegrees>43.28332093544304370880126953125</LatitudeDegrees>
              <LongitudeDegrees>-8.20702515542507171630859375</LongitudeDegrees>
            </Position>
            <AltitudeMeters>27.200000762939453125</AltitudeMeters>
            <DistanceMeters>71579.520328648</DistanceMeters>
          </Trackpoint>
          <Trackpoint>
            <Time>2018-04-21T13:13:03.000Z</Time>
            <Position>
              <LatitudeDegrees>43.2832673750817775726318359375</LatitudeDegrees>
              <LongitudeDegrees>-8.20716035552322864532470703125</LongitudeDegrees>
            </Position>
            <AltitudeMeters>25.799999237060546875</AltitudeMeters>
            <DistanceMeters>71591.992019261</DistanceMeters>
          </Trackpoint>
          <Trackpoint>
            <Time>2018-04-21T13:13:05.000Z</Time>
            <Position>
              <LatitudeDegrees>43.283214233815670013427734375</LatitudeDegrees>
              <LongitudeDegrees>-8.20728600025177001953125</LongitudeDegrees>
            </Position>
            <AltitudeMeters>24.3999996185302734375</AltitudeMeters>
            <DistanceMeters>71603.76574864</DistanceMeters>
          </Trackpoint>
          <Trackpoint>
            <Time>2018-04-21T13:13:06.000Z</Time>
            <Position>
              <LatitudeDegrees>43.28318514861166477203369140625</LatitudeDegrees>
              <LongitudeDegrees>-8.2073461823165416717529296875</LongitudeDegrees>
            </Position>
            <AltitudeMeters>23.799999237060546875</AltitudeMeters>
            <DistanceMeters>71609.618190861</DistanceMeters>
          </Trackpoint>
          <Trackpoint>
            <Time>2018-04-21T13:13:07.000Z</Time>
            <Position>
              <LatitudeDegrees>43.28315354883670806884765625</LatitudeDegrees>
              <LongitudeDegrees>-8.20740946568548679351806640625</LongitudeDegrees>
            </Position>
            <AltitudeMeters>22.799999237060546875</AltitudeMeters>
            <DistanceMeters>71615.836453266</DistanceMeters>
          </Trackpoint>
          <Trackpoint>
            <Time>2018-04-21T13:13:09.000Z</Time>
            <Position>
              <LatitudeDegrees>43.28308640979230403900146484375</LatitudeDegrees>
              <LongitudeDegrees>-8.2075279019773006439208984375</LongitudeDegrees>
            </Position>
            <AltitudeMeters>21.200000762939453125</AltitudeMeters>
            <DistanceMeters>71627.999130287</DistanceMeters>
          </Trackpoint>
          <Trackpoint>
            <Time>2018-04-21T13:13:11.000Z</Time>
            <Position>
              <LatitudeDegrees>43.28301700763404369354248046875</LatitudeDegrees>
              <LongitudeDegrees>-8.20763401687145233154296875</LongitudeDegrees>
            </Position>
            <AltitudeMeters>20</AltitudeMeters>
            <DistanceMeters>71639.557676086</DistanceMeters>
          </Trackpoint>
          <Trackpoint>
            <Time>2018-04-21T13:13:12.000Z</Time>
            <Position>
              <LatitudeDegrees>43.28297878615558147430419921875</LatitudeDegrees>
              <LongitudeDegrees>-8.2076838053762912750244140625</LongitudeDegrees>
            </Position>
            <AltitudeMeters>19</AltitudeMeters>
            <DistanceMeters>71645.420909069</DistanceMeters>
          </Trackpoint>
          <Trackpoint>
            <Time>2018-04-21T13:13:13.000Z</Time>
            <Position>
              <LatitudeDegrees>43.28294123522937297821044921875</LatitudeDegrees>
              <LongitudeDegrees>-8.20772395469248294830322265625</LongitudeDegrees>
            </Position>
            <AltitudeMeters>18.6000003814697265625</AltitudeMeters>
            <DistanceMeters>71650.716890323</DistanceMeters>
          </Trackpoint>
          <Trackpoint>
            <Time>2018-04-21T13:13:15.000Z</Time>
            <Position>
              <LatitudeDegrees>43.2828697375953197479248046875</LatitudeDegrees>
              <LongitudeDegrees>-8.20778581313788890838623046875</LongitudeDegrees>
            </Position>
            <AltitudeMeters>17.200000762939453125</AltitudeMeters>
            <DistanceMeters>71660.121174915</DistanceMeters>
          </Trackpoint>
          <Trackpoint>
            <Time>2018-04-21T13:13:16.000Z</Time>
            <Position>
              <LatitudeDegrees>43.28283495269715785980224609375</LatitudeDegrees>
              <LongitudeDegrees>-8.2078021578490734100341796875</LongitudeDegrees>
            </Position>
            <AltitudeMeters>16.6000003814697265625</AltitudeMeters>
            <DistanceMeters>71664.212844712</DistanceMeters>
          </Trackpoint>
          <Trackpoint>
            <Time>2018-04-21T13:13:18.000Z</Time>
            <Position>
              <LatitudeDegrees>43.28276328742504119873046875</LatitudeDegrees>
              <LongitudeDegrees>-8.20782470516860485076904296875</LongitudeDegrees>
            </Position>
            <AltitudeMeters>16</AltitudeMeters>
            <DistanceMeters>71672.395632552</DistanceMeters>
          </Trackpoint>
          <Trackpoint>
            <Time>2018-04-21T13:13:20.000Z</Time>
            <Position>
              <LatitudeDegrees>43.282678127288818359375</LatitudeDegrees>
              <LongitudeDegrees>-8.20786024443805217742919921875</LongitudeDegrees>
            </Position>
            <AltitudeMeters>15.6000003814697265625</AltitudeMeters>
            <DistanceMeters>71682.301683264</DistanceMeters>
          </Trackpoint>
          <Trackpoint>
            <Time>2018-04-21T13:13:21.000Z</Time>
            <Position>
              <LatitudeDegrees>43.2826253212988376617431640625</LatitudeDegrees>
              <LongitudeDegrees>-8.20788170211017131805419921875</LongitudeDegrees>
            </Position>
            <AltitudeMeters>15</AltitudeMeters>
            <DistanceMeters>71688.430722178</DistanceMeters>
          </Trackpoint>
          <Trackpoint>
            <Time>2018-04-21T13:13:22.000Z</Time>
            <Position>
              <LatitudeDegrees>43.2825679890811443328857421875</LatitudeDegrees>
              <LongitudeDegrees>-8.2078990526497364044189453125</LongitudeDegrees>
            </Position>
            <AltitudeMeters>14.80000019073486328125</AltitudeMeters>
            <DistanceMeters>71694.964802176</DistanceMeters>
          </Trackpoint>
          <Trackpoint>
            <Time>2018-04-21T13:13:26.000Z</Time>
            <Position>
              <LatitudeDegrees>43.2823173701763153076171875</LatitudeDegrees>
              <LongitudeDegrees>-8.20801262743771076202392578125</LongitudeDegrees>
            </Position>
            <AltitudeMeters>13.3999996185302734375</AltitudeMeters>
            <DistanceMeters>71724.338049935</DistanceMeters>
          </Trackpoint>
          <Trackpoint>
            <Time>2018-04-21T13:13:28.000Z</Time>
            <Position>
              <LatitudeDegrees>43.2822042144834995269775390625</LatitudeDegrees>
              <LongitudeDegrees>-8.20805017836391925811767578125</LongitudeDegrees>
            </Position>
            <AltitudeMeters>11.6000003814697265625</AltitudeMeters>
            <DistanceMeters>71737.294830059</DistanceMeters>
          </Trackpoint>
          <Trackpoint>
            <Time>2018-04-21T13:13:30.000Z</Time>
            <Position>
              <LatitudeDegrees>43.28211863525211811065673828125</LatitudeDegrees>
              <LongitudeDegrees>-8.20807255804538726806640625</LongitudeDegrees>
            </Position>
            <AltitudeMeters>10.3999996185302734375</AltitudeMeters>
            <DistanceMeters>71746.990815097</DistanceMeters>
          </Trackpoint>
          <Trackpoint>
            <Time>2018-04-21T13:13:33.000Z</Time>
            <Position>
              <LatitudeDegrees>43.282036744058132171630859375</LatitudeDegrees>
              <LongitudeDegrees>-8.2080871425569057464599609375</LongitudeDegrees>
            </Position>
            <AltitudeMeters>8.80000019073486328125</AltitudeMeters>
            <DistanceMeters>71756.181917595</DistanceMeters>
          </Trackpoint>
          <Trackpoint>
            <Time>2018-04-21T13:13:35.000Z</Time>
            <Position>
              <LatitudeDegrees>43.281999193131923675537109375</LatitudeDegrees>
              <LongitudeDegrees>-8.20809711702167987823486328125</LongitudeDegrees>
            </Position>
            <AltitudeMeters>8.3999996185302734375</AltitudeMeters>
            <DistanceMeters>71760.439071976</DistanceMeters>
          </Trackpoint>
          <Trackpoint>
            <Time>2018-04-21T13:13:39.000Z</Time>
            <Position>
              <LatitudeDegrees>43.28198854811489582061767578125</LatitudeDegrees>
              <LongitudeDegrees>-8.20810281671583652496337890625</LongitudeDegrees>
            </Position>
            <AltitudeMeters>10</AltitudeMeters>
            <DistanceMeters>71761.713989134</DistanceMeters>
          </Trackpoint>
          <Trackpoint>
            <Time>2018-04-21T13:13:41.000Z</Time>
            <Position>
              <LatitudeDegrees>43.28198854811489582061767578125</LatitudeDegrees>
              <LongitudeDegrees>-8.20810281671583652496337890625</LongitudeDegrees>
            </Position>
            <AltitudeMeters>8</AltitudeMeters>
            <DistanceMeters>71761.713989134</DistanceMeters>
          </Trackpoint>
          <Trackpoint>
            <Time>2018-04-21T13:13:48.000Z</Time>
            <Position>
              <LatitudeDegrees>43.28198854811489582061767578125</LatitudeDegrees>
              <LongitudeDegrees>-8.20810281671583652496337890625</LongitudeDegrees>
            </Position>
            <AltitudeMeters>7.19999980926513671875</AltitudeMeters>
            <DistanceMeters>71761.713989134</DistanceMeters>
          </Trackpoint>
          <Trackpoint>
            <Time>2018-04-21T13:13:51.000Z</Time>
            <Position>
              <LatitudeDegrees>43.281958959996700286865234375</LatitudeDegrees>
              <LongitudeDegrees>-8.2081002183258533477783203125</LongitudeDegrees>
            </Position>
            <AltitudeMeters>8.19999980926513671875</AltitudeMeters>
            <DistanceMeters>71765.014030375</DistanceMeters>
          </Trackpoint>
          <Trackpoint>
            <Time>2018-04-21T13:13:52.000Z</Time>
            <Position>
              <LatitudeDegrees>43.28193540684878826141357421875</LatitudeDegrees>
              <LongitudeDegrees>-8.2080985419452190399169921875</LongitudeDegrees>
            </Position>
            <AltitudeMeters>7.19999980926513671875</AltitudeMeters>
            <DistanceMeters>71767.638901482</DistanceMeters>
          </Trackpoint>
          <Trackpoint>
            <Time>2018-04-21T13:13:53.000Z</Time>
            <Position>
              <LatitudeDegrees>43.2819101773202419281005859375</LatitudeDegrees>
              <LongitudeDegrees>-8.20809912867844104766845703125</LongitudeDegrees>
            </Position>
            <AltitudeMeters>8.3999996185302734375</AltitudeMeters>
            <DistanceMeters>71770.448222897</DistanceMeters>
          </Trackpoint>
          <Trackpoint>
            <Time>2018-04-21T13:13:54.000Z</Time>
            <Position>
              <LatitudeDegrees>43.28189332969486713409423828125</LatitudeDegrees>
              <LongitudeDegrees>-8.20811404846608638763427734375</LongitudeDegrees>
            </Position>
            <AltitudeMeters>8.80000019073486328125</AltitudeMeters>
            <DistanceMeters>71772.680845166</DistanceMeters>
          </Trackpoint>
          <Trackpoint>
            <Time>2018-04-21T13:13:55.000Z</Time>
            <Position>
              <LatitudeDegrees>43.28188377432525157928466796875</LatitudeDegrees>
              <LongitudeDegrees>-8.208141289651393890380859375</LongitudeDegrees>
            </Position>
            <AltitudeMeters>8.6000003814697265625</AltitudeMeters>
            <DistanceMeters>71775.133197284</DistanceMeters>
          </Trackpoint>
          <Trackpoint>
            <Time>2018-04-21T13:13:56.000Z</Time>
            <Position>
              <LatitudeDegrees>43.28187053091824054718017578125</LatitudeDegrees>
              <LongitudeDegrees>-8.20817959494888782501220703125</LongitudeDegrees>
            </Position>
            <AltitudeMeters>7.400000095367431640625</AltitudeMeters>
            <DistanceMeters>71778.569960294</DistanceMeters>
          </Trackpoint>
          <Trackpoint>
            <Time>2018-04-21T13:13:58.000Z</Time>
            <Position>
              <LatitudeDegrees>43.28184957616031169891357421875</LatitudeDegrees>
              <LongitudeDegrees>-8.20828168652951717376708984375</LongitudeDegrees>
            </Position>
            <AltitudeMeters>6.400000095367431640625</AltitudeMeters>
            <DistanceMeters>71787.164494913</DistanceMeters>
          </Trackpoint>
          <Trackpoint>
            <Time>2018-04-21T13:13:59.000Z</Time>
            <Position>
              <LatitudeDegrees>43.28183935023844242095947265625</LatitudeDegrees>
              <LongitudeDegrees>-8.20832879282534122467041015625</LongitudeDegrees>
            </Position>
            <AltitudeMeters>6.19999980926513671875</AltitudeMeters>
            <DistanceMeters>71791.147690152</DistanceMeters>
          </Trackpoint>
          <Trackpoint>
            <Time>2018-04-21T13:14:00.000Z</Time>
            <Position>
              <LatitudeDegrees>43.28182945959270000457763671875</LatitudeDegrees>
              <LongitudeDegrees>-8.2083734683692455291748046875</LongitudeDegrees>
            </Position>
            <AltitudeMeters>5.599999904632568359375</AltitudeMeters>
            <DistanceMeters>71794.932092514</DistanceMeters>
          </Trackpoint>
          <Trackpoint>
            <Time>2018-04-21T13:14:02.000Z</Time>
            <Position>
              <LatitudeDegrees>43.2818260230123996734619140625</LatitudeDegrees>
              <LongitudeDegrees>-8.2084448821842670440673828125</LongitudeDegrees>
            </Position>
            <AltitudeMeters>5.599999904632568359375</AltitudeMeters>
            <DistanceMeters>71800.731058343</DistanceMeters>
          </Trackpoint>
          <Trackpoint>
            <Time>2018-04-21T13:14:04.000Z</Time>
            <Position>
              <LatitudeDegrees>43.2818541862070560455322265625</LatitudeDegrees>
              <LongitudeDegrees>-8.20851386524736881256103515625</LongitudeDegrees>
            </Position>
            <AltitudeMeters>5.599999904632568359375</AltitudeMeters>
            <DistanceMeters>71807.139551743</DistanceMeters>
          </Trackpoint>
          <Trackpoint>
            <Time>2018-04-21T13:14:08.000Z</Time>
            <Position>
              <LatitudeDegrees>43.28193238936364650726318359375</LatitudeDegrees>
              <LongitudeDegrees>-8.20863322354853153228759765625</LongitudeDegrees>
            </Position>
            <AltitudeMeters>5.400000095367431640625</AltitudeMeters>
            <DistanceMeters>71820.150926504</DistanceMeters>
          </Trackpoint>
          <Trackpoint>
            <Time>2018-04-21T13:14:11.000Z</Time>
            <Position>
              <LatitudeDegrees>43.28191763721406459808349609375</LatitudeDegrees>
              <LongitudeDegrees>-8.20875459350645542144775390625</LongitudeDegrees>
            </Position>
            <AltitudeMeters>5.599999904632568359375</AltitudeMeters>
            <DistanceMeters>71830.121035907</DistanceMeters>
          </Trackpoint>
          <Trackpoint>
            <Time>2018-04-21T13:14:12.000Z</Time>
            <Position>
              <LatitudeDegrees>43.281907998025417327880859375</LatitudeDegrees>
              <LongitudeDegrees>-8.20879884995520114898681640625</LongitudeDegrees>
            </Position>
            <AltitudeMeters>5.599999904632568359375</AltitudeMeters>
            <DistanceMeters>71833.862241393</DistanceMeters>
          </Trackpoint>
          <Trackpoint>
            <Time>2018-04-21T13:14:16.000Z</Time>
            <Position>
              <LatitudeDegrees>43.28192015178501605987548828125</LatitudeDegrees>
              <LongitudeDegrees>-8.20894427597522735595703125</LongitudeDegrees>
            </Position>
            <AltitudeMeters>5.19999980926513671875</AltitudeMeters>
            <DistanceMeters>71845.722702212</DistanceMeters>
          </Trackpoint>
          <Trackpoint>
            <Time>2018-04-21T13:14:18.000Z</Time>
            <Position>
              <LatitudeDegrees>43.28196021728217601776123046875</LatitudeDegrees>
              <LongitudeDegrees>-8.20898224599659442901611328125</LongitudeDegrees>
            </Position>
            <AltitudeMeters>5.400000095367431640625</AltitudeMeters>
            <DistanceMeters>71851.140058434</DistanceMeters>
          </Trackpoint>
          <Trackpoint>
            <Time>2018-04-21T13:14:20.000Z</Time>
            <Position>
              <LatitudeDegrees>43.2820241712033748626708984375</LatitudeDegrees>
              <LongitudeDegrees>-8.2089960761368274688720703125</LongitudeDegrees>
            </Position>
            <AltitudeMeters>5.80000019073486328125</AltitudeMeters>
            <DistanceMeters>71858.345815824</DistanceMeters>
          </Trackpoint>
          <Trackpoint>
            <Time>2018-04-21T13:14:26.000Z</Time>
            <Position>
              <LatitudeDegrees>43.282231874763965606689453125</LatitudeDegrees>
              <LongitudeDegrees>-8.2090617902576923370361328125</LongitudeDegrees>
            </Position>
            <AltitudeMeters>5.400000095367431640625</AltitudeMeters>
            <DistanceMeters>71882.069021431</DistanceMeters>
          </Trackpoint>
          <Trackpoint>
            <Time>2018-04-21T13:14:30.000Z</Time>
            <Position>
              <LatitudeDegrees>43.28235886059701442718505859375</LatitudeDegrees>
              <LongitudeDegrees>-8.20907880552113056182861328125</LongitudeDegrees>
            </Position>
            <AltitudeMeters>5.400000095367431640625</AltitudeMeters>
            <DistanceMeters>71896.269713919</DistanceMeters>
          </Trackpoint>
          <Trackpoint>
            <Time>2018-04-21T13:14:31.000Z</Time>
            <Position>
              <LatitudeDegrees>43.2823624648153781890869140625</LatitudeDegrees>
              <LongitudeDegrees>-8.2090906240046024322509765625</LongitudeDegrees>
            </Position>
            <AltitudeMeters>5.19999980926513671875</AltitudeMeters>
            <DistanceMeters>71897.31067942</DistanceMeters>
          </Trackpoint>
          <Trackpoint>
            <Time>2018-04-21T13:14:32.000Z</Time>
            <Position>
              <LatitudeDegrees>43.28235693275928497314453125</LatitudeDegrees>
              <LongitudeDegrees>-8.2090963236987590789794921875</LongitudeDegrees>
            </Position>
            <AltitudeMeters>5</AltitudeMeters>
            <DistanceMeters>71898.082680097</DistanceMeters>
          </Trackpoint>
          <Trackpoint>
            <Time>2018-04-21T13:14:35.000Z</Time>
            <Position>
              <LatitudeDegrees>43.28231946565210819244384765625</LatitudeDegrees>
              <LongitudeDegrees>-8.20908819325268268585205078125</LongitudeDegrees>
            </Position>
            <AltitudeMeters>5.19999980926513671875</AltitudeMeters>
            <DistanceMeters>71902.304690388</DistanceMeters>
          </Trackpoint>
          <Trackpoint>
            <Time>2018-04-21T13:14:39.000Z</Time>
            <Position>
              <LatitudeDegrees>43.28221284784376621246337890625</LatitudeDegrees>
              <LongitudeDegrees>-8.2090792246162891387939453125</LongitudeDegrees>
            </Position>
            <AltitudeMeters>6</AltitudeMeters>
            <DistanceMeters>71914.19328814</DistanceMeters>
          </Trackpoint>
          <Trackpoint>
            <Time>2018-04-21T13:14:41.000Z</Time>
            <Position>
              <LatitudeDegrees>43.28214881010353565216064453125</LatitudeDegrees>
              <LongitudeDegrees>-8.20906941778957843780517578125</LongitudeDegrees>
            </Position>
            <AltitudeMeters>6</AltitudeMeters>
            <DistanceMeters>71921.365129983</DistanceMeters>
          </Trackpoint>
          <Trackpoint>
            <Time>2018-04-21T13:14:48.000Z</Time>
            <Position>
              <LatitudeDegrees>43.281906656920909881591796875</LatitudeDegrees>
              <LongitudeDegrees>-8.2089985907077789306640625</LongitudeDegrees>
            </Position>
            <AltitudeMeters>6</AltitudeMeters>
            <DistanceMeters>71948.921402559</DistanceMeters>
          </Trackpoint>
          <Trackpoint>
            <Time>2018-04-21T13:14:52.000Z</Time>
            <Position>
              <LatitudeDegrees>43.281820155680179595947265625</LatitudeDegrees>
              <LongitudeDegrees>-8.20888484828174114227294921875</LongitudeDegrees>
            </Position>
            <AltitudeMeters>5.599999904632568359375</AltitudeMeters>
            <DistanceMeters>71962.248878076</DistanceMeters>
          </Trackpoint>
          <Trackpoint>
            <Time>2018-04-21T13:14:56.000Z</Time>
            <Position>
              <LatitudeDegrees>43.2817546091973781585693359375</LatitudeDegrees>
              <LongitudeDegrees>-8.20877521298825740814208984375</LongitudeDegrees>
            </Position>
            <AltitudeMeters>5.19999980926513671875</AltitudeMeters>
            <DistanceMeters>71973.74357592</DistanceMeters>
          </Trackpoint>
          <Trackpoint>
            <Time>2018-04-21T13:15:00.000Z</Time>
            <Position>
              <LatitudeDegrees>43.2816563732922077178955078125</LatitudeDegrees>
              <LongitudeDegrees>-8.20866859517991542816162109375</LongitudeDegrees>
            </Position>
            <AltitudeMeters>5.400000095367431640625</AltitudeMeters>
            <DistanceMeters>71987.678523492</DistanceMeters>
          </Trackpoint>
          <Trackpoint>
            <Time>2018-04-21T13:15:01.000Z</Time>
            <Position>
              <LatitudeDegrees>43.281649164855480194091796875</LatitudeDegrees>
              <LongitudeDegrees>-8.20862299762666225433349609375</LongitudeDegrees>
            </Position>
            <AltitudeMeters>5.400000095367431640625</AltitudeMeters>
            <DistanceMeters>71991.458150582</DistanceMeters>
          </Trackpoint>
          <Trackpoint>
            <Time>2018-04-21T13:15:05.000Z</Time>
            <Position>
              <LatitudeDegrees>43.28164656646549701690673828125</LatitudeDegrees>
              <LongitudeDegrees>-8.20846793241798877716064453125</LongitudeDegrees>
            </Position>
            <AltitudeMeters>5.599999904632568359375</AltitudeMeters>
            <DistanceMeters>72004.026129622</DistanceMeters>
          </Trackpoint>
          <Trackpoint>
            <Time>2018-04-21T13:15:08.000Z</Time>
            <Position>
              <LatitudeDegrees>43.28160465694963932037353515625</LatitudeDegrees>
              <LongitudeDegrees>-8.20847312919795513153076171875</LongitudeDegrees>
            </Position>
            <AltitudeMeters>6.400000095367431640625</AltitudeMeters>
            <DistanceMeters>72008.708546264</DistanceMeters>
          </Trackpoint>
          <Trackpoint>
            <Time>2018-04-21T13:15:11.000Z</Time>
            <Position>
              <LatitudeDegrees>43.28156157396733760833740234375</LatitudeDegrees>
              <LongitudeDegrees>-8.20855912752449512481689453125</LongitudeDegrees>
            </Position>
            <AltitudeMeters>7</AltitudeMeters>
            <DistanceMeters>72017.166457684</DistanceMeters>
          </Trackpoint>
          <Trackpoint>
            <Time>2018-04-21T13:15:12.000Z</Time>
            <Position>
              <LatitudeDegrees>43.2815447263419628143310546875</LatitudeDegrees>
              <LongitudeDegrees>-8.20859483443200588226318359375</LongitudeDegrees>
            </Position>
            <AltitudeMeters>7.19999980926513671875</AltitudeMeters>
            <DistanceMeters>72020.613714651</DistanceMeters>
          </Trackpoint>
          <Trackpoint>
            <Time>2018-04-21T13:15:13.000Z</Time>
            <Position>
              <LatitudeDegrees>43.2815272919833660125732421875</LatitudeDegrees>
              <LongitudeDegrees>-8.20863179862499237060546875</LongitudeDegrees>
            </Position>
            <AltitudeMeters>7.400000095367431640625</AltitudeMeters>
            <DistanceMeters>72024.181964612</DistanceMeters>
          </Trackpoint>
          <Trackpoint>
            <Time>2018-04-21T13:15:16.000Z</Time>
            <Position>
              <LatitudeDegrees>43.2814682833850383758544921875</LatitudeDegrees>
              <LongitudeDegrees>-8.2087719440460205078125</LongitudeDegrees>
            </Position>
            <AltitudeMeters>8.19999980926513671875</AltitudeMeters>
            <DistanceMeters>72037.299782141</DistanceMeters>
          </Trackpoint>
          <Trackpoint>
            <Time>2018-04-21T13:15:17.000Z</Time>
            <Position>
              <LatitudeDegrees>43.28145260922610759735107421875</LatitudeDegrees>
              <LongitudeDegrees>-8.208823911845684051513671875</LongitudeDegrees>
            </Position>
            <AltitudeMeters>8.3999996185302734375</AltitudeMeters>
            <DistanceMeters>72041.858093879</DistanceMeters>
          </Trackpoint>
          <Trackpoint>
            <Time>2018-04-21T13:15:19.000Z</Time>
            <Position>
              <LatitudeDegrees>43.28141841106116771697998046875</LatitudeDegrees>
              <LongitudeDegrees>-8.20892441086471080780029296875</LongitudeDegrees>
            </Position>
            <AltitudeMeters>8.80000019073486328125</AltitudeMeters>
            <DistanceMeters>72050.847038423</DistanceMeters>
          </Trackpoint>
          <Trackpoint>
            <Time>2018-04-21T13:15:23.000Z</Time>
            <Position>
              <LatitudeDegrees>43.281345404684543609619140625</LatitudeDegrees>
              <LongitudeDegrees>-8.20913136005401611328125</LongitudeDegrees>
            </Position>
            <AltitudeMeters>9</AltitudeMeters>
            <DistanceMeters>72069.480999339</DistanceMeters>
          </Trackpoint>
          <Trackpoint>
            <Time>2018-04-21T13:15:26.000Z</Time>
            <Position>
              <LatitudeDegrees>43.281270973384380340576171875</LatitudeDegrees>
              <LongitudeDegrees>-8.20930645801126956939697265625</LongitudeDegrees>
            </Position>
            <AltitudeMeters>9.3999996185302734375</AltitudeMeters>
            <DistanceMeters>72085.910455966</DistanceMeters>
          </Trackpoint>
          <Trackpoint>
            <Time>2018-04-21T13:15:27.000Z</Time>
            <Position>
              <LatitudeDegrees>43.28125127591192722320556640625</LatitudeDegrees>
              <LongitudeDegrees>-8.2093662209808826446533203125</LongitudeDegrees>
            </Position>
            <AltitudeMeters>9.19999980926513671875</AltitudeMeters>
            <DistanceMeters>72091.226858817</DistanceMeters>
          </Trackpoint>
          <Trackpoint>
            <Time>2018-04-21T13:15:30.000Z</Time>
            <Position>
              <LatitudeDegrees>43.28125496394932270050048828125</LatitudeDegrees>
              <LongitudeDegrees>-8.2095311768352985382080078125</LongitudeDegrees>
            </Position>
            <AltitudeMeters>8.3999996185302734375</AltitudeMeters>
            <DistanceMeters>72104.599315727</DistanceMeters>
          </Trackpoint>
          <Trackpoint>
            <Time>2018-04-21T13:15:33.000Z</Time>
            <Position>
              <LatitudeDegrees>43.28135269694030284881591796875</LatitudeDegrees>
              <LongitudeDegrees>-8.2096398063004016876220703125</LongitudeDegrees>
            </Position>
            <AltitudeMeters>7.400000095367431640625</AltitudeMeters>
            <DistanceMeters>72118.592463251</DistanceMeters>
          </Trackpoint>
          <Trackpoint>
            <Time>2018-04-21T13:15:34.000Z</Time>
            <Position>
              <LatitudeDegrees>43.28138102777302265167236328125</LatitudeDegrees>
              <LongitudeDegrees>-8.209654390811920166015625</LongitudeDegrees>
            </Position>
            <AltitudeMeters>7</AltitudeMeters>
            <DistanceMeters>72121.960218588</DistanceMeters>
          </Trackpoint>
          <Trackpoint>
            <Time>2018-04-21T13:15:36.000Z</Time>
            <Position>
              <LatitudeDegrees>43.2814188301563262939453125</LatitudeDegrees>
              <LongitudeDegrees>-8.2096666283905506134033203125</LongitudeDegrees>
            </Position>
            <AltitudeMeters>6.599999904632568359375</AltitudeMeters>
            <DistanceMeters>72126.282628583</DistanceMeters>
          </Trackpoint>
          <Trackpoint>
            <Time>2018-04-21T13:15:38.000Z</Time>
            <Position>
              <LatitudeDegrees>43.281444646418094635009765625</LatitudeDegrees>
              <LongitudeDegrees>-8.209697306156158447265625</LongitudeDegrees>
            </Position>
            <AltitudeMeters>6.400000095367431640625</AltitudeMeters>
            <DistanceMeters>72130.080131984</DistanceMeters>
          </Trackpoint>
          <Trackpoint>
            <Time>2018-04-21T13:15:39.000Z</Time>
            <Position>
              <LatitudeDegrees>43.281458728015422821044921875</LatitudeDegrees>
              <LongitudeDegrees>-8.209705352783203125</LongitudeDegrees>
            </Position>
            <AltitudeMeters>6.19999980926513671875</AltitudeMeters>
            <DistanceMeters>72131.777363372</DistanceMeters>
          </Trackpoint>
          <Trackpoint>
            <Time>2018-04-21T13:15:42.000Z</Time>
            <Position>
              <LatitudeDegrees>43.2814702950417995452880859375</LatitudeDegrees>
              <LongitudeDegrees>-8.2096991501748561859130859375</LongitudeDegrees>
            </Position>
            <AltitudeMeters>6</AltitudeMeters>
            <DistanceMeters>72133.160973218</DistanceMeters>
          </Trackpoint>
          <Trackpoint>
            <Time>2018-04-21T13:15:44.000Z</Time>
            <Position>
              <LatitudeDegrees>43.28145562671124935150146484375</LatitudeDegrees>
              <LongitudeDegrees>-8.209684230387210845947265625</LongitudeDegrees>
            </Position>
            <AltitudeMeters>6.19999980926513671875</AltitudeMeters>
            <DistanceMeters>72135.192412347</DistanceMeters>
          </Trackpoint>
          <Trackpoint>
            <Time>2018-04-21T13:15:46.000Z</Time>
            <Position>
              <LatitudeDegrees>43.2814260385930538177490234375</LatitudeDegrees>
              <LongitudeDegrees>-8.20964575745165348052978515625</LongitudeDegrees>
            </Position>
            <AltitudeMeters>6.19999980926513671875</AltitudeMeters>
            <DistanceMeters>72139.726889612</DistanceMeters>
          </Trackpoint>
          <Trackpoint>
            <Time>2018-04-21T13:15:47.000Z</Time>
            <Position>
              <LatitudeDegrees>43.28141757287085056304931640625</LatitudeDegrees>
              <LongitudeDegrees>-8.2096092961728572845458984375</LongitudeDegrees>
            </Position>
            <AltitudeMeters>6.19999980926513671875</AltitudeMeters>
            <DistanceMeters>72142.829479093</DistanceMeters>
          </Trackpoint>
          <Trackpoint>
            <Time>2018-04-21T13:15:49.000Z</Time>
            <Position>
              <LatitudeDegrees>43.28142662532627582550048828125</LatitudeDegrees>
              <LongitudeDegrees>-8.2095157541334629058837890625</LongitudeDegrees>
            </Position>
            <AltitudeMeters>6</AltitudeMeters>
            <DistanceMeters>72150.475439785</DistanceMeters>
          </Trackpoint>
          <Trackpoint>
            <Time>2018-04-21T13:15:52.000Z</Time>
            <Position>
              <LatitudeDegrees>43.28151497058570384979248046875</LatitudeDegrees>
              <LongitudeDegrees>-8.20945079438388347625732421875</LongitudeDegrees>
            </Position>
            <AltitudeMeters>5.599999904632568359375</AltitudeMeters>
            <DistanceMeters>72161.628030199</DistanceMeters>
          </Trackpoint>
          <Trackpoint>
            <Time>2018-04-21T13:25:48.000Z</Time>
            <Position>
              <LatitudeDegrees>43.28235986642539501190185546875</LatitudeDegrees>
              <LongitudeDegrees>-8.20974315516650676727294921875</LongitudeDegrees>
            </Position>
            <AltitudeMeters>5</AltitudeMeters>
            <DistanceMeters>72258.60445668</DistanceMeters>
          </Trackpoint>
          <Trackpoint>
            <Time>2018-04-21T13:25:49.000Z</Time>
            <Position>
              <LatitudeDegrees>43.282374702394008636474609375</LatitudeDegrees>
              <LongitudeDegrees>-8.2097548060119152069091796875</LongitudeDegrees>
            </Position>
            <AltitudeMeters>4.599999904632568359375</AltitudeMeters>
            <DistanceMeters>72260.507365153</DistanceMeters>
          </Trackpoint>
          <Trackpoint>
            <Time>2018-04-21T13:25:52.000Z</Time>
            <Position>
              <LatitudeDegrees>43.2824265025556087493896484375</LatitudeDegrees>
              <LongitudeDegrees>-8.20976905524730682373046875</LongitudeDegrees>
            </Position>
            <AltitudeMeters>5.80000019073486328125</AltitudeMeters>
            <DistanceMeters>72266.386747146</DistanceMeters>
          </Trackpoint>
          <Trackpoint>
            <Time>2018-04-21T13:25:55.000Z</Time>
            <Position>
              <LatitudeDegrees>43.28246958553791046142578125</LatitudeDegrees>
              <LongitudeDegrees>-8.20978020317852497100830078125</LongitudeDegrees>
            </Position>
            <AltitudeMeters>5.400000095367431640625</AltitudeMeters>
            <DistanceMeters>72271.265607824</DistanceMeters>
          </Trackpoint>
          <Trackpoint>
            <Time>2018-04-21T13:26:00.000Z</Time>
            <Position>
              <LatitudeDegrees>43.28258701600134372711181640625</LatitudeDegrees>
              <LongitudeDegrees>-8.2098139822483062744140625</LongitudeDegrees>
            </Position>
            <AltitudeMeters>5.599999904632568359375</AltitudeMeters>
            <DistanceMeters>72284.618805548</DistanceMeters>
          </Trackpoint>
          <Trackpoint>
            <Time>2018-04-21T13:26:01.000Z</Time>
            <Position>
              <LatitudeDegrees>43.28261802904307842254638671875</LatitudeDegrees>
              <LongitudeDegrees>-8.20982177741825580596923828125</LongitudeDegrees>
            </Position>
            <AltitudeMeters>3.400000095367431640625</AltitudeMeters>
            <DistanceMeters>72288.125793446</DistanceMeters>
          </Trackpoint>
          <Trackpoint>
            <Time>2018-04-21T13:26:03.000Z</Time>
            <Position>
              <LatitudeDegrees>43.2826863415539264678955078125</LatitudeDegrees>
              <LongitudeDegrees>-8.20984357036650180816650390625</LongitudeDegrees>
            </Position>
            <AltitudeMeters>4.80000019073486328125</AltitudeMeters>
            <DistanceMeters>72295.931299564</DistanceMeters>
          </Trackpoint>
          <Trackpoint>
            <Time>2018-04-21T13:26:07.000Z</Time>
            <Position>
              <LatitudeDegrees>43.28283260576426982879638671875</LatitudeDegrees>
              <LongitudeDegrees>-8.20988313294947147369384765625</LongitudeDegrees>
            </Position>
            <AltitudeMeters>5.599999904632568359375</AltitudeMeters>
            <DistanceMeters>72312.523464599</DistanceMeters>
          </Trackpoint>
          <Trackpoint>
            <Time>2018-04-21T13:26:11.000Z</Time>
            <Position>
              <LatitudeDegrees>43.28298901207745075225830078125</LatitudeDegrees>
              <LongitudeDegrees>-8.2099271379411220550537109375</LongitudeDegrees>
            </Position>
            <AltitudeMeters>5.599999904632568359375</AltitudeMeters>
            <DistanceMeters>72330.293206103</DistanceMeters>
          </Trackpoint>
          <Trackpoint>
            <Time>2018-04-21T13:26:15.000Z</Time>
            <Position>
              <LatitudeDegrees>43.283156566321849822998046875</LatitudeDegrees>
              <LongitudeDegrees>-8.20997566916048526763916015625</LongitudeDegrees>
            </Position>
            <AltitudeMeters>5</AltitudeMeters>
            <DistanceMeters>72349.352163446</DistanceMeters>
          </Trackpoint>
          <Trackpoint>
            <Time>2018-04-21T13:26:21.000Z</Time>
            <Position>
              <LatitudeDegrees>43.28341640532016754150390625</LatitudeDegrees>
              <LongitudeDegrees>-8.2100766710937023162841796875</LongitudeDegrees>
            </Position>
            <AltitudeMeters>4.80000019073486328125</AltitudeMeters>
            <DistanceMeters>72379.40840868</DistanceMeters>
          </Trackpoint>
          <Trackpoint>
            <Time>2018-04-21T13:26:22.000Z</Time>
            <Position>
              <LatitudeDegrees>43.283458985388278961181640625</LatitudeDegrees>
              <LongitudeDegrees>-8.21009770967066287994384765625</LongitudeDegrees>
            </Position>
            <AltitudeMeters>4.80000019073486328125</AltitudeMeters>
            <DistanceMeters>72384.44572094</DistanceMeters>
          </Trackpoint>
          <Trackpoint>
            <Time>2018-04-21T13:26:28.000Z</Time>
            <Position>
              <LatitudeDegrees>43.283710442483425140380859375</LatitudeDegrees>
              <LongitudeDegrees>-8.21025646291673183441162109375</LongitudeDegrees>
            </Position>
            <AltitudeMeters>4.80000019073486328125</AltitudeMeters>
            <DistanceMeters>72415.247864888</DistanceMeters>
          </Trackpoint>
          <Trackpoint>
            <Time>2018-04-21T13:26:36.000Z</Time>
            <Position>
              <LatitudeDegrees>43.28403809107840061187744140625</LatitudeDegrees>
              <LongitudeDegrees>-8.2105245999991893768310546875</LongitudeDegrees>
            </Position>
            <AltitudeMeters>5.599999904632568359375</AltitudeMeters>
            <DistanceMeters>72457.696841721</DistanceMeters>
          </Trackpoint>
          <Trackpoint>
            <Time>2018-04-21T13:26:38.000Z</Time>
            <Position>
              <LatitudeDegrees>43.28412325121462345123291015625</LatitudeDegrees>
              <LongitudeDegrees>-8.21060297079384326934814453125</LongitudeDegrees>
            </Position>
            <AltitudeMeters>5.599999904632568359375</AltitudeMeters>
            <DistanceMeters>72469.105589323</DistanceMeters>
          </Trackpoint>
          <Trackpoint>
            <Time>2018-04-21T13:26:41.000Z</Time>
            <Position>
              <LatitudeDegrees>43.28423255123198032379150390625</LatitudeDegrees>
              <LongitudeDegrees>-8.2107452116906642913818359375</LongitudeDegrees>
            </Position>
            <AltitudeMeters>5.599999904632568359375</AltitudeMeters>
            <DistanceMeters>72485.863194082</DistanceMeters>
          </Trackpoint>
          <Trackpoint>
            <Time>2018-04-21T13:26:42.000Z</Time>
            <Position>
              <LatitudeDegrees>43.28426373191177845001220703125</LatitudeDegrees>
              <LongitudeDegrees>-8.21080028079450130462646484375</LongitudeDegrees>
            </Position>
            <AltitudeMeters>5.599999904632568359375</AltitudeMeters>
            <DistanceMeters>72491.515486578</DistanceMeters>
          </Trackpoint>
          <Trackpoint>
            <Time>2018-04-21T13:26:45.000Z</Time>
            <Position>
              <LatitudeDegrees>43.28433682210743427276611328125</LatitudeDegrees>
              <LongitudeDegrees>-8.210989795625209808349609375</LongitudeDegrees>
            </Position>
            <AltitudeMeters>5.599999904632568359375</AltitudeMeters>
            <DistanceMeters>72508.892648495</DistanceMeters>
          </Trackpoint>
          <Trackpoint>
            <Time>2018-04-21T13:26:46.000Z</Time>
            <Position>
              <LatitudeDegrees>43.2843540050089359283447265625</LatitudeDegrees>
              <LongitudeDegrees>-8.21105710230767726898193359375</LongitudeDegrees>
            </Position>
            <AltitudeMeters>5.400000095367431640625</AltitudeMeters>
            <DistanceMeters>72514.67133543</DistanceMeters>
          </Trackpoint>
          <Trackpoint>
            <Time>2018-04-21T13:26:47.000Z</Time>
            <Position>
              <LatitudeDegrees>43.28436515294015407562255859375</LatitudeDegrees>
              <LongitudeDegrees>-8.21112466044723987579345703125</LongitudeDegrees>
            </Position>
            <AltitudeMeters>5.400000095367431640625</AltitudeMeters>
            <DistanceMeters>72520.283545924</DistanceMeters>
          </Trackpoint>
          <Trackpoint>
            <Time>2018-04-21T13:26:50.000Z</Time>
            <Position>
              <LatitudeDegrees>43.2843791507184505462646484375</LatitudeDegrees>
              <LongitudeDegrees>-8.21133102290332317352294921875</LongitudeDegrees>
            </Position>
            <AltitudeMeters>5.400000095367431640625</AltitudeMeters>
            <DistanceMeters>72537.075871467</DistanceMeters>
          </Trackpoint>
          <Trackpoint>
            <Time>2018-04-21T13:26:53.000Z</Time>
            <Position>
              <LatitudeDegrees>43.28436867333948612213134765625</LatitudeDegrees>
              <LongitudeDegrees>-8.2115399837493896484375</LongitudeDegrees>
            </Position>
            <AltitudeMeters>5.19999980926513671875</AltitudeMeters>
            <DistanceMeters>72554.046589133</DistanceMeters>
          </Trackpoint>
          <Trackpoint>
            <Time>2018-04-21T13:26:59.000Z</Time>
            <Position>
              <LatitudeDegrees>43.28432693146169185638427734375</LatitudeDegrees>
              <LongitudeDegrees>-8.2119367830455303192138671875</LongitudeDegrees>
            </Position>
            <AltitudeMeters>5</AltitudeMeters>
            <DistanceMeters>72586.530578772</DistanceMeters>
          </Trackpoint>
          <Trackpoint>
            <Time>2018-04-21T13:27:00.000Z</Time>
            <Position>
              <LatitudeDegrees>43.28431469388306140899658203125</LatitudeDegrees>
              <LongitudeDegrees>-8.2120021618902683258056640625</LongitudeDegrees>
            </Position>
            <AltitudeMeters>5.19999980926513671875</AltitudeMeters>
            <DistanceMeters>72591.99936412</DistanceMeters>
          </Trackpoint>
          <Trackpoint>
            <Time>2018-04-21T13:27:08.000Z</Time>
            <Position>
              <LatitudeDegrees>43.284214697778224945068359375</LatitudeDegrees>
              <LongitudeDegrees>-8.212497867643833160400390625</LongitudeDegrees>
            </Position>
            <AltitudeMeters>5.400000095367431640625</AltitudeMeters>
            <DistanceMeters>72633.6767854</DistanceMeters>
          </Trackpoint>
          <Trackpoint>
            <Time>2018-04-21T13:27:09.000Z</Time>
            <Position>
              <LatitudeDegrees>43.28419215045869350433349609375</LatitudeDegrees>
              <LongitudeDegrees>-8.21255662478506565093994140625</LongitudeDegrees>
            </Position>
            <AltitudeMeters>5.400000095367431640625</AltitudeMeters>
            <DistanceMeters>72639.059023339</DistanceMeters>
          </Trackpoint>
          <Trackpoint>
            <Time>2018-04-21T13:27:13.000Z</Time>
            <Position>
              <LatitudeDegrees>43.28407631255686283111572265625</LatitudeDegrees>
              <LongitudeDegrees>-8.2127662561833858489990234375</LongitudeDegrees>
            </Position>
            <AltitudeMeters>5.599999904632568359375</AltitudeMeters>
            <DistanceMeters>72660.383153554</DistanceMeters>
          </Trackpoint>
          <Trackpoint>
            <Time>2018-04-21T13:27:17.000Z</Time>
            <Position>
              <LatitudeDegrees>43.2839332334697246551513671875</LatitudeDegrees>
              <LongitudeDegrees>-8.212937749922275543212890625</LongitudeDegrees>
            </Position>
            <AltitudeMeters>5.80000019073486328125</AltitudeMeters>
            <DistanceMeters>72681.517573376</DistanceMeters>
          </Trackpoint>
          <Trackpoint>
            <Time>2018-04-21T13:27:20.000Z</Time>
            <Position>
              <LatitudeDegrees>43.2838058285415172576904296875</LatitudeDegrees>
              <LongitudeDegrees>-8.21304998360574245452880859375</LongitudeDegrees>
            </Position>
            <AltitudeMeters>5.599999904632568359375</AltitudeMeters>
            <DistanceMeters>72698.36332009</DistanceMeters>
          </Trackpoint>
          <Trackpoint>
            <Time>2018-04-21T13:27:22.000Z</Time>
            <Position>
              <LatitudeDegrees>43.28371278941631317138671875</LatitudeDegrees>
              <LongitudeDegrees>-8.21310178376734256744384765625</LongitudeDegrees>
            </Position>
            <AltitudeMeters>5.80000019073486328125</AltitudeMeters>
            <DistanceMeters>72709.536942462</DistanceMeters>
          </Trackpoint>
          <Trackpoint>
            <Time>2018-04-21T13:27:25.000Z</Time>
            <Position>
              <LatitudeDegrees>43.2835634239017963409423828125</LatitudeDegrees>
              <LongitudeDegrees>-8.21313246153295040130615234375</LongitudeDegrees>
            </Position>
            <AltitudeMeters>5.599999904632568359375</AltitudeMeters>
            <DistanceMeters>72726.3461986</DistanceMeters>
          </Trackpoint>
          <Trackpoint>
            <Time>2018-04-21T13:27:31.000Z</Time>
            <Position>
              <LatitudeDegrees>43.283273242413997650146484375</LatitudeDegrees>
              <LongitudeDegrees>-8.2131887041032314300537109375</LongitudeDegrees>
            </Position>
            <AltitudeMeters>6</AltitudeMeters>
            <DistanceMeters>72758.963902023</DistanceMeters>
          </Trackpoint>
          <Trackpoint>
            <Time>2018-04-21T13:27:33.000Z</Time>
            <Position>
              <LatitudeDegrees>43.2831748388707637786865234375</LatitudeDegrees>
              <LongitudeDegrees>-8.2131990976631641387939453125</LongitudeDegrees>
            </Position>
            <AltitudeMeters>5.80000019073486328125</AltitudeMeters>
            <DistanceMeters>72769.948431209</DistanceMeters>
          </Trackpoint>
          <Trackpoint>
            <Time>2018-04-21T13:27:41.000Z</Time>
            <Position>
              <LatitudeDegrees>43.2827818952500820159912109375</LatitudeDegrees>
              <LongitudeDegrees>-8.21324544958770275115966796875</LongitudeDegrees>
            </Position>
            <AltitudeMeters>5.599999904632568359375</AltitudeMeters>
            <DistanceMeters>72813.844705105</DistanceMeters>
          </Trackpoint>
          <Trackpoint>
            <Time>2018-04-21T13:27:48.000Z</Time>
            <Position>
              <LatitudeDegrees>43.2824828289449214935302734375</LatitudeDegrees>
              <LongitudeDegrees>-8.21330018341541290283203125</LongitudeDegrees>
            </Position>
            <AltitudeMeters>6.19999980926513671875</AltitudeMeters>
            <DistanceMeters>72847.425322821</DistanceMeters>
          </Trackpoint>
          <Trackpoint>
            <Time>2018-04-21T13:27:53.000Z</Time>
            <Position>
              <LatitudeDegrees>43.28234612010419368743896484375</LatitudeDegrees>
              <LongitudeDegrees>-8.2133744470775127410888671875</LongitudeDegrees>
            </Position>
            <AltitudeMeters>7</AltitudeMeters>
            <DistanceMeters>72863.78786347</DistanceMeters>
          </Trackpoint>
          <Trackpoint>
            <Time>2018-04-21T13:27:54.000Z</Time>
            <Position>
              <LatitudeDegrees>43.2823296077549457550048828125</LatitudeDegrees>
              <LongitudeDegrees>-8.2134076394140720367431640625</LongitudeDegrees>
            </Position>
            <AltitudeMeters>7.400000095367431640625</AltitudeMeters>
            <DistanceMeters>72867.045215128</DistanceMeters>
          </Trackpoint>
          <Trackpoint>
            <Time>2018-04-21T13:27:55.000Z</Time>
            <Position>
              <LatitudeDegrees>43.28232147730886936187744140625</LatitudeDegrees>
              <LongitudeDegrees>-8.21344678290188312530517578125</LongitudeDegrees>
            </Position>
            <AltitudeMeters>7.400000095367431640625</AltitudeMeters>
            <DistanceMeters>72870.342518881</DistanceMeters>
          </Trackpoint>
          <Trackpoint>
            <Time>2018-04-21T13:27:57.000Z</Time>
            <Position>
              <LatitudeDegrees>43.28234561719000339508056640625</LatitudeDegrees>
              <LongitudeDegrees>-8.21354786865413188934326171875</LongitudeDegrees>
            </Position>
            <AltitudeMeters>7.599999904632568359375</AltitudeMeters>
            <DistanceMeters>72878.962232854</DistanceMeters>
          </Trackpoint>
          <Trackpoint>
            <Time>2018-04-21T13:28:00.000Z</Time>
            <Position>
              <LatitudeDegrees>43.28241636045277118682861328125</LatitudeDegrees>
              <LongitudeDegrees>-8.2137345336377620697021484375</LongitudeDegrees>
            </Position>
            <AltitudeMeters>8.19999980926513671875</AltitudeMeters>
            <DistanceMeters>72896.013637527</DistanceMeters>
          </Trackpoint>
          <Trackpoint>
            <Time>2018-04-21T13:28:02.000Z</Time>
            <Position>
              <LatitudeDegrees>43.28246648423373699188232421875</LatitudeDegrees>
              <LongitudeDegrees>-8.2138689793646335601806640625</LongitudeDegrees>
            </Position>
            <AltitudeMeters>8.19999980926513671875</AltitudeMeters>
            <DistanceMeters>72908.252547122</DistanceMeters>
          </Trackpoint>
          <Trackpoint>
            <Time>2018-04-21T13:28:03.000Z</Time>
            <Position>
              <LatitudeDegrees>43.28249816782772541046142578125</LatitudeDegrees>
              <LongitudeDegrees>-8.213935196399688720703125</LongitudeDegrees>
            </Position>
            <AltitudeMeters>8.19999980926513671875</AltitudeMeters>
            <DistanceMeters>72914.672303261</DistanceMeters>
          </Trackpoint>
          <Trackpoint>
            <Time>2018-04-21T13:28:06.000Z</Time>
            <Position>
              <LatitudeDegrees>43.282596655189990997314453125</LatitudeDegrees>
              <LongitudeDegrees>-8.21415538899600505828857421875</LongitudeDegrees>
            </Position>
            <AltitudeMeters>7.80000019073486328125</AltitudeMeters>
            <DistanceMeters>72935.611844608</DistanceMeters>
          </Trackpoint>
          <Trackpoint>
            <Time>2018-04-21T13:28:08.000Z</Time>
            <Position>
              <LatitudeDegrees>43.28263345174491405487060546875</LatitudeDegrees>
              <LongitudeDegrees>-8.21432922966778278350830078125</LongitudeDegrees>
            </Position>
            <AltitudeMeters>7.19999980926513671875</AltitudeMeters>
            <DistanceMeters>72950.280473088</DistanceMeters>
          </Trackpoint>
          <Trackpoint>
            <Time>2018-04-21T13:28:10.000Z</Time>
            <Position>
              <LatitudeDegrees>43.2826494611799716949462890625</LatitudeDegrees>
              <LongitudeDegrees>-8.214502148330211639404296875</LongitudeDegrees>
            </Position>
            <AltitudeMeters>7</AltitudeMeters>
            <DistanceMeters>72964.404332997</DistanceMeters>
          </Trackpoint>
          <Trackpoint>
            <Time>2018-04-21T13:28:18.000Z</Time>
            <Position>
              <LatitudeDegrees>43.282765634357929229736328125</LatitudeDegrees>
              <LongitudeDegrees>-8.2152027077972888946533203125</LongitudeDegrees>
            </Position>
            <AltitudeMeters>6.599999904632568359375</AltitudeMeters>
            <DistanceMeters>73022.621672268</DistanceMeters>
          </Trackpoint>
          <Trackpoint>
            <Time>2018-04-21T13:28:25.000Z</Time>
            <Position>
              <LatitudeDegrees>43.282889015972614288330078125</LatitudeDegrees>
              <LongitudeDegrees>-8.2157743535935878753662109375</LongitudeDegrees>
            </Position>
            <AltitudeMeters>6.599999904632568359375</AltitudeMeters>
            <DistanceMeters>73070.932453858</DistanceMeters>
          </Trackpoint>
          <Trackpoint>
            <Time>2018-04-21T13:28:27.000Z</Time>
            <Position>
              <LatitudeDegrees>43.2829203642904758453369140625</LatitudeDegrees>
              <LongitudeDegrees>-8.21593067608773708343505859375</LongitudeDegrees>
            </Position>
            <AltitudeMeters>6.400000095367431640625</AltitudeMeters>
            <DistanceMeters>73084.070219313</DistanceMeters>
          </Trackpoint>
          <Trackpoint>
            <Time>2018-04-21T13:28:30.000Z</Time>
            <Position>
              <LatitudeDegrees>43.28296420164406299591064453125</LatitudeDegrees>
              <LongitudeDegrees>-8.21616218425333499908447265625</LongitudeDegrees>
            </Position>
            <AltitudeMeters>6.599999904632568359375</AltitudeMeters>
            <DistanceMeters>73103.45240805</DistanceMeters>
          </Trackpoint>
          <Trackpoint>
            <Time>2018-04-21T13:28:37.000Z</Time>
            <Position>
              <LatitudeDegrees>43.2830755971372127532958984375</LatitudeDegrees>
              <LongitudeDegrees>-8.216679096221923828125</LongitudeDegrees>
            </Position>
            <AltitudeMeters>6.599999904632568359375</AltitudeMeters>
            <DistanceMeters>73147.13183812</DistanceMeters>
          </Trackpoint>
          <Trackpoint>
            <Time>2018-04-21T13:28:42.000Z</Time>
            <Position>
              <LatitudeDegrees>43.28314860351383686065673828125</LatitudeDegrees>
              <LongitudeDegrees>-8.2170530967414379119873046875</LongitudeDegrees>
            </Position>
            <AltitudeMeters>5.599999904632568359375</AltitudeMeters>
            <DistanceMeters>73178.505624195</DistanceMeters>
          </Trackpoint>
          <Trackpoint>
            <Time>2018-04-21T13:28:44.000Z</Time>
            <Position>
              <LatitudeDegrees>43.28317693434655666351318359375</LatitudeDegrees>
              <LongitudeDegrees>-8.21720120497047901153564453125</LongitudeDegrees>
            </Position>
            <AltitudeMeters>7</AltitudeMeters>
            <DistanceMeters>73190.913435174</DistanceMeters>
          </Trackpoint>
          <Trackpoint>
            <Time>2018-04-21T13:28:46.000Z</Time>
            <Position>
              <LatitudeDegrees>43.28321012668311595916748046875</LatitudeDegrees>
              <LongitudeDegrees>-8.21734285913407802581787109375</LongitudeDegrees>
            </Position>
            <AltitudeMeters>7</AltitudeMeters>
            <DistanceMeters>73202.970599048</DistanceMeters>
          </Trackpoint>
          <Trackpoint>
            <Time>2018-04-21T13:28:54.000Z</Time>
            <Position>
              <LatitudeDegrees>43.2833441533148288726806640625</LatitudeDegrees>
              <LongitudeDegrees>-8.2178981602191925048828125</LongitudeDegrees>
            </Position>
            <AltitudeMeters>7.19999980926513671875</AltitudeMeters>
            <DistanceMeters>73250.372168338</DistanceMeters>
          </Trackpoint>
          <Trackpoint>
            <Time>2018-04-21T13:29:00.000Z</Time>
            <Position>
              <LatitudeDegrees>43.283452950417995452880859375</LatitudeDegrees>
              <LongitudeDegrees>-8.218298815190792083740234375</LongitudeDegrees>
            </Position>
            <AltitudeMeters>7</AltitudeMeters>
            <DistanceMeters>73285.020060375</DistanceMeters>
          </Trackpoint>
          <Trackpoint>
            <Time>2018-04-21T13:29:01.000Z</Time>
            <Position>
              <LatitudeDegrees>43.28348237089812755584716796875</LatitudeDegrees>
              <LongitudeDegrees>-8.218350112438201904296875</LongitudeDegrees>
            </Position>
            <AltitudeMeters>7</AltitudeMeters>
            <DistanceMeters>73290.311777209</DistanceMeters>
          </Trackpoint>
          <Trackpoint>
            <Time>2018-04-21T13:29:05.000Z</Time>
            <Position>
              <LatitudeDegrees>43.28359016217291355133056640625</LatitudeDegrees>
              <LongitudeDegrees>-8.2185450755059719085693359375</LongitudeDegrees>
            </Position>
            <AltitudeMeters>8.19999980926513671875</AltitudeMeters>
            <DistanceMeters>73310.148020577</DistanceMeters>
          </Trackpoint>
          <Trackpoint>
            <Time>2018-04-21T13:29:08.000Z</Time>
            <Position>
              <LatitudeDegrees>43.28362469561398029327392578125</LatitudeDegrees>
              <LongitudeDegrees>-8.2186761684715747833251953125</LongitudeDegrees>
            </Position>
            <AltitudeMeters>9.19999980926513671875</AltitudeMeters>
            <DistanceMeters>73321.443815377</DistanceMeters>
          </Trackpoint>
          <Trackpoint>
            <Time>2018-04-21T13:29:09.000Z</Time>
            <Position>
              <LatitudeDegrees>43.2836106978356838226318359375</LatitudeDegrees>
              <LongitudeDegrees>-8.21871564723551273345947265625</LongitudeDegrees>
            </Position>
            <AltitudeMeters>9</AltitudeMeters>
            <DistanceMeters>73325.001928244</DistanceMeters>
          </Trackpoint>
          <Trackpoint>
            <Time>2018-04-21T13:29:11.000Z</Time>
            <Position>
              <LatitudeDegrees>43.2835728116333484649658203125</LatitudeDegrees>
              <LongitudeDegrees>-8.2187858037650585174560546875</LongitudeDegrees>
            </Position>
            <AltitudeMeters>8.6000003814697265625</AltitudeMeters>
            <DistanceMeters>73332.079983352</DistanceMeters>
          </Trackpoint>
          <Trackpoint>
            <Time>2018-04-21T13:29:15.000Z</Time>
            <Position>
              <LatitudeDegrees>43.28353433869779109954833984375</LatitudeDegrees>
              <LongitudeDegrees>-8.2190178148448467254638671875</LongitudeDegrees>
            </Position>
            <AltitudeMeters>8.80000019073486328125</AltitudeMeters>
            <DistanceMeters>73351.359870974</DistanceMeters>
          </Trackpoint>
          <Trackpoint>
            <Time>2018-04-21T13:29:20.000Z</Time>
            <Position>
              <LatitudeDegrees>43.283473737537860870361328125</LatitudeDegrees>
              <LongitudeDegrees>-8.2192491553723812103271484375</LongitudeDegrees>
            </Position>
            <AltitudeMeters>8.6000003814697265625</AltitudeMeters>
            <DistanceMeters>73371.280834041</DistanceMeters>
          </Trackpoint>
          <Trackpoint>
            <Time>2018-04-21T13:29:25.000Z</Time>
            <Position>
              <LatitudeDegrees>43.28343191184103488922119140625</LatitudeDegrees>
              <LongitudeDegrees>-8.21942073293030261993408203125</LongitudeDegrees>
            </Position>
            <AltitudeMeters>9.3999996185302734375</AltitudeMeters>
            <DistanceMeters>73385.941457476</DistanceMeters>
          </Trackpoint>
          <Trackpoint>
            <Time>2018-04-21T13:29:27.000Z</Time>
            <Position>
              <LatitudeDegrees>43.2834179140627384185791015625</LatitudeDegrees>
              <LongitudeDegrees>-8.21948845870792865753173828125</LongitudeDegrees>
            </Position>
            <AltitudeMeters>9.3999996185302734375</AltitudeMeters>
            <DistanceMeters>73391.644643897</DistanceMeters>
          </Trackpoint>
          <Trackpoint>
            <Time>2018-04-21T13:29:32.000Z</Time>
            <Position>
              <LatitudeDegrees>43.2833956182003021240234375</LatitudeDegrees>
              <LongitudeDegrees>-8.2196226529777050018310546875</LongitudeDegrees>
            </Position>
            <AltitudeMeters>10.19999980926513671875</AltitudeMeters>
            <DistanceMeters>73402.797234311</DistanceMeters>
          </Trackpoint>
          <Trackpoint>
            <Time>2018-04-21T13:29:36.000Z</Time>
            <Position>
              <LatitudeDegrees>43.28341145999729633331298828125</LatitudeDegrees>
              <LongitudeDegrees>-8.21970119141042232513427734375</LongitudeDegrees>
            </Position>
            <AltitudeMeters>10.6000003814697265625</AltitudeMeters>
            <DistanceMeters>73409.400052578</DistanceMeters>
          </Trackpoint>
          <Trackpoint>
            <Time>2018-04-21T13:29:37.000Z</Time>
            <Position>
              <LatitudeDegrees>43.28341665677726268768310546875</LatitudeDegrees>
              <LongitudeDegrees>-8.21970806457102298736572265625</LongitudeDegrees>
            </Position>
            <AltitudeMeters>10.80000019073486328125</AltitudeMeters>
            <DistanceMeters>73410.195103112</DistanceMeters>
          </Trackpoint>
          <Trackpoint>
            <Time>2018-04-21T13:29:40.000Z</Time>
            <Position>
              <LatitudeDegrees>43.28344649635255336761474609375</LatitudeDegrees>
              <LongitudeDegrees>-8.219744525849819183349609375</LongitudeDegrees>
            </Position>
            <AltitudeMeters>12</AltitudeMeters>
            <DistanceMeters>73414.640078619</DistanceMeters>
          </Trackpoint>
          <Trackpoint>
            <Time>2018-04-21T13:29:42.000Z</Time>
            <Position>
              <LatitudeDegrees>43.2834712229669094085693359375</LatitudeDegrees>
              <LongitudeDegrees>-8.21975165046751499176025390625</LongitudeDegrees>
            </Position>
            <AltitudeMeters>12.19999980926513671875</AltitudeMeters>
            <DistanceMeters>73417.452612524</DistanceMeters>
          </Trackpoint>
          <Trackpoint>
            <Time>2018-04-21T13:29:43.000Z</Time>
            <Position>
              <LatitudeDegrees>43.2834832929074764251708984375</LatitudeDegrees>
              <LongitudeDegrees>-8.21975718252360820770263671875</LongitudeDegrees>
            </Position>
            <AltitudeMeters>12.3999996185302734375</AltitudeMeters>
            <DistanceMeters>73418.868478679</DistanceMeters>
          </Trackpoint>
          <Trackpoint>
            <Time>2018-04-21T13:29:45.000Z</Time>
            <Position>
              <LatitudeDegrees>43.28351304866373538970947265625</LatitudeDegrees>
              <LongitudeDegrees>-8.21975165046751499176025390625</LongitudeDegrees>
            </Position>
            <AltitudeMeters>13</AltitudeMeters>
            <DistanceMeters>73422.212014927</DistanceMeters>
          </Trackpoint>
          <Trackpoint>
            <Time>2018-04-21T13:29:48.000Z</Time>
            <Position>
              <LatitudeDegrees>43.28355998732149600982666015625</LatitudeDegrees>
              <LongitudeDegrees>-8.21972968988120555877685546875</LongitudeDegrees>
            </Position>
            <AltitudeMeters>13.6000003814697265625</AltitudeMeters>
            <DistanceMeters>73427.73256816</DistanceMeters>
          </Trackpoint>
          <Trackpoint>
            <Time>2018-04-21T13:29:49.000Z</Time>
            <Position>
              <LatitudeDegrees>43.28357507474720478057861328125</LatitudeDegrees>
              <LongitudeDegrees>-8.21972139179706573486328125</LongitudeDegrees>
            </Position>
            <AltitudeMeters>14</AltitudeMeters>
            <DistanceMeters>73429.543070231</DistanceMeters>
          </Trackpoint>
          <Trackpoint>
            <Time>2018-04-21T13:29:50.000Z</Time>
            <Position>
              <LatitudeDegrees>43.28358806669712066650390625</LatitudeDegrees>
              <LongitudeDegrees>-8.21971527300775051116943359375</LongitudeDegrees>
            </Position>
            <AltitudeMeters>14.3999996185302734375</AltitudeMeters>
            <DistanceMeters>73431.069425275</DistanceMeters>
          </Trackpoint>
          <Trackpoint>
            <Time>2018-04-21T13:29:52.000Z</Time>
            <Position>
              <LatitudeDegrees>43.28361413441598415374755859375</LatitudeDegrees>
              <LongitudeDegrees>-8.21969180367887020111083984375</LongitudeDegrees>
            </Position>
            <AltitudeMeters>14.80000019073486328125</AltitudeMeters>
            <DistanceMeters>73434.54017764</DistanceMeters>
          </Trackpoint>
          <Trackpoint>
            <Time>2018-04-21T13:29:54.000Z</Time>
            <Position>
              <LatitudeDegrees>43.28364112414419651031494140625</LatitudeDegrees>
              <LongitudeDegrees>-8.219672106206417083740234375</LongitudeDegrees>
            </Position>
            <AltitudeMeters>15.6000003814697265625</AltitudeMeters>
            <DistanceMeters>73437.942611769</DistanceMeters>
          </Trackpoint>
          <Trackpoint>
            <Time>2018-04-21T13:29:57.000Z</Time>
            <Position>
              <LatitudeDegrees>43.283675573766231536865234375</LatitudeDegrees>
              <LongitudeDegrees>-8.21965307928621768951416015625</LongitudeDegrees>
            </Position>
            <AltitudeMeters>16.3999996185302734375</AltitudeMeters>
            <DistanceMeters>73442.073815526</DistanceMeters>
          </Trackpoint>
          <Trackpoint>
            <Time>2018-04-21T13:29:58.000Z</Time>
            <Position>
              <LatitudeDegrees>43.28368730843067169189453125</LatitudeDegrees>
              <LongitudeDegrees>-8.21964805014431476593017578125</LongitudeDegrees>
            </Position>
            <AltitudeMeters>16.799999237060546875</AltitudeMeters>
            <DistanceMeters>73443.441011863</DistanceMeters>
          </Trackpoint>
          <Trackpoint>
            <Time>2018-04-21T13:30:02.000Z</Time>
            <Position>
              <LatitudeDegrees>43.28374757431447505950927734375</LatitudeDegrees>
              <LongitudeDegrees>-8.21961410343647003173828125</LongitudeDegrees>
            </Position>
            <AltitudeMeters>18</AltitudeMeters>
            <DistanceMeters>73450.6904977</DistanceMeters>
          </Trackpoint>
          <Trackpoint>
            <Time>2018-04-21T13:30:06.000Z</Time>
            <Position>
              <LatitudeDegrees>43.283796943724155426025390625</LatitudeDegrees>
              <LongitudeDegrees>-8.21956909261643886566162109375</LongitudeDegrees>
            </Position>
            <AltitudeMeters>19</AltitudeMeters>
            <DistanceMeters>73457.285105205</DistanceMeters>
          </Trackpoint>
          <Trackpoint>
            <Time>2018-04-21T13:30:07.000Z</Time>
            <Position>
              <LatitudeDegrees>43.28380859456956386566162109375</LatitudeDegrees>
              <LongitudeDegrees>-8.21956188417971134185791015625</LongitudeDegrees>
            </Position>
            <AltitudeMeters>19.200000762939453125</AltitudeMeters>
            <DistanceMeters>73458.707334836</DistanceMeters>
          </Trackpoint>
          <Trackpoint>
            <Time>2018-04-21T13:30:11.000Z</Time>
            <Position>
              <LatitudeDegrees>43.28386173583567142486572265625</LatitudeDegrees>
              <LongitudeDegrees>-8.21953003294765949249267578125</LongitudeDegrees>
            </Position>
            <AltitudeMeters>20.200000762939453125</AltitudeMeters>
            <DistanceMeters>73465.160761257</DistanceMeters>
          </Trackpoint>
          <Trackpoint>
            <Time>2018-04-21T13:30:16.000Z</Time>
            <Position>
              <LatitudeDegrees>43.28393499366939067840576171875</LatitudeDegrees>
              <LongitudeDegrees>-8.21944110095500946044921875</LongitudeDegrees>
            </Position>
            <AltitudeMeters>21.3999996185302734375</AltitudeMeters>
            <DistanceMeters>73476.042046214</DistanceMeters>
          </Trackpoint>
          <Trackpoint>
            <Time>2018-04-21T13:30:23.000Z</Time>
            <Position>
              <LatitudeDegrees>43.2840318046510219573974609375</LatitudeDegrees>
              <LongitudeDegrees>-8.21933389641344547271728515625</LongitudeDegrees>
            </Position>
            <AltitudeMeters>22.3999996185302734375</AltitudeMeters>
            <DistanceMeters>73489.882059998</DistanceMeters>
          </Trackpoint>
          <Trackpoint>
            <Time>2018-04-21T13:30:25.000Z</Time>
            <Position>
              <LatitudeDegrees>43.28406441025435924530029296875</LatitudeDegrees>
              <LongitudeDegrees>-8.2193021290004253387451171875</LongitudeDegrees>
            </Position>
            <AltitudeMeters>22.799999237060546875</AltitudeMeters>
            <DistanceMeters>73494.331096699</DistanceMeters>
          </Trackpoint>
          <Trackpoint>
            <Time>2018-04-21T13:30:29.000Z</Time>
            <Position>
              <LatitudeDegrees>43.28413414768874645233154296875</LatitudeDegrees>
              <LongitudeDegrees>-8.21925938129425048828125</LongitudeDegrees>
            </Position>
            <AltitudeMeters>23.3999996185302734375</AltitudeMeters>
            <DistanceMeters>73502.831075618</DistanceMeters>
          </Trackpoint>
          <Trackpoint>
            <Time>2018-04-21T13:30:33.000Z</Time>
            <Position>
              <LatitudeDegrees>43.28419290482997894287109375</LatitudeDegrees>
              <LongitudeDegrees>-8.21922518312931060791015625</LongitudeDegrees>
            </Position>
            <AltitudeMeters>24.200000762939453125</AltitudeMeters>
            <DistanceMeters>73509.933329276</DistanceMeters>
          </Trackpoint>
          <Trackpoint>
            <Time>2018-04-21T13:30:34.000Z</Time>
            <Position>
              <LatitudeDegrees>43.28421126119792461395263671875</LatitudeDegrees>
              <LongitudeDegrees>-8.21922074072062969207763671875</LongitudeDegrees>
            </Position>
            <AltitudeMeters>24.6000003814697265625</AltitudeMeters>
            <DistanceMeters>73512.006567416</DistanceMeters>
          </Trackpoint>
          <Trackpoint>
            <Time>2018-04-21T13:30:39.000Z</Time>
            <Position>
              <LatitudeDegrees>43.28428301028907299041748046875</LatitudeDegrees>
              <LongitudeDegrees>-8.21919190697371959686279296875</LongitudeDegrees>
            </Position>
            <AltitudeMeters>25.799999237060546875</AltitudeMeters>
            <DistanceMeters>73520.327240231</DistanceMeters>
          </Trackpoint>
          <Trackpoint>
            <Time>2018-04-21T13:30:40.000Z</Time>
            <Position>
              <LatitudeDegrees>43.28429373912513256072998046875</LatitudeDegrees>
              <LongitudeDegrees>-8.21917933411896228790283203125</LongitudeDegrees>
            </Position>
            <AltitudeMeters>25.799999237060546875</AltitudeMeters>
            <DistanceMeters>73521.894460954</DistanceMeters>
          </Trackpoint>
          <Trackpoint>
            <Time>2018-04-21T13:30:44.000Z</Time>
            <Position>
              <LatitudeDegrees>43.28434310853481292724609375</LatitudeDegrees>
              <LongitudeDegrees>-8.21913893334567546844482421875</LongitudeDegrees>
            </Position>
            <AltitudeMeters>27</AltitudeMeters>
            <DistanceMeters>73528.290260066</DistanceMeters>
          </Trackpoint>
          <Trackpoint>
            <Time>2018-04-21T13:30:48.000Z</Time>
            <Position>
              <LatitudeDegrees>43.28440354205667972564697265625</LatitudeDegrees>
              <LongitudeDegrees>-8.2191582955420017242431640625</LongitudeDegrees>
            </Position>
            <AltitudeMeters>27.6000003814697265625</AltitudeMeters>
            <DistanceMeters>73535.196551674</DistanceMeters>
          </Trackpoint>
          <Trackpoint>
            <Time>2018-04-21T13:30:50.000Z</Time>
            <Position>
              <LatitudeDegrees>43.28442214988172054290771484375</LatitudeDegrees>
              <LongitudeDegrees>-8.21918964385986328125</LongitudeDegrees>
            </Position>
            <AltitudeMeters>28</AltitudeMeters>
            <DistanceMeters>73538.471873157</DistanceMeters>
          </Trackpoint>
          <Trackpoint>
            <Time>2018-04-21T13:30:54.000Z</Time>
            <Position>
              <LatitudeDegrees>43.284458108246326446533203125</LatitudeDegrees>
              <LongitudeDegrees>-8.2192434556782245635986328125</LongitudeDegrees>
            </Position>
            <AltitudeMeters>29.200000762939453125</AltitudeMeters>
            <DistanceMeters>73544.390290727</DistanceMeters>
          </Trackpoint>
          <Trackpoint>
            <Time>2018-04-21T13:30:55.000Z</Time>
            <Position>
              <LatitudeDegrees>43.28446590341627597808837890625</LatitudeDegrees>
              <LongitudeDegrees>-8.21925208903849124908447265625</LongitudeDegrees>
            </Position>
            <AltitudeMeters>29.3999996185302734375</AltitudeMeters>
            <DistanceMeters>73545.502549902</DistanceMeters>
          </Trackpoint>
          <Trackpoint>
            <Time>2018-04-21T13:30:59.000Z</Time>
            <Position>
              <LatitudeDegrees>43.28450513072311878204345703125</LatitudeDegrees>
              <LongitudeDegrees>-8.21930036880075931549072265625</LongitudeDegrees>
            </Position>
            <AltitudeMeters>30.200000762939453125</AltitudeMeters>
            <DistanceMeters>73551.365012776</DistanceMeters>
          </Trackpoint>
          <Trackpoint>
            <Time>2018-04-21T13:31:04.000Z</Time>
            <Position>
              <LatitudeDegrees>43.2845441065728664398193359375</LatitudeDegrees>
              <LongitudeDegrees>-8.2193634845316410064697265625</LongitudeDegrees>
            </Position>
            <AltitudeMeters>31.6000003814697265625</AltitudeMeters>
            <DistanceMeters>73558.070290593</DistanceMeters>
          </Trackpoint>
          <Trackpoint>
            <Time>2018-04-21T13:31:09.000Z</Time>
            <Position>
              <LatitudeDegrees>43.2845866866409778594970703125</LatitudeDegrees>
              <LongitudeDegrees>-8.219422996044158935546875</LongitudeDegrees>
            </Position>
            <AltitudeMeters>32.59999847412109375</AltitudeMeters>
            <DistanceMeters>73564.831225955</DistanceMeters>
          </Trackpoint>
          <Trackpoint>
            <Time>2018-04-21T13:31:11.000Z</Time>
            <Position>
              <LatitudeDegrees>43.284609317779541015625</LatitudeDegrees>
              <LongitudeDegrees>-8.2194489799439907073974609375</LongitudeDegrees>
            </Position>
            <AltitudeMeters>32.799999237060546875</AltitudeMeters>
            <DistanceMeters>73568.113432712</DistanceMeters>
          </Trackpoint>
          <Trackpoint>
            <Time>2018-04-21T13:31:16.000Z</Time>
            <Position>
              <LatitudeDegrees>43.28466472215950489044189453125</LatitudeDegrees>
              <LongitudeDegrees>-8.21951461024582386016845703125</LongitudeDegrees>
            </Position>
            <AltitudeMeters>34</AltitudeMeters>
            <DistanceMeters>73576.255841523</DistanceMeters>
          </Trackpoint>
          <Trackpoint>
            <Time>2018-04-21T13:31:18.000Z</Time>
            <Position>
              <LatitudeDegrees>43.2846882753074169158935546875</LatitudeDegrees>
              <LongitudeDegrees>-8.219549395143985748291015625</LongitudeDegrees>
            </Position>
            <AltitudeMeters>34.200000762939453125</AltitudeMeters>
            <DistanceMeters>73580.105303232</DistanceMeters>
          </Trackpoint>
          <Trackpoint>
            <Time>2018-04-21T13:31:23.000Z</Time>
            <Position>
              <LatitudeDegrees>43.28474753536283969879150390625</LatitudeDegrees>
              <LongitudeDegrees>-8.2196270115673542022705078125</LongitudeDegrees>
            </Position>
            <AltitudeMeters>35</AltitudeMeters>
            <DistanceMeters>73589.218459274</DistanceMeters>
          </Trackpoint>
          <Trackpoint>
            <Time>2018-04-21T13:31:26.000Z</Time>
            <Position>
              <LatitudeDegrees>43.28477838076651096343994140625</LatitudeDegrees>
              <LongitudeDegrees>-8.219678811728954315185546875</LongitudeDegrees>
            </Position>
            <AltitudeMeters>35.59999847412109375</AltitudeMeters>
            <DistanceMeters>73594.640813828</DistanceMeters>
          </Trackpoint>
          <Trackpoint>
            <Time>2018-04-21T13:31:29.000Z</Time>
            <Position>
              <LatitudeDegrees>43.284816183149814605712890625</LatitudeDegrees>
              <LongitudeDegrees>-8.21971468627452850341796875</LongitudeDegrees>
            </Position>
            <AltitudeMeters>36.200000762939453125</AltitudeMeters>
            <DistanceMeters>73599.75551142</DistanceMeters>
          </Trackpoint>
          <Trackpoint>
            <Time>2018-04-21T13:31:32.000Z</Time>
            <Position>
              <LatitudeDegrees>43.2848384790122509002685546875</LatitudeDegrees>
              <LongitudeDegrees>-8.21974595077335834503173828125</LongitudeDegrees>
            </Position>
            <AltitudeMeters>36.59999847412109375</AltitudeMeters>
            <DistanceMeters>73603.303458229</DistanceMeters>
          </Trackpoint>
          <Trackpoint>
            <Time>2018-04-21T13:31:37.000Z</Time>
            <Position>
              <LatitudeDegrees>43.28486672602593898773193359375</LatitudeDegrees>
              <LongitudeDegrees>-8.21983815170824527740478515625</LongitudeDegrees>
            </Position>
            <AltitudeMeters>37.200000762939453125</AltitudeMeters>
            <DistanceMeters>73611.40807272</DistanceMeters>
          </Trackpoint>
          <Trackpoint>
            <Time>2018-04-21T13:31:41.000Z</Time>
            <Position>
              <LatitudeDegrees>43.284895308315753936767578125</LatitudeDegrees>
              <LongitudeDegrees>-8.21991442702710628509521484375</LongitudeDegrees>
            </Position>
            <AltitudeMeters>38</AltitudeMeters>
            <DistanceMeters>73618.358677656</DistanceMeters>
          </Trackpoint>
          <Trackpoint>
            <Time>2018-04-21T13:31:42.000Z</Time>
            <Position>
              <LatitudeDegrees>43.28490159474313259124755859375</LatitudeDegrees>
              <LongitudeDegrees>-8.21993269957602024078369140625</LongitudeDegrees>
            </Position>
            <AltitudeMeters>38.200000762939453125</AltitudeMeters>
            <DistanceMeters>73619.999093086</DistanceMeters>
          </Trackpoint>
          <Trackpoint>
            <Time>2018-04-21T13:31:48.000Z</Time>
            <Position>
              <LatitudeDegrees>43.28492992557585239410400390625</LatitudeDegrees>
              <LongitudeDegrees>-8.2200383953750133514404296875</LongitudeDegrees>
            </Position>
            <AltitudeMeters>39.40000152587890625</AltitudeMeters>
            <DistanceMeters>73629.124626767</DistanceMeters>
          </Trackpoint>
          <Trackpoint>
            <Time>2018-04-21T13:31:50.000Z</Time>
            <Position>
              <LatitudeDegrees>43.28493830747902393341064453125</LatitudeDegrees>
              <LongitudeDegrees>-8.22006949223577976226806640625</LongitudeDegrees>
            </Position>
            <AltitudeMeters>39.799999237060546875</AltitudeMeters>
            <DistanceMeters>73631.812388132</DistanceMeters>
          </Trackpoint>
          <Trackpoint>
            <Time>2018-04-21T13:31:54.000Z</Time>
            <Position>
              <LatitudeDegrees>43.2849571667611598968505859375</LatitudeDegrees>
              <LongitudeDegrees>-8.2201326079666614532470703125</LongitudeDegrees>
            </Position>
            <AltitudeMeters>40.59999847412109375</AltitudeMeters>
            <DistanceMeters>73637.340297202</DistanceMeters>
          </Trackpoint>
          <Trackpoint>
            <Time>2018-04-21T13:31:57.000Z</Time>
            <Position>
              <LatitudeDegrees>43.28496529720723628997802734375</LatitudeDegrees>
              <LongitudeDegrees>-8.2201859168708324432373046875</LongitudeDegrees>
            </Position>
            <AltitudeMeters>41</AltitudeMeters>
            <DistanceMeters>73641.753671748</DistanceMeters>
          </Trackpoint>
          <Trackpoint>
            <Time>2018-04-21T13:32:01.000Z</Time>
            <Position>
              <LatitudeDegrees>43.28497879207134246826171875</LatitudeDegrees>
              <LongitudeDegrees>-8.22025087662041187286376953125</LongitudeDegrees>
            </Position>
            <AltitudeMeters>41.799999237060546875</AltitudeMeters>
            <DistanceMeters>73647.227408465</DistanceMeters>
          </Trackpoint>
          <Trackpoint>
            <Time>2018-04-21T13:32:05.000Z</Time>
            <Position>
              <LatitudeDegrees>43.28499832190573215484619140625</LatitudeDegrees>
              <LongitudeDegrees>-8.22031441144645214080810546875</LongitudeDegrees>
            </Position>
            <AltitudeMeters>42.40000152587890625</AltitudeMeters>
            <DistanceMeters>73652.81543176</DistanceMeters>
          </Trackpoint>
          <Trackpoint>
            <Time>2018-04-21T13:32:07.000Z</Time>
            <Position>
              <LatitudeDegrees>43.2850104756653308868408203125</LatitudeDegrees>
              <LongitudeDegrees>-8.220346681773662567138671875</LongitudeDegrees>
            </Position>
            <AltitudeMeters>42.799999237060546875</AltitudeMeters>
            <DistanceMeters>73655.758192931</DistanceMeters>
          </Trackpoint>
          <Trackpoint>
            <Time>2018-04-21T13:32:13.000Z</Time>
            <Position>
              <LatitudeDegrees>43.28504291363060474395751953125</LatitudeDegrees>
              <LongitudeDegrees>-8.22043930180370807647705078125</LongitudeDegrees>
            </Position>
            <AltitudeMeters>43.59999847412109375</AltitudeMeters>
            <DistanceMeters>73664.086459087</DistanceMeters>
          </Trackpoint>
          <Trackpoint>
            <Time>2018-04-21T13:32:15.000Z</Time>
            <Position>
              <LatitudeDegrees>43.28505381010472774505615234375</LatitudeDegrees>
              <LongitudeDegrees>-8.22046914137899875640869140625</LongitudeDegrees>
            </Position>
            <AltitudeMeters>44</AltitudeMeters>
            <DistanceMeters>73666.79430363</DistanceMeters>
          </Trackpoint>
          <Trackpoint>
            <Time>2018-04-21T13:32:22.000Z</Time>
            <Position>
              <LatitudeDegrees>43.2850963063538074493408203125</LatitudeDegrees>
              <LongitudeDegrees>-8.22057274170219898223876953125</LongitudeDegrees>
            </Position>
            <AltitudeMeters>45.200000762939453125</AltitudeMeters>
            <DistanceMeters>73676.42909402</DistanceMeters>
          </Trackpoint>
          <Trackpoint>
            <Time>2018-04-21T13:32:27.000Z</Time>
            <Position>
              <LatitudeDegrees>43.2851258106529712677001953125</LatitudeDegrees>
              <LongitudeDegrees>-8.22064113803207874298095703125</LongitudeDegrees>
            </Position>
            <AltitudeMeters>46.200000762939453125</AltitudeMeters>
            <DistanceMeters>73682.871316566</DistanceMeters>
          </Trackpoint>
          <Trackpoint>
            <Time>2018-04-21T13:32:30.000Z</Time>
            <Position>
              <LatitudeDegrees>43.28515171073377132415771484375</LatitudeDegrees>
              <LongitudeDegrees>-8.2206770963966846466064453125</LongitudeDegrees>
            </Position>
            <AltitudeMeters>46.59999847412109375</AltitudeMeters>
            <DistanceMeters>73686.96960184</DistanceMeters>
          </Trackpoint>
          <Trackpoint>
            <Time>2018-04-21T13:32:34.000Z</Time>
            <Position>
              <LatitudeDegrees>43.28518490307033061981201171875</LatitudeDegrees>
              <LongitudeDegrees>-8.220730908215045928955078125</LongitudeDegrees>
            </Position>
            <AltitudeMeters>47.40000152587890625</AltitudeMeters>
            <DistanceMeters>73692.684650964</DistanceMeters>
          </Trackpoint>
          <Trackpoint>
            <Time>2018-04-21T13:32:39.000Z</Time>
            <Position>
              <LatitudeDegrees>43.285216502845287322998046875</LatitudeDegrees>
              <LongitudeDegrees>-8.2207922637462615966796875</LongitudeDegrees>
            </Position>
            <AltitudeMeters>48.200000762939453125</AltitudeMeters>
            <DistanceMeters>73698.773780121</DistanceMeters>
          </Trackpoint>
          <Trackpoint>
            <Time>2018-04-21T13:32:40.000Z</Time>
            <Position>
              <LatitudeDegrees>43.28522647731006145477294921875</LatitudeDegrees>
              <LongitudeDegrees>-8.22080592624843120574951171875</LongitudeDegrees>
            </Position>
            <AltitudeMeters>48.40000152587890625</AltitudeMeters>
            <DistanceMeters>73700.34387912</DistanceMeters>
          </Trackpoint>
          <Trackpoint>
            <Time>2018-04-21T13:32:46.000Z</Time>
            <Position>
              <LatitudeDegrees>43.28528054058551788330078125</LatitudeDegrees>
              <LongitudeDegrees>-8.2209034077823162078857421875</LongitudeDegrees>
            </Position>
            <AltitudeMeters>49.59999847412109375</AltitudeMeters>
            <DistanceMeters>73710.273147704</DistanceMeters>
          </Trackpoint>
          <Trackpoint>
            <Time>2018-04-21T13:32:53.000Z</Time>
            <Position>
              <LatitudeDegrees>43.285357654094696044921875</LatitudeDegrees>
              <LongitudeDegrees>-8.2210110314190387725830078125</LongitudeDegrees>
            </Position>
            <AltitudeMeters>50.59999847412109375</AltitudeMeters>
            <DistanceMeters>73722.507998632</DistanceMeters>
          </Trackpoint>
          <Trackpoint>
            <Time>2018-04-21T13:32:55.000Z</Time>
            <Position>
              <LatitudeDegrees>43.285380788147449493408203125</LatitudeDegrees>
              <LongitudeDegrees>-8.22104715742170810699462890625</LongitudeDegrees>
            </Position>
            <AltitudeMeters>51</AltitudeMeters>
            <DistanceMeters>73726.405252611</DistanceMeters>
          </Trackpoint>
          <Trackpoint>
            <Time>2018-04-21T13:33:01.000Z</Time>
            <Position>
              <LatitudeDegrees>43.28543351031839847564697265625</LatitudeDegrees>
              <LongitudeDegrees>-8.22114522568881511688232421875</LongitudeDegrees>
            </Position>
            <AltitudeMeters>51.799999237060546875</AltitudeMeters>
            <DistanceMeters>73736.282547073</DistanceMeters>
          </Trackpoint>
          <Trackpoint>
            <Time>2018-04-21T13:33:02.000Z</Time>
            <Position>
              <LatitudeDegrees>43.28544105403125286102294921875</LatitudeDegrees>
              <LongitudeDegrees>-8.22116433642804622650146484375</LongitudeDegrees>
            </Position>
            <AltitudeMeters>52</AltitudeMeters>
            <DistanceMeters>73738.042466452</DistanceMeters>
          </Trackpoint>
          <Trackpoint>
            <Time>2018-04-21T13:33:08.000Z</Time>
            <Position>
              <LatitudeDegrees>43.28549536876380443572998046875</LatitudeDegrees>
              <LongitudeDegrees>-8.22126542218029499053955078125</LongitudeDegrees>
            </Position>
            <AltitudeMeters>52.799999237060546875</AltitudeMeters>
            <DistanceMeters>73748.221863645</DistanceMeters>
          </Trackpoint>
          <Trackpoint>
            <Time>2018-04-21T13:33:11.000Z</Time>
            <Position>
              <LatitudeDegrees>43.28550978563725948333740234375</LatitudeDegrees>
              <LongitudeDegrees>-8.2213245145976543426513671875</LongitudeDegrees>
            </Position>
            <AltitudeMeters>53.40000152587890625</AltitudeMeters>
            <DistanceMeters>73753.271708779</DistanceMeters>
          </Trackpoint>
          <Trackpoint>
            <Time>2018-04-21T13:33:12.000Z</Time>
            <Position>
              <LatitudeDegrees>43.285520933568477630615234375</LatitudeDegrees>
              <LongitudeDegrees>-8.2213389314711093902587890625</LongitudeDegrees>
            </Position>
            <AltitudeMeters>53.40000152587890625</AltitudeMeters>
            <DistanceMeters>73754.976902203</DistanceMeters>
          </Trackpoint>
          <Trackpoint>
            <Time>2018-04-21T13:33:16.000Z</Time>
            <Position>
              <LatitudeDegrees>43.28555555082857608795166015625</LatitudeDegrees>
              <LongitudeDegrees>-8.2214029692113399505615234375</LongitudeDegrees>
            </Position>
            <AltitudeMeters>54</AltitudeMeters>
            <DistanceMeters>73761.43871878</DistanceMeters>
          </Trackpoint>
          <Trackpoint>
            <Time>2018-04-21T13:33:17.000Z</Time>
            <Position>
              <LatitudeDegrees>43.285563848912715911865234375</LatitudeDegrees>
              <LongitudeDegrees>-8.221423588693141937255859375</LongitudeDegrees>
            </Position>
            <AltitudeMeters>54.40000152587890625</AltitudeMeters>
            <DistanceMeters>73763.346366758</DistanceMeters>
          </Trackpoint>
          <Trackpoint>
            <Time>2018-04-21T13:33:23.000Z</Time>
            <Position>
              <LatitudeDegrees>43.28560642898082733154296875</LatitudeDegrees>
              <LongitudeDegrees>-8.2215333916246891021728515625</LongitudeDegrees>
            </Position>
            <AltitudeMeters>55.200000762939453125</AltitudeMeters>
            <DistanceMeters>73773.426367757</DistanceMeters>
          </Trackpoint>
          <Trackpoint>
            <Time>2018-04-21T13:33:26.000Z</Time>
            <Position>
              <LatitudeDegrees>43.28563668765127658843994140625</LatitudeDegrees>
              <LongitudeDegrees>-8.221581839025020599365234375</LongitudeDegrees>
            </Position>
            <AltitudeMeters>55.40000152587890625</AltitudeMeters>
            <DistanceMeters>73778.5981263</DistanceMeters>
          </Trackpoint>
          <Trackpoint>
            <Time>2018-04-21T13:33:30.000Z</Time>
            <Position>
              <LatitudeDegrees>43.2856723107397556304931640625</LatitudeDegrees>
              <LongitudeDegrees>-8.22165166027843952178955078125</LongitudeDegrees>
            </Position>
            <AltitudeMeters>56.40000152587890625</AltitudeMeters>
            <DistanceMeters>73785.507032443</DistanceMeters>
          </Trackpoint>
          <Trackpoint>
            <Time>2018-04-21T13:33:34.000Z</Time>
            <Position>
              <LatitudeDegrees>43.285699300467967987060546875</LatitudeDegrees>
              <LongitudeDegrees>-8.22171963751316070556640625</LongitudeDegrees>
            </Position>
            <AltitudeMeters>57</AltitudeMeters>
            <DistanceMeters>73791.780235224</DistanceMeters>
          </Trackpoint>
          <Trackpoint>
            <Time>2018-04-21T13:33:39.000Z</Time>
            <Position>
              <LatitudeDegrees>43.285733163356781005859375</LatitudeDegrees>
              <LongitudeDegrees>-8.22180538438260555267333984375</LongitudeDegrees>
            </Position>
            <AltitudeMeters>57.799999237060546875</AltitudeMeters>
            <DistanceMeters>73799.684036135</DistanceMeters>
          </Trackpoint>
          <Trackpoint>
            <Time>2018-04-21T13:33:40.000Z</Time>
            <Position>
              <LatitudeDegrees>43.28574053943157196044921875</LatitudeDegrees>
              <LongitudeDegrees>-8.2218207232654094696044921875</LongitudeDegrees>
            </Position>
            <AltitudeMeters>57.799999237060546875</AltitudeMeters>
            <DistanceMeters>73801.177498181</DistanceMeters>
          </Trackpoint>
          <Trackpoint>
            <Time>2018-04-21T13:33:46.000Z</Time>
            <Position>
              <LatitudeDegrees>43.28578102402389049530029296875</LatitudeDegrees>
              <LongitudeDegrees>-8.22190563194453716278076171875</LongitudeDegrees>
            </Position>
            <AltitudeMeters>58.799999237060546875</AltitudeMeters>
            <DistanceMeters>73809.401564849</DistanceMeters>
          </Trackpoint>
          <Trackpoint>
            <Time>2018-04-21T13:33:52.000Z</Time>
            <Position>
              <LatitudeDegrees>43.2858235202729701995849609375</LatitudeDegrees>
              <LongitudeDegrees>-8.22198945097625255584716796875</LongitudeDegrees>
            </Position>
            <AltitudeMeters>59.799999237060546875</AltitudeMeters>
            <DistanceMeters>73817.677076903</DistanceMeters>
          </Trackpoint>
          <Trackpoint>
            <Time>2018-04-21T13:33:53.000Z</Time>
            <Position>
              <LatitudeDegrees>43.28583232127130031585693359375</LatitudeDegrees>
              <LongitudeDegrees>-8.2220037840306758880615234375</LongitudeDegrees>
            </Position>
            <AltitudeMeters>60.200000762939453125</AltitudeMeters>
            <DistanceMeters>73819.197504333</DistanceMeters>
          </Trackpoint>
          <Trackpoint>
            <Time>2018-04-21T13:33:58.000Z</Time>
            <Position>
              <LatitudeDegrees>43.28586266376078128814697265625</LatitudeDegrees>
              <LongitudeDegrees>-8.22207679040729999542236328125</LongitudeDegrees>
            </Position>
            <AltitudeMeters>61</AltitudeMeters>
            <DistanceMeters>73826.009004371</DistanceMeters>
          </Trackpoint>
          <Trackpoint>
            <Time>2018-04-21T13:33:59.000Z</Time>
            <Position>
              <LatitudeDegrees>43.28586668707430362701416015625</LatitudeDegrees>
              <LongitudeDegrees>-8.22209439240396022796630859375</LongitudeDegrees>
            </Position>
            <AltitudeMeters>61.59999847412109375</AltitudeMeters>
            <DistanceMeters>73827.499440148</DistanceMeters>
          </Trackpoint>
          <Trackpoint>
            <Time>2018-04-21T13:34:00.000Z</Time>
            <Position>
              <LatitudeDegrees>43.2858758233487606048583984375</LatitudeDegrees>
              <LongitudeDegrees>-8.2221093960106372833251953125</LongitudeDegrees>
            </Position>
            <AltitudeMeters>61.59999847412109375</AltitudeMeters>
            <DistanceMeters>73829.083852106</DistanceMeters>
          </Trackpoint>
          <Trackpoint>
            <Time>2018-04-21T13:34:03.000Z</Time>
            <Position>
              <LatitudeDegrees>43.285897783935070037841796875</LatitudeDegrees>
              <LongitudeDegrees>-8.22215558029711246490478515625</LongitudeDegrees>
            </Position>
            <AltitudeMeters>62</AltitudeMeters>
            <DistanceMeters>73833.552129069</DistanceMeters>
          </Trackpoint>
          <Trackpoint>
            <Time>2018-04-21T13:34:04.000Z</Time>
            <Position>
              <LatitudeDegrees>43.285909183323383331298828125</LatitudeDegrees>
              <LongitudeDegrees>-8.22216932661831378936767578125</LongitudeDegrees>
            </Position>
            <AltitudeMeters>62.200000762939453125</AltitudeMeters>
            <DistanceMeters>73835.241360893</DistanceMeters>
          </Trackpoint>
          <Trackpoint>
            <Time>2018-04-21T13:34:07.000Z</Time>
            <Position>
              <LatitudeDegrees>43.2859318144619464874267578125</LatitudeDegrees>
              <LongitudeDegrees>-8.2222002558410167694091796875</LongitudeDegrees>
            </Position>
            <AltitudeMeters>63.200000762939453125</AltitudeMeters>
            <DistanceMeters>73838.793123384</DistanceMeters>
          </Trackpoint>
          <Trackpoint>
            <Time>2018-04-21T13:34:08.000Z</Time>
            <Position>
              <LatitudeDegrees>43.28593877144157886505126953125</LatitudeDegrees>
              <LongitudeDegrees>-8.22221718728542327880859375</LongitudeDegrees>
            </Position>
            <AltitudeMeters>63.40000152587890625</AltitudeMeters>
            <DistanceMeters>73840.366095394</DistanceMeters>
          </Trackpoint>
          <Trackpoint>
            <Time>2018-04-21T13:34:10.000Z</Time>
            <Position>
              <LatitudeDegrees>43.28594380058348178863525390625</LatitudeDegrees>
              <LongitudeDegrees>-8.22224342264235019683837890625</LongitudeDegrees>
            </Position>
            <AltitudeMeters>63.799999237060546875</AltitudeMeters>
            <DistanceMeters>73842.564069666</DistanceMeters>
          </Trackpoint>
          <Trackpoint>
            <Time>2018-04-21T13:34:11.000Z</Time>
            <Position>
              <LatitudeDegrees>43.28594648279249668121337890625</LatitudeDegrees>
              <LongitudeDegrees>-8.222260773181915283203125</LongitudeDegrees>
            </Position>
            <AltitudeMeters>64.1999969482421875</AltitudeMeters>
            <DistanceMeters>73844.005221143</DistanceMeters>
          </Trackpoint>
          <Trackpoint>
            <Time>2018-04-21T13:34:12.000Z</Time>
            <Position>
              <LatitudeDegrees>43.2859544456005096435546875</LatitudeDegrees>
              <LongitudeDegrees>-8.22227426804602146148681640625</LongitudeDegrees>
            </Position>
            <AltitudeMeters>64.40000152587890625</AltitudeMeters>
            <DistanceMeters>73845.414695094</DistanceMeters>
          </Trackpoint>
          <Trackpoint>
            <Time>2018-04-21T13:34:16.000Z</Time>
            <Position>
              <LatitudeDegrees>43.28598889522254467010498046875</LatitudeDegrees>
              <LongitudeDegrees>-8.22232757695019245147705078125</LongitudeDegrees>
            </Position>
            <AltitudeMeters>65.40000152587890625</AltitudeMeters>
            <DistanceMeters>73851.190255879</DistanceMeters>
          </Trackpoint>
          <Trackpoint>
            <Time>2018-04-21T13:34:20.000Z</Time>
            <Position>
              <LatitudeDegrees>43.28601957298815250396728515625</LatitudeDegrees>
              <LongitudeDegrees>-8.2223752699792385101318359375</LongitudeDegrees>
            </Position>
            <AltitudeMeters>66.40000152587890625</AltitudeMeters>
            <DistanceMeters>73856.346276152</DistanceMeters>
          </Trackpoint>
          <Trackpoint>
            <Time>2018-04-21T13:34:23.000Z</Time>
            <Position>
              <LatitudeDegrees>43.28604320995509624481201171875</LatitudeDegrees>
              <LongitudeDegrees>-8.2224104739725589752197265625</LongitudeDegrees>
            </Position>
            <AltitudeMeters>67.1999969482421875</AltitudeMeters>
            <DistanceMeters>73860.226113446</DistanceMeters>
          </Trackpoint>
          <Trackpoint>
            <Time>2018-04-21T13:34:25.000Z</Time>
            <Position>
              <LatitudeDegrees>43.28606466762721538543701171875</LatitudeDegrees>
              <LongitudeDegrees>-8.222434781491756439208984375</LongitudeDegrees>
            </Position>
            <AltitudeMeters>67.59999847412109375</AltitudeMeters>
            <DistanceMeters>73863.321418134</DistanceMeters>
          </Trackpoint>
          <Trackpoint>
            <Time>2018-04-21T13:34:26.000Z</Time>
            <Position>
              <LatitudeDegrees>43.28606986440718173980712890625</LatitudeDegrees>
              <LongitudeDegrees>-8.2224527187645435333251953125</LongitudeDegrees>
            </Position>
            <AltitudeMeters>68</AltitudeMeters>
            <DistanceMeters>73864.882866384</DistanceMeters>
          </Trackpoint>
          <Trackpoint>
            <Time>2018-04-21T13:34:28.000Z</Time>
            <Position>
              <LatitudeDegrees>43.286068104207515716552734375</LatitudeDegrees>
              <LongitudeDegrees>-8.2224927842617034912109375</LongitudeDegrees>
            </Position>
            <AltitudeMeters>68.40000152587890625</AltitudeMeters>
            <DistanceMeters>73868.134668887</DistanceMeters>
          </Trackpoint>
          <Trackpoint>
            <Time>2018-04-21T13:34:32.000Z</Time>
            <Position>
              <LatitudeDegrees>43.28607036732137203216552734375</LatitudeDegrees>
              <LongitudeDegrees>-8.222594372928142547607421875</LongitudeDegrees>
            </Position>
            <AltitudeMeters>68.59999847412109375</AltitudeMeters>
            <DistanceMeters>73876.369160008</DistanceMeters>
          </Trackpoint>
          <Trackpoint>
            <Time>2018-04-21T13:34:33.000Z</Time>
            <Position>
              <LatitudeDegrees>43.28608981333673000335693359375</LatitudeDegrees>
              <LongitudeDegrees>-8.222622536122798919677734375</LongitudeDegrees>
            </Position>
            <AltitudeMeters>68.8000030517578125</AltitudeMeters>
            <DistanceMeters>73879.515104029</DistanceMeters>
          </Trackpoint>
          <Trackpoint>
            <Time>2018-04-21T13:34:37.000Z</Time>
            <Position>
              <LatitudeDegrees>43.2861651666462421417236328125</LatitudeDegrees>
              <LongitudeDegrees>-8.2227836363017559051513671875</LongitudeDegrees>
            </Position>
            <AltitudeMeters>68.59999847412109375</AltitudeMeters>
            <DistanceMeters>73895.029797635</DistanceMeters>
          </Trackpoint>
          <Trackpoint>
            <Time>2018-04-21T13:34:42.000Z</Time>
            <Position>
              <LatitudeDegrees>43.28620053827762603759765625</LatitudeDegrees>
              <LongitudeDegrees>-8.22299025021493434906005859375</LongitudeDegrees>
            </Position>
            <AltitudeMeters>69.40000152587890625</AltitudeMeters>
            <DistanceMeters>73912.22648259</DistanceMeters>
          </Trackpoint>
          <Trackpoint>
            <Time>2018-04-21T13:34:45.000Z</Time>
            <Position>
              <LatitudeDegrees>43.286232389509677886962890625</LatitudeDegrees>
              <LongitudeDegrees>-8.22310231626033782958984375</LongitudeDegrees>
            </Position>
            <AltitudeMeters>69.8000030517578125</AltitudeMeters>
            <DistanceMeters>73921.973555703</DistanceMeters>
          </Trackpoint>
          <Trackpoint>
            <Time>2018-04-21T13:34:50.000Z</Time>
            <Position>
              <LatitudeDegrees>43.2863177172839641571044921875</LatitudeDegrees>
              <LongitudeDegrees>-8.22326618246734142303466796875</LongitudeDegrees>
            </Position>
            <AltitudeMeters>70.59999847412109375</AltitudeMeters>
            <DistanceMeters>73938.2971428</DistanceMeters>
          </Trackpoint>
          <Trackpoint>
            <Time>2018-04-21T13:34:53.000Z</Time>
            <Position>
              <LatitudeDegrees>43.28637731261551380157470703125</LatitudeDegrees>
              <LongitudeDegrees>-8.22335033677518367767333984375</LongitudeDegrees>
            </Position>
            <AltitudeMeters>71.1999969482421875</AltitudeMeters>
            <DistanceMeters>73947.810261433</DistanceMeters>
          </Trackpoint>
          <Trackpoint>
            <Time>2018-04-21T13:34:58.000Z</Time>
            <Position>
              <LatitudeDegrees>43.286473788321018218994140625</LatitudeDegrees>
              <LongitudeDegrees>-8.22347355075180530548095703125</LongitudeDegrees>
            </Position>
            <AltitudeMeters>71.8000030517578125</AltitudeMeters>
            <DistanceMeters>73962.471500796</DistanceMeters>
          </Trackpoint>
          <Trackpoint>
            <Time>2018-04-21T13:35:01.000Z</Time>
            <Position>
              <LatitudeDegrees>43.2865396700799465179443359375</LatitudeDegrees>
              <LongitudeDegrees>-8.22353675030171871185302734375</LongitudeDegrees>
            </Position>
            <AltitudeMeters>72.1999969482421875</AltitudeMeters>
            <DistanceMeters>73971.415125181</DistanceMeters>
          </Trackpoint>
          <Trackpoint>
            <Time>2018-04-21T13:35:07.000Z</Time>
            <Position>
              <LatitudeDegrees>43.28665609471499919891357421875</LatitudeDegrees>
              <LongitudeDegrees>-8.2236701063811779022216796875</LongitudeDegrees>
            </Position>
            <AltitudeMeters>73.1999969482421875</AltitudeMeters>
            <DistanceMeters>73988.286850041</DistanceMeters>
          </Trackpoint>
          <Trackpoint>
            <Time>2018-04-21T13:35:08.000Z</Time>
            <Position>
              <LatitudeDegrees>43.2866751216351985931396484375</LatitudeDegrees>
              <LongitudeDegrees>-8.22369231842458248138427734375</LongitudeDegrees>
            </Position>
            <AltitudeMeters>73.40000152587890625</AltitudeMeters>
            <DistanceMeters>73991.067092015</DistanceMeters>
          </Trackpoint>
          <Trackpoint>
            <Time>2018-04-21T13:35:14.000Z</Time>
            <Position>
              <LatitudeDegrees>43.28678500838577747344970703125</LatitudeDegrees>
              <LongitudeDegrees>-8.22383665479719638824462890625</LongitudeDegrees>
            </Position>
            <AltitudeMeters>74.40000152587890625</AltitudeMeters>
            <DistanceMeters>74007.988785903</DistanceMeters>
          </Trackpoint>
          <Trackpoint>
            <Time>2018-04-21T13:35:15.000Z</Time>
            <Position>
              <LatitudeDegrees>43.2868028618395328521728515625</LatitudeDegrees>
              <LongitudeDegrees>-8.22385869920253753662109375</LongitudeDegrees>
            </Position>
            <AltitudeMeters>74.59999847412109375</AltitudeMeters>
            <DistanceMeters>74010.659695934</DistanceMeters>
          </Trackpoint>
          <Trackpoint>
            <Time>2018-04-21T13:35:17.000Z</Time>
            <Position>
              <LatitudeDegrees>43.28683446161448955535888671875</LatitudeDegrees>
              <LongitudeDegrees>-8.22390706278383731842041015625</LongitudeDegrees>
            </Position>
            <AltitudeMeters>73.40000152587890625</AltitudeMeters>
            <DistanceMeters>74015.92489628</DistanceMeters>
          </Trackpoint>
          <Trackpoint>
            <Time>2018-04-21T13:35:19.000Z</Time>
            <Position>
              <LatitudeDegrees>43.28686580993235111236572265625</LatitudeDegrees>
              <LongitudeDegrees>-8.22396322153508663177490234375</LongitudeDegrees>
            </Position>
            <AltitudeMeters>75.1999969482421875</AltitudeMeters>
            <DistanceMeters>74021.659662047</DistanceMeters>
          </Trackpoint>
          <Trackpoint>
            <Time>2018-04-21T13:35:24.000Z</Time>
            <Position>
              <LatitudeDegrees>43.28694325871765613555908203125</LatitudeDegrees>
              <LongitudeDegrees>-8.2241116650402545928955078125</LongitudeDegrees>
            </Position>
            <AltitudeMeters>76</AltitudeMeters>
            <DistanceMeters>74036.456392546</DistanceMeters>
          </Trackpoint>
          <Trackpoint>
            <Time>2018-04-21T13:35:26.000Z</Time>
            <Position>
              <LatitudeDegrees>43.28697108663618564605712890625</LatitudeDegrees>
              <LongitudeDegrees>-8.22417779825627803802490234375</LongitudeDegrees>
            </Position>
            <AltitudeMeters>76.40000152587890625</AltitudeMeters>
            <DistanceMeters>74042.645543076</DistanceMeters>
          </Trackpoint>
          <Trackpoint>
            <Time>2018-04-21T13:35:31.000Z</Time>
            <Position>
              <LatitudeDegrees>43.28703478910028934478759765625</LatitudeDegrees>
              <LongitudeDegrees>-8.2243446819484233856201171875</LongitudeDegrees>
            </Position>
            <AltitudeMeters>77.1999969482421875</AltitudeMeters>
            <DistanceMeters>74057.912642773</DistanceMeters>
          </Trackpoint>
          <Trackpoint>
            <Time>2018-04-21T13:35:34.000Z</Time>
            <Position>
              <LatitudeDegrees>43.28706211410462856292724609375</LatitudeDegrees>
              <LongitudeDegrees>-8.22444870136678218841552734375</LongitudeDegrees>
            </Position>
            <AltitudeMeters>77.40000152587890625</AltitudeMeters>
            <DistanceMeters>74066.872407256</DistanceMeters>
          </Trackpoint>
          <Trackpoint>
            <Time>2018-04-21T13:35:39.000Z</Time>
            <Position>
              <LatitudeDegrees>43.28708575107157230377197265625</LatitudeDegrees>
              <LongitudeDegrees>-8.224631510674953460693359375</LongitudeDegrees>
            </Position>
            <AltitudeMeters>78.59999847412109375</AltitudeMeters>
            <DistanceMeters>74081.915469301</DistanceMeters>
          </Trackpoint>
          <Trackpoint>
            <Time>2018-04-21T13:35:46.000Z</Time>
            <Position>
              <LatitudeDegrees>43.28708524815738201141357421875</LatitudeDegrees>
              <LongitudeDegrees>-8.2248978875577449798583984375</LongitudeDegrees>
            </Position>
            <AltitudeMeters>79.59999847412109375</AltitudeMeters>
            <DistanceMeters>74103.49720563</DistanceMeters>
          </Trackpoint>
          <Trackpoint>
            <Time>2018-04-21T13:35:48.000Z</Time>
            <Position>
              <LatitudeDegrees>43.28707502223551273345947265625</LatitudeDegrees>
              <LongitudeDegrees>-8.22497776709496974945068359375</LongitudeDegrees>
            </Position>
            <AltitudeMeters>79.8000030517578125</AltitudeMeters>
            <DistanceMeters>74110.068493598</DistanceMeters>
          </Trackpoint>
          <Trackpoint>
            <Time>2018-04-21T13:35:52.000Z</Time>
            <Position>
              <LatitudeDegrees>43.28704048879444599151611328125</LatitudeDegrees>
              <LongitudeDegrees>-8.22512495331466197967529296875</LongitudeDegrees>
            </Position>
            <AltitudeMeters>80.59999847412109375</AltitudeMeters>
            <DistanceMeters>74122.597613635</DistanceMeters>
          </Trackpoint>
          <Trackpoint>
            <Time>2018-04-21T13:35:56.000Z</Time>
            <Position>
              <LatitudeDegrees>43.286996819078922271728515625</LatitudeDegrees>
              <LongitudeDegrees>-8.22526174597442150115966796875</LongitudeDegrees>
            </Position>
            <AltitudeMeters>81.1999969482421875</AltitudeMeters>
            <DistanceMeters>74134.699257315</DistanceMeters>
          </Trackpoint>
          <Trackpoint>
            <Time>2018-04-21T13:35:59.000Z</Time>
            <Position>
              <LatitudeDegrees>43.2869591005146503448486328125</LatitudeDegrees>
              <LongitudeDegrees>-8.2253625802695751190185546875</LongitudeDegrees>
            </Position>
            <AltitudeMeters>81.8000030517578125</AltitudeMeters>
            <DistanceMeters>74143.883971472</DistanceMeters>
          </Trackpoint>
          <Trackpoint>
            <Time>2018-04-21T13:36:04.000Z</Time>
            <Position>
              <LatitudeDegrees>43.28688307665288448333740234375</LatitudeDegrees>
              <LongitudeDegrees>-8.22552544064819812774658203125</LongitudeDegrees>
            </Position>
            <AltitudeMeters>82.40000152587890625</AltitudeMeters>
            <DistanceMeters>74159.559059352</DistanceMeters>
          </Trackpoint>
          <Trackpoint>
            <Time>2018-04-21T13:36:08.000Z</Time>
            <Position>
              <LatitudeDegrees>43.28682742081582546234130859375</LatitudeDegrees>
              <LongitudeDegrees>-8.22565468959510326385498046875</LongitudeDegrees>
            </Position>
            <AltitudeMeters>83</AltitudeMeters>
            <DistanceMeters>74171.726190206</DistanceMeters>
          </Trackpoint>
          <Trackpoint>
            <Time>2018-04-21T13:36:12.000Z</Time>
            <Position>
              <LatitudeDegrees>43.2867760397493839263916015625</LatitudeDegrees>
              <LongitudeDegrees>-8.2257756404578685760498046875</LongitudeDegrees>
            </Position>
            <AltitudeMeters>83.59999847412109375</AltitudeMeters>
            <DistanceMeters>74183.072236644</DistanceMeters>
          </Trackpoint>
          <Trackpoint>
            <Time>2018-04-21T13:36:16.000Z</Time>
            <Position>
              <LatitudeDegrees>43.28672826290130615234375</LatitudeDegrees>
              <LongitudeDegrees>-8.22590094991028308868408203125</LongitudeDegrees>
            </Position>
            <AltitudeMeters>84.1999969482421875</AltitudeMeters>
            <DistanceMeters>74194.533104498</DistanceMeters>
          </Trackpoint>
          <Trackpoint>
            <Time>2018-04-21T13:36:19.000Z</Time>
            <Position>
              <LatitudeDegrees>43.2866813242435455322265625</LatitudeDegrees>
              <LongitudeDegrees>-8.225982673466205596923828125</LongitudeDegrees>
            </Position>
            <AltitudeMeters>84.1999969482421875</AltitudeMeters>
            <DistanceMeters>74202.967494945</DistanceMeters>
          </Trackpoint>
          <Trackpoint>
            <Time>2018-04-21T13:36:24.000Z</Time>
            <Position>
              <LatitudeDegrees>43.286619298160076141357421875</LatitudeDegrees>
              <LongitudeDegrees>-8.22612172923982143402099609375</LongitudeDegrees>
            </Position>
            <AltitudeMeters>85.59999847412109375</AltitudeMeters>
            <DistanceMeters>74216.180651191</DistanceMeters>
          </Trackpoint>
          <Trackpoint>
            <Time>2018-04-21T13:36:26.000Z</Time>
            <Position>
              <LatitudeDegrees>43.28659675084054470062255859375</LatitudeDegrees>
              <LongitudeDegrees>-8.226182498037815093994140625</LongitudeDegrees>
            </Position>
            <AltitudeMeters>85.59999847412109375</AltitudeMeters>
            <DistanceMeters>74221.706109403</DistanceMeters>
          </Trackpoint>
          <Trackpoint>
            <Time>2018-04-21T13:36:32.000Z</Time>
            <Position>
              <LatitudeDegrees>43.2865135185420513153076171875</LatitudeDegrees>
              <LongitudeDegrees>-8.22635709308087825775146484375</LongitudeDegrees>
            </Position>
            <AltitudeMeters>86.59999847412109375</AltitudeMeters>
            <DistanceMeters>74238.614991104</DistanceMeters>
          </Trackpoint>
          <Trackpoint>
            <Time>2018-04-21T13:36:34.000Z</Time>
            <Position>
              <LatitudeDegrees>43.2864850200712680816650390625</LatitudeDegrees>
              <LongitudeDegrees>-8.22640755213797092437744140625</LongitudeDegrees>
            </Position>
            <AltitudeMeters>87</AltitudeMeters>
            <DistanceMeters>74243.790240541</DistanceMeters>
          </Trackpoint>
          <Trackpoint>
            <Time>2018-04-21T13:36:38.000Z</Time>
            <Position>
              <LatitudeDegrees>43.28643858432769775390625</LatitudeDegrees>
              <LongitudeDegrees>-8.2265259884297847747802734375</LongitudeDegrees>
            </Position>
            <AltitudeMeters>87.59999847412109375</AltitudeMeters>
            <DistanceMeters>74254.689767397</DistanceMeters>
          </Trackpoint>
          <Trackpoint>
            <Time>2018-04-21T13:36:41.000Z</Time>
            <Position>
              <LatitudeDegrees>43.2863981835544109344482421875</LatitudeDegrees>
              <LongitudeDegrees>-8.2266131602227687835693359375</LongitudeDegrees>
            </Position>
            <AltitudeMeters>88.40000152587890625</AltitudeMeters>
            <DistanceMeters>74263.062909789</DistanceMeters>
          </Trackpoint>
          <Trackpoint>
            <Time>2018-04-21T13:36:45.000Z</Time>
            <Position>
              <LatitudeDegrees>43.28634613193571567535400390625</LatitudeDegrees>
              <LongitudeDegrees>-8.2267258130013942718505859375</LongitudeDegrees>
            </Position>
            <AltitudeMeters>88.8000030517578125</AltitudeMeters>
            <DistanceMeters>74273.873425472</DistanceMeters>
          </Trackpoint>
          <Trackpoint>
            <Time>2018-04-21T13:36:49.000Z</Time>
            <Position>
              <LatitudeDegrees>43.28628293238580226898193359375</LatitudeDegrees>
              <LongitudeDegrees>-8.2268502004444599151611328125</LongitudeDegrees>
            </Position>
            <AltitudeMeters>90</AltitudeMeters>
            <DistanceMeters>74286.163139</DistanceMeters>
          </Trackpoint>
          <Trackpoint>
            <Time>2018-04-21T13:36:50.000Z</Time>
            <Position>
              <LatitudeDegrees>43.28626667149364948272705078125</LatitudeDegrees>
              <LongitudeDegrees>-8.22687618434429168701171875</LongitudeDegrees>
            </Position>
            <AltitudeMeters>90</AltitudeMeters>
            <DistanceMeters>74288.940131129</DistanceMeters>
          </Trackpoint>
          <Trackpoint>
            <Time>2018-04-21T13:36:58.000Z</Time>
            <Position>
              <LatitudeDegrees>43.2861601375043392181396484375</LatitudeDegrees>
              <LongitudeDegrees>-8.22710576467216014862060546875</LongitudeDegrees>
            </Position>
            <AltitudeMeters>91.1999969482421875</AltitudeMeters>
            <DistanceMeters>74310.999022744</DistanceMeters>
          </Trackpoint>
          <Trackpoint>
            <Time>2018-04-21T13:37:05.000Z</Time>
            <Position>
              <LatitudeDegrees>43.28614278696477413177490234375</LatitudeDegrees>
              <LongitudeDegrees>-8.2273722253739833831787109375</LongitudeDegrees>
            </Position>
            <AltitudeMeters>92.40000152587890625</AltitudeMeters>
            <DistanceMeters>74332.674280925</DistanceMeters>
          </Trackpoint>
          <Trackpoint>
            <Time>2018-04-21T13:37:06.000Z</Time>
            <Position>
              <LatitudeDegrees>43.2861422002315521240234375</LatitudeDegrees>
              <LongitudeDegrees>-8.22741388343274593353271484375</LongitudeDegrees>
            </Position>
            <AltitudeMeters>92.40000152587890625</AltitudeMeters>
            <DistanceMeters>74336.05007068</DistanceMeters>
          </Trackpoint>
          <Trackpoint>
            <Time>2018-04-21T13:37:12.000Z</Time>
            <Position>
              <LatitudeDegrees>43.28613524325191974639892578125</LatitudeDegrees>
              <LongitudeDegrees>-8.2276665978133678436279296875</LongitudeDegrees>
            </Position>
            <AltitudeMeters>93.59999847412109375</AltitudeMeters>
            <DistanceMeters>74356.53973427</DistanceMeters>
          </Trackpoint>
          <Trackpoint>
            <Time>2018-04-21T13:37:20.000Z</Time>
            <Position>
              <LatitudeDegrees>43.28610892407596111297607421875</LatitudeDegrees>
              <LongitudeDegrees>-8.227965831756591796875</LongitudeDegrees>
            </Position>
            <AltitudeMeters>94.1999969482421875</AltitudeMeters>
            <DistanceMeters>74380.960490577</DistanceMeters>
          </Trackpoint>
          <Trackpoint>
            <Time>2018-04-21T13:37:24.000Z</Time>
            <Position>
              <LatitudeDegrees>43.2860572077333927154541015625</LatitudeDegrees>
              <LongitudeDegrees>-8.22810891084372997283935546875</LongitudeDegrees>
            </Position>
            <AltitudeMeters>94.8000030517578125</AltitudeMeters>
            <DistanceMeters>74393.903673269</DistanceMeters>
          </Trackpoint>
          <Trackpoint>
            <Time>2018-04-21T13:37:26.000Z</Time>
            <Position>
              <LatitudeDegrees>43.28602409921586513519287109375</LatitudeDegrees>
              <LongitudeDegrees>-8.22817428968846797943115234375</LongitudeDegrees>
            </Position>
            <AltitudeMeters>94.40000152587890625</AltitudeMeters>
            <DistanceMeters>74400.355700268</DistanceMeters>
          </Trackpoint>
          <Trackpoint>
            <Time>2018-04-21T13:37:34.000Z</Time>
            <Position>
              <LatitudeDegrees>43.28585922718048095703125</LatitudeDegrees>
              <LongitudeDegrees>-8.22843831963837146759033203125</LongitudeDegrees>
            </Position>
            <AltitudeMeters>95.8000030517578125</AltitudeMeters>
            <DistanceMeters>74428.540053456</DistanceMeters>
          </Trackpoint>
          <Trackpoint>
            <Time>2018-04-21T13:37:36.000Z</Time>
            <Position>
              <LatitudeDegrees>43.28580499626696109771728515625</LatitudeDegrees>
              <LongitudeDegrees>-8.22849816642701625823974609375</LongitudeDegrees>
            </Position>
            <AltitudeMeters>95.59999847412109375</AltitudeMeters>
            <DistanceMeters>74436.282252591</DistanceMeters>
          </Trackpoint>
          <Trackpoint>
            <Time>2018-04-21T13:37:44.000Z</Time>
            <Position>
              <LatitudeDegrees>43.28558958135545253753662109375</LatitudeDegrees>
              <LongitudeDegrees>-8.22875934652984142303466796875</LongitudeDegrees>
            </Position>
            <AltitudeMeters>95.59999847412109375</AltitudeMeters>
            <DistanceMeters>74468.260965778</DistanceMeters>
          </Trackpoint>
          <Trackpoint>
            <Time>2018-04-21T13:37:50.000Z</Time>
            <Position>
              <LatitudeDegrees>43.28543837182223796844482421875</LatitudeDegrees>
              <LongitudeDegrees>-8.22891592048108577728271484375</LongitudeDegrees>
            </Position>
            <AltitudeMeters>95.40000152587890625</AltitudeMeters>
            <DistanceMeters>74489.336554268</DistanceMeters>
          </Trackpoint>
          <Trackpoint>
            <Time>2018-04-21T13:37:58.000Z</Time>
            <Position>
              <LatitudeDegrees>43.28524701297283172607421875</LatitudeDegrees>
              <LongitudeDegrees>-8.22911675088107585906982421875</LongitudeDegrees>
            </Position>
            <AltitudeMeters>95.1999969482421875</AltitudeMeters>
            <DistanceMeters>74516.139647218</DistanceMeters>
          </Trackpoint>
          <Trackpoint>
            <Time>2018-04-21T13:38:00.000Z</Time>
            <Position>
              <LatitudeDegrees>43.2852149941027164459228515625</LatitudeDegrees>
              <LongitudeDegrees>-8.22915513999760150909423828125</LongitudeDegrees>
            </Position>
            <AltitudeMeters>95</AltitudeMeters>
            <DistanceMeters>74520.86907629</DistanceMeters>
          </Trackpoint>
          <Trackpoint>
            <Time>2018-04-21T13:38:01.000Z</Time>
            <Position>
              <LatitudeDegrees>43.285201080143451690673828125</LatitudeDegrees>
              <LongitudeDegrees>-8.22914742864668369293212890625</LongitudeDegrees>
            </Position>
            <AltitudeMeters>94.8000030517578125</AltitudeMeters>
            <DistanceMeters>74522.536788359</DistanceMeters>
          </Trackpoint>
          <Trackpoint>
            <Time>2018-04-21T13:38:02.000Z</Time>
            <Position>
              <LatitudeDegrees>43.2851995714008808135986328125</LatitudeDegrees>
              <LongitudeDegrees>-8.2291223667562007904052734375</LongitudeDegrees>
            </Position>
            <AltitudeMeters>94.59999847412109375</AltitudeMeters>
            <DistanceMeters>74524.574884324</DistanceMeters>
          </Trackpoint>
          <Trackpoint>
            <Time>2018-04-21T13:38:06.000Z</Time>
            <Position>
              <LatitudeDegrees>43.2852651178836822509765625</LatitudeDegrees>
              <LongitudeDegrees>-8.2290566526353359222412109375</LongitudeDegrees>
            </Position>
            <AltitudeMeters>94.8000030517578125</AltitudeMeters>
            <DistanceMeters>74533.605922495</DistanceMeters>
          </Trackpoint>
          <Trackpoint>
            <Time>2018-04-21T13:38:07.000Z</Time>
            <Position>
              <LatitudeDegrees>43.28528900630772113800048828125</LatitudeDegrees>
              <LongitudeDegrees>-8.22903494350612163543701171875</LongitudeDegrees>
            </Position>
            <AltitudeMeters>94.8000030517578125</AltitudeMeters>
            <DistanceMeters>74536.79463165</DistanceMeters>
          </Trackpoint>
          <Trackpoint>
            <Time>2018-04-21T13:38:13.000Z</Time>
            <Position>
              <LatitudeDegrees>43.28544256277382373809814453125</LatitudeDegrees>
              <LongitudeDegrees>-8.22887334041297435760498046875</LongitudeDegrees>
            </Position>
            <AltitudeMeters>95.40000152587890625</AltitudeMeters>
            <DistanceMeters>74558.324422267</DistanceMeters>
          </Trackpoint>
          <Trackpoint>
            <Time>2018-04-21T13:38:14.000Z</Time>
            <Position>
              <LatitudeDegrees>43.28546653501689434051513671875</LatitudeDegrees>
              <LongitudeDegrees>-8.22884014807641506195068359375</LongitudeDegrees>
            </Position>
            <AltitudeMeters>95.40000152587890625</AltitudeMeters>
            <DistanceMeters>74562.112402134</DistanceMeters>
          </Trackpoint>
          <Trackpoint>
            <Time>2018-04-21T13:38:20.000Z</Time>
            <Position>
              <LatitudeDegrees>43.285623528063297271728515625</LatitudeDegrees>
              <LongitudeDegrees>-8.22863571345806121826171875</LongitudeDegrees>
            </Position>
            <AltitudeMeters>95.40000152587890625</AltitudeMeters>
            <DistanceMeters>74586.188878771</DistanceMeters>
          </Trackpoint>
          <Trackpoint>
            <Time>2018-04-21T13:40:14.000Z</Time>
            <Position>
              <LatitudeDegrees>43.28574590384960174560546875</LatitudeDegrees>
              <LongitudeDegrees>-8.2285587675869464874267578125</LongitudeDegrees>
            </Position>
            <AltitudeMeters>94.40000152587890625</AltitudeMeters>
            <DistanceMeters>74601.168778625</DistanceMeters>
          </Trackpoint>
          <Trackpoint>
            <Time>2018-04-21T13:40:15.000Z</Time>
            <Position>
              <LatitudeDegrees>43.28574196435511112213134765625</LatitudeDegrees>
              <LongitudeDegrees>-8.2285738550126552581787109375</LongitudeDegrees>
            </Position>
            <AltitudeMeters>95.1999969482421875</AltitudeMeters>
            <DistanceMeters>74602.464770221</DistanceMeters>
          </Trackpoint>
          <Trackpoint>
            <Time>2018-04-21T13:40:18.000Z</Time>
            <Position>
              <LatitudeDegrees>43.2857329957187175750732421875</LatitudeDegrees>
              <LongitudeDegrees>-8.22862959466874599456787109375</LongitudeDegrees>
            </Position>
            <AltitudeMeters>93.59999847412109375</AltitudeMeters>
            <DistanceMeters>74607.088969722</DistanceMeters>
          </Trackpoint>
          <Trackpoint>
            <Time>2018-04-21T13:40:20.000Z</Time>
            <Position>
              <LatitudeDegrees>43.28572385944426059722900390625</LatitudeDegrees>
              <LongitudeDegrees>-8.22868240065872669219970703125</LongitudeDegrees>
            </Position>
            <AltitudeMeters>95</AltitudeMeters>
            <DistanceMeters>74611.485945235</DistanceMeters>
          </Trackpoint>
          <Trackpoint>
            <Time>2018-04-21T13:40:21.000Z</Time>
            <Position>
              <LatitudeDegrees>43.28571748919785022735595703125</LatitudeDegrees>
              <LongitudeDegrees>-8.2286955602467060089111328125</LongitudeDegrees>
            </Position>
            <AltitudeMeters>96</AltitudeMeters>
            <DistanceMeters>74612.7679257</DistanceMeters>
          </Trackpoint>
          <Trackpoint>
            <Time>2018-04-21T13:40:25.000Z</Time>
            <Position>
              <LatitudeDegrees>43.2856488414108753204345703125</LatitudeDegrees>
              <LongitudeDegrees>-8.22883964516222476959228515625</LongitudeDegrees>
            </Position>
            <AltitudeMeters>94.59999847412109375</AltitudeMeters>
            <DistanceMeters>74626.71971153</DistanceMeters>
          </Trackpoint>
          <Trackpoint>
            <Time>2018-04-21T13:40:26.000Z</Time>
            <Position>
              <LatitudeDegrees>43.285626880824565887451171875</LatitudeDegrees>
              <LongitudeDegrees>-8.22890653274953365325927734375</LongitudeDegrees>
            </Position>
            <AltitudeMeters>94.1999969482421875</AltitudeMeters>
            <DistanceMeters>74632.665529327</DistanceMeters>
          </Trackpoint>
          <Trackpoint>
            <Time>2018-04-21T13:40:27.000Z</Time>
            <Position>
              <LatitudeDegrees>43.2856109552085399627685546875</LatitudeDegrees>
              <LongitudeDegrees>-8.22898699901998043060302734375</LongitudeDegrees>
            </Position>
            <AltitudeMeters>93.8000030517578125</AltitudeMeters>
            <DistanceMeters>74639.422456624</DistanceMeters>
          </Trackpoint>
          <Trackpoint>
            <Time>2018-04-21T13:40:28.000Z</Time>
            <Position>
              <LatitudeDegrees>43.285598047077655792236328125</LatitudeDegrees>
              <LongitudeDegrees>-8.22908188216388225555419921875</LongitudeDegrees>
            </Position>
            <AltitudeMeters>93.40000152587890625</AltitudeMeters>
            <DistanceMeters>74647.242987792</DistanceMeters>
          </Trackpoint>
          <Trackpoint>
            <Time>2018-04-21T13:40:29.000Z</Time>
            <Position>
              <LatitudeDegrees>43.28558388166129589080810546875</LatitudeDegrees>
              <LongitudeDegrees>-8.229181207716464996337890625</LongitudeDegrees>
            </Position>
            <AltitudeMeters>92.8000030517578125</AltitudeMeters>
            <DistanceMeters>74655.443413347</DistanceMeters>
          </Trackpoint>
          <Trackpoint>
            <Time>2018-04-21T13:40:32.000Z</Time>
            <Position>
              <LatitudeDegrees>43.28552654944360256195068359375</LatitudeDegrees>
              <LongitudeDegrees>-8.22948169894516468048095703125</LongitudeDegrees>
            </Position>
            <AltitudeMeters>91.1999969482421875</AltitudeMeters>
            <DistanceMeters>74680.612221277</DistanceMeters>
          </Trackpoint>
          <Trackpoint>
            <Time>2018-04-21T13:40:34.000Z</Time>
            <Position>
              <LatitudeDegrees>43.2854858972132205963134765625</LatitudeDegrees>
              <LongitudeDegrees>-8.22968001477420330047607421875</LongitudeDegrees>
            </Position>
            <AltitudeMeters>89.8000030517578125</AltitudeMeters>
            <DistanceMeters>74697.305037064</DistanceMeters>
          </Trackpoint>
          <Trackpoint>
            <Time>2018-04-21T13:40:36.000Z</Time>
            <Position>
              <LatitudeDegrees>43.285432755947113037109375</LatitudeDegrees>
              <LongitudeDegrees>-8.2298639975488185882568359375</LongitudeDegrees>
            </Position>
            <AltitudeMeters>89.1999969482421875</AltitudeMeters>
            <DistanceMeters>74713.342326027</DistanceMeters>
          </Trackpoint>
          <Trackpoint>
            <Time>2018-04-21T13:40:37.000Z</Time>
            <Position>
              <LatitudeDegrees>43.28539344482123851776123046875</LatitudeDegrees>
              <LongitudeDegrees>-8.22995041497051715850830078125</LongitudeDegrees>
            </Position>
            <AltitudeMeters>88.59999847412109375</AltitudeMeters>
            <DistanceMeters>74721.599267177</DistanceMeters>
          </Trackpoint>
          <Trackpoint>
            <Time>2018-04-21T13:40:38.000Z</Time>
            <Position>
              <LatitudeDegrees>43.28534332104027271270751953125</LatitudeDegrees>
              <LongitudeDegrees>-8.23003758676350116729736328125</LongitudeDegrees>
            </Position>
            <AltitudeMeters>87.8000030517578125</AltitudeMeters>
            <DistanceMeters>74730.600258559</DistanceMeters>
          </Trackpoint>
          <Trackpoint>
            <Time>2018-04-21T13:40:39.000Z</Time>
            <Position>
              <LatitudeDegrees>43.28528565354645252227783203125</LatitudeDegrees>
              <LongitudeDegrees>-8.2301271893084049224853515625</LongitudeDegrees>
            </Position>
            <AltitudeMeters>86.8000030517578125</AltitudeMeters>
            <DistanceMeters>74740.290188118</DistanceMeters>
          </Trackpoint>
          <Trackpoint>
            <Time>2018-04-21T13:40:40.000Z</Time>
            <Position>
              <LatitudeDegrees>43.2852247171103954315185546875</LatitudeDegrees>
              <LongitudeDegrees>-8.23022215627133846282958984375</LongitudeDegrees>
            </Position>
            <AltitudeMeters>86.1999969482421875</AltitudeMeters>
            <DistanceMeters>74750.547352475</DistanceMeters>
          </Trackpoint>
          <Trackpoint>
            <Time>2018-04-21T13:40:42.000Z</Time>
            <Position>
              <LatitudeDegrees>43.2851020060479640960693359375</LatitudeDegrees>
              <LongitudeDegrees>-8.2304178737103939056396484375</LongitudeDegrees>
            </Position>
            <AltitudeMeters>85.59999847412109375</AltitudeMeters>
            <DistanceMeters>74771.475894181</DistanceMeters>
          </Trackpoint>
          <Trackpoint>
            <Time>2018-04-21T13:40:43.000Z</Time>
            <Position>
              <LatitudeDegrees>43.2850366272032260894775390625</LatitudeDegrees>
              <LongitudeDegrees>-8.230512253940105438232421875</LongitudeDegrees>
            </Position>
            <AltitudeMeters>84.40000152587890625</AltitudeMeters>
            <DistanceMeters>74782.03198926</DistanceMeters>
          </Trackpoint>
          <Trackpoint>
            <Time>2018-04-21T13:40:44.000Z</Time>
            <Position>
              <LatitudeDegrees>43.28497208654880523681640625</LatitudeDegrees>
              <LongitudeDegrees>-8.23060353286564350128173828125</LongitudeDegrees>
            </Position>
            <AltitudeMeters>82.59999847412109375</AltitudeMeters>
            <DistanceMeters>74792.342278291</DistanceMeters>
          </Trackpoint>
          <Trackpoint>
            <Time>2018-04-21T13:40:45.000Z</Time>
            <Position>
              <LatitudeDegrees>43.28490477986633777618408203125</LatitudeDegrees>
              <LongitudeDegrees>-8.23068550787866115570068359375</LongitudeDegrees>
            </Position>
            <AltitudeMeters>81.1999969482421875</AltitudeMeters>
            <DistanceMeters>74802.353963889</DistanceMeters>
          </Trackpoint>
          <Trackpoint>
            <Time>2018-04-21T13:40:47.000Z</Time>
            <Position>
              <LatitudeDegrees>43.284752480685710906982421875</LatitudeDegrees>
              <LongitudeDegrees>-8.2308265753090381622314453125</LongitudeDegrees>
            </Position>
            <AltitudeMeters>79.8000030517578125</AltitudeMeters>
            <DistanceMeters>74822.798625257</DistanceMeters>
          </Trackpoint>
          <Trackpoint>
            <Time>2018-04-21T13:40:49.000Z</Time>
            <Position>
              <LatitudeDegrees>43.28456765972077846527099609375</LatitudeDegrees>
              <LongitudeDegrees>-8.23089455254375934600830078125</LongitudeDegrees>
            </Position>
            <AltitudeMeters>78</AltitudeMeters>
            <DistanceMeters>74844.093940212</DistanceMeters>
          </Trackpoint>
          <Trackpoint>
            <Time>2018-04-21T13:40:50.000Z</Time>
            <Position>
              <LatitudeDegrees>43.28447428531944751739501953125</LatitudeDegrees>
              <LongitudeDegrees>-8.23091198690235614776611328125</LongitudeDegrees>
            </Position>
            <AltitudeMeters>77.40000152587890625</AltitudeMeters>
            <DistanceMeters>74854.582238035</DistanceMeters>
          </Trackpoint>
          <Trackpoint>
            <Time>2018-04-21T13:40:52.000Z</Time>
            <Position>
              <LatitudeDegrees>43.2843114249408245086669921875</LatitudeDegrees>
              <LongitudeDegrees>-8.23092506267130374908447265625</LongitudeDegrees>
            </Position>
            <AltitudeMeters>76.59999847412109375</AltitudeMeters>
            <DistanceMeters>74872.740050434</DistanceMeters>
          </Trackpoint>
          <Trackpoint>
            <Time>2018-04-21T13:40:53.000Z</Time>
            <Position>
              <LatitudeDegrees>43.2842552661895751953125</LatitudeDegrees>
              <LongitudeDegrees>-8.23092363774776458740234375</LongitudeDegrees>
            </Position>
            <AltitudeMeters>75.59999847412109375</AltitudeMeters>
            <DistanceMeters>74878.991623904</DistanceMeters>
          </Trackpoint>
          <Trackpoint>
            <Time>2018-04-21T13:40:54.000Z</Time>
            <Position>
              <LatitudeDegrees>43.284212686121463775634765625</LatitudeDegrees>
              <LongitudeDegrees>-8.23093830607831478118896484375</LongitudeDegrees>
            </Position>
            <AltitudeMeters>74.8000030517578125</AltitudeMeters>
            <DistanceMeters>74883.877882403</DistanceMeters>
          </Trackpoint>
          <Trackpoint>
            <Time>2018-04-21T13:40:55.000Z</Time>
            <Position>
              <LatitudeDegrees>43.28417505137622356414794921875</LatitudeDegrees>
              <LongitudeDegrees>-8.23096328414976596832275390625</LongitudeDegrees>
            </Position>
            <AltitudeMeters>74.40000152587890625</AltitudeMeters>
            <DistanceMeters>74888.530311149</DistanceMeters>
          </Trackpoint>
          <Trackpoint>
            <Time>2018-04-21T13:40:56.000Z</Time>
            <Position>
              <LatitudeDegrees>43.2841464690864086151123046875</LatitudeDegrees>
              <LongitudeDegrees>-8.23099647648632526397705078125</LongitudeDegrees>
            </Position>
            <AltitudeMeters>74</AltitudeMeters>
            <DistanceMeters>74892.695257349</DistanceMeters>
          </Trackpoint>
          <Trackpoint>
            <Time>2018-04-21T13:40:58.000Z</Time>
            <Position>
              <LatitudeDegrees>43.2841434516012668609619140625</LatitudeDegrees>
              <LongitudeDegrees>-8.23109035380184650421142578125</LongitudeDegrees>
            </Position>
            <AltitudeMeters>73.59999847412109375</AltitudeMeters>
            <DistanceMeters>74900.308670558</DistanceMeters>
          </Trackpoint>
          <Trackpoint>
            <Time>2018-04-21T13:40:59.000Z</Time>
            <Position>
              <LatitudeDegrees>43.284148983657360076904296875</LatitudeDegrees>
              <LongitudeDegrees>-8.2311400584876537322998046875</LongitudeDegrees>
            </Position>
            <AltitudeMeters>73.1999969482421875</AltitudeMeters>
            <DistanceMeters>74904.382646565</DistanceMeters>
          </Trackpoint>
          <Trackpoint>
            <Time>2018-04-21T13:41:01.000Z</Time>
            <Position>
              <LatitudeDegrees>43.28420069999992847442626953125</LatitudeDegrees>
              <LongitudeDegrees>-8.2312072813510894775390625</LongitudeDegrees>
            </Position>
            <AltitudeMeters>71.59999847412109375</AltitudeMeters>
            <DistanceMeters>74912.306985755</DistanceMeters>
          </Trackpoint>
          <Trackpoint>
            <Time>2018-04-21T13:41:02.000Z</Time>
            <Position>
              <LatitudeDegrees>43.284232132136821746826171875</LatitudeDegrees>
              <LongitudeDegrees>-8.23121868073940277099609375</LongitudeDegrees>
            </Position>
            <AltitudeMeters>71</AltitudeMeters>
            <DistanceMeters>74915.925495233</DistanceMeters>
          </Trackpoint>
          <Trackpoint>
            <Time>2018-04-21T13:41:03.000Z</Time>
            <Position>
              <LatitudeDegrees>43.28427068889141082763671875</LatitudeDegrees>
              <LongitudeDegrees>-8.23123209178447723388671875</LongitudeDegrees>
            </Position>
            <AltitudeMeters>70.59999847412109375</AltitudeMeters>
            <DistanceMeters>74920.35316911</DistanceMeters>
          </Trackpoint>
          <Trackpoint>
            <Time>2018-04-21T13:41:04.000Z</Time>
            <Position>
              <LatitudeDegrees>43.2842983491718769073486328125</LatitudeDegrees>
              <LongitudeDegrees>-8.23126318864524364471435546875</LongitudeDegrees>
            </Position>
            <AltitudeMeters>70.1999969482421875</AltitudeMeters>
            <DistanceMeters>74924.330692702</DistanceMeters>
          </Trackpoint>
          <Trackpoint>
            <Time>2018-04-21T13:41:05.000Z</Time>
            <Position>
              <LatitudeDegrees>43.284298516809940338134765625</LatitudeDegrees>
              <LongitudeDegrees>-8.231314234435558319091796875</LongitudeDegrees>
            </Position>
            <AltitudeMeters>69.1999969482421875</AltitudeMeters>
            <DistanceMeters>74928.467357405</DistanceMeters>
          </Trackpoint>
          <Trackpoint>
            <Time>2018-04-21T13:41:06.000Z</Time>
            <Position>
              <LatitudeDegrees>43.28429256565868854522705078125</LatitudeDegrees>
              <LongitudeDegrees>-8.23136460967361927032470703125</LongitudeDegrees>
            </Position>
            <AltitudeMeters>68.8000030517578125</AltitudeMeters>
            <DistanceMeters>74932.602930495</DistanceMeters>
          </Trackpoint>
          <Trackpoint>
            <Time>2018-04-21T13:41:07.000Z</Time>
            <Position>
              <LatitudeDegrees>43.2842755503952503204345703125</LatitudeDegrees>
              <LongitudeDegrees>-8.23141121305525302886962890625</LongitudeDegrees>
            </Position>
            <AltitudeMeters>68</AltitudeMeters>
            <DistanceMeters>74936.827079055</DistanceMeters>
          </Trackpoint>
          <Trackpoint>
            <Time>2018-04-21T13:41:09.000Z</Time>
            <Position>
              <LatitudeDegrees>43.2842215709388256072998046875</LatitudeDegrees>
              <LongitudeDegrees>-8.2315118797123432159423828125</LongitudeDegrees>
            </Position>
            <AltitudeMeters>65.8000030517578125</AltitudeMeters>
            <DistanceMeters>74946.95712292</DistanceMeters>
          </Trackpoint>
          <Trackpoint>
            <Time>2018-04-21T13:41:10.000Z</Time>
            <Position>
              <LatitudeDegrees>43.284205980598926544189453125</LatitudeDegrees>
              <LongitudeDegrees>-8.23156929574906826019287109375</LongitudeDegrees>
            </Position>
            <AltitudeMeters>64.59999847412109375</AltitudeMeters>
            <DistanceMeters>74951.922211911</DistanceMeters>
          </Trackpoint>
          <Trackpoint>
            <Time>2018-04-21T13:41:12.000Z</Time>
            <Position>
              <LatitudeDegrees>43.28421729616820812225341796875</LatitudeDegrees>
              <LongitudeDegrees>-8.2316657714545726776123046875</LongitudeDegrees>
            </Position>
            <AltitudeMeters>62.40000152587890625</AltitudeMeters>
            <DistanceMeters>74959.839710928</DistanceMeters>
          </Trackpoint>
          <Trackpoint>
            <Time>2018-04-21T13:41:13.000Z</Time>
            <Position>
              <LatitudeDegrees>43.28424277715384960174560546875</LatitudeDegrees>
              <LongitudeDegrees>-8.23170172981917858123779296875</LongitudeDegrees>
            </Position>
            <AltitudeMeters>61.59999847412109375</AltitudeMeters>
            <DistanceMeters>74963.904811159</DistanceMeters>
          </Trackpoint>
          <Trackpoint>
            <Time>2018-04-21T13:41:14.000Z</Time>
            <Position>
              <LatitudeDegrees>43.28427278436720371246337890625</LatitudeDegrees>
              <LongitudeDegrees>-8.23172301985323429107666015625</LongitudeDegrees>
            </Position>
            <AltitudeMeters>60.40000152587890625</AltitudeMeters>
            <DistanceMeters>74967.664075666</DistanceMeters>
          </Trackpoint>
          <Trackpoint>
            <Time>2018-04-21T13:41:16.000Z</Time>
            <Position>
              <LatitudeDegrees>43.2843469642102718353271484375</LatitudeDegrees>
              <LongitudeDegrees>-8.2317552901804447174072265625</LongitudeDegrees>
            </Position>
            <AltitudeMeters>59.40000152587890625</AltitudeMeters>
            <DistanceMeters>74976.324028603</DistanceMeters>
          </Trackpoint>
          <Trackpoint>
            <Time>2018-04-21T13:41:17.000Z</Time>
            <Position>
              <LatitudeDegrees>43.2844073139131069183349609375</LatitudeDegrees>
              <LongitudeDegrees>-8.23177632875740528106689453125</LongitudeDegrees>
            </Position>
            <AltitudeMeters>59</AltitudeMeters>
            <DistanceMeters>74983.253815507</DistanceMeters>
          </Trackpoint>
          <Trackpoint>
            <Time>2018-04-21T13:41:18.000Z</Time>
            <Position>
              <LatitudeDegrees>43.28448350541293621063232421875</LatitudeDegrees>
              <LongitudeDegrees>-8.23182024993002414703369140625</LongitudeDegrees>
            </Position>
            <AltitudeMeters>58.59999847412109375</AltitudeMeters>
            <DistanceMeters>74992.450320059</DistanceMeters>
          </Trackpoint>
          <Trackpoint>
            <Time>2018-04-21T13:41:20.000Z</Time>
            <Position>
              <LatitudeDegrees>43.28456573188304901123046875</LatitudeDegrees>
              <LongitudeDegrees>-8.2319665141403675079345703125</LongitudeDegrees>
            </Position>
            <AltitudeMeters>57.799999237060546875</AltitudeMeters>
            <DistanceMeters>75007.423587503</DistanceMeters>
          </Trackpoint>
          <Trackpoint>
            <Time>2018-04-21T13:41:23.000Z</Time>
            <Position>
              <LatitudeDegrees>43.2845384068787097930908203125</LatitudeDegrees>
              <LongitudeDegrees>-8.232316039502620697021484375</LongitudeDegrees>
            </Position>
            <AltitudeMeters>57.200000762939453125</AltitudeMeters>
            <DistanceMeters>75035.905933045</DistanceMeters>
          </Trackpoint>
          <Trackpoint>
            <Time>2018-04-21T13:41:24.000Z</Time>
            <Position>
              <LatitudeDegrees>43.28451300971210002899169921875</LatitudeDegrees>
              <LongitudeDegrees>-8.23241502977907657623291015625</LongitudeDegrees>
            </Position>
            <AltitudeMeters>57</AltitudeMeters>
            <DistanceMeters>75044.41016036</DistanceMeters>
          </Trackpoint>
          <Trackpoint>
            <Time>2018-04-21T13:41:25.000Z</Time>
            <Position>
              <LatitudeDegrees>43.28448886983096599578857421875</LatitudeDegrees>
              <LongitudeDegrees>-8.23251376859843730926513671875</LongitudeDegrees>
            </Position>
            <AltitudeMeters>56.59999847412109375</AltitudeMeters>
            <DistanceMeters>75052.84990224</DistanceMeters>
          </Trackpoint>
          <Trackpoint>
            <Time>2018-04-21T13:41:29.000Z</Time>
            <Position>
              <LatitudeDegrees>43.28438962809741497039794921875</LatitudeDegrees>
              <LongitudeDegrees>-8.23289908468723297119140625</LongitudeDegrees>
            </Position>
            <AltitudeMeters>56.799999237060546875</AltitudeMeters>
            <DistanceMeters>75085.965860082</DistanceMeters>
          </Trackpoint>
          <Trackpoint>
            <Time>2018-04-21T13:41:30.000Z</Time>
            <Position>
              <LatitudeDegrees>43.284378983080387115478515625</LatitudeDegrees>
              <LongitudeDegrees>-8.2329901121556758880615234375</LongitudeDegrees>
            </Position>
            <AltitudeMeters>56.40000152587890625</AltitudeMeters>
            <DistanceMeters>75093.436192901</DistanceMeters>
          </Trackpoint>
          <Trackpoint>
            <Time>2018-04-21T13:41:31.000Z</Time>
            <Position>
              <LatitudeDegrees>43.28439197503030300140380859375</LatitudeDegrees>
              <LongitudeDegrees>-8.23306362144649028778076171875</LongitudeDegrees>
            </Position>
            <AltitudeMeters>55.59999847412109375</AltitudeMeters>
            <DistanceMeters>75099.565231815</DistanceMeters>
          </Trackpoint>
          <Trackpoint>
            <Time>2018-04-21T13:41:32.000Z</Time>
            <Position>
              <LatitudeDegrees>43.28441812656819820404052734375</LatitudeDegrees>
              <LongitudeDegrees>-8.2331372983753681182861328125</LongitudeDegrees>
            </Position>
            <AltitudeMeters>55.200000762939453125</AltitudeMeters>
            <DistanceMeters>75106.206232745</DistanceMeters>
          </Trackpoint>
          <Trackpoint>
            <Time>2018-04-21T13:41:34.000Z</Time>
            <Position>
              <LatitudeDegrees>43.28448400832712650299072265625</LatitudeDegrees>
              <LongitudeDegrees>-8.23325850069522857666015625</LongitudeDegrees>
            </Position>
            <AltitudeMeters>55.200000762939453125</AltitudeMeters>
            <DistanceMeters>75118.462100383</DistanceMeters>
          </Trackpoint>
          <Trackpoint>
            <Time>2018-04-21T13:41:36.000Z</Time>
            <Position>
              <LatitudeDegrees>43.2845622114837169647216796875</LatitudeDegrees>
              <LongitudeDegrees>-8.23337291367352008819580078125</LongitudeDegrees>
            </Position>
            <AltitudeMeters>54.799999237060546875</AltitudeMeters>
            <DistanceMeters>75131.177938885</DistanceMeters>
          </Trackpoint>
          <Trackpoint>
            <Time>2018-04-21T13:41:37.000Z</Time>
            <Position>
              <LatitudeDegrees>43.2846052944660186767578125</LatitudeDegrees>
              <LongitudeDegrees>-8.23341700248420238494873046875</LongitudeDegrees>
            </Position>
            <AltitudeMeters>54.40000152587890625</AltitudeMeters>
            <DistanceMeters>75137.157830415</DistanceMeters>
          </Trackpoint>
          <Trackpoint>
            <Time>2018-04-21T13:41:39.000Z</Time>
            <Position>
              <LatitudeDegrees>43.2847026921808719635009765625</LatitudeDegrees>
              <LongitudeDegrees>-8.2334537990391254425048828125</LongitudeDegrees>
            </Position>
            <AltitudeMeters>53.59999847412109375</AltitudeMeters>
            <DistanceMeters>75148.400739739</DistanceMeters>
          </Trackpoint>
          <Trackpoint>
            <Time>2018-04-21T13:41:41.000Z</Time>
            <Position>
              <LatitudeDegrees>43.28478223644196987152099609375</LatitudeDegrees>
              <LongitudeDegrees>-8.2335185073316097259521484375</LongitudeDegrees>
            </Position>
            <AltitudeMeters>54</AltitudeMeters>
            <DistanceMeters>75158.689987342</DistanceMeters>
          </Trackpoint>
          <Trackpoint>
            <Time>2018-04-21T13:41:44.000Z</Time>
            <Position>
              <LatitudeDegrees>43.28490612097084522247314453125</LatitudeDegrees>
              <LongitudeDegrees>-8.23362856172025203704833984375</LongitudeDegrees>
            </Position>
            <AltitudeMeters>54.200000762939453125</AltitudeMeters>
            <DistanceMeters>75175.110372616</DistanceMeters>
          </Trackpoint>
          <Trackpoint>
            <Time>2018-04-21T13:41:48.000Z</Time>
            <Position>
              <LatitudeDegrees>43.28505179844796657562255859375</LatitudeDegrees>
              <LongitudeDegrees>-8.23376275599002838134765625</LongitudeDegrees>
            </Position>
            <AltitudeMeters>54</AltitudeMeters>
            <DistanceMeters>75194.632754806</DistanceMeters>
          </Trackpoint>
          <Trackpoint>
            <Time>2018-04-21T13:41:50.000Z</Time>
            <Position>
              <LatitudeDegrees>43.28511281870305538177490234375</LatitudeDegrees>
              <LongitudeDegrees>-8.23381095193326473236083984375</LongitudeDegrees>
            </Position>
            <AltitudeMeters>54</AltitudeMeters>
            <DistanceMeters>75202.467705965</DistanceMeters>
          </Trackpoint>
          <Trackpoint>
            <Time>2018-04-21T13:41:57.000Z</Time>
            <Position>
              <LatitudeDegrees>43.28531784005463123321533203125</LatitudeDegrees>
              <LongitudeDegrees>-8.23394137434661388397216796875</LongitudeDegrees>
            </Position>
            <AltitudeMeters>54.40000152587890625</AltitudeMeters>
            <DistanceMeters>75227.615157397</DistanceMeters>
          </Trackpoint>
          <Trackpoint>
            <Time>2018-04-21T13:42:02.000Z</Time>
            <Position>
              <LatitudeDegrees>43.28544340096414089202880859375</LatitudeDegrees>
              <LongitudeDegrees>-8.2340613193809986114501953125</LongitudeDegrees>
            </Position>
            <AltitudeMeters>54.59999847412109375</AltitudeMeters>
            <DistanceMeters>75244.637410272</DistanceMeters>
          </Trackpoint>
          <Trackpoint>
            <Time>2018-04-21T13:42:03.000Z</Time>
            <Position>
              <LatitudeDegrees>43.28547474928200244903564453125</LatitudeDegrees>
              <LongitudeDegrees>-8.23408520780503749847412109375</LongitudeDegrees>
            </Position>
            <AltitudeMeters>54.799999237060546875</AltitudeMeters>
            <DistanceMeters>75248.627400845</DistanceMeters>
          </Trackpoint>
          <Trackpoint>
            <Time>2018-04-21T13:42:07.000Z</Time>
            <Position>
              <LatitudeDegrees>43.28558488748967647552490234375</LatitudeDegrees>
              <LongitudeDegrees>-8.23417724110186100006103515625</LongitudeDegrees>
            </Position>
            <AltitudeMeters>54.40000152587890625</AltitudeMeters>
            <DistanceMeters>75262.975805385</DistanceMeters>
          </Trackpoint>
          <Trackpoint>
            <Time>2018-04-21T13:42:08.000Z</Time>
            <Position>
              <LatitudeDegrees>43.28560969792306423187255859375</LatitudeDegrees>
              <LongitudeDegrees>-8.23419920168817043304443359375</LongitudeDegrees>
            </Position>
            <AltitudeMeters>54.200000762939453125</AltitudeMeters>
            <DistanceMeters>75266.262136383</DistanceMeters>
          </Trackpoint>
          <Trackpoint>
            <Time>2018-04-21T13:42:14.000Z</Time>
            <Position>
              <LatitudeDegrees>43.285736180841922760009765625</LatitudeDegrees>
              <LongitudeDegrees>-8.2342618145048618316650390625</LongitudeDegrees>
            </Position>
            <AltitudeMeters>54</AltitudeMeters>
            <DistanceMeters>75281.226354894</DistanceMeters>
          </Trackpoint>
          <Trackpoint>
            <Time>2018-04-21T13:42:20.000Z</Time>
            <Position>
              <LatitudeDegrees>43.28586903400719165802001953125</LatitudeDegrees>
              <LongitudeDegrees>-8.23430062271654605865478515625</LongitudeDegrees>
            </Position>
            <AltitudeMeters>54</AltitudeMeters>
            <DistanceMeters>75296.344265954</DistanceMeters>
          </Trackpoint>
          <Trackpoint>
            <Time>2018-04-21T13:42:26.000Z</Time>
            <Position>
              <LatitudeDegrees>43.2860451377928256988525390625</LatitudeDegrees>
              <LongitudeDegrees>-8.23433297686278820037841796875</LongitudeDegrees>
            </Position>
            <AltitudeMeters>54.200000762939453125</AltitudeMeters>
            <DistanceMeters>75316.119414258</DistanceMeters>
          </Trackpoint>
          <Trackpoint>
            <Time>2018-04-21T13:42:30.000Z</Time>
            <Position>
              <LatitudeDegrees>43.28619224019348621368408203125</LatitudeDegrees>
              <LongitudeDegrees>-8.2343563623726367950439453125</LongitudeDegrees>
            </Position>
            <AltitudeMeters>54.200000762939453125</AltitudeMeters>
            <DistanceMeters>75332.601002762</DistanceMeters>
          </Trackpoint>
          <Trackpoint>
            <Time>2018-04-21T13:42:32.000Z</Time>
            <Position>
              <LatitudeDegrees>43.286275975406169891357421875</LatitudeDegrees>
              <LongitudeDegrees>-8.2343657501041889190673828125</LongitudeDegrees>
            </Position>
            <AltitudeMeters>54.59999847412109375</AltitudeMeters>
            <DistanceMeters>75341.951361051</DistanceMeters>
          </Trackpoint>
          <Trackpoint>
            <Time>2018-04-21T13:42:35.000Z</Time>
            <Position>
              <LatitudeDegrees>43.28639776445925235748291015625</LatitudeDegrees>
              <LongitudeDegrees>-8.23438427411019802093505859375</LongitudeDegrees>
            </Position>
            <AltitudeMeters>55</AltitudeMeters>
            <DistanceMeters>75355.589598275</DistanceMeters>
          </Trackpoint>
          <Trackpoint>
            <Time>2018-04-21T13:42:39.000Z</Time>
            <Position>
              <LatitudeDegrees>43.28657646663486957550048828125</LatitudeDegrees>
              <LongitudeDegrees>-8.2344044744968414306640625</LongitudeDegrees>
            </Position>
            <AltitudeMeters>54.799999237060546875</AltitudeMeters>
            <DistanceMeters>75375.546792008</DistanceMeters>
          </Trackpoint>
          <Trackpoint>
            <Time>2018-04-21T13:42:40.000Z</Time>
            <Position>
              <LatitudeDegrees>43.286624662578105926513671875</LatitudeDegrees>
              <LongitudeDegrees>-8.23440640233457088470458984375</LongitudeDegrees>
            </Position>
            <AltitudeMeters>55</AltitudeMeters>
            <DistanceMeters>75380.913908912</DistanceMeters>
          </Trackpoint>
          <Trackpoint>
            <Time>2018-04-21T13:42:47.000Z</Time>
            <Position>
              <LatitudeDegrees>43.2870046980679035186767578125</LatitudeDegrees>
              <LongitudeDegrees>-8.234348483383655548095703125</LongitudeDegrees>
            </Position>
            <AltitudeMeters>54.799999237060546875</AltitudeMeters>
            <DistanceMeters>75423.472087358</DistanceMeters>
          </Trackpoint>
          <Trackpoint>
            <Time>2018-04-21T13:42:53.000Z</Time>
            <Position>
              <LatitudeDegrees>43.2873255573213100433349609375</LatitudeDegrees>
              <LongitudeDegrees>-8.2342681847512722015380859375</LongitudeDegrees>
            </Position>
            <AltitudeMeters>53.59999847412109375</AltitudeMeters>
            <DistanceMeters>75459.772167867</DistanceMeters>
          </Trackpoint>
          <Trackpoint>
            <Time>2018-04-21T13:42:57.000Z</Time>
            <Position>
              <LatitudeDegrees>43.287580870091915130615234375</LatitudeDegrees>
              <LongitudeDegrees>-8.23420590721070766448974609375</LongitudeDegrees>
            </Position>
            <AltitudeMeters>53.200000762939453125</AltitudeMeters>
            <DistanceMeters>75488.633393958</DistanceMeters>
          </Trackpoint>
          <Trackpoint>
            <Time>2018-04-21T13:42:58.000Z</Time>
            <Position>
              <LatitudeDegrees>43.28764834441244602203369140625</LatitudeDegrees>
              <LongitudeDegrees>-8.2341810129582881927490234375</LongitudeDegrees>
            </Position>
            <AltitudeMeters>52.799999237060546875</AltitudeMeters>
            <DistanceMeters>75496.409343538</DistanceMeters>
          </Trackpoint>
          <Trackpoint>
            <Time>2018-04-21T13:43:00.000Z</Time>
            <Position>
              <LatitudeDegrees>43.28777960501611232757568359375</LatitudeDegrees>
              <LongitudeDegrees>-8.234111778438091278076171875</LongitudeDegrees>
            </Position>
            <AltitudeMeters>51.799999237060546875</AltitudeMeters>
            <DistanceMeters>75512.058774941</DistanceMeters>
          </Trackpoint>
          <Trackpoint>
            <Time>2018-04-21T13:43:01.000Z</Time>
            <Position>
              <LatitudeDegrees>43.287849090993404388427734375</LatitudeDegrees>
              <LongitudeDegrees>-8.23406760580837726593017578125</LongitudeDegrees>
            </Position>
            <AltitudeMeters>50.59999847412109375</AltitudeMeters>
            <DistanceMeters>75520.580504505</DistanceMeters>
          </Trackpoint>
          <Trackpoint>
            <Time>2018-04-21T13:43:03.000Z</Time>
            <Position>
              <LatitudeDegrees>43.28798529691994190216064453125</LatitudeDegrees>
              <LongitudeDegrees>-8.233976326882839202880859375</LongitudeDegrees>
            </Position>
            <AltitudeMeters>49.40000152587890625</AltitudeMeters>
            <DistanceMeters>75537.447679386</DistanceMeters>
          </Trackpoint>
          <Trackpoint>
            <Time>2018-04-21T13:43:06.000Z</Time>
            <Position>
              <LatitudeDegrees>43.28818160109221935272216796875</LatitudeDegrees>
              <LongitudeDegrees>-8.23380240239202976226806640625</LongitudeDegrees>
            </Position>
            <AltitudeMeters>48.200000762939453125</AltitudeMeters>
            <DistanceMeters>75563.446648062</DistanceMeters>
          </Trackpoint>
          <Trackpoint>
            <Time>2018-04-21T13:43:08.000Z</Time>
            <Position>
              <LatitudeDegrees>43.28829945065081119537353515625</LatitudeDegrees>
              <LongitudeDegrees>-8.23370416648685932159423828125</LongitudeDegrees>
            </Position>
            <AltitudeMeters>47.59999847412109375</AltitudeMeters>
            <DistanceMeters>75578.789269505</DistanceMeters>
          </Trackpoint>
          <Trackpoint>
            <Time>2018-04-21T13:43:09.000Z</Time>
            <Position>
              <LatitudeDegrees>43.28834957443177700042724609375</LatitudeDegrees>
              <LongitudeDegrees>-8.23365991003811359405517578125</LongitudeDegrees>
            </Position>
            <AltitudeMeters>47.200000762939453125</AltitudeMeters>
            <DistanceMeters>75585.42074538</DistanceMeters>
          </Trackpoint>
          <Trackpoint>
            <Time>2018-04-21T13:43:11.000Z</Time>
            <Position>
              <LatitudeDegrees>43.28842216171324253082275390625</LatitudeDegrees>
              <LongitudeDegrees>-8.23357558809220790863037109375</LongitudeDegrees>
            </Position>
            <AltitudeMeters>46.59999847412109375</AltitudeMeters>
            <DistanceMeters>75596.000765588</DistanceMeters>
          </Trackpoint>
          <Trackpoint>
            <Time>2018-04-21T13:43:12.000Z</Time>
            <Position>
              <LatitudeDegrees>43.2884354889392852783203125</LatitudeDegrees>
              <LongitudeDegrees>-8.2335354387760162353515625</LongitudeDegrees>
            </Position>
            <AltitudeMeters>46.40000152587890625</AltitudeMeters>
            <DistanceMeters>75599.577861941</DistanceMeters>
          </Trackpoint>
          <Trackpoint>
            <Time>2018-04-21T13:43:16.000Z</Time>
            <Position>
              <LatitudeDegrees>43.28845635987818241119384765625</LatitudeDegrees>
              <LongitudeDegrees>-8.23339437134563922882080078125</LongitudeDegrees>
            </Position>
            <AltitudeMeters>46.59999847412109375</AltitudeMeters>
            <DistanceMeters>75611.240237831</DistanceMeters>
          </Trackpoint>
          <Trackpoint>
            <Time>2018-04-21T13:43:21.000Z</Time>
            <Position>
              <LatitudeDegrees>43.28846222721040248870849609375</LatitudeDegrees>
              <LongitudeDegrees>-8.23322497308254241943359375</LongitudeDegrees>
            </Position>
            <AltitudeMeters>47.799999237060546875</AltitudeMeters>
            <DistanceMeters>75624.980062362</DistanceMeters>
          </Trackpoint>
          <Trackpoint>
            <Time>2018-04-21T13:43:22.000Z</Time>
            <Position>
              <LatitudeDegrees>43.28846340067684650421142578125</LatitudeDegrees>
              <LongitudeDegrees>-8.233187757432460784912109375</LongitudeDegrees>
            </Position>
            <AltitudeMeters>47.799999237060546875</AltitudeMeters>
            <DistanceMeters>75627.99856317</DistanceMeters>
          </Trackpoint>
          <Trackpoint>
            <Time>2018-04-21T13:43:25.000Z</Time>
            <Position>
              <LatitudeDegrees>43.288471363484859466552734375</LatitudeDegrees>
              <LongitudeDegrees>-8.23307837359607219696044921875</LongitudeDegrees>
            </Position>
            <AltitudeMeters>48.200000762939453125</AltitudeMeters>
            <DistanceMeters>75636.904751552</DistanceMeters>
          </Trackpoint>
          <Trackpoint>
            <Time>2018-04-21T13:43:27.000Z</Time>
            <Position>
              <LatitudeDegrees>43.28848049975931644439697265625</LatitudeDegrees>
              <LongitudeDegrees>-8.23299908079206943511962890625</LongitudeDegrees>
            </Position>
            <AltitudeMeters>48.59999847412109375</AltitudeMeters>
            <DistanceMeters>75643.408356557</DistanceMeters>
          </Trackpoint>
          <Trackpoint>
            <Time>2018-04-21T13:43:29.000Z</Time>
            <Position>
              <LatitudeDegrees>43.28848636709153652191162109375</LatitudeDegrees>
              <LongitudeDegrees>-8.23291962035000324249267578125</LongitudeDegrees>
            </Position>
            <AltitudeMeters>49.200000762939453125</AltitudeMeters>
            <DistanceMeters>75649.878552411</DistanceMeters>
          </Trackpoint>
          <Trackpoint>
            <Time>2018-04-21T13:43:30.000Z</Time>
            <Position>
              <LatitudeDegrees>43.28848402015864849090576171875</LatitudeDegrees>
              <LongitudeDegrees>-8.23287569917738437652587890625</LongitudeDegrees>
            </Position>
            <AltitudeMeters>49.59999847412109375</AltitudeMeters>
            <DistanceMeters>75653.445536811</DistanceMeters>
          </Trackpoint>
          <Trackpoint>
            <Time>2018-04-21T13:43:32.000Z</Time>
            <Position>
              <LatitudeDegrees>43.28850648365914821624755859375</LatitudeDegrees>
              <LongitudeDegrees>-8.2328030280768871307373046875</LongitudeDegrees>
            </Position>
            <AltitudeMeters>49.799999237060546875</AltitudeMeters>
            <DistanceMeters>75659.841335924</DistanceMeters>
          </Trackpoint>
          <Trackpoint>
            <Time>2018-04-21T13:43:34.000Z</Time>
            <Position>
              <LatitudeDegrees>43.2885536737740039825439453125</LatitudeDegrees>
              <LongitudeDegrees>-8.23274561204016208648681640625</LongitudeDegrees>
            </Position>
            <AltitudeMeters>50.200000762939453125</AltitudeMeters>
            <DistanceMeters>75666.857886128</DistanceMeters>
          </Trackpoint>
          <Trackpoint>
            <Time>2018-04-21T13:43:38.000Z</Time>
            <Position>
              <LatitudeDegrees>43.288652412593364715576171875</LatitudeDegrees>
              <LongitudeDegrees>-8.23277092538774013519287109375</LongitudeDegrees>
            </Position>
            <AltitudeMeters>50.200000762939453125</AltitudeMeters>
            <DistanceMeters>75678.03716419</DistanceMeters>
          </Trackpoint>
          <Trackpoint>
            <Time>2018-04-21T13:43:39.000Z</Time>
            <Position>
              <LatitudeDegrees>43.28868786804378032684326171875</LatitudeDegrees>
              <LongitudeDegrees>-8.23278970085084438323974609375</LongitudeDegrees>
            </Position>
            <AltitudeMeters>50.40000152587890625</AltitudeMeters>
            <DistanceMeters>75682.265586042</DistanceMeters>
          </Trackpoint>
          <Trackpoint>
            <Time>2018-04-21T13:43:40.000Z</Time>
            <Position>
              <LatitudeDegrees>43.28872717916965484619140625</LatitudeDegrees>
              <LongitudeDegrees>-8.2328043691813945770263671875</LongitudeDegrees>
            </Position>
            <AltitudeMeters>50.59999847412109375</AltitudeMeters>
            <DistanceMeters>75686.799067485</DistanceMeters>
          </Trackpoint>
          <Trackpoint>
            <Time>2018-04-21T13:43:43.000Z</Time>
            <Position>
              <LatitudeDegrees>43.2888490520417690277099609375</LatitudeDegrees>
              <LongitudeDegrees>-8.2328690774738788604736328125</LongitudeDegrees>
            </Position>
            <AltitudeMeters>50.59999847412109375</AltitudeMeters>
            <DistanceMeters>75701.3412599</DistanceMeters>
          </Trackpoint>
          <Trackpoint>
            <Time>2018-04-21T13:43:49.000Z</Time>
            <Position>
              <LatitudeDegrees>43.289080560207366943359375</LatitudeDegrees>
              <LongitudeDegrees>-8.2330025173723697662353515625</LongitudeDegrees>
            </Position>
            <AltitudeMeters>50.40000152587890625</AltitudeMeters>
            <DistanceMeters>75729.284608126</DistanceMeters>
          </Trackpoint>
          <Trackpoint>
            <Time>2018-04-21T13:43:56.000Z</Time>
            <Position>
              <LatitudeDegrees>43.289408795535564422607421875</LatitudeDegrees>
              <LongitudeDegrees>-8.233132101595401763916015625</LongitudeDegrees>
            </Position>
            <AltitudeMeters>50.200000762939453125</AltitudeMeters>
            <DistanceMeters>75767.29648169</DistanceMeters>
          </Trackpoint>
          <Trackpoint>
            <Time>2018-04-21T13:44:01.000Z</Time>
            <Position>
              <LatitudeDegrees>43.289667628705501556396484375</LatitudeDegrees>
              <LongitudeDegrees>-8.23314978741109371185302734375</LongitudeDegrees>
            </Position>
            <AltitudeMeters>49.59999847412109375</AltitudeMeters>
            <DistanceMeters>75796.140650826</DistanceMeters>
          </Trackpoint>
          <Trackpoint>
            <Time>2018-04-21T13:44:02.000Z</Time>
            <Position>
              <LatitudeDegrees>43.28972688876092433929443359375</LatitudeDegrees>
              <LongitudeDegrees>-8.23314718902111053466796875</LongitudeDegrees>
            </Position>
            <AltitudeMeters>49.59999847412109375</AltitudeMeters>
            <DistanceMeters>75802.73936499</DistanceMeters>
          </Trackpoint>
          <Trackpoint>
            <Time>2018-04-21T13:44:06.000Z</Time>
            <Position>
              <LatitudeDegrees>43.289963342249393463134765625</LatitudeDegrees>
              <LongitudeDegrees>-8.2331497035920619964599609375</LongitudeDegrees>
            </Position>
            <AltitudeMeters>49.200000762939453125</AltitudeMeters>
            <DistanceMeters>75829.057819422</DistanceMeters>
          </Trackpoint>
          <Trackpoint>
            <Time>2018-04-21T13:44:10.000Z</Time>
            <Position>
              <LatitudeDegrees>43.29018906690180301666259765625</LatitudeDegrees>
              <LongitudeDegrees>-8.2331493683159351348876953125</LongitudeDegrees>
            </Position>
            <AltitudeMeters>49.40000152587890625</AltitudeMeters>
            <DistanceMeters>75854.181560056</DistanceMeters>
          </Trackpoint>
          <Trackpoint>
            <Time>2018-04-21T13:44:15.000Z</Time>
            <Position>
              <LatitudeDegrees>43.290419988334178924560546875</LatitudeDegrees>
              <LongitudeDegrees>-8.233138136565685272216796875</LongitudeDegrees>
            </Position>
            <AltitudeMeters>49.799999237060546875</AltitudeMeters>
            <DistanceMeters>75879.899588348</DistanceMeters>
          </Trackpoint>
          <Trackpoint>
            <Time>2018-04-21T13:44:16.000Z</Time>
            <Position>
              <LatitudeDegrees>43.290471620857715606689453125</LatitudeDegrees>
              <LongitudeDegrees>-8.23314274661242961883544921875</LongitudeDegrees>
            </Position>
            <AltitudeMeters>49.59999847412109375</AltitudeMeters>
            <DistanceMeters>75885.657924974</DistanceMeters>
          </Trackpoint>
          <Trackpoint>
            <Time>2018-04-21T13:44:24.000Z</Time>
            <Position>
              <LatitudeDegrees>43.290868587791919708251953125</LatitudeDegrees>
              <LongitudeDegrees>-8.233232684433460235595703125</LongitudeDegrees>
            </Position>
            <AltitudeMeters>50</AltitudeMeters>
            <DistanceMeters>75930.437795846</DistanceMeters>
          </Trackpoint>
          <Trackpoint>
            <Time>2018-04-21T13:44:25.000Z</Time>
            <Position>
              <LatitudeDegrees>43.2909173704683780670166015625</LatitudeDegrees>
              <LongitudeDegrees>-8.2332439161837100982666015625</LongitudeDegrees>
            </Position>
            <AltitudeMeters>50.40000152587890625</AltitudeMeters>
            <DistanceMeters>75935.942787812</DistanceMeters>
          </Trackpoint>
          <Trackpoint>
            <Time>2018-04-21T13:44:31.000Z</Time>
            <Position>
              <LatitudeDegrees>43.29119271598756313323974609375</LatitudeDegrees>
              <LongitudeDegrees>-8.2333798706531524658203125</LongitudeDegrees>
            </Position>
            <AltitudeMeters>50.200000762939453125</AltitudeMeters>
            <DistanceMeters>75968.508263975</DistanceMeters>
          </Trackpoint>
          <Trackpoint>
            <Time>2018-04-21T13:44:33.000Z</Time>
            <Position>
              <LatitudeDegrees>43.2912786304950714111328125</LatitudeDegrees>
              <LongitudeDegrees>-8.2334360294044017791748046875</LongitudeDegrees>
            </Position>
            <AltitudeMeters>50.40000152587890625</AltitudeMeters>
            <DistanceMeters>75979.097668551</DistanceMeters>
          </Trackpoint>
          <Trackpoint>
            <Time>2018-04-21T13:44:36.000Z</Time>
            <Position>
              <LatitudeDegrees>43.29133671708405017852783203125</LatitudeDegrees>
              <LongitudeDegrees>-8.233616240322589874267578125</LongitudeDegrees>
            </Position>
            <AltitudeMeters>50</AltitudeMeters>
            <DistanceMeters>75995.064701721</DistanceMeters>
          </Trackpoint>
          <Trackpoint>
            <Time>2018-04-21T13:44:37.000Z</Time>
            <Position>
              <LatitudeDegrees>43.29134945757687091827392578125</LatitudeDegrees>
              <LongitudeDegrees>-8.23370106518268585205078125</LongitudeDegrees>
            </Position>
            <AltitudeMeters>49.799999237060546875</AltitudeMeters>
            <DistanceMeters>76002.08189538</DistanceMeters>
          </Trackpoint>
          <Trackpoint>
            <Time>2018-04-21T13:44:38.000Z</Time>
            <Position>
              <LatitudeDegrees>43.2913663052022457122802734375</LatitudeDegrees>
              <LongitudeDegrees>-8.23379133827984333038330078125</LongitudeDegrees>
            </Position>
            <AltitudeMeters>49</AltitudeMeters>
            <DistanceMeters>76009.631586931</DistanceMeters>
          </Trackpoint>
          <Trackpoint>
            <Time>2018-04-21T13:44:40.000Z</Time>
            <Position>
              <LatitudeDegrees>43.29141483642160892486572265625</LatitudeDegrees>
              <LongitudeDegrees>-8.233946152031421661376953125</LongitudeDegrees>
            </Position>
            <AltitudeMeters>47.799999237060546875</AltitudeMeters>
            <DistanceMeters>76023.287358921</DistanceMeters>
          </Trackpoint>
          <Trackpoint>
            <Time>2018-04-21T13:44:43.000Z</Time>
            <Position>
              <LatitudeDegrees>43.2915725000202655792236328125</LatitudeDegrees>
              <LongitudeDegrees>-8.2341337390244007110595703125</LongitudeDegrees>
            </Position>
            <AltitudeMeters>46.59999847412109375</AltitudeMeters>
            <DistanceMeters>76046.501511975</DistanceMeters>
          </Trackpoint>
          <Trackpoint>
            <Time>2018-04-21T13:44:45.000Z</Time>
            <Position>
              <LatitudeDegrees>43.29170451499521732330322265625</LatitudeDegrees>
              <LongitudeDegrees>-8.23422870598733425140380859375</LongitudeDegrees>
            </Position>
            <AltitudeMeters>46</AltitudeMeters>
            <DistanceMeters>76063.087417099</DistanceMeters>
          </Trackpoint>
          <Trackpoint>
            <Time>2018-04-21T13:44:47.000Z</Time>
            <Position>
              <LatitudeDegrees>43.29183720052242279052734375</LatitudeDegrees>
              <LongitudeDegrees>-8.2343228347599506378173828125</LongitudeDegrees>
            </Position>
            <AltitudeMeters>44.59999847412109375</AltitudeMeters>
            <DistanceMeters>76079.708401687</DistanceMeters>
          </Trackpoint>
          <Trackpoint>
            <Time>2018-04-21T13:44:49.000Z</Time>
            <Position>
              <LatitudeDegrees>43.29197759740054607391357421875</LatitudeDegrees>
              <LongitudeDegrees>-8.23441897518932819366455078125</LongitudeDegrees>
            </Position>
            <AltitudeMeters>44.59999847412109375</AltitudeMeters>
            <DistanceMeters>76097.168509955</DistanceMeters>
          </Trackpoint>
          <Trackpoint>
            <Time>2018-04-21T13:44:52.000Z</Time>
            <Position>
              <LatitudeDegrees>43.29218245111405849456787109375</LatitudeDegrees>
              <LongitudeDegrees>-8.2345551811158657073974609375</LongitudeDegrees>
            </Position>
            <AltitudeMeters>43.200000762939453125</AltitudeMeters>
            <DistanceMeters>76122.49914579</DistanceMeters>
          </Trackpoint>
          <Trackpoint>
            <Time>2018-04-21T13:44:56.000Z</Time>
            <Position>
              <LatitudeDegrees>43.29242921434342861175537109375</LatitudeDegrees>
              <LongitudeDegrees>-8.23472944088280200958251953125</LongitudeDegrees>
            </Position>
            <AltitudeMeters>42.200000762939453125</AltitudeMeters>
            <DistanceMeters>76153.380196339</DistanceMeters>
          </Trackpoint>
          <Trackpoint>
            <Time>2018-04-21T13:44:57.000Z</Time>
            <Position>
              <LatitudeDegrees>43.29249090515077114105224609375</LatitudeDegrees>
              <LongitudeDegrees>-8.23478425852954387664794921875</LongitudeDegrees>
            </Position>
            <AltitudeMeters>42</AltitudeMeters>
            <DistanceMeters>76161.558016718</DistanceMeters>
          </Trackpoint>
          <Trackpoint>
            <Time>2018-04-21T13:44:58.000Z</Time>
            <Position>
              <LatitudeDegrees>43.2925535179674625396728515625</LatitudeDegrees>
              <LongitudeDegrees>-8.23483471758663654327392578125</LongitudeDegrees>
            </Position>
            <AltitudeMeters>41</AltitudeMeters>
            <DistanceMeters>76169.638081859</DistanceMeters>
          </Trackpoint>
          <Trackpoint>
            <Time>2018-04-21T13:45:00.000Z</Time>
            <Position>
              <LatitudeDegrees>43.29268620349466800689697265625</LatitudeDegrees>
              <LongitudeDegrees>-8.234926164150238037109375</LongitudeDegrees>
            </Position>
            <AltitudeMeters>39.799999237060546875</AltitudeMeters>
            <DistanceMeters>76186.160164382</DistanceMeters>
          </Trackpoint>
          <Trackpoint>
            <Time>2018-04-21T13:45:01.000Z</Time>
            <Position>
              <LatitudeDegrees>43.29274537973105907440185546875</LatitudeDegrees>
              <LongitudeDegrees>-8.234938569366931915283203125</LongitudeDegrees>
            </Position>
            <AltitudeMeters>39.59999847412109375</AltitudeMeters>
            <DistanceMeters>76192.822885733</DistanceMeters>
          </Trackpoint>
          <Trackpoint>
            <Time>2018-04-21T13:45:02.000Z</Time>
            <Position>
              <LatitudeDegrees>43.29280472360551357269287109375</LatitudeDegrees>
              <LongitudeDegrees>-8.23493488132953643798828125</LongitudeDegrees>
            </Position>
            <AltitudeMeters>39.40000152587890625</AltitudeMeters>
            <DistanceMeters>76199.434587486</DistanceMeters>
          </Trackpoint>
          <Trackpoint>
            <Time>2018-04-21T13:45:04.000Z</Time>
            <Position>
              <LatitudeDegrees>43.2929025404155254364013671875</LatitudeDegrees>
              <LongitudeDegrees>-8.23493513278663158416748046875</LongitudeDegrees>
            </Position>
            <AltitudeMeters>38.40000152587890625</AltitudeMeters>
            <DistanceMeters>76210.322094706</DistanceMeters>
          </Trackpoint>
          <Trackpoint>
            <Time>2018-04-21T13:45:06.000Z</Time>
            <Position>
              <LatitudeDegrees>43.29297713935375213623046875</LatitudeDegrees>
              <LongitudeDegrees>-8.23493479751050472259521484375</LongitudeDegrees>
            </Position>
            <AltitudeMeters>38.200000762939453125</AltitudeMeters>
            <DistanceMeters>76218.624841455</DistanceMeters>
          </Trackpoint>
          <Trackpoint>
            <Time>2018-04-21T13:45:07.000Z</Time>
            <Position>
              <LatitudeDegrees>43.2930172048509120941162109375</LatitudeDegrees>
              <LongitudeDegrees>-8.23492457158863544464111328125</LongitudeDegrees>
            </Position>
            <AltitudeMeters>36</AltitudeMeters>
            <DistanceMeters>76223.160314323</DistanceMeters>
          </Trackpoint>
          <Trackpoint>
            <Time>2018-04-21T13:45:08.000Z</Time>
            <Position>
              <LatitudeDegrees>43.29305131919682025909423828125</LatitudeDegrees>
              <LongitudeDegrees>-8.2349122501909732818603515625</LongitudeDegrees>
            </Position>
            <AltitudeMeters>38</AltitudeMeters>
            <DistanceMeters>76227.087574255</DistanceMeters>
          </Trackpoint>
          <Trackpoint>
            <Time>2018-04-21T13:45:10.000Z</Time>
            <Position>
              <LatitudeDegrees>43.29312776215374469757080078125</LatitudeDegrees>
              <LongitudeDegrees>-8.2348616234958171844482421875</LongitudeDegrees>
            </Position>
            <AltitudeMeters>40.200000762939453125</AltitudeMeters>
            <DistanceMeters>76236.533057581</DistanceMeters>
          </Trackpoint>
          <Trackpoint>
            <Time>2018-04-21T13:45:11.000Z</Time>
            <Position>
              <LatitudeDegrees>43.293157853186130523681640625</LatitudeDegrees>
              <LongitudeDegrees>-8.2348314486443996429443359375</LongitudeDegrees>
            </Position>
            <AltitudeMeters>38.40000152587890625</AltitudeMeters>
            <DistanceMeters>76240.679533862</DistanceMeters>
          </Trackpoint>
          <Trackpoint>
            <Time>2018-04-21T13:45:12.000Z</Time>
            <Position>
              <LatitudeDegrees>43.29318207688629627227783203125</LatitudeDegrees>
              <LongitudeDegrees>-8.2348026148974895477294921875</LongitudeDegrees>
            </Position>
            <AltitudeMeters>38.59999847412109375</AltitudeMeters>
            <DistanceMeters>76244.245252251</DistanceMeters>
          </Trackpoint>
          <Trackpoint>
            <Time>2018-04-21T13:45:14.000Z</Time>
            <Position>
              <LatitudeDegrees>43.29324494116008281707763671875</LatitudeDegrees>
              <LongitudeDegrees>-8.234759867191314697265625</LongitudeDegrees>
            </Position>
            <AltitudeMeters>39.200000762939453125</AltitudeMeters>
            <DistanceMeters>76252.051336791</DistanceMeters>
          </Trackpoint>
          <Trackpoint>
            <Time>2018-04-21T13:45:17.000Z</Time>
            <Position>
              <LatitudeDegrees>43.2933303527534008026123046875</LatitudeDegrees>
              <LongitudeDegrees>-8.23471435345709323883056640625</LongitudeDegrees>
            </Position>
            <AltitudeMeters>39.799999237060546875</AltitudeMeters>
            <DistanceMeters>76262.248017632</DistanceMeters>
          </Trackpoint>
          <Trackpoint>
            <Time>2018-04-21T13:45:18.000Z</Time>
            <Position>
              <LatitudeDegrees>43.29335692338645458221435546875</LatitudeDegrees>
              <LongitudeDegrees>-8.23471033014357089996337890625</LongitudeDegrees>
            </Position>
            <AltitudeMeters>39.799999237060546875</AltitudeMeters>
            <DistanceMeters>76265.222824334</DistanceMeters>
          </Trackpoint>
          <Trackpoint>
            <Time>2018-04-21T13:45:21.000Z</Time>
            <Position>
              <LatitudeDegrees>43.29345524311065673828125</LatitudeDegrees>
              <LongitudeDegrees>-8.23471033014357089996337890625</LongitudeDegrees>
            </Position>
            <AltitudeMeters>40</AltitudeMeters>
            <DistanceMeters>76276.166172716</DistanceMeters>
          </Trackpoint>
          <Trackpoint>
            <Time>2018-04-21T13:45:24.000Z</Time>
            <Position>
              <LatitudeDegrees>43.29356529749929904937744140625</LatitudeDegrees>
              <LongitudeDegrees>-8.2347493059933185577392578125</LongitudeDegrees>
            </Position>
            <AltitudeMeters>40.200000762939453125</AltitudeMeters>
            <DistanceMeters>76288.815795421</DistanceMeters>
          </Trackpoint>
          <Trackpoint>
            <Time>2018-04-21T13:45:27.000Z</Time>
            <Position>
              <LatitudeDegrees>43.29369169659912586212158203125</LatitudeDegrees>
              <LongitudeDegrees>-8.23480571620166301727294921875</LongitudeDegrees>
            </Position>
            <AltitudeMeters>40.799999237060546875</AltitudeMeters>
            <DistanceMeters>76303.607642914</DistanceMeters>
          </Trackpoint>
          <Trackpoint>
            <Time>2018-04-21T13:45:28.000Z</Time>
            <Position>
              <LatitudeDegrees>43.293721117079257965087890625</LatitudeDegrees>
              <LongitudeDegrees>-8.23482432402670383453369140625</LongitudeDegrees>
            </Position>
            <AltitudeMeters>41</AltitudeMeters>
            <DistanceMeters>76307.213653185</DistanceMeters>
          </Trackpoint>
          <Trackpoint>
            <Time>2018-04-21T13:45:30.000Z</Time>
            <Position>
              <LatitudeDegrees>43.293780125677585601806640625</LatitudeDegrees>
              <LongitudeDegrees>-8.2348569296300411224365234375</LongitudeDegrees>
            </Position>
            <AltitudeMeters>41</AltitudeMeters>
            <DistanceMeters>76314.291708293</DistanceMeters>
          </Trackpoint>
          <Trackpoint>
            <Time>2018-04-21T13:45:33.000Z</Time>
            <Position>
              <LatitudeDegrees>43.29385061748325824737548828125</LatitudeDegrees>
              <LongitudeDegrees>-8.2349088974297046661376953125</LongitudeDegrees>
            </Position>
            <AltitudeMeters>41.799999237060546875</AltitudeMeters>
            <DistanceMeters>76323.195868623</DistanceMeters>
          </Trackpoint>
          <Trackpoint>
            <Time>2018-04-21T13:45:35.000Z</Time>
            <Position>
              <LatitudeDegrees>43.29388766549527645111083984375</LatitudeDegrees>
              <LongitudeDegrees>-8.23494426906108856201171875</LongitudeDegrees>
            </Position>
            <AltitudeMeters>42.200000762939453125</AltitudeMeters>
            <DistanceMeters>76328.217021223</DistanceMeters>
          </Trackpoint>
          <Trackpoint>
            <Time>2018-04-21T13:45:37.000Z</Time>
            <Position>
              <LatitudeDegrees>43.29391264356672763824462890625</LatitudeDegrees>
              <LongitudeDegrees>-8.234990537166595458984375</LongitudeDegrees>
            </Position>
            <AltitudeMeters>42.59999847412109375</AltitudeMeters>
            <DistanceMeters>76332.883984302</DistanceMeters>
          </Trackpoint>
          <Trackpoint>
            <Time>2018-04-21T13:45:41.000Z</Time>
            <Position>
              <LatitudeDegrees>43.29387341625988483428955078125</LatitudeDegrees>
              <LongitudeDegrees>-8.2350775413215160369873046875</LongitudeDegrees>
            </Position>
            <AltitudeMeters>43</AltitudeMeters>
            <DistanceMeters>76341.175303375</DistanceMeters>
          </Trackpoint>
          <Trackpoint>
            <Time>2018-04-21T13:45:42.000Z</Time>
            <Position>
              <LatitudeDegrees>43.293845169246196746826171875</LatitudeDegrees>
              <LongitudeDegrees>-8.23508818633854389190673828125</LongitudeDegrees>
            </Position>
            <AltitudeMeters>43.200000762939453125</AltitudeMeters>
            <DistanceMeters>76344.434040845</DistanceMeters>
          </Trackpoint>
          <Trackpoint>
            <Time>2018-04-21T13:45:44.000Z</Time>
            <Position>
              <LatitudeDegrees>43.293804265558719635009765625</LatitudeDegrees>
              <LongitudeDegrees>-8.235105536878108978271484375</LongitudeDegrees>
            </Position>
            <AltitudeMeters>43.59999847412109375</AltitudeMeters>
            <DistanceMeters>76349.19866173</DistanceMeters>
          </Trackpoint>
          <Trackpoint>
            <Time>2018-04-21T13:45:46.000Z</Time>
            <Position>
              <LatitudeDegrees>43.2937548123300075531005859375</LatitudeDegrees>
              <LongitudeDegrees>-8.23513805866241455078125</LongitudeDegrees>
            </Position>
            <AltitudeMeters>44</AltitudeMeters>
            <DistanceMeters>76355.300383223</DistanceMeters>
          </Trackpoint>
          <Trackpoint>
            <Time>2018-04-21T13:45:48.000Z</Time>
            <Position>
              <LatitudeDegrees>43.29370091669261455535888671875</LatitudeDegrees>
              <LongitudeDegrees>-8.23516278527677059173583984375</LongitudeDegrees>
            </Position>
            <AltitudeMeters>44.40000152587890625</AltitudeMeters>
            <DistanceMeters>76361.624480674</DistanceMeters>
          </Trackpoint>
          <Trackpoint>
            <Time>2018-04-21T13:45:53.000Z</Time>
            <Position>
              <LatitudeDegrees>43.293584994971752166748046875</LatitudeDegrees>
              <LongitudeDegrees>-8.23526102118194103240966796875</LongitudeDegrees>
            </Position>
            <AltitudeMeters>45.59999847412109375</AltitudeMeters>
            <DistanceMeters>76376.783847924</DistanceMeters>
          </Trackpoint>
          <Trackpoint>
            <Time>2018-04-21T13:45:58.000Z</Time>
            <Position>
              <LatitudeDegrees>43.29345230944454669952392578125</LatitudeDegrees>
              <LongitudeDegrees>-8.235360682010650634765625</LongitudeDegrees>
            </Position>
            <AltitudeMeters>47</AltitudeMeters>
            <DistanceMeters>76393.615115203</DistanceMeters>
          </Trackpoint>
          <Trackpoint>
            <Time>2018-04-21T13:45:59.000Z</Time>
            <Position>
              <LatitudeDegrees>43.293432109057903289794921875</LatitudeDegrees>
              <LongitudeDegrees>-8.23538138531148433685302734375</LongitudeDegrees>
            </Position>
            <AltitudeMeters>47.59999847412109375</AltitudeMeters>
            <DistanceMeters>76396.42122045</DistanceMeters>
          </Trackpoint>
          <Trackpoint>
            <Time>2018-04-21T13:46:05.000Z</Time>
            <Position>
              <LatitudeDegrees>43.29333060421049594879150390625</LatitudeDegrees>
              <LongitudeDegrees>-8.2355348579585552215576171875</LongitudeDegrees>
            </Position>
            <AltitudeMeters>46.40000152587890625</AltitudeMeters>
            <DistanceMeters>76413.220266525</DistanceMeters>
          </Trackpoint>
          <Trackpoint>
            <Time>2018-04-21T13:46:11.000Z</Time>
            <Position>
              <LatitudeDegrees>43.2932844199240207672119140625</LatitudeDegrees>
              <LongitudeDegrees>-8.23568447493016719818115234375</LongitudeDegrees>
            </Position>
            <AltitudeMeters>47.799999237060546875</AltitudeMeters>
            <DistanceMeters>76426.38618265</DistanceMeters>
          </Trackpoint>
          <Trackpoint>
            <Time>2018-04-21T13:46:13.000Z</Time>
            <Position>
              <LatitudeDegrees>43.2932844199240207672119140625</LatitudeDegrees>
              <LongitudeDegrees>-8.23572839610278606414794921875</LongitudeDegrees>
            </Position>
            <AltitudeMeters>48</AltitudeMeters>
            <DistanceMeters>76429.944295517</DistanceMeters>
          </Trackpoint>
          <Trackpoint>
            <Time>2018-04-21T13:46:17.000Z</Time>
            <Position>
              <LatitudeDegrees>43.29328157007694244384765625</LatitudeDegrees>
              <LongitudeDegrees>-8.23582470417022705078125</LongitudeDegrees>
            </Position>
            <AltitudeMeters>49.200000762939453125</AltitudeMeters>
            <DistanceMeters>76437.752693314</DistanceMeters>
          </Trackpoint>
          <Trackpoint>
            <Time>2018-04-21T13:46:18.000Z</Time>
            <Position>
              <LatitudeDegrees>43.2932750321924686431884765625</LatitudeDegrees>
              <LongitudeDegrees>-8.235850520431995391845703125</LongitudeDegrees>
            </Position>
            <AltitudeMeters>49.59999847412109375</AltitudeMeters>
            <DistanceMeters>76439.965000126</DistanceMeters>
          </Trackpoint>
          <Trackpoint>
            <Time>2018-04-21T13:46:19.000Z</Time>
            <Position>
              <LatitudeDegrees>43.293272517621517181396484375</LatitudeDegrees>
              <LongitudeDegrees>-8.23588463477790355682373046875</LongitudeDegrees>
            </Position>
            <AltitudeMeters>50.40000152587890625</AltitudeMeters>
            <DistanceMeters>76442.741992255</DistanceMeters>
          </Trackpoint>
          <Trackpoint>
            <Time>2018-04-21T13:46:21.000Z</Time>
            <Position>
              <LatitudeDegrees>43.29326815903186798095703125</LatitudeDegrees>
              <LongitudeDegrees>-8.23591464199125766754150390625</LongitudeDegrees>
            </Position>
            <AltitudeMeters>50.59999847412109375</AltitudeMeters>
            <DistanceMeters>76445.219985795</DistanceMeters>
          </Trackpoint>
          <Trackpoint>
            <Time>2018-04-21T13:46:22.000Z</Time>
            <Position>
              <LatitudeDegrees>43.29326338134706020355224609375</LatitudeDegrees>
              <LongitudeDegrees>-8.235937021672725677490234375</LongitudeDegrees>
            </Position>
            <AltitudeMeters>51</AltitudeMeters>
            <DistanceMeters>76447.110993534</DistanceMeters>
          </Trackpoint>
          <Trackpoint>
            <Time>2018-04-21T13:46:24.000Z</Time>
            <Position>
              <LatitudeDegrees>43.293264806270599365234375</LatitudeDegrees>
              <LongitudeDegrees>-8.2359680347144603729248046875</LongitudeDegrees>
            </Position>
            <AltitudeMeters>51.59999847412109375</AltitudeMeters>
            <DistanceMeters>76449.628753186</DistanceMeters>
          </Trackpoint>
          <Trackpoint>
            <Time>2018-04-21T13:46:25.000Z</Time>
            <Position>
              <LatitudeDegrees>43.29325516708195209503173828125</LatitudeDegrees>
              <LongitudeDegrees>-8.23598362505435943603515625</LongitudeDegrees>
            </Position>
            <AltitudeMeters>52</AltitudeMeters>
            <DistanceMeters>76451.282873243</DistanceMeters>
          </Trackpoint>
          <Trackpoint>
            <Time>2018-04-21T13:46:27.000Z</Time>
            <Position>
              <LatitudeDegrees>43.29323194921016693115234375</LatitudeDegrees>
              <LongitudeDegrees>-8.23601849377155303955078125</LongitudeDegrees>
            </Position>
            <AltitudeMeters>52.799999237060546875</AltitudeMeters>
            <DistanceMeters>76455.111164516</DistanceMeters>
          </Trackpoint>
          <Trackpoint>
            <Time>2018-04-21T13:46:29.000Z</Time>
            <Position>
              <LatitudeDegrees>43.29320739023387432098388671875</LatitudeDegrees>
              <LongitudeDegrees>-8.23604799807071685791015625</LongitudeDegrees>
            </Position>
            <AltitudeMeters>53</AltitudeMeters>
            <DistanceMeters>76458.742130174</DistanceMeters>
          </Trackpoint>
          <Trackpoint>
            <Time>2018-04-21T13:46:33.000Z</Time>
            <Position>
              <LatitudeDegrees>43.2931566797196865081787109375</LatitudeDegrees>
              <LongitudeDegrees>-8.2361044920980930328369140625</LongitudeDegrees>
            </Position>
            <AltitudeMeters>53.799999237060546875</AltitudeMeters>
            <DistanceMeters>76466.009033712</DistanceMeters>
          </Trackpoint>
          <Trackpoint>
            <Time>2018-04-21T13:46:34.000Z</Time>
            <Position>
              <LatitudeDegrees>43.29313815571367740631103515625</LatitudeDegrees>
              <LongitudeDegrees>-8.2361122034490108489990234375</LongitudeDegrees>
            </Position>
            <AltitudeMeters>54.59999847412109375</AltitudeMeters>
            <DistanceMeters>76468.163438338</DistanceMeters>
          </Trackpoint>
          <Trackpoint>
            <Time>2018-04-21T13:46:37.000Z</Time>
            <Position>
              <LatitudeDegrees>43.2930918037891387939453125</LatitudeDegrees>
              <LongitudeDegrees>-8.23615000583231449127197265625</LongitudeDegrees>
            </Position>
            <AltitudeMeters>55</AltitudeMeters>
            <DistanceMeters>76474.162928709</DistanceMeters>
          </Trackpoint>
          <Trackpoint>
            <Time>2018-04-21T13:46:41.000Z</Time>
            <Position>
              <LatitudeDegrees>43.29302608966827392578125</LatitudeDegrees>
              <LongitudeDegrees>-8.23616760782897472381591796875</LongitudeDegrees>
            </Position>
            <AltitudeMeters>55.40000152587890625</AltitudeMeters>
            <DistanceMeters>76481.613895759</DistanceMeters>
          </Trackpoint>
          <Trackpoint>
            <Time>2018-04-21T13:46:45.000Z</Time>
            <Position>
              <LatitudeDegrees>43.2929679192602634429931640625</LatitudeDegrees>
              <LongitudeDegrees>-8.23619694449007511138916015625</LongitudeDegrees>
            </Position>
            <AltitudeMeters>56</AltitudeMeters>
            <DistanceMeters>76488.511028692</DistanceMeters>
          </Trackpoint>
          <Trackpoint>
            <Time>2018-04-21T13:46:47.000Z</Time>
            <Position>
              <LatitudeDegrees>43.2929340563714504241943359375</LatitudeDegrees>
              <LongitudeDegrees>-8.23620817624032497406005859375</LongitudeDegrees>
            </Position>
            <AltitudeMeters>56.40000152587890625</AltitudeMeters>
            <DistanceMeters>76492.389702094</DistanceMeters>
          </Trackpoint>
          <Trackpoint>
            <Time>2018-04-21T13:46:51.000Z</Time>
            <Position>
              <LatitudeDegrees>43.29287814907729625701904296875</LatitudeDegrees>
              <LongitudeDegrees>-8.2362516783177852630615234375</LongitudeDegrees>
            </Position>
            <AltitudeMeters>57.200000762939453125</AltitudeMeters>
            <DistanceMeters>76499.54136994</DistanceMeters>
          </Trackpoint>
          <Trackpoint>
            <Time>2018-04-21T13:46:55.000Z</Time>
            <Position>
              <LatitudeDegrees>43.29282023012638092041015625</LatitudeDegrees>
              <LongitudeDegrees>-8.23628344573080539703369140625</LongitudeDegrees>
            </Position>
            <AltitudeMeters>58</AltitudeMeters>
            <DistanceMeters>76506.482874669</DistanceMeters>
          </Trackpoint>
          <Trackpoint>
            <Time>2018-04-21T13:46:56.000Z</Time>
            <Position>
              <LatitudeDegrees>43.2928063161671161651611328125</LatitudeDegrees>
              <LongitudeDegrees>-8.2362959347665309906005859375</LongitudeDegrees>
            </Position>
            <AltitudeMeters>58.200000762939453125</AltitudeMeters>
            <DistanceMeters>76508.332847364</DistanceMeters>
          </Trackpoint>
          <Trackpoint>
            <Time>2018-04-21T13:47:01.000Z</Time>
            <Position>
              <LatitudeDegrees>43.292744792997837066650390625</LatitudeDegrees>
              <LongitudeDegrees>-8.236346058547496795654296875</LongitudeDegrees>
            </Position>
            <AltitudeMeters>59</AltitudeMeters>
            <DistanceMeters>76516.29413536</DistanceMeters>
          </Trackpoint>
          <Trackpoint>
            <Time>2018-04-21T13:47:03.000Z</Time>
            <Position>
              <LatitudeDegrees>43.2927275262773036956787109375</LatitudeDegrees>
              <LongitudeDegrees>-8.236364163458347320556640625</LongitudeDegrees>
            </Position>
            <AltitudeMeters>59.40000152587890625</AltitudeMeters>
            <DistanceMeters>76518.713120589</DistanceMeters>
          </Trackpoint>
          <Trackpoint>
            <Time>2018-04-21T13:47:07.000Z</Time>
            <Position>
              <LatitudeDegrees>43.29267698340117931365966796875</LatitudeDegrees>
              <LongitudeDegrees>-8.2363918237388134002685546875</LongitudeDegrees>
            </Position>
            <AltitudeMeters>60.200000762939453125</AltitudeMeters>
            <DistanceMeters>76524.768045061</DistanceMeters>
          </Trackpoint>
          <Trackpoint>
            <Time>2018-04-21T13:47:09.000Z</Time>
            <Position>
              <LatitudeDegrees>43.29265183769166469573974609375</LatitudeDegrees>
              <LongitudeDegrees>-8.2364022172987461090087890625</LongitudeDegrees>
            </Position>
            <AltitudeMeters>60.59999847412109375</AltitudeMeters>
            <DistanceMeters>76527.687701233</DistanceMeters>
          </Trackpoint>
          <Trackpoint>
            <Time>2018-04-21T13:47:13.000Z</Time>
            <Position>
              <LatitudeDegrees>43.2926105149090290069580078125</LatitudeDegrees>
              <LongitudeDegrees>-8.236466087400913238525390625</LongitudeDegrees>
            </Position>
            <AltitudeMeters>61.59999847412109375</AltitudeMeters>
            <DistanceMeters>76534.610317479</DistanceMeters>
          </Trackpoint>
          <Trackpoint>
            <Time>2018-04-21T13:47:18.000Z</Time>
            <Position>
              <LatitudeDegrees>43.29256751574575901031494140625</LatitudeDegrees>
              <LongitudeDegrees>-8.2365312986075878143310546875</LongitudeDegrees>
            </Position>
            <AltitudeMeters>63</AltitudeMeters>
            <DistanceMeters>76541.739221338</DistanceMeters>
          </Trackpoint>
          <Trackpoint>
            <Time>2018-04-21T13:47:21.000Z</Time>
            <Position>
              <LatitudeDegrees>43.29253432340919971466064453125</LatitudeDegrees>
              <LongitudeDegrees>-8.2365611381828784942626953125</LongitudeDegrees>
            </Position>
            <AltitudeMeters>63.799999237060546875</AltitudeMeters>
            <DistanceMeters>76546.153618801</DistanceMeters>
          </Trackpoint>
          <Trackpoint>
            <Time>2018-04-21T13:47:22.000Z</Time>
            <Position>
              <LatitudeDegrees>43.2925233431160449981689453125</LatitudeDegrees>
              <LongitudeDegrees>-8.23656910099089145660400390625</LongitudeDegrees>
            </Position>
            <AltitudeMeters>64</AltitudeMeters>
            <DistanceMeters>76547.537228647</DistanceMeters>
          </Trackpoint>
          <Trackpoint>
            <Time>2018-04-21T13:47:25.000Z</Time>
            <Position>
              <LatitudeDegrees>43.29249191097915172576904296875</LatitudeDegrees>
              <LongitudeDegrees>-8.23660581372678279876708984375</LongitudeDegrees>
            </Position>
            <AltitudeMeters>65.1999969482421875</AltitudeMeters>
            <DistanceMeters>76552.129094117</DistanceMeters>
          </Trackpoint>
          <Trackpoint>
            <Time>2018-04-21T13:47:27.000Z</Time>
            <Position>
              <LatitudeDegrees>43.2924733869731426239013671875</LatitudeDegrees>
              <LongitudeDegrees>-8.23661469854414463043212890625</LongitudeDegrees>
            </Position>
            <AltitudeMeters>65.59999847412109375</AltitudeMeters>
            <DistanceMeters>76554.310573039</DistanceMeters>
          </Trackpoint>
          <Trackpoint>
            <Time>2018-04-21T13:47:29.000Z</Time>
            <Position>
              <LatitudeDegrees>43.29245637170970439910888671875</LatitudeDegrees>
              <LongitudeDegrees>-8.23663230054080486297607421875</LongitudeDegrees>
            </Position>
            <AltitudeMeters>66.59999847412109375</AltitudeMeters>
            <DistanceMeters>76556.678626559</DistanceMeters>
          </Trackpoint>
          <Trackpoint>
            <Time>2018-04-21T13:47:33.000Z</Time>
            <Position>
              <LatitudeDegrees>43.29241848550736904144287109375</LatitudeDegrees>
              <LongitudeDegrees>-8.23667421005666255950927734375</LongitudeDegrees>
            </Position>
            <AltitudeMeters>67.40000152587890625</AltitudeMeters>
            <DistanceMeters>76562.092647997</DistanceMeters>
          </Trackpoint>
          <Trackpoint>
            <Time>2018-04-21T13:47:34.000Z</Time>
            <Position>
              <LatitudeDegrees>43.29241521656513214111328125</LatitudeDegrees>
              <LongitudeDegrees>-8.23669265024363994598388671875</LongitudeDegrees>
            </Position>
            <AltitudeMeters>67.59999847412109375</AltitudeMeters>
            <DistanceMeters>76563.630789743</DistanceMeters>
          </Trackpoint>
          <Trackpoint>
            <Time>2018-04-21T13:47:35.000Z</Time>
            <Position>
              <LatitudeDegrees>43.292416222393512725830078125</LatitudeDegrees>
              <LongitudeDegrees>-8.23671259917318820953369140625</LongitudeDegrees>
            </Position>
            <AltitudeMeters>67.8000030517578125</AltitudeMeters>
            <DistanceMeters>76565.249036377</DistanceMeters>
          </Trackpoint>
          <Trackpoint>
            <Time>2018-04-21T13:47:39.000Z</Time>
            <Position>
              <LatitudeDegrees>43.2924210838973522186279296875</LatitudeDegrees>
              <LongitudeDegrees>-8.23677127249538898468017578125</LongitudeDegrees>
            </Position>
            <AltitudeMeters>68.40000152587890625</AltitudeMeters>
            <DistanceMeters>76570.032572068</DistanceMeters>
          </Trackpoint>
          <Trackpoint>
            <Time>2018-04-21T13:47:41.000Z</Time>
            <Position>
              <LatitudeDegrees>43.29242527484893798828125</LatitudeDegrees>
              <LongitudeDegrees>-8.23678602464497089385986328125</LongitudeDegrees>
            </Position>
            <AltitudeMeters>69</AltitudeMeters>
            <DistanceMeters>76571.314552533</DistanceMeters>
          </Trackpoint>
          <Trackpoint>
            <Time>2018-04-21T13:47:45.000Z</Time>
            <Position>
              <LatitudeDegrees>43.29245000146329402923583984375</LatitudeDegrees>
              <LongitudeDegrees>-8.23680681176483631134033203125</LongitudeDegrees>
            </Position>
            <AltitudeMeters>69.8000030517578125</AltitudeMeters>
            <DistanceMeters>76574.541265743</DistanceMeters>
          </Trackpoint>
          <Trackpoint>
            <Time>2018-04-21T13:47:46.000Z</Time>
            <Position>
              <LatitudeDegrees>43.29245603643357753753662109375</LatitudeDegrees>
              <LongitudeDegrees>-8.23680781759321689605712890625</LongitudeDegrees>
            </Position>
            <AltitudeMeters>70</AltitudeMeters>
            <DistanceMeters>76575.226513125</DistanceMeters>
          </Trackpoint>
          <Trackpoint>
            <Time>2018-04-21T13:47:52.000Z</Time>
            <Position>
              <LatitudeDegrees>43.29252786934375762939453125</LatitudeDegrees>
              <LongitudeDegrees>-8.2368863560259342193603515625</LongitudeDegrees>
            </Position>
            <AltitudeMeters>71.1999969482421875</AltitudeMeters>
            <DistanceMeters>76585.444426016</DistanceMeters>
          </Trackpoint>
          <Trackpoint>
            <Time>2018-04-21T13:47:54.000Z</Time>
            <Position>
              <LatitudeDegrees>43.29254924319684505462646484375</LatitudeDegrees>
              <LongitudeDegrees>-8.2369118370115756988525390625</LongitudeDegrees>
            </Position>
            <AltitudeMeters>71.59999847412109375</AltitudeMeters>
            <DistanceMeters>76588.594672675</DistanceMeters>
          </Trackpoint>
          <Trackpoint>
            <Time>2018-04-21T13:47:58.000Z</Time>
            <Position>
              <LatitudeDegrees>43.29257790930569171905517578125</LatitudeDegrees>
              <LongitudeDegrees>-8.236945532262325286865234375</LongitudeDegrees>
            </Position>
            <AltitudeMeters>72.1999969482421875</AltitudeMeters>
            <DistanceMeters>76592.793090141</DistanceMeters>
          </Trackpoint>
          <Trackpoint>
            <Time>2018-04-21T13:48:01.000Z</Time>
            <Position>
              <LatitudeDegrees>43.292604647576808929443359375</LatitudeDegrees>
              <LongitudeDegrees>-8.23698668740689754486083984375</LongitudeDegrees>
            </Position>
            <AltitudeMeters>72.59999847412109375</AltitudeMeters>
            <DistanceMeters>76597.261367104</DistanceMeters>
          </Trackpoint>
          <Trackpoint>
            <Time>2018-04-21T13:48:04.000Z</Time>
            <Position>
              <LatitudeDegrees>43.29263071529567241668701171875</LatitudeDegrees>
              <LongitudeDegrees>-8.2370332069694995880126953125</LongitudeDegrees>
            </Position>
            <AltitudeMeters>73.40000152587890625</AltitudeMeters>
            <DistanceMeters>76602.018401008</DistanceMeters>
          </Trackpoint>
          <Trackpoint>
            <Time>2018-04-21T13:48:07.000Z</Time>
            <Position>
              <LatitudeDegrees>43.292658291757106781005859375</LatitudeDegrees>
              <LongitudeDegrees>-8.2370811514556407928466796875</LongitudeDegrees>
            </Position>
            <AltitudeMeters>73.8000030517578125</AltitudeMeters>
            <DistanceMeters>76606.96800679</DistanceMeters>
          </Trackpoint>
          <Trackpoint>
            <Time>2018-04-21T13:48:12.000Z</Time>
            <Position>
              <LatitudeDegrees>43.29269609414041042327880859375</LatitudeDegrees>
              <LongitudeDegrees>-8.23717326857149600982666015625</LongitudeDegrees>
            </Position>
            <AltitudeMeters>74.59999847412109375</AltitudeMeters>
            <DistanceMeters>76615.534653232</DistanceMeters>
          </Trackpoint>
          <Trackpoint>
            <Time>2018-04-21T13:48:15.000Z</Time>
            <Position>
              <LatitudeDegrees>43.2927030511200428009033203125</LatitudeDegrees>
              <LongitudeDegrees>-8.23723261244595050811767578125</LongitudeDegrees>
            </Position>
            <AltitudeMeters>75.1999969482421875</AltitudeMeters>
            <DistanceMeters>76620.404250827</DistanceMeters>
          </Trackpoint>
          <Trackpoint>
            <Time>2018-04-21T13:48:18.000Z</Time>
            <Position>
              <LatitudeDegrees>43.29269978217780590057373046875</LatitudeDegrees>
              <LongitudeDegrees>-8.2372903637588024139404296875</LongitudeDegrees>
            </Position>
            <AltitudeMeters>75.59999847412109375</AltitudeMeters>
            <DistanceMeters>76625.096300099</DistanceMeters>
          </Trackpoint>
          <Trackpoint>
            <Time>2018-04-21T13:48:22.000Z</Time>
            <Position>
              <LatitudeDegrees>43.29270766116678714752197265625</LatitudeDegrees>
              <LongitudeDegrees>-8.23737342841923236846923828125</LongitudeDegrees>
            </Position>
            <AltitudeMeters>76.40000152587890625</AltitudeMeters>
            <DistanceMeters>76631.882564894</DistanceMeters>
          </Trackpoint>
          <Trackpoint>
            <Time>2018-04-21T13:48:24.000Z</Time>
            <Position>
              <LatitudeDegrees>43.2927109301090240478515625</LatitudeDegrees>
              <LongitudeDegrees>-8.2374165952205657958984375</LongitudeDegrees>
            </Position>
            <AltitudeMeters>76.59999847412109375</AltitudeMeters>
            <DistanceMeters>76635.397268946</DistanceMeters>
          </Trackpoint>
          <Trackpoint>
            <Time>2018-04-21T13:48:29.000Z</Time>
            <Position>
              <LatitudeDegrees>43.29271252267062664031982421875</LatitudeDegrees>
              <LongitudeDegrees>-8.23753352276980876922607421875</LongitudeDegrees>
            </Position>
            <AltitudeMeters>77.40000152587890625</AltitudeMeters>
            <DistanceMeters>76644.871389478</DistanceMeters>
          </Trackpoint>
          <Trackpoint>
            <Time>2018-04-21T13:48:30.000Z</Time>
            <Position>
              <LatitudeDegrees>43.2927162945270538330078125</LatitudeDegrees>
              <LongitudeDegrees>-8.23755816556513309478759765625</LongitudeDegrees>
            </Position>
            <AltitudeMeters>77.59999847412109375</AltitudeMeters>
            <DistanceMeters>76646.911699563</DistanceMeters>
          </Trackpoint>
          <Trackpoint>
            <Time>2018-04-21T13:48:31.000Z</Time>
            <Position>
              <LatitudeDegrees>43.292719982564449310302734375</LatitudeDegrees>
              <LongitudeDegrees>-8.23758180253207683563232421875</LongitudeDegrees>
            </Position>
            <AltitudeMeters>78</AltitudeMeters>
            <DistanceMeters>76648.873028848</DistanceMeters>
          </Trackpoint>
          <Trackpoint>
            <Time>2018-04-21T13:48:37.000Z</Time>
            <Position>
              <LatitudeDegrees>43.29272568225860595703125</LatitudeDegrees>
              <LongitudeDegrees>-8.237728737294673919677734375</LongitudeDegrees>
            </Position>
            <AltitudeMeters>78.59999847412109375</AltitudeMeters>
            <DistanceMeters>76660.793485338</DistanceMeters>
          </Trackpoint>
          <Trackpoint>
            <Time>2018-04-21T13:48:38.000Z</Time>
            <Position>
              <LatitudeDegrees>43.29272526316344738006591796875</LatitudeDegrees>
              <LongitudeDegrees>-8.237753212451934814453125</LongitudeDegrees>
            </Position>
            <AltitudeMeters>78.8000030517578125</AltitudeMeters>
            <DistanceMeters>76662.773145201</DistanceMeters>
          </Trackpoint>
          <Trackpoint>
            <Time>2018-04-21T13:48:43.000Z</Time>
            <Position>
              <LatitudeDegrees>43.2927553541958332061767578125</LatitudeDegrees>
              <LongitudeDegrees>-8.2378656975924968719482421875</LongitudeDegrees>
            </Position>
            <AltitudeMeters>79.1999969482421875</AltitudeMeters>
            <DistanceMeters>76672.481694935</DistanceMeters>
          </Trackpoint>
          <Trackpoint>
            <Time>2018-04-21T13:48:49.000Z</Time>
            <Position>
              <LatitudeDegrees>43.29285107553005218505859375</LatitudeDegrees>
              <LongitudeDegrees>-8.23795798234641551971435546875</LongitudeDegrees>
            </Position>
            <AltitudeMeters>79.8000030517578125</AltitudeMeters>
            <DistanceMeters>76685.497233114</DistanceMeters>
          </Trackpoint>
          <Trackpoint>
            <Time>2018-04-21T13:48:50.000Z</Time>
            <Position>
              <LatitudeDegrees>43.29287194646894931793212890625</LatitudeDegrees>
              <LongitudeDegrees>-8.23795060627162456512451171875</LongitudeDegrees>
            </Position>
            <AltitudeMeters>80</AltitudeMeters>
            <DistanceMeters>76687.895598952</DistanceMeters>
          </Trackpoint>
          <Trackpoint>
            <Time>2018-04-21T13:48:54.000Z</Time>
            <Position>
              <LatitudeDegrees>43.29294453375041484832763671875</LatitudeDegrees>
              <LongitudeDegrees>-8.2379495166242122650146484375</LongitudeDegrees>
            </Position>
            <AltitudeMeters>80.59999847412109375</AltitudeMeters>
            <DistanceMeters>76695.974546441</DistanceMeters>
          </Trackpoint>
          <Trackpoint>
            <Time>2018-04-21T13:48:58.000Z</Time>
            <Position>
              <LatitudeDegrees>43.29301410354673862457275390625</LatitudeDegrees>
              <LongitudeDegrees>-8.23795597068965435028076171875</LongitudeDegrees>
            </Position>
            <AltitudeMeters>80.8000030517578125</AltitudeMeters>
            <DistanceMeters>76703.735384662</DistanceMeters>
          </Trackpoint>
          <Trackpoint>
            <Time>2018-04-21T13:49:01.000Z</Time>
            <Position>
              <LatitudeDegrees>43.2930688373744487762451171875</LatitudeDegrees>
              <LongitudeDegrees>-8.2379879057407379150390625</LongitudeDegrees>
            </Position>
            <AltitudeMeters>81.1999969482421875</AltitudeMeters>
            <DistanceMeters>76710.353229534</DistanceMeters>
          </Trackpoint>
          <Trackpoint>
            <Time>2018-04-21T13:49:05.000Z</Time>
            <Position>
              <LatitudeDegrees>43.293105550110340118408203125</LatitudeDegrees>
              <LongitudeDegrees>-8.23808287270367145538330078125</LongitudeDegrees>
            </Position>
            <AltitudeMeters>81.8000030517578125</AltitudeMeters>
            <DistanceMeters>76719.064645173</DistanceMeters>
          </Trackpoint>
          <Trackpoint>
            <Time>2018-04-21T13:49:06.000Z</Time>
            <Position>
              <LatitudeDegrees>43.2931067235767841339111328125</LatitudeDegrees>
              <LongitudeDegrees>-8.23810718022286891937255859375</LongitudeDegrees>
            </Position>
            <AltitudeMeters>82</AltitudeMeters>
            <DistanceMeters>76721.039738341</DistanceMeters>
          </Trackpoint>
          <Trackpoint>
            <Time>2018-04-21T13:49:13.000Z</Time>
            <Position>
              <LatitudeDegrees>43.29309775494039058685302734375</LatitudeDegrees>
              <LongitudeDegrees>-8.23829811997711658477783203125</LongitudeDegrees>
            </Position>
            <AltitudeMeters>83.1999969482421875</AltitudeMeters>
            <DistanceMeters>76736.540456842</DistanceMeters>
          </Trackpoint>
          <Trackpoint>
            <Time>2018-04-21T13:49:22.000Z</Time>
            <Position>
              <LatitudeDegrees>43.29307747073471546173095703125</LatitudeDegrees>
              <LongitudeDegrees>-8.2385634072124958038330078125</LongitudeDegrees>
            </Position>
            <AltitudeMeters>84.1999969482421875</AltitudeMeters>
            <DistanceMeters>76758.15020865</DistanceMeters>
          </Trackpoint>
          <Trackpoint>
            <Time>2018-04-21T13:49:32.000Z</Time>
            <Position>
              <LatitudeDegrees>43.2930913008749485015869140625</LatitudeDegrees>
              <LongitudeDegrees>-8.23884545825421810150146484375</LongitudeDegrees>
            </Position>
            <AltitudeMeters>85.1999969482421875</AltitudeMeters>
            <DistanceMeters>76781.051449661</DistanceMeters>
          </Trackpoint>
          <Trackpoint>
            <Time>2018-04-21T13:49:33.000Z</Time>
            <Position>
              <LatitudeDegrees>43.29309792257845401763916015625</LatitudeDegrees>
              <LongitudeDegrees>-8.238872028887271881103515625</LongitudeDegrees>
            </Position>
            <AltitudeMeters>85.1999969482421875</AltitudeMeters>
            <DistanceMeters>76783.328127917</DistanceMeters>
          </Trackpoint>
          <Trackpoint>
            <Time>2018-04-21T13:49:39.000Z</Time>
            <Position>
              <LatitudeDegrees>43.29311636276543140411376953125</LatitudeDegrees>
              <LongitudeDegrees>-8.239041008055210113525390625</LongitudeDegrees>
            </Position>
            <AltitudeMeters>86.1999969482421875</AltitudeMeters>
            <DistanceMeters>76797.1707513</DistanceMeters>
          </Trackpoint>
          <Trackpoint>
            <Time>2018-04-21T13:49:40.000Z</Time>
            <Position>
              <LatitudeDegrees>43.29312072135508060455322265625</LatitudeDegrees>
              <LongitudeDegrees>-8.23906741105020046234130859375</LongitudeDegrees>
            </Position>
            <AltitudeMeters>86.1999969482421875</AltitudeMeters>
            <DistanceMeters>76799.362554364</DistanceMeters>
          </Trackpoint>
          <Trackpoint>
            <Time>2018-04-21T13:49:47.000Z</Time>
            <Position>
              <LatitudeDegrees>43.29315022565424442291259765625</LatitudeDegrees>
              <LongitudeDegrees>-8.2392517291009426116943359375</LongitudeDegrees>
            </Position>
            <AltitudeMeters>87.40000152587890625</AltitudeMeters>
            <DistanceMeters>76814.651227581</DistanceMeters>
          </Trackpoint>
          <Trackpoint>
            <Time>2018-04-21T13:49:48.000Z</Time>
            <Position>
              <LatitudeDegrees>43.29315475188195705413818359375</LatitudeDegrees>
              <LongitudeDegrees>-8.23927645571529865264892578125</LongitudeDegrees>
            </Position>
            <AltitudeMeters>87.40000152587890625</AltitudeMeters>
            <DistanceMeters>76816.715736259</DistanceMeters>
          </Trackpoint>
          <Trackpoint>
            <Time>2018-04-21T13:49:54.000Z</Time>
            <Position>
              <LatitudeDegrees>43.2931637205183506011962890625</LatitudeDegrees>
              <LongitudeDegrees>-8.2394388131797313690185546875</LongitudeDegrees>
            </Position>
            <AltitudeMeters>88.1999969482421875</AltitudeMeters>
            <DistanceMeters>76829.906320512</DistanceMeters>
          </Trackpoint>
          <Trackpoint>
            <Time>2018-04-21T13:49:56.000Z</Time>
            <Position>
              <LatitudeDegrees>43.29315776936709880828857421875</LatitudeDegrees>
              <LongitudeDegrees>-8.23950746096670627593994140625</LongitudeDegrees>
            </Position>
            <AltitudeMeters>88.40000152587890625</AltitudeMeters>
            <DistanceMeters>76835.507256645</DistanceMeters>
          </Trackpoint>
          <Trackpoint>
            <Time>2018-04-21T13:50:01.000Z</Time>
            <Position>
              <LatitudeDegrees>43.29314486123621463775634765625</LatitudeDegrees>
              <LongitudeDegrees>-8.23969437740743160247802734375</LongitudeDegrees>
            </Position>
            <AltitudeMeters>88.8000030517578125</AltitudeMeters>
            <DistanceMeters>76850.717765794</DistanceMeters>
          </Trackpoint>
          <Trackpoint>
            <Time>2018-04-21T13:50:06.000Z</Time>
            <Position>
              <LatitudeDegrees>43.2931147702038288116455078125</LatitudeDegrees>
              <LongitudeDegrees>-8.23991230688989162445068359375</LongitudeDegrees>
            </Position>
            <AltitudeMeters>89.1999969482421875</AltitudeMeters>
            <DistanceMeters>76868.687365221</DistanceMeters>
          </Trackpoint>
          <Trackpoint>
            <Time>2018-04-21T13:50:10.000Z</Time>
            <Position>
              <LatitudeDegrees>43.29307948239147663116455078125</LatitudeDegrees>
              <LongitudeDegrees>-8.24006301350891590118408203125</LongitudeDegrees>
            </Position>
            <AltitudeMeters>89.40000152587890625</AltitudeMeters>
            <DistanceMeters>76881.512803712</DistanceMeters>
          </Trackpoint>
          <Trackpoint>
            <Time>2018-04-21T13:50:12.000Z</Time>
            <Position>
              <LatitudeDegrees>43.29306070692837238311767578125</LatitudeDegrees>
              <LongitudeDegrees>-8.24014297686517238616943359375</LongitudeDegrees>
            </Position>
            <AltitudeMeters>89.59999847412109375</AltitudeMeters>
            <DistanceMeters>76888.318998843</DistanceMeters>
          </Trackpoint>
          <Trackpoint>
            <Time>2018-04-21T13:50:18.000Z</Time>
            <Position>
              <LatitudeDegrees>43.29301494173705577850341796875</LatitudeDegrees>
              <LongitudeDegrees>-8.24036258272826671600341796875</LongitudeDegrees>
            </Position>
            <AltitudeMeters>89.8000030517578125</AltitudeMeters>
            <DistanceMeters>76906.824582299</DistanceMeters>
          </Trackpoint>
          <Trackpoint>
            <Time>2018-04-21T13:50:24.000Z</Time>
            <Position>
              <LatitudeDegrees>43.292947299778461456298828125</LatitudeDegrees>
              <LongitudeDegrees>-8.2406380958855152130126953125</LongitudeDegrees>
            </Position>
            <AltitudeMeters>90.1999969482421875</AltitudeMeters>
            <DistanceMeters>76930.380092847</DistanceMeters>
          </Trackpoint>
          <Trackpoint>
            <Time>2018-04-21T13:50:26.000Z</Time>
            <Position>
              <LatitudeDegrees>43.2929052226245403289794921875</LatitudeDegrees>
              <LongitudeDegrees>-8.2407371699810028076171875</LongitudeDegrees>
            </Position>
            <AltitudeMeters>90.59999847412109375</AltitudeMeters>
            <DistanceMeters>76939.672325677</DistanceMeters>
          </Trackpoint>
          <Trackpoint>
            <Time>2018-04-21T13:50:29.000Z</Time>
            <Position>
              <LatitudeDegrees>43.29284881241619586944580078125</LatitudeDegrees>
              <LongitudeDegrees>-8.24089634232223033905029296875</LongitudeDegrees>
            </Position>
            <AltitudeMeters>89.59999847412109375</AltitudeMeters>
            <DistanceMeters>76954.014750207</DistanceMeters>
          </Trackpoint>
          <Trackpoint>
            <Time>2018-04-21T13:50:30.000Z</Time>
            <Position>
              <LatitudeDegrees>43.2928334735333919525146484375</LatitudeDegrees>
              <LongitudeDegrees>-8.2409502379596233367919921875</LongitudeDegrees>
            </Position>
            <AltitudeMeters>89.8000030517578125</AltitudeMeters>
            <DistanceMeters>76958.702948801</DistanceMeters>
          </Trackpoint>
          <Trackpoint>
            <Time>2018-04-21T13:50:33.000Z</Time>
            <Position>
              <LatitudeDegrees>43.29276532866060733795166015625</LatitudeDegrees>
              <LongitudeDegrees>-8.24109097011387348175048828125</LongitudeDegrees>
            </Position>
            <AltitudeMeters>89.59999847412109375</AltitudeMeters>
            <DistanceMeters>76972.396690709</DistanceMeters>
          </Trackpoint>
          <Trackpoint>
            <Time>2018-04-21T13:50:36.000Z</Time>
            <Position>
              <LatitudeDegrees>43.29267296008765697479248046875</LatitudeDegrees>
              <LongitudeDegrees>-8.24121057987213134765625</LongitudeDegrees>
            </Position>
            <AltitudeMeters>89.8000030517578125</AltitudeMeters>
            <DistanceMeters>76986.5240666</DistanceMeters>
          </Trackpoint>
          <Trackpoint>
            <Time>2018-04-21T13:50:40.000Z</Time>
            <Position>
              <LatitudeDegrees>43.292537592351436614990234375</LatitudeDegrees>
              <LongitudeDegrees>-8.24137679301202297210693359375</LongitudeDegrees>
            </Position>
            <AltitudeMeters>90.8000030517578125</AltitudeMeters>
            <DistanceMeters>77006.731045509</DistanceMeters>
          </Trackpoint>
          <Trackpoint>
            <Time>2018-04-21T13:50:43.000Z</Time>
            <Position>
              <LatitudeDegrees>43.29244229011237621307373046875</LatitudeDegrees>
              <LongitudeDegrees>-8.24150671251118183135986328125</LongitudeDegrees>
            </Position>
            <AltitudeMeters>90</AltitudeMeters>
            <DistanceMeters>77021.674128535</DistanceMeters>
          </Trackpoint>
          <Trackpoint>
            <Time>2018-04-21T13:50:50.000Z</Time>
            <Position>
              <LatitudeDegrees>43.2922480814158916473388671875</LatitudeDegrees>
              <LongitudeDegrees>-8.24186093173921108245849609375</LongitudeDegrees>
            </Position>
            <AltitudeMeters>90.40000152587890625</AltitudeMeters>
            <DistanceMeters>77057.600762201</DistanceMeters>
          </Trackpoint>
          <Trackpoint>
            <Time>2018-04-21T13:50:51.000Z</Time>
            <Position>
              <LatitudeDegrees>43.292223103344440460205078125</LatitudeDegrees>
              <LongitudeDegrees>-8.24192245490849018096923828125</LongitudeDegrees>
            </Position>
            <AltitudeMeters>90.1999969482421875</AltitudeMeters>
            <DistanceMeters>77063.308696662</DistanceMeters>
          </Trackpoint>
          <Trackpoint>
            <Time>2018-04-21T13:50:54.000Z</Time>
            <Position>
              <LatitudeDegrees>43.2921518571674823760986328125</LatitudeDegrees>
              <LongitudeDegrees>-8.24212227948009967803955078125</LongitudeDegrees>
            </Position>
            <AltitudeMeters>90</AltitudeMeters>
            <DistanceMeters>77081.334740897</DistanceMeters>
          </Trackpoint>
          <Trackpoint>
            <Time>2018-04-21T13:50:56.000Z</Time>
            <Position>
              <LatitudeDegrees>43.29209871590137481689453125</LatitudeDegrees>
              <LongitudeDegrees>-8.2422541268169879913330078125</LongitudeDegrees>
            </Position>
            <AltitudeMeters>89.8000030517578125</AltitudeMeters>
            <DistanceMeters>77093.544102139</DistanceMeters>
          </Trackpoint>
          <Trackpoint>
            <Time>2018-04-21T13:50:57.000Z</Time>
            <Position>
              <LatitudeDegrees>43.29206946305930614471435546875</LatitudeDegrees>
              <LongitudeDegrees>-8.24231254868209362030029296875</LongitudeDegrees>
            </Position>
            <AltitudeMeters>89.59999847412109375</AltitudeMeters>
            <DistanceMeters>77099.288307857</DistanceMeters>
          </Trackpoint>
          <Trackpoint>
            <Time>2018-04-21T13:51:03.000Z</Time>
            <Position>
              <LatitudeDegrees>43.2918930239975452423095703125</LatitudeDegrees>
              <LongitudeDegrees>-8.24263273738324642181396484375</LongitudeDegrees>
            </Position>
            <AltitudeMeters>90</AltitudeMeters>
            <DistanceMeters>77131.822990286</DistanceMeters>
          </Trackpoint>
          <Trackpoint>
            <Time>2018-04-21T13:51:06.000Z</Time>
            <Position>
              <LatitudeDegrees>43.291815407574176788330078125</LatitudeDegrees>
              <LongitudeDegrees>-8.24276265688240528106689453125</LongitudeDegrees>
            </Position>
            <AltitudeMeters>91</AltitudeMeters>
            <DistanceMeters>77145.440023358</DistanceMeters>
          </Trackpoint>
          <Trackpoint>
            <Time>2018-04-21T13:51:09.000Z</Time>
            <Position>
              <LatitudeDegrees>43.29171717166900634765625</LatitudeDegrees>
              <LongitudeDegrees>-8.24285368435084819793701171875</LongitudeDegrees>
            </Position>
            <AltitudeMeters>91.1999969482421875</AltitudeMeters>
            <DistanceMeters>77158.628553696</DistanceMeters>
          </Trackpoint>
          <Trackpoint>
            <Time>2018-04-21T13:51:15.000Z</Time>
            <Position>
              <LatitudeDegrees>43.2915694825351238250732421875</LatitudeDegrees>
              <LongitudeDegrees>-8.2430470548570156097412109375</LongitudeDegrees>
            </Position>
            <AltitudeMeters>92.40000152587890625</AltitudeMeters>
            <DistanceMeters>77181.335962069</DistanceMeters>
          </Trackpoint>
          <Trackpoint>
            <Time>2018-04-21T13:51:23.000Z</Time>
            <Position>
              <LatitudeDegrees>43.2914046943187713623046875</LatitudeDegrees>
              <LongitudeDegrees>-8.2433323748409748077392578125</LongitudeDegrees>
            </Position>
            <AltitudeMeters>93.40000152587890625</AltitudeMeters>
            <DistanceMeters>77210.843707848</DistanceMeters>
          </Trackpoint>
          <Trackpoint>
            <Time>2018-04-21T13:51:25.000Z</Time>
            <Position>
              <LatitudeDegrees>43.29137317836284637451171875</LatitudeDegrees>
              <LongitudeDegrees>-8.2434228993952274322509765625</LongitudeDegrees>
            </Position>
            <AltitudeMeters>93.59999847412109375</AltitudeMeters>
            <DistanceMeters>77218.972797552</DistanceMeters>
          </Trackpoint>
          <Trackpoint>
            <Time>2018-04-21T13:51:30.000Z</Time>
            <Position>
              <LatitudeDegrees>43.2912866771221160888671875</LatitudeDegrees>
              <LongitudeDegrees>-8.24367217719554901123046875</LongitudeDegrees>
            </Position>
            <AltitudeMeters>94.1999969482421875</AltitudeMeters>
            <DistanceMeters>77241.345484858</DistanceMeters>
          </Trackpoint>
          <Trackpoint>
            <Time>2018-04-21T13:51:36.000Z</Time>
            <Position>
              <LatitudeDegrees>43.29117326997220516204833984375</LatitudeDegrees>
              <LongitudeDegrees>-8.24396747164428234100341796875</LongitudeDegrees>
            </Position>
            <AltitudeMeters>96.1999969482421875</AltitudeMeters>
            <DistanceMeters>77268.394568277</DistanceMeters>
          </Trackpoint>
          <Trackpoint>
            <Time>2018-04-21T13:51:37.000Z</Time>
            <Position>
              <LatitudeDegrees>43.2911614514887332916259765625</LatitudeDegrees>
              <LongitudeDegrees>-8.2440133206546306610107421875</LongitudeDegrees>
            </Position>
            <AltitudeMeters>94.8000030517578125</AltitudeMeters>
            <DistanceMeters>77272.335600056</DistanceMeters>
          </Trackpoint>
          <Trackpoint>
            <Time>2018-04-21T13:51:38.000Z</Time>
            <Position>
              <LatitudeDegrees>43.29114929772913455963134765625</LatitudeDegrees>
              <LongitudeDegrees>-8.24406051076948642730712890625</LongitudeDegrees>
            </Position>
            <AltitudeMeters>96.40000152587890625</AltitudeMeters>
            <DistanceMeters>77276.39180509</DistanceMeters>
          </Trackpoint>
          <Trackpoint>
            <Time>2018-04-21T13:51:39.000Z</Time>
            <Position>
              <LatitudeDegrees>43.29113303683698177337646484375</LatitudeDegrees>
              <LongitudeDegrees>-8.24410828761756420135498046875</LongitudeDegrees>
            </Position>
            <AltitudeMeters>95.1999969482421875</AltitudeMeters>
            <DistanceMeters>77280.664838506</DistanceMeters>
          </Trackpoint>
          <Trackpoint>
            <Time>2018-04-21T13:51:44.000Z</Time>
            <Position>
              <LatitudeDegrees>43.29104435630142688751220703125</LatitudeDegrees>
              <LongitudeDegrees>-8.244325630366802215576171875</LongitudeDegrees>
            </Position>
            <AltitudeMeters>96.40000152587890625</AltitudeMeters>
            <DistanceMeters>77300.850355821</DistanceMeters>
          </Trackpoint>
          <Trackpoint>
            <Time>2018-04-21T13:51:46.000Z</Time>
            <Position>
              <LatitudeDegrees>43.2910203002393245697021484375</LatitudeDegrees>
              <LongitudeDegrees>-8.244394697248935699462890625</LongitudeDegrees>
            </Position>
            <AltitudeMeters>96.59999847412109375</AltitudeMeters>
            <DistanceMeters>77307.053351527</DistanceMeters>
          </Trackpoint>
          <Trackpoint>
            <Time>2018-04-21T13:51:49.000Z</Time>
            <Position>
              <LatitudeDegrees>43.2909904606640338897705078125</LatitudeDegrees>
              <LongitudeDegrees>-8.24450173415243625640869140625</LongitudeDegrees>
            </Position>
            <AltitudeMeters>97.40000152587890625</AltitudeMeters>
            <DistanceMeters>77316.339751801</DistanceMeters>
          </Trackpoint>
          <Trackpoint>
            <Time>2018-04-21T13:51:53.000Z</Time>
            <Position>
              <LatitudeDegrees>43.2909596152603626251220703125</LatitudeDegrees>
              <LongitudeDegrees>-8.244658894836902618408203125</LongitudeDegrees>
            </Position>
            <AltitudeMeters>98.40000152587890625</AltitudeMeters>
            <DistanceMeters>77329.527255061</DistanceMeters>
          </Trackpoint>
          <Trackpoint>
            <Time>2018-04-21T13:51:54.000Z</Time>
            <Position>
              <LatitudeDegrees>43.290960453450679779052734375</LatitudeDegrees>
              <LongitudeDegrees>-8.24470658786594867706298828125</LongitudeDegrees>
            </Position>
            <AltitudeMeters>98.59999847412109375</AltitudeMeters>
            <DistanceMeters>77333.393102512</DistanceMeters>
          </Trackpoint>
          <Trackpoint>
            <Time>2018-04-21T13:51:58.000Z</Time>
            <Position>
              <LatitudeDegrees>43.29093153588473796844482421875</LatitudeDegrees>
              <LongitudeDegrees>-8.24488780461251735687255859375</LongitudeDegrees>
            </Position>
            <AltitudeMeters>99.59999847412109375</AltitudeMeters>
            <DistanceMeters>77348.423252957</DistanceMeters>
          </Trackpoint>
          <Trackpoint>
            <Time>2018-04-21T13:52:01.000Z</Time>
            <Position>
              <LatitudeDegrees>43.29091041348874568939208984375</LatitudeDegrees>
              <LongitudeDegrees>-8.24502359144389629364013671875</LongitudeDegrees>
            </Position>
            <AltitudeMeters>99.8000030517578125</AltitudeMeters>
            <DistanceMeters>77359.672585883</DistanceMeters>
          </Trackpoint>
          <Trackpoint>
            <Time>2018-04-21T13:52:06.000Z</Time>
            <Position>
              <LatitudeDegrees>43.290881998836994171142578125</LatitudeDegrees>
              <LongitudeDegrees>-8.24528225697576999664306640625</LongitudeDegrees>
            </Position>
            <AltitudeMeters>100.40000152587890625</AltitudeMeters>
            <DistanceMeters>77380.865886766</DistanceMeters>
          </Trackpoint>
          <Trackpoint>
            <Time>2018-04-21T13:52:10.000Z</Time>
            <Position>
              <LatitudeDegrees>43.2908345572650432586669921875</LatitudeDegrees>
              <LongitudeDegrees>-8.24551963247358798980712890625</LongitudeDegrees>
            </Position>
            <AltitudeMeters>100.1999969482421875</AltitudeMeters>
            <DistanceMeters>77400.80836973</DistanceMeters>
          </Trackpoint>
          <Trackpoint>
            <Time>2018-04-21T13:52:12.000Z</Time>
            <Position>
              <LatitudeDegrees>43.290800191462039947509765625</LatitudeDegrees>
              <LongitudeDegrees>-8.24565567076206207275390625</LongitudeDegrees>
            </Position>
            <AltitudeMeters>99.8000030517578125</AltitudeMeters>
            <DistanceMeters>77412.473842374</DistanceMeters>
          </Trackpoint>
          <Trackpoint>
            <Time>2018-04-21T13:52:18.000Z</Time>
            <Position>
              <LatitudeDegrees>43.2907366566359996795654296875</LatitudeDegrees>
              <LongitudeDegrees>-8.24606202542781829833984375</LongitudeDegrees>
            </Position>
            <AltitudeMeters>99.59999847412109375</AltitudeMeters>
            <DistanceMeters>77446.145630388</DistanceMeters>
          </Trackpoint>
          <Trackpoint>
            <Time>2018-04-21T13:52:19.000Z</Time>
            <Position>
              <LatitudeDegrees>43.29073120839893817901611328125</LatitudeDegrees>
              <LongitudeDegrees>-8.2461279071867465972900390625</LongitudeDegrees>
            </Position>
            <AltitudeMeters>99.8000030517578125</AltitudeMeters>
            <DistanceMeters>77451.517792366</DistanceMeters>
          </Trackpoint>
          <Trackpoint>
            <Time>2018-04-21T13:52:24.000Z</Time>
            <Position>
              <LatitudeDegrees>43.29072399996221065521240234375</LatitudeDegrees>
              <LongitudeDegrees>-8.24645387940108776092529296875</LongitudeDegrees>
            </Position>
            <AltitudeMeters>99.8000030517578125</AltitudeMeters>
            <DistanceMeters>77477.938636967</DistanceMeters>
          </Trackpoint>
          <Trackpoint>
            <Time>2018-04-21T13:52:27.000Z</Time>
            <Position>
              <LatitudeDegrees>43.2907302863895893096923828125</LatitudeDegrees>
              <LongitudeDegrees>-8.24662637896835803985595703125</LongitudeDegrees>
            </Position>
            <AltitudeMeters>100</AltitudeMeters>
            <DistanceMeters>77491.93178449</DistanceMeters>
          </Trackpoint>
          <Trackpoint>
            <Time>2018-04-21T13:52:32.000Z</Time>
            <Position>
              <LatitudeDegrees>43.29075400717556476593017578125</LatitudeDegrees>
              <LongitudeDegrees>-8.24685470201075077056884765625</LongitudeDegrees>
            </Position>
            <AltitudeMeters>100.59999847412109375</AltitudeMeters>
            <DistanceMeters>77510.617042734</DistanceMeters>
          </Trackpoint>
          <Trackpoint>
            <Time>2018-04-21T13:52:34.000Z</Time>
            <Position>
              <LatitudeDegrees>43.290766663849353790283203125</LatitudeDegrees>
              <LongitudeDegrees>-8.2469570450484752655029296875</LongitudeDegrees>
            </Position>
            <AltitudeMeters>100.8000030517578125</AltitudeMeters>
            <DistanceMeters>77519.026772736</DistanceMeters>
          </Trackpoint>
          <Trackpoint>
            <Time>2018-04-21T13:52:40.000Z</Time>
            <Position>
              <LatitudeDegrees>43.2908251695334911346435546875</LatitudeDegrees>
              <LongitudeDegrees>-8.2472852803766727447509765625</LongitudeDegrees>
            </Position>
            <AltitudeMeters>101.1999969482421875</AltitudeMeters>
            <DistanceMeters>77546.404363301</DistanceMeters>
          </Trackpoint>
          <Trackpoint>
            <Time>2018-04-21T13:52:42.000Z</Time>
            <Position>
              <LatitudeDegrees>43.29084369353950023651123046875</LatitudeDegrees>
              <LongitudeDegrees>-8.24739466421306133270263671875</LongitudeDegrees>
            </Position>
            <AltitudeMeters>102</AltitudeMeters>
            <DistanceMeters>77555.502147684</DistanceMeters>
          </Trackpoint>
          <Trackpoint>
            <Time>2018-04-21T13:52:47.000Z</Time>
            <Position>
              <LatitudeDegrees>43.29089834354817867279052734375</LatitudeDegrees>
              <LongitudeDegrees>-8.247622065246105194091796875</LongitudeDegrees>
            </Position>
            <AltitudeMeters>102.59999847412109375</AltitudeMeters>
            <DistanceMeters>77574.902963294</DistanceMeters>
          </Trackpoint>
          <Trackpoint>
            <Time>2018-04-21T13:52:51.000Z</Time>
            <Position>
              <LatitudeDegrees>43.29091644845902919769287109375</LatitudeDegrees>
              <LongitudeDegrees>-8.24780068360269069671630859375</LongitudeDegrees>
            </Position>
            <AltitudeMeters>103</AltitudeMeters>
            <DistanceMeters>77589.513301314</DistanceMeters>
          </Trackpoint>
          <Trackpoint>
            <Time>2018-04-21T13:52:53.000Z</Time>
            <Position>
              <LatitudeDegrees>43.29089784063398838043212890625</LatitudeDegrees>
              <LongitudeDegrees>-8.24786907993257045745849609375</LongitudeDegrees>
            </Position>
            <AltitudeMeters>103.40000152587890625</AltitudeMeters>
            <DistanceMeters>77595.429429803</DistanceMeters>
          </Trackpoint>
          <Trackpoint>
            <Time>2018-04-21T13:52:56.000Z</Time>
            <Position>
              <LatitudeDegrees>43.29088141210377216339111328125</LatitudeDegrees>
              <LongitudeDegrees>-8.2479662261903285980224609375</LongitudeDegrees>
            </Position>
            <AltitudeMeters>104</AltitudeMeters>
            <DistanceMeters>77603.509494945</DistanceMeters>
          </Trackpoint>
          <Trackpoint>
            <Time>2018-04-21T13:52:59.000Z</Time>
            <Position>
              <LatitudeDegrees>43.29086548648774623870849609375</LatitudeDegrees>
              <LongitudeDegrees>-8.24804945848882198333740234375</LongitudeDegrees>
            </Position>
            <AltitudeMeters>104.59999847412109375</AltitudeMeters>
            <DistanceMeters>77610.480855746</DistanceMeters>
          </Trackpoint>
          <Trackpoint>
            <Time>2018-04-21T13:53:02.000Z</Time>
            <Position>
              <LatitudeDegrees>43.2908414304256439208984375</LatitudeDegrees>
              <LongitudeDegrees>-8.2481320202350616455078125</LongitudeDegrees>
            </Position>
            <AltitudeMeters>105.1999969482421875</AltitudeMeters>
            <DistanceMeters>77617.684733127</DistanceMeters>
          </Trackpoint>
          <Trackpoint>
            <Time>2018-04-21T13:53:06.000Z</Time>
            <Position>
              <LatitudeDegrees>43.2908050529658794403076171875</LatitudeDegrees>
              <LongitudeDegrees>-8.2482465170323848724365234375</LongitudeDegrees>
            </Position>
            <AltitudeMeters>106</AltitudeMeters>
            <DistanceMeters>77627.806305004</DistanceMeters>
          </Trackpoint>
          <Trackpoint>
            <Time>2018-04-21T13:53:08.000Z</Time>
            <Position>
              <LatitudeDegrees>43.29079491086304187774658203125</LatitudeDegrees>
              <LongitudeDegrees>-8.24830963276326656341552734375</LongitudeDegrees>
            </Position>
            <AltitudeMeters>106.40000152587890625</AltitudeMeters>
            <DistanceMeters>77633.042268343</DistanceMeters>
          </Trackpoint>
          <Trackpoint>
            <Time>2018-04-21T13:53:11.000Z</Time>
            <Position>
              <LatitudeDegrees>43.2907663285732269287109375</LatitudeDegrees>
              <LongitudeDegrees>-8.24839311651885509490966796875</LongitudeDegrees>
            </Position>
            <AltitudeMeters>106.8000030517578125</AltitudeMeters>
            <DistanceMeters>77640.516226657</DistanceMeters>
          </Trackpoint>
          <Trackpoint>
            <Time>2018-04-21T13:53:13.000Z</Time>
            <Position>
              <LatitudeDegrees>43.29074244014918804168701171875</LatitudeDegrees>
              <LongitudeDegrees>-8.248454220592975616455078125</LongitudeDegrees>
            </Position>
            <AltitudeMeters>107.40000152587890625</AltitudeMeters>
            <DistanceMeters>77646.134869487</DistanceMeters>
          </Trackpoint>
          <Trackpoint>
            <Time>2018-04-21T13:53:17.000Z</Time>
            <Position>
              <LatitudeDegrees>43.2907175458967685699462890625</LatitudeDegrees>
              <LongitudeDegrees>-8.24856578372418880462646484375</LongitudeDegrees>
            </Position>
            <AltitudeMeters>108.40000152587890625</AltitudeMeters>
            <DistanceMeters>77655.588953083</DistanceMeters>
          </Trackpoint>
          <Trackpoint>
            <Time>2018-04-21T13:53:18.000Z</Time>
            <Position>
              <LatitudeDegrees>43.290710337460041046142578125</LatitudeDegrees>
              <LongitudeDegrees>-8.24858975596725940704345703125</LongitudeDegrees>
            </Position>
            <AltitudeMeters>108.59999847412109375</AltitudeMeters>
            <DistanceMeters>77657.692459074</DistanceMeters>
          </Trackpoint>
          <Trackpoint>
            <Time>2018-04-21T13:53:23.000Z</Time>
            <Position>
              <LatitudeDegrees>43.2906867004930973052978515625</LatitudeDegrees>
              <LongitudeDegrees>-8.24872872792184352874755859375</LongitudeDegrees>
            </Position>
            <AltitudeMeters>110</AltitudeMeters>
            <DistanceMeters>77669.254519949</DistanceMeters>
          </Trackpoint>
          <Trackpoint>
            <Time>2018-04-21T13:53:25.000Z</Time>
            <Position>
              <LatitudeDegrees>43.29067873768508434295654296875</LatitudeDegrees>
              <LongitudeDegrees>-8.24878941290080547332763671875</LongitudeDegrees>
            </Position>
            <AltitudeMeters>110.1999969482421875</AltitudeMeters>
            <DistanceMeters>77674.250431407</DistanceMeters>
          </Trackpoint>
          <Trackpoint>
            <Time>2018-04-21T13:53:29.000Z</Time>
            <Position>
              <LatitudeDegrees>43.29068477265536785125732421875</LatitudeDegrees>
              <LongitudeDegrees>-8.24890784919261932373046875</LongitudeDegrees>
            </Position>
            <AltitudeMeters>111.1999969482421875</AltitudeMeters>
            <DistanceMeters>77683.869275581</DistanceMeters>
          </Trackpoint>
          <Trackpoint>
            <Time>2018-04-21T13:53:31.000Z</Time>
            <Position>
              <LatitudeDegrees>43.2906816713511943817138671875</LatitudeDegrees>
              <LongitudeDegrees>-8.24897364713251590728759765625</LongitudeDegrees>
            </Position>
            <AltitudeMeters>111.8000030517578125</AltitudeMeters>
            <DistanceMeters>77689.211095642</DistanceMeters>
          </Trackpoint>
          <Trackpoint>
            <Time>2018-04-21T13:53:33.000Z</Time>
            <Position>
              <LatitudeDegrees>43.29068393446505069732666015625</LatitudeDegrees>
              <LongitudeDegrees>-8.24904690496623516082763671875</LongitudeDegrees>
            </Position>
            <AltitudeMeters>112.1999969482421875</AltitudeMeters>
            <DistanceMeters>77695.151595515</DistanceMeters>
          </Trackpoint>
          <Trackpoint>
            <Time>2018-04-21T13:53:39.000Z</Time>
            <Position>
              <LatitudeDegrees>43.2906830124557018280029296875</LatitudeDegrees>
              <LongitudeDegrees>-8.24926533736288547515869140625</LongitudeDegrees>
            </Position>
            <AltitudeMeters>113</AltitudeMeters>
            <DistanceMeters>77712.848519294</DistanceMeters>
          </Trackpoint>
          <Trackpoint>
            <Time>2018-04-21T13:53:41.000Z</Time>
            <Position>
              <LatitudeDegrees>43.290688209235668182373046875</LatitudeDegrees>
              <LongitudeDegrees>-8.2493395172059535980224609375</LongitudeDegrees>
            </Position>
            <AltitudeMeters>113.40000152587890625</AltitudeMeters>
            <DistanceMeters>77718.886268759</DistanceMeters>
          </Trackpoint>
          <Trackpoint>
            <Time>2018-04-21T13:53:45.000Z</Time>
            <Position>
              <LatitudeDegrees>43.2906947471201419830322265625</LatitudeDegrees>
              <LongitudeDegrees>-8.2494994439184665679931640625</LongitudeDegrees>
            </Position>
            <AltitudeMeters>114.40000152587890625</AltitudeMeters>
            <DistanceMeters>77731.862896423</DistanceMeters>
          </Trackpoint>
          <Trackpoint>
            <Time>2018-04-21T13:53:46.000Z</Time>
            <Position>
              <LatitudeDegrees>43.29069793224334716796875</LatitudeDegrees>
              <LongitudeDegrees>-8.24953925795853137969970703125</LongitudeDegrees>
            </Position>
            <AltitudeMeters>114.40000152587890625</AltitudeMeters>
            <DistanceMeters>77735.107749136</DistanceMeters>
          </Trackpoint>
          <Trackpoint>
            <Time>2018-04-21T13:53:54.000Z</Time>
            <Position>
              <LatitudeDegrees>43.29069063998758792877197265625</LatitudeDegrees>
              <LongitudeDegrees>-8.2498893700540065765380859375</LongitudeDegrees>
            </Position>
            <AltitudeMeters>114.40000152587890625</AltitudeMeters>
            <DistanceMeters>77763.483687118</DistanceMeters>
          </Trackpoint>
          <Trackpoint>
            <Time>2018-04-21T13:53:55.000Z</Time>
            <Position>
              <LatitudeDegrees>43.29068561084568500518798828125</LatitudeDegrees>
              <LongitudeDegrees>-8.24993739835917949676513671875</LongitudeDegrees>
            </Position>
            <AltitudeMeters>114.59999847412109375</AltitudeMeters>
            <DistanceMeters>77767.415543025</DistanceMeters>
          </Trackpoint>
          <Trackpoint>
            <Time>2018-04-21T13:54:02.000Z</Time>
            <Position>
              <LatitudeDegrees>43.2906806655228137969970703125</LatitudeDegrees>
              <LongitudeDegrees>-8.2503077946603298187255859375</LongitudeDegrees>
            </Position>
            <AltitudeMeters>114</AltitudeMeters>
            <DistanceMeters>77797.428343385</DistanceMeters>
          </Trackpoint>
          <Trackpoint>
            <Time>2018-04-21T13:54:06.000Z</Time>
            <Position>
              <LatitudeDegrees>43.2907068170607089996337890625</LatitudeDegrees>
              <LongitudeDegrees>-8.2505528815090656280517578125</LongitudeDegrees>
            </Position>
            <AltitudeMeters>113.59999847412109375</AltitudeMeters>
            <DistanceMeters>77817.496086636</DistanceMeters>
          </Trackpoint>
          <Trackpoint>
            <Time>2018-04-21T13:54:09.000Z</Time>
            <Position>
              <LatitudeDegrees>43.29071897082030773162841796875</LatitudeDegrees>
              <LongitudeDegrees>-8.25073518790304660797119140625</LongitudeDegrees>
            </Position>
            <AltitudeMeters>113.59999847412109375</AltitudeMeters>
            <DistanceMeters>77832.327562023</DistanceMeters>
          </Trackpoint>
          <Trackpoint>
            <Time>2018-04-21T13:54:11.000Z</Time>
            <Position>
              <LatitudeDegrees>43.29070539213716983795166015625</LatitudeDegrees>
              <LongitudeDegrees>-8.2508623413741588592529296875</LongitudeDegrees>
            </Position>
            <AltitudeMeters>113.1999969482421875</AltitudeMeters>
            <DistanceMeters>77842.738951826</DistanceMeters>
          </Trackpoint>
          <Trackpoint>
            <Time>2018-04-21T13:54:15.000Z</Time>
            <Position>
              <LatitudeDegrees>43.29066230915486812591552734375</LatitudeDegrees>
              <LongitudeDegrees>-8.2511188276112079620361328125</LongitudeDegrees>
            </Position>
            <AltitudeMeters>113.40000152587890625</AltitudeMeters>
            <DistanceMeters>77864.064352406</DistanceMeters>
          </Trackpoint>
          <Trackpoint>
            <Time>2018-04-21T13:54:18.000Z</Time>
            <Position>
              <LatitudeDegrees>43.2906349003314971923828125</LatitudeDegrees>
              <LongitudeDegrees>-8.25130398385226726531982421875</LongitudeDegrees>
            </Position>
            <AltitudeMeters>113.40000152587890625</AltitudeMeters>
            <DistanceMeters>77879.372209334</DistanceMeters>
          </Trackpoint>
          <Trackpoint>
            <Time>2018-04-21T13:54:22.000Z</Time>
            <Position>
              <LatitudeDegrees>43.29059131443500518798828125</LatitudeDegrees>
              <LongitudeDegrees>-8.25159617699682712554931640625</LongitudeDegrees>
            </Position>
            <AltitudeMeters>113</AltitudeMeters>
            <DistanceMeters>77903.536290177</DistanceMeters>
          </Trackpoint>
          <Trackpoint>
            <Time>2018-04-21T13:54:24.000Z</Time>
            <Position>
              <LatitudeDegrees>43.2905758917331695556640625</LatitudeDegrees>
              <LongitudeDegrees>-8.251773454248905181884765625</LongitudeDegrees>
            </Position>
            <AltitudeMeters>112</AltitudeMeters>
            <DistanceMeters>77918.000966849</DistanceMeters>
          </Trackpoint>
          <Trackpoint>
            <Time>2018-04-21T13:54:27.000Z</Time>
            <Position>
              <LatitudeDegrees>43.29053741879761219024658203125</LatitudeDegrees>
              <LongitudeDegrees>-8.25208115391433238983154296875</LongitudeDegrees>
            </Position>
            <AltitudeMeters>111.1999969482421875</AltitudeMeters>
            <DistanceMeters>77943.294500724</DistanceMeters>
          </Trackpoint>
          <Trackpoint>
            <Time>2018-04-21T13:54:28.000Z</Time>
            <Position>
              <LatitudeDegrees>43.29052283428609371185302734375</LatitudeDegrees>
              <LongitudeDegrees>-8.2521890290081501007080078125</LongitudeDegrees>
            </Position>
            <AltitudeMeters>110</AltitudeMeters>
            <DistanceMeters>77952.183943843</DistanceMeters>
          </Trackpoint>
          <Trackpoint>
            <Time>2018-04-21T13:54:31.000Z</Time>
            <Position>
              <LatitudeDegrees>43.29045628197491168975830078125</LatitudeDegrees>
              <LongitudeDegrees>-8.25248717330396175384521484375</LongitudeDegrees>
            </Position>
            <AltitudeMeters>109.40000152587890625</AltitudeMeters>
            <DistanceMeters>77977.448543256</DistanceMeters>
          </Trackpoint>
          <Trackpoint>
            <Time>2018-04-21T13:54:32.000Z</Time>
            <Position>
              <LatitudeDegrees>43.29040364362299442291259765625</LatitudeDegrees>
              <LongitudeDegrees>-8.252562023699283599853515625</LongitudeDegrees>
            </Position>
            <AltitudeMeters>109.1999969482421875</AltitudeMeters>
            <DistanceMeters>77985.880256714</DistanceMeters>
          </Trackpoint>
          <Trackpoint>
            <Time>2018-04-21T13:54:34.000Z</Time>
            <Position>
              <LatitudeDegrees>43.2902769930660724639892578125</LatitudeDegrees>
              <LongitudeDegrees>-8.2526517100632190704345703125</LongitudeDegrees>
            </Position>
            <AltitudeMeters>109</AltitudeMeters>
            <DistanceMeters>78001.739472306</DistanceMeters>
          </Trackpoint>
          <Trackpoint>
            <Time>2018-04-21T13:54:35.000Z</Time>
            <Position>
              <LatitudeDegrees>43.29021153040230274200439453125</LatitudeDegrees>
              <LongitudeDegrees>-8.25266839005053043365478515625</LongitudeDegrees>
            </Position>
            <AltitudeMeters>108.8000030517578125</AltitudeMeters>
            <DistanceMeters>78009.149728365</DistanceMeters>
          </Trackpoint>
          <Trackpoint>
            <Time>2018-04-21T13:54:37.000Z</Time>
            <Position>
              <LatitudeDegrees>43.29009016044437885284423828125</LatitudeDegrees>
              <LongitudeDegrees>-8.2527043484151363372802734375</LongitudeDegrees>
            </Position>
            <AltitudeMeters>107.59999847412109375</AltitudeMeters>
            <DistanceMeters>78022.969174328</DistanceMeters>
          </Trackpoint>
          <Trackpoint>
            <Time>2018-04-21T13:54:38.000Z</Time>
            <Position>
              <LatitudeDegrees>43.29003299586474895477294921875</LatitudeDegrees>
              <LongitudeDegrees>-8.2527387142181396484375</LongitudeDegrees>
            </Position>
            <AltitudeMeters>107.59999847412109375</AltitudeMeters>
            <DistanceMeters>78029.913280333</DistanceMeters>
          </Trackpoint>
          <Trackpoint>
            <Time>2018-04-21T13:54:40.000Z</Time>
            <Position>
              <LatitudeDegrees>43.28992721624672412872314453125</LatitudeDegrees>
              <LongitudeDegrees>-8.25281046330928802490234375</LongitudeDegrees>
            </Position>
            <AltitudeMeters>107.59999847412109375</AltitudeMeters>
            <DistanceMeters>78043.0434829</DistanceMeters>
          </Trackpoint>
          <Trackpoint>
            <Time>2018-04-21T13:54:45.000Z</Time>
            <Position>
              <LatitudeDegrees>43.2897130586206912994384765625</LatitudeDegrees>
              <LongitudeDegrees>-8.2529209367930889129638671875</LongitudeDegrees>
            </Position>
            <AltitudeMeters>108.40000152587890625</AltitudeMeters>
            <DistanceMeters>78068.504613824</DistanceMeters>
          </Trackpoint>
          <Trackpoint>
            <Time>2018-04-21T13:54:46.000Z</Time>
            <Position>
              <LatitudeDegrees>43.28967626206576824188232421875</LatitudeDegrees>
              <LongitudeDegrees>-8.2529387064278125762939453125</LongitudeDegrees>
            </Position>
            <AltitudeMeters>108.59999847412109375</AltitudeMeters>
            <DistanceMeters>78072.845785272</DistanceMeters>
          </Trackpoint>
          <Trackpoint>
            <Time>2018-04-21T13:54:52.000Z</Time>
            <Position>
              <LatitudeDegrees>43.2894468493759632110595703125</LatitudeDegrees>
              <LongitudeDegrees>-8.2530473358929157257080078125</LongitudeDegrees>
            </Position>
            <AltitudeMeters>108.8000030517578125</AltitudeMeters>
            <DistanceMeters>78099.854109454</DistanceMeters>
          </Trackpoint>
          <Trackpoint>
            <Time>2018-04-21T13:54:53.000Z</Time>
            <Position>
              <LatitudeDegrees>43.28940577805042266845703125</LatitudeDegrees>
              <LongitudeDegrees>-8.25306124985218048095703125</LongitudeDegrees>
            </Position>
            <AltitudeMeters>108.59999847412109375</AltitudeMeters>
            <DistanceMeters>78104.56344781</DistanceMeters>
          </Trackpoint>
          <Trackpoint>
            <Time>2018-04-21T13:55:00.000Z</Time>
            <Position>
              <LatitudeDegrees>43.28912557102739810943603515625</LatitudeDegrees>
              <LongitudeDegrees>-8.25311916880309581756591796875</LongitudeDegrees>
            </Position>
            <AltitudeMeters>108.8000030517578125</AltitudeMeters>
            <DistanceMeters>78136.102011196</DistanceMeters>
          </Trackpoint>
          <Trackpoint>
            <Time>2018-04-21T13:55:07.000Z</Time>
            <Position>
              <LatitudeDegrees>43.28884025104343891143798828125</LatitudeDegrees>
              <LongitudeDegrees>-8.2531137205660343170166015625</LongitudeDegrees>
            </Position>
            <AltitudeMeters>108.40000152587890625</AltitudeMeters>
            <DistanceMeters>78167.86198064</DistanceMeters>
          </Trackpoint>
          <Trackpoint>
            <Time>2018-04-21T13:55:11.000Z</Time>
            <Position>
              <LatitudeDegrees>43.28868937678635120391845703125</LatitudeDegrees>
              <LongitudeDegrees>-8.25324875302612781524658203125</LongitudeDegrees>
            </Position>
            <AltitudeMeters>107.59999847412109375</AltitudeMeters>
            <DistanceMeters>78187.903833358</DistanceMeters>
          </Trackpoint>
          <Trackpoint>
            <Time>2018-04-21T13:55:12.000Z</Time>
            <Position>
              <LatitudeDegrees>43.2886755466461181640625</LatitudeDegrees>
              <LongitudeDegrees>-8.253274820744991302490234375</LongitudeDegrees>
            </Position>
            <AltitudeMeters>107.40000152587890625</AltitudeMeters>
            <DistanceMeters>78190.516636028</DistanceMeters>
          </Trackpoint>
          <Trackpoint>
            <Time>2018-04-21T13:55:13.000Z</Time>
            <Position>
              <LatitudeDegrees>43.28866481781005859375</LatitudeDegrees>
              <LongitudeDegrees>-8.25329451821744441986083984375</LongitudeDegrees>
            </Position>
            <AltitudeMeters>107</AltitudeMeters>
            <DistanceMeters>78192.509933205</DistanceMeters>
          </Trackpoint>
          <Trackpoint>
            <Time>2018-04-21T13:55:15.000Z</Time>
            <Position>
              <LatitudeDegrees>43.28865886665880680084228515625</LatitudeDegrees>
              <LongitudeDegrees>-8.25335226953029632568359375</LongitudeDegrees>
            </Position>
            <AltitudeMeters>106.8000030517578125</AltitudeMeters>
            <DistanceMeters>78197.234586522</DistanceMeters>
          </Trackpoint>
          <Trackpoint>
            <Time>2018-04-21T13:55:19.000Z</Time>
            <Position>
              <LatitudeDegrees>43.2887270115315914154052734375</LatitudeDegrees>
              <LongitudeDegrees>-8.25349803082644939422607421875</LongitudeDegrees>
            </Position>
            <AltitudeMeters>106.59999847412109375</AltitudeMeters>
            <DistanceMeters>78211.269938945</DistanceMeters>
          </Trackpoint>
          <Trackpoint>
            <Time>2018-04-21T13:55:24.000Z</Time>
            <Position>
              <LatitudeDegrees>43.2888607867062091827392578125</LatitudeDegrees>
              <LongitudeDegrees>-8.2537083327770233154296875</LongitudeDegrees>
            </Position>
            <AltitudeMeters>106</AltitudeMeters>
            <DistanceMeters>78233.897274279</DistanceMeters>
          </Trackpoint>
          <Trackpoint>
            <Time>2018-04-21T13:55:25.000Z</Time>
            <Position>
              <LatitudeDegrees>43.2888855971395969390869140625</LatitudeDegrees>
              <LongitudeDegrees>-8.25375669635832309722900390625</LongitudeDegrees>
            </Position>
            <AltitudeMeters>106.40000152587890625</AltitudeMeters>
            <DistanceMeters>78238.691181302</DistanceMeters>
          </Trackpoint>
          <Trackpoint>
            <Time>2018-04-21T13:55:32.000Z</Time>
            <Position>
              <LatitudeDegrees>43.289090283215045928955078125</LatitudeDegrees>
              <LongitudeDegrees>-8.2541549205780029296875</LongitudeDegrees>
            </Position>
            <AltitudeMeters>105.59999847412109375</AltitudeMeters>
            <DistanceMeters>78278.186986338</DistanceMeters>
          </Trackpoint>
          <Trackpoint>
            <Time>2018-04-21T13:55:37.000Z</Time>
            <Position>
              <LatitudeDegrees>43.2892456836998462677001953125</LatitudeDegrees>
              <LongitudeDegrees>-8.2544280029833316802978515625</LongitudeDegrees>
            </Position>
            <AltitudeMeters>105.59999847412109375</AltitudeMeters>
            <DistanceMeters>78306.269912758</DistanceMeters>
          </Trackpoint>
          <Trackpoint>
            <Time>2018-04-21T13:55:38.000Z</Time>
            <Position>
              <LatitudeDegrees>43.28928373754024505615234375</LatitudeDegrees>
              <LongitudeDegrees>-8.25446630828082561492919921875</LongitudeDegrees>
            </Position>
            <AltitudeMeters>105.40000152587890625</AltitudeMeters>
            <DistanceMeters>78311.521374789</DistanceMeters>
          </Trackpoint>
          <Trackpoint>
            <Time>2018-04-21T13:55:40.000Z</Time>
            <Position>
              <LatitudeDegrees>43.2893348671495914459228515625</LatitudeDegrees>
              <LongitudeDegrees>-8.25456907041370868682861328125</LongitudeDegrees>
            </Position>
            <AltitudeMeters>106</AltitudeMeters>
            <DistanceMeters>78321.605853998</DistanceMeters>
          </Trackpoint>
          <Trackpoint>
            <Time>2018-04-21T13:55:44.000Z</Time>
            <Position>
              <LatitudeDegrees>43.28939546830952167510986328125</LatitudeDegrees>
              <LongitudeDegrees>-8.25469471514225006103515625</LongitudeDegrees>
            </Position>
            <AltitudeMeters>105.59999847412109375</AltitudeMeters>
            <DistanceMeters>78333.817433846</DistanceMeters>
          </Trackpoint>
          <Trackpoint>
            <Time>2018-04-21T13:55:45.000Z</Time>
            <Position>
              <LatitudeDegrees>43.2894082926213741302490234375</LatitudeDegrees>
              <LongitudeDegrees>-8.254714496433734893798828125</LongitudeDegrees>
            </Position>
            <AltitudeMeters>105.59999847412109375</AltitudeMeters>
            <DistanceMeters>78335.965542098</DistanceMeters>
          </Trackpoint>
          <Trackpoint>
            <Time>2018-04-21T13:55:48.000Z</Time>
            <Position>
              <LatitudeDegrees>43.28942346386611461639404296875</LatitudeDegrees>
              <LongitudeDegrees>-8.25476235710084438323974609375</LongitudeDegrees>
            </Position>
            <AltitudeMeters>105.8000030517578125</AltitudeMeters>
            <DistanceMeters>78340.195031599</DistanceMeters>
          </Trackpoint>
          <Trackpoint>
            <Time>2018-04-21T13:55:49.000Z</Time>
            <Position>
              <LatitudeDegrees>43.28943033702671527862548828125</LatitudeDegrees>
              <LongitudeDegrees>-8.25477995909750461578369140625</LongitudeDegrees>
            </Position>
            <AltitudeMeters>105.8000030517578125</AltitudeMeters>
            <DistanceMeters>78341.813278233</DistanceMeters>
          </Trackpoint>
          <Trackpoint>
            <Time>2018-04-21T13:55:54.000Z</Time>
            <Position>
              <LatitudeDegrees>43.28944743610918521881103515625</LatitudeDegrees>
              <LongitudeDegrees>-8.25481432490050792694091796875</LongitudeDegrees>
            </Position>
            <AltitudeMeters>105.8000030517578125</AltitudeMeters>
            <DistanceMeters>78345.185053173</DistanceMeters>
          </Trackpoint>
          <Trackpoint>
            <Time>2018-04-21T13:55:59.000Z</Time>
            <Position>
              <LatitudeDegrees>43.28940502367913722991943359375</LatitudeDegrees>
              <LongitudeDegrees>-8.25481541454792022705078125</LongitudeDegrees>
            </Position>
            <AltitudeMeters>106</AltitudeMeters>
            <DistanceMeters>78349.905882407</DistanceMeters>
          </Trackpoint>
          <Trackpoint>
            <Time>2018-04-21T13:56:04.000Z</Time>
            <Position>
              <LatitudeDegrees>43.2893992401659488677978515625</LatitudeDegrees>
              <LongitudeDegrees>-8.25480611063539981842041015625</LongitudeDegrees>
            </Position>
            <AltitudeMeters>105.8000030517578125</AltitudeMeters>
            <DistanceMeters>78350.902530996</DistanceMeters>
          </Trackpoint>
          <Trackpoint>
            <Time>2018-04-21T13:56:05.000Z</Time>
            <Position>
              <LatitudeDegrees>43.2893989048898220062255859375</LatitudeDegrees>
              <LongitudeDegrees>-8.25481030158698558807373046875</LongitudeDegrees>
            </Position>
            <AltitudeMeters>105.8000030517578125</AltitudeMeters>
            <DistanceMeters>78351.258088404</DistanceMeters>
          </Trackpoint>
          <Trackpoint>
            <Time>2018-04-21T13:56:07.000Z</Time>
            <Position>
              <LatitudeDegrees>43.28935875557363033294677734375</LatitudeDegrees>
              <LongitudeDegrees>-8.25480979867279529571533203125</LongitudeDegrees>
            </Position>
            <AltitudeMeters>105.8000030517578125</AltitudeMeters>
            <DistanceMeters>78355.726365366</DistanceMeters>
          </Trackpoint>
          <Trackpoint>
            <Time>2018-04-21T13:56:09.000Z</Time>
            <Position>
              <LatitudeDegrees>43.28931332565844058990478515625</LatitudeDegrees>
              <LongitudeDegrees>-8.2548511214554309844970703125</LongitudeDegrees>
            </Position>
            <AltitudeMeters>105.59999847412109375</AltitudeMeters>
            <DistanceMeters>78361.790231401</DistanceMeters>
          </Trackpoint>
          <Trackpoint>
            <Time>2018-04-21T13:56:11.000Z</Time>
            <Position>
              <LatitudeDegrees>43.2893020100891590118408203125</LatitudeDegrees>
              <LongitudeDegrees>-8.25492940843105316162109375</LongitudeDegrees>
            </Position>
            <AltitudeMeters>105.8000030517578125</AltitudeMeters>
            <DistanceMeters>78368.256238974</DistanceMeters>
          </Trackpoint>
          <Trackpoint>
            <Time>2018-04-21T13:56:13.000Z</Time>
            <Position>
              <LatitudeDegrees>43.2893107272684574127197265625</LatitudeDegrees>
              <LongitudeDegrees>-8.25502865016460418701171875</LongitudeDegrees>
            </Position>
            <AltitudeMeters>105.8000030517578125</AltitudeMeters>
            <DistanceMeters>78376.354723104</DistanceMeters>
          </Trackpoint>
          <Trackpoint>
            <Time>2018-04-21T13:56:16.000Z</Time>
            <Position>
              <LatitudeDegrees>43.2893016748130321502685546875</LatitudeDegrees>
              <LongitudeDegrees>-8.2551781833171844482421875</LongitudeDegrees>
            </Position>
            <AltitudeMeters>106.40000152587890625</AltitudeMeters>
            <DistanceMeters>78388.511459142</DistanceMeters>
          </Trackpoint>
          <Trackpoint>
            <Time>2018-04-21T13:56:21.000Z</Time>
            <Position>
              <LatitudeDegrees>43.2892111502587795257568359375</LatitudeDegrees>
              <LongitudeDegrees>-8.255381695926189422607421875</LongitudeDegrees>
            </Position>
            <AltitudeMeters>107</AltitudeMeters>
            <DistanceMeters>78407.834388547</DistanceMeters>
          </Trackpoint>
          <Trackpoint>
            <Time>2018-04-21T13:56:28.000Z</Time>
            <Position>
              <LatitudeDegrees>43.28912741504609584808349609375</LatitudeDegrees>
              <LongitudeDegrees>-8.25560825876891613006591796875</LongitudeDegrees>
            </Position>
            <AltitudeMeters>106.8000030517578125</AltitudeMeters>
            <DistanceMeters>78428.420342193</DistanceMeters>
          </Trackpoint>
          <Trackpoint>
            <Time>2018-04-21T13:56:32.000Z</Time>
            <Position>
              <LatitudeDegrees>43.28909288160502910614013671875</LatitudeDegrees>
              <LongitudeDegrees>-8.2558220811188220977783203125</LongitudeDegrees>
            </Position>
            <AltitudeMeters>107.1999969482421875</AltitudeMeters>
            <DistanceMeters>78446.164656929</DistanceMeters>
          </Trackpoint>
          <Trackpoint>
            <Time>2018-04-21T13:56:34.000Z</Time>
            <Position>
              <LatitudeDegrees>43.28906471841037273406982421875</LatitudeDegrees>
              <LongitudeDegrees>-8.25594286434352397918701171875</LongitudeDegrees>
            </Position>
            <AltitudeMeters>107.40000152587890625</AltitudeMeters>
            <DistanceMeters>78456.439852975</DistanceMeters>
          </Trackpoint>
          <Trackpoint>
            <Time>2018-04-21T13:56:37.000Z</Time>
            <Position>
              <LatitudeDegrees>43.28901895321905612945556640625</LatitudeDegrees>
              <LongitudeDegrees>-8.2561110891401767730712890625</LongitudeDegrees>
            </Position>
            <AltitudeMeters>107.40000152587890625</AltitudeMeters>
            <DistanceMeters>78470.989184643</DistanceMeters>
          </Trackpoint>
          <Trackpoint>
            <Time>2018-04-21T13:56:39.000Z</Time>
            <Position>
              <LatitudeDegrees>43.288995735347270965576171875</LatitudeDegrees>
              <LongitudeDegrees>-8.2562257535755634307861328125</LongitudeDegrees>
            </Position>
            <AltitudeMeters>107.8000030517578125</AltitudeMeters>
            <DistanceMeters>78480.631470009</DistanceMeters>
          </Trackpoint>
          <Trackpoint>
            <Time>2018-04-21T13:56:42.000Z</Time>
            <Position>
              <LatitudeDegrees>43.2889845035970211029052734375</LatitudeDegrees>
              <LongitudeDegrees>-8.25640034861862659454345703125</LongitudeDegrees>
            </Position>
            <AltitudeMeters>107.8000030517578125</AltitudeMeters>
            <DistanceMeters>78494.832162497</DistanceMeters>
          </Trackpoint>
          <Trackpoint>
            <Time>2018-04-21T13:56:44.000Z</Time>
            <Position>
              <LatitudeDegrees>43.2890304364264011383056640625</LatitudeDegrees>
              <LongitudeDegrees>-8.2564953155815601348876953125</LongitudeDegrees>
            </Position>
            <AltitudeMeters>108</AltitudeMeters>
            <DistanceMeters>78504.070792403</DistanceMeters>
          </Trackpoint>
          <Trackpoint>
            <Time>2018-04-21T13:56:46.000Z</Time>
            <Position>
              <LatitudeDegrees>43.28907963819801807403564453125</LatitudeDegrees>
              <LongitudeDegrees>-8.256586678326129913330078125</LongitudeDegrees>
            </Position>
            <AltitudeMeters>108.40000152587890625</AltitudeMeters>
            <DistanceMeters>78513.278091554</DistanceMeters>
          </Trackpoint>
          <Trackpoint>
            <Time>2018-04-21T13:56:52.000Z</Time>
            <Position>
              <LatitudeDegrees>43.28921131789684295654296875</LatitudeDegrees>
              <LongitudeDegrees>-8.25683319009840488433837890625</LongitudeDegrees>
            </Position>
            <AltitudeMeters>109</AltitudeMeters>
            <DistanceMeters>78538.050555401</DistanceMeters>
          </Trackpoint>
          <Trackpoint>
            <Time>2018-04-21T13:56:53.000Z</Time>
            <Position>
              <LatitudeDegrees>43.2892134971916675567626953125</LatitudeDegrees>
              <LongitudeDegrees>-8.256868310272693634033203125</LongitudeDegrees>
            </Position>
            <AltitudeMeters>109</AltitudeMeters>
            <DistanceMeters>78540.904522632</DistanceMeters>
          </Trackpoint>
          <Trackpoint>
            <Time>2018-04-21T13:56:54.000Z</Time>
            <Position>
              <LatitudeDegrees>43.2892047800123691558837890625</LatitudeDegrees>
              <LongitudeDegrees>-8.2569026760756969451904296875</LongitudeDegrees>
            </Position>
            <AltitudeMeters>109.1999969482421875</AltitudeMeters>
            <DistanceMeters>78543.851883068</DistanceMeters>
          </Trackpoint>
          <Trackpoint>
            <Time>2018-04-21T13:56:55.000Z</Time>
            <Position>
              <LatitudeDegrees>43.2891866751015186309814453125</LatitudeDegrees>
              <LongitudeDegrees>-8.2569335214793682098388671875</LongitudeDegrees>
            </Position>
            <AltitudeMeters>109.1999969482421875</AltitudeMeters>
            <DistanceMeters>78547.060354222</DistanceMeters>
          </Trackpoint>
          <Trackpoint>
            <Time>2018-04-21T13:56:57.000Z</Time>
            <Position>
              <LatitudeDegrees>43.2891377247869968414306640625</LatitudeDegrees>
              <LongitudeDegrees>-8.256989680230617523193359375</LongitudeDegrees>
            </Position>
            <AltitudeMeters>110.59999847412109375</AltitudeMeters>
            <DistanceMeters>78554.15879254</DistanceMeters>
          </Trackpoint>
          <Trackpoint>
            <Time>2018-04-21T13:57:00.000Z</Time>
            <Position>
              <LatitudeDegrees>43.28904175199568271636962890625</LatitudeDegrees>
              <LongitudeDegrees>-8.257074840366840362548828125</LongitudeDegrees>
            </Position>
            <AltitudeMeters>108.59999847412109375</AltitudeMeters>
            <DistanceMeters>78566.874631042</DistanceMeters>
          </Trackpoint>
          <Trackpoint>
            <Time>2018-04-21T13:57:01.000Z</Time>
            <Position>
              <LatitudeDegrees>43.2890059612691402435302734375</LatitudeDegrees>
              <LongitudeDegrees>-8.2571008242666721343994140625</LongitudeDegrees>
            </Position>
            <AltitudeMeters>109</AltitudeMeters>
            <DistanceMeters>78571.382143881</DistanceMeters>
          </Trackpoint>
          <Trackpoint>
            <Time>2018-04-21T13:57:06.000Z</Time>
            <Position>
              <LatitudeDegrees>43.28883773647248744964599609375</LatitudeDegrees>
              <LongitudeDegrees>-8.25719193555414676666259765625</LongitudeDegrees>
            </Position>
            <AltitudeMeters>108</AltitudeMeters>
            <DistanceMeters>78591.508523812</DistanceMeters>
          </Trackpoint>
          <Trackpoint>
            <Time>2018-04-21T13:57:08.000Z</Time>
            <Position>
              <LatitudeDegrees>43.2888094894587993621826171875</LatitudeDegrees>
              <LongitudeDegrees>-8.25721238739788532257080078125</LongitudeDegrees>
            </Position>
            <AltitudeMeters>107.40000152587890625</AltitudeMeters>
            <DistanceMeters>78595.061557287</DistanceMeters>
          </Trackpoint>
          <Trackpoint>
            <Time>2018-04-21T13:57:09.000Z</Time>
            <Position>
              <LatitudeDegrees>43.288799263536930084228515625</LatitudeDegrees>
              <LongitudeDegrees>-8.25723619200289249420166015625</LongitudeDegrees>
            </Position>
            <AltitudeMeters>107.40000152587890625</AltitudeMeters>
            <DistanceMeters>78597.302254165</DistanceMeters>
          </Trackpoint>
          <Trackpoint>
            <Time>2018-04-21T13:57:10.000Z</Time>
            <Position>
              <LatitudeDegrees>43.28879733569920063018798828125</LatitudeDegrees>
              <LongitudeDegrees>-8.25726837851107120513916015625</LongitudeDegrees>
            </Position>
            <AltitudeMeters>107.40000152587890625</AltitudeMeters>
            <DistanceMeters>78599.918510641</DistanceMeters>
          </Trackpoint>
          <Trackpoint>
            <Time>2018-04-21T13:57:16.000Z</Time>
            <Position>
              <LatitudeDegrees>43.28883983194828033447265625</LatitudeDegrees>
              <LongitudeDegrees>-8.25746409595012664794921875</LongitudeDegrees>
            </Position>
            <AltitudeMeters>107.40000152587890625</AltitudeMeters>
            <DistanceMeters>78616.465442316</DistanceMeters>
          </Trackpoint>
          <Trackpoint>
            <Time>2018-04-21T13:57:22.000Z</Time>
            <Position>
              <LatitudeDegrees>43.28889154829084873199462890625</LatitudeDegrees>
              <LongitudeDegrees>-8.2576862163841724395751953125</LongitudeDegrees>
            </Position>
            <AltitudeMeters>106.40000152587890625</AltitudeMeters>
            <DistanceMeters>78635.359276812</DistanceMeters>
          </Trackpoint>
          <Trackpoint>
            <Time>2018-04-21T13:57:24.000Z</Time>
            <Position>
              <LatitudeDegrees>43.28890462405979633331298828125</LatitudeDegrees>
              <LongitudeDegrees>-8.257738687098026275634765625</LongitudeDegrees>
            </Position>
            <AltitudeMeters>106</AltitudeMeters>
            <DistanceMeters>78639.851739483</DistanceMeters>
          </Trackpoint>
          <Trackpoint>
            <Time>2018-04-21T13:57:31.000Z</Time>
            <Position>
              <LatitudeDegrees>43.28897788189351558685302734375</LatitudeDegrees>
              <LongitudeDegrees>-8.2579762302339076995849609375</LongitudeDegrees>
            </Position>
            <AltitudeMeters>105.1999969482421875</AltitudeMeters>
            <DistanceMeters>78660.752864769</DistanceMeters>
          </Trackpoint>
          <Trackpoint>
            <Time>2018-04-21T13:57:37.000Z</Time>
            <Position>
              <LatitudeDegrees>43.2890183664858341217041015625</LatitudeDegrees>
              <LongitudeDegrees>-8.25819256715476512908935546875</LongitudeDegrees>
            </Position>
            <AltitudeMeters>105.8000030517578125</AltitudeMeters>
            <DistanceMeters>78678.849903545</DistanceMeters>
          </Trackpoint>
          <Trackpoint>
            <Time>2018-04-21T13:57:43.000Z</Time>
            <Position>
              <LatitudeDegrees>43.28905533067882061004638671875</LatitudeDegrees>
              <LongitudeDegrees>-8.25834712944924831390380859375</LongitudeDegrees>
            </Position>
            <AltitudeMeters>106</AltitudeMeters>
            <DistanceMeters>78692.030557577</DistanceMeters>
          </Trackpoint>
          <Trackpoint>
            <Time>2018-04-21T13:57:44.000Z</Time>
            <Position>
              <LatitudeDegrees>43.28906538896262645721435546875</LatitudeDegrees>
              <LongitudeDegrees>-8.25835953466594219207763671875</LongitudeDegrees>
            </Position>
            <AltitudeMeters>106.1999969482421875</AltitudeMeters>
            <DistanceMeters>78693.533061857</DistanceMeters>
          </Trackpoint>
          <Trackpoint>
            <Time>2018-04-21T13:57:45.000Z</Time>
            <Position>
              <LatitudeDegrees>43.2890770398080348968505859375</LatitudeDegrees>
              <LongitudeDegrees>-8.25836875475943088531494140625</LongitudeDegrees>
            </Position>
            <AltitudeMeters>106.1999969482421875</AltitudeMeters>
            <DistanceMeters>78695.029544051</DistanceMeters>
          </Trackpoint>
          <Trackpoint>
            <Time>2018-04-21T13:57:46.000Z</Time>
            <Position>
              <LatitudeDegrees>43.2890924625098705291748046875</LatitudeDegrees>
              <LongitudeDegrees>-8.2583540864288806915283203125</LongitudeDegrees>
            </Position>
            <AltitudeMeters>106.40000152587890625</AltitudeMeters>
            <DistanceMeters>78697.1158079</DistanceMeters>
          </Trackpoint>
          <Trackpoint>
            <Time>2018-04-21T13:57:48.000Z</Time>
            <Position>
              <LatitudeDegrees>43.28912540338933467864990234375</LatitudeDegrees>
              <LongitudeDegrees>-8.25833321548998355865478515625</LongitudeDegrees>
            </Position>
            <AltitudeMeters>106.59999847412109375</AltitudeMeters>
            <DistanceMeters>78701.154163761</DistanceMeters>
          </Trackpoint>
          <Trackpoint>
            <Time>2018-04-21T13:57:51.000Z</Time>
            <Position>
              <LatitudeDegrees>43.289176113903522491455078125</LatitudeDegrees>
              <LongitudeDegrees>-8.25833371840417385101318359375</LongitudeDegrees>
            </Position>
            <AltitudeMeters>107.1999969482421875</AltitudeMeters>
            <DistanceMeters>78706.798462627</DistanceMeters>
          </Trackpoint>
          <Trackpoint>
            <Time>2018-04-21T13:57:54.000Z</Time>
            <Position>
              <LatitudeDegrees>43.289228416979312896728515625</LatitudeDegrees>
              <LongitudeDegrees>-8.25833891518414020538330078125</LongitudeDegrees>
            </Position>
            <AltitudeMeters>108.1999969482421875</AltitudeMeters>
            <DistanceMeters>78712.635454868</DistanceMeters>
          </Trackpoint>
          <Trackpoint>
            <Time>2018-04-21T13:57:56.000Z</Time>
            <Position>
              <LatitudeDegrees>43.28925716690719127655029296875</LatitudeDegrees>
              <LongitudeDegrees>-8.258347213268280029296875</LongitudeDegrees>
            </Position>
            <AltitudeMeters>108.40000152587890625</AltitudeMeters>
            <DistanceMeters>78715.905257693</DistanceMeters>
          </Trackpoint>
          <Trackpoint>
            <Time>2018-04-21T13:58:00.000Z</Time>
            <Position>
              <LatitudeDegrees>43.28932791016995906829833984375</LatitudeDegrees>
              <LongitudeDegrees>-8.25837646611034870147705078125</LongitudeDegrees>
            </Position>
            <AltitudeMeters>109</AltitudeMeters>
            <DistanceMeters>78724.128226281</DistanceMeters>
          </Trackpoint>
          <Trackpoint>
            <Time>2018-04-21T13:58:01.000Z</Time>
            <Position>
              <LatitudeDegrees>43.28934609889984130859375</LatitudeDegrees>
              <LongitudeDegrees>-8.2583820819854736328125</LongitudeDegrees>
            </Position>
            <AltitudeMeters>109.1999969482421875</AltitudeMeters>
            <DistanceMeters>78726.20364105</DistanceMeters>
          </Trackpoint>
          <Trackpoint>
            <Time>2018-04-21T13:58:02.000Z</Time>
            <Position>
              <LatitudeDegrees>43.28936420381069183349609375</LatitudeDegrees>
              <LongitudeDegrees>-8.2583866082131862640380859375</LongitudeDegrees>
            </Position>
            <AltitudeMeters>110.1999969482421875</AltitudeMeters>
            <DistanceMeters>78728.250579122</DistanceMeters>
          </Trackpoint>
          <Trackpoint>
            <Time>2018-04-21T13:58:05.000Z</Time>
            <Position>
              <LatitudeDegrees>43.2894364558160305023193359375</LatitudeDegrees>
              <LongitudeDegrees>-8.2583839260041713714599609375</LongitudeDegrees>
            </Position>
            <AltitudeMeters>109.8000030517578125</AltitudeMeters>
            <DistanceMeters>78736.294802379</DistanceMeters>
          </Trackpoint>
          <Trackpoint>
            <Time>2018-04-21T13:58:07.000Z</Time>
            <Position>
              <LatitudeDegrees>43.28949336893856525421142578125</LatitudeDegrees>
              <LongitudeDegrees>-8.25837948359549045562744140625</LongitudeDegrees>
            </Position>
            <AltitudeMeters>110.40000152587890625</AltitudeMeters>
            <DistanceMeters>78742.639570364</DistanceMeters>
          </Trackpoint>
          <Trackpoint>
            <Time>2018-04-21T13:58:12.000Z</Time>
            <Position>
              <LatitudeDegrees>43.2896451652050018310546875</LatitudeDegrees>
              <LongitudeDegrees>-8.2583745382726192474365234375</LongitudeDegrees>
            </Position>
            <AltitudeMeters>111.1999969482421875</AltitudeMeters>
            <DistanceMeters>78759.539370888</DistanceMeters>
          </Trackpoint>
          <Trackpoint>
            <Time>2018-04-21T13:58:15.000Z</Time>
            <Position>
              <LatitudeDegrees>43.28973258845508098602294921875</LatitudeDegrees>
              <LongitudeDegrees>-8.2583654858171939849853515625</LongitudeDegrees>
            </Position>
            <AltitudeMeters>111.59999847412109375</AltitudeMeters>
            <DistanceMeters>78769.297092243</DistanceMeters>
          </Trackpoint>
          <Trackpoint>
            <Time>2018-04-21T13:58:19.000Z</Time>
            <Position>
              <LatitudeDegrees>43.28985865227878093719482421875</LatitudeDegrees>
              <LongitudeDegrees>-8.2583490572869777679443359375</LongitudeDegrees>
            </Position>
            <AltitudeMeters>112.40000152587890625</AltitudeMeters>
            <DistanceMeters>78783.391191065</DistanceMeters>
          </Trackpoint>
          <Trackpoint>
            <Time>2018-04-21T13:58:21.000Z</Time>
            <Position>
              <LatitudeDegrees>43.28992319293320178985595703125</LatitudeDegrees>
              <LongitudeDegrees>-8.25834008865058422088623046875</LongitudeDegrees>
            </Position>
            <AltitudeMeters>112.40000152587890625</AltitudeMeters>
            <DistanceMeters>78790.610720221</DistanceMeters>
          </Trackpoint>
          <Trackpoint>
            <Time>2018-04-21T13:58:27.000Z</Time>
            <Position>
              <LatitudeDegrees>43.29012821428477764129638671875</LatitudeDegrees>
              <LongitudeDegrees>-8.258378393948078155517578125</LongitudeDegrees>
            </Position>
            <AltitudeMeters>112.59999847412109375</AltitudeMeters>
            <DistanceMeters>78813.6399499</DistanceMeters>
          </Trackpoint>
          <Trackpoint>
            <Time>2018-04-21T13:58:36.000Z</Time>
            <Position>
              <LatitudeDegrees>43.29043063335120677947998046875</LatitudeDegrees>
              <LongitudeDegrees>-8.2585220597684383392333984375</LongitudeDegrees>
            </Position>
            <AltitudeMeters>113</AltitudeMeters>
            <DistanceMeters>78849.25532352</DistanceMeters>
          </Trackpoint>
          <Trackpoint>
            <Time>2018-04-21T13:58:39.000Z</Time>
            <Position>
              <LatitudeDegrees>43.29041504301130771636962890625</LatitudeDegrees>
              <LongitudeDegrees>-8.2586501352488994598388671875</LongitudeDegrees>
            </Position>
            <AltitudeMeters>113.1999969482421875</AltitudeMeters>
            <DistanceMeters>78859.775428886</DistanceMeters>
          </Trackpoint>
          <Trackpoint>
            <Time>2018-04-21T13:58:41.000Z</Time>
            <Position>
              <LatitudeDegrees>43.290362656116485595703125</LatitudeDegrees>
              <LongitudeDegrees>-8.2587178610265254974365234375</LongitudeDegrees>
            </Position>
            <AltitudeMeters>113.40000152587890625</AltitudeMeters>
            <DistanceMeters>78867.781394324</DistanceMeters>
          </Trackpoint>
          <Trackpoint>
            <Time>2018-04-21T13:58:44.000Z</Time>
            <Position>
              <LatitudeDegrees>43.290286548435688018798828125</LatitudeDegrees>
              <LongitudeDegrees>-8.25882934033870697021484375</LongitudeDegrees>
            </Position>
            <AltitudeMeters>113.59999847412109375</AltitudeMeters>
            <DistanceMeters>78880.163342388</DistanceMeters>
          </Trackpoint>
          <Trackpoint>
            <Time>2018-04-21T13:58:48.000Z</Time>
            <Position>
              <LatitudeDegrees>43.290172554552555084228515625</LatitudeDegrees>
              <LongitudeDegrees>-8.25897258706390857696533203125</LongitudeDegrees>
            </Position>
            <AltitudeMeters>113.59999847412109375</AltitudeMeters>
            <DistanceMeters>78897.358189376</DistanceMeters>
          </Trackpoint>
          <Trackpoint>
            <Time>2018-04-21T13:58:52.000Z</Time>
            <Position>
              <LatitudeDegrees>43.290061913430690765380859375</LatitudeDegrees>
              <LongitudeDegrees>-8.25912513770163059234619140625</LongitudeDegrees>
            </Position>
            <AltitudeMeters>113.59999847412109375</AltitudeMeters>
            <DistanceMeters>78914.804845697</DistanceMeters>
          </Trackpoint>
          <Trackpoint>
            <Time>2018-04-21T13:58:55.000Z</Time>
            <Position>
              <LatitudeDegrees>43.28997348435223102569580078125</LatitudeDegrees>
              <LongitudeDegrees>-8.25924851931631565093994140625</LongitudeDegrees>
            </Position>
            <AltitudeMeters>113.59999847412109375</AltitudeMeters>
            <DistanceMeters>78928.832797289</DistanceMeters>
          </Trackpoint>
          <Trackpoint>
            <Time>2018-04-21T13:58:57.000Z</Time>
            <Position>
              <LatitudeDegrees>43.28993978910148143768310546875</LatitudeDegrees>
              <LongitudeDegrees>-8.2593545503914356231689453125</LongitudeDegrees>
            </Position>
            <AltitudeMeters>113.59999847412109375</AltitudeMeters>
            <DistanceMeters>78938.205823146</DistanceMeters>
          </Trackpoint>
          <Trackpoint>
            <Time>2018-04-21T13:59:03.000Z</Time>
            <Position>
              <LatitudeDegrees>43.2899185828864574432373046875</LatitudeDegrees>
              <LongitudeDegrees>-8.2597508467733860015869140625</LongitudeDegrees>
            </Position>
            <AltitudeMeters>113.40000152587890625</AltitudeMeters>
            <DistanceMeters>78970.398708594</DistanceMeters>
          </Trackpoint>
          <Trackpoint>
            <Time>2018-04-21T13:59:06.000Z</Time>
            <Position>
              <LatitudeDegrees>43.289915062487125396728515625</LatitudeDegrees>
              <LongitudeDegrees>-8.25998269021511077880859375</LongitudeDegrees>
            </Position>
            <AltitudeMeters>112.40000152587890625</AltitudeMeters>
            <DistanceMeters>78989.185900986</DistanceMeters>
          </Trackpoint>
          <Trackpoint>
            <Time>2018-04-21T13:59:09.000Z</Time>
            <Position>
              <LatitudeDegrees>43.28990810550749301910400390625</LatitudeDegrees>
              <LongitudeDegrees>-8.260249234735965728759765625</LongitudeDegrees>
            </Position>
            <AltitudeMeters>111.59999847412109375</AltitudeMeters>
            <DistanceMeters>79010.793981248</DistanceMeters>
          </Trackpoint>
          <Trackpoint>
            <Time>2018-04-21T13:59:11.000Z</Time>
            <Position>
              <LatitudeDegrees>43.2899053394794464111328125</LatitudeDegrees>
              <LongitudeDegrees>-8.2604401744902133941650390625</LongitudeDegrees>
            </Position>
            <AltitudeMeters>111</AltitudeMeters>
            <DistanceMeters>79026.266128046</DistanceMeters>
          </Trackpoint>
          <Trackpoint>
            <Time>2018-04-21T13:59:15.000Z</Time>
            <Position>
              <LatitudeDegrees>43.28990089707076549530029296875</LatitudeDegrees>
              <LongitudeDegrees>-8.26085030101239681243896484375</LongitudeDegrees>
            </Position>
            <AltitudeMeters>110.1999969482421875</AltitudeMeters>
            <DistanceMeters>79059.496686094</DistanceMeters>
          </Trackpoint>
          <Trackpoint>
            <Time>2018-04-21T13:59:16.000Z</Time>
            <Position>
              <LatitudeDegrees>43.2898994721472263336181640625</LatitudeDegrees>
              <LongitudeDegrees>-8.26096035540103912353515625</LongitudeDegrees>
            </Position>
            <AltitudeMeters>110</AltitudeMeters>
            <DistanceMeters>79068.414020514</DistanceMeters>
          </Trackpoint>
          <Trackpoint>
            <Time>2018-04-21T13:59:19.000Z</Time>
            <Position>
              <LatitudeDegrees>43.28988329507410526275634765625</LatitudeDegrees>
              <LongitudeDegrees>-8.26130024157464504241943359375</LongitudeDegrees>
            </Position>
            <AltitudeMeters>109.40000152587890625</AltitudeMeters>
            <DistanceMeters>79096.009097726</DistanceMeters>
          </Trackpoint>
          <Trackpoint>
            <Time>2018-04-21T13:59:20.000Z</Time>
            <Position>
              <LatitudeDegrees>43.2898746617138385772705078125</LatitudeDegrees>
              <LongitudeDegrees>-8.26141557656228542327880859375</LongitudeDegrees>
            </Position>
            <AltitudeMeters>108.8000030517578125</AltitudeMeters>
            <DistanceMeters>79105.402814084</DistanceMeters>
          </Trackpoint>
          <Trackpoint>
            <Time>2018-04-21T13:59:22.000Z</Time>
            <Position>
              <LatitudeDegrees>43.2898521982133388519287109375</LatitudeDegrees>
              <LongitudeDegrees>-8.26165228150784969329833984375</LongitudeDegrees>
            </Position>
            <AltitudeMeters>107.40000152587890625</AltitudeMeters>
            <DistanceMeters>79124.742092927</DistanceMeters>
          </Trackpoint>
          <Trackpoint>
            <Time>2018-04-21T13:59:25.000Z</Time>
            <Position>
              <LatitudeDegrees>43.28981271944940090179443359375</LatitudeDegrees>
              <LongitudeDegrees>-8.262018822133541107177734375</LongitudeDegrees>
            </Position>
            <AltitudeMeters>106.40000152587890625</AltitudeMeters>
            <DistanceMeters>79154.761060574</DistanceMeters>
          </Trackpoint>
          <Trackpoint>
            <Time>2018-04-21T13:59:27.000Z</Time>
            <Position>
              <LatitudeDegrees>43.28975521959364414215087890625</LatitudeDegrees>
              <LongitudeDegrees>-8.26226416043937206268310546875</LongitudeDegrees>
            </Position>
            <AltitudeMeters>105.40000152587890625</AltitudeMeters>
            <DistanceMeters>79175.642302663</DistanceMeters>
          </Trackpoint>
          <Trackpoint>
            <Time>2018-04-21T13:59:28.000Z</Time>
            <Position>
              <LatitudeDegrees>43.289709873497486114501953125</LatitudeDegrees>
              <LongitudeDegrees>-8.262379579246044158935546875</LongitudeDegrees>
            </Position>
            <AltitudeMeters>105</AltitudeMeters>
            <DistanceMeters>79186.268312067</DistanceMeters>
          </Trackpoint>
          <Trackpoint>
            <Time>2018-04-21T13:59:30.000Z</Time>
            <Position>
              <LatitudeDegrees>43.28960702754557132720947265625</LatitudeDegrees>
              <LongitudeDegrees>-8.26260882429778575897216796875</LongitudeDegrees>
            </Position>
            <AltitudeMeters>103.1999969482421875</AltitudeMeters>
            <DistanceMeters>79208.0851709</DistanceMeters>
          </Trackpoint>
          <Trackpoint>
            <Time>2018-04-21T13:59:32.000Z</Time>
            <Position>
              <LatitudeDegrees>43.2894947938621044158935546875</LatitudeDegrees>
              <LongitudeDegrees>-8.2628253288567066192626953125</LongitudeDegrees>
            </Position>
            <AltitudeMeters>101.40000152587890625</AltitudeMeters>
            <DistanceMeters>79229.619155333</DistanceMeters>
          </Trackpoint>
          <Trackpoint>
            <Time>2018-04-21T13:59:33.000Z</Time>
            <Position>
              <LatitudeDegrees>43.289434276521205902099609375</LatitudeDegrees>
              <LongitudeDegrees>-8.262920714914798736572265625</LongitudeDegrees>
            </Position>
            <AltitudeMeters>100</AltitudeMeters>
            <DistanceMeters>79239.870155264</DistanceMeters>
          </Trackpoint>
          <Trackpoint>
            <Time>2018-04-21T13:59:34.000Z</Time>
            <Position>
              <LatitudeDegrees>43.28936931677162647247314453125</LatitudeDegrees>
              <LongitudeDegrees>-8.26300512067973613739013671875</LongitudeDegrees>
            </Position>
            <AltitudeMeters>99</AltitudeMeters>
            <DistanceMeters>79249.822133883</DistanceMeters>
          </Trackpoint>
          <Trackpoint>
            <Time>2018-04-21T13:59:35.000Z</Time>
            <Position>
              <LatitudeDegrees>43.28930092044174671173095703125</LatitudeDegrees>
              <LongitudeDegrees>-8.26308005489408969879150390625</LongitudeDegrees>
            </Position>
            <AltitudeMeters>97.40000152587890625</AltitudeMeters>
            <DistanceMeters>79259.558547109</DistanceMeters>
          </Trackpoint>
          <Trackpoint>
            <Time>2018-04-21T13:59:36.000Z</Time>
            <Position>
              <LatitudeDegrees>43.2892305962741374969482421875</LatitudeDegrees>
              <LongitudeDegrees>-8.26315180398523807525634765625</LongitudeDegrees>
            </Position>
            <AltitudeMeters>96.8000030517578125</AltitudeMeters>
            <DistanceMeters>79269.307936046</DistanceMeters>
          </Trackpoint>
          <Trackpoint>
            <Time>2018-04-21T13:59:37.000Z</Time>
            <Position>
              <LatitudeDegrees>43.28916144557297229766845703125</LatitudeDegrees>
              <LongitudeDegrees>-8.2632256485521793365478515625</LongitudeDegrees>
            </Position>
            <AltitudeMeters>96</AltitudeMeters>
            <DistanceMeters>79279.056398719</DistanceMeters>
          </Trackpoint>
          <Trackpoint>
            <Time>2018-04-21T13:59:39.000Z</Time>
            <Position>
              <LatitudeDegrees>43.2890337891876697540283203125</LatitudeDegrees>
              <LongitudeDegrees>-8.26337836682796478271484375</LongitudeDegrees>
            </Position>
            <AltitudeMeters>94</AltitudeMeters>
            <DistanceMeters>79297.896867794</DistanceMeters>
          </Trackpoint>
          <Trackpoint>
            <Time>2018-04-21T13:59:41.000Z</Time>
            <Position>
              <LatitudeDegrees>43.28891501761972904205322265625</LatitudeDegrees>
              <LongitudeDegrees>-8.26352882198989391326904296875</LongitudeDegrees>
            </Position>
            <AltitudeMeters>92.1999969482421875</AltitudeMeters>
            <DistanceMeters>79315.878272554</DistanceMeters>
          </Trackpoint>
          <Trackpoint>
            <Time>2018-04-21T13:59:43.000Z</Time>
            <Position>
              <LatitudeDegrees>43.2887880317866802215576171875</LatitudeDegrees>
              <LongitudeDegrees>-8.26365354470908641815185546875</LongitudeDegrees>
            </Position>
            <AltitudeMeters>89.8000030517578125</AltitudeMeters>
            <DistanceMeters>79333.252316279</DistanceMeters>
          </Trackpoint>
          <Trackpoint>
            <Time>2018-04-21T13:59:45.000Z</Time>
            <Position>
              <LatitudeDegrees>43.28866691328585147857666015625</LatitudeDegrees>
              <LongitudeDegrees>-8.263732083141803741455078125</LongitudeDegrees>
            </Position>
            <AltitudeMeters>90</AltitudeMeters>
            <DistanceMeters>79348.159097325</DistanceMeters>
          </Trackpoint>
          <Trackpoint>
            <Time>2018-04-21T13:59:46.000Z</Time>
            <Position>
              <LatitudeDegrees>43.28861611895263195037841796875</LatitudeDegrees>
              <LongitudeDegrees>-8.26376259326934814453125</LongitudeDegrees>
            </Position>
            <AltitudeMeters>92.59999847412109375</AltitudeMeters>
            <DistanceMeters>79354.329251479</DistanceMeters>
          </Trackpoint>
          <Trackpoint>
            <Time>2018-04-21T13:59:49.000Z</Time>
            <Position>
              <LatitudeDegrees>43.28849240206182003021240234375</LatitudeDegrees>
              <LongitudeDegrees>-8.263845406472682952880859375</LongitudeDegrees>
            </Position>
            <AltitudeMeters>92.1999969482421875</AltitudeMeters>
            <DistanceMeters>79369.646838634</DistanceMeters>
          </Trackpoint>
          <Trackpoint>
            <Time>2018-04-21T13:59:50.000Z</Time>
            <Position>
              <LatitudeDegrees>43.28845635987818241119384765625</LatitudeDegrees>
              <LongitudeDegrees>-8.26386996544897556304931640625</LongitudeDegrees>
            </Position>
            <AltitudeMeters>92.40000152587890625</AltitudeMeters>
            <DistanceMeters>79374.124200547</DistanceMeters>
          </Trackpoint>
          <Trackpoint>
            <Time>2018-04-21T13:59:52.000Z</Time>
            <Position>
              <LatitudeDegrees>43.2883890531957149505615234375</LatitudeDegrees>
              <LongitudeDegrees>-8.2639143057167530059814453125</LongitudeDegrees>
            </Position>
            <AltitudeMeters>93.40000152587890625</AltitudeMeters>
            <DistanceMeters>79382.431296561</DistanceMeters>
          </Trackpoint>
          <Trackpoint>
            <Time>2018-04-21T13:59:53.000Z</Time>
            <Position>
              <LatitudeDegrees>43.2883565314114093780517578125</LatitudeDegrees>
              <LongitudeDegrees>-8.26393760740756988525390625</LongitudeDegrees>
            </Position>
            <AltitudeMeters>93.59999847412109375</AltitudeMeters>
            <DistanceMeters>79386.514129048</DistanceMeters>
          </Trackpoint>
          <Trackpoint>
            <Time>2018-04-21T13:59:55.000Z</Time>
            <Position>
              <LatitudeDegrees>43.2882938347756862640380859375</LatitudeDegrees>
              <LongitudeDegrees>-8.26397725380957126617431640625</LongitudeDegrees>
            </Position>
            <AltitudeMeters>94</AltitudeMeters>
            <DistanceMeters>79394.195438799</DistanceMeters>
          </Trackpoint>
          <Trackpoint>
            <Time>2018-04-21T13:59:57.000Z</Time>
            <Position>
              <LatitudeDegrees>43.2882284559309482574462890625</LatitudeDegrees>
              <LongitudeDegrees>-8.26401614584028720855712890625</LongitudeDegrees>
            </Position>
            <AltitudeMeters>94.59999847412109375</AltitudeMeters>
            <DistanceMeters>79402.124334825</DistanceMeters>
          </Trackpoint>
          <Trackpoint>
            <Time>2018-04-21T13:59:58.000Z</Time>
            <Position>
              <LatitudeDegrees>43.2881955988705158233642578125</LatitudeDegrees>
              <LongitudeDegrees>-8.264038860797882080078125</LongitudeDegrees>
            </Position>
            <AltitudeMeters>94.8000030517578125</AltitudeMeters>
            <DistanceMeters>79406.217107944</DistanceMeters>
          </Trackpoint>
          <Trackpoint>
            <Time>2018-04-21T14:00:02.000Z</Time>
            <Position>
              <LatitudeDegrees>43.28804589807987213134765625</LatitudeDegrees>
              <LongitudeDegrees>-8.26414036564528942108154296875</LongitudeDegrees>
            </Position>
            <AltitudeMeters>94.1999969482421875</AltitudeMeters>
            <DistanceMeters>79424.798172035</DistanceMeters>
          </Trackpoint>
          <Trackpoint>
            <Time>2018-04-21T14:00:03.000Z</Time>
            <Position>
              <LatitudeDegrees>43.2880048267543315887451171875</LatitudeDegrees>
              <LongitudeDegrees>-8.2641818560659885406494140625</LongitudeDegrees>
            </Position>
            <AltitudeMeters>93.8000030517578125</AltitudeMeters>
            <DistanceMeters>79430.472786789</DistanceMeters>
          </Trackpoint>
          <Trackpoint>
            <Time>2018-04-21T14:00:04.000Z</Time>
            <Position>
              <LatitudeDegrees>43.28796207904815673828125</LatitudeDegrees>
              <LongitudeDegrees>-8.264229297637939453125</LongitudeDegrees>
            </Position>
            <AltitudeMeters>93.59999847412109375</AltitudeMeters>
            <DistanceMeters>79436.590027734</DistanceMeters>
          </Trackpoint>
          <Trackpoint>
            <Time>2018-04-21T14:00:06.000Z</Time>
            <Position>
              <LatitudeDegrees>43.28787331469357013702392578125</LatitudeDegrees>
              <LongitudeDegrees>-8.2643551938235759735107421875</LongitudeDegrees>
            </Position>
            <AltitudeMeters>93</AltitudeMeters>
            <DistanceMeters>79450.790084318</DistanceMeters>
          </Trackpoint>
          <Trackpoint>
            <Time>2018-04-21T14:00:07.000Z</Time>
            <Position>
              <LatitudeDegrees>43.28783861361443996429443359375</LatitudeDegrees>
              <LongitudeDegrees>-8.2644420303404331207275390625</LongitudeDegrees>
            </Position>
            <AltitudeMeters>92.40000152587890625</AltitudeMeters>
            <DistanceMeters>79458.815201464</DistanceMeters>
          </Trackpoint>
          <Trackpoint>
            <Time>2018-04-21T14:00:09.000Z</Time>
            <Position>
              <LatitudeDegrees>43.28778429888188838958740234375</LatitudeDegrees>
              <LongitudeDegrees>-8.26464948244392871856689453125</LongitudeDegrees>
            </Position>
            <AltitudeMeters>91.40000152587890625</AltitudeMeters>
            <DistanceMeters>79476.67719074</DistanceMeters>
          </Trackpoint>
          <Trackpoint>
            <Time>2018-04-21T14:00:11.000Z</Time>
            <Position>
              <LatitudeDegrees>43.28773719258606433868408203125</LatitudeDegrees>
              <LongitudeDegrees>-8.264882750809192657470703125</LongitudeDegrees>
            </Position>
            <AltitudeMeters>90.8000030517578125</AltitudeMeters>
            <DistanceMeters>79496.290023181</DistanceMeters>
          </Trackpoint>
          <Trackpoint>
            <Time>2018-04-21T14:00:12.000Z</Time>
            <Position>
              <LatitudeDegrees>43.28770953230559825897216796875</LatitudeDegrees>
              <LongitudeDegrees>-8.265004456043243408203125</LongitudeDegrees>
            </Position>
            <AltitudeMeters>90.40000152587890625</AltitudeMeters>
            <DistanceMeters>79506.619562535</DistanceMeters>
          </Trackpoint>
          <Trackpoint>
            <Time>2018-04-21T14:00:13.000Z</Time>
            <Position>
              <LatitudeDegrees>43.287673406302928924560546875</LatitudeDegrees>
              <LongitudeDegrees>-8.265126161277294158935546875</LongitudeDegrees>
            </Position>
            <AltitudeMeters>89.8000030517578125</AltitudeMeters>
            <DistanceMeters>79517.26806806</DistanceMeters>
          </Trackpoint>
          <Trackpoint>
            <Time>2018-04-21T14:00:14.000Z</Time>
            <Position>
              <LatitudeDegrees>43.2876303233206272125244140625</LatitudeDegrees>
              <LongitudeDegrees>-8.26524845324456691741943359375</LongitudeDegrees>
            </Position>
            <AltitudeMeters>89</AltitudeMeters>
            <DistanceMeters>79528.275591202</DistanceMeters>
          </Trackpoint>
          <Trackpoint>
            <Time>2018-04-21T14:00:15.000Z</Time>
            <Position>
              <LatitudeDegrees>43.28758296556770801544189453125</LatitudeDegrees>
              <LongitudeDegrees>-8.26537133194506168365478515625</LongitudeDegrees>
            </Position>
            <AltitudeMeters>88.1999969482421875</AltitudeMeters>
            <DistanceMeters>79539.540566314</DistanceMeters>
          </Trackpoint>
          <Trackpoint>
            <Time>2018-04-21T14:00:16.000Z</Time>
            <Position>
              <LatitudeDegrees>43.287529908120632171630859375</LatitudeDegrees>
              <LongitudeDegrees>-8.26549488119781017303466796875</LongitudeDegrees>
            </Position>
            <AltitudeMeters>87.1999969482421875</AltitudeMeters>
            <DistanceMeters>79551.162609312</DistanceMeters>
          </Trackpoint>
          <Trackpoint>
            <Time>2018-04-21T14:00:18.000Z</Time>
            <Position>
              <LatitudeDegrees>43.28741113655269145965576171875</LatitudeDegrees>
              <LongitudeDegrees>-8.26573359780013561248779296875</LongitudeDegrees>
            </Position>
            <AltitudeMeters>86</AltitudeMeters>
            <DistanceMeters>79574.589344593</DistanceMeters>
          </Trackpoint>
          <Trackpoint>
            <Time>2018-04-21T14:00:20.000Z</Time>
            <Position>
              <LatitudeDegrees>43.28729194588959217071533203125</LatitudeDegrees>
              <LongitudeDegrees>-8.265973068773746490478515625</LongitudeDegrees>
            </Position>
            <AltitudeMeters>84.40000152587890625</AltitudeMeters>
            <DistanceMeters>79598.092853405</DistanceMeters>
          </Trackpoint>
          <Trackpoint>
            <Time>2018-04-21T14:00:22.000Z</Time>
            <Position>
              <LatitudeDegrees>43.28718046657741069793701171875</LatitudeDegrees>
              <LongitudeDegrees>-8.2662032358348369598388671875</LongitudeDegrees>
            </Position>
            <AltitudeMeters>82.8000030517578125</AltitudeMeters>
            <DistanceMeters>79620.491559108</DistanceMeters>
          </Trackpoint>
          <Trackpoint>
            <Time>2018-04-21T14:00:24.000Z</Time>
            <Position>
              <LatitudeDegrees>43.28708172775804996490478515625</LatitudeDegrees>
              <LongitudeDegrees>-8.26638084836304187774658203125</LongitudeDegrees>
            </Position>
            <AltitudeMeters>81.1999969482421875</AltitudeMeters>
            <DistanceMeters>79638.598325397</DistanceMeters>
          </Trackpoint>
          <Trackpoint>
            <Time>2018-04-21T14:00:26.000Z</Time>
            <Position>
              <LatitudeDegrees>43.28701215796172618865966796875</LatitudeDegrees>
              <LongitudeDegrees>-8.26648813672363758087158203125</LongitudeDegrees>
            </Position>
            <AltitudeMeters>78.8000030517578125</AltitudeMeters>
            <DistanceMeters>79650.239388802</DistanceMeters>
          </Trackpoint>
          <Trackpoint>
            <Time>2018-04-21T14:00:27.000Z</Time>
            <Position>
              <LatitudeDegrees>43.28699220903217792510986328125</LatitudeDegrees>
              <LongitudeDegrees>-8.266520909965038299560546875</LongitudeDegrees>
            </Position>
            <AltitudeMeters>78.1999969482421875</AltitudeMeters>
            <DistanceMeters>79653.701023017</DistanceMeters>
          </Trackpoint>
          <Trackpoint>
            <Time>2018-04-21T14:00:28.000Z</Time>
            <Position>
              <LatitudeDegrees>43.2869842462241649627685546875</LatitudeDegrees>
              <LongitudeDegrees>-8.26654178090393543243408203125</LongitudeDegrees>
            </Position>
            <AltitudeMeters>77.59999847412109375</AltitudeMeters>
            <DistanceMeters>79655.611036337</DistanceMeters>
          </Trackpoint>
          <Trackpoint>
            <Time>2018-04-21T14:00:30.000Z</Time>
            <Position>
              <LatitudeDegrees>43.287005536258220672607421875</LatitudeDegrees>
              <LongitudeDegrees>-8.26658151112496852874755859375</LongitudeDegrees>
            </Position>
            <AltitudeMeters>77.1999969482421875</AltitudeMeters>
            <DistanceMeters>79659.60668086</DistanceMeters>
          </Trackpoint>
          <Trackpoint>
            <Time>2018-04-21T14:00:33.000Z</Time>
            <Position>
              <LatitudeDegrees>43.28706496395170688629150390625</LatitudeDegrees>
              <LongitudeDegrees>-8.26661621220409870147705078125</LongitudeDegrees>
            </Position>
            <AltitudeMeters>77.40000152587890625</AltitudeMeters>
            <DistanceMeters>79666.793616038</DistanceMeters>
          </Trackpoint>
          <Trackpoint>
            <Time>2018-04-21T14:00:36.000Z</Time>
            <Position>
              <LatitudeDegrees>43.28713905997574329376220703125</LatitudeDegrees>
              <LongitudeDegrees>-8.2666639052331447601318359375</LongitudeDegrees>
            </Position>
            <AltitudeMeters>77.59999847412109375</AltitudeMeters>
            <DistanceMeters>79675.901320591</DistanceMeters>
          </Trackpoint>
          <Trackpoint>
            <Time>2018-04-21T14:00:39.000Z</Time>
            <Position>
              <LatitudeDegrees>43.2872310094535350799560546875</LatitudeDegrees>
              <LongitudeDegrees>-8.26674613170325756072998046875</LongitudeDegrees>
            </Position>
            <AltitudeMeters>78.40000152587890625</AltitudeMeters>
            <DistanceMeters>79688.112900439</DistanceMeters>
          </Trackpoint>
          <Trackpoint>
            <Time>2018-04-21T14:00:42.000Z</Time>
            <Position>
              <LatitudeDegrees>43.28734156675636768341064453125</LatitudeDegrees>
              <LongitudeDegrees>-8.2668295316398143768310546875</LongitudeDegrees>
            </Position>
            <AltitudeMeters>78.40000152587890625</AltitudeMeters>
            <DistanceMeters>79702.151147777</DistanceMeters>
          </Trackpoint>
          <Trackpoint>
            <Time>2018-04-21T14:00:44.000Z</Time>
            <Position>
              <LatitudeDegrees>43.28741482459008693695068359375</LatitudeDegrees>
              <LongitudeDegrees>-8.26688996516168117523193359375</LongitudeDegrees>
            </Position>
            <AltitudeMeters>78.40000152587890625</AltitudeMeters>
            <DistanceMeters>79711.662367773</DistanceMeters>
          </Trackpoint>
          <Trackpoint>
            <Time>2018-04-21T14:00:47.000Z</Time>
            <Position>
              <LatitudeDegrees>43.2875384576618671417236328125</LatitudeDegrees>
              <LongitudeDegrees>-8.26698518358170986175537109375</LongitudeDegrees>
            </Position>
            <AltitudeMeters>78.40000152587890625</AltitudeMeters>
            <DistanceMeters>79727.437947217</DistanceMeters>
          </Trackpoint>
          <Trackpoint>
            <Time>2018-04-21T14:00:48.000Z</Time>
            <Position>
              <LatitudeDegrees>43.28758263029158115386962890625</LatitudeDegrees>
              <LongitudeDegrees>-8.26701737008988857269287109375</LongitudeDegrees>
            </Position>
            <AltitudeMeters>78.40000152587890625</AltitudeMeters>
            <DistanceMeters>79733.003300953</DistanceMeters>
          </Trackpoint>
          <Trackpoint>
            <Time>2018-04-21T14:00:56.000Z</Time>
            <Position>
              <LatitudeDegrees>43.28795813955366611480712890625</LatitudeDegrees>
              <LongitudeDegrees>-8.26728374697268009185791015625</LongitudeDegrees>
            </Position>
            <AltitudeMeters>78.1999969482421875</AltitudeMeters>
            <DistanceMeters>79780.041428579</DistanceMeters>
          </Trackpoint>
          <Trackpoint>
            <Time>2018-04-21T14:01:02.000Z</Time>
            <Position>
              <LatitudeDegrees>43.288302384316921234130859375</LatitudeDegrees>
              <LongitudeDegrees>-8.26752548106014728546142578125</LongitudeDegrees>
            </Position>
            <AltitudeMeters>75.8000030517578125</AltitudeMeters>
            <DistanceMeters>79823.071850084</DistanceMeters>
          </Trackpoint>
          <Trackpoint>
            <Time>2018-04-21T14:01:08.000Z</Time>
            <Position>
              <LatitudeDegrees>43.28865484334528446197509765625</LatitudeDegrees>
              <LongitudeDegrees>-8.2677716575562953948974609375</LongitudeDegrees>
            </Position>
            <AltitudeMeters>74.1999969482421875</AltitudeMeters>
            <DistanceMeters>79867.080300471</DistanceMeters>
          </Trackpoint>
          <Trackpoint>
            <Time>2018-04-21T14:01:09.000Z</Time>
            <Position>
              <LatitudeDegrees>43.28870262019336223602294921875</LatitudeDegrees>
              <LongitudeDegrees>-8.26780476607382297515869140625</LongitudeDegrees>
            </Position>
            <AltitudeMeters>73.40000152587890625</AltitudeMeters>
            <DistanceMeters>79873.035981815</DistanceMeters>
          </Trackpoint>
          <Trackpoint>
            <Time>2018-04-21T14:01:10.000Z</Time>
            <Position>
              <LatitudeDegrees>43.2887434400618076324462890625</LatitudeDegrees>
              <LongitudeDegrees>-8.2678462564945220947265625</LongitudeDegrees>
            </Position>
            <AltitudeMeters>73</AltitudeMeters>
            <DistanceMeters>79878.688274311</DistanceMeters>
          </Trackpoint>
          <Trackpoint>
            <Time>2018-04-21T14:01:12.000Z</Time>
            <Position>
              <LatitudeDegrees>43.28879666514694690704345703125</LatitudeDegrees>
              <LongitudeDegrees>-8.2679454982280731201171875</LongitudeDegrees>
            </Position>
            <AltitudeMeters>72</AltitudeMeters>
            <DistanceMeters>79888.67557747</DistanceMeters>
          </Trackpoint>
          <Trackpoint>
            <Time>2018-04-21T14:01:15.000Z</Time>
            <Position>
              <LatitudeDegrees>43.288773111999034881591796875</LatitudeDegrees>
              <LongitudeDegrees>-8.2680958695709705352783203125</LongitudeDegrees>
            </Position>
            <AltitudeMeters>71.1999969482421875</AltitudeMeters>
            <DistanceMeters>79901.136764995</DistanceMeters>
          </Trackpoint>
          <Trackpoint>
            <Time>2018-04-21T14:01:17.000Z</Time>
            <Position>
              <LatitudeDegrees>43.2887099124491214752197265625</LatitudeDegrees>
              <LongitudeDegrees>-8.26814859174191951751708984375</LongitudeDegrees>
            </Position>
            <AltitudeMeters>70.8000030517578125</AltitudeMeters>
            <DistanceMeters>79909.365222516</DistanceMeters>
          </Trackpoint>
          <Trackpoint>
            <Time>2018-04-21T14:01:18.000Z</Time>
            <Position>
              <LatitudeDegrees>43.2886740379035472869873046875</LatitudeDegrees>
              <LongitudeDegrees>-8.26817105524241924285888671875</LongitudeDegrees>
            </Position>
            <AltitudeMeters>70.59999847412109375</AltitudeMeters>
            <DistanceMeters>79913.752946639</DistanceMeters>
          </Trackpoint>
          <Trackpoint>
            <Time>2018-04-21T14:01:19.000Z</Time>
            <Position>
              <LatitudeDegrees>43.288636989891529083251953125</LatitudeDegrees>
              <LongitudeDegrees>-8.2681930996477603912353515625</LongitudeDegrees>
            </Position>
            <AltitudeMeters>70.8000030517578125</AltitudeMeters>
            <DistanceMeters>79918.246414223</DistanceMeters>
          </Trackpoint>
          <Trackpoint>
            <Time>2018-04-21T14:01:24.000Z</Time>
            <Position>
              <LatitudeDegrees>43.2884530909359455108642578125</LatitudeDegrees>
              <LongitudeDegrees>-8.268309272825717926025390625</LongitudeDegrees>
            </Position>
            <AltitudeMeters>70.8000030517578125</AltitudeMeters>
            <DistanceMeters>79940.774761177</DistanceMeters>
          </Trackpoint>
          <Trackpoint>
            <Time>2018-04-21T14:01:27.000Z</Time>
            <Position>
              <LatitudeDegrees>43.28834630548954010009765625</LatitudeDegrees>
              <LongitudeDegrees>-8.26837356202304363250732421875</LongitudeDegrees>
            </Position>
            <AltitudeMeters>70.8000030517578125</AltitudeMeters>
            <DistanceMeters>79953.751388841</DistanceMeters>
          </Trackpoint>
          <Trackpoint>
            <Time>2018-04-21T14:01:33.000Z</Time>
            <Position>
              <LatitudeDegrees>43.28810381703078746795654296875</LatitudeDegrees>
              <LongitudeDegrees>-8.26850683428347110748291015625</LongitudeDegrees>
            </Position>
            <AltitudeMeters>70.59999847412109375</AltitudeMeters>
            <DistanceMeters>79982.820556243</DistanceMeters>
          </Trackpoint>
          <Trackpoint>
            <Time>2018-04-21T14:01:39.000Z</Time>
            <Position>
              <LatitudeDegrees>43.2878024876117706298828125</LatitudeDegrees>
              <LongitudeDegrees>-8.2685659267008304595947265625</LongitudeDegrees>
            </Position>
            <AltitudeMeters>69.59999847412109375</AltitudeMeters>
            <DistanceMeters>80016.699012617</DistanceMeters>
          </Trackpoint>
          <Trackpoint>
            <Time>2018-04-21T14:01:43.000Z</Time>
            <Position>
              <LatitudeDegrees>43.2875773496925830841064453125</LatitudeDegrees>
              <LongitudeDegrees>-8.26856818981468677520751953125</LongitudeDegrees>
            </Position>
            <AltitudeMeters>69.1999969482421875</AltitudeMeters>
            <DistanceMeters>80041.757973407</DistanceMeters>
          </Trackpoint>
          <Trackpoint>
            <Time>2018-04-21T14:01:44.000Z</Time>
            <Position>
              <LatitudeDegrees>43.28752127476036548614501953125</LatitudeDegrees>
              <LongitudeDegrees>-8.268560059368610382080078125</LongitudeDegrees>
            </Position>
            <AltitudeMeters>69</AltitudeMeters>
            <DistanceMeters>80048.034054466</DistanceMeters>
          </Trackpoint>
          <Trackpoint>
            <Time>2018-04-21T14:01:45.000Z</Time>
            <Position>
              <LatitudeDegrees>43.28746519982814788818359375</LatitudeDegrees>
              <LongitudeDegrees>-8.26854371465742588043212890625</LongitudeDegrees>
            </Position>
            <AltitudeMeters>68.59999847412109375</AltitudeMeters>
            <DistanceMeters>80054.41359634</DistanceMeters>
          </Trackpoint>
          <Trackpoint>
            <Time>2018-04-21T14:01:47.000Z</Time>
            <Position>
              <LatitudeDegrees>43.287354893982410430908203125</LatitudeDegrees>
              <LongitudeDegrees>-8.26850473880767822265625</LongitudeDegrees>
            </Position>
            <AltitudeMeters>68.1999969482421875</AltitudeMeters>
            <DistanceMeters>80067.090316752</DistanceMeters>
          </Trackpoint>
          <Trackpoint>
            <Time>2018-04-21T14:01:49.000Z</Time>
            <Position>
              <LatitudeDegrees>43.28725422732532024383544921875</LatitudeDegrees>
              <LongitudeDegrees>-8.2684717141091823577880859375</LongitudeDegrees>
            </Position>
            <AltitudeMeters>68.40000152587890625</AltitudeMeters>
            <DistanceMeters>80078.610125927</DistanceMeters>
          </Trackpoint>
          <Trackpoint>
            <Time>2018-04-21T14:01:53.000Z</Time>
            <Position>
              <LatitudeDegrees>43.28707485459744930267333984375</LatitudeDegrees>
              <LongitudeDegrees>-8.2684945128858089447021484375</LongitudeDegrees>
            </Position>
            <AltitudeMeters>68</AltitudeMeters>
            <DistanceMeters>80098.660087102</DistanceMeters>
          </Trackpoint>
          <Trackpoint>
            <Time>2018-04-21T14:02:01.000Z</Time>
            <Position>
              <LatitudeDegrees>43.28676438890397548675537109375</LatitudeDegrees>
              <LongitudeDegrees>-8.26862988062202930450439453125</LongitudeDegrees>
            </Position>
            <AltitudeMeters>68.40000152587890625</AltitudeMeters>
            <DistanceMeters>80134.914241991</DistanceMeters>
          </Trackpoint>
          <Trackpoint>
            <Time>2018-04-21T14:02:07.000Z</Time>
            <Position>
              <LatitudeDegrees>43.2865537516772747039794921875</LatitudeDegrees>
              <LongitudeDegrees>-8.2687265239655971527099609375</LongitudeDegrees>
            </Position>
            <AltitudeMeters>68.1999969482421875</AltitudeMeters>
            <DistanceMeters>80159.631419255</DistanceMeters>
          </Trackpoint>
          <Trackpoint>
            <Time>2018-04-21T14:02:08.000Z</Time>
            <Position>
              <LatitudeDegrees>43.2865198887884616851806640625</LatitudeDegrees>
              <LongitudeDegrees>-8.268741779029369354248046875</LongitudeDegrees>
            </Position>
            <AltitudeMeters>68.59999847412109375</AltitudeMeters>
            <DistanceMeters>80163.597575224</DistanceMeters>
          </Trackpoint>
          <Trackpoint>
            <Time>2018-04-21T14:02:11.000Z</Time>
            <Position>
              <LatitudeDegrees>43.286421485245227813720703125</LatitudeDegrees>
              <LongitudeDegrees>-8.2687972672283649444580078125</LongitudeDegrees>
            </Position>
            <AltitudeMeters>68.40000152587890625</AltitudeMeters>
            <DistanceMeters>80175.436698779</DistanceMeters>
          </Trackpoint>
          <Trackpoint>
            <Time>2018-04-21T14:02:16.000Z</Time>
            <Position>
              <LatitudeDegrees>43.28626264818012714385986328125</LatitudeDegrees>
              <LongitudeDegrees>-8.268899023532867431640625</LongitudeDegrees>
            </Position>
            <AltitudeMeters>69</AltitudeMeters>
            <DistanceMeters>80194.943347932</DistanceMeters>
          </Trackpoint>
          <Trackpoint>
            <Time>2018-04-21T14:02:22.000Z</Time>
            <Position>
              <LatitudeDegrees>43.28608511947095394134521484375</LatitudeDegrees>
              <LongitudeDegrees>-8.26903439126908779144287109375</LongitudeDegrees>
            </Position>
            <AltitudeMeters>68.59999847412109375</AltitudeMeters>
            <DistanceMeters>80217.542530739</DistanceMeters>
          </Trackpoint>
          <Trackpoint>
            <Time>2018-04-21T14:02:24.000Z</Time>
            <Position>
              <LatitudeDegrees>43.28603197820484638214111328125</LatitudeDegrees>
              <LongitudeDegrees>-8.2690721936523914337158203125</LongitudeDegrees>
            </Position>
            <AltitudeMeters>69.8000030517578125</AltitudeMeters>
            <DistanceMeters>80224.203896638</DistanceMeters>
          </Trackpoint>
          <Trackpoint>
            <Time>2018-04-21T14:02:27.000Z</Time>
            <Position>
              <LatitudeDegrees>43.28596056438982486724853515625</LatitudeDegrees>
              <LongitudeDegrees>-8.26911049894988536834716796875</LongitudeDegrees>
            </Position>
            <AltitudeMeters>69.1999969482421875</AltitudeMeters>
            <DistanceMeters>80232.736745305</DistanceMeters>
          </Trackpoint>
          <Trackpoint>
            <Time>2018-04-21T14:02:31.000Z</Time>
            <Position>
              <LatitudeDegrees>43.2858805172145366668701171875</LatitudeDegrees>
              <LongitudeDegrees>-8.26918375678360462188720703125</LongitudeDegrees>
            </Position>
            <AltitudeMeters>69.59999847412109375</AltitudeMeters>
            <DistanceMeters>80243.441495189</DistanceMeters>
          </Trackpoint>
          <Trackpoint>
            <Time>2018-04-21T14:02:32.000Z</Time>
            <Position>
              <LatitudeDegrees>43.28586065210402011871337890625</LatitudeDegrees>
              <LongitudeDegrees>-8.26920655556023120880126953125</LongitudeDegrees>
            </Position>
            <AltitudeMeters>69.8000030517578125</AltitudeMeters>
            <DistanceMeters>80246.322231249</DistanceMeters>
          </Trackpoint>
          <Trackpoint>
            <Time>2018-04-21T14:02:36.000Z</Time>
            <Position>
              <LatitudeDegrees>43.28577633015811443328857421875</LatitudeDegrees>
              <LongitudeDegrees>-8.26933580450713634490966796875</LongitudeDegrees>
            </Position>
            <AltitudeMeters>70.1999969482421875</AltitudeMeters>
            <DistanceMeters>80260.384258627</DistanceMeters>
          </Trackpoint>
          <Trackpoint>
            <Time>2018-04-21T14:02:38.000Z</Time>
            <Position>
              <LatitudeDegrees>43.2857205905020236968994140625</LatitudeDegrees>
              <LongitudeDegrees>-8.2694151811301708221435546875</LongitudeDegrees>
            </Position>
            <AltitudeMeters>70.40000152587890625</AltitudeMeters>
            <DistanceMeters>80269.319802031</DistanceMeters>
          </Trackpoint>
          <Trackpoint>
            <Time>2018-04-21T14:02:45.000Z</Time>
            <Position>
              <LatitudeDegrees>43.2855066843330860137939453125</LatitudeDegrees>
              <LongitudeDegrees>-8.2696441747248172760009765625</LongitudeDegrees>
            </Position>
            <AltitudeMeters>70.59999847412109375</AltitudeMeters>
            <DistanceMeters>80299.503463878</DistanceMeters>
          </Trackpoint>
          <Trackpoint>
            <Time>2018-04-21T14:02:47.000Z</Time>
            <Position>
              <LatitudeDegrees>43.28544591553509235382080078125</LatitudeDegrees>
              <LongitudeDegrees>-8.269675187766551971435546875</LongitudeDegrees>
            </Position>
            <AltitudeMeters>70.8000030517578125</AltitudeMeters>
            <DistanceMeters>80306.719239704</DistanceMeters>
          </Trackpoint>
          <Trackpoint>
            <Time>2018-04-21T14:02:51.000Z</Time>
            <Position>
              <LatitudeDegrees>43.2853276468813419342041015625</LatitudeDegrees>
              <LongitudeDegrees>-8.269709385931491851806640625</LongitudeDegrees>
            </Position>
            <AltitudeMeters>71.1999969482421875</AltitudeMeters>
            <DistanceMeters>80320.171142985</DistanceMeters>
          </Trackpoint>
          <Trackpoint>
            <Time>2018-04-21T14:02:54.000Z</Time>
            <Position>
              <LatitudeDegrees>43.28524491749703884124755859375</LatitudeDegrees>
              <LongitudeDegrees>-8.269744254648685455322265625</LongitudeDegrees>
            </Position>
            <AltitudeMeters>72</AltitudeMeters>
            <DistanceMeters>80329.802183698</DistanceMeters>
          </Trackpoint>
          <Trackpoint>
            <Time>2018-04-21T14:02:58.000Z</Time>
            <Position>
              <LatitudeDegrees>43.2851325161755084991455078125</LatitudeDegrees>
              <LongitudeDegrees>-8.26979965902864933013916015625</LongitudeDegrees>
            </Position>
            <AltitudeMeters>73.1999969482421875</AltitudeMeters>
            <DistanceMeters>80343.093020971</DistanceMeters>
          </Trackpoint>
          <Trackpoint>
            <Time>2018-04-21T14:03:02.000Z</Time>
            <Position>
              <LatitudeDegrees>43.28501860611140727996826171875</LatitudeDegrees>
              <LongitudeDegrees>-8.26983788050711154937744140625</LongitudeDegrees>
            </Position>
            <AltitudeMeters>74</AltitudeMeters>
            <DistanceMeters>80356.143894577</DistanceMeters>
          </Trackpoint>
          <Trackpoint>
            <Time>2018-04-21T14:03:03.000Z</Time>
            <Position>
              <LatitudeDegrees>43.28499128110706806182861328125</LatitudeDegrees>
              <LongitudeDegrees>-8.2698476873338222503662109375</LongitudeDegrees>
            </Position>
            <AltitudeMeters>74.1999969482421875</AltitudeMeters>
            <DistanceMeters>80359.2869669</DistanceMeters>
          </Trackpoint>
          <Trackpoint>
            <Time>2018-04-21T14:03:05.000Z</Time>
            <Position>
              <LatitudeDegrees>43.28493813984096050262451171875</LatitudeDegrees>
              <LongitudeDegrees>-8.2698632776737213134765625</LongitudeDegrees>
            </Position>
            <AltitudeMeters>74.40000152587890625</AltitudeMeters>
            <DistanceMeters>80365.334429971</DistanceMeters>
          </Trackpoint>
          <Trackpoint>
            <Time>2018-04-21T14:03:09.000Z</Time>
            <Position>
              <LatitudeDegrees>43.28483135439455509185791015625</LatitudeDegrees>
              <LongitudeDegrees>-8.26990527100861072540283203125</LongitudeDegrees>
            </Position>
            <AltitudeMeters>75.40000152587890625</AltitudeMeters>
            <DistanceMeters>80377.697401859</DistanceMeters>
          </Trackpoint>
          <Trackpoint>
            <Time>2018-04-21T14:03:14.000Z</Time>
            <Position>
              <LatitudeDegrees>43.284696154296398162841796875</LatitudeDegrees>
              <LongitudeDegrees>-8.26995740644633769989013671875</LongitudeDegrees>
            </Position>
            <AltitudeMeters>76.1999969482421875</AltitudeMeters>
            <DistanceMeters>80393.327202179</DistanceMeters>
          </Trackpoint>
          <Trackpoint>
            <Time>2018-04-21T14:03:15.000Z</Time>
            <Position>
              <LatitudeDegrees>43.2846711762249469757080078125</LatitudeDegrees>
              <LongitudeDegrees>-8.2699652016162872314453125</LongitudeDegrees>
            </Position>
            <AltitudeMeters>76.59999847412109375</AltitudeMeters>
            <DistanceMeters>80396.176419391</DistanceMeters>
          </Trackpoint>
          <Trackpoint>
            <Time>2018-04-21T14:03:20.000Z</Time>
            <Position>
              <LatitudeDegrees>43.28454804606735706329345703125</LatitudeDegrees>
              <LongitudeDegrees>-8.27000535093247890472412109375</LongitudeDegrees>
            </Position>
            <AltitudeMeters>77.59999847412109375</AltitudeMeters>
            <DistanceMeters>80410.26154557</DistanceMeters>
          </Trackpoint>
          <Trackpoint>
            <Time>2018-04-21T14:03:21.000Z</Time>
            <Position>
              <LatitudeDegrees>43.2845243252813816070556640625</LatitudeDegrees>
              <LongitudeDegrees>-8.27001406811177730560302734375</LongitudeDegrees>
            </Position>
            <AltitudeMeters>77.8000030517578125</AltitudeMeters>
            <DistanceMeters>80412.992633841</DistanceMeters>
          </Trackpoint>
          <Trackpoint>
            <Time>2018-04-21T14:03:28.000Z</Time>
            <Position>
              <LatitudeDegrees>43.28437319956719875335693359375</LatitudeDegrees>
              <LongitudeDegrees>-8.27005128376185894012451171875</LongitudeDegrees>
            </Position>
            <AltitudeMeters>78.8000030517578125</AltitudeMeters>
            <DistanceMeters>80430.081333093</DistanceMeters>
          </Trackpoint>
          <Trackpoint>
            <Time>2018-04-21T14:03:34.000Z</Time>
            <Position>
              <LatitudeDegrees>43.28423892147839069366455078125</LatitudeDegrees>
              <LongitudeDegrees>-8.27007072977721691131591796875</LongitudeDegrees>
            </Position>
            <AltitudeMeters>80</AltitudeMeters>
            <DistanceMeters>80445.109380599</DistanceMeters>
          </Trackpoint>
          <Trackpoint>
            <Time>2018-04-21T14:03:41.000Z</Time>
            <Position>
              <LatitudeDegrees>43.28408000059425830841064453125</LatitudeDegrees>
              <LongitudeDegrees>-8.27014633454382419586181640625</LongitudeDegrees>
            </Position>
            <AltitudeMeters>80.59999847412109375</AltitudeMeters>
            <DistanceMeters>80463.828196167</DistanceMeters>
          </Trackpoint>
          <Trackpoint>
            <Time>2018-04-21T14:03:44.000Z</Time>
            <Position>
              <LatitudeDegrees>43.2840152084827423095703125</LatitudeDegrees>
              <LongitudeDegrees>-8.27018673531711101531982421875</LongitudeDegrees>
            </Position>
            <AltitudeMeters>81</AltitudeMeters>
            <DistanceMeters>80471.747975897</DistanceMeters>
          </Trackpoint>
          <Trackpoint>
            <Time>2018-04-21T14:03:46.000Z</Time>
            <Position>
              <LatitudeDegrees>43.28397162258625030517578125</LatitudeDegrees>
              <LongitudeDegrees>-8.2702238671481609344482421875</LongitudeDegrees>
            </Position>
            <AltitudeMeters>81.1999969482421875</AltitudeMeters>
            <DistanceMeters>80477.456701314</DistanceMeters>
          </Trackpoint>
          <Trackpoint>
            <Time>2018-04-21T14:03:47.000Z</Time>
            <Position>
              <LatitudeDegrees>43.2839607261121273040771484375</LatitudeDegrees>
              <LongitudeDegrees>-8.2702610827982425689697265625</LongitudeDegrees>
            </Position>
            <AltitudeMeters>81.59999847412109375</AltitudeMeters>
            <DistanceMeters>80480.707115048</DistanceMeters>
          </Trackpoint>
          <Trackpoint>
            <Time>2018-04-21T14:03:50.000Z</Time>
            <Position>
              <LatitudeDegrees>43.2839597202837467193603515625</LatitudeDegrees>
              <LongitudeDegrees>-8.270375914871692657470703125</LongitudeDegrees>
            </Position>
            <AltitudeMeters>81.1999969482421875</AltitudeMeters>
            <DistanceMeters>80490.01197254</DistanceMeters>
          </Trackpoint>
          <Trackpoint>
            <Time>2018-04-21T14:03:52.000Z</Time>
            <Position>
              <LatitudeDegrees>43.28399601392447948455810546875</LatitudeDegrees>
              <LongitudeDegrees>-8.270442299544811248779296875</LongitudeDegrees>
            </Position>
            <AltitudeMeters>81.40000152587890625</AltitudeMeters>
            <DistanceMeters>80496.738091999</DistanceMeters>
          </Trackpoint>
          <Trackpoint>
            <Time>2018-04-21T14:03:55.000Z</Time>
            <Position>
              <LatitudeDegrees>43.2840445451438426971435546875</LatitudeDegrees>
              <LongitudeDegrees>-8.27052720822393894195556640625</LongitudeDegrees>
            </Position>
            <AltitudeMeters>81.8000030517578125</AltitudeMeters>
            <DistanceMeters>80505.484680342</DistanceMeters>
          </Trackpoint>
          <Trackpoint>
            <Time>2018-04-21T14:03:56.000Z</Time>
            <Position>
              <LatitudeDegrees>43.28406122513115406036376953125</LatitudeDegrees>
              <LongitudeDegrees>-8.2705561257898807525634765625</LongitudeDegrees>
            </Position>
            <AltitudeMeters>82</AltitudeMeters>
            <DistanceMeters>80508.474626107</DistanceMeters>
          </Trackpoint>
          <Trackpoint>
            <Time>2018-04-21T14:04:02.000Z</Time>
            <Position>
              <LatitudeDegrees>43.28417278826236724853515625</LatitudeDegrees>
              <LongitudeDegrees>-8.27078260481357574462890625</LongitudeDegrees>
            </Position>
            <AltitudeMeters>82.59999847412109375</AltitudeMeters>
            <DistanceMeters>80530.631546831</DistanceMeters>
          </Trackpoint>
          <Trackpoint>
            <Time>2018-04-21T14:04:08.000Z</Time>
            <Position>
              <LatitudeDegrees>43.28431896865367889404296875</LatitudeDegrees>
              <LongitudeDegrees>-8.271135650575160980224609375</LongitudeDegrees>
            </Position>
            <AltitudeMeters>80.59999847412109375</AltitudeMeters>
            <DistanceMeters>80563.539889356</DistanceMeters>
          </Trackpoint>
          <Trackpoint>
            <Time>2018-04-21T14:04:12.000Z</Time>
            <Position>
              <LatitudeDegrees>43.28440345823764801025390625</LatitudeDegrees>
              <LongitudeDegrees>-8.27134058810770511627197265625</LongitudeDegrees>
            </Position>
            <AltitudeMeters>79.59999847412109375</AltitudeMeters>
            <DistanceMeters>80582.622521845</DistanceMeters>
          </Trackpoint>
          <Trackpoint>
            <Time>2018-04-21T14:04:13.000Z</Time>
            <Position>
              <LatitudeDegrees>43.2844160310924053192138671875</LatitudeDegrees>
              <LongitudeDegrees>-8.27137679792940616607666015625</LongitudeDegrees>
            </Position>
            <AltitudeMeters>79.1999969482421875</AltitudeMeters>
            <DistanceMeters>80585.872935578</DistanceMeters>
          </Trackpoint>
          <Trackpoint>
            <Time>2018-04-21T14:04:16.000Z</Time>
            <Position>
              <LatitudeDegrees>43.28442650847136974334716796875</LatitudeDegrees>
              <LongitudeDegrees>-8.27146044932305812835693359375</LongitudeDegrees>
            </Position>
            <AltitudeMeters>78.1999969482421875</AltitudeMeters>
            <DistanceMeters>80592.750401711</DistanceMeters>
          </Trackpoint>
          <Trackpoint>
            <Time>2018-04-21T14:04:18.000Z</Time>
            <Position>
              <LatitudeDegrees>43.28442893922328948974609375</LatitudeDegrees>
              <LongitudeDegrees>-8.271494396030902862548828125</LongitudeDegrees>
            </Position>
            <AltitudeMeters>78.40000152587890625</AltitudeMeters>
            <DistanceMeters>80595.514356246</DistanceMeters>
          </Trackpoint>
          <Trackpoint>
            <Time>2018-04-21T14:04:20.000Z</Time>
            <Position>
              <LatitudeDegrees>43.2844311185181140899658203125</LatitudeDegrees>
              <LongitudeDegrees>-8.27152633108198642730712890625</LongitudeDegrees>
            </Position>
            <AltitudeMeters>78.1999969482421875</AltitudeMeters>
            <DistanceMeters>80598.113297796</DistanceMeters>
          </Trackpoint>
          <Trackpoint>
            <Time>2018-04-21T14:04:23.000Z</Time>
            <Position>
              <LatitudeDegrees>43.28445014543831348419189453125</LatitudeDegrees>
              <LongitudeDegrees>-8.271558098495006561279296875</LongitudeDegrees>
            </Position>
            <AltitudeMeters>78.40000152587890625</AltitudeMeters>
            <DistanceMeters>80601.44601351</DistanceMeters>
          </Trackpoint>
          <Trackpoint>
            <Time>2018-04-21T14:04:26.000Z</Time>
            <Position>
              <LatitudeDegrees>43.28446858562529087066650390625</LatitudeDegrees>
              <LongitudeDegrees>-8.2715959846973419189453125</LongitudeDegrees>
            </Position>
            <AltitudeMeters>78.1999969482421875</AltitudeMeters>
            <DistanceMeters>80605.138629849</DistanceMeters>
          </Trackpoint>
          <Trackpoint>
            <Time>2018-04-21T14:04:30.000Z</Time>
            <Position>
              <LatitudeDegrees>43.284501694142818450927734375</LatitudeDegrees>
              <LongitudeDegrees>-8.27167854644358158111572265625</LongitudeDegrees>
            </Position>
            <AltitudeMeters>78.1999969482421875</AltitudeMeters>
            <DistanceMeters>80612.775727711</DistanceMeters>
          </Trackpoint>
          <Trackpoint>
            <Time>2018-04-21T14:04:31.000Z</Time>
            <Position>
              <LatitudeDegrees>43.2845125906169414520263671875</LatitudeDegrees>
              <LongitudeDegrees>-8.271707631647586822509765625</LongitudeDegrees>
            </Position>
            <AltitudeMeters>78.1999969482421875</AltitudeMeters>
            <DistanceMeters>80615.426274725</DistanceMeters>
          </Trackpoint>
          <Trackpoint>
            <Time>2018-04-21T14:04:34.000Z</Time>
            <Position>
              <LatitudeDegrees>43.2845457829535007476806640625</LatitudeDegrees>
              <LongitudeDegrees>-8.27178097330033779144287109375</LongitudeDegrees>
            </Position>
            <AltitudeMeters>78.40000152587890625</AltitudeMeters>
            <DistanceMeters>80622.423493778</DistanceMeters>
          </Trackpoint>
          <Trackpoint>
            <Time>2018-04-21T14:04:40.000Z</Time>
            <Position>
              <LatitudeDegrees>43.28460772521793842315673828125</LatitudeDegrees>
              <LongitudeDegrees>-8.27195816673338413238525390625</LongitudeDegrees>
            </Position>
            <AltitudeMeters>78.59999847412109375</AltitudeMeters>
            <DistanceMeters>80638.349472152</DistanceMeters>
          </Trackpoint>
          <Trackpoint>
            <Time>2018-04-21T14:04:44.000Z</Time>
            <Position>
              <LatitudeDegrees>43.2846467010676860809326171875</LatitudeDegrees>
              <LongitudeDegrees>-8.27205288223922252655029296875</LongitudeDegrees>
            </Position>
            <AltitudeMeters>79</AltitudeMeters>
            <DistanceMeters>80647.164960674</DistanceMeters>
          </Trackpoint>
          <Trackpoint>
            <Time>2018-04-21T14:04:46.000Z</Time>
            <Position>
              <LatitudeDegrees>43.2846658118069171905517578125</LatitudeDegrees>
              <LongitudeDegrees>-8.2721024192869663238525390625</LongitudeDegrees>
            </Position>
            <AltitudeMeters>78.8000030517578125</AltitudeMeters>
            <DistanceMeters>80651.708390518</DistanceMeters>
          </Trackpoint>
          <Trackpoint>
            <Time>2018-04-21T14:04:52.000Z</Time>
            <Position>
              <LatitudeDegrees>43.28474543988704681396484375</LatitudeDegrees>
              <LongitudeDegrees>-8.272333927452564239501953125</LongitudeDegrees>
            </Position>
            <AltitudeMeters>77.8000030517578125</AltitudeMeters>
            <DistanceMeters>80672.45426971</DistanceMeters>
          </Trackpoint>
          <Trackpoint>
            <Time>2018-04-21T14:04:53.000Z</Time>
            <Position>
              <LatitudeDegrees>43.2847720943391323089599609375</LatitudeDegrees>
              <LongitudeDegrees>-8.2723870687186717987060546875</LongitudeDegrees>
            </Position>
            <AltitudeMeters>76.8000030517578125</AltitudeMeters>
            <DistanceMeters>80677.682466474</DistanceMeters>
          </Trackpoint>
          <Trackpoint>
            <Time>2018-04-21T14:04:57.000Z</Time>
            <Position>
              <LatitudeDegrees>43.28486144542694091796875</LatitudeDegrees>
              <LongitudeDegrees>-8.2726345025002956390380859375</LongitudeDegrees>
            </Position>
            <AltitudeMeters>75.1999969482421875</AltitudeMeters>
            <DistanceMeters>80700.061207269</DistanceMeters>
          </Trackpoint>
          <Trackpoint>
            <Time>2018-04-21T14:05:00.000Z</Time>
            <Position>
              <LatitudeDegrees>43.2849129103124141693115234375</LatitudeDegrees>
              <LongitudeDegrees>-8.2728219218552112579345703125</LongitudeDegrees>
            </Position>
            <AltitudeMeters>74</AltitudeMeters>
            <DistanceMeters>80716.291035668</DistanceMeters>
          </Trackpoint>
          <Trackpoint>
            <Time>2018-04-21T14:05:01.000Z</Time>
            <Position>
              <LatitudeDegrees>43.28492824919521808624267578125</LatitudeDegrees>
              <LongitudeDegrees>-8.272882439196109771728515625</LongitudeDegrees>
            </Position>
            <AltitudeMeters>72.8000030517578125</AltitudeMeters>
            <DistanceMeters>80721.481965075</DistanceMeters>
          </Trackpoint>
          <Trackpoint>
            <Time>2018-04-21T14:05:03.000Z</Time>
            <Position>
              <LatitudeDegrees>43.2849568314850330352783203125</LatitudeDegrees>
              <LongitudeDegrees>-8.27299886383116245269775390625</LongitudeDegrees>
            </Position>
            <AltitudeMeters>71.59999847412109375</AltitudeMeters>
            <DistanceMeters>80731.436665417</DistanceMeters>
          </Trackpoint>
          <Trackpoint>
            <Time>2018-04-21T14:05:05.000Z</Time>
            <Position>
              <LatitudeDegrees>43.2849990762770175933837890625</LatitudeDegrees>
              <LongitudeDegrees>-8.2730995304882526397705078125</LongitudeDegrees>
            </Position>
            <AltitudeMeters>70</AltitudeMeters>
            <DistanceMeters>80740.851026803</DistanceMeters>
          </Trackpoint>
          <Trackpoint>
            <Time>2018-04-21T14:05:08.000Z</Time>
            <Position>
              <LatitudeDegrees>43.28512388281524181365966796875</LatitudeDegrees>
              <LongitudeDegrees>-8.27322542667388916015625</LongitudeDegrees>
            </Position>
            <AltitudeMeters>68.59999847412109375</AltitudeMeters>
            <DistanceMeters>80758.085215916</DistanceMeters>
          </Trackpoint>
          <Trackpoint>
            <Time>2018-04-21T14:05:09.000Z</Time>
            <Position>
              <LatitudeDegrees>43.28516528941690921783447265625</LatitudeDegrees>
              <LongitudeDegrees>-8.2732708565890789031982421875</LongitudeDegrees>
            </Position>
            <AltitudeMeters>68.1999969482421875</AltitudeMeters>
            <DistanceMeters>80763.982999776</DistanceMeters>
          </Trackpoint>
          <Trackpoint>
            <Time>2018-04-21T14:05:10.000Z</Time>
            <Position>
              <LatitudeDegrees>43.28520854003727436065673828125</LatitudeDegrees>
              <LongitudeDegrees>-8.27332341112196445465087890625</LongitudeDegrees>
            </Position>
            <AltitudeMeters>67.1999969482421875</AltitudeMeters>
            <DistanceMeters>80770.409785105</DistanceMeters>
          </Trackpoint>
          <Trackpoint>
            <Time>2018-04-21T14:05:11.000Z</Time>
            <Position>
              <LatitudeDegrees>43.28524324111640453338623046875</LatitudeDegrees>
              <LongitudeDegrees>-8.2733801566064357757568359375</LongitudeDegrees>
            </Position>
            <AltitudeMeters>66</AltitudeMeters>
            <DistanceMeters>80776.41529302</DistanceMeters>
          </Trackpoint>
          <Trackpoint>
            <Time>2018-04-21T14:05:13.000Z</Time>
            <Position>
              <LatitudeDegrees>43.28531247563660144805908203125</LatitudeDegrees>
              <LongitudeDegrees>-8.27350772917270660400390625</LongitudeDegrees>
            </Position>
            <AltitudeMeters>64.40000152587890625</AltitudeMeters>
            <DistanceMeters>80789.308145581</DistanceMeters>
          </Trackpoint>
          <Trackpoint>
            <Time>2018-04-21T14:05:14.000Z</Time>
            <Position>
              <LatitudeDegrees>43.2853444106876850128173828125</LatitudeDegrees>
              <LongitudeDegrees>-8.27358274720609188079833984375</LongitudeDegrees>
            </Position>
            <AltitudeMeters>64</AltitudeMeters>
            <DistanceMeters>80796.348464438</DistanceMeters>
          </Trackpoint>
          <Trackpoint>
            <Time>2018-04-21T14:05:15.000Z</Time>
            <Position>
              <LatitudeDegrees>43.28537047840654850006103515625</LatitudeDegrees>
              <LongitudeDegrees>-8.27366757206618785858154296875</LongitudeDegrees>
            </Position>
            <AltitudeMeters>63.59999847412109375</AltitudeMeters>
            <DistanceMeters>80803.808515451</DistanceMeters>
          </Trackpoint>
          <Trackpoint>
            <Time>2018-04-21T14:05:16.000Z</Time>
            <Position>
              <LatitudeDegrees>43.28539864160120487213134765625</LatitudeDegrees>
              <LongitudeDegrees>-8.27373764477670192718505859375</LongitudeDegrees>
            </Position>
            <AltitudeMeters>63.200000762939453125</AltitudeMeters>
            <DistanceMeters>80810.294045197</DistanceMeters>
          </Trackpoint>
          <Trackpoint>
            <Time>2018-04-21T14:05:18.000Z</Time>
            <Position>
              <LatitudeDegrees>43.28544071875512599945068359375</LatitudeDegrees>
              <LongitudeDegrees>-8.27387678436934947967529296875</LongitudeDegrees>
            </Position>
            <AltitudeMeters>61.59999847412109375</AltitudeMeters>
            <DistanceMeters>80822.501927144</DistanceMeters>
          </Trackpoint>
          <Trackpoint>
            <Time>2018-04-21T14:05:20.000Z</Time>
            <Position>
              <LatitudeDegrees>43.28547273762524127960205078125</LatitudeDegrees>
              <LongitudeDegrees>-8.27400033362209796905517578125</LongitudeDegrees>
            </Position>
            <AltitudeMeters>59.799999237060546875</AltitudeMeters>
            <DistanceMeters>80833.127511635</DistanceMeters>
          </Trackpoint>
          <Trackpoint>
            <Time>2018-04-21T14:05:22.000Z</Time>
            <Position>
              <LatitudeDegrees>43.2855080254375934600830078125</LatitudeDegrees>
              <LongitudeDegrees>-8.27411265112459659576416015625</LongitudeDegrees>
            </Position>
            <AltitudeMeters>58</AltitudeMeters>
            <DistanceMeters>80843.039030269</DistanceMeters>
          </Trackpoint>
          <Trackpoint>
            <Time>2018-04-21T14:05:24.000Z</Time>
            <Position>
              <LatitudeDegrees>43.28554163686931133270263671875</LatitudeDegrees>
              <LongitudeDegrees>-8.27422413043677806854248046875</LongitudeDegrees>
            </Position>
            <AltitudeMeters>56.200000762939453125</AltitudeMeters>
            <DistanceMeters>80852.815704507</DistanceMeters>
          </Trackpoint>
          <Trackpoint>
            <Time>2018-04-21T14:05:25.000Z</Time>
            <Position>
              <LatitudeDegrees>43.285556137561798095703125</LatitudeDegrees>
              <LongitudeDegrees>-8.27428129501640796661376953125</LongitudeDegrees>
            </Position>
            <AltitudeMeters>55.59999847412109375</AltitudeMeters>
            <DistanceMeters>80857.720408743</DistanceMeters>
          </Trackpoint>
          <Trackpoint>
            <Time>2018-04-21T14:05:26.000Z</Time>
            <Position>
              <LatitudeDegrees>43.2855693809688091278076171875</LatitudeDegrees>
              <LongitudeDegrees>-8.2743383757770061492919921875</LongitudeDegrees>
            </Position>
            <AltitudeMeters>55</AltitudeMeters>
            <DistanceMeters>80862.575148646</DistanceMeters>
          </Trackpoint>
          <Trackpoint>
            <Time>2018-04-21T14:05:28.000Z</Time>
            <Position>
              <LatitudeDegrees>43.285588659346103668212890625</LatitudeDegrees>
              <LongitudeDegrees>-8.2744379527866840362548828125</LongitudeDegrees>
            </Position>
            <AltitudeMeters>53.40000152587890625</AltitudeMeters>
            <DistanceMeters>80870.92344967</DistanceMeters>
          </Trackpoint>
          <Trackpoint>
            <Time>2018-04-21T14:05:29.000Z</Time>
            <Position>
              <LatitudeDegrees>43.2855945266783237457275390625</LatitudeDegrees>
              <LongitudeDegrees>-8.27448413707315921783447265625</LongitudeDegrees>
            </Position>
            <AltitudeMeters>52.200000762939453125</AltitudeMeters>
            <DistanceMeters>80874.722141834</DistanceMeters>
          </Trackpoint>
          <Trackpoint>
            <Time>2018-04-21T14:05:31.000Z</Time>
            <Position>
              <LatitudeDegrees>43.2855985499918460845947265625</LatitudeDegrees>
              <LongitudeDegrees>-8.2745780982077121734619140625</LongitudeDegrees>
            </Position>
            <AltitudeMeters>51</AltitudeMeters>
            <DistanceMeters>80882.348590705</DistanceMeters>
          </Trackpoint>
          <Trackpoint>
            <Time>2018-04-21T14:05:35.000Z</Time>
            <Position>
              <LatitudeDegrees>43.2855616696178913116455078125</LatitudeDegrees>
              <LongitudeDegrees>-8.27474514953792095184326171875</LongitudeDegrees>
            </Position>
            <AltitudeMeters>49.40000152587890625</AltitudeMeters>
            <DistanceMeters>80896.492256547</DistanceMeters>
          </Trackpoint>
          <Trackpoint>
            <Time>2018-04-21T14:05:36.000Z</Time>
            <Position>
              <LatitudeDegrees>43.2855465821921825408935546875</LatitudeDegrees>
              <LongitudeDegrees>-8.27477247454226016998291015625</LongitudeDegrees>
            </Position>
            <AltitudeMeters>49</AltitudeMeters>
            <DistanceMeters>80899.270874074</DistanceMeters>
          </Trackpoint>
          <Trackpoint>
            <Time>2018-04-21T14:05:37.000Z</Time>
            <Position>
              <LatitudeDegrees>43.285528309643268585205078125</LatitudeDegrees>
              <LongitudeDegrees>-8.27479812316596508026123046875</LongitudeDegrees>
            </Position>
            <AltitudeMeters>48.200000762939453125</AltitudeMeters>
            <DistanceMeters>80902.179685107</DistanceMeters>
          </Trackpoint>
          <Trackpoint>
            <Time>2018-04-21T14:05:42.000Z</Time>
            <Position>
              <LatitudeDegrees>43.2853925228118896484375</LatitudeDegrees>
              <LongitudeDegrees>-8.274896442890167236328125</LongitudeDegrees>
            </Position>
            <AltitudeMeters>48</AltitudeMeters>
            <DistanceMeters>80919.263892166</DistanceMeters>
          </Trackpoint>
          <Trackpoint>
            <Time>2018-04-21T14:05:48.000Z</Time>
            <Position>
              <LatitudeDegrees>43.28514014370739459991455078125</LatitudeDegrees>
              <LongitudeDegrees>-8.274951763451099395751953125</LongitudeDegrees>
            </Position>
            <AltitudeMeters>46.200000762939453125</AltitudeMeters>
            <DistanceMeters>80947.709437157</DistanceMeters>
          </Trackpoint>
          <Trackpoint>
            <Time>2018-04-21T14:05:49.000Z</Time>
            <Position>
              <LatitudeDegrees>43.2850594259798526763916015625</LatitudeDegrees>
              <LongitudeDegrees>-8.2749660126864910125732421875</LongitudeDegrees>
            </Position>
            <AltitudeMeters>45.799999237060546875</AltitudeMeters>
            <DistanceMeters>80956.76743222</DistanceMeters>
          </Trackpoint>
          <Trackpoint>
            <Time>2018-04-21T14:05:51.000Z</Time>
            <Position>
              <LatitudeDegrees>43.2848927937448024749755859375</LatitudeDegrees>
              <LongitudeDegrees>-8.27498084865510463714599609375</LongitudeDegrees>
            </Position>
            <AltitudeMeters>46.40000152587890625</AltitudeMeters>
            <DistanceMeters>80975.352869642</DistanceMeters>
          </Trackpoint>
          <Trackpoint>
            <Time>2018-04-21T14:05:53.000Z</Time>
            <Position>
              <LatitudeDegrees>43.2847489602863788604736328125</LatitudeDegrees>
              <LongitudeDegrees>-8.275006078183650970458984375</LongitudeDegrees>
            </Position>
            <AltitudeMeters>46</AltitudeMeters>
            <DistanceMeters>80991.491752036</DistanceMeters>
          </Trackpoint>
          <Trackpoint>
            <Time>2018-04-21T14:05:55.000Z</Time>
            <Position>
              <LatitudeDegrees>43.2846473716199398040771484375</LatitudeDegrees>
              <LongitudeDegrees>-8.27503767795860767364501953125</LongitudeDegrees>
            </Position>
            <AltitudeMeters>46.200000762939453125</AltitudeMeters>
            <DistanceMeters>81003.085011189</DistanceMeters>
          </Trackpoint>
          <Trackpoint>
            <Time>2018-04-21T14:05:57.000Z</Time>
            <Position>
              <LatitudeDegrees>43.2845826633274555206298828125</LatitudeDegrees>
              <LongitudeDegrees>-8.27509165741503238677978515625</LongitudeDegrees>
            </Position>
            <AltitudeMeters>46.40000152587890625</AltitudeMeters>
            <DistanceMeters>81011.510832277</DistanceMeters>
          </Trackpoint>
          <Trackpoint>
            <Time>2018-04-21T14:05:58.000Z</Time>
            <Position>
              <LatitudeDegrees>43.28455097973346710205078125</LatitudeDegrees>
              <LongitudeDegrees>-8.27512904070317745208740234375</LongitudeDegrees>
            </Position>
            <AltitudeMeters>46.40000152587890625</AltitudeMeters>
            <DistanceMeters>81016.160348704</DistanceMeters>
          </Trackpoint>
          <Trackpoint>
            <Time>2018-04-21T14:06:06.000Z</Time>
            <Position>
              <LatitudeDegrees>43.28414856456220149993896484375</LatitudeDegrees>
              <LongitudeDegrees>-8.2755093276500701904296875</LongitudeDegrees>
            </Position>
            <AltitudeMeters>44.59999847412109375</AltitudeMeters>
            <DistanceMeters>81070.52476574</DistanceMeters>
          </Trackpoint>
          <Trackpoint>
            <Time>2018-04-21T14:06:07.000Z</Time>
            <Position>
              <LatitudeDegrees>43.28408687375485897064208984375</LatitudeDegrees>
              <LongitudeDegrees>-8.275582753121852874755859375</LongitudeDegrees>
            </Position>
            <AltitudeMeters>44.200000762939453125</AltitudeMeters>
            <DistanceMeters>81079.60963771</DistanceMeters>
          </Trackpoint>
          <Trackpoint>
            <Time>2018-04-21T14:06:11.000Z</Time>
            <Position>
              <LatitudeDegrees>43.283880092203617095947265625</LatitudeDegrees>
              <LongitudeDegrees>-8.27582574449479579925537109375</LongitudeDegrees>
            </Position>
            <AltitudeMeters>43.40000152587890625</AltitudeMeters>
            <DistanceMeters>81109.897083056</DistanceMeters>
          </Trackpoint>
          <Trackpoint>
            <Time>2018-04-21T14:06:14.000Z</Time>
            <Position>
              <LatitudeDegrees>43.28375142998993396759033203125</LatitudeDegrees>
              <LongitudeDegrees>-8.2760006748139858245849609375</LongitudeDegrees>
            </Position>
            <AltitudeMeters>42.40000152587890625</AltitudeMeters>
            <DistanceMeters>81130.045435759</DistanceMeters>
          </Trackpoint>
          <Trackpoint>
            <Time>2018-04-21T14:06:15.000Z</Time>
            <Position>
              <LatitudeDegrees>43.28374103643000125885009765625</LatitudeDegrees>
              <LongitudeDegrees>-8.27607971616089344024658203125</LongitudeDegrees>
            </Position>
            <AltitudeMeters>42</AltitudeMeters>
            <DistanceMeters>81136.552511019</DistanceMeters>
          </Trackpoint>
          <Trackpoint>
            <Time>2018-04-21T14:06:17.000Z</Time>
            <Position>
              <LatitudeDegrees>43.28380188904702663421630859375</LatitudeDegrees>
              <LongitudeDegrees>-8.2762796245515346527099609375</LongitudeDegrees>
            </Position>
            <AltitudeMeters>41.59999847412109375</AltitudeMeters>
            <DistanceMeters>81154.108809013</DistanceMeters>
          </Trackpoint>
          <Trackpoint>
            <Time>2018-04-21T14:06:20.000Z</Time>
            <Position>
              <LatitudeDegrees>43.28394186682999134063720703125</LatitudeDegrees>
              <LongitudeDegrees>-8.27648137696087360382080078125</LongitudeDegrees>
            </Position>
            <AltitudeMeters>41.200000762939453125</AltitudeMeters>
            <DistanceMeters>81176.691003482</DistanceMeters>
          </Trackpoint>
          <Trackpoint>
            <Time>2018-04-21T14:06:21.000Z</Time>
            <Position>
              <LatitudeDegrees>43.283988721668720245361328125</LatitudeDegrees>
              <LongitudeDegrees>-8.27654038555920124053955078125</LongitudeDegrees>
            </Position>
            <AltitudeMeters>40.799999237060546875</AltitudeMeters>
            <DistanceMeters>81183.76650656</DistanceMeters>
          </Trackpoint>
          <Trackpoint>
            <Time>2018-04-21T14:06:25.000Z</Time>
            <Position>
              <LatitudeDegrees>43.28417840413749217987060546875</LatitudeDegrees>
              <LongitudeDegrees>-8.27679301612079143524169921875</LongitudeDegrees>
            </Position>
            <AltitudeMeters>39.40000152587890625</AltitudeMeters>
            <DistanceMeters>81213.172476875</DistanceMeters>
          </Trackpoint>
          <Trackpoint>
            <Time>2018-04-21T14:06:26.000Z</Time>
            <Position>
              <LatitudeDegrees>43.28422416932880878448486328125</LatitudeDegrees>
              <LongitudeDegrees>-8.27684951014816761016845703125</LongitudeDegrees>
            </Position>
            <AltitudeMeters>39.59999847412109375</AltitudeMeters>
            <DistanceMeters>81220.020996208</DistanceMeters>
          </Trackpoint>
          <Trackpoint>
            <Time>2018-04-21T14:06:28.000Z</Time>
            <Position>
              <LatitudeDegrees>43.284314610064029693603515625</LatitudeDegrees>
              <LongitudeDegrees>-8.27694657258689403533935546875</LongitudeDegrees>
            </Position>
            <AltitudeMeters>40.200000762939453125</AltitudeMeters>
            <DistanceMeters>81232.79493379</DistanceMeters>
          </Trackpoint>
          <Trackpoint>
            <Time>2018-04-21T14:06:30.000Z</Time>
            <Position>
              <LatitudeDegrees>43.2843985967338085174560546875</LatitudeDegrees>
              <LongitudeDegrees>-8.27701915986835956573486328125</LongitudeDegrees>
            </Position>
            <AltitudeMeters>40.59999847412109375</AltitudeMeters>
            <DistanceMeters>81243.838493562</DistanceMeters>
          </Trackpoint>
          <Trackpoint>
            <Time>2018-04-21T14:06:31.000Z</Time>
            <Position>
              <LatitudeDegrees>43.28443472273647785186767578125</LatitudeDegrees>
              <LongitudeDegrees>-8.27705436386168003082275390625</LongitudeDegrees>
            </Position>
            <AltitudeMeters>41</AltitudeMeters>
            <DistanceMeters>81248.768905897</DistanceMeters>
          </Trackpoint>
          <Trackpoint>
            <Time>2018-04-21T14:06:35.000Z</Time>
            <Position>
              <LatitudeDegrees>43.28455458395183086395263671875</LatitudeDegrees>
              <LongitudeDegrees>-8.27717422507703304290771484375</LongitudeDegrees>
            </Position>
            <AltitudeMeters>41.59999847412109375</AltitudeMeters>
            <DistanceMeters>81265.269932987</DistanceMeters>
          </Trackpoint>
          <Trackpoint>
            <Time>2018-04-21T14:06:36.000Z</Time>
            <Position>
              <LatitudeDegrees>43.284584842622280120849609375</LatitudeDegrees>
              <LongitudeDegrees>-8.27718780376017093658447265625</LongitudeDegrees>
            </Position>
            <AltitudeMeters>42</AltitudeMeters>
            <DistanceMeters>81268.812785828</DistanceMeters>
          </Trackpoint>
          <Trackpoint>
            <Time>2018-04-21T14:06:41.000Z</Time>
            <Position>
              <LatitudeDegrees>43.28465960919857025146484375</LatitudeDegrees>
              <LongitudeDegrees>-8.2772914879024028778076171875</LongitudeDegrees>
            </Position>
            <AltitudeMeters>43</AltitudeMeters>
            <DistanceMeters>81280.637408598</DistanceMeters>
          </Trackpoint>
          <Trackpoint>
            <Time>2018-04-21T14:06:44.000Z</Time>
            <Position>
              <LatitudeDegrees>43.2846413366496562957763671875</LatitudeDegrees>
              <LongitudeDegrees>-8.277363739907741546630859375</LongitudeDegrees>
            </Position>
            <AltitudeMeters>43.40000152587890625</AltitudeMeters>
            <DistanceMeters>81286.834578526</DistanceMeters>
          </Trackpoint>
          <Trackpoint>
            <Time>2018-04-21T14:06:46.000Z</Time>
            <Position>
              <LatitudeDegrees>43.28462180681526660919189453125</LatitudeDegrees>
              <LongitudeDegrees>-8.27740405686199665069580078125</LongitudeDegrees>
            </Position>
            <AltitudeMeters>44.200000762939453125</AltitudeMeters>
            <DistanceMeters>81290.758387943</DistanceMeters>
          </Trackpoint>
          <Trackpoint>
            <Time>2018-04-21T14:06:48.000Z</Time>
            <Position>
              <LatitudeDegrees>43.2845954038202762603759765625</LatitudeDegrees>
              <LongitudeDegrees>-8.2774512469768524169921875</LongitudeDegrees>
            </Position>
            <AltitudeMeters>44.40000152587890625</AltitudeMeters>
            <DistanceMeters>81295.580467042</DistanceMeters>
          </Trackpoint>
          <Trackpoint>
            <Time>2018-04-21T14:06:51.000Z</Time>
            <Position>
              <LatitudeDegrees>43.28451770357787609100341796875</LatitudeDegrees>
              <LongitudeDegrees>-8.27750313095748424530029296875</LongitudeDegrees>
            </Position>
            <AltitudeMeters>44.799999237060546875</AltitudeMeters>
            <DistanceMeters>81305.196494434</DistanceMeters>
          </Trackpoint>
          <Trackpoint>
            <Time>2018-04-21T14:06:54.000Z</Time>
            <Position>
              <LatitudeDegrees>43.28443136997520923614501953125</LatitudeDegrees>
              <LongitudeDegrees>-8.27753531746566295623779296875</LongitudeDegrees>
            </Position>
            <AltitudeMeters>45.40000152587890625</AltitudeMeters>
            <DistanceMeters>81315.153008844</DistanceMeters>
          </Trackpoint>
          <Trackpoint>
            <Time>2018-04-21T14:06:56.000Z</Time>
            <Position>
              <LatitudeDegrees>43.28436247073113918304443359375</LatitudeDegrees>
              <LongitudeDegrees>-8.27755426056683063507080078125</LongitudeDegrees>
            </Position>
            <AltitudeMeters>45.59999847412109375</AltitudeMeters>
            <DistanceMeters>81322.972962659</DistanceMeters>
          </Trackpoint>
          <Trackpoint>
            <Time>2018-04-21T14:07:03.000Z</Time>
            <Position>
              <LatitudeDegrees>43.2841411046683788299560546875</LatitudeDegrees>
              <LongitudeDegrees>-8.277634643018245697021484375</LongitudeDegrees>
            </Position>
            <AltitudeMeters>46.40000152587890625</AltitudeMeters>
            <DistanceMeters>81348.457667643</DistanceMeters>
          </Trackpoint>
          <Trackpoint>
            <Time>2018-04-21T14:07:10.000Z</Time>
            <Position>
              <LatitudeDegrees>43.2838950119912624359130859375</LatitudeDegrees>
              <LongitudeDegrees>-8.2777528278529644012451171875</LongitudeDegrees>
            </Position>
            <AltitudeMeters>47</AltitudeMeters>
            <DistanceMeters>81377.473978013</DistanceMeters>
          </Trackpoint>
          <Trackpoint>
            <Time>2018-04-21T14:07:17.000Z</Time>
            <Position>
              <LatitudeDegrees>43.28366124071180820465087890625</LatitudeDegrees>
              <LongitudeDegrees>-8.277919292449951171875</LongitudeDegrees>
            </Position>
            <AltitudeMeters>47.59999847412109375</AltitudeMeters>
            <DistanceMeters>81406.781362938</DistanceMeters>
          </Trackpoint>
          <Trackpoint>
            <Time>2018-04-21T14:07:25.000Z</Time>
            <Position>
              <LatitudeDegrees>43.28333501704037189483642578125</LatitudeDegrees>
              <LongitudeDegrees>-8.27815390191972255706787109375</LongitudeDegrees>
            </Position>
            <AltitudeMeters>46.59999847412109375</AltitudeMeters>
            <DistanceMeters>81447.765758013</DistanceMeters>
          </Trackpoint>
          <Trackpoint>
            <Time>2018-04-21T14:07:26.000Z</Time>
            <Position>
              <LatitudeDegrees>43.28327734954655170440673828125</LatitudeDegrees>
              <LongitudeDegrees>-8.2781870104372501373291015625</LongitudeDegrees>
            </Position>
            <AltitudeMeters>46.40000152587890625</AltitudeMeters>
            <DistanceMeters>81454.722855809</DistanceMeters>
          </Trackpoint>
          <Trackpoint>
            <Time>2018-04-21T14:07:27.000Z</Time>
            <Position>
              <LatitudeDegrees>43.28321532346308231353759765625</LatitudeDegrees>
              <LongitudeDegrees>-8.278213329613208770751953125</LongitudeDegrees>
            </Position>
            <AltitudeMeters>46.200000762939453125</AltitudeMeters>
            <DistanceMeters>81461.947386371</DistanceMeters>
          </Trackpoint>
          <Trackpoint>
            <Time>2018-04-21T14:07:29.000Z</Time>
            <Position>
              <LatitudeDegrees>43.2830752618610858917236328125</LatitudeDegrees>
              <LongitudeDegrees>-8.2782383076846599578857421875</LongitudeDegrees>
            </Position>
            <AltitudeMeters>45.59999847412109375</AltitudeMeters>
            <DistanceMeters>81477.667631345</DistanceMeters>
          </Trackpoint>
          <Trackpoint>
            <Time>2018-04-21T14:07:30.000Z</Time>
            <Position>
              <LatitudeDegrees>43.2829954661428928375244140625</LatitudeDegrees>
              <LongitudeDegrees>-8.2782424986362457275390625</LongitudeDegrees>
            </Position>
            <AltitudeMeters>45.40000152587890625</AltitudeMeters>
            <DistanceMeters>81486.556566539</DistanceMeters>
          </Trackpoint>
          <Trackpoint>
            <Time>2018-04-21T14:07:34.000Z</Time>
            <Position>
              <LatitudeDegrees>43.28270084224641323089599609375</LatitudeDegrees>
              <LongitudeDegrees>-8.2782828994095325469970703125</LongitudeDegrees>
            </Position>
            <AltitudeMeters>44.799999237060546875</AltitudeMeters>
            <DistanceMeters>81519.511935207</DistanceMeters>
          </Trackpoint>
          <Trackpoint>
            <Time>2018-04-21T14:07:35.000Z</Time>
            <Position>
              <LatitudeDegrees>43.28263278119266033172607421875</LatitudeDegrees>
              <LongitudeDegrees>-8.27830930240452289581298828125</LongitudeDegrees>
            </Position>
            <AltitudeMeters>44.799999237060546875</AltitudeMeters>
            <DistanceMeters>81527.383681173</DistanceMeters>
          </Trackpoint>
          <Trackpoint>
            <Time>2018-04-21T14:07:39.000Z</Time>
            <Position>
              <LatitudeDegrees>43.28238853253424167633056640625</LatitudeDegrees>
              <LongitudeDegrees>-8.2784404791891574859619140625</LongitudeDegrees>
            </Position>
            <AltitudeMeters>44.200000762939453125</AltitudeMeters>
            <DistanceMeters>81556.572973777</DistanceMeters>
          </Trackpoint>
          <Trackpoint>
            <Time>2018-04-21T14:07:43.000Z</Time>
            <Position>
              <LatitudeDegrees>43.2821725308895111083984375</LatitudeDegrees>
              <LongitudeDegrees>-8.27857785858213901519775390625</LongitudeDegrees>
            </Position>
            <AltitudeMeters>43.200000762939453125</AltitudeMeters>
            <DistanceMeters>81583.066176336</DistanceMeters>
          </Trackpoint>
          <Trackpoint>
            <Time>2018-04-21T14:07:45.000Z</Time>
            <Position>
              <LatitudeDegrees>43.282064907252788543701171875</LatitudeDegrees>
              <LongitudeDegrees>-8.2786403037607669830322265625</LongitudeDegrees>
            </Position>
            <AltitudeMeters>42.799999237060546875</AltitudeMeters>
            <DistanceMeters>81596.069914702</DistanceMeters>
          </Trackpoint>
          <Trackpoint>
            <Time>2018-04-21T14:07:51.000Z</Time>
            <Position>
              <LatitudeDegrees>43.28170909546315670013427734375</LatitudeDegrees>
              <LongitudeDegrees>-8.2788267172873020172119140625</LongitudeDegrees>
            </Position>
            <AltitudeMeters>42.40000152587890625</AltitudeMeters>
            <DistanceMeters>81638.455025156</DistanceMeters>
          </Trackpoint>
          <Trackpoint>
            <Time>2018-04-21T14:07:52.000Z</Time>
            <Position>
              <LatitudeDegrees>43.281641118228435516357421875</LatitudeDegrees>
              <LongitudeDegrees>-8.27883199788630008697509765625</LongitudeDegrees>
            </Position>
            <AltitudeMeters>42</AltitudeMeters>
            <DistanceMeters>81646.032772586</DistanceMeters>
          </Trackpoint>
          <Trackpoint>
            <Time>2018-04-21T14:07:54.000Z</Time>
            <Position>
              <LatitudeDegrees>43.2814887352287769317626953125</LatitudeDegrees>
              <LongitudeDegrees>-8.2788123004138469696044921875</LongitudeDegrees>
            </Position>
            <AltitudeMeters>41.200000762939453125</AltitudeMeters>
            <DistanceMeters>81663.068282463</DistanceMeters>
          </Trackpoint>
          <Trackpoint>
            <Time>2018-04-21T14:07:55.000Z</Time>
            <Position>
              <LatitudeDegrees>43.28140298835933208465576171875</LatitudeDegrees>
              <LongitudeDegrees>-8.278795368969440460205078125</LongitudeDegrees>
            </Position>
            <AltitudeMeters>40.59999847412109375</AltitudeMeters>
            <DistanceMeters>81672.709631274</DistanceMeters>
          </Trackpoint>
          <Trackpoint>
            <Time>2018-04-21T14:07:56.000Z</Time>
            <Position>
              <LatitudeDegrees>43.28131665475666522979736328125</LatitudeDegrees>
              <LongitudeDegrees>-8.2787895016372203826904296875</LongitudeDegrees>
            </Position>
            <AltitudeMeters>40.40000152587890625</AltitudeMeters>
            <DistanceMeters>81682.330822138</DistanceMeters>
          </Trackpoint>
          <Trackpoint>
            <Time>2018-04-21T14:07:58.000Z</Time>
            <Position>
              <LatitudeDegrees>43.28114331699907779693603515625</LatitudeDegrees>
              <LongitudeDegrees>-8.27882587909698486328125</LongitudeDegrees>
            </Position>
            <AltitudeMeters>39.200000762939453125</AltitudeMeters>
            <DistanceMeters>81701.84765294</DistanceMeters>
          </Trackpoint>
          <Trackpoint>
            <Time>2018-04-21T14:08:01.000Z</Time>
            <Position>
              <LatitudeDegrees>43.2809321768581867218017578125</LatitudeDegrees>
              <LongitudeDegrees>-8.2790037430822849273681640625</LongitudeDegrees>
            </Position>
            <AltitudeMeters>38.799999237060546875</AltitudeMeters>
            <DistanceMeters>81729.415228704</DistanceMeters>
          </Trackpoint>
          <Trackpoint>
            <Time>2018-04-21T14:08:05.000Z</Time>
            <Position>
              <LatitudeDegrees>43.2807558216154575347900390625</LatitudeDegrees>
              <LongitudeDegrees>-8.27936056070029735565185546875</LongitudeDegrees>
            </Position>
            <AltitudeMeters>38.40000152587890625</AltitudeMeters>
            <DistanceMeters>81764.361036437</DistanceMeters>
          </Trackpoint>
          <Trackpoint>
            <Time>2018-04-21T14:08:06.000Z</Time>
            <Position>
              <LatitudeDegrees>43.2807303406298160552978515625</LatitudeDegrees>
              <LongitudeDegrees>-8.279465250670909881591796875</LongitudeDegrees>
            </Position>
            <AltitudeMeters>38.200000762939453125</AltitudeMeters>
            <DistanceMeters>81773.305670432</DistanceMeters>
          </Trackpoint>
          <Trackpoint>
            <Time>2018-04-21T14:08:08.000Z</Time>
            <Position>
              <LatitudeDegrees>43.2806974835693836212158203125</LatitudeDegrees>
              <LongitudeDegrees>-8.27968108467757701873779296875</LongitudeDegrees>
            </Position>
            <AltitudeMeters>37.200000762939453125</AltitudeMeters>
            <DistanceMeters>81791.172714464</DistanceMeters>
          </Trackpoint>
          <Trackpoint>
            <Time>2018-04-21T14:08:09.000Z</Time>
            <Position>
              <LatitudeDegrees>43.2806981541216373443603515625</LatitudeDegrees>
              <LongitudeDegrees>-8.279793150722980499267578125</LongitudeDegrees>
            </Position>
            <AltitudeMeters>36.799999237060546875</AltitudeMeters>
            <DistanceMeters>81800.253609689</DistanceMeters>
          </Trackpoint>
          <Trackpoint>
            <Time>2018-04-21T14:08:12.000Z</Time>
            <Position>
              <LatitudeDegrees>43.280763365328311920166015625</LatitudeDegrees>
              <LongitudeDegrees>-8.28010336495935916900634765625</LongitudeDegrees>
            </Position>
            <AltitudeMeters>36.200000762939453125</AltitudeMeters>
            <DistanceMeters>81826.416692166</DistanceMeters>
          </Trackpoint>
          <Trackpoint>
            <Time>2018-04-21T14:08:13.000Z</Time>
            <Position>
              <LatitudeDegrees>43.28079094178974628448486328125</LatitudeDegrees>
              <LongitudeDegrees>-8.28019908629357814788818359375</LongitudeDegrees>
            </Position>
            <AltitudeMeters>36.40000152587890625</AltitudeMeters>
            <DistanceMeters>81834.758500667</DistanceMeters>
          </Trackpoint>
          <Trackpoint>
            <Time>2018-04-21T14:08:16.000Z</Time>
            <Position>
              <LatitudeDegrees>43.28086964786052703857421875</LatitudeDegrees>
              <LongitudeDegrees>-8.28048306517302989959716796875</LongitudeDegrees>
            </Position>
            <AltitudeMeters>36.59999847412109375</AltitudeMeters>
            <DistanceMeters>81859.379773823</DistanceMeters>
          </Trackpoint>
          <Trackpoint>
            <Time>2018-04-21T14:08:18.000Z</Time>
            <Position>
              <LatitudeDegrees>43.2809110544621944427490234375</LatitudeDegrees>
              <LongitudeDegrees>-8.28066796995699405670166015625</LongitudeDegrees>
            </Position>
            <AltitudeMeters>35.799999237060546875</AltitudeMeters>
            <DistanceMeters>81875.054573662</DistanceMeters>
          </Trackpoint>
          <Trackpoint>
            <Time>2018-04-21T14:08:20.000Z</Time>
            <Position>
              <LatitudeDegrees>43.280948437750339508056640625</LatitudeDegrees>
              <LongitudeDegrees>-8.28084851615130901336669921875</LongitudeDegrees>
            </Position>
            <AltitudeMeters>35.799999237060546875</AltitudeMeters>
            <DistanceMeters>81890.263598554</DistanceMeters>
          </Trackpoint>
          <Trackpoint>
            <Time>2018-04-21T14:08:26.000Z</Time>
            <Position>
              <LatitudeDegrees>43.281042985618114471435546875</LatitudeDegrees>
              <LongitudeDegrees>-8.281354866921901702880859375</LongitudeDegrees>
            </Position>
            <AltitudeMeters>36</AltitudeMeters>
            <DistanceMeters>81932.620150913</DistanceMeters>
          </Trackpoint>
          <Trackpoint>
            <Time>2018-04-21T14:08:30.000Z</Time>
            <Position>
              <LatitudeDegrees>43.28112806193530559539794921875</LatitudeDegrees>
              <LongitudeDegrees>-8.28166021965444087982177734375</LongitudeDegrees>
            </Position>
            <AltitudeMeters>35.799999237060546875</AltitudeMeters>
            <DistanceMeters>81959.112330918</DistanceMeters>
          </Trackpoint>
          <Trackpoint>
            <Time>2018-04-21T14:08:32.000Z</Time>
            <Position>
              <LatitudeDegrees>43.28119327314198017120361328125</LatitudeDegrees>
              <LongitudeDegrees>-8.2818029634654521942138671875</LongitudeDegrees>
            </Position>
            <AltitudeMeters>35.799999237060546875</AltitudeMeters>
            <DistanceMeters>81972.767441627</DistanceMeters>
          </Trackpoint>
          <Trackpoint>
            <Time>2018-04-21T14:08:37.000Z</Time>
            <Position>
              <LatitudeDegrees>43.281388320028781890869140625</LatitudeDegrees>
              <LongitudeDegrees>-8.28209817409515380859375</LongitudeDegrees>
            </Position>
            <AltitudeMeters>36</AltitudeMeters>
            <DistanceMeters>82005.070095596</DistanceMeters>
          </Trackpoint>
          <Trackpoint>
            <Time>2018-04-21T14:08:41.000Z</Time>
            <Position>
              <LatitudeDegrees>43.28158923424780368804931640625</LatitudeDegrees>
              <LongitudeDegrees>-8.28226002864539623260498046875</LongitudeDegrees>
            </Position>
            <AltitudeMeters>36</AltitudeMeters>
            <DistanceMeters>82030.994456136</DistanceMeters>
          </Trackpoint>
          <Trackpoint>
            <Time>2018-04-21T14:08:42.000Z</Time>
            <Position>
              <LatitudeDegrees>43.281649164855480194091796875</LatitudeDegrees>
              <LongitudeDegrees>-8.28228249214589595794677734375</LongitudeDegrees>
            </Position>
            <AltitudeMeters>36</AltitudeMeters>
            <DistanceMeters>82037.90858838</DistanceMeters>
          </Trackpoint>
          <Trackpoint>
            <Time>2018-04-21T14:08:46.000Z</Time>
            <Position>
              <LatitudeDegrees>43.28191210515797138214111328125</LatitudeDegrees>
              <LongitudeDegrees>-8.28224644996225833892822265625</LongitudeDegrees>
            </Position>
            <AltitudeMeters>36.40000152587890625</AltitudeMeters>
            <DistanceMeters>82067.31962513</DistanceMeters>
          </Trackpoint>
          <Trackpoint>
            <Time>2018-04-21T14:08:48.000Z</Time>
            <Position>
              <LatitudeDegrees>43.28203112818300724029541015625</LatitudeDegrees>
              <LongitudeDegrees>-8.2821754552423954010009765625</LongitudeDegrees>
            </Position>
            <AltitudeMeters>36.200000762939453125</AltitudeMeters>
            <DistanceMeters>82081.762435309</DistanceMeters>
          </Trackpoint>
          <Trackpoint>
            <Time>2018-04-21T14:08:52.000Z</Time>
            <Position>
              <LatitudeDegrees>43.28224721364676952362060546875</LatitudeDegrees>
              <LongitudeDegrees>-8.28201544471085071563720703125</LongitudeDegrees>
            </Position>
            <AltitudeMeters>36.200000762939453125</AltitudeMeters>
            <DistanceMeters>82109.085053224</DistanceMeters>
          </Trackpoint>
          <Trackpoint>
            <Time>2018-04-21T14:08:53.000Z</Time>
            <Position>
              <LatitudeDegrees>43.2823047973215579986572265625</LatitudeDegrees>
              <LongitudeDegrees>-8.28199214302003383636474609375</LongitudeDegrees>
            </Position>
            <AltitudeMeters>36.200000762939453125</AltitudeMeters>
            <DistanceMeters>82115.766722022</DistanceMeters>
          </Trackpoint>
          <Trackpoint>
            <Time>2018-04-21T14:08:55.000Z</Time>
            <Position>
              <LatitudeDegrees>43.2824322022497653961181640625</LatitudeDegrees>
              <LongitudeDegrees>-8.2819873653352260589599609375</LongitudeDegrees>
            </Position>
            <AltitudeMeters>36</AltitudeMeters>
            <DistanceMeters>82129.952463228</DistanceMeters>
          </Trackpoint>
          <Trackpoint>
            <Time>2018-04-21T14:08:59.000Z</Time>
            <Position>
              <LatitudeDegrees>43.28268944285809993743896484375</LatitudeDegrees>
              <LongitudeDegrees>-8.2820956595242023468017578125</LongitudeDegrees>
            </Position>
            <AltitudeMeters>36.200000762939453125</AltitudeMeters>
            <DistanceMeters>82159.89839503</DistanceMeters>
          </Trackpoint>
          <Trackpoint>
            <Time>2018-04-21T14:09:00.000Z</Time>
            <Position>
              <LatitudeDegrees>43.28275079838931560516357421875</LatitudeDegrees>
              <LongitudeDegrees>-8.28213748522102832794189453125</LongitudeDegrees>
            </Position>
            <AltitudeMeters>36</AltitudeMeters>
            <DistanceMeters>82167.521883208</DistanceMeters>
          </Trackpoint>
          <Trackpoint>
            <Time>2018-04-21T14:09:05.000Z</Time>
            <Position>
              <LatitudeDegrees>43.283028490841388702392578125</LatitudeDegrees>
              <LongitudeDegrees>-8.28237938694655895233154296875</LongitudeDegrees>
            </Position>
            <AltitudeMeters>36</AltitudeMeters>
            <DistanceMeters>82204.120370869</DistanceMeters>
          </Trackpoint>
          <Trackpoint>
            <Time>2018-04-21T14:09:10.000Z</Time>
            <Position>
              <LatitudeDegrees>43.28329570591449737548828125</LatitudeDegrees>
              <LongitudeDegrees>-8.28257300890982151031494140625</LongitudeDegrees>
            </Position>
            <AltitudeMeters>35.799999237060546875</AltitudeMeters>
            <DistanceMeters>82237.745866132</DistanceMeters>
          </Trackpoint>
          <Trackpoint>
            <Time>2018-04-21T14:09:11.000Z</Time>
            <Position>
              <LatitudeDegrees>43.28335337340831756591796875</LatitudeDegrees>
              <LongitudeDegrees>-8.2825975678861141204833984375</LongitudeDegrees>
            </Position>
            <AltitudeMeters>35.59999847412109375</AltitudeMeters>
            <DistanceMeters>82244.465269545</DistanceMeters>
          </Trackpoint>
          <Trackpoint>
            <Time>2018-04-21T14:09:12.000Z</Time>
            <Position>
              <LatitudeDegrees>43.28341238200664520263671875</LatitudeDegrees>
              <LongitudeDegrees>-8.2826270721852779388427734375</LongitudeDegrees>
            </Position>
            <AltitudeMeters>35.59999847412109375</AltitudeMeters>
            <DistanceMeters>82251.454741167</DistanceMeters>
          </Trackpoint>
          <Trackpoint>
            <Time>2018-04-21T14:09:15.000Z</Time>
            <Position>
              <LatitudeDegrees>43.28355026431381702423095703125</LatitudeDegrees>
              <LongitudeDegrees>-8.28277115710079669952392578125</LongitudeDegrees>
            </Position>
            <AltitudeMeters>36.200000762939453125</AltitudeMeters>
            <DistanceMeters>82270.736970486</DistanceMeters>
          </Trackpoint>
          <Trackpoint>
            <Time>2018-04-21T14:09:19.000Z</Time>
            <Position>
              <LatitudeDegrees>43.2836405374109745025634765625</LatitudeDegrees>
              <LongitudeDegrees>-8.28307089395821094512939453125</LongitudeDegrees>
            </Position>
            <AltitudeMeters>36</AltitudeMeters>
            <DistanceMeters>82297.019373871</DistanceMeters>
          </Trackpoint>
          <Trackpoint>
            <Time>2018-04-21T14:09:20.000Z</Time>
            <Position>
              <LatitudeDegrees>43.2836526073515415191650390625</LatitudeDegrees>
              <LongitudeDegrees>-8.2831531204283237457275390625</LongitudeDegrees>
            </Position>
            <AltitudeMeters>35.799999237060546875</AltitudeMeters>
            <DistanceMeters>82303.81627545</DistanceMeters>
          </Trackpoint>
          <Trackpoint>
            <Time>2018-04-21T14:09:25.000Z</Time>
            <Position>
              <LatitudeDegrees>43.283715136349201202392578125</LatitudeDegrees>
              <LongitudeDegrees>-8.2835866324603557586669921875</LongitudeDegrees>
            </Position>
            <AltitudeMeters>35.59999847412109375</AltitudeMeters>
            <DistanceMeters>82339.624202569</DistanceMeters>
          </Trackpoint>
          <Trackpoint>
            <Time>2018-04-21T14:09:28.000Z</Time>
            <Position>
              <LatitudeDegrees>43.283837847411632537841796875</LatitudeDegrees>
              <LongitudeDegrees>-8.283761478960514068603515625</LongitudeDegrees>
            </Position>
            <AltitudeMeters>35.59999847412109375</AltitudeMeters>
            <DistanceMeters>82359.302535022</DistanceMeters>
          </Trackpoint>
          <Trackpoint>
            <Time>2018-04-21T14:09:32.000Z</Time>
            <Position>
              <LatitudeDegrees>43.28406742773950099945068359375</LatitudeDegrees>
              <LongitudeDegrees>-8.28382560051977634429931640625</LongitudeDegrees>
            </Position>
            <AltitudeMeters>35.59999847412109375</AltitudeMeters>
            <DistanceMeters>82385.378149416</DistanceMeters>
          </Trackpoint>
          <Trackpoint>
            <Time>2018-04-21T14:09:38.000Z</Time>
            <Position>
              <LatitudeDegrees>43.2844046317040920257568359375</LatitudeDegrees>
              <LongitudeDegrees>-8.28379333019256591796875</LongitudeDegrees>
            </Position>
            <AltitudeMeters>36.200000762939453125</AltitudeMeters>
            <DistanceMeters>82423.000568562</DistanceMeters>
          </Trackpoint>
          <Trackpoint>
            <Time>2018-04-21T14:09:42.000Z</Time>
            <Position>
              <LatitudeDegrees>43.28462683595716953277587890625</LatitudeDegrees>
              <LongitudeDegrees>-8.28377095051109790802001953125</LongitudeDegrees>
            </Position>
            <AltitudeMeters>36.799999237060546875</AltitudeMeters>
            <DistanceMeters>82447.798717804</DistanceMeters>
          </Trackpoint>
          <Trackpoint>
            <Time>2018-04-21T14:09:43.000Z</Time>
            <Position>
              <LatitudeDegrees>43.2846845872700214385986328125</LatitudeDegrees>
              <LongitudeDegrees>-8.28377832658588886260986328125</LongitudeDegrees>
            </Position>
            <AltitudeMeters>36.799999237060546875</AltitudeMeters>
            <DistanceMeters>82454.254942155</DistanceMeters>
          </Trackpoint>
          <Trackpoint>
            <Time>2018-04-21T14:09:48.000Z</Time>
            <Position>
              <LatitudeDegrees>43.28496546484529972076416015625</LatitudeDegrees>
              <LongitudeDegrees>-8.2838759757578372955322265625</LongitudeDegrees>
            </Position>
            <AltitudeMeters>36.40000152587890625</AltitudeMeters>
            <DistanceMeters>82486.502758569</DistanceMeters>
          </Trackpoint>
          <Trackpoint>
            <Time>2018-04-21T14:09:49.000Z</Time>
            <Position>
              <LatitudeDegrees>43.2850076258182525634765625</LatitudeDegrees>
              <LongitudeDegrees>-8.28393070958554744720458984375</LongitudeDegrees>
            </Position>
            <AltitudeMeters>36.40000152587890625</AltitudeMeters>
            <DistanceMeters>82492.958982919</DistanceMeters>
          </Trackpoint>
          <Trackpoint>
            <Time>2018-04-21T14:09:52.000Z</Time>
            <Position>
              <LatitudeDegrees>43.2850426621735095977783203125</LatitudeDegrees>
              <LongitudeDegrees>-8.2840979285538196563720703125</LongitudeDegrees>
            </Position>
            <AltitudeMeters>36.799999237060546875</AltitudeMeters>
            <DistanceMeters>82507.057565922</DistanceMeters>
          </Trackpoint>
          <Trackpoint>
            <Time>2018-04-21T14:09:55.000Z</Time>
            <Position>
              <LatitudeDegrees>43.28493244014680385589599609375</LatitudeDegrees>
              <LongitudeDegrees>-8.28428040258586406707763671875</LongitudeDegrees>
            </Position>
            <AltitudeMeters>37</AltitudeMeters>
            <DistanceMeters>82526.268950162</DistanceMeters>
          </Trackpoint>
          <Trackpoint>
            <Time>2018-04-21T14:09:56.000Z</Time>
            <Position>
              <LatitudeDegrees>43.28489698469638824462890625</LatitudeDegrees>
              <LongitudeDegrees>-8.284344859421253204345703125</LongitudeDegrees>
            </Position>
            <AltitudeMeters>37</AltitudeMeters>
            <DistanceMeters>82532.815456314</DistanceMeters>
          </Trackpoint>
          <Trackpoint>
            <Time>2018-04-21T14:09:59.000Z</Time>
            <Position>
              <LatitudeDegrees>43.2848505489528179168701171875</LatitudeDegrees>
              <LongitudeDegrees>-8.28456203453242778778076171875</LongitudeDegrees>
            </Position>
            <AltitudeMeters>37.200000762939453125</AltitudeMeters>
            <DistanceMeters>82551.154627428</DistanceMeters>
          </Trackpoint>
          <Trackpoint>
            <Time>2018-04-21T14:10:01.000Z</Time>
            <Position>
              <LatitudeDegrees>43.28484778292477130889892578125</LatitudeDegrees>
              <LongitudeDegrees>-8.2847252301871776580810546875</LongitudeDegrees>
            </Position>
            <AltitudeMeters>37.200000762939453125</AltitudeMeters>
            <DistanceMeters>82564.380762195</DistanceMeters>
          </Trackpoint>
          <Trackpoint>
            <Time>2018-04-21T14:10:04.000Z</Time>
            <Position>
              <LatitudeDegrees>43.28484845347702503204345703125</LatitudeDegrees>
              <LongitudeDegrees>-8.284993954002857208251953125</LongitudeDegrees>
            </Position>
            <AltitudeMeters>36.40000152587890625</AltitudeMeters>
            <DistanceMeters>82586.153703043</DistanceMeters>
          </Trackpoint>
          <Trackpoint>
            <Time>2018-04-21T14:10:05.000Z</Time>
            <Position>
              <LatitudeDegrees>43.28485415317118167877197265625</LatitudeDegrees>
              <LongitudeDegrees>-8.285086490213871002197265625</LongitudeDegrees>
            </Position>
            <AltitudeMeters>36.40000152587890625</AltitudeMeters>
            <DistanceMeters>82593.678234876</DistanceMeters>
          </Trackpoint>
          <Trackpoint>
            <Time>2018-04-21T14:10:08.000Z</Time>
            <Position>
              <LatitudeDegrees>43.2849058695137500762939453125</LatitudeDegrees>
              <LongitudeDegrees>-8.28534523956477642059326171875</LongitudeDegrees>
            </Position>
            <AltitudeMeters>36.200000762939453125</AltitudeMeters>
            <DistanceMeters>82615.418594375</DistanceMeters>
          </Trackpoint>
          <Trackpoint>
            <Time>2018-04-21T14:10:12.000Z</Time>
            <Position>
              <LatitudeDegrees>43.285056240856647491455078125</LatitudeDegrees>
              <LongitudeDegrees>-8.2856328226625919342041015625</LongitudeDegrees>
            </Position>
            <AltitudeMeters>36</AltitudeMeters>
            <DistanceMeters>82644.107220822</DistanceMeters>
          </Trackpoint>
          <Trackpoint>
            <Time>2018-04-21T14:10:20.000Z</Time>
            <Position>
              <LatitudeDegrees>43.285378776490688323974609375</LatitudeDegrees>
              <LongitudeDegrees>-8.286222405731678009033203125</LongitudeDegrees>
            </Position>
            <AltitudeMeters>36.40000152587890625</AltitudeMeters>
            <DistanceMeters>82703.86195015</DistanceMeters>
          </Trackpoint>
          <Trackpoint>
            <Time>2018-04-21T14:10:22.000Z</Time>
            <Position>
              <LatitudeDegrees>43.28543904237449169158935546875</LatitudeDegrees>
              <LongitudeDegrees>-8.2863838411867618560791015625</LongitudeDegrees>
            </Position>
            <AltitudeMeters>36.200000762939453125</AltitudeMeters>
            <DistanceMeters>82718.561940943</DistanceMeters>
          </Trackpoint>
          <Trackpoint>
            <Time>2018-04-21T14:10:24.000Z</Time>
            <Position>
              <LatitudeDegrees>43.28546066768467426300048828125</LatitudeDegrees>
              <LongitudeDegrees>-8.286559022963047027587890625</LongitudeDegrees>
            </Position>
            <AltitudeMeters>36.40000152587890625</AltitudeMeters>
            <DistanceMeters>82732.958409765</DistanceMeters>
          </Trackpoint>
          <Trackpoint>
            <Time>2018-04-21T14:10:28.000Z</Time>
            <Position>
              <LatitudeDegrees>43.28539545647799968719482421875</LatitudeDegrees>
              <LongitudeDegrees>-8.28688784502446651458740234375</LongitudeDegrees>
            </Position>
            <AltitudeMeters>36.59999847412109375</AltitudeMeters>
            <DistanceMeters>82760.571152016</DistanceMeters>
          </Trackpoint>
          <Trackpoint>
            <Time>2018-04-21T14:10:31.000Z</Time>
            <Position>
              <LatitudeDegrees>43.285373412072658538818359375</LatitudeDegrees>
              <LongitudeDegrees>-8.28713712282478809356689453125</LongitudeDegrees>
            </Position>
            <AltitudeMeters>37</AltitudeMeters>
            <DistanceMeters>82780.916635647</DistanceMeters>
          </Trackpoint>
          <Trackpoint>
            <Time>2018-04-21T14:10:33.000Z</Time>
            <Position>
              <LatitudeDegrees>43.28537282533943653106689453125</LatitudeDegrees>
              <LongitudeDegrees>-8.28730258159339427947998046875</LongitudeDegrees>
            </Position>
            <AltitudeMeters>36.40000152587890625</AltitudeMeters>
            <DistanceMeters>82794.322476963</DistanceMeters>
          </Trackpoint>
          <Trackpoint>
            <Time>2018-04-21T14:10:40.000Z</Time>
            <Position>
              <LatitudeDegrees>43.28537399880588054656982421875</LatitudeDegrees>
              <LongitudeDegrees>-8.28786148689687252044677734375</LongitudeDegrees>
            </Position>
            <AltitudeMeters>36</AltitudeMeters>
            <DistanceMeters>82839.606270969</DistanceMeters>
          </Trackpoint>
          <Trackpoint>
            <Time>2018-04-21T14:10:41.000Z</Time>
            <Position>
              <LatitudeDegrees>43.2853759266436100006103515625</LatitudeDegrees>
              <LongitudeDegrees>-8.2879475690424442291259765625</LongitudeDegrees>
            </Position>
            <AltitudeMeters>36</AltitudeMeters>
            <DistanceMeters>82846.584105316</DistanceMeters>
          </Trackpoint>
          <Trackpoint>
            <Time>2018-04-21T14:10:45.000Z</Time>
            <Position>
              <LatitudeDegrees>43.2854007370769977569580078125</LatitudeDegrees>
              <LongitudeDegrees>-8.28829667530953884124755859375</LongitudeDegrees>
            </Position>
            <AltitudeMeters>35.59999847412109375</AltitudeMeters>
            <DistanceMeters>82875.003607376</DistanceMeters>
          </Trackpoint>
          <Trackpoint>
            <Time>2018-04-21T14:10:46.000Z</Time>
            <Position>
              <LatitudeDegrees>43.28542009927332401275634765625</LatitudeDegrees>
              <LongitudeDegrees>-8.28837764449417591094970703125</LongitudeDegrees>
            </Position>
            <AltitudeMeters>35.40000152587890625</AltitudeMeters>
            <DistanceMeters>82881.908591346</DistanceMeters>
          </Trackpoint>
          <Trackpoint>
            <Time>2018-04-21T14:10:50.000Z</Time>
            <Position>
              <LatitudeDegrees>43.28551313839852809906005859375</LatitudeDegrees>
              <LongitudeDegrees>-8.28870110213756561279296875</LongitudeDegrees>
            </Position>
            <AltitudeMeters>36</AltitudeMeters>
            <DistanceMeters>82910.087497322</DistanceMeters>
          </Trackpoint>
          <Trackpoint>
            <Time>2018-04-21T14:10:51.000Z</Time>
            <Position>
              <LatitudeDegrees>43.2855180837213993072509765625</LatitudeDegrees>
              <LongitudeDegrees>-8.2887874357402324676513671875</LongitudeDegrees>
            </Position>
            <AltitudeMeters>36.200000762939453125</AltitudeMeters>
            <DistanceMeters>82917.10276044</DistanceMeters>
          </Trackpoint>
          <Trackpoint>
            <Time>2018-04-21T14:10:54.000Z</Time>
            <Position>
              <LatitudeDegrees>43.2854461669921875</LatitudeDegrees>
              <LongitudeDegrees>-8.2890067063271999359130859375</LongitudeDegrees>
            </Position>
            <AltitudeMeters>36.200000762939453125</AltitudeMeters>
            <DistanceMeters>82936.588566924</DistanceMeters>
          </Trackpoint>
          <Trackpoint>
            <Time>2018-04-21T14:10:58.000Z</Time>
            <Position>
              <LatitudeDegrees>43.2853759266436100006103515625</LatitudeDegrees>
              <LongitudeDegrees>-8.28929546289145946502685546875</LongitudeDegrees>
            </Position>
            <AltitudeMeters>36</AltitudeMeters>
            <DistanceMeters>82961.256008443</DistanceMeters>
          </Trackpoint>
          <Trackpoint>
            <Time>2018-04-21T14:11:00.000Z</Time>
            <Position>
              <LatitudeDegrees>43.28537349589169025421142578125</LatitudeDegrees>
              <LongitudeDegrees>-8.2894452475011348724365234375</LongitudeDegrees>
            </Position>
            <AltitudeMeters>36.200000762939453125</AltitudeMeters>
            <DistanceMeters>82973.394904085</DistanceMeters>
          </Trackpoint>
          <Trackpoint>
            <Time>2018-04-21T14:11:03.000Z</Time>
            <Position>
              <LatitudeDegrees>43.28535572625696659088134765625</LatitudeDegrees>
              <LongitudeDegrees>-8.289677090942859649658203125</LongitudeDegrees>
            </Position>
            <AltitudeMeters>36.59999847412109375</AltitudeMeters>
            <DistanceMeters>82992.283241498</DistanceMeters>
          </Trackpoint>
          <Trackpoint>
            <Time>2018-04-21T14:11:04.000Z</Time>
            <Position>
              <LatitudeDegrees>43.285337872803211212158203125</LatitudeDegrees>
              <LongitudeDegrees>-8.28974875621497631072998046875</LongitudeDegrees>
            </Position>
            <AltitudeMeters>36.59999847412109375</AltitudeMeters>
            <DistanceMeters>82998.421114006</DistanceMeters>
          </Trackpoint>
          <Trackpoint>
            <Time>2018-04-21T14:11:07.000Z</Time>
            <Position>
              <LatitudeDegrees>43.2852703146636486053466796875</LatitudeDegrees>
              <LongitudeDegrees>-8.28995729796588420867919921875</LongitudeDegrees>
            </Position>
            <AltitudeMeters>36.799999237060546875</AltitudeMeters>
            <DistanceMeters>83016.914738457</DistanceMeters>
          </Trackpoint>
          <Trackpoint>
            <Time>2018-04-21T14:11:08.000Z</Time>
            <Position>
              <LatitudeDegrees>43.28525464050471782684326171875</LatitudeDegrees>
              <LongitudeDegrees>-8.29002938233315944671630859375</LongitudeDegrees>
            </Position>
            <AltitudeMeters>37</AltitudeMeters>
            <DistanceMeters>83023.009055844</DistanceMeters>
          </Trackpoint>
          <Trackpoint>
            <Time>2018-04-21T14:11:09.000Z</Time>
            <Position>
              <LatitudeDegrees>43.2852451689541339874267578125</LatitudeDegrees>
              <LongitudeDegrees>-8.29010213725268840789794921875</LongitudeDegrees>
            </Position>
            <AltitudeMeters>37</AltitudeMeters>
            <DistanceMeters>83028.997247019</DistanceMeters>
          </Trackpoint>
          <Trackpoint>
            <Time>2018-04-21T14:11:16.000Z</Time>
            <Position>
              <LatitudeDegrees>43.2852270640432834625244140625</LatitudeDegrees>
              <LongitudeDegrees>-8.29065115191042423248291015625</LongitudeDegrees>
            </Position>
            <AltitudeMeters>37.200000762939453125</AltitudeMeters>
            <DistanceMeters>83073.525147091</DistanceMeters>
          </Trackpoint>
          <Trackpoint>
            <Time>2018-04-21T14:11:24.000Z</Time>
            <Position>
              <LatitudeDegrees>43.2852337695658206939697265625</LatitudeDegrees>
              <LongitudeDegrees>-8.291350789368152618408203125</LongitudeDegrees>
            </Position>
            <AltitudeMeters>36.799999237060546875</AltitudeMeters>
            <DistanceMeters>83130.21620853</DistanceMeters>
          </Trackpoint>
          <Trackpoint>
            <Time>2018-04-21T14:11:25.000Z</Time>
            <Position>
              <LatitudeDegrees>43.2852190174162387847900390625</LatitudeDegrees>
              <LongitudeDegrees>-8.29143351875245571136474609375</LongitudeDegrees>
            </Position>
            <AltitudeMeters>37</AltitudeMeters>
            <DistanceMeters>83137.116613814</DistanceMeters>
          </Trackpoint>
          <Trackpoint>
            <Time>2018-04-21T14:11:29.000Z</Time>
            <Position>
              <LatitudeDegrees>43.28507803380489349365234375</LatitudeDegrees>
              <LongitudeDegrees>-8.291742391884326934814453125</LongitudeDegrees>
            </Position>
            <AltitudeMeters>36.799999237060546875</AltitudeMeters>
            <DistanceMeters>83166.65479328</DistanceMeters>
          </Trackpoint>
          <Trackpoint>
            <Time>2018-04-21T14:11:35.000Z</Time>
            <Position>
              <LatitudeDegrees>43.2848005928099155426025390625</LatitudeDegrees>
              <LongitudeDegrees>-8.2921318151056766510009765625</LongitudeDegrees>
            </Position>
            <AltitudeMeters>36.59999847412109375</AltitudeMeters>
            <DistanceMeters>83210.803165729</DistanceMeters>
          </Trackpoint>
          <Trackpoint>
            <Time>2018-04-21T14:11:41.000Z</Time>
            <Position>
              <LatitudeDegrees>43.28449876047670841217041015625</LatitudeDegrees>
              <LongitudeDegrees>-8.2924295403063297271728515625</LongitudeDegrees>
            </Position>
            <AltitudeMeters>37.200000762939453125</AltitudeMeters>
            <DistanceMeters>83252.161298426</DistanceMeters>
          </Trackpoint>
          <Trackpoint>
            <Time>2018-04-21T14:11:45.000Z</Time>
            <Position>
              <LatitudeDegrees>43.284227438271045684814453125</LatitudeDegrees>
              <LongitudeDegrees>-8.2925002835690975189208984375</LongitudeDegrees>
            </Position>
            <AltitudeMeters>36.200000762939453125</AltitudeMeters>
            <DistanceMeters>83282.899172431</DistanceMeters>
          </Trackpoint>
          <Trackpoint>
            <Time>2018-04-21T14:11:47.000Z</Time>
            <Position>
              <LatitudeDegrees>43.2840824313461780548095703125</LatitudeDegrees>
              <LongitudeDegrees>-8.2925328053534030914306640625</LongitudeDegrees>
            </Position>
            <AltitudeMeters>36.200000762939453125</AltitudeMeters>
            <DistanceMeters>83299.252604608</DistanceMeters>
          </Trackpoint>
          <Trackpoint>
            <Time>2018-04-21T14:11:50.000Z</Time>
            <Position>
              <LatitudeDegrees>43.2838886417448520660400390625</LatitudeDegrees>
              <LongitudeDegrees>-8.29263380728662014007568359375</LongitudeDegrees>
            </Position>
            <AltitudeMeters>34.799999237060546875</AltitudeMeters>
            <DistanceMeters>83322.321990931</DistanceMeters>
          </Trackpoint>
          <Trackpoint>
            <Time>2018-04-21T14:11:51.000Z</Time>
            <Position>
              <LatitudeDegrees>43.283832482993602752685546875</LatitudeDegrees>
              <LongitudeDegrees>-8.2926836796104907989501953125</LongitudeDegrees>
            </Position>
            <AltitudeMeters>32.799999237060546875</AltitudeMeters>
            <DistanceMeters>83329.764469611</DistanceMeters>
          </Trackpoint>
          <Trackpoint>
            <Time>2018-04-21T14:11:52.000Z</Time>
            <Position>
              <LatitudeDegrees>43.283782862126827239990234375</LatitudeDegrees>
              <LongitudeDegrees>-8.29274260438978672027587890625</LongitudeDegrees>
            </Position>
            <AltitudeMeters>34.59999847412109375</AltitudeMeters>
            <DistanceMeters>83337.064847079</DistanceMeters>
          </Trackpoint>
          <Trackpoint>
            <Time>2018-04-21T14:11:53.000Z</Time>
            <Position>
              <LatitudeDegrees>43.283736594021320343017578125</LatitudeDegrees>
              <LongitudeDegrees>-8.2928067259490489959716796875</LongitudeDegrees>
            </Position>
            <AltitudeMeters>36.59999847412109375</AltitudeMeters>
            <DistanceMeters>83344.380052681</DistanceMeters>
          </Trackpoint>
          <Trackpoint>
            <Time>2018-04-21T14:11:54.000Z</Time>
            <Position>
              <LatitudeDegrees>43.28369325958192348480224609375</LatitudeDegrees>
              <LongitudeDegrees>-8.29287596046924591064453125</LongitudeDegrees>
            </Position>
            <AltitudeMeters>37.40000152587890625</AltitudeMeters>
            <DistanceMeters>83351.778723062</DistanceMeters>
          </Trackpoint>
          <Trackpoint>
            <Time>2018-04-21T14:11:58.000Z</Time>
            <Position>
              <LatitudeDegrees>43.28357088379561901092529296875</LatitudeDegrees>
              <LongitudeDegrees>-8.29319841228425502777099609375</LongitudeDegrees>
            </Position>
            <AltitudeMeters>35.799999237060546875</AltitudeMeters>
            <DistanceMeters>83381.24252168</DistanceMeters>
          </Trackpoint>
          <Trackpoint>
            <Time>2018-04-21T14:12:01.000Z</Time>
            <Position>
              <LatitudeDegrees>43.28352369368076324462890625</LatitudeDegrees>
              <LongitudeDegrees>-8.29346202313899993896484375</LongitudeDegrees>
            </Position>
            <AltitudeMeters>36</AltitudeMeters>
            <DistanceMeters>83403.237870633</DistanceMeters>
          </Trackpoint>
          <Trackpoint>
            <Time>2018-04-21T14:12:04.000Z</Time>
            <Position>
              <LatitudeDegrees>43.28348203562200069427490234375</LatitudeDegrees>
              <LongitudeDegrees>-8.293726556003093719482421875</LongitudeDegrees>
            </Position>
            <AltitudeMeters>36.200000762939453125</AltitudeMeters>
            <DistanceMeters>83425.167228148</DistanceMeters>
          </Trackpoint>
          <Trackpoint>
            <Time>2018-04-21T14:12:10.000Z</Time>
            <Position>
              <LatitudeDegrees>43.28340659849345684051513671875</LatitudeDegrees>
              <LongitudeDegrees>-8.294243551790714263916015625</LongitudeDegrees>
            </Position>
            <AltitudeMeters>37.799999237060546875</AltitudeMeters>
            <DistanceMeters>83467.889848168</DistanceMeters>
          </Trackpoint>
          <Trackpoint>
            <Time>2018-04-21T14:12:11.000Z</Time>
            <Position>
              <LatitudeDegrees>43.283390589058399200439453125</LatitudeDegrees>
              <LongitudeDegrees>-8.29432460479438304901123046875</LongitudeDegrees>
            </Position>
            <AltitudeMeters>37</AltitudeMeters>
            <DistanceMeters>83474.694716426</DistanceMeters>
          </Trackpoint>
          <Trackpoint>
            <Time>2018-04-21T14:12:12.000Z</Time>
            <Position>
              <LatitudeDegrees>43.28337290324270725250244140625</LatitudeDegrees>
              <LongitudeDegrees>-8.29440557397902011871337890625</LongitudeDegrees>
            </Position>
            <AltitudeMeters>36.200000762939453125</AltitudeMeters>
            <DistanceMeters>83481.543235759</DistanceMeters>
          </Trackpoint>
          <Trackpoint>
            <Time>2018-04-21T14:12:19.000Z</Time>
            <Position>
              <LatitudeDegrees>43.28324072062969207763671875</LatitudeDegrees>
              <LongitudeDegrees>-8.29498459585011005401611328125</LongitudeDegrees>
            </Position>
            <AltitudeMeters>34.200000762939453125</AltitudeMeters>
            <DistanceMeters>83530.711089944</DistanceMeters>
          </Trackpoint>
          <Trackpoint>
            <Time>2018-04-21T14:12:20.000Z</Time>
            <Position>
              <LatitudeDegrees>43.28321867622435092926025390625</LatitudeDegrees>
              <LongitudeDegrees>-8.29506506212055683135986328125</LongitudeDegrees>
            </Position>
            <AltitudeMeters>35.59999847412109375</AltitudeMeters>
            <DistanceMeters>83537.677267576</DistanceMeters>
          </Trackpoint>
          <Trackpoint>
            <Time>2018-04-21T14:12:22.000Z</Time>
            <Position>
              <LatitudeDegrees>43.28317701816558837890625</LatitudeDegrees>
              <LongitudeDegrees>-8.29523588530719280242919921875</LongitudeDegrees>
            </Position>
            <AltitudeMeters>38</AltitudeMeters>
            <DistanceMeters>83552.274311242</DistanceMeters>
          </Trackpoint>
          <Trackpoint>
            <Time>2018-04-21T14:12:23.000Z</Time>
            <Position>
              <LatitudeDegrees>43.2831560634076595306396484375</LatitudeDegrees>
              <LongitudeDegrees>-8.29532423056662082672119140625</LongitudeDegrees>
            </Position>
            <AltitudeMeters>36.200000762939453125</AltitudeMeters>
            <DistanceMeters>83559.802442468</DistanceMeters>
          </Trackpoint>
          <Trackpoint>
            <Time>2018-04-21T14:12:26.000Z</Time>
            <Position>
              <LatitudeDegrees>43.28310350887477397918701171875</LatitudeDegrees>
              <LongitudeDegrees>-8.29560938291251659393310546875</LongitudeDegrees>
            </Position>
            <AltitudeMeters>36.40000152587890625</AltitudeMeters>
            <DistanceMeters>83583.635778966</DistanceMeters>
          </Trackpoint>
          <Trackpoint>
            <Time>2018-04-21T14:12:32.000Z</Time>
            <Position>
              <LatitudeDegrees>43.28303896822035312652587890625</LatitudeDegrees>
              <LongitudeDegrees>-8.296162672340869903564453125</LongitudeDegrees>
            </Position>
            <AltitudeMeters>36.200000762939453125</AltitudeMeters>
            <DistanceMeters>83629.037967905</DistanceMeters>
          </Trackpoint>
          <Trackpoint>
            <Time>2018-04-21T14:12:40.000Z</Time>
            <Position>
              <LatitudeDegrees>43.28300493769347667694091796875</LatitudeDegrees>
              <LongitudeDegrees>-8.29686901532113552093505859375</LongitudeDegrees>
            </Position>
            <AltitudeMeters>35.799999237060546875</AltitudeMeters>
            <DistanceMeters>83686.394757649</DistanceMeters>
          </Trackpoint>
          <Trackpoint>
            <Time>2018-04-21T14:12:41.000Z</Time>
            <Position>
              <LatitudeDegrees>43.2830065302550792694091796875</LatitudeDegrees>
              <LongitudeDegrees>-8.29695249907672405242919921875</LongitudeDegrees>
            </Position>
            <AltitudeMeters>36.200000762939453125</AltitudeMeters>
            <DistanceMeters>83693.161700655</DistanceMeters>
          </Trackpoint>
          <Trackpoint>
            <Time>2018-04-21T14:12:47.000Z</Time>
            <Position>
              <LatitudeDegrees>43.28305304981768131256103515625</LatitudeDegrees>
              <LongitudeDegrees>-8.297444097697734832763671875</LongitudeDegrees>
            </Position>
            <AltitudeMeters>36.40000152587890625</AltitudeMeters>
            <DistanceMeters>83733.328673383</DistanceMeters>
          </Trackpoint>
          <Trackpoint>
            <Time>2018-04-21T14:12:48.000Z</Time>
            <Position>
              <LatitudeDegrees>43.28305036760866641998291015625</LatitudeDegrees>
              <LongitudeDegrees>-8.29752179794013500213623046875</LongitudeDegrees>
            </Position>
            <AltitudeMeters>36.40000152587890625</AltitudeMeters>
            <DistanceMeters>83739.630599771</DistanceMeters>
          </Trackpoint>
          <Trackpoint>
            <Time>2018-04-21T14:12:52.000Z</Time>
            <Position>
              <LatitudeDegrees>43.2830766029655933380126953125</LatitudeDegrees>
              <LongitudeDegrees>-8.29781130887567996978759765625</LongitudeDegrees>
            </Position>
            <AltitudeMeters>36</AltitudeMeters>
            <DistanceMeters>83763.269533556</DistanceMeters>
          </Trackpoint>
          <Trackpoint>
            <Time>2018-04-21T14:12:53.000Z</Time>
            <Position>
              <LatitudeDegrees>43.283104933798313140869140625</LatitudeDegrees>
              <LongitudeDegrees>-8.2978814654052257537841796875</LongitudeDegrees>
            </Position>
            <AltitudeMeters>35.799999237060546875</AltitudeMeters>
            <DistanceMeters>83769.769666453</DistanceMeters>
          </Trackpoint>
          <Trackpoint>
            <Time>2018-04-21T14:12:54.000Z</Time>
            <Position>
              <LatitudeDegrees>43.283133096992969512939453125</LatitudeDegrees>
              <LongitudeDegrees>-8.29796218313276767730712890625</LongitudeDegrees>
            </Position>
            <AltitudeMeters>35.59999847412109375</AltitudeMeters>
            <DistanceMeters>83777.021643095</DistanceMeters>
          </Trackpoint>
          <Trackpoint>
            <Time>2018-04-21T14:12:56.000Z</Time>
            <Position>
              <LatitudeDegrees>43.28317425213754177093505859375</LatitudeDegrees>
              <LongitudeDegrees>-8.29815396107733249664306640625</LongitudeDegrees>
            </Position>
            <AltitudeMeters>35.200000762939453125</AltitudeMeters>
            <DistanceMeters>83793.221398698</DistanceMeters>
          </Trackpoint>
          <Trackpoint>
            <Time>2018-04-21T14:12:57.000Z</Time>
            <Position>
              <LatitudeDegrees>43.2831855677068233489990234375</LatitudeDegrees>
              <LongitudeDegrees>-8.29826225526630878448486328125</LongitudeDegrees>
            </Position>
            <AltitudeMeters>34.799999237060546875</AltitudeMeters>
            <DistanceMeters>83802.085919284</DistanceMeters>
          </Trackpoint>
          <Trackpoint>
            <Time>2018-04-21T14:12:58.000Z</Time>
            <Position>
              <LatitudeDegrees>43.28319721855223178863525390625</LatitudeDegrees>
              <LongitudeDegrees>-8.29837775789201259613037109375</LongitudeDegrees>
            </Position>
            <AltitudeMeters>34.40000152587890625</AltitudeMeters>
            <DistanceMeters>83811.533792359</DistanceMeters>
          </Trackpoint>
          <Trackpoint>
            <Time>2018-04-21T14:12:59.000Z</Time>
            <Position>
              <LatitudeDegrees>43.2832078635692596435546875</LatitudeDegrees>
              <LongitudeDegrees>-8.2984933443367481231689453125</LongitudeDegrees>
            </Position>
            <AltitudeMeters>33.799999237060546875</AltitudeMeters>
            <DistanceMeters>83820.973537819</DistanceMeters>
          </Trackpoint>
          <Trackpoint>
            <Time>2018-04-21T14:13:01.000Z</Time>
            <Position>
              <LatitudeDegrees>43.2832224480807781219482421875</LatitudeDegrees>
              <LongitudeDegrees>-8.298708759248256683349609375</LongitudeDegrees>
            </Position>
            <AltitudeMeters>31.799999237060546875</AltitudeMeters>
            <DistanceMeters>83838.502811656</DistanceMeters>
          </Trackpoint>
          <Trackpoint>
            <Time>2018-04-21T14:13:03.000Z</Time>
            <Position>
              <LatitudeDegrees>43.28321381472051143646240234375</LatitudeDegrees>
              <LongitudeDegrees>-8.29887564294040203094482421875</LongitudeDegrees>
            </Position>
            <AltitudeMeters>30</AltitudeMeters>
            <DistanceMeters>83852.058698039</DistanceMeters>
          </Trackpoint>
          <Trackpoint>
            <Time>2018-04-21T14:13:04.000Z</Time>
            <Position>
              <LatitudeDegrees>43.28319956548511981964111328125</LatitudeDegrees>
              <LongitudeDegrees>-8.2989235036075115203857421875</LongitudeDegrees>
            </Position>
            <AltitudeMeters>29.200000762939453125</AltitudeMeters>
            <DistanceMeters>83856.248503358</DistanceMeters>
          </Trackpoint>
          <Trackpoint>
            <Time>2018-04-21T14:13:05.000Z</Time>
            <Position>
              <LatitudeDegrees>43.2831791974604129791259765625</LatitudeDegrees>
              <LongitudeDegrees>-8.29894973896443843841552734375</LongitudeDegrees>
            </Position>
            <AltitudeMeters>28.200000762939453125</AltitudeMeters>
            <DistanceMeters>83859.355455517</DistanceMeters>
          </Trackpoint>
          <Trackpoint>
            <Time>2018-04-21T14:13:07.000Z</Time>
            <Position>
              <LatitudeDegrees>43.28312161378562450408935546875</LatitudeDegrees>
              <LongitudeDegrees>-8.29896365292370319366455078125</LongitudeDegrees>
            </Position>
            <AltitudeMeters>27.200000762939453125</AltitudeMeters>
            <DistanceMeters>83865.863224606</DistanceMeters>
          </Trackpoint>
          <Trackpoint>
            <Time>2018-04-21T14:13:09.000Z</Time>
            <Position>
              <LatitudeDegrees>43.2830496132373809814453125</LatitudeDegrees>
              <LongitudeDegrees>-8.2989570312201976776123046875</LongitudeDegrees>
            </Position>
            <AltitudeMeters>27.200000762939453125</AltitudeMeters>
            <DistanceMeters>83873.895090275</DistanceMeters>
          </Trackpoint>
          <Trackpoint>
            <Time>2018-04-21T14:13:10.000Z</Time>
            <Position>
              <LatitudeDegrees>43.28300829045474529266357421875</LatitudeDegrees>
              <LongitudeDegrees>-8.29894923605024814605712890625</LongitudeDegrees>
            </Position>
            <AltitudeMeters>26.799999237060546875</AltitudeMeters>
            <DistanceMeters>83878.536831585</DistanceMeters>
          </Trackpoint>
          <Trackpoint>
            <Time>2018-04-21T14:13:12.000Z</Time>
            <Position>
              <LatitudeDegrees>43.28289547003805637359619140625</LatitudeDegrees>
              <LongitudeDegrees>-8.2989338971674442291259765625</LongitudeDegrees>
            </Position>
            <AltitudeMeters>25.6000003814697265625</AltitudeMeters>
            <DistanceMeters>83891.155005299</DistanceMeters>
          </Trackpoint>
          <Trackpoint>
            <Time>2018-04-21T14:13:13.000Z</Time>
            <Position>
              <LatitudeDegrees>43.28283059410750865936279296875</LatitudeDegrees>
              <LongitudeDegrees>-8.2989298738539218902587890625</LongitudeDegrees>
            </Position>
            <AltitudeMeters>24.6000003814697265625</AltitudeMeters>
            <DistanceMeters>83898.383284645</DistanceMeters>
          </Trackpoint>
          <Trackpoint>
            <Time>2018-04-21T14:13:15.000Z</Time>
            <Position>
              <LatitudeDegrees>43.28270553611218929290771484375</LatitudeDegrees>
              <LongitudeDegrees>-8.29892165958881378173828125</LongitudeDegrees>
            </Position>
            <AltitudeMeters>23.200000762939453125</AltitudeMeters>
            <DistanceMeters>83912.318232217</DistanceMeters>
          </Trackpoint>
          <Trackpoint>
            <Time>2018-04-21T14:13:16.000Z</Time>
            <Position>
              <LatitudeDegrees>43.28265708871185779571533203125</LatitudeDegrees>
              <LongitudeDegrees>-8.29892090521752834320068359375</LongitudeDegrees>
            </Position>
            <AltitudeMeters>23.200000762939453125</AltitudeMeters>
            <DistanceMeters>83917.711364538</DistanceMeters>
          </Trackpoint>
          <Trackpoint>
            <Time>2018-04-21T14:13:17.000Z</Time>
            <Position>
              <LatitudeDegrees>43.2826115749776363372802734375</LatitudeDegrees>
              <LongitudeDegrees>-8.2989271916449069976806640625</LongitudeDegrees>
            </Position>
            <AltitudeMeters>21.3999996185302734375</AltitudeMeters>
            <DistanceMeters>83922.803058703</DistanceMeters>
          </Trackpoint>
          <Trackpoint>
            <Time>2018-04-21T14:13:19.000Z</Time>
            <Position>
              <LatitudeDegrees>43.28253320418298244476318359375</LatitudeDegrees>
              <LongitudeDegrees>-8.298972956836223602294921875</LongitudeDegrees>
            </Position>
            <AltitudeMeters>23.799999237060546875</AltitudeMeters>
            <DistanceMeters>83932.281467353</DistanceMeters>
          </Trackpoint>
          <Trackpoint>
            <Time>2018-04-21T14:13:20.000Z</Time>
            <Position>
              <LatitudeDegrees>43.2825024425983428955078125</LatitudeDegrees>
              <LongitudeDegrees>-8.29901042394340038299560546875</LongitudeDegrees>
            </Position>
            <AltitudeMeters>24.3999996185302734375</AltitudeMeters>
            <DistanceMeters>83936.858560027</DistanceMeters>
          </Trackpoint>
          <Trackpoint>
            <Time>2018-04-21T14:13:21.000Z</Time>
            <Position>
              <LatitudeDegrees>43.2824801467359066009521484375</LatitudeDegrees>
              <LongitudeDegrees>-8.29905820079147815704345703125</LongitudeDegrees>
            </Position>
            <AltitudeMeters>22.6000003814697265625</AltitudeMeters>
            <DistanceMeters>83941.455339213</DistanceMeters>
          </Trackpoint>
          <Trackpoint>
            <Time>2018-04-21T14:13:22.000Z</Time>
            <Position>
              <LatitudeDegrees>43.28246983699500560760498046875</LatitudeDegrees>
              <LongitudeDegrees>-8.29911611974239349365234375</LongitudeDegrees>
            </Position>
            <AltitudeMeters>20.799999237060546875</AltitudeMeters>
            <DistanceMeters>83946.285837896</DistanceMeters>
          </Trackpoint>
          <Trackpoint>
            <Time>2018-04-21T14:13:23.000Z</Time>
            <Position>
              <LatitudeDegrees>43.282467238605022430419921875</LatitudeDegrees>
              <LongitudeDegrees>-8.29917353577911853790283203125</LongitudeDegrees>
            </Position>
            <AltitudeMeters>20</AltitudeMeters>
            <DistanceMeters>83950.946992681</DistanceMeters>
          </Trackpoint>
          <Trackpoint>
            <Time>2018-04-21T14:13:27.000Z</Time>
            <Position>
              <LatitudeDegrees>43.28250889666378498077392578125</LatitudeDegrees>
              <LongitudeDegrees>-8.29937570728361606597900390625</LongitudeDegrees>
            </Position>
            <AltitudeMeters>19.799999237060546875</AltitudeMeters>
            <DistanceMeters>83967.971632578</DistanceMeters>
          </Trackpoint>
          <Trackpoint>
            <Time>2018-04-21T14:13:30.000Z</Time>
            <Position>
              <LatitudeDegrees>43.28257461078464984893798828125</LatitudeDegrees>
              <LongitudeDegrees>-8.29951283521950244903564453125</LongitudeDegrees>
            </Position>
            <AltitudeMeters>19</AltitudeMeters>
            <DistanceMeters>83981.274014996</DistanceMeters>
          </Trackpoint>
          <Trackpoint>
            <Time>2018-04-21T14:13:32.000Z</Time>
            <Position>
              <LatitudeDegrees>43.2826313562691211700439453125</LatitudeDegrees>
              <LongitudeDegrees>-8.299605958163738250732421875</LongitudeDegrees>
            </Position>
            <AltitudeMeters>20.200000762939453125</AltitudeMeters>
            <DistanceMeters>83991.114213658</DistanceMeters>
          </Trackpoint>
          <Trackpoint>
            <Time>2018-04-21T14:13:33.000Z</Time>
            <Position>
              <LatitudeDegrees>43.2826606929302215576171875</LatitudeDegrees>
              <LongitudeDegrees>-8.29965415410697460174560546875</LongitudeDegrees>
            </Position>
            <AltitudeMeters>22.200000762939453125</AltitudeMeters>
            <DistanceMeters>83996.205021</DistanceMeters>
          </Trackpoint>
          <Trackpoint>
            <Time>2018-04-21T14:13:34.000Z</Time>
            <Position>
              <LatitudeDegrees>43.2826910354197025299072265625</LatitudeDegrees>
              <LongitudeDegrees>-8.29970612190663814544677734375</LongitudeDegrees>
            </Position>
            <AltitudeMeters>20.6000003814697265625</AltitudeMeters>
            <DistanceMeters>84001.602337612</DistanceMeters>
          </Trackpoint>
          <Trackpoint>
            <Time>2018-04-21T14:13:41.000Z</Time>
            <Position>
              <LatitudeDegrees>43.28287535347044467926025390625</LatitudeDegrees>
              <LongitudeDegrees>-8.3000178448855876922607421875</LongitudeDegrees>
            </Position>
            <AltitudeMeters>20.6000003814697265625</AltitudeMeters>
            <DistanceMeters>84034.141460575</DistanceMeters>
          </Trackpoint>
          <Trackpoint>
            <Time>2018-04-21T14:13:44.000Z</Time>
            <Position>
              <LatitudeDegrees>43.2829616032540798187255859375</LatitudeDegrees>
              <LongitudeDegrees>-8.300141729414463043212890625</LongitudeDegrees>
            </Position>
            <AltitudeMeters>18.200000762939453125</AltitudeMeters>
            <DistanceMeters>84048.030322767</DistanceMeters>
          </Trackpoint>
          <Trackpoint>
            <Time>2018-04-21T14:13:47.000Z</Time>
            <Position>
              <LatitudeDegrees>43.28305304981768131256103515625</LatitudeDegrees>
              <LongitudeDegrees>-8.30028246156871318817138671875</LongitudeDegrees>
            </Position>
            <AltitudeMeters>21.6000003814697265625</AltitudeMeters>
            <DistanceMeters>84063.314860957</DistanceMeters>
          </Trackpoint>
          <Trackpoint>
            <Time>2018-04-21T14:13:50.000Z</Time>
            <Position>
              <LatitudeDegrees>43.28312664292752742767333984375</LatitudeDegrees>
              <LongitudeDegrees>-8.300422690808773040771484375</LongitudeDegrees>
            </Position>
            <AltitudeMeters>21</AltitudeMeters>
            <DistanceMeters>84077.321553672</DistanceMeters>
          </Trackpoint>
          <Trackpoint>
            <Time>2018-04-21T14:13:53.000Z</Time>
            <Position>
              <LatitudeDegrees>43.28319847583770751953125</LatitudeDegrees>
              <LongitudeDegrees>-8.30057515762746334075927734375</LongitudeDegrees>
            </Position>
            <AltitudeMeters>21.6000003814697265625</AltitudeMeters>
            <DistanceMeters>84092.036586905</DistanceMeters>
          </Trackpoint>
          <Trackpoint>
            <Time>2018-04-21T14:13:58.000Z</Time>
            <Position>
              <LatitudeDegrees>43.283283300697803497314453125</LatitudeDegrees>
              <LongitudeDegrees>-8.300941027700901031494140625</LongitudeDegrees>
            </Position>
            <AltitudeMeters>21.200000762939453125</AltitudeMeters>
            <DistanceMeters>84123.148222896</DistanceMeters>
          </Trackpoint>
          <Trackpoint>
            <Time>2018-04-21T14:13:59.000Z</Time>
            <Position>
              <LatitudeDegrees>43.28329327516257762908935546875</LatitudeDegrees>
              <LongitudeDegrees>-8.30102828331291675567626953125</LongitudeDegrees>
            </Position>
            <AltitudeMeters>21</AltitudeMeters>
            <DistanceMeters>84130.304308664</DistanceMeters>
          </Trackpoint>
          <Trackpoint>
            <Time>2018-04-21T14:14:02.000Z</Time>
            <Position>
              <LatitudeDegrees>43.283314816653728485107421875</LatitudeDegrees>
              <LongitudeDegrees>-8.30123313702642917633056640625</LongitudeDegrees>
            </Position>
            <AltitudeMeters>20.799999237060546875</AltitudeMeters>
            <DistanceMeters>84147.074571955</DistanceMeters>
          </Trackpoint>
          <Trackpoint>
            <Time>2018-04-21T14:14:06.000Z</Time>
            <Position>
              <LatitudeDegrees>43.28334708698093891143798828125</LatitudeDegrees>
              <LongitudeDegrees>-8.30139574594795703887939453125</LongitudeDegrees>
            </Position>
            <AltitudeMeters>21.6000003814697265625</AltitudeMeters>
            <DistanceMeters>84160.730674573</DistanceMeters>
          </Trackpoint>
          <Trackpoint>
            <Time>2018-04-21T14:14:10.000Z</Time>
            <Position>
              <LatitudeDegrees>43.28338195569813251495361328125</LatitudeDegrees>
              <LongitudeDegrees>-8.30141074955463409423828125</LongitudeDegrees>
            </Position>
            <AltitudeMeters>21.799999237060546875</AltitudeMeters>
            <DistanceMeters>84164.797995564</DistanceMeters>
          </Trackpoint>
          <Trackpoint>
            <Time>2018-04-21T14:14:11.000Z</Time>
            <Position>
              <LatitudeDegrees>43.28339285217225551605224609375</LatitudeDegrees>
              <LongitudeDegrees>-8.30140161328017711639404296875</LongitudeDegrees>
            </Position>
            <AltitudeMeters>21.799999237060546875</AltitudeMeters>
            <DistanceMeters>84166.220225195</DistanceMeters>
          </Trackpoint>
          <Trackpoint>
            <Time>2018-04-21T14:14:14.000Z</Time>
            <Position>
              <LatitudeDegrees>43.28347164206206798553466796875</LatitudeDegrees>
              <LongitudeDegrees>-8.30138652585446834564208984375</LongitudeDegrees>
            </Position>
            <AltitudeMeters>22</AltitudeMeters>
            <DistanceMeters>84175.074553159</DistanceMeters>
          </Trackpoint>
          <Trackpoint>
            <Time>2018-04-21T14:14:15.000Z</Time>
            <Position>
              <LatitudeDegrees>43.28350986354053020477294921875</LatitudeDegrees>
              <LongitudeDegrees>-8.3013834245502948760986328125</LongitudeDegrees>
            </Position>
            <AltitudeMeters>21.799999237060546875</AltitudeMeters>
            <DistanceMeters>84179.337007124</DistanceMeters>
          </Trackpoint>
          <Trackpoint>
            <Time>2018-04-21T14:14:21.000Z</Time>
            <Position>
              <LatitudeDegrees>43.2837538607418537139892578125</LatitudeDegrees>
              <LongitudeDegrees>-8.3013274334371089935302734375</LongitudeDegrees>
            </Position>
            <AltitudeMeters>21.200000762939453125</AltitudeMeters>
            <DistanceMeters>84206.870823383</DistanceMeters>
          </Trackpoint>
          <Trackpoint>
            <Time>2018-04-21T14:14:26.000Z</Time>
            <Position>
              <LatitudeDegrees>43.28394186682999134063720703125</LatitudeDegrees>
              <LongitudeDegrees>-8.30120623111724853515625</LongitudeDegrees>
            </Position>
            <AltitudeMeters>22.799999237060546875</AltitudeMeters>
            <DistanceMeters>84229.986352435</DistanceMeters>
          </Trackpoint>
          <Trackpoint>
            <Time>2018-04-21T14:14:27.000Z</Time>
            <Position>
              <LatitudeDegrees>43.28396759927272796630859375</LatitudeDegrees>
              <LongitudeDegrees>-8.30118477344512939453125</LongitudeDegrees>
            </Position>
            <AltitudeMeters>23.200000762939453125</AltitudeMeters>
            <DistanceMeters>84233.337981158</DistanceMeters>
          </Trackpoint>
          <Trackpoint>
            <Time>2018-04-21T14:14:29.000Z</Time>
            <Position>
              <LatitudeDegrees>43.2840017974376678466796875</LatitudeDegrees>
              <LongitudeDegrees>-8.30117203295230865478515625</LongitudeDegrees>
            </Position>
            <AltitudeMeters>23.6000003814697265625</AltitudeMeters>
            <DistanceMeters>84237.281303569</DistanceMeters>
          </Trackpoint>
          <Trackpoint>
            <Time>2018-04-21T14:14:31.000Z</Time>
            <Position>
              <LatitudeDegrees>43.28402803279459476470947265625</LatitudeDegrees>
              <LongitudeDegrees>-8.3011899702250957489013671875</LongitudeDegrees>
            </Position>
            <AltitudeMeters>23.799999237060546875</AltitudeMeters>
            <DistanceMeters>84240.542810897</DistanceMeters>
          </Trackpoint>
          <Trackpoint>
            <Time>2018-04-21T14:14:32.000Z</Time>
            <Position>
              <LatitudeDegrees>43.284042365849018096923828125</LatitudeDegrees>
              <LongitudeDegrees>-8.30120329745113849639892578125</LongitudeDegrees>
            </Position>
            <AltitudeMeters>23.799999237060546875</AltitudeMeters>
            <DistanceMeters>84242.466955211</DistanceMeters>
          </Trackpoint>
          <Trackpoint>
            <Time>2018-04-21T14:14:33.000Z</Time>
            <Position>
              <LatitudeDegrees>43.2840646617114543914794921875</LatitudeDegrees>
              <LongitudeDegrees>-8.3012234978377819061279296875</LongitudeDegrees>
            </Position>
            <AltitudeMeters>24</AltitudeMeters>
            <DistanceMeters>84245.440243767</DistanceMeters>
          </Trackpoint>
          <Trackpoint>
            <Time>2018-04-21T14:14:35.000Z</Time>
            <Position>
              <LatitudeDegrees>43.284123837947845458984375</LatitudeDegrees>
              <LongitudeDegrees>-8.301297761499881744384765625</LongitudeDegrees>
            </Position>
            <AltitudeMeters>24.200000762939453125</AltitudeMeters>
            <DistanceMeters>84254.361121734</DistanceMeters>
          </Trackpoint>
          <Trackpoint>
            <Time>2018-04-21T14:14:40.000Z</Time>
            <Position>
              <LatitudeDegrees>43.284265659749507904052734375</LatitudeDegrees>
              <LongitudeDegrees>-8.30157830379903316497802734375</LongitudeDegrees>
            </Position>
            <AltitudeMeters>23.799999237060546875</AltitudeMeters>
            <DistanceMeters>84282.034950222</DistanceMeters>
          </Trackpoint>
          <Trackpoint>
            <Time>2018-04-21T14:14:46.000Z</Time>
            <Position>
              <LatitudeDegrees>43.28447076492011547088623046875</LatitudeDegrees>
              <LongitudeDegrees>-8.3019299246370792388916015625</LongitudeDegrees>
            </Position>
            <AltitudeMeters>23</AltitudeMeters>
            <DistanceMeters>84318.542527009</DistanceMeters>
          </Trackpoint>
          <Trackpoint>
            <Time>2018-04-21T14:14:47.000Z</Time>
            <Position>
              <LatitudeDegrees>43.2845112495124340057373046875</LatitudeDegrees>
              <LongitudeDegrees>-8.30198616720736026763916015625</LongitudeDegrees>
            </Position>
            <AltitudeMeters>22.799999237060546875</AltitudeMeters>
            <DistanceMeters>84324.952429334</DistanceMeters>
          </Trackpoint>
          <Trackpoint>
            <Time>2018-04-21T14:14:55.000Z</Time>
            <Position>
              <LatitudeDegrees>43.2848522253334522247314453125</LatitudeDegrees>
              <LongitudeDegrees>-8.30242470838129520416259765625</LongitudeDegrees>
            </Position>
            <AltitudeMeters>22</AltitudeMeters>
            <DistanceMeters>84376.941161775</DistanceMeters>
          </Trackpoint>
          <Trackpoint>
            <Time>2018-04-21T14:14:57.000Z</Time>
            <Position>
              <LatitudeDegrees>43.28494266606867313385009765625</LatitudeDegrees>
              <LongitudeDegrees>-8.30253484658896923065185546875</LongitudeDegrees>
            </Position>
            <AltitudeMeters>21.6000003814697265625</AltitudeMeters>
            <DistanceMeters>84390.393065055</DistanceMeters>
          </Trackpoint>
          <Trackpoint>
            <Time>2018-04-21T14:15:02.000Z</Time>
            <Position>
              <LatitudeDegrees>43.28517786227166652679443359375</LatitudeDegrees>
              <LongitudeDegrees>-8.30281279049813747406005859375</LongitudeDegrees>
            </Position>
            <AltitudeMeters>21.799999237060546875</AltitudeMeters>
            <DistanceMeters>84424.924523096</DistanceMeters>
          </Trackpoint>
          <Trackpoint>
            <Time>2018-04-21T14:15:04.000Z</Time>
            <Position>
              <LatitudeDegrees>43.28527291305363178253173828125</LatitudeDegrees>
              <LongitudeDegrees>-8.302921168506145477294921875</LongitudeDegrees>
            </Position>
            <AltitudeMeters>21.799999237060546875</AltitudeMeters>
            <DistanceMeters>84438.673545617</DistanceMeters>
          </Trackpoint>
          <Trackpoint>
            <Time>2018-04-21T14:15:10.000Z</Time>
            <Position>
              <LatitudeDegrees>43.2855494320392608642578125</LatitudeDegrees>
              <LongitudeDegrees>-8.30324579961597919464111328125</LongitudeDegrees>
            </Position>
            <AltitudeMeters>21.6000003814697265625</AltitudeMeters>
            <DistanceMeters>84479.158494859</DistanceMeters>
          </Trackpoint>
          <Trackpoint>
            <Time>2018-04-21T14:15:13.000Z</Time>
            <Position>
              <LatitudeDegrees>43.2856914214789867401123046875</LatitudeDegrees>
              <LongitudeDegrees>-8.3034128509461879730224609375</LongitudeDegrees>
            </Position>
            <AltitudeMeters>21.200000762939453125</AltitudeMeters>
            <DistanceMeters>84499.966090712</DistanceMeters>
          </Trackpoint>
          <Trackpoint>
            <Time>2018-04-21T14:15:21.000Z</Time>
            <Position>
              <LatitudeDegrees>43.28606466762721538543701171875</LatitudeDegrees>
              <LongitudeDegrees>-8.30383001826703548431396484375</LongitudeDegrees>
            </Position>
            <AltitudeMeters>21.6000003814697265625</AltitudeMeters>
            <DistanceMeters>84553.521885739</DistanceMeters>
          </Trackpoint>
          <Trackpoint>
            <Time>2018-04-21T14:15:23.000Z</Time>
            <Position>
              <LatitudeDegrees>43.28615334816277027130126953125</LatitudeDegrees>
              <LongitudeDegrees>-8.30391752533614635467529296875</LongitudeDegrees>
            </Position>
            <AltitudeMeters>21.6000003814697265625</AltitudeMeters>
            <DistanceMeters>84565.674907187</DistanceMeters>
          </Trackpoint>
          <Trackpoint>
            <Time>2018-04-21T14:15:25.000Z</Time>
            <Position>
              <LatitudeDegrees>43.286199532449245452880859375</LatitudeDegrees>
              <LongitudeDegrees>-8.3040277473628520965576171875</LongitudeDegrees>
            </Position>
            <AltitudeMeters>21.3999996185302734375</AltitudeMeters>
            <DistanceMeters>84575.979063573</DistanceMeters>
          </Trackpoint>
          <Trackpoint>
            <Time>2018-04-21T14:15:29.000Z</Time>
            <Position>
              <LatitudeDegrees>43.28629584051668643951416015625</LatitudeDegrees>
              <LongitudeDegrees>-8.3041819743812084197998046875</LongitudeDegrees>
            </Position>
            <AltitudeMeters>21.799999237060546875</AltitudeMeters>
            <DistanceMeters>84592.44256182</DistanceMeters>
          </Trackpoint>
          <Trackpoint>
            <Time>2018-04-21T14:15:31.000Z</Time>
            <Position>
              <LatitudeDegrees>43.2863639853894710540771484375</LatitudeDegrees>
              <LongitudeDegrees>-8.304229080677032470703125</LongitudeDegrees>
            </Position>
            <AltitudeMeters>21.6000003814697265625</AltitudeMeters>
            <DistanceMeters>84600.933505839</DistanceMeters>
          </Trackpoint>
          <Trackpoint>
            <Time>2018-04-21T14:15:33.000Z</Time>
            <Position>
              <LatitudeDegrees>43.2863928191363811492919921875</LatitudeDegrees>
              <LongitudeDegrees>-8.30428733490407466888427734375</LongitudeDegrees>
            </Position>
            <AltitudeMeters>21.3999996185302734375</AltitudeMeters>
            <DistanceMeters>84606.6414403</DistanceMeters>
          </Trackpoint>
          <Trackpoint>
            <Time>2018-04-21T14:15:36.000Z</Time>
            <Position>
              <LatitudeDegrees>43.28634671866893768310546875</LatitudeDegrees>
              <LongitudeDegrees>-8.304351456463336944580078125</LongitudeDegrees>
            </Position>
            <AltitudeMeters>21.3999996185302734375</AltitudeMeters>
            <DistanceMeters>84613.944291214</DistanceMeters>
          </Trackpoint>
          <Trackpoint>
            <Time>2018-04-21T14:15:39.000Z</Time>
            <Position>
              <LatitudeDegrees>43.28625007532536983489990234375</LatitudeDegrees>
              <LongitudeDegrees>-8.304413147270679473876953125</LongitudeDegrees>
            </Position>
            <AltitudeMeters>21.799999237060546875</AltitudeMeters>
            <DistanceMeters>84625.805513369</DistanceMeters>
          </Trackpoint>
          <Trackpoint>
            <Time>2018-04-21T14:15:42.000Z</Time>
            <Position>
              <LatitudeDegrees>43.286143206059932708740234375</LatitudeDegrees>
              <LongitudeDegrees>-8.30447860993444919586181640625</LongitudeDegrees>
            </Position>
            <AltitudeMeters>22.3999996185302734375</AltitudeMeters>
            <DistanceMeters>84638.828681024</DistanceMeters>
          </Trackpoint>
          <Trackpoint>
            <Time>2018-04-21T14:15:48.000Z</Time>
            <Position>
              <LatitudeDegrees>43.28589200042188167572021484375</LatitudeDegrees>
              <LongitudeDegrees>-8.30464608035981655120849609375</LongitudeDegrees>
            </Position>
            <AltitudeMeters>22</AltitudeMeters>
            <DistanceMeters>84669.90663006</DistanceMeters>
          </Trackpoint>
          <Trackpoint>
            <Time>2018-04-21T14:15:49.000Z</Time>
            <Position>
              <LatitudeDegrees>43.28584112226963043212890625</LatitudeDegrees>
              <LongitudeDegrees>-8.3046684600412845611572265625</LongitudeDegrees>
            </Position>
            <AltitudeMeters>21.799999237060546875</AltitudeMeters>
            <DistanceMeters>84675.853207172</DistanceMeters>
          </Trackpoint>
          <Trackpoint>
            <Time>2018-04-21T14:15:52.000Z</Time>
            <Position>
              <LatitudeDegrees>43.28567809425294399261474609375</LatitudeDegrees>
              <LongitudeDegrees>-8.30472973175346851348876953125</LongitudeDegrees>
            </Position>
            <AltitudeMeters>21.799999237060546875</AltitudeMeters>
            <DistanceMeters>84694.665376795</DistanceMeters>
          </Trackpoint>
          <Trackpoint>
            <Time>2018-04-21T14:15:55.000Z</Time>
            <Position>
              <LatitudeDegrees>43.28550475649535655975341796875</LatitudeDegrees>
              <LongitudeDegrees>-8.30474616028368473052978515625</LongitudeDegrees>
            </Position>
            <AltitudeMeters>21.6000003814697265625</AltitudeMeters>
            <DistanceMeters>84714.003721757</DistanceMeters>
          </Trackpoint>
          <Trackpoint>
            <Time>2018-04-21T14:16:02.000Z</Time>
            <Position>
              <LatitudeDegrees>43.28509010374546051025390625</LatitudeDegrees>
              <LongitudeDegrees>-8.3047105371952056884765625</LongitudeDegrees>
            </Position>
            <AltitudeMeters>21.200000762939453125</AltitudeMeters>
            <DistanceMeters>84760.245521481</DistanceMeters>
          </Trackpoint>
          <Trackpoint>
            <Time>2018-04-21T14:16:03.000Z</Time>
            <Position>
              <LatitudeDegrees>43.28503419645130634307861328125</LatitudeDegrees>
              <LongitudeDegrees>-8.30470710061490535736083984375</LongitudeDegrees>
            </Position>
            <AltitudeMeters>21</AltitudeMeters>
            <DistanceMeters>84766.473940896</DistanceMeters>
          </Trackpoint>
          <Trackpoint>
            <Time>2018-04-21T14:16:06.000Z</Time>
            <Position>
              <LatitudeDegrees>43.28487460501492023468017578125</LatitudeDegrees>
              <LongitudeDegrees>-8.3047735691070556640625</LongitudeDegrees>
            </Position>
            <AltitudeMeters>20.3999996185302734375</AltitudeMeters>
            <DistanceMeters>84785.035312251</DistanceMeters>
          </Trackpoint>
          <Trackpoint>
            <Time>2018-04-21T14:16:09.000Z</Time>
            <Position>
              <LatitudeDegrees>43.2847697474062442779541015625</LatitudeDegrees>
              <LongitudeDegrees>-8.30494866706430912017822265625</LongitudeDegrees>
            </Position>
            <AltitudeMeters>20.3999996185302734375</AltitudeMeters>
            <DistanceMeters>84803.405723701</DistanceMeters>
          </Trackpoint>
          <Trackpoint>
            <Time>2018-04-21T14:16:11.000Z</Time>
            <Position>
              <LatitudeDegrees>43.28471752814948558807373046875</LatitudeDegrees>
              <LongitudeDegrees>-8.30508562736213207244873046875</LongitudeDegrees>
            </Position>
            <AltitudeMeters>20.3999996185302734375</AltitudeMeters>
            <DistanceMeters>84815.93268137</DistanceMeters>
          </Trackpoint>
          <Trackpoint>
            <Time>2018-04-21T14:16:12.000Z</Time>
            <Position>
              <LatitudeDegrees>43.28469875268638134002685546875</LatitudeDegrees>
              <LongitudeDegrees>-8.3051549457013607025146484375</LongitudeDegrees>
            </Position>
            <AltitudeMeters>20.3999996185302734375</AltitudeMeters>
            <DistanceMeters>84821.924641312</DistanceMeters>
          </Trackpoint>
          <Trackpoint>
            <Time>2018-04-21T14:16:14.000Z</Time>
            <Position>
              <LatitudeDegrees>43.284661285579204559326171875</LatitudeDegrees>
              <LongitudeDegrees>-8.305232226848602294921875</LongitudeDegrees>
            </Position>
            <AltitudeMeters>20</AltitudeMeters>
            <DistanceMeters>84829.447972964</DistanceMeters>
          </Trackpoint>
          <Trackpoint>
            <Time>2018-04-21T14:16:17.000Z</Time>
            <Position>
              <LatitudeDegrees>43.284554667770862579345703125</LatitudeDegrees>
              <LongitudeDegrees>-8.30522242002189159393310546875</LongitudeDegrees>
            </Position>
            <AltitudeMeters>19.6000003814697265625</AltitudeMeters>
            <DistanceMeters>84841.341127189</DistanceMeters>
          </Trackpoint>
          <Trackpoint>
            <Time>2018-04-21T14:16:18.000Z</Time>
            <Position>
              <LatitudeDegrees>43.28451150096952915191650390625</LatitudeDegrees>
              <LongitudeDegrees>-8.3052233420312404632568359375</LongitudeDegrees>
            </Position>
            <AltitudeMeters>19.3999996185302734375</AltitudeMeters>
            <DistanceMeters>84846.147262387</DistanceMeters>
          </Trackpoint>
          <Trackpoint>
            <Time>2018-04-21T14:16:21.000Z</Time>
            <Position>
              <LatitudeDegrees>43.284376300871372222900390625</LatitudeDegrees>
              <LongitudeDegrees>-8.30527991987764835357666015625</LongitudeDegrees>
            </Position>
            <AltitudeMeters>19.3999996185302734375</AltitudeMeters>
            <DistanceMeters>84861.878130605</DistanceMeters>
          </Trackpoint>
          <Trackpoint>
            <Time>2018-04-21T14:16:24.000Z</Time>
            <Position>
              <LatitudeDegrees>43.28426624648272991180419921875</LatitudeDegrees>
              <LongitudeDegrees>-8.30539651215076446533203125</LongitudeDegrees>
            </Position>
            <AltitudeMeters>19.6000003814697265625</AltitudeMeters>
            <DistanceMeters>84877.347358955</DistanceMeters>
          </Trackpoint>
          <Trackpoint>
            <Time>2018-04-21T14:16:26.000Z</Time>
            <Position>
              <LatitudeDegrees>43.2841877080500125885009765625</LatitudeDegrees>
              <LongitudeDegrees>-8.3054687641561031341552734375</LongitudeDegrees>
            </Position>
            <AltitudeMeters>19.200000762939453125</AltitudeMeters>
            <DistanceMeters>84887.867464321</DistanceMeters>
          </Trackpoint>
          <Trackpoint>
            <Time>2018-04-21T14:16:29.000Z</Time>
            <Position>
              <LatitudeDegrees>43.28408184461295604705810546875</LatitudeDegrees>
              <LongitudeDegrees>-8.30556741915643215179443359375</LongitudeDegrees>
            </Position>
            <AltitudeMeters>19.6000003814697265625</AltitudeMeters>
            <DistanceMeters>84902.105624882</DistanceMeters>
          </Trackpoint>
          <Trackpoint>
            <Time>2018-04-21T14:16:31.000Z</Time>
            <Position>
              <LatitudeDegrees>43.28401076607406139373779296875</LatitudeDegrees>
              <LongitudeDegrees>-8.3055871166288852691650390625</LongitudeDegrees>
            </Position>
            <AltitudeMeters>19</AltitudeMeters>
            <DistanceMeters>84910.175625583</DistanceMeters>
          </Trackpoint>
          <Trackpoint>
            <Time>2018-04-21T14:16:35.000Z</Time>
            <Position>
              <LatitudeDegrees>43.2839550264179706573486328125</LatitudeDegrees>
              <LongitudeDegrees>-8.30567386932671070098876953125</LongitudeDegrees>
            </Position>
            <AltitudeMeters>19.200000762939453125</AltitudeMeters>
            <DistanceMeters>84919.551059658</DistanceMeters>
          </Trackpoint>
          <Trackpoint>
            <Time>2018-04-21T14:16:37.000Z</Time>
            <Position>
              <LatitudeDegrees>43.283978663384914398193359375</LatitudeDegrees>
              <LongitudeDegrees>-8.3057621307671070098876953125</LongitudeDegrees>
            </Position>
            <AltitudeMeters>19.3999996185302734375</AltitudeMeters>
            <DistanceMeters>84927.170993486</DistanceMeters>
          </Trackpoint>
          <Trackpoint>
            <Time>2018-04-21T14:16:39.000Z</Time>
            <Position>
              <LatitudeDegrees>43.2839815132319927215576171875</LatitudeDegrees>
              <LongitudeDegrees>-8.30587402917444705963134765625</LongitudeDegrees>
            </Position>
            <AltitudeMeters>19.6000003814697265625</AltitudeMeters>
            <DistanceMeters>84936.242934662</DistanceMeters>
          </Trackpoint>
          <Trackpoint>
            <Time>2018-04-21T14:16:42.000Z</Time>
            <Position>
              <LatitudeDegrees>43.2839644141495227813720703125</LatitudeDegrees>
              <LongitudeDegrees>-8.30604434944689273834228515625</LongitudeDegrees>
            </Position>
            <AltitudeMeters>19.799999237060546875</AltitudeMeters>
            <DistanceMeters>84950.173669491</DistanceMeters>
          </Trackpoint>
          <Trackpoint>
            <Time>2018-04-21T14:16:45.000Z</Time>
            <Position>
              <LatitudeDegrees>43.28392879106104373931884765625</LatitudeDegrees>
              <LongitudeDegrees>-8.30623327754437923431396484375</LongitudeDegrees>
            </Position>
            <AltitudeMeters>19.799999237060546875</AltitudeMeters>
            <DistanceMeters>84965.985840644</DistanceMeters>
          </Trackpoint>
          <Trackpoint>
            <Time>2018-04-21T14:16:46.000Z</Time>
            <Position>
              <LatitudeDegrees>43.28391672112047672271728515625</LatitudeDegrees>
              <LongitudeDegrees>-8.30630117096006870269775390625</LongitudeDegrees>
            </Position>
            <AltitudeMeters>20.3999996185302734375</AltitudeMeters>
            <DistanceMeters>84971.647710598</DistanceMeters>
          </Trackpoint>
          <Trackpoint>
            <Time>2018-04-21T14:16:48.000Z</Time>
            <Position>
              <LatitudeDegrees>43.28390666283667087554931640625</LatitudeDegrees>
              <LongitudeDegrees>-8.306444920599460601806640625</LongitudeDegrees>
            </Position>
            <AltitudeMeters>20.3999996185302734375</AltitudeMeters>
            <DistanceMeters>84983.348737008</DistanceMeters>
          </Trackpoint>
          <Trackpoint>
            <Time>2018-04-21T14:16:51.000Z</Time>
            <Position>
              <LatitudeDegrees>43.2839288748800754547119140625</LatitudeDegrees>
              <LongitudeDegrees>-8.3066600002348423004150390625</LongitudeDegrees>
            </Position>
            <AltitudeMeters>19.6000003814697265625</AltitudeMeters>
            <DistanceMeters>85000.949983061</DistanceMeters>
          </Trackpoint>
          <Trackpoint>
            <Time>2018-04-21T14:16:52.000Z</Time>
            <Position>
              <LatitudeDegrees>43.28394438140094280242919921875</LatitudeDegrees>
              <LongitudeDegrees>-8.3067307434976100921630859375</LongitudeDegrees>
            </Position>
            <AltitudeMeters>19.6000003814697265625</AltitudeMeters>
            <DistanceMeters>85006.936666067</DistanceMeters>
          </Trackpoint>
          <Trackpoint>
            <Time>2018-04-21T14:16:54.000Z</Time>
            <Position>
              <LatitudeDegrees>43.28398847021162509918212890625</LatitudeDegrees>
              <LongitudeDegrees>-8.30685974098742008209228515625</LongitudeDegrees>
            </Position>
            <AltitudeMeters>19.200000762939453125</AltitudeMeters>
            <DistanceMeters>85018.483096191</DistanceMeters>
          </Trackpoint>
          <Trackpoint>
            <Time>2018-04-21T14:16:56.000Z</Time>
            <Position>
              <LatitudeDegrees>43.28405166976153850555419921875</LatitudeDegrees>
              <LongitudeDegrees>-8.306978009641170501708984375</LongitudeDegrees>
            </Position>
            <AltitudeMeters>19.799999237060546875</AltitudeMeters>
            <DistanceMeters>85030.37017473</DistanceMeters>
          </Trackpoint>
          <Trackpoint>
            <Time>2018-04-21T14:16:58.000Z</Time>
            <Position>
              <LatitudeDegrees>43.28413163311779499053955078125</LatitudeDegrees>
              <LongitudeDegrees>-8.3070842921733856201171875</LongitudeDegrees>
            </Position>
            <AltitudeMeters>19.799999237060546875</AltitudeMeters>
            <DistanceMeters>85042.754310482</DistanceMeters>
          </Trackpoint>
          <Trackpoint>
            <Time>2018-04-21T14:17:00.000Z</Time>
            <Position>
              <LatitudeDegrees>43.28422349877655506134033203125</LatitudeDegrees>
              <LongitudeDegrees>-8.3071699552237987518310546875</LongitudeDegrees>
            </Position>
            <AltitudeMeters>20</AltitudeMeters>
            <DistanceMeters>85055.11216842</DistanceMeters>
          </Trackpoint>
          <Trackpoint>
            <Time>2018-04-21T14:17:01.000Z</Time>
            <Position>
              <LatitudeDegrees>43.28427395783364772796630859375</LatitudeDegrees>
              <LongitudeDegrees>-8.30720507539808750152587890625</LongitudeDegrees>
            </Position>
            <AltitudeMeters>20</AltitudeMeters>
            <DistanceMeters>85061.40836057</DistanceMeters>
          </Trackpoint>
          <Trackpoint>
            <Time>2018-04-21T14:17:03.000Z</Time>
            <Position>
              <LatitudeDegrees>43.28438627533614635467529296875</LatitudeDegrees>
              <LongitudeDegrees>-8.307268358767032623291015625</LongitudeDegrees>
            </Position>
            <AltitudeMeters>20.200000762939453125</AltitudeMeters>
            <DistanceMeters>85074.92021039</DistanceMeters>
          </Trackpoint>
          <Trackpoint>
            <Time>2018-04-21T14:17:05.000Z</Time>
            <Position>
              <LatitudeDegrees>43.2844857685267925262451171875</LatitudeDegrees>
              <LongitudeDegrees>-8.30733533017337322235107421875</LongitudeDegrees>
            </Position>
            <AltitudeMeters>20.200000762939453125</AltitudeMeters>
            <DistanceMeters>85087.25210065</DistanceMeters>
          </Trackpoint>
          <Trackpoint>
            <Time>2018-04-21T14:17:08.000Z</Time>
            <Position>
              <LatitudeDegrees>43.28462616540491580963134765625</LatitudeDegrees>
              <LongitudeDegrees>-8.3074686862528324127197265625</LongitudeDegrees>
            </Position>
            <AltitudeMeters>19.3999996185302734375</AltitudeMeters>
            <DistanceMeters>85106.250315184</DistanceMeters>
          </Trackpoint>
          <Trackpoint>
            <Time>2018-04-21T14:17:10.000Z</Time>
            <Position>
              <LatitudeDegrees>43.2847150973975658416748046875</LatitudeDegrees>
              <LongitudeDegrees>-8.3075820095837116241455078125</LongitudeDegrees>
            </Position>
            <AltitudeMeters>19.6000003814697265625</AltitudeMeters>
            <DistanceMeters>85119.751467842</DistanceMeters>
          </Trackpoint>
          <Trackpoint>
            <Time>2018-04-21T14:17:16.000Z</Time>
            <Position>
              <LatitudeDegrees>43.2849417440593242645263671875</LatitudeDegrees>
              <LongitudeDegrees>-8.30796967260539531707763671875</LongitudeDegrees>
            </Position>
            <AltitudeMeters>20</AltitudeMeters>
            <DistanceMeters>85160.036967204</DistanceMeters>
          </Trackpoint>
          <Trackpoint>
            <Time>2018-04-21T14:17:23.000Z</Time>
            <Position>
              <LatitudeDegrees>43.285151459276676177978515625</LatitudeDegrees>
              <LongitudeDegrees>-8.3084584213793277740478515625</LongitudeDegrees>
            </Position>
            <AltitudeMeters>20</AltitudeMeters>
            <DistanceMeters>85206.003875053</DistanceMeters>
          </Trackpoint>
          <Trackpoint>
            <Time>2018-04-21T14:17:26.000Z</Time>
            <Position>
              <LatitudeDegrees>43.2852478511631488800048828125</LatitudeDegrees>
              <LongitudeDegrees>-8.30865933559834957122802734375</LongitudeDegrees>
            </Position>
            <AltitudeMeters>19.799999237060546875</AltitudeMeters>
            <DistanceMeters>85225.49987407</DistanceMeters>
          </Trackpoint>
          <Trackpoint>
            <Time>2018-04-21T14:17:28.000Z</Time>
            <Position>
              <LatitudeDegrees>43.2853289879858493804931640625</LatitudeDegrees>
              <LongitudeDegrees>-8.30875891260802745819091796875</LongitudeDegrees>
            </Position>
            <AltitudeMeters>19.6000003814697265625</AltitudeMeters>
            <DistanceMeters>85237.609723014</DistanceMeters>
          </Trackpoint>
          <Trackpoint>
            <Time>2018-04-21T14:17:30.000Z</Time>
            <Position>
              <LatitudeDegrees>43.28542579896748065948486328125</LatitudeDegrees>
              <LongitudeDegrees>-8.30883803777396678924560546875</LongitudeDegrees>
            </Position>
            <AltitudeMeters>19.3999996185302734375</AltitudeMeters>
            <DistanceMeters>85250.147488793</DistanceMeters>
          </Trackpoint>
          <Trackpoint>
            <Time>2018-04-21T14:17:31.000Z</Time>
            <Position>
              <LatitudeDegrees>43.28547609038650989532470703125</LatitudeDegrees>
              <LongitudeDegrees>-8.3088719844818115234375</LongitudeDegrees>
            </Position>
            <AltitudeMeters>19.3999996185302734375</AltitudeMeters>
            <DistanceMeters>85256.384601051</DistanceMeters>
          </Trackpoint>
          <Trackpoint>
            <Time>2018-04-21T14:17:33.000Z</Time>
            <Position>
              <LatitudeDegrees>43.2855874858796596527099609375</LatitudeDegrees>
              <LongitudeDegrees>-8.308940045535564422607421875</LongitudeDegrees>
            </Position>
            <AltitudeMeters>19.6000003814697265625</AltitudeMeters>
            <DistanceMeters>85269.9544691</DistanceMeters>
          </Trackpoint>
          <Trackpoint>
            <Time>2018-04-21T14:17:35.000Z</Time>
            <Position>
              <LatitudeDegrees>43.28570206649601459503173828125</LatitudeDegrees>
              <LongitudeDegrees>-8.30901137553155422210693359375</LongitudeDegrees>
            </Position>
            <AltitudeMeters>19</AltitudeMeters>
            <DistanceMeters>85283.956003287</DistanceMeters>
          </Trackpoint>
          <Trackpoint>
            <Time>2018-04-21T14:17:40.000Z</Time>
            <Position>
              <LatitudeDegrees>43.2860015518963336944580078125</LatitudeDegrees>
              <LongitudeDegrees>-8.3092205040156841278076171875</LongitudeDegrees>
            </Position>
            <AltitudeMeters>19.799999237060546875</AltitudeMeters>
            <DistanceMeters>85321.34850222</DistanceMeters>
          </Trackpoint>
          <Trackpoint>
            <Time>2018-04-21T14:17:41.000Z</Time>
            <Position>
              <LatitudeDegrees>43.28605779446661472320556640625</LatitudeDegrees>
              <LongitudeDegrees>-8.30927171744406223297119140625</LongitudeDegrees>
            </Position>
            <AltitudeMeters>20</AltitudeMeters>
            <DistanceMeters>85328.858619227</DistanceMeters>
          </Trackpoint>
          <Trackpoint>
            <Time>2018-04-21T14:17:44.000Z</Time>
            <Position>
              <LatitudeDegrees>43.2862057350575923919677734375</LatitudeDegrees>
              <LongitudeDegrees>-8.30943935550749301910400390625</LongitudeDegrees>
            </Position>
            <AltitudeMeters>19.799999237060546875</AltitudeMeters>
            <DistanceMeters>85350.203489264</DistanceMeters>
          </Trackpoint>
          <Trackpoint>
            <Time>2018-04-21T14:17:45.000Z</Time>
            <Position>
              <LatitudeDegrees>43.28624345362186431884765625</LatitudeDegrees>
              <LongitudeDegrees>-8.30950657837092876434326171875</LongitudeDegrees>
            </Position>
            <AltitudeMeters>19.799999237060546875</AltitudeMeters>
            <DistanceMeters>85357.080298869</DistanceMeters>
          </Trackpoint>
          <Trackpoint>
            <Time>2018-04-21T14:17:48.000Z</Time>
            <Position>
              <LatitudeDegrees>43.2863152027130126953125</LatitudeDegrees>
              <LongitudeDegrees>-8.30974328331649303436279296875</LongitudeDegrees>
            </Position>
            <AltitudeMeters>19.6000003814697265625</AltitudeMeters>
            <DistanceMeters>85377.854451401</DistanceMeters>
          </Trackpoint>
          <Trackpoint>
            <Time>2018-04-21T14:17:49.000Z</Time>
            <Position>
              <LatitudeDegrees>43.28633003868162631988525390625</LatitudeDegrees>
              <LongitudeDegrees>-8.30982827581465244293212890625</LongitudeDegrees>
            </Position>
            <AltitudeMeters>19.6000003814697265625</AltitudeMeters>
            <DistanceMeters>85384.935695253</DistanceMeters>
          </Trackpoint>
          <Trackpoint>
            <Time>2018-04-21T14:17:55.000Z</Time>
            <Position>
              <LatitudeDegrees>43.2863763906061649322509765625</LatitudeDegrees>
              <LongitudeDegrees>-8.31034812144935131072998046875</LongitudeDegrees>
            </Position>
            <AltitudeMeters>19.6000003814697265625</AltitudeMeters>
            <DistanceMeters>85427.368820906</DistanceMeters>
          </Trackpoint>
          <Trackpoint>
            <Time>2018-04-21T14:18:00.000Z</Time>
            <Position>
              <LatitudeDegrees>43.28646146692335605621337890625</LatitudeDegrees>
              <LongitudeDegrees>-8.31074072979390621185302734375</LongitudeDegrees>
            </Position>
            <AltitudeMeters>19.6000003814697265625</AltitudeMeters>
            <DistanceMeters>85460.557776671</DistanceMeters>
          </Trackpoint>
          <Trackpoint>
            <Time>2018-04-21T14:18:08.000Z</Time>
            <Position>
              <LatitudeDegrees>43.28667889349162578582763671875</LatitudeDegrees>
              <LongitudeDegrees>-8.3113642595708370208740234375</LongitudeDegrees>
            </Position>
            <AltitudeMeters>19.799999237060546875</AltitudeMeters>
            <DistanceMeters>85516.573586607</DistanceMeters>
          </Trackpoint>
          <Trackpoint>
            <Time>2018-04-21T14:18:13.000Z</Time>
            <Position>
              <LatitudeDegrees>43.28685005195438861846923828125</LatitudeDegrees>
              <LongitudeDegrees>-8.311721496284008026123046875</LongitudeDegrees>
            </Position>
            <AltitudeMeters>19.3999996185302734375</AltitudeMeters>
            <DistanceMeters>85551.223824182</DistanceMeters>
          </Trackpoint>
          <Trackpoint>
            <Time>2018-04-21T14:18:18.000Z</Time>
            <Position>
              <LatitudeDegrees>43.28710620291531085968017578125</LatitudeDegrees>
              <LongitudeDegrees>-8.31201913766562938690185546875</LongitudeDegrees>
            </Position>
            <AltitudeMeters>19.200000762939453125</AltitudeMeters>
            <DistanceMeters>85588.564849394</DistanceMeters>
          </Trackpoint>
          <Trackpoint>
            <Time>2018-04-21T14:18:19.000Z</Time>
            <Position>
              <LatitudeDegrees>43.28715699724853038787841796875</LatitudeDegrees>
              <LongitudeDegrees>-8.31207646988332271575927734375</LongitudeDegrees>
            </Position>
            <AltitudeMeters>18.799999237060546875</AltitudeMeters>
            <DistanceMeters>85595.881289318</DistanceMeters>
          </Trackpoint>
          <Trackpoint>
            <Time>2018-04-21T14:18:24.000Z</Time>
            <Position>
              <LatitudeDegrees>43.2874310016632080078125</LatitudeDegrees>
              <LongitudeDegrees>-8.312293477356433868408203125</LongitudeDegrees>
            </Position>
            <AltitudeMeters>18.3999996185302734375</AltitudeMeters>
            <DistanceMeters>85631.083653166</DistanceMeters>
          </Trackpoint>
          <Trackpoint>
            <Time>2018-04-21T14:18:29.000Z</Time>
            <Position>
              <LatitudeDegrees>43.28764515928924083709716796875</LatitudeDegrees>
              <LongitudeDegrees>-8.3124002628028392791748046875</LongitudeDegrees>
            </Position>
            <AltitudeMeters>18</AltitudeMeters>
            <DistanceMeters>85656.441189587</DistanceMeters>
          </Trackpoint>
          <Trackpoint>
            <Time>2018-04-21T14:18:34.000Z</Time>
            <Position>
              <LatitudeDegrees>43.28782604075968265533447265625</LatitudeDegrees>
              <LongitudeDegrees>-8.312528170645236968994140625</LongitudeDegrees>
            </Position>
            <AltitudeMeters>18.3999996185302734375</AltitudeMeters>
            <DistanceMeters>85679.083884218</DistanceMeters>
          </Trackpoint>
          <Trackpoint>
            <Time>2018-04-21T14:18:40.000Z</Time>
            <Position>
              <LatitudeDegrees>43.28809577040374279022216796875</LatitudeDegrees>
              <LongitudeDegrees>-8.31280066631734371185302734375</LongitudeDegrees>
            </Position>
            <AltitudeMeters>18.6000003814697265625</AltitudeMeters>
            <DistanceMeters>85716.349140638</DistanceMeters>
          </Trackpoint>
          <Trackpoint>
            <Time>2018-04-21T14:18:44.000Z</Time>
            <Position>
              <LatitudeDegrees>43.2883102633059024810791015625</LatitudeDegrees>
              <LongitudeDegrees>-8.3129494450986385345458984375</LongitudeDegrees>
            </Position>
            <AltitudeMeters>18.3999996185302734375</AltitudeMeters>
            <DistanceMeters>85743.093041528</DistanceMeters>
          </Trackpoint>
          <Trackpoint>
            <Time>2018-04-21T14:18:46.000Z</Time>
            <Position>
              <LatitudeDegrees>43.2884202338755130767822265625</LatitudeDegrees>
              <LongitudeDegrees>-8.31300501711666584014892578125</LongitudeDegrees>
            </Position>
            <AltitudeMeters>18.3999996185302734375</AltitudeMeters>
            <DistanceMeters>85756.134917156</DistanceMeters>
          </Trackpoint>
          <Trackpoint>
            <Time>2018-04-21T14:18:52.000Z</Time>
            <Position>
              <LatitudeDegrees>43.288694657385349273681640625</LatitudeDegrees>
              <LongitudeDegrees>-8.3131304942071437835693359375</LongitudeDegrees>
            </Position>
            <AltitudeMeters>18.799999237060546875</AltitudeMeters>
            <DistanceMeters>85788.326119565</DistanceMeters>
          </Trackpoint>
          <Trackpoint>
            <Time>2018-04-21T14:18:57.000Z</Time>
            <Position>
              <LatitudeDegrees>43.28881242312490940093994140625</LatitudeDegrees>
              <LongitudeDegrees>-8.3132096193730831146240234375</LongitudeDegrees>
            </Position>
            <AltitudeMeters>20</AltitudeMeters>
            <DistanceMeters>85802.917285123</DistanceMeters>
          </Trackpoint>
          <Trackpoint>
            <Time>2018-04-21T14:19:01.000Z</Time>
            <Position>
              <LatitudeDegrees>43.28887939453125</LatitudeDegrees>
              <LongitudeDegrees>-8.3132817037403583526611328125</LongitudeDegrees>
            </Position>
            <AltitudeMeters>21</AltitudeMeters>
            <DistanceMeters>85812.386638801</DistanceMeters>
          </Trackpoint>
          <Trackpoint>
            <Time>2018-04-21T14:19:04.000Z</Time>
            <Position>
              <LatitudeDegrees>43.28892842866480350494384765625</LatitudeDegrees>
              <LongitudeDegrees>-8.31337180919945240020751953125</LongitudeDegrees>
            </Position>
            <AltitudeMeters>21.3999996185302734375</AltitudeMeters>
            <DistanceMeters>85821.501281048</DistanceMeters>
          </Trackpoint>
          <Trackpoint>
            <Time>2018-04-21T14:19:07.000Z</Time>
            <Position>
              <LatitudeDegrees>43.288950137794017791748046875</LatitudeDegrees>
              <LongitudeDegrees>-8.31354103982448577880859375</LongitudeDegrees>
            </Position>
            <AltitudeMeters>21.200000762939453125</AltitudeMeters>
            <DistanceMeters>85835.423262257</DistanceMeters>
          </Trackpoint>
          <Trackpoint>
            <Time>2018-04-21T14:19:08.000Z</Time>
            <Position>
              <LatitudeDegrees>43.28895055688917636871337890625</LatitudeDegrees>
              <LongitudeDegrees>-8.3136106096208095550537109375</LongitudeDegrees>
            </Position>
            <AltitudeMeters>21</AltitudeMeters>
            <DistanceMeters>85841.059556157</DistanceMeters>
          </Trackpoint>
          <Trackpoint>
            <Time>2018-04-21T14:19:10.000Z</Time>
            <Position>
              <LatitudeDegrees>43.28894133679568767547607421875</LatitudeDegrees>
              <LongitudeDegrees>-8.3137567900121212005615234375</LongitudeDegrees>
            </Position>
            <AltitudeMeters>20.799999237060546875</AltitudeMeters>
            <DistanceMeters>85852.946634696</DistanceMeters>
          </Trackpoint>
          <Trackpoint>
            <Time>2018-04-21T14:19:12.000Z</Time>
            <Position>
              <LatitudeDegrees>43.28887595795094966888427734375</LatitudeDegrees>
              <LongitudeDegrees>-8.313901461660861968994140625</LongitudeDegrees>
            </Position>
            <AltitudeMeters>20.6000003814697265625</AltitudeMeters>
            <DistanceMeters>85866.74253703</DistanceMeters>
          </Trackpoint>
          <Trackpoint>
            <Time>2018-04-21T14:19:14.000Z</Time>
            <Position>
              <LatitudeDegrees>43.28878979198634624481201171875</LatitudeDegrees>
              <LongitudeDegrees>-8.31403934396803379058837890625</LongitudeDegrees>
            </Position>
            <AltitudeMeters>20</AltitudeMeters>
            <DistanceMeters>85881.465239057</DistanceMeters>
          </Trackpoint>
          <Trackpoint>
            <Time>2018-04-21T14:19:17.000Z</Time>
            <Position>
              <LatitudeDegrees>43.2886696793138980865478515625</LatitudeDegrees>
              <LongitudeDegrees>-8.3142610453069210052490234375</LongitudeDegrees>
            </Position>
            <AltitudeMeters>19.6000003814697265625</AltitudeMeters>
            <DistanceMeters>85903.856081921</DistanceMeters>
          </Trackpoint>
          <Trackpoint>
            <Time>2018-04-21T14:19:21.000Z</Time>
            <Position>
              <LatitudeDegrees>43.288521654903888702392578125</LatitudeDegrees>
              <LongitudeDegrees>-8.3144930563867092132568359375</LongitudeDegrees>
            </Position>
            <AltitudeMeters>19.6000003814697265625</AltitudeMeters>
            <DistanceMeters>85928.851359454</DistanceMeters>
          </Trackpoint>
          <Trackpoint>
            <Time>2018-04-21T14:19:22.000Z</Time>
            <Position>
              <LatitudeDegrees>43.28848552890121936798095703125</LatitudeDegrees>
              <LongitudeDegrees>-8.3145255781710147857666015625</LongitudeDegrees>
            </Position>
            <AltitudeMeters>19.6000003814697265625</AltitudeMeters>
            <DistanceMeters>85933.659373149</DistanceMeters>
          </Trackpoint>
          <Trackpoint>
            <Time>2018-04-21T14:19:25.000Z</Time>
            <Position>
              <LatitudeDegrees>43.2883860357105731964111328125</LatitudeDegrees>
              <LongitudeDegrees>-8.31466899253427982330322265625</LongitudeDegrees>
            </Position>
            <AltitudeMeters>18.799999237060546875</AltitudeMeters>
            <DistanceMeters>85949.710170044</DistanceMeters>
          </Trackpoint>
          <Trackpoint>
            <Time>2018-04-21T14:19:26.000Z</Time>
            <Position>
              <LatitudeDegrees>43.2883551903069019317626953125</LatitudeDegrees>
              <LongitudeDegrees>-8.3147254027426242828369140625</LongitudeDegrees>
            </Position>
            <AltitudeMeters>18.3999996185302734375</AltitudeMeters>
            <DistanceMeters>85955.426799002</DistanceMeters>
          </Trackpoint>
          <Trackpoint>
            <Time>2018-04-21T14:19:32.000Z</Time>
            <Position>
              <LatitudeDegrees>43.28816902823746204376220703125</LatitudeDegrees>
              <LongitudeDegrees>-8.315143324434757232666015625</LongitudeDegrees>
            </Position>
            <AltitudeMeters>18</AltitudeMeters>
            <DistanceMeters>85995.122836962</DistanceMeters>
          </Trackpoint>
          <Trackpoint>
            <Time>2018-04-21T14:19:33.000Z</Time>
            <Position>
              <LatitudeDegrees>43.288136087357997894287109375</LatitudeDegrees>
              <LongitudeDegrees>-8.31522789783775806427001953125</LongitudeDegrees>
            </Position>
            <AltitudeMeters>17.6000003814697265625</AltitudeMeters>
            <DistanceMeters>86002.894140022</DistanceMeters>
          </Trackpoint>
          <Trackpoint>
            <Time>2018-04-21T14:19:35.000Z</Time>
            <Position>
              <LatitudeDegrees>43.28806869685649871826171875</LatitudeDegrees>
              <LongitudeDegrees>-8.315388746559619903564453125</LongitudeDegrees>
            </Position>
            <AltitudeMeters>17.3999996185302734375</AltitudeMeters>
            <DistanceMeters>86017.930597518</DistanceMeters>
          </Trackpoint>
          <Trackpoint>
            <Time>2018-04-21T14:19:38.000Z</Time>
            <Position>
              <LatitudeDegrees>43.28796601854264736175537109375</LatitudeDegrees>
              <LongitudeDegrees>-8.315589912235736846923828125</LongitudeDegrees>
            </Position>
            <AltitudeMeters>17.200000762939453125</AltitudeMeters>
            <DistanceMeters>86037.836369403</DistanceMeters>
          </Trackpoint>
          <Trackpoint>
            <Time>2018-04-21T14:19:41.000Z</Time>
            <Position>
              <LatitudeDegrees>43.2879464887082576751708984375</LatitudeDegrees>
              <LongitudeDegrees>-8.315826617181301116943359375</LongitudeDegrees>
            </Position>
            <AltitudeMeters>16.6000003814697265625</AltitudeMeters>
            <DistanceMeters>86057.136620267</DistanceMeters>
          </Trackpoint>
          <Trackpoint>
            <Time>2018-04-21T14:19:44.000Z</Time>
            <Position>
              <LatitudeDegrees>43.28800968825817108154296875</LatitudeDegrees>
              <LongitudeDegrees>-8.316018395125865936279296875</LongitudeDegrees>
            </Position>
            <AltitudeMeters>17.200000762939453125</AltitudeMeters>
            <DistanceMeters>86074.192525773</DistanceMeters>
          </Trackpoint>
          <Trackpoint>
            <Time>2018-04-21T14:19:48.000Z</Time>
            <Position>
              <LatitudeDegrees>43.28800834715366363525390625</LatitudeDegrees>
              <LongitudeDegrees>-8.3162576146423816680908203125</LongitudeDegrees>
            </Position>
            <AltitudeMeters>17</AltitudeMeters>
            <DistanceMeters>86093.57448156</DistanceMeters>
          </Trackpoint>
          <Trackpoint>
            <Time>2018-04-21T14:19:50.000Z</Time>
            <Position>
              <LatitudeDegrees>43.28797205351293087005615234375</LatitudeDegrees>
              <LongitudeDegrees>-8.3163679204881191253662109375</LongitudeDegrees>
            </Position>
            <AltitudeMeters>17</AltitudeMeters>
            <DistanceMeters>86103.381588382</DistanceMeters>
          </Trackpoint>
          <Trackpoint>
            <Time>2018-04-21T14:19:52.000Z</Time>
            <Position>
              <LatitudeDegrees>43.2878936827182769775390625</LatitudeDegrees>
              <LongitudeDegrees>-8.3164265938103199005126953125</LongitudeDegrees>
            </Position>
            <AltitudeMeters>16.799999237060546875</AltitudeMeters>
            <DistanceMeters>86113.315403126</DistanceMeters>
          </Trackpoint>
          <Trackpoint>
            <Time>2018-04-21T14:19:55.000Z</Time>
            <Position>
              <LatitudeDegrees>43.2877528667449951171875</LatitudeDegrees>
              <LongitudeDegrees>-8.31643707118928432464599609375</LongitudeDegrees>
            </Position>
            <AltitudeMeters>16.6000003814697265625</AltitudeMeters>
            <DistanceMeters>86129.011791427</DistanceMeters>
          </Trackpoint>
          <Trackpoint>
            <Time>2018-04-21T14:19:59.000Z</Time>
            <Position>
              <LatitudeDegrees>43.2875449955463409423828125</LatitudeDegrees>
              <LongitudeDegrees>-8.3165576867759227752685546875</LongitudeDegrees>
            </Position>
            <AltitudeMeters>16.3999996185302734375</AltitudeMeters>
            <DistanceMeters>86154.127263948</DistanceMeters>
          </Trackpoint>
          <Trackpoint>
            <Time>2018-04-21T14:20:03.000Z</Time>
            <Position>
              <LatitudeDegrees>43.287449441850185394287109375</LatitudeDegrees>
              <LongitudeDegrees>-8.3168131671845912933349609375</LongitudeDegrees>
            </Position>
            <AltitudeMeters>16.200000762939453125</AltitudeMeters>
            <DistanceMeters>86177.398528299</DistanceMeters>
          </Trackpoint>
          <Trackpoint>
            <Time>2018-04-21T14:20:11.000Z</Time>
            <Position>
              <LatitudeDegrees>43.28726135194301605224609375</LatitudeDegrees>
              <LongitudeDegrees>-8.31738405860960483551025390625</LongitudeDegrees>
            </Position>
            <AltitudeMeters>16.200000762939453125</AltitudeMeters>
            <DistanceMeters>86228.168857142</DistanceMeters>
          </Trackpoint>
          <Trackpoint>
            <Time>2018-04-21T14:20:19.000Z</Time>
            <Position>
              <LatitudeDegrees>43.28707066364586353302001953125</LatitudeDegrees>
              <LongitudeDegrees>-8.31793860532343387603759765625</LongitudeDegrees>
            </Position>
            <AltitudeMeters>15.80000019073486328125</AltitudeMeters>
            <DistanceMeters>86277.858834019</DistanceMeters>
          </Trackpoint>
          <Trackpoint>
            <Time>2018-04-21T14:20:22.000Z</Time>
            <Position>
              <LatitudeDegrees>43.28700721263885498046875</LatitudeDegrees>
              <LongitudeDegrees>-8.3181626535952091217041015625</LongitudeDegrees>
            </Position>
            <AltitudeMeters>16</AltitudeMeters>
            <DistanceMeters>86297.336528997</DistanceMeters>
          </Trackpoint>
          <Trackpoint>
            <Time>2018-04-21T14:20:26.000Z</Time>
            <Position>
              <LatitudeDegrees>43.2869339548051357269287109375</LatitudeDegrees>
              <LongitudeDegrees>-8.3184925653040409088134765625</LongitudeDegrees>
            </Position>
            <AltitudeMeters>16.200000762939453125</AltitudeMeters>
            <DistanceMeters>86325.281816096</DistanceMeters>
          </Trackpoint>
          <Trackpoint>
            <Time>2018-04-21T14:20:30.000Z</Time>
            <Position>
              <LatitudeDegrees>43.28689833171665668487548828125</LatitudeDegrees>
              <LongitudeDegrees>-8.318837396800518035888671875</LongitudeDegrees>
            </Position>
            <AltitudeMeters>15.80000019073486328125</AltitudeMeters>
            <DistanceMeters>86353.499950526</DistanceMeters>
          </Trackpoint>
          <Trackpoint>
            <Time>2018-04-21T14:20:32.000Z</Time>
            <Position>
              <LatitudeDegrees>43.28689196147024631500244140625</LatitudeDegrees>
              <LongitudeDegrees>-8.3190120756626129150390625</LongitudeDegrees>
            </Position>
            <AltitudeMeters>15.80000019073486328125</AltitudeMeters>
            <DistanceMeters>86367.670724675</DistanceMeters>
          </Trackpoint>
          <Trackpoint>
            <Time>2018-04-21T14:20:38.000Z</Time>
            <Position>
              <LatitudeDegrees>43.28693387098610401153564453125</LatitudeDegrees>
              <LongitudeDegrees>-8.31952462904155254364013671875</LongitudeDegrees>
            </Position>
            <AltitudeMeters>16.3999996185302734375</AltitudeMeters>
            <DistanceMeters>86409.458931658</DistanceMeters>
          </Trackpoint>
          <Trackpoint>
            <Time>2018-04-21T14:20:45.000Z</Time>
            <Position>
              <LatitudeDegrees>43.28707887791097164154052734375</LatitudeDegrees>
              <LongitudeDegrees>-8.32010918296873569488525390625</LongitudeDegrees>
            </Position>
            <AltitudeMeters>16.6000003814697265625</AltitudeMeters>
            <DistanceMeters>86459.493993599</DistanceMeters>
          </Trackpoint>
          <Trackpoint>
            <Time>2018-04-21T14:20:54.000Z</Time>
            <Position>
              <LatitudeDegrees>43.2872982323169708251953125</LatitudeDegrees>
              <LongitudeDegrees>-8.3208331279456615447998046875</LongitudeDegrees>
            </Position>
            <AltitudeMeters>16.3999996185302734375</AltitudeMeters>
            <DistanceMeters>86523.026086115</DistanceMeters>
          </Trackpoint>
          <Trackpoint>
            <Time>2018-04-21T14:21:00.000Z</Time>
            <Position>
              <LatitudeDegrees>43.28738314099609851837158203125</LatitudeDegrees>
              <LongitudeDegrees>-8.32132992334663867950439453125</LongitudeDegrees>
            </Position>
            <AltitudeMeters>16.200000762939453125</AltitudeMeters>
            <DistanceMeters>86564.370788808</DistanceMeters>
          </Trackpoint>
          <Trackpoint>
            <Time>2018-04-21T14:21:02.000Z</Time>
            <Position>
              <LatitudeDegrees>43.28737710602581501007080078125</LatitudeDegrees>
              <LongitudeDegrees>-8.32151164300739765167236328125</LongitudeDegrees>
            </Position>
            <AltitudeMeters>16.200000762939453125</AltitudeMeters>
            <DistanceMeters>86579.10881645</DistanceMeters>
          </Trackpoint>
          <Trackpoint>
            <Time>2018-04-21T14:21:05.000Z</Time>
            <Position>
              <LatitudeDegrees>43.2873382978141307830810546875</LatitudeDegrees>
              <LongitudeDegrees>-8.3217613399028778076171875</LongitudeDegrees>
            </Position>
            <AltitudeMeters>16.200000762939453125</AltitudeMeters>
            <DistanceMeters>86599.794977586</DistanceMeters>
          </Trackpoint>
          <Trackpoint>
            <Time>2018-04-21T14:21:06.000Z</Time>
            <Position>
              <LatitudeDegrees>43.28732974827289581298828125</LatitudeDegrees>
              <LongitudeDegrees>-8.3218470029532909393310546875</LongitudeDegrees>
            </Position>
            <AltitudeMeters>16.3999996185302734375</AltitudeMeters>
            <DistanceMeters>86606.799935501</DistanceMeters>
          </Trackpoint>
          <Trackpoint>
            <Time>2018-04-21T14:21:09.000Z</Time>
            <Position>
              <LatitudeDegrees>43.2873342745006084442138671875</LatitudeDegrees>
              <LongitudeDegrees>-8.3220964483916759490966796875</LongitudeDegrees>
            </Position>
            <AltitudeMeters>16.3999996185302734375</AltitudeMeters>
            <DistanceMeters>86627.016073356</DistanceMeters>
          </Trackpoint>
          <Trackpoint>
            <Time>2018-04-21T14:21:14.000Z</Time>
            <Position>
              <LatitudeDegrees>43.287441395223140716552734375</LatitudeDegrees>
              <LongitudeDegrees>-8.32248595543205738067626953125</LongitudeDegrees>
            </Position>
            <AltitudeMeters>16</AltitudeMeters>
            <DistanceMeters>86660.750958477</DistanceMeters>
          </Trackpoint>
          <Trackpoint>
            <Time>2018-04-21T14:21:16.000Z</Time>
            <Position>
              <LatitudeDegrees>43.28751021064817905426025390625</LatitudeDegrees>
              <LongitudeDegrees>-8.32262442447245121002197265625</LongitudeDegrees>
            </Position>
            <AltitudeMeters>16.200000762939453125</AltitudeMeters>
            <DistanceMeters>86674.335126178</DistanceMeters>
          </Trackpoint>
          <Trackpoint>
            <Time>2018-04-21T14:21:21.000Z</Time>
            <Position>
              <LatitudeDegrees>43.28770265914499759674072265625</LatitudeDegrees>
              <LongitudeDegrees>-8.32295048050582408905029296875</LongitudeDegrees>
            </Position>
            <AltitudeMeters>16.3999996185302734375</AltitudeMeters>
            <DistanceMeters>86708.344867307</DistanceMeters>
          </Trackpoint>
          <Trackpoint>
            <Time>2018-04-21T14:21:25.000Z</Time>
            <Position>
              <LatitudeDegrees>43.28784984536468982696533203125</LatitudeDegrees>
              <LongitudeDegrees>-8.323216103017330169677734375</LongitudeDegrees>
            </Position>
            <AltitudeMeters>16</AltitudeMeters>
            <DistanceMeters>86735.391279871</DistanceMeters>
          </Trackpoint>
          <Trackpoint>
            <Time>2018-04-21T14:21:27.000Z</Time>
            <Position>
              <LatitudeDegrees>43.2879079319536685943603515625</LatitudeDegrees>
              <LongitudeDegrees>-8.323359601199626922607421875</LongitudeDegrees>
            </Position>
            <AltitudeMeters>16.200000762939453125</AltitudeMeters>
            <DistanceMeters>86748.694001701</DistanceMeters>
          </Trackpoint>
          <Trackpoint>
            <Time>2018-04-21T14:21:28.000Z</Time>
            <Position>
              <LatitudeDegrees>43.28792578540742397308349609375</LatitudeDegrees>
              <LongitudeDegrees>-8.3234325237572193145751953125</LongitudeDegrees>
            </Position>
            <AltitudeMeters>16.200000762939453125</AltitudeMeters>
            <DistanceMeters>86754.926769053</DistanceMeters>
          </Trackpoint>
          <Trackpoint>
            <Time>2018-04-21T14:21:32.000Z</Time>
            <Position>
              <LatitudeDegrees>43.28793634660542011260986328125</LatitudeDegrees>
              <LongitudeDegrees>-8.32376067526638507843017578125</LongitudeDegrees>
            </Position>
            <AltitudeMeters>16.200000762939453125</AltitudeMeters>
            <DistanceMeters>86781.539339306</DistanceMeters>
          </Trackpoint>
          <Trackpoint>
            <Time>2018-04-21T14:21:33.000Z</Time>
            <Position>
              <LatitudeDegrees>43.28792519867420196533203125</LatitudeDegrees>
              <LongitudeDegrees>-8.32385002635419368743896484375</LongitudeDegrees>
            </Position>
            <AltitudeMeters>16.200000762939453125</AltitudeMeters>
            <DistanceMeters>86788.88411137</DistanceMeters>
          </Trackpoint>
          <Trackpoint>
            <Time>2018-04-21T14:21:36.000Z</Time>
            <Position>
              <LatitudeDegrees>43.28791321255266666412353515625</LatitudeDegrees>
              <LongitudeDegrees>-8.32410634495317935943603515625</LongitudeDegrees>
            </Position>
            <AltitudeMeters>16</AltitudeMeters>
            <DistanceMeters>86809.69344307</DistanceMeters>
          </Trackpoint>
          <Trackpoint>
            <Time>2018-04-21T14:21:38.000Z</Time>
            <Position>
              <LatitudeDegrees>43.28793399967253208160400390625</LatitudeDegrees>
              <LongitudeDegrees>-8.3242697082459926605224609375</LongitudeDegrees>
            </Position>
            <AltitudeMeters>16.200000762939453125</AltitudeMeters>
            <DistanceMeters>86823.129561865</DistanceMeters>
          </Trackpoint>
          <Trackpoint>
            <Time>2018-04-21T14:21:44.000Z</Time>
            <Position>
              <LatitudeDegrees>43.28803743235766887664794921875</LatitudeDegrees>
              <LongitudeDegrees>-8.32475602626800537109375</LongitudeDegrees>
            </Position>
            <AltitudeMeters>16.200000762939453125</AltitudeMeters>
            <DistanceMeters>86864.177802802</DistanceMeters>
          </Trackpoint>
          <Trackpoint>
            <Time>2018-04-21T14:21:52.000Z</Time>
            <Position>
              <LatitudeDegrees>43.28815394081175327301025390625</LatitudeDegrees>
              <LongitudeDegrees>-8.32541861571371555328369140625</LongitudeDegrees>
            </Position>
            <AltitudeMeters>16</AltitudeMeters>
            <DistanceMeters>86919.40377784</DistanceMeters>
          </Trackpoint>
          <Trackpoint>
            <Time>2018-04-21T14:22:00.000Z</Time>
            <Position>
              <LatitudeDegrees>43.28821579925715923309326171875</LatitudeDegrees>
              <LongitudeDegrees>-8.32607944495975971221923828125</LongitudeDegrees>
            </Position>
            <AltitudeMeters>15.80000019073486328125</AltitudeMeters>
            <DistanceMeters>86973.383886743</DistanceMeters>
          </Trackpoint>
          <Trackpoint>
            <Time>2018-04-21T14:22:03.000Z</Time>
            <Position>
              <LatitudeDegrees>43.28823440708220005035400390625</LatitudeDegrees>
              <LongitudeDegrees>-8.3263023197650909423828125</LongitudeDegrees>
            </Position>
            <AltitudeMeters>16.200000762939453125</AltitudeMeters>
            <DistanceMeters>86991.558848267</DistanceMeters>
          </Trackpoint>
          <Trackpoint>
            <Time>2018-04-21T14:22:06.000Z</Time>
            <Position>
              <LatitudeDegrees>43.28825569711625576019287109375</LatitudeDegrees>
              <LongitudeDegrees>-8.32652485929429531097412109375</LongitudeDegrees>
            </Position>
            <AltitudeMeters>15.6000003814697265625</AltitudeMeters>
            <DistanceMeters>87009.743495621</DistanceMeters>
          </Trackpoint>
          <Trackpoint>
            <Time>2018-04-21T14:22:11.000Z</Time>
            <Position>
              <LatitudeDegrees>43.2882874645292758941650390625</LatitudeDegrees>
              <LongitudeDegrees>-8.32692652009427547454833984375</LongitudeDegrees>
            </Position>
            <AltitudeMeters>16.3999996185302734375</AltitudeMeters>
            <DistanceMeters>87042.476853996</DistanceMeters>
          </Trackpoint>
          <Trackpoint>
            <Time>2018-04-21T14:22:13.000Z</Time>
            <Position>
              <LatitudeDegrees>43.288297690451145172119140625</LatitudeDegrees>
              <LongitudeDegrees>-8.3270910568535327911376953125</LongitudeDegrees>
            </Position>
            <AltitudeMeters>16.200000762939453125</AltitudeMeters>
            <DistanceMeters>87055.856061946</DistanceMeters>
          </Trackpoint>
          <Trackpoint>
            <Time>2018-04-21T14:22:20.000Z</Time>
            <Position>
              <LatitudeDegrees>43.28829224221408367156982421875</LatitudeDegrees>
              <LongitudeDegrees>-8.32768172957003116607666015625</LongitudeDegrees>
            </Position>
            <AltitudeMeters>16</AltitudeMeters>
            <DistanceMeters>87103.715104143</DistanceMeters>
          </Trackpoint>
          <Trackpoint>
            <Time>2018-04-21T14:22:26.000Z</Time>
            <Position>
              <LatitudeDegrees>43.288243375718593597412109375</LatitudeDegrees>
              <LongitudeDegrees>-8.3282058499753475189208984375</LongitudeDegrees>
            </Position>
            <AltitudeMeters>16.3999996185302734375</AltitudeMeters>
            <DistanceMeters>87146.525350871</DistanceMeters>
          </Trackpoint>
          <Trackpoint>
            <Time>2018-04-21T14:22:27.000Z</Time>
            <Position>
              <LatitudeDegrees>43.28824748285114765167236328125</LatitudeDegrees>
              <LongitudeDegrees>-8.32829377613961696624755859375</LongitudeDegrees>
            </Position>
            <AltitudeMeters>16.200000762939453125</AltitudeMeters>
            <DistanceMeters>87153.663748546</DistanceMeters>
          </Trackpoint>
          <Trackpoint>
            <Time>2018-04-21T14:22:31.000Z</Time>
            <Position>
              <LatitudeDegrees>43.28829936683177947998046875</LatitudeDegrees>
              <LongitudeDegrees>-8.328633494675159454345703125</LongitudeDegrees>
            </Position>
            <AltitudeMeters>16</AltitudeMeters>
            <DistanceMeters>87181.786358404</DistanceMeters>
          </Trackpoint>
          <Trackpoint>
            <Time>2018-04-21T14:22:34.000Z</Time>
            <Position>
              <LatitudeDegrees>43.28838075511157512664794921875</LatitudeDegrees>
              <LongitudeDegrees>-8.328868858516216278076171875</LongitudeDegrees>
            </Position>
            <AltitudeMeters>16</AltitudeMeters>
            <DistanceMeters>87202.897265367</DistanceMeters>
          </Trackpoint>
          <Trackpoint>
            <Time>2018-04-21T14:22:36.000Z</Time>
            <Position>
              <LatitudeDegrees>43.28844982199370861053466796875</LatitudeDegrees>
              <LongitudeDegrees>-8.329011686146259307861328125</LongitudeDegrees>
            </Position>
            <AltitudeMeters>16.200000762939453125</AltitudeMeters>
            <DistanceMeters>87216.789378013</DistanceMeters>
          </Trackpoint>
          <Trackpoint>
            <Time>2018-04-21T14:22:37.000Z</Time>
            <Position>
              <LatitudeDegrees>43.288491480052471160888671875</LatitudeDegrees>
              <LongitudeDegrees>-8.32907731644809246063232421875</LongitudeDegrees>
            </Position>
            <AltitudeMeters>15.80000019073486328125</AltitudeMeters>
            <DistanceMeters>87223.844431617</DistanceMeters>
          </Trackpoint>
          <Trackpoint>
            <Time>2018-04-21T14:22:41.000Z</Time>
            <Position>
              <LatitudeDegrees>43.28866439871490001678466796875</LatitudeDegrees>
              <LongitudeDegrees>-8.329315446317195892333984375</LongitudeDegrees>
            </Position>
            <AltitudeMeters>16</AltitudeMeters>
            <DistanceMeters>87251.095734095</DistanceMeters>
          </Trackpoint>
          <Trackpoint>
            <Time>2018-04-21T14:22:47.000Z</Time>
            <Position>
              <LatitudeDegrees>43.2889197953045368194580078125</LatitudeDegrees>
              <LongitudeDegrees>-8.3296643011271953582763671875</LongitudeDegrees>
            </Position>
            <AltitudeMeters>15.3999996185302734375</AltitudeMeters>
            <DistanceMeters>87291.181467005</DistanceMeters>
          </Trackpoint>
          <Trackpoint>
            <Time>2018-04-21T14:22:50.000Z</Time>
            <Position>
              <LatitudeDegrees>43.28902783803641796112060546875</LatitudeDegrees>
              <LongitudeDegrees>-8.32986437715590000152587890625</LongitudeDegrees>
            </Position>
            <AltitudeMeters>15.80000019073486328125</AltitudeMeters>
            <DistanceMeters>87311.364747425</DistanceMeters>
          </Trackpoint>
          <Trackpoint>
            <Time>2018-04-21T14:22:52.000Z</Time>
            <Position>
              <LatitudeDegrees>43.28907259739935398101806640625</LatitudeDegrees>
              <LongitudeDegrees>-8.33000653423368930816650390625</LongitudeDegrees>
            </Position>
            <AltitudeMeters>16</AltitudeMeters>
            <DistanceMeters>87323.912592375</DistanceMeters>
          </Trackpoint>
          <Trackpoint>
            <Time>2018-04-21T14:22:54.000Z</Time>
            <Position>
              <LatitudeDegrees>43.28909439034759998321533203125</LatitudeDegrees>
              <LongitudeDegrees>-8.33013813011348247528076171875</LongitudeDegrees>
            </Position>
            <AltitudeMeters>16</AltitudeMeters>
            <DistanceMeters>87334.846447232</DistanceMeters>
          </Trackpoint>
          <Trackpoint>
            <Time>2018-04-21T14:22:57.000Z</Time>
            <Position>
              <LatitudeDegrees>43.28911970369517803192138671875</LatitudeDegrees>
              <LongitudeDegrees>-8.330322615802288055419921875</LongitudeDegrees>
            </Position>
            <AltitudeMeters>16</AltitudeMeters>
            <DistanceMeters>87350.056065845</DistanceMeters>
          </Trackpoint>
          <Trackpoint>
            <Time>2018-04-21T14:22:59.000Z</Time>
            <Position>
              <LatitudeDegrees>43.28913495875895023345947265625</LatitudeDegrees>
              <LongitudeDegrees>-8.33043870516121387481689453125</LongitudeDegrees>
            </Position>
            <AltitudeMeters>16</AltitudeMeters>
            <DistanceMeters>87359.613693861</DistanceMeters>
          </Trackpoint>
          <Trackpoint>
            <Time>2018-04-21T14:23:01.000Z</Time>
            <Position>
              <LatitudeDegrees>43.2891440950334072113037109375</LatitudeDegrees>
              <LongitudeDegrees>-8.33055286668241024017333984375</LongitudeDegrees>
            </Position>
            <AltitudeMeters>16.3999996185302734375</AltitudeMeters>
            <DistanceMeters>87368.918551353</DistanceMeters>
          </Trackpoint>
          <Trackpoint>
            <Time>2018-04-21T14:23:02.000Z</Time>
            <Position>
              <LatitudeDegrees>43.2891320250928401947021484375</LatitudeDegrees>
              <LongitudeDegrees>-8.3306081034243106842041015625</LongitudeDegrees>
            </Position>
            <AltitudeMeters>16.3999996185302734375</AltitudeMeters>
            <DistanceMeters>87373.591315508</DistanceMeters>
          </Trackpoint>
          <Trackpoint>
            <Time>2018-04-21T14:23:06.000Z</Time>
            <Position>
              <LatitudeDegrees>43.2890274189412593841552734375</LatitudeDegrees>
              <LongitudeDegrees>-8.3307925052940845489501953125</LongitudeDegrees>
            </Position>
            <AltitudeMeters>16</AltitudeMeters>
            <DistanceMeters>87392.53192999</DistanceMeters>
          </Trackpoint>
          <Trackpoint>
            <Time>2018-04-21T14:23:07.000Z</Time>
            <Position>
              <LatitudeDegrees>43.28899062238633632659912109375</LatitudeDegrees>
              <LongitudeDegrees>-8.33083902485668659210205078125</LongitudeDegrees>
            </Position>
            <AltitudeMeters>15.6000003814697265625</AltitudeMeters>
            <DistanceMeters>87398.097283726</DistanceMeters>
          </Trackpoint>
          <Trackpoint>
            <Time>2018-04-21T14:23:10.000Z</Time>
            <Position>
              <LatitudeDegrees>43.28884863294661045074462890625</LatitudeDegrees>
              <LongitudeDegrees>-8.330963663756847381591796875</LongitudeDegrees>
            </Position>
            <AltitudeMeters>15.6000003814697265625</AltitudeMeters>
            <DistanceMeters>87416.851522646</DistanceMeters>
          </Trackpoint>
          <Trackpoint>
            <Time>2018-04-21T14:23:12.000Z</Time>
            <Position>
              <LatitudeDegrees>43.28874134458601474761962890625</LatitudeDegrees>
              <LongitudeDegrees>-8.33102845586836338043212890625</LongitudeDegrees>
            </Position>
            <AltitudeMeters>15.6000003814697265625</AltitudeMeters>
            <DistanceMeters>87429.895475282</DistanceMeters>
          </Trackpoint>
          <Trackpoint>
            <Time>2018-04-21T14:23:14.000Z</Time>
            <Position>
              <LatitudeDegrees>43.28862852416932582855224609375</LatitudeDegrees>
              <LongitudeDegrees>-8.33109232597053050994873046875</LongitudeDegrees>
            </Position>
            <AltitudeMeters>15.3999996185302734375</AltitudeMeters>
            <DistanceMeters>87443.477316158</DistanceMeters>
          </Trackpoint>
          <Trackpoint>
            <Time>2018-04-21T14:23:15.000Z</Time>
            <Position>
              <LatitudeDegrees>43.28857504762709140777587890625</LatitudeDegrees>
              <LongitudeDegrees>-8.3311354927718639373779296875</LongitudeDegrees>
            </Position>
            <AltitudeMeters>15.3999996185302734375</AltitudeMeters>
            <DistanceMeters>87450.380992242</DistanceMeters>
          </Trackpoint>
          <Trackpoint>
            <Time>2018-04-21T14:23:16.000Z</Time>
            <Position>
              <LatitudeDegrees>43.2885258458554744720458984375</LatitudeDegrees>
              <LongitudeDegrees>-8.3311857841908931732177734375</LongitudeDegrees>
            </Position>
            <AltitudeMeters>15.19999980926513671875</AltitudeMeters>
            <DistanceMeters>87457.207059518</DistanceMeters>
          </Trackpoint>
          <Trackpoint>
            <Time>2018-04-21T14:23:19.000Z</Time>
            <Position>
              <LatitudeDegrees>43.288415707647800445556640625</LatitudeDegrees>
              <LongitudeDegrees>-8.33138418383896350860595703125</LongitudeDegrees>
            </Position>
            <AltitudeMeters>15.3999996185302734375</AltitudeMeters>
            <DistanceMeters>87477.42208065</DistanceMeters>
          </Trackpoint>
          <Trackpoint>
            <Time>2018-04-21T14:23:20.000Z</Time>
            <Position>
              <LatitudeDegrees>43.2883836887776851654052734375</LatitudeDegrees>
              <LongitudeDegrees>-8.3314546756446361541748046875</LongitudeDegrees>
            </Position>
            <AltitudeMeters>15.3999996185302734375</AltitudeMeters>
            <DistanceMeters>87484.153568123</DistanceMeters>
          </Trackpoint>
          <Trackpoint>
            <Time>2018-04-21T14:23:28.000Z</Time>
            <Position>
              <LatitudeDegrees>43.28812368214130401611328125</LatitudeDegrees>
              <LongitudeDegrees>-8.331992961466312408447265625</LongitudeDegrees>
            </Position>
            <AltitudeMeters>14.80000019073486328125</AltitudeMeters>
            <DistanceMeters>87536.492846971</DistanceMeters>
          </Trackpoint>
          <Trackpoint>
            <Time>2018-04-21T14:23:35.000Z</Time>
            <Position>
              <LatitudeDegrees>43.287894688546657562255859375</LatitudeDegrees>
              <LongitudeDegrees>-8.33240426145493984222412109375</LongitudeDegrees>
            </Position>
            <AltitudeMeters>14.3999996185302734375</AltitudeMeters>
            <DistanceMeters>87578.445607781</DistanceMeters>
          </Trackpoint>
          <Trackpoint>
            <Time>2018-04-21T14:23:36.000Z</Time>
            <Position>
              <LatitudeDegrees>43.2878673635423183441162109375</LatitudeDegrees>
              <LongitudeDegrees>-8.3324517868459224700927734375</LongitudeDegrees>
            </Position>
            <AltitudeMeters>14.80000019073486328125</AltitudeMeters>
            <DistanceMeters>87583.352152777</DistanceMeters>
          </Trackpoint>
          <Trackpoint>
            <Time>2018-04-21T14:23:38.000Z</Time>
            <Position>
              <LatitudeDegrees>43.287798799574375152587890625</LatitudeDegrees>
              <LongitudeDegrees>-8.3325302414596080780029296875</LongitudeDegrees>
            </Position>
            <AltitudeMeters>14.6000003814697265625</AltitudeMeters>
            <DistanceMeters>87593.283694702</DistanceMeters>
          </Trackpoint>
          <Trackpoint>
            <Time>2018-04-21T14:23:40.000Z</Time>
            <Position>
              <LatitudeDegrees>43.28772529028356075286865234375</LatitudeDegrees>
              <LongitudeDegrees>-8.3325728215277194976806640625</LongitudeDegrees>
            </Position>
            <AltitudeMeters>14.19999980926513671875</AltitudeMeters>
            <DistanceMeters>87602.163482284</DistanceMeters>
          </Trackpoint>
          <Trackpoint>
            <Time>2018-04-21T14:23:42.000Z</Time>
            <Position>
              <LatitudeDegrees>43.28764163888990879058837890625</LatitudeDegrees>
              <LongitudeDegrees>-8.33259670995175838470458984375</LongitudeDegrees>
            </Position>
            <AltitudeMeters>14</AltitudeMeters>
            <DistanceMeters>87611.673278054</DistanceMeters>
          </Trackpoint>
          <Trackpoint>
            <Time>2018-04-21T14:23:45.000Z</Time>
            <Position>
              <LatitudeDegrees>43.28750886954367160797119140625</LatitudeDegrees>
              <LongitudeDegrees>-8.33262923173606395721435546875</LongitudeDegrees>
            </Position>
            <AltitudeMeters>14.19999980926513671875</AltitudeMeters>
            <DistanceMeters>87626.683889881</DistanceMeters>
          </Trackpoint>
          <Trackpoint>
            <Time>2018-04-21T14:23:46.000Z</Time>
            <Position>
              <LatitudeDegrees>43.28746427781879901885986328125</LatitudeDegrees>
              <LongitudeDegrees>-8.33263476379215717315673828125</LongitudeDegrees>
            </Position>
            <AltitudeMeters>14.3999996185302734375</AltitudeMeters>
            <DistanceMeters>87631.667132823</DistanceMeters>
          </Trackpoint>
          <Trackpoint>
            <Time>2018-04-21T14:23:53.000Z</Time>
            <Position>
              <LatitudeDegrees>43.28714492730796337127685546875</LatitudeDegrees>
              <LongitudeDegrees>-8.33261498250067234039306640625</LongitudeDegrees>
            </Position>
            <AltitudeMeters>15</AltitudeMeters>
            <DistanceMeters>87667.247753913</DistanceMeters>
          </Trackpoint>
          <Trackpoint>
            <Time>2018-04-21T14:23:58.000Z</Time>
            <Position>
              <LatitudeDegrees>43.28701886348426342010498046875</LatitudeDegrees>
              <LongitudeDegrees>-8.33259955979883670806884765625</LongitudeDegrees>
            </Position>
            <AltitudeMeters>15.19999980926513671875</AltitudeMeters>
            <DistanceMeters>87681.334803283</DistanceMeters>
          </Trackpoint>
          <Trackpoint>
            <Time>2018-04-21T14:24:03.000Z</Time>
            <Position>
              <LatitudeDegrees>43.2869808934628963470458984375</LatitudeDegrees>
              <LongitudeDegrees>-8.33260643295943737030029296875</LongitudeDegrees>
            </Position>
            <AltitudeMeters>15.19999980926513671875</AltitudeMeters>
            <DistanceMeters>87685.597257248</DistanceMeters>
          </Trackpoint>
          <Trackpoint>
            <Time>2018-04-21T14:24:04.000Z</Time>
            <Position>
              <LatitudeDegrees>43.2869668118655681610107421875</LatitudeDegrees>
              <LongitudeDegrees>-8.33259352482855319976806640625</LongitudeDegrees>
            </Position>
            <AltitudeMeters>15.19999980926513671875</AltitudeMeters>
            <DistanceMeters>87687.478690203</DistanceMeters>
          </Trackpoint>
          <Trackpoint>
            <Time>2018-04-21T14:24:06.000Z</Time>
            <Position>
              <LatitudeDegrees>43.28690864145755767822265625</LatitudeDegrees>
              <LongitudeDegrees>-8.33254189230501651763916015625</LongitudeDegrees>
            </Position>
            <AltitudeMeters>15.19999980926513671875</AltitudeMeters>
            <DistanceMeters>87695.186991119</DistanceMeters>
          </Trackpoint>
          <Trackpoint>
            <Time>2018-04-21T14:24:10.000Z</Time>
            <Position>
              <LatitudeDegrees>43.2867126725614070892333984375</LatitudeDegrees>
              <LongitudeDegrees>-8.3323797024786472320556640625</LongitudeDegrees>
            </Position>
            <AltitudeMeters>14.19999980926513671875</AltitudeMeters>
            <DistanceMeters>87720.651313793</DistanceMeters>
          </Trackpoint>
          <Trackpoint>
            <Time>2018-04-21T14:24:13.000Z</Time>
            <Position>
              <LatitudeDegrees>43.2865151949226856231689453125</LatitudeDegrees>
              <LongitudeDegrees>-8.3323693089187145233154296875</LongitudeDegrees>
            </Position>
            <AltitudeMeters>13.6000003814697265625</AltitudeMeters>
            <DistanceMeters>87742.647073287</DistanceMeters>
          </Trackpoint>
          <Trackpoint>
            <Time>2018-04-21T14:24:17.000Z</Time>
            <Position>
              <LatitudeDegrees>43.28632635064423084259033203125</LatitudeDegrees>
              <LongitudeDegrees>-8.332382552325725555419921875</LongitudeDegrees>
            </Position>
            <AltitudeMeters>14</AltitudeMeters>
            <DistanceMeters>87763.693506235</DistanceMeters>
          </Trackpoint>
          <Trackpoint>
            <Time>2018-04-21T14:24:18.000Z</Time>
            <Position>
              <LatitudeDegrees>43.28627756796777248382568359375</LatitudeDegrees>
              <LongitudeDegrees>-8.33239428699016571044921875</LongitudeDegrees>
            </Position>
            <AltitudeMeters>14.19999980926513671875</AltitudeMeters>
            <DistanceMeters>87769.206693816</DistanceMeters>
          </Trackpoint>
          <Trackpoint>
            <Time>2018-04-21T14:24:22.000Z</Time>
            <Position>
              <LatitudeDegrees>43.286071121692657470703125</LatitudeDegrees>
              <LongitudeDegrees>-8.33245933055877685546875</LongitudeDegrees>
            </Position>
            <AltitudeMeters>14.6000003814697265625</AltitudeMeters>
            <DistanceMeters>87792.781364224</DistanceMeters>
          </Trackpoint>
          <Trackpoint>
            <Time>2018-04-21T14:24:24.000Z</Time>
            <Position>
              <LatitudeDegrees>43.28596324659883975982666015625</LatitudeDegrees>
              <LongitudeDegrees>-8.332499563694000244140625</LongitudeDegrees>
            </Position>
            <AltitudeMeters>14.6000003814697265625</AltitudeMeters>
            <DistanceMeters>87805.222970647</DistanceMeters>
          </Trackpoint>
          <Trackpoint>
            <Time>2018-04-21T14:24:28.000Z</Time>
            <Position>
              <LatitudeDegrees>43.2857420481741428375244140625</LatitudeDegrees>
              <LongitudeDegrees>-8.3325572311878204345703125</LongitudeDegrees>
            </Position>
            <AltitudeMeters>14.19999980926513671875</AltitudeMeters>
            <DistanceMeters>87830.282291789</DistanceMeters>
          </Trackpoint>
          <Trackpoint>
            <Time>2018-04-21T14:24:31.000Z</Time>
            <Position>
              <LatitudeDegrees>43.28557348810136318206787109375</LatitudeDegrees>
              <LongitudeDegrees>-8.33253510296344757080078125</LongitudeDegrees>
            </Position>
            <AltitudeMeters>14.6000003814697265625</AltitudeMeters>
            <DistanceMeters>87849.128990622</DistanceMeters>
          </Trackpoint>
          <Trackpoint>
            <Time>2018-04-21T14:24:32.000Z</Time>
            <Position>
              <LatitudeDegrees>43.2855147309601306915283203125</LatitudeDegrees>
              <LongitudeDegrees>-8.33251741714775562286376953125</LongitudeDegrees>
            </Position>
            <AltitudeMeters>14.6000003814697265625</AltitudeMeters>
            <DistanceMeters>87855.823486077</DistanceMeters>
          </Trackpoint>
          <Trackpoint>
            <Time>2018-04-21T14:24:38.000Z</Time>
            <Position>
              <LatitudeDegrees>43.28516445122659206390380859375</LatitudeDegrees>
              <LongitudeDegrees>-8.3324179239571094512939453125</LongitudeDegrees>
            </Position>
            <AltitudeMeters>14.6000003814697265625</AltitudeMeters>
            <DistanceMeters>87895.635029848</DistanceMeters>
          </Trackpoint>
          <Trackpoint>
            <Time>2018-04-21T14:24:39.000Z</Time>
            <Position>
              <LatitudeDegrees>43.2851033471524715423583984375</LatitudeDegrees>
              <LongitudeDegrees>-8.33241884596645832061767578125</LongitudeDegrees>
            </Position>
            <AltitudeMeters>14.6000003814697265625</AltitudeMeters>
            <DistanceMeters>87902.437243583</DistanceMeters>
          </Trackpoint>
          <Trackpoint>
            <Time>2018-04-21T14:24:42.000Z</Time>
            <Position>
              <LatitudeDegrees>43.28492590226233005523681640625</LatitudeDegrees>
              <LongitudeDegrees>-8.33248154260218143463134765625</LongitudeDegrees>
            </Position>
            <AltitudeMeters>14.80000019073486328125</AltitudeMeters>
            <DistanceMeters>87922.830162466</DistanceMeters>
          </Trackpoint>
          <Trackpoint>
            <Time>2018-04-21T14:24:46.000Z</Time>
            <Position>
              <LatitudeDegrees>43.28473471105098724365234375</LatitudeDegrees>
              <LongitudeDegrees>-8.332680948078632354736328125</LongitudeDegrees>
            </Position>
            <AltitudeMeters>14.6000003814697265625</AltitudeMeters>
            <DistanceMeters>87949.54822065</DistanceMeters>
          </Trackpoint>
          <Trackpoint>
            <Time>2018-04-21T14:24:50.000Z</Time>
            <Position>
              <LatitudeDegrees>43.28463010489940643310546875</LatitudeDegrees>
              <LongitudeDegrees>-8.3329644240438938140869140625</LongitudeDegrees>
            </Position>
            <AltitudeMeters>14.3999996185302734375</AltitudeMeters>
            <DistanceMeters>87975.298531586</DistanceMeters>
          </Trackpoint>
          <Trackpoint>
            <Time>2018-04-21T14:24:55.000Z</Time>
            <Position>
              <LatitudeDegrees>43.284629099071025848388671875</LatitudeDegrees>
              <LongitudeDegrees>-8.333352841436862945556640625</LongitudeDegrees>
            </Position>
            <AltitudeMeters>14.6000003814697265625</AltitudeMeters>
            <DistanceMeters>88006.769451248</DistanceMeters>
          </Trackpoint>
          <Trackpoint>
            <Time>2018-04-21T14:24:57.000Z</Time>
            <Position>
              <LatitudeDegrees>43.28465801663696765899658203125</LatitudeDegrees>
              <LongitudeDegrees>-8.33350606262683868408203125</LongitudeDegrees>
            </Position>
            <AltitudeMeters>14.3999996185302734375</AltitudeMeters>
            <DistanceMeters>88019.594185644</DistanceMeters>
          </Trackpoint>
          <Trackpoint>
            <Time>2018-04-21T14:25:01.000Z</Time>
            <Position>
              <LatitudeDegrees>43.284736387431621551513671875</LatitudeDegrees>
              <LongitudeDegrees>-8.33381208591163158416748046875</LongitudeDegrees>
            </Position>
            <AltitudeMeters>14.3999996185302734375</AltitudeMeters>
            <DistanceMeters>88045.878650421</DistanceMeters>
          </Trackpoint>
          <Trackpoint>
            <Time>2018-04-21T14:25:07.000Z</Time>
            <Position>
              <LatitudeDegrees>43.2849461026489734649658203125</LatitudeDegrees>
              <LongitudeDegrees>-8.3342253975570201873779296875</LongitudeDegrees>
            </Position>
            <AltitudeMeters>14.3999996185302734375</AltitudeMeters>
            <DistanceMeters>88086.698569893</DistanceMeters>
          </Trackpoint>
          <Trackpoint>
            <Time>2018-04-21T14:25:12.000Z</Time>
            <Position>
              <LatitudeDegrees>43.2851767726242542266845703125</LatitudeDegrees>
              <LongitudeDegrees>-8.33451549522578716278076171875</LongitudeDegrees>
            </Position>
            <AltitudeMeters>14.6000003814697265625</AltitudeMeters>
            <DistanceMeters>88121.506895578</DistanceMeters>
          </Trackpoint>
          <Trackpoint>
            <Time>2018-04-21T14:25:16.000Z</Time>
            <Position>
              <LatitudeDegrees>43.2852817140519618988037109375</LatitudeDegrees>
              <LongitudeDegrees>-8.33481003530323505401611328125</LongitudeDegrees>
            </Position>
            <AltitudeMeters>14</AltitudeMeters>
            <DistanceMeters>88148.075997857</DistanceMeters>
          </Trackpoint>
          <Trackpoint>
            <Time>2018-04-21T14:25:18.000Z</Time>
            <Position>
              <LatitudeDegrees>43.285300992429256439208984375</LatitudeDegrees>
              <LongitudeDegrees>-8.3349680341780185699462890625</LongitudeDegrees>
            </Position>
            <AltitudeMeters>14</AltitudeMeters>
            <DistanceMeters>88161.056104416</DistanceMeters>
          </Trackpoint>
          <Trackpoint>
            <Time>2018-04-21T14:25:20.000Z</Time>
            <Position>
              <LatitudeDegrees>43.28526553697884082794189453125</LatitudeDegrees>
              <LongitudeDegrees>-8.335120417177677154541015625</LongitudeDegrees>
            </Position>
            <AltitudeMeters>14.19999980926513671875</AltitudeMeters>
            <DistanceMeters>88174.018110523</DistanceMeters>
          </Trackpoint>
          <Trackpoint>
            <Time>2018-04-21T14:25:22.000Z</Time>
            <Position>
              <LatitudeDegrees>43.285231254994869232177734375</LatitudeDegrees>
              <LongitudeDegrees>-8.33527808077633380889892578125</LongitudeDegrees>
            </Position>
            <AltitudeMeters>13.80000019073486328125</AltitudeMeters>
            <DistanceMeters>88187.34998941</DistanceMeters>
          </Trackpoint>
          <Trackpoint>
            <Time>2018-04-21T14:25:24.000Z</Time>
            <Position>
              <LatitudeDegrees>43.2852196879684925079345703125</LatitudeDegrees>
              <LongitudeDegrees>-8.33542945794761180877685546875</LongitudeDegrees>
            </Position>
            <AltitudeMeters>14.19999980926513671875</AltitudeMeters>
            <DistanceMeters>88199.682245792</DistanceMeters>
          </Trackpoint>
          <Trackpoint>
            <Time>2018-04-21T14:25:28.000Z</Time>
            <Position>
              <LatitudeDegrees>43.2851174287497997283935546875</LatitudeDegrees>
              <LongitudeDegrees>-8.33568611182272434234619140625</LongitudeDegrees>
            </Position>
            <AltitudeMeters>14</AltitudeMeters>
            <DistanceMeters>88223.387935346</DistanceMeters>
          </Trackpoint>
          <Trackpoint>
            <Time>2018-04-21T14:25:30.000Z</Time>
            <Position>
              <LatitudeDegrees>43.28503034077584743499755859375</LatitudeDegrees>
              <LongitudeDegrees>-8.33578853867948055267333984375</LongitudeDegrees>
            </Position>
            <AltitudeMeters>13.3999996185302734375</AltitudeMeters>
            <DistanceMeters>88236.148434492</DistanceMeters>
          </Trackpoint>
          <Trackpoint>
            <Time>2018-04-21T14:25:32.000Z</Time>
            <Position>
              <LatitudeDegrees>43.28493244014680385589599609375</LatitudeDegrees>
              <LongitudeDegrees>-8.33587755449116230010986328125</LongitudeDegrees>
            </Position>
            <AltitudeMeters>13.80000019073486328125</AltitudeMeters>
            <DistanceMeters>88249.21555795</DistanceMeters>
          </Trackpoint>
          <Trackpoint>
            <Time>2018-04-21T14:25:33.000Z</Time>
            <Position>
              <LatitudeDegrees>43.2848803885281085968017578125</LatitudeDegrees>
              <LongitudeDegrees>-8.33591929636895656585693359375</LongitudeDegrees>
            </Position>
            <AltitudeMeters>13.80000019073486328125</AltitudeMeters>
            <DistanceMeters>88255.922855531</DistanceMeters>
          </Trackpoint>
          <Trackpoint>
            <Time>2018-04-21T14:25:39.000Z</Time>
            <Position>
              <LatitudeDegrees>43.28454804606735706329345703125</LatitudeDegrees>
              <LongitudeDegrees>-8.3361170254647731781005859375</LongitudeDegrees>
            </Position>
            <AltitudeMeters>13.3999996185302734375</AltitudeMeters>
            <DistanceMeters>88296.233452103</DistanceMeters>
          </Trackpoint>
          <Trackpoint>
            <Time>2018-04-21T14:25:43.000Z</Time>
            <Position>
              <LatitudeDegrees>43.2843102514743804931640625</LatitudeDegrees>
              <LongitudeDegrees>-8.33621350117027759552001953125</LongitudeDegrees>
            </Position>
            <AltitudeMeters>13.19999980926513671875</AltitudeMeters>
            <DistanceMeters>88323.830819866</DistanceMeters>
          </Trackpoint>
          <Trackpoint>
            <Time>2018-04-21T14:25:45.000Z</Time>
            <Position>
              <LatitudeDegrees>43.28419818542897701263427734375</LatitudeDegrees>
              <LongitudeDegrees>-8.3362829871475696563720703125</LongitudeDegrees>
            </Position>
            <AltitudeMeters>13.3999996185302734375</AltitudeMeters>
            <DistanceMeters>88337.515986487</DistanceMeters>
          </Trackpoint>
          <Trackpoint>
            <Time>2018-04-21T14:25:46.000Z</Time>
            <Position>
              <LatitudeDegrees>43.2841461338102817535400390625</LatitudeDegrees>
              <LongitudeDegrees>-8.33632615394890308380126953125</LongitudeDegrees>
            </Position>
            <AltitudeMeters>13.6000003814697265625</AltitudeMeters>
            <DistanceMeters>88344.282929493</DistanceMeters>
          </Trackpoint>
          <Trackpoint>
            <Time>2018-04-21T14:25:51.000Z</Time>
            <Position>
              <LatitudeDegrees>43.28391957096755504608154296875</LatitudeDegrees>
              <LongitudeDegrees>-8.33660426549613475799560546875</LongitudeDegrees>
            </Position>
            <AltitudeMeters>13.80000019073486328125</AltitudeMeters>
            <DistanceMeters>88378.100959915</DistanceMeters>
          </Trackpoint>
          <Trackpoint>
            <Time>2018-04-21T14:25:52.000Z</Time>
            <Position>
              <LatitudeDegrees>43.2838829420506954193115234375</LatitudeDegrees>
              <LongitudeDegrees>-8.336670063436031341552734375</LongitudeDegrees>
            </Position>
            <AltitudeMeters>13.80000019073486328125</AltitudeMeters>
            <DistanceMeters>88384.8122952</DistanceMeters>
          </Trackpoint>
          <Trackpoint>
            <Time>2018-04-21T14:26:00.000Z</Time>
            <Position>
              <LatitudeDegrees>43.28362016938626766204833984375</LatitudeDegrees>
              <LongitudeDegrees>-8.33724413998425006866455078125</LongitudeDegrees>
            </Position>
            <AltitudeMeters>13.80000019073486328125</AltitudeMeters>
            <DistanceMeters>88439.757296946</DistanceMeters>
          </Trackpoint>
          <Trackpoint>
            <Time>2018-04-21T14:26:09.000Z</Time>
            <Position>
              <LatitudeDegrees>43.283362090587615966796875</LatitudeDegrees>
              <LongitudeDegrees>-8.337917290627956390380859375</LongitudeDegrees>
            </Position>
            <AltitudeMeters>14</AltitudeMeters>
            <DistanceMeters>88501.400709799</DistanceMeters>
          </Trackpoint>
          <Trackpoint>
            <Time>2018-04-21T14:26:16.000Z</Time>
            <Position>
              <LatitudeDegrees>43.283235691487789154052734375</LatitudeDegrees>
              <LongitudeDegrees>-8.33848851732909679412841796875</LongitudeDegrees>
            </Position>
            <AltitudeMeters>13.19999980926513671875</AltitudeMeters>
            <DistanceMeters>88549.775187884</DistanceMeters>
          </Trackpoint>
          <Trackpoint>
            <Time>2018-04-21T14:26:24.000Z</Time>
            <Position>
              <LatitudeDegrees>43.28311105258762836456298828125</LatitudeDegrees>
              <LongitudeDegrees>-8.33912319503724575042724609375</LongitudeDegrees>
            </Position>
            <AltitudeMeters>12.6000003814697265625</AltitudeMeters>
            <DistanceMeters>88603.038148711</DistanceMeters>
          </Trackpoint>
          <Trackpoint>
            <Time>2018-04-21T14:26:27.000Z</Time>
            <Position>
              <LatitudeDegrees>43.2830683887004852294921875</LatitudeDegrees>
              <LongitudeDegrees>-8.33934783004224300384521484375</LongitudeDegrees>
            </Position>
            <AltitudeMeters>12</AltitudeMeters>
            <DistanceMeters>88621.848638215</DistanceMeters>
          </Trackpoint>
          <Trackpoint>
            <Time>2018-04-21T14:26:32.000Z</Time>
            <Position>
              <LatitudeDegrees>43.282984234392642974853515625</LatitudeDegrees>
              <LongitudeDegrees>-8.33974077366292476654052734375</LongitudeDegrees>
            </Position>
            <AltitudeMeters>12.6000003814697265625</AltitudeMeters>
            <DistanceMeters>88655.036097502</DistanceMeters>
          </Trackpoint>
          <Trackpoint>
            <Time>2018-04-21T14:26:36.000Z</Time>
            <Position>
              <LatitudeDegrees>43.282951377332210540771484375</LatitudeDegrees>
              <LongitudeDegrees>-8.3400647342205047607421875</LongitudeDegrees>
            </Position>
            <AltitudeMeters>12.3999996185302734375</AltitudeMeters>
            <DistanceMeters>88681.538671642</DistanceMeters>
          </Trackpoint>
          <Trackpoint>
            <Time>2018-04-21T14:26:38.000Z</Time>
            <Position>
              <LatitudeDegrees>43.2829548977315425872802734375</LatitudeDegrees>
              <LongitudeDegrees>-8.34022474475204944610595703125</LongitudeDegrees>
            </Position>
            <AltitudeMeters>12.6000003814697265625</AltitudeMeters>
            <DistanceMeters>88694.509731133</DistanceMeters>
          </Trackpoint>
          <Trackpoint>
            <Time>2018-04-21T14:26:43.000Z</Time>
            <Position>
              <LatitudeDegrees>43.283013738691806793212890625</LatitudeDegrees>
              <LongitudeDegrees>-8.340624310076236724853515625</LongitudeDegrees>
            </Position>
            <AltitudeMeters>13</AltitudeMeters>
            <DistanceMeters>88727.540229705</DistanceMeters>
          </Trackpoint>
          <Trackpoint>
            <Time>2018-04-21T14:26:45.000Z</Time>
            <Position>
              <LatitudeDegrees>43.2830491103231906890869140625</LatitudeDegrees>
              <LongitudeDegrees>-8.340779207646846771240234375</LongitudeDegrees>
            </Position>
            <AltitudeMeters>13</AltitudeMeters>
            <DistanceMeters>88740.693794419</DistanceMeters>
          </Trackpoint>
          <Trackpoint>
            <Time>2018-04-21T14:26:54.000Z</Time>
            <Position>
              <LatitudeDegrees>43.28322186134755611419677734375</LatitudeDegrees>
              <LongitudeDegrees>-8.34146275185048580169677734375</LongitudeDegrees>
            </Position>
            <AltitudeMeters>12.6000003814697265625</AltitudeMeters>
            <DistanceMeters>88799.320579566</DistanceMeters>
          </Trackpoint>
          <Trackpoint>
            <Time>2018-04-21T14:27:01.000Z</Time>
            <Position>
              <LatitudeDegrees>43.283311463892459869384765625</LatitudeDegrees>
              <LongitudeDegrees>-8.34199684672057628631591796875</LongitudeDegrees>
            </Position>
            <AltitudeMeters>12.3999996185302734375</AltitudeMeters>
            <DistanceMeters>88843.729685562</DistanceMeters>
          </Trackpoint>
          <Trackpoint>
            <Time>2018-04-21T14:27:09.000Z</Time>
            <Position>
              <LatitudeDegrees>43.28339436091482639312744140625</LatitudeDegrees>
              <LongitudeDegrees>-8.34259833209216594696044921875</LongitudeDegrees>
            </Position>
            <AltitudeMeters>12.80000019073486328125</AltitudeMeters>
            <DistanceMeters>88893.330535627</DistanceMeters>
          </Trackpoint>
          <Trackpoint>
            <Time>2018-04-21T14:27:16.000Z</Time>
            <Position>
              <LatitudeDegrees>43.2835377752780914306640625</LatitudeDegrees>
              <LongitudeDegrees>-8.3431028388440608978271484375</LongitudeDegrees>
            </Position>
            <AltitudeMeters>12.3999996185302734375</AltitudeMeters>
            <DistanceMeters>88937.213950518</DistanceMeters>
          </Trackpoint>
          <Trackpoint>
            <Time>2018-04-21T14:27:21.000Z</Time>
            <Position>
              <LatitudeDegrees>43.283755369484424591064453125</LatitudeDegrees>
              <LongitudeDegrees>-8.3433241210877895355224609375</LongitudeDegrees>
            </Position>
            <AltitudeMeters>12.6000003814697265625</AltitudeMeters>
            <DistanceMeters>88967.347159885</DistanceMeters>
          </Trackpoint>
          <Trackpoint>
            <Time>2018-04-21T14:27:23.000Z</Time>
            <Position>
              <LatitudeDegrees>43.28384430147707462310791015625</LatitudeDegrees>
              <LongitudeDegrees>-8.3433489315211772918701171875</LongitudeDegrees>
            </Position>
            <AltitudeMeters>12.6000003814697265625</AltitudeMeters>
            <DistanceMeters>88977.447744207</DistanceMeters>
          </Trackpoint>
          <Trackpoint>
            <Time>2018-04-21T14:27:24.000Z</Time>
            <Position>
              <LatitudeDegrees>43.28389241360127925872802734375</LatitudeDegrees>
              <LongitudeDegrees>-8.3433563075959682464599609375</LongitudeDegrees>
            </Position>
            <AltitudeMeters>12.3999996185302734375</AltitudeMeters>
            <DistanceMeters>88982.83501306</DistanceMeters>
          </Trackpoint>
          <Trackpoint>
            <Time>2018-04-21T14:27:29.000Z</Time>
            <Position>
              <LatitudeDegrees>43.28418309800326824188232421875</LatitudeDegrees>
              <LongitudeDegrees>-8.34340341389179229736328125</LongitudeDegrees>
            </Position>
            <AltitudeMeters>12.3999996185302734375</AltitudeMeters>
            <DistanceMeters>89015.412964877</DistanceMeters>
          </Trackpoint>
          <Trackpoint>
            <Time>2018-04-21T14:27:33.000Z</Time>
            <Position>
              <LatitudeDegrees>43.28442919068038463592529296875</LatitudeDegrees>
              <LongitudeDegrees>-8.3435836248099803924560546875</LongitudeDegrees>
            </Position>
            <AltitudeMeters>12.6000003814697265625</AltitudeMeters>
            <DistanceMeters>89046.452390549</DistanceMeters>
          </Trackpoint>
          <Trackpoint>
            <Time>2018-04-21T14:27:34.000Z</Time>
            <Position>
              <LatitudeDegrees>43.28448233194649219512939453125</LatitudeDegrees>
              <LongitudeDegrees>-8.34364087320864200592041015625</LongitudeDegrees>
            </Position>
            <AltitudeMeters>12.3999996185302734375</AltitudeMeters>
            <DistanceMeters>89053.969718425</DistanceMeters>
          </Trackpoint>
          <Trackpoint>
            <Time>2018-04-21T14:27:37.000Z</Time>
            <Position>
              <LatitudeDegrees>43.2846218906342983245849609375</LatitudeDegrees>
              <LongitudeDegrees>-8.343837596476078033447265625</LongitudeDegrees>
            </Position>
            <AltitudeMeters>12.3999996185302734375</AltitudeMeters>
            <DistanceMeters>89076.225859448</DistanceMeters>
          </Trackpoint>
          <Trackpoint>
            <Time>2018-04-21T14:27:39.000Z</Time>
            <Position>
              <LatitudeDegrees>43.28468115068972110748291015625</LatitudeDegrees>
              <LongitudeDegrees>-8.34400364197790622711181640625</LongitudeDegrees>
            </Position>
            <AltitudeMeters>12.6000003814697265625</AltitudeMeters>
            <DistanceMeters>89091.209375743</DistanceMeters>
          </Trackpoint>
          <Trackpoint>
            <Time>2018-04-21T14:27:41.000Z</Time>
            <Position>
              <LatitudeDegrees>43.28469623811542987823486328125</LatitudeDegrees>
              <LongitudeDegrees>-8.34417052567005157470703125</LongitudeDegrees>
            </Position>
            <AltitudeMeters>12</AltitudeMeters>
            <DistanceMeters>89104.835026982</DistanceMeters>
          </Trackpoint>
          <Trackpoint>
            <Time>2018-04-21T14:27:42.000Z</Time>
            <Position>
              <LatitudeDegrees>43.28470478765666484832763671875</LatitudeDegrees>
              <LongitudeDegrees>-8.3442531712353229522705078125</LongitudeDegrees>
            </Position>
            <AltitudeMeters>11.80000019073486328125</AltitudeMeters>
            <DistanceMeters>89111.598633066</DistanceMeters>
          </Trackpoint>
          <Trackpoint>
            <Time>2018-04-21T14:27:43.000Z</Time>
            <Position>
              <LatitudeDegrees>43.28470797277987003326416015625</LatitudeDegrees>
              <LongitudeDegrees>-8.3443356491625308990478515625</LongitudeDegrees>
            </Position>
            <AltitudeMeters>12.19999980926513671875</AltitudeMeters>
            <DistanceMeters>89118.290430215</DistanceMeters>
          </Trackpoint>
          <Trackpoint>
            <Time>2018-04-21T14:27:50.000Z</Time>
            <Position>
              <LatitudeDegrees>43.2846755348145961761474609375</LatitudeDegrees>
              <LongitudeDegrees>-8.34494124166667461395263671875</LongitudeDegrees>
            </Position>
            <AltitudeMeters>12.19999980926513671875</AltitudeMeters>
            <DistanceMeters>89167.489863458</DistanceMeters>
          </Trackpoint>
          <Trackpoint>
            <Time>2018-04-21T14:27:56.000Z</Time>
            <Position>
              <LatitudeDegrees>43.2847093977034091949462890625</LatitudeDegrees>
              <LongitudeDegrees>-8.34543091244995594024658203125</LongitudeDegrees>
            </Position>
            <AltitudeMeters>12.6000003814697265625</AltitudeMeters>
            <DistanceMeters>89207.343120359</DistanceMeters>
          </Trackpoint>
          <Trackpoint>
            <Time>2018-04-21T14:28:01.000Z</Time>
            <Position>
              <LatitudeDegrees>43.284833617508411407470703125</LatitudeDegrees>
              <LongitudeDegrees>-8.34579787217080593109130859375</LongitudeDegrees>
            </Position>
            <AltitudeMeters>12.3999996185302734375</AltitudeMeters>
            <DistanceMeters>89240.132707452</DistanceMeters>
          </Trackpoint>
          <Trackpoint>
            <Time>2018-04-21T14:28:04.000Z</Time>
            <Position>
              <LatitudeDegrees>43.2849400676786899566650390625</LatitudeDegrees>
              <LongitudeDegrees>-8.345889151096343994140625</LongitudeDegrees>
            </Position>
            <AltitudeMeters>12.80000019073486328125</AltitudeMeters>
            <DistanceMeters>89254.09937174</DistanceMeters>
          </Trackpoint>
          <Trackpoint>
            <Time>2018-04-21T14:28:05.000Z</Time>
            <Position>
              <LatitudeDegrees>43.28497451730072498321533203125</LatitudeDegrees>
              <LongitudeDegrees>-8.345889486372470855712890625</LongitudeDegrees>
            </Position>
            <AltitudeMeters>12.80000019073486328125</AltitudeMeters>
            <DistanceMeters>89257.933555415</DistanceMeters>
          </Trackpoint>
          <Trackpoint>
            <Time>2018-04-21T14:28:08.000Z</Time>
            <Position>
              <LatitudeDegrees>43.28505280427634716033935546875</LatitudeDegrees>
              <LongitudeDegrees>-8.34586509503424167633056640625</LongitudeDegrees>
            </Position>
            <AltitudeMeters>13.19999980926513671875</AltitudeMeters>
            <DistanceMeters>89266.868088182</DistanceMeters>
          </Trackpoint>
          <Trackpoint>
            <Time>2018-04-21T14:28:11.000Z</Time>
            <Position>
              <LatitudeDegrees>43.2851080410182476043701171875</LatitudeDegrees>
              <LongitudeDegrees>-8.345854617655277252197265625</LongitudeDegrees>
            </Position>
            <AltitudeMeters>14</AltitudeMeters>
            <DistanceMeters>89273.074722222</DistanceMeters>
          </Trackpoint>
          <Trackpoint>
            <Time>2018-04-21T14:28:13.000Z</Time>
            <Position>
              <LatitudeDegrees>43.2851358689367771148681640625</LatitudeDegrees>
              <LongitudeDegrees>-8.345855288207530975341796875</LongitudeDegrees>
            </Position>
            <AltitudeMeters>14.6000003814697265625</AltitudeMeters>
            <DistanceMeters>89276.17439984</DistanceMeters>
          </Trackpoint>
          <Trackpoint>
            <Time>2018-04-21T14:28:15.000Z</Time>
            <Position>
              <LatitudeDegrees>43.2851683907210826873779296875</LatitudeDegrees>
              <LongitudeDegrees>-8.34585763514041900634765625</LongitudeDegrees>
            </Position>
            <AltitudeMeters>15.19999980926513671875</AltitudeMeters>
            <DistanceMeters>89279.799142759</DistanceMeters>
          </Trackpoint>
          <Trackpoint>
            <Time>2018-04-21T14:28:19.000Z</Time>
            <Position>
              <LatitudeDegrees>43.28523586504161357879638671875</LatitudeDegrees>
              <LongitudeDegrees>-8.3458487503230571746826171875</LongitudeDegrees>
            </Position>
            <AltitudeMeters>16.200000762939453125</AltitudeMeters>
            <DistanceMeters>89287.344048451</DistanceMeters>
          </Trackpoint>
          <Trackpoint>
            <Time>2018-04-21T14:28:20.000Z</Time>
            <Position>
              <LatitudeDegrees>43.285255730152130126953125</LatitudeDegrees>
              <LongitudeDegrees>-8.34584816358983516693115234375</LongitudeDegrees>
            </Position>
            <AltitudeMeters>16.6000003814697265625</AltitudeMeters>
            <DistanceMeters>89289.556355263</DistanceMeters>
          </Trackpoint>
          <Trackpoint>
            <Time>2018-04-21T14:28:23.000Z</Time>
            <Position>
              <LatitudeDegrees>43.28530199825763702392578125</LatitudeDegrees>
              <LongitudeDegrees>-8.34584690630435943603515625</LongitudeDegrees>
            </Position>
            <AltitudeMeters>17.799999237060546875</AltitudeMeters>
            <DistanceMeters>89294.707118759</DistanceMeters>
          </Trackpoint>
          <Trackpoint>
            <Time>2018-04-21T14:28:25.000Z</Time>
            <Position>
              <LatitudeDegrees>43.28533150255680084228515625</LatitudeDegrees>
              <LongitudeDegrees>-8.34585235454142093658447265625</LongitudeDegrees>
            </Position>
            <AltitudeMeters>18.200000762939453125</AltitudeMeters>
            <DistanceMeters>89298.022175777</DistanceMeters>
          </Trackpoint>
          <Trackpoint>
            <Time>2018-04-21T14:28:27.000Z</Time>
            <Position>
              <LatitudeDegrees>43.2853603363037109375</LatitudeDegrees>
              <LongitudeDegrees>-8.34585285745561122894287109375</LongitudeDegrees>
            </Position>
            <AltitudeMeters>18.6000003814697265625</AltitudeMeters>
            <DistanceMeters>89301.230646931</DistanceMeters>
          </Trackpoint>
          <Trackpoint>
            <Time>2018-04-21T14:28:28.000Z</Time>
            <Position>
              <LatitudeDegrees>43.28537869267165660858154296875</LatitudeDegrees>
              <LongitudeDegrees>-8.3458447270095348358154296875</LongitudeDegrees>
            </Position>
            <AltitudeMeters>18.799999237060546875</AltitudeMeters>
            <DistanceMeters>89303.376652287</DistanceMeters>
          </Trackpoint>
          <Trackpoint>
            <Time>2018-04-21T14:28:33.000Z</Time>
            <Position>
              <LatitudeDegrees>43.2854582369327545166015625</LatitudeDegrees>
              <LongitudeDegrees>-8.34581614471971988677978515625</LongitudeDegrees>
            </Position>
            <AltitudeMeters>20.3999996185302734375</AltitudeMeters>
            <DistanceMeters>89312.52787783</DistanceMeters>
          </Trackpoint>
          <Trackpoint>
            <Time>2018-04-21T14:28:35.000Z</Time>
            <Position>
              <LatitudeDegrees>43.28549251891672611236572265625</LatitudeDegrees>
              <LongitudeDegrees>-8.34580491296947002410888671875</LongitudeDegrees>
            </Position>
            <AltitudeMeters>21.3999996185302734375</AltitudeMeters>
            <DistanceMeters>89316.450536401</DistanceMeters>
          </Trackpoint>
          <Trackpoint>
            <Time>2018-04-21T14:28:40.000Z</Time>
            <Position>
              <LatitudeDegrees>43.28561154194176197052001953125</LatitudeDegrees>
              <LongitudeDegrees>-8.34583726711571216583251953125</LongitudeDegrees>
            </Position>
            <AltitudeMeters>22.6000003814697265625</AltitudeMeters>
            <DistanceMeters>89329.955032832</DistanceMeters>
          </Trackpoint>
          <Trackpoint>
            <Time>2018-04-21T14:28:44.000Z</Time>
            <Position>
              <LatitudeDegrees>43.2857008092105388641357421875</LatitudeDegrees>
              <LongitudeDegrees>-8.34600037895143032073974609375</LongitudeDegrees>
            </Position>
            <AltitudeMeters>22.6000003814697265625</AltitudeMeters>
            <DistanceMeters>89346.489134993</DistanceMeters>
          </Trackpoint>
          <Trackpoint>
            <Time>2018-04-21T14:28:46.000Z</Time>
            <Position>
              <LatitudeDegrees>43.28576023690402507781982421875</LatitudeDegrees>
              <LongitudeDegrees>-8.34611537866294384002685546875</LongitudeDegrees>
            </Position>
            <AltitudeMeters>22.6000003814697265625</AltitudeMeters>
            <DistanceMeters>89357.916072701</DistanceMeters>
          </Trackpoint>
          <Trackpoint>
            <Time>2018-04-21T14:28:49.000Z</Time>
            <Position>
              <LatitudeDegrees>43.2858255319297313690185546875</LatitudeDegrees>
              <LongitudeDegrees>-8.34630313329398632049560546875</LongitudeDegrees>
            </Position>
            <AltitudeMeters>21.200000762939453125</AltitudeMeters>
            <DistanceMeters>89374.77521521</DistanceMeters>
          </Trackpoint>
          <Trackpoint>
            <Time>2018-04-21T14:28:50.000Z</Time>
            <Position>
              <LatitudeDegrees>43.28584137372672557830810546875</LatitudeDegrees>
              <LongitudeDegrees>-8.3463744632899761199951171875</LongitudeDegrees>
            </Position>
            <AltitudeMeters>20.6000003814697265625</AltitudeMeters>
            <DistanceMeters>89380.817449818</DistanceMeters>
          </Trackpoint>
          <Trackpoint>
            <Time>2018-04-21T14:28:51.000Z</Time>
            <Position>
              <LatitudeDegrees>43.28585646115243434906005859375</LatitudeDegrees>
              <LongitudeDegrees>-8.3464512415230274200439453125</LongitudeDegrees>
            </Position>
            <AltitudeMeters>16.799999237060546875</AltitudeMeters>
            <DistanceMeters>89387.259672365</DistanceMeters>
          </Trackpoint>
          <Trackpoint>
            <Time>2018-04-21T14:28:54.000Z</Time>
            <Position>
              <LatitudeDegrees>43.2859469018876552581787109375</LatitudeDegrees>
              <LongitudeDegrees>-8.34672792814671993255615234375</LongitudeDegrees>
            </Position>
            <AltitudeMeters>16.3999996185302734375</AltitudeMeters>
            <DistanceMeters>89411.83358805</DistanceMeters>
          </Trackpoint>
          <Trackpoint>
            <Time>2018-04-21T14:28:55.000Z</Time>
            <Position>
              <LatitudeDegrees>43.2859817706048488616943359375</LatitudeDegrees>
              <LongitudeDegrees>-8.34682800807058811187744140625</LongitudeDegrees>
            </Position>
            <AltitudeMeters>15.3999996185302734375</AltitudeMeters>
            <DistanceMeters>89420.822532594</DistanceMeters>
          </Trackpoint>
          <Trackpoint>
            <Time>2018-04-21T14:28:56.000Z</Time>
            <Position>
              <LatitudeDegrees>43.28600339591503143310546875</LatitudeDegrees>
              <LongitudeDegrees>-8.34692691452801227569580078125</LongitudeDegrees>
            </Position>
            <AltitudeMeters>15.3999996185302734375</AltitudeMeters>
            <DistanceMeters>89429.18920174</DistanceMeters>
          </Trackpoint>
          <Trackpoint>
            <Time>2018-04-21T14:28:58.000Z</Time>
            <Position>
              <LatitudeDegrees>43.28605092130601406097412109375</LatitudeDegrees>
              <LongitudeDegrees>-8.3470869250595569610595703125</LongitudeDegrees>
            </Position>
            <AltitudeMeters>15</AltitudeMeters>
            <DistanceMeters>89443.191058391</DistanceMeters>
          </Trackpoint>
          <Trackpoint>
            <Time>2018-04-21T14:29:01.000Z</Time>
            <Position>
              <LatitudeDegrees>43.28614211641252040863037109375</LatitudeDegrees>
              <LongitudeDegrees>-8.34735489450395107269287109375</LongitudeDegrees>
            </Position>
            <AltitudeMeters>14</AltitudeMeters>
            <DistanceMeters>89467.157767856</DistanceMeters>
          </Trackpoint>
          <Trackpoint>
            <Time>2018-04-21T14:29:03.000Z</Time>
            <Position>
              <LatitudeDegrees>43.28619760461151599884033203125</LatitudeDegrees>
              <LongitudeDegrees>-8.34754331968724727630615234375</LongitudeDegrees>
            </Position>
            <AltitudeMeters>13</AltitudeMeters>
            <DistanceMeters>89483.626201781</DistanceMeters>
          </Trackpoint>
          <Trackpoint>
            <Time>2018-04-21T14:29:04.000Z</Time>
            <Position>
              <LatitudeDegrees>43.28622107394039630889892578125</LatitudeDegrees>
              <LongitudeDegrees>-8.34762361831963062286376953125</LongitudeDegrees>
            </Position>
            <AltitudeMeters>12.19999980926513671875</AltitudeMeters>
            <DistanceMeters>89490.636958237</DistanceMeters>
          </Trackpoint>
          <Trackpoint>
            <Time>2018-04-21T14:29:06.000Z</Time>
            <Position>
              <LatitudeDegrees>43.28624906949698925018310546875</LatitudeDegrees>
              <LongitudeDegrees>-8.34771313704550266265869140625</LongitudeDegrees>
            </Position>
            <AltitudeMeters>11.19999980926513671875</AltitudeMeters>
            <DistanceMeters>89498.531613873</DistanceMeters>
          </Trackpoint>
          <Trackpoint>
            <Time>2018-04-21T14:29:09.000Z</Time>
            <Position>
              <LatitudeDegrees>43.28627438284456729888916015625</LatitudeDegrees>
              <LongitudeDegrees>-8.34778790362179279327392578125</LongitudeDegrees>
            </Position>
            <AltitudeMeters>10.6000003814697265625</AltitudeMeters>
            <DistanceMeters>89505.212606903</DistanceMeters>
          </Trackpoint>
          <Trackpoint>
            <Time>2018-04-21T14:29:10.000Z</Time>
            <Position>
              <LatitudeDegrees>43.2862680964171886444091796875</LatitudeDegrees>
              <LongitudeDegrees>-8.3478238619863986968994140625</LongitudeDegrees>
            </Position>
            <AltitudeMeters>10.6000003814697265625</AltitudeMeters>
            <DistanceMeters>89508.208586873</DistanceMeters>
          </Trackpoint>
          <Trackpoint>
            <Time>2018-04-21T14:29:13.000Z</Time>
            <Position>
              <LatitudeDegrees>43.28625376336276531219482421875</LatitudeDegrees>
              <LongitudeDegrees>-8.34799812175333499908447265625</LongitudeDegrees>
            </Position>
            <AltitudeMeters>10.19999980926513671875</AltitudeMeters>
            <DistanceMeters>89522.416907991</DistanceMeters>
          </Trackpoint>
          <Trackpoint>
            <Time>2018-04-21T14:29:17.000Z</Time>
            <Position>
              <LatitudeDegrees>43.28636121936142444610595703125</LatitudeDegrees>
              <LongitudeDegrees>-8.34821755997836589813232421875</LongitudeDegrees>
            </Position>
            <AltitudeMeters>10.3999996185302734375</AltitudeMeters>
            <DistanceMeters>89543.844115152</DistanceMeters>
          </Trackpoint>
          <Trackpoint>
            <Time>2018-04-21T14:29:18.000Z</Time>
            <Position>
              <LatitudeDegrees>43.28638686798512935638427734375</LatitudeDegrees>
              <LongitudeDegrees>-8.34827858023345470428466796875</LongitudeDegrees>
            </Position>
            <AltitudeMeters>10.80000019073486328125</AltitudeMeters>
            <DistanceMeters>89549.553631415</DistanceMeters>
          </Trackpoint>
          <Trackpoint>
            <Time>2018-04-21T14:29:24.000Z</Time>
            <Position>
              <LatitudeDegrees>43.28656238503754138946533203125</LatitudeDegrees>
              <LongitudeDegrees>-8.34862726740539073944091796875</LongitudeDegrees>
            </Position>
            <AltitudeMeters>11</AltitudeMeters>
            <DistanceMeters>89583.901023851</DistanceMeters>
          </Trackpoint>
          <Trackpoint>
            <Time>2018-04-21T14:29:25.000Z</Time>
            <Position>
              <LatitudeDegrees>43.28658887185156345367431640625</LatitudeDegrees>
              <LongitudeDegrees>-8.34867973811924457550048828125</LongitudeDegrees>
            </Position>
            <AltitudeMeters>11</AltitudeMeters>
            <DistanceMeters>89589.073655338</DistanceMeters>
          </Trackpoint>
          <Trackpoint>
            <Time>2018-04-21T14:29:28.000Z</Time>
            <Position>
              <LatitudeDegrees>43.28664167784154415130615234375</LatitudeDegrees>
              <LongitudeDegrees>-8.34883497096598148345947265625</LongitudeDegrees>
            </Position>
            <AltitudeMeters>11</AltitudeMeters>
            <DistanceMeters>89602.956339572</DistanceMeters>
          </Trackpoint>
          <Trackpoint>
            <Time>2018-04-21T14:29:29.000Z</Time>
            <Position>
              <LatitudeDegrees>43.28665274195373058319091796875</LatitudeDegrees>
              <LongitudeDegrees>-8.34888945333659648895263671875</LongitudeDegrees>
            </Position>
            <AltitudeMeters>11.19999980926513671875</AltitudeMeters>
            <DistanceMeters>89607.539347079</DistanceMeters>
          </Trackpoint>
          <Trackpoint>
            <Time>2018-04-21T14:29:34.000Z</Time>
            <Position>
              <LatitudeDegrees>43.28668794594705104827880859375</LatitudeDegrees>
              <LongitudeDegrees>-8.34924719296395778656005859375</LongitudeDegrees>
            </Position>
            <AltitudeMeters>10.6000003814697265625</AltitudeMeters>
            <DistanceMeters>89636.787205149</DistanceMeters>
          </Trackpoint>
          <Trackpoint>
            <Time>2018-04-21T14:29:35.000Z</Time>
            <Position>
              <LatitudeDegrees>43.28671057708561420440673828125</LatitudeDegrees>
              <LongitudeDegrees>-8.349332772195339202880859375</LongitudeDegrees>
            </Position>
            <AltitudeMeters>10.3999996185302734375</AltitudeMeters>
            <DistanceMeters>89644.164485863</DistanceMeters>
          </Trackpoint>
          <Trackpoint>
            <Time>2018-04-21T14:29:37.000Z</Time>
            <Position>
              <LatitudeDegrees>43.2867619581520557403564453125</LatitudeDegrees>
              <LongitudeDegrees>-8.349497057497501373291015625</LongitudeDegrees>
            </Position>
            <AltitudeMeters>10.19999980926513671875</AltitudeMeters>
            <DistanceMeters>89658.650996021</DistanceMeters>
          </Trackpoint>
          <Trackpoint>
            <Time>2018-04-21T14:29:38.000Z</Time>
            <Position>
              <LatitudeDegrees>43.28679741360247135162353515625</LatitudeDegrees>
              <LongitudeDegrees>-8.3495709858834743499755859375</LongitudeDegrees>
            </Position>
            <AltitudeMeters>10</AltitudeMeters>
            <DistanceMeters>89665.824096855</DistanceMeters>
          </Trackpoint>
          <Trackpoint>
            <Time>2018-04-21T14:29:45.000Z</Time>
            <Position>
              <LatitudeDegrees>43.2870730943977832794189453125</LatitudeDegrees>
              <LongitudeDegrees>-8.350019417703151702880859375</LongitudeDegrees>
            </Position>
            <AltitudeMeters>10.19999980926513671875</AltitudeMeters>
            <DistanceMeters>89713.379437299</DistanceMeters>
          </Trackpoint>
          <Trackpoint>
            <Time>2018-04-21T14:29:51.000Z</Time>
            <Position>
              <LatitudeDegrees>43.287276439368724822998046875</LatitudeDegrees>
              <LongitudeDegrees>-8.35039450787007808685302734375</LongitudeDegrees>
            </Position>
            <AltitudeMeters>10</AltitudeMeters>
            <DistanceMeters>89751.271153473</DistanceMeters>
          </Trackpoint>
          <Trackpoint>
            <Time>2018-04-21T14:29:58.000Z</Time>
            <Position>
              <LatitudeDegrees>43.2875020802021026611328125</LatitudeDegrees>
              <LongitudeDegrees>-8.3508552610874176025390625</LongitudeDegrees>
            </Position>
            <AltitudeMeters>10.19999980926513671875</AltitudeMeters>
            <DistanceMeters>89796.26286578</DistanceMeters>
          </Trackpoint>
          <Trackpoint>
            <Time>2018-04-21T14:30:05.000Z</Time>
            <Position>
              <LatitudeDegrees>43.28770869411528110504150390625</LatitudeDegrees>
              <LongitudeDegrees>-8.351344428956508636474609375</LongitudeDegrees>
            </Position>
            <AltitudeMeters>9.6000003814697265625</AltitudeMeters>
            <DistanceMeters>89842.083482248</DistanceMeters>
          </Trackpoint>
          <Trackpoint>
            <Time>2018-04-21T14:30:12.000Z</Time>
            <Position>
              <LatitudeDegrees>43.28796182759106159210205078125</LatitudeDegrees>
              <LongitudeDegrees>-8.3517657034099102020263671875</LongitudeDegrees>
            </Position>
            <AltitudeMeters>10.3999996185302734375</AltitudeMeters>
            <DistanceMeters>89886.340841879</DistanceMeters>
          </Trackpoint>
          <Trackpoint>
            <Time>2018-04-21T14:30:18.000Z</Time>
            <Position>
              <LatitudeDegrees>43.28821680508553981781005859375</LatitudeDegrees>
              <LongitudeDegrees>-8.3520295657217502593994140625</LongitudeDegrees>
            </Position>
            <AltitudeMeters>10.19999980926513671875</AltitudeMeters>
            <DistanceMeters>89921.871049545</DistanceMeters>
          </Trackpoint>
          <Trackpoint>
            <Time>2018-04-21T14:30:22.000Z</Time>
            <Position>
              <LatitudeDegrees>43.28838025219738483428955078125</LatitudeDegrees>
              <LongitudeDegrees>-8.35217214189469814300537109375</LongitudeDegrees>
            </Position>
            <AltitudeMeters>11</AltitudeMeters>
            <DistanceMeters>89943.420543998</DistanceMeters>
          </Trackpoint>
          <Trackpoint>
            <Time>2018-04-21T14:30:23.000Z</Time>
            <Position>
              <LatitudeDegrees>43.28842517919838428497314453125</LatitudeDegrees>
              <LongitudeDegrees>-8.35219896398484706878662109375</LongitudeDegrees>
            </Position>
            <AltitudeMeters>10.80000019073486328125</AltitudeMeters>
            <DistanceMeters>89948.87279231</DistanceMeters>
          </Trackpoint>
          <Trackpoint>
            <Time>2018-04-21T14:30:26.000Z</Time>
            <Position>
              <LatitudeDegrees>43.28855509869754314422607421875</LatitudeDegrees>
              <LongitudeDegrees>-8.352290578186511993408203125</LongitudeDegrees>
            </Position>
            <AltitudeMeters>11.3999996185302734375</AltitudeMeters>
            <DistanceMeters>89965.126805554</DistanceMeters>
          </Trackpoint>
          <Trackpoint>
            <Time>2018-04-21T14:30:33.000Z</Time>
            <Position>
              <LatitudeDegrees>43.28884494490921497344970703125</LatitudeDegrees>
              <LongitudeDegrees>-8.35251295007765293121337890625</LongitudeDegrees>
            </Position>
            <AltitudeMeters>10.3999996185302734375</AltitudeMeters>
            <DistanceMeters>90002.076926501</DistanceMeters>
          </Trackpoint>
          <Trackpoint>
            <Time>2018-04-21T14:30:34.000Z</Time>
            <Position>
              <LatitudeDegrees>43.2888949848711490631103515625</LatitudeDegrees>
              <LongitudeDegrees>-8.35254765115678310394287109375</LongitudeDegrees>
            </Position>
            <AltitudeMeters>10.19999980926513671875</AltitudeMeters>
            <DistanceMeters>90008.315486389</DistanceMeters>
          </Trackpoint>
          <Trackpoint>
            <Time>2018-04-21T14:30:37.000Z</Time>
            <Position>
              <LatitudeDegrees>43.28904963098466396331787109375</LatitudeDegrees>
              <LongitudeDegrees>-8.35265837609767913818359375</LongitudeDegrees>
            </Position>
            <AltitudeMeters>9.80000019073486328125</AltitudeMeters>
            <DistanceMeters>90027.725143502</DistanceMeters>
          </Trackpoint>
          <Trackpoint>
            <Time>2018-04-21T14:30:39.000Z</Time>
            <Position>
              <LatitudeDegrees>43.2891558296978473663330078125</LatitudeDegrees>
              <LongitudeDegrees>-8.3527400158345699310302734375</LongitudeDegrees>
            </Position>
            <AltitudeMeters>9.19999980926513671875</AltitudeMeters>
            <DistanceMeters>90041.270367501</DistanceMeters>
          </Trackpoint>
          <Trackpoint>
            <Time>2018-04-21T14:30:42.000Z</Time>
            <Position>
              <LatitudeDegrees>43.289304859936237335205078125</LatitudeDegrees>
              <LongitudeDegrees>-8.35284990258514881134033203125</LongitudeDegrees>
            </Position>
            <AltitudeMeters>9.3999996185302734375</AltitudeMeters>
            <DistanceMeters>90060.095972676</DistanceMeters>
          </Trackpoint>
          <Trackpoint>
            <Time>2018-04-21T14:30:48.000Z</Time>
            <Position>
              <LatitudeDegrees>43.2895943708717823028564453125</LatitudeDegrees>
              <LongitudeDegrees>-8.353089876472949981689453125</LongitudeDegrees>
            </Position>
            <AltitudeMeters>9.19999980926513671875</AltitudeMeters>
            <DistanceMeters>90097.730030919</DistanceMeters>
          </Trackpoint>
          <Trackpoint>
            <Time>2018-04-21T14:30:54.000Z</Time>
            <Position>
              <LatitudeDegrees>43.289864771068096160888671875</LatitudeDegrees>
              <LongitudeDegrees>-8.35337745957076549530029296875</LongitudeDegrees>
            </Position>
            <AltitudeMeters>9.19999980926513671875</AltitudeMeters>
            <DistanceMeters>90135.79081025</DistanceMeters>
          </Trackpoint>
          <Trackpoint>
            <Time>2018-04-21T14:31:00.000Z</Time>
            <Position>
              <LatitudeDegrees>43.290137685835361480712890625</LatitudeDegrees>
              <LongitudeDegrees>-8.3536248095333576202392578125</LongitudeDegrees>
            </Position>
            <AltitudeMeters>9</AltitudeMeters>
            <DistanceMeters>90172.181451501</DistanceMeters>
          </Trackpoint>
          <Trackpoint>
            <Time>2018-04-21T14:31:03.000Z</Time>
            <Position>
              <LatitudeDegrees>43.2902880571782588958740234375</LatitudeDegrees>
              <LongitudeDegrees>-8.3536938764154911041259765625</LongitudeDegrees>
            </Position>
            <AltitudeMeters>9.19999980926513671875</AltitudeMeters>
            <DistanceMeters>90189.828810408</DistanceMeters>
          </Trackpoint>
          <Trackpoint>
            <Time>2018-04-21T14:31:05.000Z</Time>
            <Position>
              <LatitudeDegrees>43.2903849519789218902587890625</LatitudeDegrees>
              <LongitudeDegrees>-8.3537766896188259124755859375</LongitudeDegrees>
            </Position>
            <AltitudeMeters>9</AltitudeMeters>
            <DistanceMeters>90202.530082615</DistanceMeters>
          </Trackpoint>
          <Trackpoint>
            <Time>2018-04-21T14:31:07.000Z</Time>
            <Position>
              <LatitudeDegrees>43.2904712855815887451171875</LatitudeDegrees>
              <LongitudeDegrees>-8.35386428050696849822998046875</LongitudeDegrees>
            </Position>
            <AltitudeMeters>8.80000019073486328125</AltitudeMeters>
            <DistanceMeters>90214.474755395</DistanceMeters>
          </Trackpoint>
          <Trackpoint>
            <Time>2018-04-21T14:31:10.000Z</Time>
            <Position>
              <LatitudeDegrees>43.29057211987674236297607421875</LatitudeDegrees>
              <LongitudeDegrees>-8.3539768494665622711181640625</LongitudeDegrees>
            </Position>
            <AltitudeMeters>8.19999980926513671875</AltitudeMeters>
            <DistanceMeters>90228.935998093</DistanceMeters>
          </Trackpoint>
          <Trackpoint>
            <Time>2018-04-21T14:31:11.000Z</Time>
            <Position>
              <LatitudeDegrees>43.29060112126171588897705078125</LatitudeDegrees>
              <LongitudeDegrees>-8.3539590798318386077880859375</LongitudeDegrees>
            </Position>
            <AltitudeMeters>8</AltitudeMeters>
            <DistanceMeters>90232.468640963</DistanceMeters>
          </Trackpoint>
          <Trackpoint>
            <Time>2018-04-21T14:31:13.000Z</Time>
            <Position>
              <LatitudeDegrees>43.29066029749810695648193359375</LatitudeDegrees>
              <LongitudeDegrees>-8.35397575981914997100830078125</LongitudeDegrees>
            </Position>
            <AltitudeMeters>7.80000019073486328125</AltitudeMeters>
            <DistanceMeters>90239.192074808</DistanceMeters>
          </Trackpoint>
          <Trackpoint>
            <Time>2018-04-21T14:31:16.000Z</Time>
            <Position>
              <LatitudeDegrees>43.29074445180594921112060546875</LatitudeDegrees>
              <LongitudeDegrees>-8.35411154665052890777587890625</LongitudeDegrees>
            </Position>
            <AltitudeMeters>8.3999996185302734375</AltitudeMeters>
            <DistanceMeters>90253.64051096</DistanceMeters>
          </Trackpoint>
          <Trackpoint>
            <Time>2018-04-21T14:31:18.000Z</Time>
            <Position>
              <LatitudeDegrees>43.2907889597117900848388671875</LatitudeDegrees>
              <LongitudeDegrees>-8.35422637872397899627685546875</LongitudeDegrees>
            </Position>
            <AltitudeMeters>8.80000019073486328125</AltitudeMeters>
            <DistanceMeters>90264.1803402</DistanceMeters>
          </Trackpoint>
          <Trackpoint>
            <Time>2018-04-21T14:31:21.000Z</Time>
            <Position>
              <LatitudeDegrees>43.2908788137137889862060546875</LatitudeDegrees>
              <LongitudeDegrees>-8.35439971648156642913818359375</LongitudeDegrees>
            </Position>
            <AltitudeMeters>8.3999996185302734375</AltitudeMeters>
            <DistanceMeters>90281.420291943</DistanceMeters>
          </Trackpoint>
          <Trackpoint>
            <Time>2018-04-21T14:31:22.000Z</Time>
            <Position>
              <LatitudeDegrees>43.29091913066804409027099609375</LatitudeDegrees>
              <LongitudeDegrees>-8.35444514639675617218017578125</LongitudeDegrees>
            </Position>
            <AltitudeMeters>8.6000003814697265625</AltitudeMeters>
            <DistanceMeters>90287.223927453</DistanceMeters>
          </Trackpoint>
          <Trackpoint>
            <Time>2018-04-21T14:31:27.000Z</Time>
            <Position>
              <LatitudeDegrees>43.29116488806903362274169921875</LatitudeDegrees>
              <LongitudeDegrees>-8.35460968315601348876953125</LongitudeDegrees>
            </Position>
            <AltitudeMeters>8.19999980926513671875</AltitudeMeters>
            <DistanceMeters>90317.652365765</DistanceMeters>
          </Trackpoint>
          <Trackpoint>
            <Time>2018-04-21T14:31:31.000Z</Time>
            <Position>
              <LatitudeDegrees>43.29136169515550136566162109375</LatitudeDegrees>
              <LongitudeDegrees>-8.35475762374699115753173828125</LongitudeDegrees>
            </Position>
            <AltitudeMeters>8.3999996185302734375</AltitudeMeters>
            <DistanceMeters>90342.621618215</DistanceMeters>
          </Trackpoint>
          <Trackpoint>
            <Time>2018-04-21T14:31:33.000Z</Time>
            <Position>
              <LatitudeDegrees>43.29144484363496303558349609375</LatitudeDegrees>
              <LongitudeDegrees>-8.35486742667853832244873046875</LongitudeDegrees>
            </Position>
            <AltitudeMeters>8.6000003814697265625</AltitudeMeters>
            <DistanceMeters>90355.457965237</DistanceMeters>
          </Trackpoint>
          <Trackpoint>
            <Time>2018-04-21T14:31:36.000Z</Time>
            <Position>
              <LatitudeDegrees>43.291549198329448699951171875</LatitudeDegrees>
              <LongitudeDegrees>-8.35504512302577495574951171875</LongitudeDegrees>
            </Position>
            <AltitudeMeters>9</AltitudeMeters>
            <DistanceMeters>90373.955251429</DistanceMeters>
          </Trackpoint>
          <Trackpoint>
            <Time>2018-04-21T14:31:37.000Z</Time>
            <Position>
              <LatitudeDegrees>43.2915731705725193023681640625</LatitudeDegrees>
              <LongitudeDegrees>-8.35510614328086376190185546875</LongitudeDegrees>
            </Position>
            <AltitudeMeters>9.19999980926513671875</AltitudeMeters>
            <DistanceMeters>90379.57309062</DistanceMeters>
          </Trackpoint>
          <Trackpoint>
            <Time>2018-04-21T14:31:38.000Z</Time>
            <Position>
              <LatitudeDegrees>43.29159135930240154266357421875</LatitudeDegrees>
              <LongitudeDegrees>-8.3551674149930477142333984375</LongitudeDegrees>
            </Position>
            <AltitudeMeters>9.19999980926513671875</AltitudeMeters>
            <DistanceMeters>90384.933473371</DistanceMeters>
          </Trackpoint>
          <Trackpoint>
            <Time>2018-04-21T14:31:44.000Z</Time>
            <Position>
              <LatitudeDegrees>43.2916730828583240509033203125</LatitudeDegrees>
              <LongitudeDegrees>-8.35562531836330890655517578125</LongitudeDegrees>
            </Position>
            <AltitudeMeters>9.3999996185302734375</AltitudeMeters>
            <DistanceMeters>90423.128775309</DistanceMeters>
          </Trackpoint>
          <Trackpoint>
            <Time>2018-04-21T14:31:48.000Z</Time>
            <Position>
              <LatitudeDegrees>43.29166981391608715057373046875</LatitudeDegrees>
              <LongitudeDegrees>-8.35595757700502872467041015625</LongitudeDegrees>
            </Position>
            <AltitudeMeters>9</AltitudeMeters>
            <DistanceMeters>90450.048520195</DistanceMeters>
          </Trackpoint>
          <Trackpoint>
            <Time>2018-04-21T14:31:50.000Z</Time>
            <Position>
              <LatitudeDegrees>43.291643746197223663330078125</LatitudeDegrees>
              <LongitudeDegrees>-8.35610769689083099365234375</LongitudeDegrees>
            </Position>
            <AltitudeMeters>9</AltitudeMeters>
            <DistanceMeters>90462.551667135</DistanceMeters>
          </Trackpoint>
          <Trackpoint>
            <Time>2018-04-21T14:31:53.000Z</Time>
            <Position>
              <LatitudeDegrees>43.2915094681084156036376953125</LatitudeDegrees>
              <LongitudeDegrees>-8.356260918080806732177734375</LongitudeDegrees>
            </Position>
            <AltitudeMeters>9</AltitudeMeters>
            <DistanceMeters>90481.979459989</DistanceMeters>
          </Trackpoint>
          <Trackpoint>
            <Time>2018-04-21T14:31:56.000Z</Time>
            <Position>
              <LatitudeDegrees>43.2913471944630146026611328125</LatitudeDegrees>
              <LongitudeDegrees>-8.3563556335866451263427734375</LongitudeDegrees>
            </Position>
            <AltitudeMeters>8.6000003814697265625</AltitudeMeters>
            <DistanceMeters>90501.603339321</DistanceMeters>
          </Trackpoint>
          <Trackpoint>
            <Time>2018-04-21T14:31:58.000Z</Time>
            <Position>
              <LatitudeDegrees>43.2912352122366428375244140625</LatitudeDegrees>
              <LongitudeDegrees>-8.35640684701502323150634765625</LongitudeDegrees>
            </Position>
            <AltitudeMeters>8.6000003814697265625</AltitudeMeters>
            <DistanceMeters>90514.739042602</DistanceMeters>
          </Trackpoint>
          <Trackpoint>
            <Time>2018-04-21T14:32:02.000Z</Time>
            <Position>
              <LatitudeDegrees>43.29098987393081188201904296875</LatitudeDegrees>
              <LongitudeDegrees>-8.35655964910984039306640625</LongitudeDegrees>
            </Position>
            <AltitudeMeters>8.3999996185302734375</AltitudeMeters>
            <DistanceMeters>90544.72053572</DistanceMeters>
          </Trackpoint>
          <Trackpoint>
            <Time>2018-04-21T14:32:03.000Z</Time>
            <Position>
              <LatitudeDegrees>43.29094947315752506256103515625</LatitudeDegrees>
              <LongitudeDegrees>-8.3566258661448955535888671875</LongitudeDegrees>
            </Position>
            <AltitudeMeters>8.3999996185302734375</AltitudeMeters>
            <DistanceMeters>90551.721625273</DistanceMeters>
          </Trackpoint>
          <Trackpoint>
            <Time>2018-04-21T14:32:06.000Z</Time>
            <Position>
              <LatitudeDegrees>43.29086632467806339263916015625</LatitudeDegrees>
              <LongitudeDegrees>-8.356850333511829376220703125</LongitudeDegrees>
            </Position>
            <AltitudeMeters>8.6000003814697265625</AltitudeMeters>
            <DistanceMeters>90572.126053825</DistanceMeters>
          </Trackpoint>
          <Trackpoint>
            <Time>2018-04-21T14:32:07.000Z</Time>
            <Position>
              <LatitudeDegrees>43.290851823985576629638671875</LatitudeDegrees>
              <LongitudeDegrees>-8.3569299615919589996337890625</LongitudeDegrees>
            </Position>
            <AltitudeMeters>8.3999996185302734375</AltitudeMeters>
            <DistanceMeters>90578.776566168</DistanceMeters>
          </Trackpoint>
          <Trackpoint>
            <Time>2018-04-21T14:32:15.000Z</Time>
            <Position>
              <LatitudeDegrees>43.2907569408416748046875</LatitudeDegrees>
              <LongitudeDegrees>-8.35759699344635009765625</LongitudeDegrees>
            </Position>
            <AltitudeMeters>9.19999980926513671875</AltitudeMeters>
            <DistanceMeters>90633.838295033</DistanceMeters>
          </Trackpoint>
          <Trackpoint>
            <Time>2018-04-21T14:32:19.000Z</Time>
            <Position>
              <LatitudeDegrees>43.29069969244301319122314453125</LatitudeDegrees>
              <LongitudeDegrees>-8.3579314313828945159912109375</LongitudeDegrees>
            </Position>
            <AltitudeMeters>7.80000019073486328125</AltitudeMeters>
            <DistanceMeters>90661.671877596</DistanceMeters>
          </Trackpoint>
          <Trackpoint>
            <Time>2018-04-21T14:32:22.000Z</Time>
            <Position>
              <LatitudeDegrees>43.29064923338592052459716796875</LatitudeDegrees>
              <LongitudeDegrees>-8.35818381048738956451416015625</LongitudeDegrees>
            </Position>
            <AltitudeMeters>7.80000019073486328125</AltitudeMeters>
            <DistanceMeters>90682.875401972</DistanceMeters>
          </Trackpoint>
          <Trackpoint>
            <Time>2018-04-21T14:32:26.000Z</Time>
            <Position>
              <LatitudeDegrees>43.290666081011295318603515625</LatitudeDegrees>
              <LongitudeDegrees>-8.35851766169071197509765625</LongitudeDegrees>
            </Position>
            <AltitudeMeters>7.400000095367431640625</AltitudeMeters>
            <DistanceMeters>90709.987507805</DistanceMeters>
          </Trackpoint>
          <Trackpoint>
            <Time>2018-04-21T14:32:33.000Z</Time>
            <Position>
              <LatitudeDegrees>43.29071578569710254669189453125</LatitudeDegrees>
              <LongitudeDegrees>-8.35909525863826274871826171875</LongitudeDegrees>
            </Position>
            <AltitudeMeters>7.80000019073486328125</AltitudeMeters>
            <DistanceMeters>90757.107345196</DistanceMeters>
          </Trackpoint>
          <Trackpoint>
            <Time>2018-04-21T14:32:36.000Z</Time>
            <Position>
              <LatitudeDegrees>43.2907819189131259918212890625</LatitudeDegrees>
              <LongitudeDegrees>-8.35933716036379337310791015625</LongitudeDegrees>
            </Position>
            <AltitudeMeters>7.400000095367431640625</AltitudeMeters>
            <DistanceMeters>90778.041710961</DistanceMeters>
          </Trackpoint>
          <Trackpoint>
            <Time>2018-04-21T14:32:38.000Z</Time>
            <Position>
              <LatitudeDegrees>43.29084821976721286773681640625</LatitudeDegrees>
              <LongitudeDegrees>-8.35948501713573932647705078125</LongitudeDegrees>
            </Position>
            <AltitudeMeters>7.599999904632568359375</AltitudeMeters>
            <DistanceMeters>90792.110800329</DistanceMeters>
          </Trackpoint>
          <Trackpoint>
            <Time>2018-04-21T14:32:39.000Z</Time>
            <Position>
              <LatitudeDegrees>43.29089038074016571044921875</LatitudeDegrees>
              <LongitudeDegrees>-8.35955073125660419464111328125</LongitudeDegrees>
            </Position>
            <AltitudeMeters>8</AltitudeMeters>
            <DistanceMeters>90799.207330209</DistanceMeters>
          </Trackpoint>
          <Trackpoint>
            <Time>2018-04-21T14:32:43.000Z</Time>
            <Position>
              <LatitudeDegrees>43.29109422862529754638671875</LatitudeDegrees>
              <LongitudeDegrees>-8.35975550115108489990234375</LongitudeDegrees>
            </Position>
            <AltitudeMeters>8.19999980926513671875</AltitudeMeters>
            <DistanceMeters>90827.314041287</DistanceMeters>
          </Trackpoint>
          <Trackpoint>
            <Time>2018-04-21T14:32:44.000Z</Time>
            <Position>
              <LatitudeDegrees>43.29115130938589572906494140625</LatitudeDegrees>
              <LongitudeDegrees>-8.359794728457927703857421875</LongitudeDegrees>
            </Position>
            <AltitudeMeters>8.19999980926513671875</AltitudeMeters>
            <DistanceMeters>90834.417566269</DistanceMeters>
          </Trackpoint>
          <Trackpoint>
            <Time>2018-04-21T14:32:46.000Z</Time>
            <Position>
              <LatitudeDegrees>43.29127234406769275665283203125</LatitudeDegrees>
              <LongitudeDegrees>-8.3598487079143524169921875</LongitudeDegrees>
            </Position>
            <AltitudeMeters>8.19999980926513671875</AltitudeMeters>
            <DistanceMeters>90848.581329126</DistanceMeters>
          </Trackpoint>
          <Trackpoint>
            <Time>2018-04-21T14:32:48.000Z</Time>
            <Position>
              <LatitudeDegrees>43.29140134155750274658203125</LatitudeDegrees>
              <LongitudeDegrees>-8.35987209342420101165771484375</LongitudeDegrees>
            </Position>
            <AltitudeMeters>8.19999980926513671875</AltitudeMeters>
            <DistanceMeters>90863.06347522</DistanceMeters>
          </Trackpoint>
          <Trackpoint>
            <Time>2018-04-21T14:32:54.000Z</Time>
            <Position>
              <LatitudeDegrees>43.29180526547133922576904296875</LatitudeDegrees>
              <LongitudeDegrees>-8.3598790504038333892822265625</LongitudeDegrees>
            </Position>
            <AltitudeMeters>8</AltitudeMeters>
            <DistanceMeters>90908.024469125</DistanceMeters>
          </Trackpoint>
          <Trackpoint>
            <Time>2018-04-21T14:33:01.000Z</Time>
            <Position>
              <LatitudeDegrees>43.29224355518817901611328125</LatitudeDegrees>
              <LongitudeDegrees>-8.3597918786108493804931640625</LongitudeDegrees>
            </Position>
            <AltitudeMeters>7.80000019073486328125</AltitudeMeters>
            <DistanceMeters>90957.315587066</DistanceMeters>
          </Trackpoint>
          <Trackpoint>
            <Time>2018-04-21T14:33:06.000Z</Time>
            <Position>
              <LatitudeDegrees>43.29252812080085277557373046875</LatitudeDegrees>
              <LongitudeDegrees>-8.3596958220005035400390625</LongitudeDegrees>
            </Position>
            <AltitudeMeters>7.400000095367431640625</AltitudeMeters>
            <DistanceMeters>90989.930245041</DistanceMeters>
          </Trackpoint>
          <Trackpoint>
            <Time>2018-04-21T14:33:07.000Z</Time>
            <Position>
              <LatitudeDegrees>43.29258159734308719635009765625</LatitudeDegrees>
              <LongitudeDegrees>-8.3596570976078510284423828125</LongitudeDegrees>
            </Position>
            <AltitudeMeters>7.599999904632568359375</AltitudeMeters>
            <DistanceMeters>90996.659049043</DistanceMeters>
          </Trackpoint>
          <Trackpoint>
            <Time>2018-04-21T14:33:09.000Z</Time>
            <Position>
              <LatitudeDegrees>43.292685784399509429931640625</LatitudeDegrees>
              <LongitudeDegrees>-8.3595722727477550506591796875</LongitudeDegrees>
            </Position>
            <AltitudeMeters>7.80000019073486328125</AltitudeMeters>
            <DistanceMeters>91010.138446957</DistanceMeters>
          </Trackpoint>
          <Trackpoint>
            <Time>2018-04-21T14:33:12.000Z</Time>
            <Position>
              <LatitudeDegrees>43.2928096689283847808837890625</LatitudeDegrees>
              <LongitudeDegrees>-8.35938669741153717041015625</LongitudeDegrees>
            </Position>
            <AltitudeMeters>7.80000019073486328125</AltitudeMeters>
            <DistanceMeters>91030.538006826</DistanceMeters>
          </Trackpoint>
          <Trackpoint>
            <Time>2018-04-21T14:33:14.000Z</Time>
            <Position>
              <LatitudeDegrees>43.292868845164775848388671875</LatitudeDegrees>
              <LongitudeDegrees>-8.35923640988767147064208984375</LongitudeDegrees>
            </Position>
            <AltitudeMeters>7.80000019073486328125</AltitudeMeters>
            <DistanceMeters>91044.380630209</DistanceMeters>
          </Trackpoint>
          <Trackpoint>
            <Time>2018-04-21T14:33:17.000Z</Time>
            <Position>
              <LatitudeDegrees>43.292931206524372100830078125</LatitudeDegrees>
              <LongitudeDegrees>-8.3589979447424411773681640625</LongitudeDegrees>
            </Position>
            <AltitudeMeters>8</AltitudeMeters>
            <DistanceMeters>91064.908160192</DistanceMeters>
          </Trackpoint>
          <Trackpoint>
            <Time>2018-04-21T14:33:21.000Z</Time>
            <Position>
              <LatitudeDegrees>43.292938582599163055419921875</LatitudeDegrees>
              <LongitudeDegrees>-8.35864867083728313446044921875</LongitudeDegrees>
            </Position>
            <AltitudeMeters>7.80000019073486328125</AltitudeMeters>
            <DistanceMeters>91093.215277024</DistanceMeters>
          </Trackpoint>
          <Trackpoint>
            <Time>2018-04-21T14:33:22.000Z</Time>
            <Position>
              <LatitudeDegrees>43.29293631948530673980712890625</LatitudeDegrees>
              <LongitudeDegrees>-8.35856191813945770263671875</LongitudeDegrees>
            </Position>
            <AltitudeMeters>7.80000019073486328125</AltitudeMeters>
            <DistanceMeters>91100.247253887</DistanceMeters>
          </Trackpoint>
          <Trackpoint>
            <Time>2018-04-21T14:33:27.000Z</Time>
            <Position>
              <LatitudeDegrees>43.29293631948530673980712890625</LatitudeDegrees>
              <LongitudeDegrees>-8.35815212689340114593505859375</LongitudeDegrees>
            </Position>
            <AltitudeMeters>7.599999904632568359375</AltitudeMeters>
            <DistanceMeters>91133.4450511</DistanceMeters>
          </Trackpoint>
          <Trackpoint>
            <Time>2018-04-21T14:33:31.000Z</Time>
            <Position>
              <LatitudeDegrees>43.29296817071735858917236328125</LatitudeDegrees>
              <LongitudeDegrees>-8.35785088129341602325439453125</LongitudeDegrees>
            </Position>
            <AltitudeMeters>7.80000019073486328125</AltitudeMeters>
            <DistanceMeters>91158.105536257</DistanceMeters>
          </Trackpoint>
          <Trackpoint>
            <Time>2018-04-21T14:33:32.000Z</Time>
            <Position>
              <LatitudeDegrees>43.29298795200884342193603515625</LatitudeDegrees>
              <LongitudeDegrees>-8.35778349079191684722900390625</LongitudeDegrees>
            </Position>
            <AltitudeMeters>8</AltitudeMeters>
            <DistanceMeters>91163.992592685</DistanceMeters>
          </Trackpoint>
          <Trackpoint>
            <Time>2018-04-21T14:33:36.000Z</Time>
            <Position>
              <LatitudeDegrees>43.29315089620649814605712890625</LatitudeDegrees>
              <LongitudeDegrees>-8.35754175670444965362548828125</LongitudeDegrees>
            </Position>
            <AltitudeMeters>7.80000019073486328125</AltitudeMeters>
            <DistanceMeters>91190.683768212</DistanceMeters>
          </Trackpoint>
          <Trackpoint>
            <Time>2018-04-21T14:33:39.000Z</Time>
            <Position>
              <LatitudeDegrees>43.29329364001750946044921875</LatitudeDegrees>
              <LongitudeDegrees>-8.3573819138109683990478515625</LongitudeDegrees>
            </Position>
            <AltitudeMeters>7.599999904632568359375</AltitudeMeters>
            <DistanceMeters>91211.180041442</DistanceMeters>
          </Trackpoint>
          <Trackpoint>
            <Time>2018-04-21T14:33:42.000Z</Time>
            <Position>
              <LatitudeDegrees>43.29342900775372982025146484375</LatitudeDegrees>
              <LongitudeDegrees>-8.35720882751047611236572265625</LongitudeDegrees>
            </Position>
            <AltitudeMeters>7.19999980926513671875</AltitudeMeters>
            <DistanceMeters>91231.762046838</DistanceMeters>
          </Trackpoint>
          <Trackpoint>
            <Time>2018-04-21T14:33:43.000Z</Time>
            <Position>
              <LatitudeDegrees>43.29346907325088977813720703125</LatitudeDegrees>
              <LongitudeDegrees>-8.35714177228510379791259765625</LongitudeDegrees>
            </Position>
            <AltitudeMeters>7.400000095367431640625</AltitudeMeters>
            <DistanceMeters>91238.790170211</DistanceMeters>
          </Trackpoint>
          <Trackpoint>
            <Time>2018-04-21T14:33:47.000Z</Time>
            <Position>
              <LatitudeDegrees>43.2935933768749237060546875</LatitudeDegrees>
              <LongitudeDegrees>-8.356875814497470855712890625</LongitudeDegrees>
            </Position>
            <AltitudeMeters>7.599999904632568359375</AltitudeMeters>
            <DistanceMeters>91264.395241391</DistanceMeters>
          </Trackpoint>
          <Trackpoint>
            <Time>2018-04-21T14:33:49.000Z</Time>
            <Position>
              <LatitudeDegrees>43.2936565764248371124267578125</LatitudeDegrees>
              <LongitudeDegrees>-8.35677514784038066864013671875</LongitudeDegrees>
            </Position>
            <AltitudeMeters>8</AltitudeMeters>
            <DistanceMeters>91275.165168593</DistanceMeters>
          </Trackpoint>
          <Trackpoint>
            <Time>2018-04-21T14:33:52.000Z</Time>
            <Position>
              <LatitudeDegrees>43.29375456087291240692138671875</LatitudeDegrees>
              <LongitudeDegrees>-8.3566382713615894317626953125</LongitudeDegrees>
            </Position>
            <AltitudeMeters>8.3999996185302734375</AltitudeMeters>
            <DistanceMeters>91290.718228992</DistanceMeters>
          </Trackpoint>
          <Trackpoint>
            <Time>2018-04-21T14:33:53.000Z</Time>
            <Position>
              <LatitudeDegrees>43.29379864968359470367431640625</LatitudeDegrees>
              <LongitudeDegrees>-8.3565978705883026123046875</LongitudeDegrees>
            </Position>
            <AltitudeMeters>8.19999980926513671875</AltitudeMeters>
            <DistanceMeters>91296.616778351</DistanceMeters>
          </Trackpoint>
          <Trackpoint>
            <Time>2018-04-21T14:33:56.000Z</Time>
            <Position>
              <LatitudeDegrees>43.29391784034669399261474609375</LatitudeDegrees>
              <LongitudeDegrees>-8.3564941026270389556884765625</LongitudeDegrees>
            </Position>
            <AltitudeMeters>8</AltitudeMeters>
            <DistanceMeters>91312.322368698</DistanceMeters>
          </Trackpoint>
          <Trackpoint>
            <Time>2018-04-21T14:33:57.000Z</Time>
            <Position>
              <LatitudeDegrees>43.29395287670195102691650390625</LatitudeDegrees>
              <LongitudeDegrees>-8.3564739860594272613525390625</LongitudeDegrees>
            </Position>
            <AltitudeMeters>8</AltitudeMeters>
            <DistanceMeters>91316.548654444</DistanceMeters>
          </Trackpoint>
          <Trackpoint>
            <Time>2018-04-21T14:34:01.000Z</Time>
            <Position>
              <LatitudeDegrees>43.29399981535971164703369140625</LatitudeDegrees>
              <LongitudeDegrees>-8.35641749203205108642578125</LongitudeDegrees>
            </Position>
            <AltitudeMeters>8.3999996185302734375</AltitudeMeters>
            <DistanceMeters>91323.494060721</DistanceMeters>
          </Trackpoint>
          <Trackpoint>
            <Time>2018-04-21T14:34:05.000Z</Time>
            <Position>
              <LatitudeDegrees>43.2939593307673931121826171875</LatitudeDegrees>
              <LongitudeDegrees>-8.3562865667045116424560546875</LongitudeDegrees>
            </Position>
            <AltitudeMeters>8.6000003814697265625</AltitudeMeters>
            <DistanceMeters>91335.018180395</DistanceMeters>
          </Trackpoint>
          <Trackpoint>
            <Time>2018-04-21T14:34:10.000Z</Time>
            <Position>
              <LatitudeDegrees>43.293908201158046722412109375</LatitudeDegrees>
              <LongitudeDegrees>-8.35602748207747936248779296875</LongitudeDegrees>
            </Position>
            <AltitudeMeters>8.80000019073486328125</AltitudeMeters>
            <DistanceMeters>91356.764561781</DistanceMeters>
          </Trackpoint>
          <Trackpoint>
            <Time>2018-04-21T14:34:15.000Z</Time>
            <Position>
              <LatitudeDegrees>43.293874673545360565185546875</LatitudeDegrees>
              <LongitudeDegrees>-8.3557605184614658355712890625</LongitudeDegrees>
            </Position>
            <AltitudeMeters>8.6000003814697265625</AltitudeMeters>
            <DistanceMeters>91378.711001523</DistanceMeters>
          </Trackpoint>
          <Trackpoint>
            <Time>2018-04-21T14:34:16.000Z</Time>
            <Position>
              <LatitudeDegrees>43.29386360943317413330078125</LatitudeDegrees>
              <LongitudeDegrees>-8.355721123516559600830078125</LongitudeDegrees>
            </Position>
            <AltitudeMeters>8.6000003814697265625</AltitudeMeters>
            <DistanceMeters>91382.131963241</DistanceMeters>
          </Trackpoint>
          <Trackpoint>
            <Time>2018-04-21T14:34:19.000Z</Time>
            <Position>
              <LatitudeDegrees>43.29386838711798191070556640625</LatitudeDegrees>
              <LongitudeDegrees>-8.35561442188918590545654296875</LongitudeDegrees>
            </Position>
            <AltitudeMeters>8.3999996185302734375</AltitudeMeters>
            <DistanceMeters>91390.791916178</DistanceMeters>
          </Trackpoint>
          <Trackpoint>
            <Time>2018-04-21T14:34:20.000Z</Time>
            <Position>
              <LatitudeDegrees>43.2938916049897670745849609375</LatitudeDegrees>
              <LongitudeDegrees>-8.3556019328534603118896484375</LongitudeDegrees>
            </Position>
            <AltitudeMeters>8.6000003814697265625</AltitudeMeters>
            <DistanceMeters>91393.567281956</DistanceMeters>
          </Trackpoint>
          <Trackpoint>
            <Time>2018-04-21T14:34:23.000Z</Time>
            <Position>
              <LatitudeDegrees>43.2939576543867588043212890625</LatitudeDegrees>
              <LongitudeDegrees>-8.35570268332958221435546875</LongitudeDegrees>
            </Position>
            <AltitudeMeters>8.6000003814697265625</AltitudeMeters>
            <DistanceMeters>91404.551811143</DistanceMeters>
          </Trackpoint>
          <Trackpoint>
            <Time>2018-04-21T14:34:27.000Z</Time>
            <Position>
              <LatitudeDegrees>43.29400249756872653961181640625</LatitudeDegrees>
              <LongitudeDegrees>-8.3559489436447620391845703125</LongitudeDegrees>
            </Position>
            <AltitudeMeters>8</AltitudeMeters>
            <DistanceMeters>91425.116259592</DistanceMeters>
          </Trackpoint>
          <Trackpoint>
            <Time>2018-04-21T14:34:30.000Z</Time>
            <Position>
              <LatitudeDegrees>43.2940478436648845672607421875</LatitudeDegrees>
              <LongitudeDegrees>-8.35616041906177997589111328125</LongitudeDegrees>
            </Position>
            <AltitudeMeters>7.599999904632568359375</AltitudeMeters>
            <DistanceMeters>91442.975973762</DistanceMeters>
          </Trackpoint>
          <Trackpoint>
            <Time>2018-04-21T14:34:32.000Z</Time>
            <Position>
              <LatitudeDegrees>43.2940988056361675262451171875</LatitudeDegrees>
              <LongitudeDegrees>-8.35626133717596530914306640625</LongitudeDegrees>
            </Position>
            <AltitudeMeters>7.599999904632568359375</AltitudeMeters>
            <DistanceMeters>91452.927044975</DistanceMeters>
          </Trackpoint>
          <Trackpoint>
            <Time>2018-04-21T14:34:35.000Z</Time>
            <Position>
              <LatitudeDegrees>43.29422327689826488494873046875</LatitudeDegrees>
              <LongitudeDegrees>-8.35628145374357700347900390625</LongitudeDegrees>
            </Position>
            <AltitudeMeters>7.19999980926513671875</AltitudeMeters>
            <DistanceMeters>91466.8765653</DistanceMeters>
          </Trackpoint>
          <Trackpoint>
            <Time>2018-04-21T14:34:37.000Z</Time>
            <Position>
              <LatitudeDegrees>43.2943100295960903167724609375</LatitudeDegrees>
              <LongitudeDegrees>-8.356208615005016326904296875</LongitudeDegrees>
            </Position>
            <AltitudeMeters>7</AltitudeMeters>
            <DistanceMeters>91478.192327933</DistanceMeters>
          </Trackpoint>
          <Trackpoint>
            <Time>2018-04-21T14:34:38.000Z</Time>
            <Position>
              <LatitudeDegrees>43.2943566329777240753173828125</LatitudeDegrees>
              <LongitudeDegrees>-8.3561722375452518463134765625</LongitudeDegrees>
            </Position>
            <AltitudeMeters>6.80000019073486328125</AltitudeMeters>
            <DistanceMeters>91484.158613322</DistanceMeters>
          </Trackpoint>
          <Trackpoint>
            <Time>2018-04-21T14:34:45.000Z</Time>
            <Position>
              <LatitudeDegrees>43.29471043311059474945068359375</LatitudeDegrees>
              <LongitudeDegrees>-8.3559160865843296051025390625</LongitudeDegrees>
            </Position>
            <AltitudeMeters>7</AltitudeMeters>
            <DistanceMeters>91528.670083893</DistanceMeters>
          </Trackpoint>
          <Trackpoint>
            <Time>2018-04-21T14:34:47.000Z</Time>
            <Position>
              <LatitudeDegrees>43.294813446700572967529296875</LatitudeDegrees>
              <LongitudeDegrees>-8.35585892200469970703125</LongitudeDegrees>
            </Position>
            <AltitudeMeters>7.400000095367431640625</AltitudeMeters>
            <DistanceMeters>91541.035611962</DistanceMeters>
          </Trackpoint>
          <Trackpoint>
            <Time>2018-04-21T14:34:50.000Z</Time>
            <Position>
              <LatitudeDegrees>43.29498938284814357757568359375</LatitudeDegrees>
              <LongitudeDegrees>-8.3558275736868381500244140625</LongitudeDegrees>
            </Position>
            <AltitudeMeters>7.400000095367431640625</AltitudeMeters>
            <DistanceMeters>91560.781742489</DistanceMeters>
          </Trackpoint>
          <Trackpoint>
            <Time>2018-04-21T14:34:52.000Z</Time>
            <Position>
              <LatitudeDegrees>43.2951079867780208587646484375</LatitudeDegrees>
              <LongitudeDegrees>-8.35583101026713848114013671875</LongitudeDegrees>
            </Position>
            <AltitudeMeters>7.599999904632568359375</AltitudeMeters>
            <DistanceMeters>91573.98532745</DistanceMeters>
          </Trackpoint>
          <Trackpoint>
            <Time>2018-04-21T14:34:53.000Z</Time>
            <Position>
              <LatitudeDegrees>43.29516976140439510345458984375</LatitudeDegrees>
              <LongitudeDegrees>-8.35584308020770549774169921875</LongitudeDegrees>
            </Position>
            <AltitudeMeters>7.80000019073486328125</AltitudeMeters>
            <DistanceMeters>91580.929433455</DistanceMeters>
          </Trackpoint>
          <Trackpoint>
            <Time>2018-04-21T14:34:55.000Z</Time>
            <Position>
              <LatitudeDegrees>43.2952897064387798309326171875</LatitudeDegrees>
              <LongitudeDegrees>-8.355883397161960601806640625</LongitudeDegrees>
            </Position>
            <AltitudeMeters>7.400000095367431640625</AltitudeMeters>
            <DistanceMeters>91594.673200736</DistanceMeters>
          </Trackpoint>
          <Trackpoint>
            <Time>2018-04-21T14:34:56.000Z</Time>
            <Position>
              <LatitudeDegrees>43.29534494318068027496337890625</LatitudeDegrees>
              <LongitudeDegrees>-8.35591591894626617431640625</LongitudeDegrees>
            </Position>
            <AltitudeMeters>7.400000095367431640625</AltitudeMeters>
            <DistanceMeters>91601.362973441</DistanceMeters>
          </Trackpoint>
          <Trackpoint>
            <Time>2018-04-21T14:34:59.000Z</Time>
            <Position>
              <LatitudeDegrees>43.29549799673259258270263671875</LatitudeDegrees>
              <LongitudeDegrees>-8.35606469772756099700927734375</LongitudeDegrees>
            </Position>
            <AltitudeMeters>7.80000019073486328125</AltitudeMeters>
            <DistanceMeters>91622.230372567</DistanceMeters>
          </Trackpoint>
          <Trackpoint>
            <Time>2018-04-21T14:35:01.000Z</Time>
            <Position>
              <LatitudeDegrees>43.29559438861906528472900390625</LatitudeDegrees>
              <LongitudeDegrees>-8.356185816228389739990234375</LongitudeDegrees>
            </Position>
            <AltitudeMeters>7.80000019073486328125</AltitudeMeters>
            <DistanceMeters>91636.769149318</DistanceMeters>
          </Trackpoint>
          <Trackpoint>
            <Time>2018-04-21T14:35:04.000Z</Time>
            <Position>
              <LatitudeDegrees>43.29572682268917560577392578125</LatitudeDegrees>
              <LongitudeDegrees>-8.35634213872253894805908203125</LongitudeDegrees>
            </Position>
            <AltitudeMeters>7.599999904632568359375</AltitudeMeters>
            <DistanceMeters>91656.202054322</DistanceMeters>
          </Trackpoint>
          <Trackpoint>
            <Time>2018-04-21T14:35:06.000Z</Time>
            <Position>
              <LatitudeDegrees>43.29580527730286121368408203125</LatitudeDegrees>
              <LongitudeDegrees>-8.35645412094891071319580078125</LongitudeDegrees>
            </Position>
            <AltitudeMeters>6.80000019073486328125</AltitudeMeters>
            <DistanceMeters>91668.793721495</DistanceMeters>
          </Trackpoint>
          <Trackpoint>
            <Time>2018-04-21T14:35:09.000Z</Time>
            <Position>
              <LatitudeDegrees>43.29592849127948284149169921875</LatitudeDegrees>
              <LongitudeDegrees>-8.3566419593989849090576171875</LongitudeDegrees>
            </Position>
            <AltitudeMeters>7.400000095367431640625</AltitudeMeters>
            <DistanceMeters>91689.27831625</DistanceMeters>
          </Trackpoint>
          <Trackpoint>
            <Time>2018-04-21T14:35:14.000Z</Time>
            <Position>
              <LatitudeDegrees>43.29613954760134220123291015625</LatitudeDegrees>
              <LongitudeDegrees>-8.35695133544504642486572265625</LongitudeDegrees>
            </Position>
            <AltitudeMeters>8</AltitudeMeters>
            <DistanceMeters>91723.628469069</DistanceMeters>
          </Trackpoint>
          <Trackpoint>
            <Time>2018-04-21T14:35:16.000Z</Time>
            <Position>
              <LatitudeDegrees>43.2962254621088504791259765625</LatitudeDegrees>
              <LongitudeDegrees>-8.35706164129078388214111328125</LongitudeDegrees>
            </Position>
            <AltitudeMeters>7.80000019073486328125</AltitudeMeters>
            <DistanceMeters>91736.716307701</DistanceMeters>
          </Trackpoint>
          <Trackpoint>
            <Time>2018-04-21T14:35:22.000Z</Time>
            <Position>
              <LatitudeDegrees>43.29649074934422969818115234375</LatitudeDegrees>
              <LongitudeDegrees>-8.35734159685671329498291015625</LongitudeDegrees>
            </Position>
            <AltitudeMeters>7.400000095367431640625</AltitudeMeters>
            <DistanceMeters>91773.947624017</DistanceMeters>
          </Trackpoint>
          <Trackpoint>
            <Time>2018-04-21T14:35:23.000Z</Time>
            <Position>
              <LatitudeDegrees>43.296543471515178680419921875</LatitudeDegrees>
              <LongitudeDegrees>-8.35737512446939945220947265625</LongitudeDegrees>
            </Position>
            <AltitudeMeters>7.19999980926513671875</AltitudeMeters>
            <DistanceMeters>91780.414329826</DistanceMeters>
          </Trackpoint>
          <Trackpoint>
            <Time>2018-04-21T14:35:25.000Z</Time>
            <Position>
              <LatitudeDegrees>43.29664514400064945220947265625</LatitudeDegrees>
              <LongitudeDegrees>-8.3574425987899303436279296875</LongitudeDegrees>
            </Position>
            <AltitudeMeters>6.80000019073486328125</AltitudeMeters>
            <DistanceMeters>91792.981590347</DistanceMeters>
          </Trackpoint>
          <Trackpoint>
            <Time>2018-04-21T14:35:28.000Z</Time>
            <Position>
              <LatitudeDegrees>43.296802975237369537353515625</LatitudeDegrees>
              <LongitudeDegrees>-8.35753924213349819183349609375</LongitudeDegrees>
            </Position>
            <AltitudeMeters>6.400000095367431640625</AltitudeMeters>
            <DistanceMeters>91812.213879894</DistanceMeters>
          </Trackpoint>
          <Trackpoint>
            <Time>2018-04-21T14:35:30.000Z</Time>
            <Position>
              <LatitudeDegrees>43.296917974948883056640625</LatitudeDegrees>
              <LongitudeDegrees>-8.3575924672186374664306640625</LongitudeDegrees>
            </Position>
            <AltitudeMeters>6.400000095367431640625</AltitudeMeters>
            <DistanceMeters>91825.720382192</DistanceMeters>
          </Trackpoint>
          <Trackpoint>
            <Time>2018-04-21T14:35:34.000Z</Time>
            <Position>
              <LatitudeDegrees>43.297156356275081634521484375</LatitudeDegrees>
              <LongitudeDegrees>-8.3576544933021068572998046875</LongitudeDegrees>
            </Position>
            <AltitudeMeters>7</AltitudeMeters>
            <DistanceMeters>91852.72435955</DistanceMeters>
          </Trackpoint>
          <Trackpoint>
            <Time>2018-04-21T14:35:41.000Z</Time>
            <Position>
              <LatitudeDegrees>43.2975548319518566131591796875</LatitudeDegrees>
              <LongitudeDegrees>-8.35778273642063140869140625</LongitudeDegrees>
            </Position>
            <AltitudeMeters>7</AltitudeMeters>
            <DistanceMeters>91898.275868804</DistanceMeters>
          </Trackpoint>
          <Trackpoint>
            <Time>2018-04-21T14:35:47.000Z</Time>
            <Position>
              <LatitudeDegrees>43.29790175892412662506103515625</LatitudeDegrees>
              <LongitudeDegrees>-8.3578952215611934661865234375</LongitudeDegrees>
            </Position>
            <AltitudeMeters>7</AltitudeMeters>
            <DistanceMeters>91937.949948818</DistanceMeters>
          </Trackpoint>
          <Trackpoint>
            <Time>2018-04-21T14:35:54.000Z</Time>
            <Position>
              <LatitudeDegrees>43.2982937805354595184326171875</LatitudeDegrees>
              <LongitudeDegrees>-8.35798256099224090576171875</LongitudeDegrees>
            </Position>
            <AltitudeMeters>7</AltitudeMeters>
            <DistanceMeters>91982.152593089</DistanceMeters>
          </Trackpoint>
          <Trackpoint>
            <Time>2018-04-21T14:36:01.000Z</Time>
            <Position>
              <LatitudeDegrees>43.29868345521390438079833984375</LatitudeDegrees>
              <LongitudeDegrees>-8.35806570947170257568359375</LongitudeDegrees>
            </Position>
            <AltitudeMeters>7.19999980926513671875</AltitudeMeters>
            <DistanceMeters>92026.044032441</DistanceMeters>
          </Trackpoint>
          <Trackpoint>
            <Time>2018-04-21T14:36:05.000Z</Time>
            <Position>
              <LatitudeDegrees>43.29884069971740245819091796875</LatitudeDegrees>
              <LongitudeDegrees>-8.35796839557588100433349609375</LongitudeDegrees>
            </Position>
            <AltitudeMeters>7.19999980926513671875</AltitudeMeters>
            <DistanceMeters>92045.238958308</DistanceMeters>
          </Trackpoint>
          <Trackpoint>
            <Time>2018-04-21T14:36:08.000Z</Time>
            <Position>
              <LatitudeDegrees>43.2989401929080486297607421875</LatitudeDegrees>
              <LongitudeDegrees>-8.3579577505588531494140625</LongitudeDegrees>
            </Position>
            <AltitudeMeters>7.599999904632568359375</AltitudeMeters>
            <DistanceMeters>92056.346113857</DistanceMeters>
          </Trackpoint>
          <Trackpoint>
            <Time>2018-04-21T14:36:09.000Z</Time>
            <Position>
              <LatitudeDegrees>43.29898050986230373382568359375</LatitudeDegrees>
              <LongitudeDegrees>-8.35797560401260852813720703125</LongitudeDegrees>
            </Position>
            <AltitudeMeters>7.19999980926513671875</AltitudeMeters>
            <DistanceMeters>92061.060243483</DistanceMeters>
          </Trackpoint>
          <Trackpoint>
            <Time>2018-04-21T14:36:13.000Z</Time>
            <Position>
              <LatitudeDegrees>43.2991638220846652984619140625</LatitudeDegrees>
              <LongitudeDegrees>-8.358040563762187957763671875</LongitudeDegrees>
            </Position>
            <AltitudeMeters>6.80000019073486328125</AltitudeMeters>
            <DistanceMeters>92082.130689808</DistanceMeters>
          </Trackpoint>
          <Trackpoint>
            <Time>2018-04-21T14:36:14.000Z</Time>
            <Position>
              <LatitudeDegrees>43.29921922646462917327880859375</LatitudeDegrees>
              <LongitudeDegrees>-8.35805808193981647491455078125</LongitudeDegrees>
            </Position>
            <AltitudeMeters>6.599999904632568359375</AltitudeMeters>
            <DistanceMeters>92088.458355962</DistanceMeters>
          </Trackpoint>
          <Trackpoint>
            <Time>2018-04-21T14:36:20.000Z</Time>
            <Position>
              <LatitudeDegrees>43.29951636493206024169921875</LatitudeDegrees>
              <LongitudeDegrees>-8.358188085258007049560546875</LongitudeDegrees>
            </Position>
            <AltitudeMeters>6.599999904632568359375</AltitudeMeters>
            <DistanceMeters>92123.166660128</DistanceMeters>
          </Trackpoint>
          <Trackpoint>
            <Time>2018-04-21T14:36:28.000Z</Time>
            <Position>
              <LatitudeDegrees>43.29984988085925579071044921875</LatitudeDegrees>
              <LongitudeDegrees>-8.358297385275363922119140625</LongitudeDegrees>
            </Position>
            <AltitudeMeters>7.599999904632568359375</AltitudeMeters>
            <DistanceMeters>92161.328849121</DistanceMeters>
          </Trackpoint>
          <Trackpoint>
            <Time>2018-04-21T14:36:35.000Z</Time>
            <Position>
              <LatitudeDegrees>43.3001709915697574615478515625</LatitudeDegrees>
              <LongitudeDegrees>-8.35821968503296375274658203125</LongitudeDegrees>
            </Position>
            <AltitudeMeters>7.19999980926513671875</AltitudeMeters>
            <DistanceMeters>92197.619102205</DistanceMeters>
          </Trackpoint>
          <Trackpoint>
            <Time>2018-04-21T14:36:41.000Z</Time>
            <Position>
              <LatitudeDegrees>43.30045647919178009033203125</LatitudeDegrees>
              <LongitudeDegrees>-8.3580677211284637451171875</LongitudeDegrees>
            </Position>
            <AltitudeMeters>7.80000019073486328125</AltitudeMeters>
            <DistanceMeters>92231.695422283</DistanceMeters>
          </Trackpoint>
          <Trackpoint>
            <Time>2018-04-21T14:36:47.000Z</Time>
            <Position>
              <LatitudeDegrees>43.30076283775269985198974609375</LatitudeDegrees>
              <LongitudeDegrees>-8.35783612914383411407470703125</LongitudeDegrees>
            </Position>
            <AltitudeMeters>7.400000095367431640625</AltitudeMeters>
            <DistanceMeters>92270.613357633</DistanceMeters>
          </Trackpoint>
          <Trackpoint>
            <Time>2018-04-21T14:36:51.000Z</Time>
            <Position>
              <LatitudeDegrees>43.3009669370949268341064453125</LatitudeDegrees>
              <LongitudeDegrees>-8.3576145954430103302001953125</LongitudeDegrees>
            </Position>
            <AltitudeMeters>6.80000019073486328125</AltitudeMeters>
            <DistanceMeters>92299.562369265</DistanceMeters>
          </Trackpoint>
          <Trackpoint>
            <Time>2018-04-21T14:36:52.000Z</Time>
            <Position>
              <LatitudeDegrees>43.30101840198040008544921875</LatitudeDegrees>
              <LongitudeDegrees>-8.3575495518743991851806640625</LongitudeDegrees>
            </Position>
            <AltitudeMeters>6.80000019073486328125</AltitudeMeters>
            <DistanceMeters>92307.345283422</DistanceMeters>
          </Trackpoint>
          <Trackpoint>
            <Time>2018-04-21T14:36:59.000Z</Time>
            <Position>
              <LatitudeDegrees>43.3013384230434894561767578125</LatitudeDegrees>
              <LongitudeDegrees>-8.3571659959852695465087890625</LongitudeDegrees>
            </Position>
            <AltitudeMeters>6.400000095367431640625</AltitudeMeters>
            <DistanceMeters>92354.60997015</DistanceMeters>
          </Trackpoint>
          <Trackpoint>
            <Time>2018-04-21T14:37:04.000Z</Time>
            <Position>
              <LatitudeDegrees>43.3015694282948970794677734375</LatitudeDegrees>
              <LongitudeDegrees>-8.35696726106107234954833984375</LongitudeDegrees>
            </Position>
            <AltitudeMeters>6.400000095367431640625</AltitudeMeters>
            <DistanceMeters>92384.944932488</DistanceMeters>
          </Trackpoint>
          <Trackpoint>
            <Time>2018-04-21T14:37:05.000Z</Time>
            <Position>
              <LatitudeDegrees>43.3016244135797023773193359375</LatitudeDegrees>
              <LongitudeDegrees>-8.35695669986307621002197265625</LongitudeDegrees>
            </Position>
            <AltitudeMeters>6.19999980926513671875</AltitudeMeters>
            <DistanceMeters>92391.123861457</DistanceMeters>
          </Trackpoint>
          <Trackpoint>
            <Time>2018-04-21T14:37:07.000Z</Time>
            <Position>
              <LatitudeDegrees>43.30173052847385406494140625</LatitudeDegrees>
              <LongitudeDegrees>-8.356916718184947967529296875</LongitudeDegrees>
            </Position>
            <AltitudeMeters>5.80000019073486328125</AltitudeMeters>
            <DistanceMeters>92403.37051568</DistanceMeters>
          </Trackpoint>
          <Trackpoint>
            <Time>2018-04-21T14:37:08.000Z</Time>
            <Position>
              <LatitudeDegrees>43.30178224481642246246337890625</LatitudeDegrees>
              <LongitudeDegrees>-8.35690825246274471282958984375</LongitudeDegrees>
            </Position>
            <AltitudeMeters>5.80000019073486328125</AltitudeMeters>
            <DistanceMeters>92409.167924112</DistanceMeters>
          </Trackpoint>
          <Trackpoint>
            <Time>2018-04-21T14:37:10.000Z</Time>
            <Position>
              <LatitudeDegrees>43.30188852734863758087158203125</LatitudeDegrees>
              <LongitudeDegrees>-8.3568929135799407958984375</LongitudeDegrees>
            </Position>
            <AltitudeMeters>6</AltitudeMeters>
            <DistanceMeters>92421.062596773</DistanceMeters>
          </Trackpoint>
          <Trackpoint>
            <Time>2018-04-21T14:37:16.000Z</Time>
            <Position>
              <LatitudeDegrees>43.3022560738027095794677734375</LatitudeDegrees>
              <LongitudeDegrees>-8.3568660914897918701171875</LongitudeDegrees>
            </Position>
            <AltitudeMeters>6</AltitudeMeters>
            <DistanceMeters>92462.028920835</DistanceMeters>
          </Trackpoint>
          <Trackpoint>
            <Time>2018-04-21T14:37:22.000Z</Time>
            <Position>
              <LatitudeDegrees>43.30262864939868450164794921875</LatitudeDegrees>
              <LongitudeDegrees>-8.35692132823169231414794921875</LongitudeDegrees>
            </Position>
            <AltitudeMeters>6.599999904632568359375</AltitudeMeters>
            <DistanceMeters>92503.737963343</DistanceMeters>
          </Trackpoint>
          <Trackpoint>
            <Time>2018-04-21T14:37:23.000Z</Time>
            <Position>
              <LatitudeDegrees>43.30268681980669498443603515625</LatitudeDegrees>
              <LongitudeDegrees>-8.35694027133285999298095703125</LongitudeDegrees>
            </Position>
            <AltitudeMeters>6.80000019073486328125</AltitudeMeters>
            <DistanceMeters>92510.392547844</DistanceMeters>
          </Trackpoint>
          <Trackpoint>
            <Time>2018-04-21T14:37:28.000Z</Time>
            <Position>
              <LatitudeDegrees>43.3029852993786334991455078125</LatitudeDegrees>
              <LongitudeDegrees>-8.3570020459592342376708984375</LongitudeDegrees>
            </Position>
            <AltitudeMeters>6.599999904632568359375</AltitudeMeters>
            <DistanceMeters>92543.988489784</DistanceMeters>
          </Trackpoint>
          <Trackpoint>
            <Time>2018-04-21T14:37:30.000Z</Time>
            <Position>
              <LatitudeDegrees>43.30310172401368618011474609375</LatitudeDegrees>
              <LongitudeDegrees>-8.3570248447358608245849609375</LongitudeDegrees>
            </Position>
            <AltitudeMeters>7</AltitudeMeters>
            <DistanceMeters>92557.077363315</DistanceMeters>
          </Trackpoint>
          <Trackpoint>
            <Time>2018-04-21T14:37:31.000Z</Time>
            <Position>
              <LatitudeDegrees>43.30315855331718921661376953125</LatitudeDegrees>
              <LongitudeDegrees>-8.357041440904140472412109375</LongitudeDegrees>
            </Position>
            <AltitudeMeters>7.19999980926513671875</AltitudeMeters>
            <DistanceMeters>92563.543370888</DistanceMeters>
          </Trackpoint>
          <Trackpoint>
            <Time>2018-04-21T14:37:33.000Z</Time>
            <Position>
              <LatitudeDegrees>43.3032682724297046661376953125</LatitudeDegrees>
              <LongitudeDegrees>-8.357064910233020782470703125</LongitudeDegrees>
            </Position>
            <AltitudeMeters>5.80000019073486328125</AltitudeMeters>
            <DistanceMeters>92575.90269017</DistanceMeters>
          </Trackpoint>
          <Trackpoint>
            <Time>2018-04-21T14:37:35.000Z</Time>
            <Position>
              <LatitudeDegrees>43.30337514169514179229736328125</LatitudeDegrees>
              <LongitudeDegrees>-8.35706801153719425201416015625</LongitudeDegrees>
            </Position>
            <AltitudeMeters>5.599999904632568359375</AltitudeMeters>
            <DistanceMeters>92587.800399124</DistanceMeters>
          </Trackpoint>
          <Trackpoint>
            <Time>2018-04-21T14:37:37.000Z</Time>
            <Position>
              <LatitudeDegrees>43.30349500291049480438232421875</LatitudeDegrees>
              <LongitudeDegrees>-8.3570489846169948577880859375</LongitudeDegrees>
            </Position>
            <AltitudeMeters>6</AltitudeMeters>
            <DistanceMeters>92601.229795489</DistanceMeters>
          </Trackpoint>
          <Trackpoint>
            <Time>2018-04-21T14:37:44.000Z</Time>
            <Position>
              <LatitudeDegrees>43.30390135757625102996826171875</LatitudeDegrees>
              <LongitudeDegrees>-8.35691898129880428314208984375</LongitudeDegrees>
            </Position>
            <AltitudeMeters>5.19999980926513671875</AltitudeMeters>
            <DistanceMeters>92647.667436422</DistanceMeters>
          </Trackpoint>
          <Trackpoint>
            <Time>2018-04-21T14:37:49.000Z</Time>
            <Position>
              <LatitudeDegrees>43.3041943050920963287353515625</LatitudeDegrees>
              <LongitudeDegrees>-8.3568796701729297637939453125</LongitudeDegrees>
            </Position>
            <AltitudeMeters>5.80000019073486328125</AltitudeMeters>
            <DistanceMeters>92680.428232135</DistanceMeters>
          </Trackpoint>
          <Trackpoint>
            <Time>2018-04-21T14:37:50.000Z</Time>
            <Position>
              <LatitudeDegrees>43.30424853600561618804931640625</LatitudeDegrees>
              <LongitudeDegrees>-8.35687874816358089447021484375</LongitudeDegrees>
            </Position>
            <AltitudeMeters>5.599999904632568359375</AltitudeMeters>
            <DistanceMeters>92686.465233753</DistanceMeters>
          </Trackpoint>
          <Trackpoint>
            <Time>2018-04-21T14:37:56.000Z</Time>
            <Position>
              <LatitudeDegrees>43.30459990538656711578369140625</LatitudeDegrees>
              <LongitudeDegrees>-8.3569304645061492919921875</LongitudeDegrees>
            </Position>
            <AltitudeMeters>5.80000019073486328125</AltitudeMeters>
            <DistanceMeters>92725.796996312</DistanceMeters>
          </Trackpoint>
          <Trackpoint>
            <Time>2018-04-21T14:38:03.000Z</Time>
            <Position>
              <LatitudeDegrees>43.30499888397753238677978515625</LatitudeDegrees>
              <LongitudeDegrees>-8.35702811367809772491455078125</LongitudeDegrees>
            </Position>
            <AltitudeMeters>6</AltitudeMeters>
            <DistanceMeters>92770.902965578</DistanceMeters>
          </Trackpoint>
          <Trackpoint>
            <Time>2018-04-21T14:38:09.000Z</Time>
            <Position>
              <LatitudeDegrees>43.30532695166766643524169921875</LatitudeDegrees>
              <LongitudeDegrees>-8.35714177228510379791259765625</LongitudeDegrees>
            </Position>
            <AltitudeMeters>6.400000095367431640625</AltitudeMeters>
            <DistanceMeters>92808.560171324</DistanceMeters>
          </Trackpoint>
          <Trackpoint>
            <Time>2018-04-21T14:38:10.000Z</Time>
            <Position>
              <LatitudeDegrees>43.30537908710539340972900390625</LatitudeDegrees>
              <LongitudeDegrees>-8.35716775618493556976318359375</LongitudeDegrees>
            </Position>
            <AltitudeMeters>6.400000095367431640625</AltitudeMeters>
            <DistanceMeters>92814.731788814</DistanceMeters>
          </Trackpoint>
          <Trackpoint>
            <Time>2018-04-21T14:38:16.000Z</Time>
            <Position>
              <LatitudeDegrees>43.30568234436213970184326171875</LatitudeDegrees>
              <LongitudeDegrees>-8.3574030362069606781005859375</LongitudeDegrees>
            </Position>
            <AltitudeMeters>6.400000095367431640625</AltitudeMeters>
            <DistanceMeters>92853.492904881</DistanceMeters>
          </Trackpoint>
          <Trackpoint>
            <Time>2018-04-21T14:38:19.000Z</Time>
            <Position>
              <LatitudeDegrees>43.30584897659718990325927734375</LatitudeDegrees>
              <LongitudeDegrees>-8.35750940255820751190185546875</LongitudeDegrees>
            </Position>
            <AltitudeMeters>6</AltitudeMeters>
            <DistanceMeters>92873.942424193</DistanceMeters>
          </Trackpoint>
          <Trackpoint>
            <Time>2018-04-21T14:38:21.000Z</Time>
            <Position>
              <LatitudeDegrees>43.3059712685644626617431640625</LatitudeDegrees>
              <LongitudeDegrees>-8.357522226870059967041015625</LongitudeDegrees>
            </Position>
            <AltitudeMeters>6</AltitudeMeters>
            <DistanceMeters>92887.593566548</DistanceMeters>
          </Trackpoint>
          <Trackpoint>
            <Time>2018-04-21T14:38:24.000Z</Time>
            <Position>
              <LatitudeDegrees>43.30616530962288379669189453125</LatitudeDegrees>
              <LongitudeDegrees>-8.357449471950531005859375</LongitudeDegrees>
            </Position>
            <AltitudeMeters>5.80000019073486328125</AltitudeMeters>
            <DistanceMeters>92909.980174432</DistanceMeters>
          </Trackpoint>
          <Trackpoint>
            <Time>2018-04-21T14:38:25.000Z</Time>
            <Position>
              <LatitudeDegrees>43.30622482113540172576904296875</LatitudeDegrees>
              <LongitudeDegrees>-8.35742055438458919525146484375</LongitudeDegrees>
            </Position>
            <AltitudeMeters>5.80000019073486328125</AltitudeMeters>
            <DistanceMeters>92917.005727637</DistanceMeters>
          </Trackpoint>
          <Trackpoint>
            <Time>2018-04-21T14:38:32.000Z</Time>
            <Position>
              <LatitudeDegrees>43.3066170103847980499267578125</LatitudeDegrees>
              <LongitudeDegrees>-8.357222490012645721435546875</LongitudeDegrees>
            </Position>
            <AltitudeMeters>6</AltitudeMeters>
            <DistanceMeters>92963.511572529</DistanceMeters>
          </Trackpoint>
          <Trackpoint>
            <Time>2018-04-21T14:38:39.000Z</Time>
            <Position>
              <LatitudeDegrees>43.30698321573436260223388671875</LatitudeDegrees>
              <LongitudeDegrees>-8.35701839067041873931884765625</LongitudeDegrees>
            </Position>
            <AltitudeMeters>5.400000095367431640625</AltitudeMeters>
            <DistanceMeters>93007.495598576</DistanceMeters>
          </Trackpoint>
          <Trackpoint>
            <Time>2018-04-21T14:38:46.000Z</Time>
            <Position>
              <LatitudeDegrees>43.30731279216706752777099609375</LatitudeDegrees>
              <LongitudeDegrees>-8.3567603118717670440673828125</LongitudeDegrees>
            </Position>
            <AltitudeMeters>5.400000095367431640625</AltitudeMeters>
            <DistanceMeters>93049.715594549</DistanceMeters>
          </Trackpoint>
          <Trackpoint>
            <Time>2018-04-21T14:38:47.000Z</Time>
            <Position>
              <LatitudeDegrees>43.3073539473116397857666015625</LatitudeDegrees>
              <LongitudeDegrees>-8.3567076735198497772216796875</LongitudeDegrees>
            </Position>
            <AltitudeMeters>5.599999904632568359375</AltitudeMeters>
            <DistanceMeters>93055.972943146</DistanceMeters>
          </Trackpoint>
          <Trackpoint>
            <Time>2018-04-21T14:38:51.000Z</Time>
            <Position>
              <LatitudeDegrees>43.30751311965286731719970703125</LatitudeDegrees>
              <LongitudeDegrees>-8.3564733155071735382080078125</LongitudeDegrees>
            </Position>
            <AltitudeMeters>5.400000095367431640625</AltitudeMeters>
            <DistanceMeters>93081.937330044</DistanceMeters>
          </Trackpoint>
          <Trackpoint>
            <Time>2018-04-21T14:38:53.000Z</Time>
            <Position>
              <LatitudeDegrees>43.307574726641178131103515625</LatitudeDegrees>
              <LongitudeDegrees>-8.3563484251499176025390625</LongitudeDegrees>
            </Position>
            <AltitudeMeters>4.599999904632568359375</AltitudeMeters>
            <DistanceMeters>93094.15778029</DistanceMeters>
          </Trackpoint>
          <Trackpoint>
            <Time>2018-04-21T14:38:56.000Z</Time>
            <Position>
              <LatitudeDegrees>43.3075889758765697479248046875</LatitudeDegrees>
              <LongitudeDegrees>-8.3561631850898265838623046875</LongitudeDegrees>
            </Position>
            <AltitudeMeters>4</AltitudeMeters>
            <DistanceMeters>93109.244599268</DistanceMeters>
          </Trackpoint>
          <Trackpoint>
            <Time>2018-04-21T14:38:59.000Z</Time>
            <Position>
              <LatitudeDegrees>43.3075363375246524810791015625</LatitudeDegrees>
              <LongitudeDegrees>-8.35603536106646060943603515625</LongitudeDegrees>
            </Position>
            <AltitudeMeters>3.7999999523162841796875</AltitudeMeters>
            <DistanceMeters>93121.140410629</DistanceMeters>
          </Trackpoint>
          <Trackpoint>
            <Time>2018-04-21T14:39:00.000Z</Time>
            <Position>
              <LatitudeDegrees>43.30751563422381877899169921875</LatitudeDegrees>
              <LongitudeDegrees>-8.355985991656780242919921875</LongitudeDegrees>
            </Position>
            <AltitudeMeters>4</AltitudeMeters>
            <DistanceMeters>93125.756792373</DistanceMeters>
          </Trackpoint>
          <Trackpoint>
            <Time>2018-04-21T14:39:03.000Z</Time>
            <Position>
              <LatitudeDegrees>43.3074525184929370880126953125</LatitudeDegrees>
              <LongitudeDegrees>-8.35582195781171321868896484375</LongitudeDegrees>
            </Position>
            <AltitudeMeters>4.599999904632568359375</AltitudeMeters>
            <DistanceMeters>93140.785140318</DistanceMeters>
          </Trackpoint>
          <Trackpoint>
            <Time>2018-04-21T14:39:07.000Z</Time>
            <Position>
              <LatitudeDegrees>43.30735067836940288543701171875</LatitudeDegrees>
              <LongitudeDegrees>-8.35559070110321044921875</LongitudeDegrees>
            </Position>
            <AltitudeMeters>4.599999904632568359375</AltitudeMeters>
            <DistanceMeters>93162.678024949</DistanceMeters>
          </Trackpoint>
          <Trackpoint>
            <Time>2018-04-21T14:39:09.000Z</Time>
            <Position>
              <LatitudeDegrees>43.30731379799544811248779296875</LatitudeDegrees>
              <LongitudeDegrees>-8.35546388290822505950927734375</LongitudeDegrees>
            </Position>
            <AltitudeMeters>4.80000019073486328125</AltitudeMeters>
            <DistanceMeters>93173.739559012</DistanceMeters>
          </Trackpoint>
          <Trackpoint>
            <Time>2018-04-21T14:39:12.000Z</Time>
            <Position>
              <LatitudeDegrees>43.30727943219244480133056640625</LatitudeDegrees>
              <LongitudeDegrees>-8.35526280105113983154296875</LongitudeDegrees>
            </Position>
            <AltitudeMeters>5.400000095367431640625</AltitudeMeters>
            <DistanceMeters>93190.469119356</DistanceMeters>
          </Trackpoint>
          <Trackpoint>
            <Time>2018-04-21T14:39:13.000Z</Time>
            <Position>
              <LatitudeDegrees>43.30727440305054187774658203125</LatitudeDegrees>
              <LongitudeDegrees>-8.3551928959786891937255859375</LongitudeDegrees>
            </Position>
            <AltitudeMeters>5</AltitudeMeters>
            <DistanceMeters>93196.15883148</DistanceMeters>
          </Trackpoint>
          <Trackpoint>
            <Time>2018-04-21T14:39:17.000Z</Time>
            <Position>
              <LatitudeDegrees>43.307258896529674530029296875</LatitudeDegrees>
              <LongitudeDegrees>-8.35491034202277660369873046875</LongitudeDegrees>
            </Position>
            <AltitudeMeters>4.80000019073486328125</AltitudeMeters>
            <DistanceMeters>93219.108914243</DistanceMeters>
          </Trackpoint>
          <Trackpoint>
            <Time>2018-04-21T14:39:19.000Z</Time>
            <Position>
              <LatitudeDegrees>43.30727742053568363189697265625</LatitudeDegrees>
              <LongitudeDegrees>-8.35477019660174846649169921875</LongitudeDegrees>
            </Position>
            <AltitudeMeters>5</AltitudeMeters>
            <DistanceMeters>93230.645955752</DistanceMeters>
          </Trackpoint>
          <Trackpoint>
            <Time>2018-04-21T14:39:24.000Z</Time>
            <Position>
              <LatitudeDegrees>43.30736258067190647125244140625</LatitudeDegrees>
              <LongitudeDegrees>-8.3544204197824001312255859375</LongitudeDegrees>
            </Position>
            <AltitudeMeters>5.599999904632568359375</AltitudeMeters>
            <DistanceMeters>93260.518975428</DistanceMeters>
          </Trackpoint>
          <Trackpoint>
            <Time>2018-04-21T14:39:25.000Z</Time>
            <Position>
              <LatitudeDegrees>43.30739057622849941253662109375</LatitudeDegrees>
              <LongitudeDegrees>-8.35436065681278705596923828125</LongitudeDegrees>
            </Position>
            <AltitudeMeters>5.400000095367431640625</AltitudeMeters>
            <DistanceMeters>93266.274959312</DistanceMeters>
          </Trackpoint>
          <Trackpoint>
            <Time>2018-04-21T14:39:31.000Z</Time>
            <Position>
              <LatitudeDegrees>43.307602219283580780029296875</LatitudeDegrees>
              <LongitudeDegrees>-8.35404080338776111602783203125</LongitudeDegrees>
            </Position>
            <AltitudeMeters>5.400000095367431640625</AltitudeMeters>
            <DistanceMeters>93301.289305639</DistanceMeters>
          </Trackpoint>
          <Trackpoint>
            <Time>2018-04-21T14:39:35.000Z</Time>
            <Position>
              <LatitudeDegrees>43.3076416142284870147705078125</LatitudeDegrees>
              <LongitudeDegrees>-8.3539010770618915557861328125</LongitudeDegrees>
            </Position>
            <AltitudeMeters>6.400000095367431640625</AltitudeMeters>
            <DistanceMeters>93313.426341399</DistanceMeters>
          </Trackpoint>
          <Trackpoint>
            <Time>2018-04-21T14:39:36.000Z</Time>
            <Position>
              <LatitudeDegrees>43.3076359145343303680419921875</LatitudeDegrees>
              <LongitudeDegrees>-8.35387735627591609954833984375</LongitudeDegrees>
            </Position>
            <AltitudeMeters>6.599999904632568359375</AltitudeMeters>
            <DistanceMeters>93315.451101806</DistanceMeters>
          </Trackpoint>
          <Trackpoint>
            <Time>2018-04-21T14:39:40.000Z</Time>
            <Position>
              <LatitudeDegrees>43.307561986148357391357421875</LatitudeDegrees>
              <LongitudeDegrees>-8.3537927828729152679443359375</LongitudeDegrees>
            </Position>
            <AltitudeMeters>7</AltitudeMeters>
            <DistanceMeters>93326.156695214</DistanceMeters>
          </Trackpoint>
          <Trackpoint>
            <Time>2018-04-21T14:39:43.000Z</Time>
            <Position>
              <LatitudeDegrees>43.30746903084218502044677734375</LatitudeDegrees>
              <LongitudeDegrees>-8.3538001589477062225341796875</LongitudeDegrees>
            </Position>
            <AltitudeMeters>7.400000095367431640625</AltitudeMeters>
            <DistanceMeters>93336.519836589</DistanceMeters>
          </Trackpoint>
          <Trackpoint>
            <Time>2018-04-21T14:39:44.000Z</Time>
            <Position>
              <LatitudeDegrees>43.30744405277073383331298828125</LatitudeDegrees>
              <LongitudeDegrees>-8.3538125641644001007080078125</LongitudeDegrees>
            </Position>
            <AltitudeMeters>7.400000095367431640625</AltitudeMeters>
            <DistanceMeters>93339.474846558</DistanceMeters>
          </Trackpoint>
          <Trackpoint>
            <Time>2018-04-21T14:39:45.000Z</Time>
            <Position>
              <LatitudeDegrees>43.30742024816572666168212890625</LatitudeDegrees>
              <LongitudeDegrees>-8.353812396526336669921875</LongitudeDegrees>
            </Position>
            <AltitudeMeters>8</AltitudeMeters>
            <DistanceMeters>93342.121984507</DistanceMeters>
          </Trackpoint>
          <Trackpoint>
            <Time>2018-04-21T14:39:49.000Z</Time>
            <Position>
              <LatitudeDegrees>43.30733525566756725311279296875</LatitudeDegrees>
              <LongitudeDegrees>-8.35389378480613231658935546875</LongitudeDegrees>
            </Position>
            <AltitudeMeters>8.6000003814697265625</AltitudeMeters>
            <DistanceMeters>93353.651979538</DistanceMeters>
          </Trackpoint>
          <Trackpoint>
            <Time>2018-04-21T14:39:51.000Z</Time>
            <Position>
              <LatitudeDegrees>43.3072952739894390106201171875</LatitudeDegrees>
              <LongitudeDegrees>-8.35392915643751621246337890625</LongitudeDegrees>
            </Position>
            <AltitudeMeters>9.19999980926513671875</AltitudeMeters>
            <DistanceMeters>93358.944549531</DistanceMeters>
          </Trackpoint>
          <Trackpoint>
            <Time>2018-04-21T14:39:55.000Z</Time>
            <Position>
              <LatitudeDegrees>43.3072235248982906341552734375</LatitudeDegrees>
              <LongitudeDegrees>-8.3540076948702335357666015625</LongitudeDegrees>
            </Position>
            <AltitudeMeters>10.19999980926513671875</AltitudeMeters>
            <DistanceMeters>93369.154063349</DistanceMeters>
          </Trackpoint>
          <Trackpoint>
            <Time>2018-04-21T14:39:56.000Z</Time>
            <Position>
              <LatitudeDegrees>43.3072030730545520782470703125</LatitudeDegrees>
              <LongitudeDegrees>-8.35402102209627628326416015625</LongitudeDegrees>
            </Position>
            <AltitudeMeters>10.3999996185302734375</AltitudeMeters>
            <DistanceMeters>93371.673615638</DistanceMeters>
          </Trackpoint>
          <Trackpoint>
            <Time>2018-04-21T14:39:59.000Z</Time>
            <Position>
              <LatitudeDegrees>43.30714456737041473388671875</LatitudeDegrees>
              <LongitudeDegrees>-8.3540217764675617218017578125</LongitudeDegrees>
            </Position>
            <AltitudeMeters>11.3999996185302734375</AltitudeMeters>
            <DistanceMeters>93378.186239461</DistanceMeters>
          </Trackpoint>
          <Trackpoint>
            <Time>2018-04-21T14:40:01.000Z</Time>
            <Position>
              <LatitudeDegrees>43.307114727795124053955078125</LatitudeDegrees>
              <LongitudeDegrees>-8.3540013246238231658935546875</LongitudeDegrees>
            </Position>
            <AltitudeMeters>11.80000019073486328125</AltitudeMeters>
            <DistanceMeters>93381.89836778</DistanceMeters>
          </Trackpoint>
          <Trackpoint>
            <Time>2018-04-21T14:51:15.000Z</Time>
            <Position>
              <LatitudeDegrees>43.3071159012615680694580078125</LatitudeDegrees>
              <LongitudeDegrees>-8.35392035543918609619140625</LongitudeDegrees>
            </Position>
            <AltitudeMeters>11.80000019073486328125</AltitudeMeters>
            <DistanceMeters>93388.457276544</DistanceMeters>
          </Trackpoint>
          <Trackpoint>
            <Time>2018-04-21T14:51:16.000Z</Time>
            <Position>
              <LatitudeDegrees>43.3071159012615680694580078125</LatitudeDegrees>
              <LongitudeDegrees>-8.35392035543918609619140625</LongitudeDegrees>
            </Position>
            <AltitudeMeters>12</AltitudeMeters>
            <DistanceMeters>93388.457276544</DistanceMeters>
          </Trackpoint>
          <Trackpoint>
            <Time>2018-04-21T14:51:23.000Z</Time>
            <Position>
              <LatitudeDegrees>43.30712403170764446258544921875</LatitudeDegrees>
              <LongitudeDegrees>-8.3539366163313388824462890625</LongitudeDegrees>
            </Position>
            <AltitudeMeters>11.6000003814697265625</AltitudeMeters>
            <DistanceMeters>93390.055873314</DistanceMeters>
          </Trackpoint>
          <Trackpoint>
            <Time>2018-04-21T14:51:24.000Z</Time>
            <Position>
              <LatitudeDegrees>43.30713828094303607940673828125</LatitudeDegrees>
              <LongitudeDegrees>-8.35393954999744892120361328125</LongitudeDegrees>
            </Position>
            <AltitudeMeters>11.6000003814697265625</AltitudeMeters>
            <DistanceMeters>93391.660108891</DistanceMeters>
          </Trackpoint>
          <Trackpoint>
            <Time>2018-04-21T14:51:28.000Z</Time>
            <Position>
              <LatitudeDegrees>43.3072530291974544525146484375</LatitudeDegrees>
              <LongitudeDegrees>-8.35384584031999111175537109375</LongitudeDegrees>
            </Position>
            <AltitudeMeters>11</AltitudeMeters>
            <DistanceMeters>93406.516525971</DistanceMeters>
          </Trackpoint>
          <Trackpoint>
            <Time>2018-04-21T14:51:29.000Z</Time>
            <Position>
              <LatitudeDegrees>43.30729451961815357208251953125</LatitudeDegrees>
              <LongitudeDegrees>-8.35380862466990947723388671875</LongitudeDegrees>
            </Position>
            <AltitudeMeters>10.6000003814697265625</AltitudeMeters>
            <DistanceMeters>93412.031351214</DistanceMeters>
          </Trackpoint>
          <Trackpoint>
            <Time>2018-04-21T14:51:30.000Z</Time>
            <Position>
              <LatitudeDegrees>43.3073438890278339385986328125</LatitudeDegrees>
              <LongitudeDegrees>-8.35378062911331653594970703125</LongitudeDegrees>
            </Position>
            <AltitudeMeters>10.19999980926513671875</AltitudeMeters>
            <DistanceMeters>93417.97565009</DistanceMeters>
          </Trackpoint>
          <Trackpoint>
            <Time>2018-04-21T14:51:32.000Z</Time>
            <Position>
              <LatitudeDegrees>43.3074401132762432098388671875</LatitudeDegrees>
              <LongitudeDegrees>-8.35374391637742519378662109375</LongitudeDegrees>
            </Position>
            <AltitudeMeters>9</AltitudeMeters>
            <DistanceMeters>93429.090932628</DistanceMeters>
          </Trackpoint>
          <Trackpoint>
            <Time>2018-04-21T14:51:33.000Z</Time>
            <Position>
              <LatitudeDegrees>43.3074816875159740447998046875</LatitudeDegrees>
              <LongitudeDegrees>-8.35373796522617340087890625</LongitudeDegrees>
            </Position>
            <AltitudeMeters>8.6000003814697265625</AltitudeMeters>
            <DistanceMeters>93433.743361374</DistanceMeters>
          </Trackpoint>
          <Trackpoint>
            <Time>2018-04-21T14:51:34.000Z</Time>
            <Position>
              <LatitudeDegrees>43.3075232617557048797607421875</LatitudeDegrees>
              <LongitudeDegrees>-8.3537337742745876312255859375</LongitudeDegrees>
            </Position>
            <AltitudeMeters>8</AltitudeMeters>
            <DistanceMeters>93438.38315687</DistanceMeters>
          </Trackpoint>
          <Trackpoint>
            <Time>2018-04-21T14:51:36.000Z</Time>
            <Position>
              <LatitudeDegrees>43.3076117746531963348388671875</LatitudeDegrees>
              <LongitudeDegrees>-8.35370837710797786712646484375</LongitudeDegrees>
            </Position>
            <AltitudeMeters>7.80000019073486328125</AltitudeMeters>
            <DistanceMeters>93448.447019816</DistanceMeters>
          </Trackpoint>
          <Trackpoint>
            <Time>2018-04-21T14:51:39.000Z</Time>
            <Position>
              <LatitudeDegrees>43.30771923065185546875</LatitudeDegrees>
              <LongitudeDegrees>-8.353608548641204833984375</LongitudeDegrees>
            </Position>
            <AltitudeMeters>7.19999980926513671875</AltitudeMeters>
            <DistanceMeters>93462.883889089</DistanceMeters>
          </Trackpoint>
          <Trackpoint>
            <Time>2018-04-21T14:51:41.000Z</Time>
            <Position>
              <LatitudeDegrees>43.307779915630817413330078125</LatitudeDegrees>
              <LongitudeDegrees>-8.353515677154064178466796875</LongitudeDegrees>
            </Position>
            <AltitudeMeters>7</AltitudeMeters>
            <DistanceMeters>93472.993856214</DistanceMeters>
          </Trackpoint>
          <Trackpoint>
            <Time>2018-04-21T14:51:42.000Z</Time>
            <Position>
              <LatitudeDegrees>43.3078136108815670013427734375</LatitudeDegrees>
              <LongitudeDegrees>-8.35346798412501811981201171875</LongitudeDegrees>
            </Position>
            <AltitudeMeters>7</AltitudeMeters>
            <DistanceMeters>93478.377771646</DistanceMeters>
          </Trackpoint>
          <Trackpoint>
            <Time>2018-04-21T14:51:44.000Z</Time>
            <Position>
              <LatitudeDegrees>43.307883851230144500732421875</LatitudeDegrees>
              <LongitudeDegrees>-8.35336857475340366363525390625</LongitudeDegrees>
            </Position>
            <AltitudeMeters>6.599999904632568359375</AltitudeMeters>
            <DistanceMeters>93489.600583515</DistanceMeters>
          </Trackpoint>
          <Trackpoint>
            <Time>2018-04-21T14:51:45.000Z</Time>
            <Position>
              <LatitudeDegrees>43.30792014487087726593017578125</LatitudeDegrees>
              <LongitudeDegrees>-8.35331694222986698150634765625</LongitudeDegrees>
            </Position>
            <AltitudeMeters>6.599999904632568359375</AltitudeMeters>
            <DistanceMeters>93495.415100366</DistanceMeters>
          </Trackpoint>
          <Trackpoint>
            <Time>2018-04-21T14:51:50.000Z</Time>
            <Position>
              <LatitudeDegrees>43.308109827339649200439453125</LatitudeDegrees>
              <LongitudeDegrees>-8.3530860207974910736083984375</LongitudeDegrees>
            </Position>
            <AltitudeMeters>6</AltitudeMeters>
            <DistanceMeters>93523.620111347</DistanceMeters>
          </Trackpoint>
          <Trackpoint>
            <Time>2018-04-21T14:51:51.000Z</Time>
            <Position>
              <LatitudeDegrees>43.3081309497356414794921875</LatitudeDegrees>
              <LongitudeDegrees>-8.35305810905992984771728515625</LongitudeDegrees>
            </Position>
            <AltitudeMeters>5.400000095367431640625</AltitudeMeters>
            <DistanceMeters>93526.881618675</DistanceMeters>
          </Trackpoint>
          <Trackpoint>
            <Time>2018-04-21T14:51:53.000Z</Time>
            <Position>
              <LatitudeDegrees>43.30816741101443767547607421875</LatitudeDegrees>
              <LongitudeDegrees>-8.3530273474752902984619140625</LongitudeDegrees>
            </Position>
            <AltitudeMeters>4.599999904632568359375</AltitudeMeters>
            <DistanceMeters>93531.642447582</DistanceMeters>
          </Trackpoint>
          <Trackpoint>
            <Time>2018-04-21T14:51:55.000Z</Time>
            <Position>
              <LatitudeDegrees>43.30820127390325069427490234375</LatitudeDegrees>
              <LongitudeDegrees>-8.35301737301051616668701171875</LongitudeDegrees>
            </Position>
            <AltitudeMeters>4.19999980926513671875</AltitudeMeters>
            <DistanceMeters>93535.497769336</DistanceMeters>
          </Trackpoint>
          <Trackpoint>
            <Time>2018-04-21T14:51:59.000Z</Time>
            <Position>
              <LatitudeDegrees>43.30827922560274600982666015625</LatitudeDegrees>
              <LongitudeDegrees>-8.35291452705860137939453125</LongitudeDegrees>
            </Position>
            <AltitudeMeters>4.599999904632568359375</AltitudeMeters>
            <DistanceMeters>93547.52531375</DistanceMeters>
          </Trackpoint>
          <Trackpoint>
            <Time>2018-04-21T14:52:02.000Z</Time>
            <Position>
              <LatitudeDegrees>43.30838617868721485137939453125</LatitudeDegrees>
              <LongitudeDegrees>-8.35286029614508152008056640625</LongitudeDegrees>
            </Position>
            <AltitudeMeters>5</AltitudeMeters>
            <DistanceMeters>93560.213426409</DistanceMeters>
          </Trackpoint>
          <Trackpoint>
            <Time>2018-04-21T14:52:03.000Z</Time>
            <Position>
              <LatitudeDegrees>43.308430351316928863525390625</LatitudeDegrees>
              <LongitudeDegrees>-8.352859206497669219970703125</LongitudeDegrees>
            </Position>
            <AltitudeMeters>5.19999980926513671875</AltitudeMeters>
            <DistanceMeters>93565.131001494</DistanceMeters>
          </Trackpoint>
          <Trackpoint>
            <Time>2018-04-21T14:52:05.000Z</Time>
            <Position>
              <LatitudeDegrees>43.30852883867919445037841796875</LatitudeDegrees>
              <LongitudeDegrees>-8.35285761393606662750244140625</LongitudeDegrees>
            </Position>
            <AltitudeMeters>5</AltitudeMeters>
            <DistanceMeters>93576.094135966</DistanceMeters>
          </Trackpoint>
          <Trackpoint>
            <Time>2018-04-21T14:52:06.000Z</Time>
            <Position>
              <LatitudeDegrees>43.30858197994530200958251953125</LatitudeDegrees>
              <LongitudeDegrees>-8.352863900363445281982421875</LongitudeDegrees>
            </Position>
            <AltitudeMeters>5</AltitudeMeters>
            <DistanceMeters>93582.030073827</DistanceMeters>
          </Trackpoint>
          <Trackpoint>
            <Time>2018-04-21T14:52:08.000Z</Time>
            <Position>
              <LatitudeDegrees>43.3086900226771831512451171875</LatitudeDegrees>
              <LongitudeDegrees>-8.35289080627262592315673828125</LongitudeDegrees>
            </Position>
            <AltitudeMeters>5.19999980926513671875</AltitudeMeters>
            <DistanceMeters>93594.251262983</DistanceMeters>
          </Trackpoint>
          <Trackpoint>
            <Time>2018-04-21T14:52:11.000Z</Time>
            <Position>
              <LatitudeDegrees>43.30885305069386959075927734375</LatitudeDegrees>
              <LongitudeDegrees>-8.35295199416577816009521484375</LongitudeDegrees>
            </Position>
            <AltitudeMeters>5.19999980926513671875</AltitudeMeters>
            <DistanceMeters>93613.061272425</DistanceMeters>
          </Trackpoint>
          <Trackpoint>
            <Time>2018-04-21T14:52:16.000Z</Time>
            <Position>
              <LatitudeDegrees>43.3091247081756591796875</LatitudeDegrees>
              <LongitudeDegrees>-8.35305802524089813232421875</LongitudeDegrees>
            </Position>
            <AltitudeMeters>5.400000095367431640625</AltitudeMeters>
            <DistanceMeters>93644.493001196</DistanceMeters>
          </Trackpoint>
          <Trackpoint>
            <Time>2018-04-21T14:52:17.000Z</Time>
            <Position>
              <LatitudeDegrees>43.309178687632083892822265625</LatitudeDegrees>
              <LongitudeDegrees>-8.3530814945697784423828125</LongitudeDegrees>
            </Position>
            <AltitudeMeters>5.19999980926513671875</AltitudeMeters>
            <DistanceMeters>93650.79421109</DistanceMeters>
          </Trackpoint>
          <Trackpoint>
            <Time>2018-04-21T14:52:21.000Z</Time>
            <Position>
              <LatitudeDegrees>43.30940701067447662353515625</LatitudeDegrees>
              <LongitudeDegrees>-8.35317092947661876678466796875</LongitudeDegrees>
            </Position>
            <AltitudeMeters>4.400000095367431640625</AltitudeMeters>
            <DistanceMeters>93677.219156714</DistanceMeters>
          </Trackpoint>
          <Trackpoint>
            <Time>2018-04-21T14:52:23.000Z</Time>
            <Position>
              <LatitudeDegrees>43.30952636897563934326171875</LatitudeDegrees>
              <LongitudeDegrees>-8.3532094024121761322021484375</LongitudeDegrees>
            </Position>
            <AltitudeMeters>2.2000000476837158203125</AltitudeMeters>
            <DistanceMeters>93690.864344371</DistanceMeters>
          </Trackpoint>
          <Trackpoint>
            <Time>2018-04-21T14:52:24.000Z</Time>
            <Position>
              <LatitudeDegrees>43.3095838688313961029052734375</LatitudeDegrees>
              <LongitudeDegrees>-8.3532342128455638885498046875</LongitudeDegrees>
            </Position>
            <AltitudeMeters>3.7999999523162841796875</AltitudeMeters>
            <DistanceMeters>93697.572315072</DistanceMeters>
          </Trackpoint>
          <Trackpoint>
            <Time>2018-04-21T14:52:26.000Z</Time>
            <Position>
              <LatitudeDegrees>43.309695683419704437255859375</LatitudeDegrees>
              <LongitudeDegrees>-8.35328676737844944000244140625</LongitudeDegrees>
            </Position>
            <AltitudeMeters>7</AltitudeMeters>
            <DistanceMeters>93710.725193255</DistanceMeters>
          </Trackpoint>
          <Trackpoint>
            <Time>2018-04-21T14:52:27.000Z</Time>
            <Position>
              <LatitudeDegrees>43.3097531832754611968994140625</LatitudeDegrees>
              <LongitudeDegrees>-8.35331551730632781982421875</LongitudeDegrees>
            </Position>
            <AltitudeMeters>2.7999999523162841796875</AltitudeMeters>
            <DistanceMeters>93717.535367454</DistanceMeters>
          </Trackpoint>
          <Trackpoint>
            <Time>2018-04-21T14:52:28.000Z</Time>
            <Position>
              <LatitudeDegrees>43.30981227569282054901123046875</LatitudeDegrees>
              <LongitudeDegrees>-8.35334309376776218414306640625</LongitudeDegrees>
            </Position>
            <AltitudeMeters>4.400000095367431640625</AltitudeMeters>
            <DistanceMeters>93724.480773732</DistanceMeters>
          </Trackpoint>
          <Trackpoint>
            <Time>2018-04-21T14:52:29.000Z</Time>
            <Position>
              <LatitudeDegrees>43.3098698593676090240478515625</LatitudeDegrees>
              <LongitudeDegrees>-8.35337293334305286407470703125</LongitudeDegrees>
            </Position>
            <AltitudeMeters>2.599999904632568359375</AltitudeMeters>
            <DistanceMeters>93731.330611482</DistanceMeters>
          </Trackpoint>
          <Trackpoint>
            <Time>2018-04-21T14:52:30.000Z</Time>
            <Position>
              <LatitudeDegrees>43.30992677249014377593994140625</LatitudeDegrees>
              <LongitudeDegrees>-8.35340880788862705230712890625</LongitudeDegrees>
            </Position>
            <AltitudeMeters>6</AltitudeMeters>
            <DistanceMeters>93738.299381181</DistanceMeters>
          </Trackpoint>
          <Trackpoint>
            <Time>2018-04-21T14:52:34.000Z</Time>
            <Position>
              <LatitudeDegrees>43.31012525595724582672119140625</LatitudeDegrees>
              <LongitudeDegrees>-8.3535715006291866302490234375</LongitudeDegrees>
            </Position>
            <AltitudeMeters>5.19999980926513671875</AltitudeMeters>
            <DistanceMeters>93764.021973609</DistanceMeters>
          </Trackpoint>
          <Trackpoint>
            <Time>2018-04-21T14:52:35.000Z</Time>
            <Position>
              <LatitudeDegrees>43.310173451900482177734375</LatitudeDegrees>
              <LongitudeDegrees>-8.353618271648883819580078125</LongitudeDegrees>
            </Position>
            <AltitudeMeters>5.400000095367431640625</AltitudeMeters>
            <DistanceMeters>93770.589137768</DistanceMeters>
          </Trackpoint>
          <Trackpoint>
            <Time>2018-04-21T14:52:41.000Z</Time>
            <Position>
              <LatitudeDegrees>43.310475535690784454345703125</LatitudeDegrees>
              <LongitudeDegrees>-8.35392245091497898101806640625</LongitudeDegrees>
            </Position>
            <AltitudeMeters>5.19999980926513671875</AltitudeMeters>
            <DistanceMeters>93812.270892142</DistanceMeters>
          </Trackpoint>
          <Trackpoint>
            <Time>2018-04-21T14:52:43.000Z</Time>
            <Position>
              <LatitudeDegrees>43.31058039329946041107177734375</LatitudeDegrees>
              <LongitudeDegrees>-8.35402420721948146820068359375</LongitudeDegrees>
            </Position>
            <AltitudeMeters>4.599999904632568359375</AltitudeMeters>
            <DistanceMeters>93826.558119935</DistanceMeters>
          </Trackpoint>
          <Trackpoint>
            <Time>2018-04-21T14:52:50.000Z</Time>
            <Position>
              <LatitudeDegrees>43.31095875240862369537353515625</LatitudeDegrees>
              <LongitudeDegrees>-8.35435730405151844024658203125</LongitudeDegrees>
            </Position>
            <AltitudeMeters>4.80000019073486328125</AltitudeMeters>
            <DistanceMeters>93876.569985465</DistanceMeters>
          </Trackpoint>
          <Trackpoint>
            <Time>2018-04-21T14:52:56.000Z</Time>
            <Position>
              <LatitudeDegrees>43.31132135353982448577880859375</LatitudeDegrees>
              <LongitudeDegrees>-8.3546326495707035064697265625</LongitudeDegrees>
            </Position>
            <AltitudeMeters>5.400000095367431640625</AltitudeMeters>
            <DistanceMeters>93922.679293508</DistanceMeters>
          </Trackpoint>
          <Trackpoint>
            <Time>2018-04-21T14:53:00.000Z</Time>
            <Position>
              <LatitudeDegrees>43.31157666631042957305908203125</LatitudeDegrees>
              <LongitudeDegrees>-8.35482669062912464141845703125</LongitudeDegrees>
            </Position>
            <AltitudeMeters>3.599999904632568359375</AltitudeMeters>
            <DistanceMeters>93955.152022784</DistanceMeters>
          </Trackpoint>
          <Trackpoint>
            <Time>2018-04-21T14:53:01.000Z</Time>
            <Position>
              <LatitudeDegrees>43.3116277121007442474365234375</LatitudeDegrees>
              <LongitudeDegrees>-8.354895673692226409912109375</LongitudeDegrees>
            </Position>
            <AltitudeMeters>3.599999904632568359375</AltitudeMeters>
            <DistanceMeters>93963.119546703</DistanceMeters>
          </Trackpoint>
          <Trackpoint>
            <Time>2018-04-21T14:53:04.000Z</Time>
            <Position>
              <LatitudeDegrees>43.31174246035516262054443359375</LatitudeDegrees>
              <LongitudeDegrees>-8.35512978024780750274658203125</LongitudeDegrees>
            </Position>
            <AltitudeMeters>4</AltitudeMeters>
            <DistanceMeters>93985.979545695</DistanceMeters>
          </Trackpoint>
          <Trackpoint>
            <Time>2018-04-21T14:53:05.000Z</Time>
            <Position>
              <LatitudeDegrees>43.3117621578276157379150390625</LatitudeDegrees>
              <LongitudeDegrees>-8.35521318018436431884765625</LongitudeDegrees>
            </Position>
            <AltitudeMeters>4.19999980926513671875</AltitudeMeters>
            <DistanceMeters>93993.0805278</DistanceMeters>
          </Trackpoint>
          <Trackpoint>
            <Time>2018-04-21T14:53:10.000Z</Time>
            <Position>
              <LatitudeDegrees>43.31181856803596019744873046875</LatitudeDegrees>
              <LongitudeDegrees>-8.3556076325476169586181640625</LongitudeDegrees>
            </Position>
            <AltitudeMeters>5</AltitudeMeters>
            <DistanceMeters>94025.637268161</DistanceMeters>
          </Trackpoint>
          <Trackpoint>
            <Time>2018-04-21T14:53:11.000Z</Time>
            <Position>
              <LatitudeDegrees>43.31180834211409091949462890625</LatitudeDegrees>
              <LongitudeDegrees>-8.35569153539836406707763671875</LongitudeDegrees>
            </Position>
            <AltitudeMeters>4.599999904632568359375</AltitudeMeters>
            <DistanceMeters>94032.527196453</DistanceMeters>
          </Trackpoint>
          <Trackpoint>
            <Time>2018-04-21T14:53:16.000Z</Time>
            <Position>
              <LatitudeDegrees>43.31171647645533084869384765625</LatitudeDegrees>
              <LongitudeDegrees>-8.3561132289469242095947265625</LongitudeDegrees>
            </Position>
            <AltitudeMeters>5.19999980926513671875</AltitudeMeters>
            <DistanceMeters>94068.176782127</DistanceMeters>
          </Trackpoint>
          <Trackpoint>
            <Time>2018-04-21T14:53:17.000Z</Time>
            <Position>
              <LatitudeDegrees>43.3117118664085865020751953125</LatitudeDegrees>
              <LongitudeDegrees>-8.35619352757930755615234375</LongitudeDegrees>
            </Position>
            <AltitudeMeters>5.400000095367431640625</AltitudeMeters>
            <DistanceMeters>94074.701180977</DistanceMeters>
          </Trackpoint>
          <Trackpoint>
            <Time>2018-04-21T14:53:20.000Z</Time>
            <Position>
              <LatitudeDegrees>43.31173525191843509674072265625</LatitudeDegrees>
              <LongitudeDegrees>-8.35641841404139995574951171875</LongitudeDegrees>
            </Position>
            <AltitudeMeters>4.599999904632568359375</AltitudeMeters>
            <DistanceMeters>94093.09934435</DistanceMeters>
          </Trackpoint>
          <Trackpoint>
            <Time>2018-04-21T14:53:22.000Z</Time>
            <Position>
              <LatitudeDegrees>43.3117410354316234588623046875</LatitudeDegrees>
              <LongitudeDegrees>-8.3565618284046649932861328125</LongitudeDegrees>
            </Position>
            <AltitudeMeters>3.7999999523162841796875</AltitudeMeters>
            <DistanceMeters>94104.731871827</DistanceMeters>
          </Trackpoint>
          <Trackpoint>
            <Time>2018-04-21T14:53:24.000Z</Time>
            <Position>
              <LatitudeDegrees>43.31172167323529720306396484375</LatitudeDegrees>
              <LongitudeDegrees>-8.35665285587310791015625</LongitudeDegrees>
            </Position>
            <AltitudeMeters>3.599999904632568359375</AltitudeMeters>
            <DistanceMeters>94112.41259376</DistanceMeters>
          </Trackpoint>
          <Trackpoint>
            <Time>2018-04-21T14:53:28.000Z</Time>
            <Position>
              <LatitudeDegrees>43.31175955943763256072998046875</LatitudeDegrees>
              <LongitudeDegrees>-8.356719575822353363037109375</LongitudeDegrees>
            </Position>
            <AltitudeMeters>4</AltitudeMeters>
            <DistanceMeters>94119.266385241</DistanceMeters>
          </Trackpoint>
          <Trackpoint>
            <Time>2018-04-21T14:53:32.000Z</Time>
            <Position>
              <LatitudeDegrees>43.31183977425098419189453125</LatitudeDegrees>
              <LongitudeDegrees>-8.35686248727142810821533203125</LongitudeDegrees>
            </Position>
            <AltitudeMeters>4</AltitudeMeters>
            <DistanceMeters>94133.883829231</DistanceMeters>
          </Trackpoint>
          <Trackpoint>
            <Time>2018-04-21T14:53:36.000Z</Time>
            <Position>
              <LatitudeDegrees>43.3118443004786968231201171875</LatitudeDegrees>
              <LongitudeDegrees>-8.35710539482533931732177734375</LongitudeDegrees>
            </Position>
            <AltitudeMeters>3.7999999523162841796875</AltitudeMeters>
            <DistanceMeters>94153.562849999</DistanceMeters>
          </Trackpoint>
          <Trackpoint>
            <Time>2018-04-21T14:53:39.000Z</Time>
            <Position>
              <LatitudeDegrees>43.31184220500290393829345703125</LatitudeDegrees>
              <LongitudeDegrees>-8.35730530321598052978515625</LongitudeDegrees>
            </Position>
            <AltitudeMeters>4</AltitudeMeters>
            <DistanceMeters>94169.754520988</DistanceMeters>
          </Trackpoint>
          <Trackpoint>
            <Time>2018-04-21T14:53:43.000Z</Time>
            <Position>
              <LatitudeDegrees>43.31184379756450653076171875</LatitudeDegrees>
              <LongitudeDegrees>-8.35756690241396427154541015625</LongitudeDegrees>
            </Position>
            <AltitudeMeters>3.599999904632568359375</AltitudeMeters>
            <DistanceMeters>94190.941429682</DistanceMeters>
          </Trackpoint>
          <Trackpoint>
            <Time>2018-04-21T14:53:44.000Z</Time>
            <Position>
              <LatitudeDegrees>43.311852514743804931640625</LatitudeDegrees>
              <LongitudeDegrees>-8.357624821364879608154296875</LongitudeDegrees>
            </Position>
            <AltitudeMeters>3.400000095367431640625</AltitudeMeters>
            <DistanceMeters>94195.732510387</DistanceMeters>
          </Trackpoint>
          <Trackpoint>
            <Time>2018-04-21T14:53:46.000Z</Time>
            <Position>
              <LatitudeDegrees>43.31190791912376880645751953125</LatitudeDegrees>
              <LongitudeDegrees>-8.35771325044333934783935546875</LongitudeDegrees>
            </Position>
            <AltitudeMeters>3.7999999523162841796875</AltitudeMeters>
            <DistanceMeters>94205.183250364</DistanceMeters>
          </Trackpoint>
          <Trackpoint>
            <Time>2018-04-21T14:53:48.000Z</Time>
            <Position>
              <LatitudeDegrees>43.3119800873100757598876953125</LatitudeDegrees>
              <LongitudeDegrees>-8.35778282023966312408447265625</LongitudeDegrees>
            </Position>
            <AltitudeMeters>4.599999904632568359375</AltitudeMeters>
            <DistanceMeters>94214.994959948</DistanceMeters>
          </Trackpoint>
          <Trackpoint>
            <Time>2018-04-21T14:53:50.000Z</Time>
            <Position>
              <LatitudeDegrees>43.312014453113079071044921875</LatitudeDegrees>
              <LongitudeDegrees>-8.35787351243197917938232421875</LongitudeDegrees>
            </Position>
            <AltitudeMeters>4</AltitudeMeters>
            <DistanceMeters>94223.275926106</DistanceMeters>
          </Trackpoint>
          <Trackpoint>
            <Time>2018-04-21T14:53:52.000Z</Time>
            <Position>
              <LatitudeDegrees>43.31201688386499881744384765625</LatitudeDegrees>
              <LongitudeDegrees>-8.3579807169735431671142578125</LongitudeDegrees>
            </Position>
            <AltitudeMeters>3.7999999523162841796875</AltitudeMeters>
            <DistanceMeters>94231.962428208</DistanceMeters>
          </Trackpoint>
          <Trackpoint>
            <Time>2018-04-21T14:53:56.000Z</Time>
            <Position>
              <LatitudeDegrees>43.31202442757785320281982421875</LatitudeDegrees>
              <LongitudeDegrees>-8.35817811079323291778564453125</LongitudeDegrees>
            </Position>
            <AltitudeMeters>3.599999904632568359375</AltitudeMeters>
            <DistanceMeters>94247.970974972</DistanceMeters>
          </Trackpoint>
          <Trackpoint>
            <Time>2018-04-21T14:53:57.000Z</Time>
            <Position>
              <LatitudeDegrees>43.31202861852943897247314453125</LatitudeDegrees>
              <LongitudeDegrees>-8.3582184277474880218505859375</LongitudeDegrees>
            </Position>
            <AltitudeMeters>3.599999904632568359375</AltitudeMeters>
            <DistanceMeters>94251.268278725</DistanceMeters>
          </Trackpoint>
          <Trackpoint>
            <Time>2018-04-21T14:54:00.000Z</Time>
            <Position>
              <LatitudeDegrees>43.312032558023929595947265625</LatitudeDegrees>
              <LongitudeDegrees>-8.35830819793045520782470703125</LongitudeDegrees>
            </Position>
            <AltitudeMeters>3.599999904632568359375</AltitudeMeters>
            <DistanceMeters>94258.551318545</DistanceMeters>
          </Trackpoint>
          <Trackpoint>
            <Time>2018-04-21T14:54:01.000Z</Time>
            <Position>
              <LatitudeDegrees>43.3120287023484706878662109375</LatitudeDegrees>
              <LongitudeDegrees>-8.3583404682576656341552734375</LongitudeDegrees>
            </Position>
            <AltitudeMeters>3.599999904632568359375</AltitudeMeters>
            <DistanceMeters>94261.200161575</DistanceMeters>
          </Trackpoint>
          <Trackpoint>
            <Time>2018-04-21T14:54:08.000Z</Time>
            <Position>
              <LatitudeDegrees>43.312007747590541839599609375</LatitudeDegrees>
              <LongitudeDegrees>-8.35864238440990447998046875</LongitudeDegrees>
            </Position>
            <AltitudeMeters>3.400000095367431640625</AltitudeMeters>
            <DistanceMeters>94285.762315537</DistanceMeters>
          </Trackpoint>
          <Trackpoint>
            <Time>2018-04-21T14:54:14.000Z</Time>
            <Position>
              <LatitudeDegrees>43.3120174705982208251953125</LatitudeDegrees>
              <LongitudeDegrees>-8.35886408574879169464111328125</LongitudeDegrees>
            </Position>
            <AltitudeMeters>4.19999980926513671875</AltitudeMeters>
            <DistanceMeters>94303.749745564</DistanceMeters>
          </Trackpoint>
          <Trackpoint>
            <Time>2018-04-21T14:54:17.000Z</Time>
            <Position>
              <LatitudeDegrees>43.3120836876332759857177734375</LatitudeDegrees>
              <LongitudeDegrees>-8.35893072187900543212890625</LongitudeDegrees>
            </Position>
            <AltitudeMeters>4</AltitudeMeters>
            <DistanceMeters>94312.884675034</DistanceMeters>
          </Trackpoint>
          <Trackpoint>
            <Time>2018-04-21T14:54:20.000Z</Time>
            <Position>
              <LatitudeDegrees>43.31221201457083225250244140625</LatitudeDegrees>
              <LongitudeDegrees>-8.3590297959744930267333984375</LongitudeDegrees>
            </Position>
            <AltitudeMeters>4.400000095367431640625</AltitudeMeters>
            <DistanceMeters>94329.267346735</DistanceMeters>
          </Trackpoint>
          <Trackpoint>
            <Time>2018-04-21T14:54:24.000Z</Time>
            <Position>
              <LatitudeDegrees>43.31249096430838108062744140625</LatitudeDegrees>
              <LongitudeDegrees>-8.359197266399860382080078125</LongitudeDegrees>
            </Position>
            <AltitudeMeters>3.7999999523162841796875</AltitudeMeters>
            <DistanceMeters>94363.148201914</DistanceMeters>
          </Trackpoint>
          <Trackpoint>
            <Time>2018-04-21T14:54:25.000Z</Time>
            <Position>
              <LatitudeDegrees>43.31254117190837860107421875</LatitudeDegrees>
              <LongitudeDegrees>-8.35925267077982425689697265625</LongitudeDegrees>
            </Position>
            <AltitudeMeters>4</AltitudeMeters>
            <DistanceMeters>94370.31437556</DistanceMeters>
          </Trackpoint>
          <Trackpoint>
            <Time>2018-04-21T14:54:28.000Z</Time>
            <Position>
              <LatitudeDegrees>43.3126851730048656463623046875</LatitudeDegrees>
              <LongitudeDegrees>-8.35942416451871395111083984375</LongitudeDegrees>
            </Position>
            <AltitudeMeters>2.7999999523162841796875</AltitudeMeters>
            <DistanceMeters>94391.522371166</DistanceMeters>
          </Trackpoint>
          <Trackpoint>
            <Time>2018-04-21T14:54:30.000Z</Time>
            <Position>
              <LatitudeDegrees>43.312790952622890472412109375</LatitudeDegrees>
              <LongitudeDegrees>-8.359499685466289520263671875</LongitudeDegrees>
            </Position>
            <AltitudeMeters>3.2000000476837158203125</AltitudeMeters>
            <DistanceMeters>94404.789747701</DistanceMeters>
          </Trackpoint>
          <Trackpoint>
            <Time>2018-04-21T14:54:31.000Z</Time>
            <Position>
              <LatitudeDegrees>43.3128497935831546783447265625</LatitudeDegrees>
              <LongitudeDegrees>-8.35953581146895885467529296875</LongitudeDegrees>
            </Position>
            <AltitudeMeters>4</AltitudeMeters>
            <DistanceMeters>94411.962848535</DistanceMeters>
          </Trackpoint>
          <Trackpoint>
            <Time>2018-04-21T14:54:39.000Z</Time>
            <Position>
              <LatitudeDegrees>43.31329219043254852294921875</LatitudeDegrees>
              <LongitudeDegrees>-8.359808810055255889892578125</LongitudeDegrees>
            </Position>
            <AltitudeMeters>3.599999904632568359375</AltitudeMeters>
            <DistanceMeters>94465.938189598</DistanceMeters>
          </Trackpoint>
          <Trackpoint>
            <Time>2018-04-21T14:54:48.000Z</Time>
            <Position>
              <LatitudeDegrees>43.3137758262455463409423828125</LatitudeDegrees>
              <LongitudeDegrees>-8.360120616853237152099609375</LongitudeDegrees>
            </Position>
            <AltitudeMeters>3.599999904632568359375</AltitudeMeters>
            <DistanceMeters>94525.39636757</DistanceMeters>
          </Trackpoint>
          <Trackpoint>
            <Time>2018-04-21T14:54:53.000Z</Time>
            <Position>
              <LatitudeDegrees>43.31403248012065887451171875</LatitudeDegrees>
              <LongitudeDegrees>-8.36034080944955348968505859375</LongitudeDegrees>
            </Position>
            <AltitudeMeters>3.400000095367431640625</AltitudeMeters>
            <DistanceMeters>94559.071373582</DistanceMeters>
          </Trackpoint>
          <Trackpoint>
            <Time>2018-04-21T14:54:54.000Z</Time>
            <Position>
              <LatitudeDegrees>43.3140765689313411712646484375</LatitudeDegrees>
              <LongitudeDegrees>-8.3603980578482151031494140625</LongitudeDegrees>
            </Position>
            <AltitudeMeters>3.400000095367431640625</AltitudeMeters>
            <DistanceMeters>94565.821615484</DistanceMeters>
          </Trackpoint>
          <Trackpoint>
            <Time>2018-04-21T14:54:58.000Z</Time>
            <Position>
              <LatitudeDegrees>43.3142609708011150360107421875</LatitudeDegrees>
              <LongitudeDegrees>-8.360586650669574737548828125</LongitudeDegrees>
            </Position>
            <AltitudeMeters>3.2000000476837158203125</AltitudeMeters>
            <DistanceMeters>94591.405164902</DistanceMeters>
          </Trackpoint>
          <Trackpoint>
            <Time>2018-04-21T14:54:59.000Z</Time>
            <Position>
              <LatitudeDegrees>43.31430849619209766387939453125</LatitudeDegrees>
              <LongitudeDegrees>-8.360598720610141754150390625</LongitudeDegrees>
            </Position>
            <AltitudeMeters>3.400000095367431640625</AltitudeMeters>
            <DistanceMeters>94596.784046285</DistanceMeters>
          </Trackpoint>
          <Trackpoint>
            <Time>2018-04-21T14:55:02.000Z</Time>
            <Position>
              <LatitudeDegrees>43.31446389667689800262451171875</LatitudeDegrees>
              <LongitudeDegrees>-8.3605891652405261993408203125</LongitudeDegrees>
            </Position>
            <AltitudeMeters>4</AltitudeMeters>
            <DistanceMeters>94614.09769459</DistanceMeters>
          </Trackpoint>
          <Trackpoint>
            <Time>2018-04-21T14:55:04.000Z</Time>
            <Position>
              <LatitudeDegrees>43.31457101739943027496337890625</LatitudeDegrees>
              <LongitudeDegrees>-8.36057751439511775970458984375</LongitudeDegrees>
            </Position>
            <AltitudeMeters>3.7999999523162841796875</AltitudeMeters>
            <DistanceMeters>94626.057477651</DistanceMeters>
          </Trackpoint>
          <Trackpoint>
            <Time>2018-04-21T14:55:12.000Z</Time>
            <Position>
              <LatitudeDegrees>43.31502011977136135101318359375</LatitudeDegrees>
              <LongitudeDegrees>-8.36056024767458438873291015625</LongitudeDegrees>
            </Position>
            <AltitudeMeters>4.80000019073486328125</AltitudeMeters>
            <DistanceMeters>94676.063023228</DistanceMeters>
          </Trackpoint>
          <Trackpoint>
            <Time>2018-04-21T14:55:13.000Z</Time>
            <Position>
              <LatitudeDegrees>43.31507544033229351043701171875</LatitudeDegrees>
              <LongitudeDegrees>-8.36056058295071125030517578125</LongitudeDegrees>
            </Position>
            <AltitudeMeters>4.599999904632568359375</AltitudeMeters>
            <DistanceMeters>94682.22072499</DistanceMeters>
          </Trackpoint>
          <Trackpoint>
            <Time>2018-04-21T14:55:16.000Z</Time>
            <Position>
              <LatitudeDegrees>43.31523436121642589569091796875</LatitudeDegrees>
              <LongitudeDegrees>-8.36055253632366657257080078125</LongitudeDegrees>
            </Position>
            <AltitudeMeters>4.80000019073486328125</AltitudeMeters>
            <DistanceMeters>94699.920965164</DistanceMeters>
          </Trackpoint>
          <Trackpoint>
            <Time>2018-04-21T14:55:18.000Z</Time>
            <Position>
              <LatitudeDegrees>43.31533410586416721343994140625</LatitudeDegrees>
              <LongitudeDegrees>-8.36060081608593463897705078125</LongitudeDegrees>
            </Position>
            <AltitudeMeters>4.19999980926513671875</AltitudeMeters>
            <DistanceMeters>94711.69124268</DistanceMeters>
          </Trackpoint>
          <Trackpoint>
            <Time>2018-04-21T14:55:20.000Z</Time>
            <Position>
              <LatitudeDegrees>43.315416164696216583251953125</LatitudeDegrees>
              <LongitudeDegrees>-8.36065596900880336761474609375</LongitudeDegrees>
            </Position>
            <AltitudeMeters>4.19999980926513671875</AltitudeMeters>
            <DistanceMeters>94721.858657058</DistanceMeters>
          </Trackpoint>
          <Trackpoint>
            <Time>2018-04-21T14:55:24.000Z</Time>
            <Position>
              <LatitudeDegrees>43.31555438227951526641845703125</LatitudeDegrees>
              <LongitudeDegrees>-8.360737524926662445068359375</LongitudeDegrees>
            </Position>
            <AltitudeMeters>5</AltitudeMeters>
            <DistanceMeters>94738.60035777</DistanceMeters>
          </Trackpoint>
          <Trackpoint>
            <Time>2018-04-21T14:55:26.000Z</Time>
            <Position>
              <LatitudeDegrees>43.3156037516891956329345703125</LatitudeDegrees>
              <LongitudeDegrees>-8.36075169034302234649658203125</LongitudeDegrees>
            </Position>
            <AltitudeMeters>5</AltitudeMeters>
            <DistanceMeters>94744.214177039</DistanceMeters>
          </Trackpoint>
          <Trackpoint>
            <Time>2018-04-21T14:55:27.000Z</Time>
            <Position>
              <LatitudeDegrees>43.31561766564846038818359375</LatitudeDegrees>
              <LongitudeDegrees>-8.3607329986989498138427734375</LongitudeDegrees>
            </Position>
            <AltitudeMeters>4.80000019073486328125</AltitudeMeters>
            <DistanceMeters>94746.381119528</DistanceMeters>
          </Trackpoint>
          <Trackpoint>
            <Time>2018-04-21T14:55:31.000Z</Time>
            <Position>
              <LatitudeDegrees>43.315674997866153717041015625</LatitudeDegrees>
              <LongitudeDegrees>-8.360689915716648101806640625</LongitudeDegrees>
            </Position>
            <AltitudeMeters>4.80000019073486328125</AltitudeMeters>
            <DistanceMeters>94753.654233566</DistanceMeters>
          </Trackpoint>
          <Trackpoint>
            <Time>2018-04-21T14:55:35.000Z</Time>
            <Position>
              <LatitudeDegrees>43.31577055156230926513671875</LatitudeDegrees>
              <LongitudeDegrees>-8.3607819490134716033935546875</LongitudeDegrees>
            </Position>
            <AltitudeMeters>5</AltitudeMeters>
            <DistanceMeters>94766.641295121</DistanceMeters>
          </Trackpoint>
          <Trackpoint>
            <Time>2018-04-21T14:55:40.000Z</Time>
            <Position>
              <LatitudeDegrees>43.31593743525445461273193359375</LatitudeDegrees>
              <LongitudeDegrees>-8.3609009720385074615478515625</LongitudeDegrees>
            </Position>
            <AltitudeMeters>5</AltitudeMeters>
            <DistanceMeters>94787.567895113</DistanceMeters>
          </Trackpoint>
          <Trackpoint>
            <Time>2018-04-21T14:55:46.000Z</Time>
            <Position>
              <LatitudeDegrees>43.3162204921245574951171875</LatitudeDegrees>
              <LongitudeDegrees>-8.3609401993453502655029296875</LongitudeDegrees>
            </Position>
            <AltitudeMeters>5.19999980926513671875</AltitudeMeters>
            <DistanceMeters>94819.232473239</DistanceMeters>
          </Trackpoint>
          <Trackpoint>
            <Time>2018-04-21T14:55:51.000Z</Time>
            <Position>
              <LatitudeDegrees>43.31647454760968685150146484375</LatitudeDegrees>
              <LongitudeDegrees>-8.36099560372531414031982421875</LongitudeDegrees>
            </Position>
            <AltitudeMeters>5</AltitudeMeters>
            <DistanceMeters>94847.863124982</DistanceMeters>
          </Trackpoint>
          <Trackpoint>
            <Time>2018-04-21T14:55:53.000Z</Time>
            <Position>
              <LatitudeDegrees>43.3165730349719524383544921875</LatitudeDegrees>
              <LongitudeDegrees>-8.3610208332538604736328125</LongitudeDegrees>
            </Position>
            <AltitudeMeters>5</AltitudeMeters>
            <DistanceMeters>94859.013286079</DistanceMeters>
          </Trackpoint>
          <Trackpoint>
            <Time>2018-04-21T14:55:57.000Z</Time>
            <Position>
              <LatitudeDegrees>43.31674779765307903289794921875</LatitudeDegrees>
              <LongitudeDegrees>-8.361164666712284088134765625</LongitudeDegrees>
            </Position>
            <AltitudeMeters>4.19999980926513671875</AltitudeMeters>
            <DistanceMeters>94881.685473258</DistanceMeters>
          </Trackpoint>
          <Trackpoint>
            <Time>2018-04-21T14:56:06.000Z</Time>
            <Position>
              <LatitudeDegrees>43.31715054810047149658203125</LatitudeDegrees>
              <LongitudeDegrees>-8.361518047749996185302734375</LongitudeDegrees>
            </Position>
            <AltitudeMeters>4.80000019073486328125</AltitudeMeters>
            <DistanceMeters>94934.868012532</DistanceMeters>
          </Trackpoint>
          <Trackpoint>
            <Time>2018-04-21T14:56:13.000Z</Time>
            <Position>
              <LatitudeDegrees>43.31746746785938739776611328125</LatitudeDegrees>
              <LongitudeDegrees>-8.36177797056734561920166015625</LongitudeDegrees>
            </Position>
            <AltitudeMeters>4.400000095367431640625</AltitudeMeters>
            <DistanceMeters>94975.944512062</DistanceMeters>
          </Trackpoint>
          <Trackpoint>
            <Time>2018-04-21T14:56:21.000Z</Time>
            <Position>
              <LatitudeDegrees>43.31784364767372608184814453125</LatitudeDegrees>
              <LongitudeDegrees>-8.36207519285380840301513671875</LongitudeDegrees>
            </Position>
            <AltitudeMeters>4.80000019073486328125</AltitudeMeters>
            <DistanceMeters>95024.23902919</DistanceMeters>
          </Trackpoint>
          <Trackpoint>
            <Time>2018-04-21T14:56:29.000Z</Time>
            <Position>
              <LatitudeDegrees>43.31822351552546024322509765625</LatitudeDegrees>
              <LongitudeDegrees>-8.3623751811683177947998046875</LongitudeDegrees>
            </Position>
            <AltitudeMeters>4</AltitudeMeters>
            <DistanceMeters>95073.001068921</DistanceMeters>
          </Trackpoint>
          <Trackpoint>
            <Time>2018-04-21T14:56:30.000Z</Time>
            <Position>
              <LatitudeDegrees>43.3182688616216182708740234375</LatitudeDegrees>
              <LongitudeDegrees>-8.36240812204778194427490234375</LongitudeDegrees>
            </Position>
            <AltitudeMeters>3.7999999523162841796875</AltitudeMeters>
            <DistanceMeters>95078.710585184</DistanceMeters>
          </Trackpoint>
          <Trackpoint>
            <Time>2018-04-21T14:56:33.000Z</Time>
            <Position>
              <LatitudeDegrees>43.318416886031627655029296875</LatitudeDegrees>
              <LongitudeDegrees>-8.36253158748149871826171875</LongitudeDegrees>
            </Position>
            <AltitudeMeters>5</AltitudeMeters>
            <DistanceMeters>95097.982508911</DistanceMeters>
          </Trackpoint>
          <Trackpoint>
            <Time>2018-04-21T14:56:36.000Z</Time>
            <Position>
              <LatitudeDegrees>43.31857345998287200927734375</LatitudeDegrees>
              <LongitudeDegrees>-8.36266167461872100830078125</LongitudeDegrees>
            </Position>
            <AltitudeMeters>5.19999980926513671875</AltitudeMeters>
            <DistanceMeters>95118.345960003</DistanceMeters>
          </Trackpoint>
          <Trackpoint>
            <Time>2018-04-21T14:56:38.000Z</Time>
            <Position>
              <LatitudeDegrees>43.31867714412510395050048828125</LatitudeDegrees>
              <LongitudeDegrees>-8.3627428114414215087890625</LongitudeDegrees>
            </Position>
            <AltitudeMeters>4.599999904632568359375</AltitudeMeters>
            <DistanceMeters>95131.625242092</DistanceMeters>
          </Trackpoint>
          <Trackpoint>
            <Time>2018-04-21T14:56:45.000Z</Time>
            <Position>
              <LatitudeDegrees>43.31902750767767429351806640625</LatitudeDegrees>
              <LongitudeDegrees>-8.36303793825209140777587890625</LongitudeDegrees>
            </Position>
            <AltitudeMeters>5</AltitudeMeters>
            <DistanceMeters>95177.361926477</DistanceMeters>
          </Trackpoint>
          <Trackpoint>
            <Time>2018-04-21T14:56:46.000Z</Time>
            <Position>
              <LatitudeDegrees>43.31907905638217926025390625</LatitudeDegrees>
              <LongitudeDegrees>-8.36308018304407596588134765625</LongitudeDegrees>
            </Position>
            <AltitudeMeters>5</AltitudeMeters>
            <DistanceMeters>95184.042243669</DistanceMeters>
          </Trackpoint>
          <Trackpoint>
            <Time>2018-04-21T14:56:49.000Z</Time>
            <Position>
              <LatitudeDegrees>43.3192299306392669677734375</LatitudeDegrees>
              <LongitudeDegrees>-8.36322099901735782623291015625</LongitudeDegrees>
            </Position>
            <AltitudeMeters>5</AltitudeMeters>
            <DistanceMeters>95204.340626067</DistanceMeters>
          </Trackpoint>
          <Trackpoint>
            <Time>2018-04-21T14:56:52.000Z</Time>
            <Position>
              <LatitudeDegrees>43.31934149377048015594482421875</LatitudeDegrees>
              <LongitudeDegrees>-8.36341403424739837646484375</LongitudeDegrees>
            </Position>
            <AltitudeMeters>4.599999904632568359375</AltitudeMeters>
            <DistanceMeters>95224.303927241</DistanceMeters>
          </Trackpoint>
          <Trackpoint>
            <Time>2018-04-21T14:56:53.000Z</Time>
            <Position>
              <LatitudeDegrees>43.3193720877170562744140625</LatitudeDegrees>
              <LongitudeDegrees>-8.36348301731050014495849609375</LongitudeDegrees>
            </Position>
            <AltitudeMeters>4.400000095367431640625</AltitudeMeters>
            <DistanceMeters>95230.846293965</DistanceMeters>
          </Trackpoint>
          <Trackpoint>
            <Time>2018-04-21T14:56:57.000Z</Time>
            <Position>
              <LatitudeDegrees>43.31948767416179180145263671875</LatitudeDegrees>
              <LongitudeDegrees>-8.363761045038700103759765625</LongitudeDegrees>
            </Position>
            <AltitudeMeters>4.400000095367431640625</AltitudeMeters>
            <DistanceMeters>95256.776575336</DistanceMeters>
          </Trackpoint>
          <Trackpoint>
            <Time>2018-04-21T14:56:59.000Z</Time>
            <Position>
              <LatitudeDegrees>43.31954173743724822998046875</LatitudeDegrees>
              <LongitudeDegrees>-8.36391468532383441925048828125</LongitudeDegrees>
            </Position>
            <AltitudeMeters>4</AltitudeMeters>
            <DistanceMeters>95270.596348011</DistanceMeters>
          </Trackpoint>
          <Trackpoint>
            <Time>2018-04-21T14:57:00.000Z</Time>
            <Position>
              <LatitudeDegrees>43.31956855952739715576171875</LatitudeDegrees>
              <LongitudeDegrees>-8.36399263702332973480224609375</LongitudeDegrees>
            </Position>
            <AltitudeMeters>4</AltitudeMeters>
            <DistanceMeters>95277.578063606</DistanceMeters>
          </Trackpoint>
          <Trackpoint>
            <Time>2018-04-21T14:57:01.000Z</Time>
            <Position>
              <LatitudeDegrees>43.319599740207195281982421875</LatitudeDegrees>
              <LongitudeDegrees>-8.364063799381256103515625</LongitudeDegrees>
            </Position>
            <AltitudeMeters>3.7999999523162841796875</AltitudeMeters>
            <DistanceMeters>95284.304854301</DistanceMeters>
          </Trackpoint>
          <Trackpoint>
            <Time>2018-04-21T14:57:03.000Z</Time>
            <Position>
              <LatitudeDegrees>43.319646678864955902099609375</LatitudeDegrees>
              <LongitudeDegrees>-8.36417050100862979888916015625</LongitudeDegrees>
            </Position>
            <AltitudeMeters>4</AltitudeMeters>
            <DistanceMeters>95294.40186193</DistanceMeters>
          </Trackpoint>
          <Trackpoint>
            <Time>2018-04-21T14:57:05.000Z</Time>
            <Position>
              <LatitudeDegrees>43.319703675806522369384765625</LatitudeDegrees>
              <LongitudeDegrees>-8.36428700946271419525146484375</LongitudeDegrees>
            </Position>
            <AltitudeMeters>4</AltitudeMeters>
            <DistanceMeters>95305.770965422</DistanceMeters>
          </Trackpoint>
          <Trackpoint>
            <Time>2018-04-21T14:57:07.000Z</Time>
            <Position>
              <LatitudeDegrees>43.31976327113807201385498046875</LatitudeDegrees>
              <LongitudeDegrees>-8.36441491730511188507080078125</LongitudeDegrees>
            </Position>
            <AltitudeMeters>3.599999904632568359375</AltitudeMeters>
            <DistanceMeters>95318.070227213</DistanceMeters>
          </Trackpoint>
          <Trackpoint>
            <Time>2018-04-21T14:57:13.000Z</Time>
            <Position>
              <LatitudeDegrees>43.319917581975460052490234375</LatitudeDegrees>
              <LongitudeDegrees>-8.36476310156285762786865234375</LongitudeDegrees>
            </Position>
            <AltitudeMeters>3</AltitudeMeters>
            <DistanceMeters>95351.084045027</DistanceMeters>
          </Trackpoint>
          <Trackpoint>
            <Time>2018-04-21T14:57:14.000Z</Time>
            <Position>
              <LatitudeDegrees>43.31993208266794681549072265625</LatitudeDegrees>
              <LongitudeDegrees>-8.3648139797151088714599609375</LongitudeDegrees>
            </Position>
            <AltitudeMeters>3.2000000476837158203125</AltitudeMeters>
            <DistanceMeters>95355.508658651</DistanceMeters>
          </Trackpoint>
          <Trackpoint>
            <Time>2018-04-21T14:57:16.000Z</Time>
            <Position>
              <LatitudeDegrees>43.31997399218380451202392578125</LatitudeDegrees>
              <LongitudeDegrees>-8.36489285342395305633544921875</LongitudeDegrees>
            </Position>
            <AltitudeMeters>3.400000095367431640625</AltitudeMeters>
            <DistanceMeters>95363.418169989</DistanceMeters>
          </Trackpoint>
          <Trackpoint>
            <Time>2018-04-21T14:57:18.000Z</Time>
            <Position>
              <LatitudeDegrees>43.3200377784669399261474609375</LatitudeDegrees>
              <LongitudeDegrees>-8.3649698831140995025634765625</LongitudeDegrees>
            </Position>
            <AltitudeMeters>3.400000095367431640625</AltitudeMeters>
            <DistanceMeters>95372.868909966</DistanceMeters>
          </Trackpoint>
          <Trackpoint>
            <Time>2018-04-21T14:57:20.000Z</Time>
            <Position>
              <LatitudeDegrees>43.32010843791067600250244140625</LatitudeDegrees>
              <LongitudeDegrees>-8.365066610276699066162109375</LongitudeDegrees>
            </Position>
            <AltitudeMeters>3</AltitudeMeters>
            <DistanceMeters>95383.968339362</DistanceMeters>
          </Trackpoint>
          <Trackpoint>
            <Time>2018-04-21T14:57:21.000Z</Time>
            <Position>
              <LatitudeDegrees>43.32014095969498157501220703125</LatitudeDegrees>
              <LongitudeDegrees>-8.36512369103729724884033203125</LongitudeDegrees>
            </Position>
            <AltitudeMeters>3</AltitudeMeters>
            <DistanceMeters>95389.83849879</DistanceMeters>
          </Trackpoint>
          <Trackpoint>
            <Time>2018-04-21T14:57:23.000Z</Time>
            <Position>
              <LatitudeDegrees>43.32019007764756679534912109375</LatitudeDegrees>
              <LongitudeDegrees>-8.3652585558593273162841796875</LongitudeDegrees>
            </Position>
            <AltitudeMeters>3.2000000476837158203125</AltitudeMeters>
            <DistanceMeters>95402.050818085</DistanceMeters>
          </Trackpoint>
          <Trackpoint>
            <Time>2018-04-21T14:57:25.000Z</Time>
            <Position>
              <LatitudeDegrees>43.3202205039560794830322265625</LatitudeDegrees>
              <LongitudeDegrees>-8.365406580269336700439453125</LongitudeDegrees>
            </Position>
            <AltitudeMeters>3</AltitudeMeters>
            <DistanceMeters>95414.506569503</DistanceMeters>
          </Trackpoint>
          <Trackpoint>
            <Time>2018-04-21T14:57:26.000Z</Time>
            <Position>
              <LatitudeDegrees>43.32023768685758113861083984375</LatitudeDegrees>
              <LongitudeDegrees>-8.36547791026532649993896484375</LongitudeDegrees>
            </Position>
            <AltitudeMeters>3</AltitudeMeters>
            <DistanceMeters>95420.591248083</DistanceMeters>
          </Trackpoint>
          <Trackpoint>
            <Time>2018-04-21T14:57:28.000Z</Time>
            <Position>
              <LatitudeDegrees>43.3202889002859592437744140625</LatitudeDegrees>
              <LongitudeDegrees>-8.36560799740254878997802734375</LongitudeDegrees>
            </Position>
            <AltitudeMeters>3.2000000476837158203125</AltitudeMeters>
            <DistanceMeters>95432.568384401</DistanceMeters>
          </Trackpoint>
          <Trackpoint>
            <Time>2018-04-21T14:57:33.000Z</Time>
            <Position>
              <LatitudeDegrees>43.32041303627192974090576171875</LatitudeDegrees>
              <LongitudeDegrees>-8.365896753966808319091796875</LongitudeDegrees>
            </Position>
            <AltitudeMeters>3.7999999523162841796875</AltitudeMeters>
            <DistanceMeters>95459.727411708</DistanceMeters>
          </Trackpoint>
          <Trackpoint>
            <Time>2018-04-21T14:57:37.000Z</Time>
            <Position>
              <LatitudeDegrees>43.320524431765079498291015625</LatitudeDegrees>
              <LongitudeDegrees>-8.36615164764225482940673828125</LongitudeDegrees>
            </Position>
            <AltitudeMeters>3</AltitudeMeters>
            <DistanceMeters>95483.805013492</DistanceMeters>
          </Trackpoint>
          <Trackpoint>
            <Time>2018-04-21T14:57:42.000Z</Time>
            <Position>
              <LatitudeDegrees>43.3206721208989620208740234375</LatitudeDegrees>
              <LongitudeDegrees>-8.366497568786144256591796875</LongitudeDegrees>
            </Position>
            <AltitudeMeters>3.400000095367431640625</AltitudeMeters>
            <DistanceMeters>95516.28330393</DistanceMeters>
          </Trackpoint>
          <Trackpoint>
            <Time>2018-04-21T14:57:44.000Z</Time>
            <Position>
              <LatitudeDegrees>43.320724926888942718505859375</LatitudeDegrees>
              <LongitudeDegrees>-8.3666400611400604248046875</LongitudeDegrees>
            </Position>
            <AltitudeMeters>3.400000095367431640625</AltitudeMeters>
            <DistanceMeters>95529.232415462</DistanceMeters>
          </Trackpoint>
          <Trackpoint>
            <Time>2018-04-21T14:57:45.000Z</Time>
            <Position>
              <LatitudeDegrees>43.3207346498966217041015625</LatitudeDegrees>
              <LongitudeDegrees>-8.36671373806893825531005859375</LongitudeDegrees>
            </Position>
            <AltitudeMeters>3.400000095367431640625</AltitudeMeters>
            <DistanceMeters>95535.296281497</DistanceMeters>
          </Trackpoint>
          <Trackpoint>
            <Time>2018-04-21T14:57:48.000Z</Time>
            <Position>
              <LatitudeDegrees>43.32064890302717685699462890625</LatitudeDegrees>
              <LongitudeDegrees>-8.36686092428863048553466796875</LongitudeDegrees>
            </Position>
            <AltitudeMeters>2.599999904632568359375</AltitudeMeters>
            <DistanceMeters>95550.56515551</DistanceMeters>
          </Trackpoint>
          <Trackpoint>
            <Time>2018-04-21T14:57:49.000Z</Time>
            <Position>
              <LatitudeDegrees>43.32059727050364017486572265625</LatitudeDegrees>
              <LongitudeDegrees>-8.366891853511333465576171875</LongitudeDegrees>
            </Position>
            <AltitudeMeters>2.599999904632568359375</AltitudeMeters>
            <DistanceMeters>95556.834038399</DistanceMeters>
          </Trackpoint>
          <Trackpoint>
            <Time>2018-04-21T14:57:54.000Z</Time>
            <Position>
              <LatitudeDegrees>43.32032519392669200897216796875</LatitudeDegrees>
              <LongitudeDegrees>-8.3670516125857830047607421875</LongitudeDegrees>
            </Position>
            <AltitudeMeters>2.2000000476837158203125</AltitudeMeters>
            <DistanceMeters>95589.764188565</DistanceMeters>
          </Trackpoint>
          <Trackpoint>
            <Time>2018-04-21T14:58:01.000Z</Time>
            <Position>
              <LatitudeDegrees>43.31997198052704334259033203125</LatitudeDegrees>
              <LongitudeDegrees>-8.36727901361882686614990234375</LongitudeDegrees>
            </Position>
            <AltitudeMeters>3.2000000476837158203125</AltitudeMeters>
            <DistanceMeters>95633.176319061</DistanceMeters>
          </Trackpoint>
          <Trackpoint>
            <Time>2018-04-21T14:58:06.000Z</Time>
            <Position>
              <LatitudeDegrees>43.3197202719748020172119140625</LatitudeDegrees>
              <LongitudeDegrees>-8.367443718016147613525390625</LongitudeDegrees>
            </Position>
            <AltitudeMeters>2.2000000476837158203125</AltitudeMeters>
            <DistanceMeters>95664.20483321</DistanceMeters>
          </Trackpoint>
          <Trackpoint>
            <Time>2018-04-21T14:58:14.000Z</Time>
            <Position>
              <LatitudeDegrees>43.31930394284427165985107421875</LatitudeDegrees>
              <LongitudeDegrees>-8.36770012043416500091552734375</LongitudeDegrees>
            </Position>
            <AltitudeMeters>2.400000095367431640625</AltitudeMeters>
            <DistanceMeters>95714.982009251</DistanceMeters>
          </Trackpoint>
          <Trackpoint>
            <Time>2018-04-21T14:58:16.000Z</Time>
            <Position>
              <LatitudeDegrees>43.31921291537582874298095703125</LatitudeDegrees>
              <LongitudeDegrees>-8.36778461001813411712646484375</LongitudeDegrees>
            </Position>
            <AltitudeMeters>2.400000095367431640625</AltitudeMeters>
            <DistanceMeters>95727.207261609</DistanceMeters>
          </Trackpoint>
          <Trackpoint>
            <Time>2018-04-21T14:58:18.000Z</Time>
            <Position>
              <LatitudeDegrees>43.319173939526081085205078125</LatitudeDegrees>
              <LongitudeDegrees>-8.3679179660975933074951171875</LongitudeDegrees>
            </Position>
            <AltitudeMeters>2.7999999523162841796875</AltitudeMeters>
            <DistanceMeters>95738.844833801</DistanceMeters>
          </Trackpoint>
          <Trackpoint>
            <Time>2018-04-21T14:58:20.000Z</Time>
            <Position>
              <LatitudeDegrees>43.3191613666713237762451171875</LatitudeDegrees>
              <LongitudeDegrees>-8.36806506849825382232666015625</LongitudeDegrees>
            </Position>
            <AltitudeMeters>2.599999904632568359375</AltitudeMeters>
            <DistanceMeters>95750.838168936</DistanceMeters>
          </Trackpoint>
          <Trackpoint>
            <Time>2018-04-21T14:58:24.000Z</Time>
            <Position>
              <LatitudeDegrees>43.3191295154392719268798828125</LatitudeDegrees>
              <LongitudeDegrees>-8.36835198104381561279296875</LongitudeDegrees>
            </Position>
            <AltitudeMeters>2.7999999523162841796875</AltitudeMeters>
            <DistanceMeters>95774.340333005</DistanceMeters>
          </Trackpoint>
          <Trackpoint>
            <Time>2018-04-21T14:58:27.000Z</Time>
            <Position>
              <LatitudeDegrees>43.31910185515880584716796875</LatitudeDegrees>
              <LongitudeDegrees>-8.368567563593387603759765625</LongitudeDegrees>
            </Position>
            <AltitudeMeters>3</AltitudeMeters>
            <DistanceMeters>95792.067082007</DistanceMeters>
          </Trackpoint>
          <Trackpoint>
            <Time>2018-04-21T14:58:29.000Z</Time>
            <Position>
              <LatitudeDegrees>43.31910529173910617828369140625</LatitudeDegrees>
              <LongitudeDegrees>-8.36873444728553295135498046875</LongitudeDegrees>
            </Position>
            <AltitudeMeters>2.400000095367431640625</AltitudeMeters>
            <DistanceMeters>95805.586281215</DistanceMeters>
          </Trackpoint>
          <Trackpoint>
            <Time>2018-04-21T14:58:33.000Z</Time>
            <Position>
              <LatitudeDegrees>43.31909380853176116943359375</LatitudeDegrees>
              <LongitudeDegrees>-8.3690458349883556365966796875</LongitudeDegrees>
            </Position>
            <AltitudeMeters>2.599999904632568359375</AltitudeMeters>
            <DistanceMeters>95830.833897464</DistanceMeters>
          </Trackpoint>
          <Trackpoint>
            <Time>2018-04-21T14:58:35.000Z</Time>
            <Position>
              <LatitudeDegrees>43.31903588958084583282470703125</LatitudeDegrees>
              <LongitudeDegrees>-8.3691772632300853729248046875</LongitudeDegrees>
            </Position>
            <AltitudeMeters>2.599999904632568359375</AltitudeMeters>
            <DistanceMeters>95843.276955396</DistanceMeters>
          </Trackpoint>
          <Trackpoint>
            <Time>2018-04-21T14:58:36.000Z</Time>
            <Position>
              <LatitudeDegrees>43.31901392899453639984130859375</LatitudeDegrees>
              <LongitudeDegrees>-8.36924825794994831085205078125</LongitudeDegrees>
            </Position>
            <AltitudeMeters>2.400000095367431640625</AltitudeMeters>
            <DistanceMeters>95849.524194018</DistanceMeters>
          </Trackpoint>
          <Trackpoint>
            <Time>2018-04-21T14:58:37.000Z</Time>
            <Position>
              <LatitudeDegrees>43.3189977519214153289794921875</LatitudeDegrees>
              <LongitudeDegrees>-8.36932436563074588775634765625</LongitudeDegrees>
            </Position>
            <AltitudeMeters>2.599999904632568359375</AltitudeMeters>
            <DistanceMeters>95855.945356611</DistanceMeters>
          </Trackpoint>
          <Trackpoint>
            <Time>2018-04-21T14:58:42.000Z</Time>
            <Position>
              <LatitudeDegrees>43.31893145106732845306396484375</LatitudeDegrees>
              <LongitudeDegrees>-8.3697106875479221343994140625</LongitudeDegrees>
            </Position>
            <AltitudeMeters>2.400000095367431640625</AltitudeMeters>
            <DistanceMeters>95888.087150674</DistanceMeters>
          </Trackpoint>
          <Trackpoint>
            <Time>2018-04-21T14:58:44.000Z</Time>
            <Position>
              <LatitudeDegrees>43.3189159445464611053466796875</LatitudeDegrees>
              <LongitudeDegrees>-8.3698702789843082427978515625</LongitudeDegrees>
            </Position>
            <AltitudeMeters>2.400000095367431640625</AltitudeMeters>
            <DistanceMeters>95901.124871295</DistanceMeters>
          </Trackpoint>
          <Trackpoint>
            <Time>2018-04-21T14:58:50.000Z</Time>
            <Position>
              <LatitudeDegrees>43.31889742054045200347900390625</LatitudeDegrees>
              <LongitudeDegrees>-8.37036497890949249267578125</LongitudeDegrees>
            </Position>
            <AltitudeMeters>2.400000095367431640625</AltitudeMeters>
            <DistanceMeters>95941.237177149</DistanceMeters>
          </Trackpoint>
          <Trackpoint>
            <Time>2018-04-21T14:58:52.000Z</Time>
            <Position>
              <LatitudeDegrees>43.318933211266994476318359375</LatitudeDegrees>
              <LongitudeDegrees>-8.370526917278766632080078125</LongitudeDegrees>
            </Position>
            <AltitudeMeters>2.599999904632568359375</AltitudeMeters>
            <DistanceMeters>95954.942124797</DistanceMeters>
          </Trackpoint>
          <Trackpoint>
            <Time>2018-04-21T14:58:55.000Z</Time>
            <Position>
              <LatitudeDegrees>43.3190596103668212890625</LatitudeDegrees>
              <LongitudeDegrees>-8.3707141689956188201904296875</LongitudeDegrees>
            </Position>
            <AltitudeMeters>3.2000000476837158203125</AltitudeMeters>
            <DistanceMeters>95975.626539749</DistanceMeters>
          </Trackpoint>
          <Trackpoint>
            <Time>2018-04-21T14:58:57.000Z</Time>
            <Position>
              <LatitudeDegrees>43.31914586015045642852783203125</LatitudeDegrees>
              <LongitudeDegrees>-8.37081986479461193084716796875</LongitudeDegrees>
            </Position>
            <AltitudeMeters>3.2000000476837158203125</AltitudeMeters>
            <DistanceMeters>95988.487835963</DistanceMeters>
          </Trackpoint>
          <Trackpoint>
            <Time>2018-04-21T14:59:00.000Z</Time>
            <Position>
              <LatitudeDegrees>43.3193005062639713287353515625</LatitudeDegrees>
              <LongitudeDegrees>-8.3709213696420192718505859375</LongitudeDegrees>
            </Position>
            <AltitudeMeters>2.2000000476837158203125</AltitudeMeters>
            <DistanceMeters>96007.562422199</DistanceMeters>
          </Trackpoint>
          <Trackpoint>
            <Time>2018-04-21T14:59:01.000Z</Time>
            <Position>
              <LatitudeDegrees>43.3193558268249034881591796875</LatitudeDegrees>
              <LongitudeDegrees>-8.37094911374151706695556640625</LongitudeDegrees>
            </Position>
            <AltitudeMeters>2.599999904632568359375</AltitudeMeters>
            <DistanceMeters>96014.117199367</DistanceMeters>
          </Trackpoint>
          <Trackpoint>
            <Time>2018-04-21T14:59:05.000Z</Time>
            <Position>
              <LatitudeDegrees>43.3195516280829906463623046875</LatitudeDegrees>
              <LongitudeDegrees>-8.3710957132279872894287109375</LongitudeDegrees>
            </Position>
            <AltitudeMeters>3.400000095367431640625</AltitudeMeters>
            <DistanceMeters>96038.933912962</DistanceMeters>
          </Trackpoint>
          <Trackpoint>
            <Time>2018-04-21T14:59:08.000Z</Time>
            <Position>
              <LatitudeDegrees>43.3196099661290645599365234375</LatitudeDegrees>
              <LongitudeDegrees>-8.37129025720059871673583984375</LongitudeDegrees>
            </Position>
            <AltitudeMeters>3.599999904632568359375</AltitudeMeters>
            <DistanceMeters>96055.973132951</DistanceMeters>
          </Trackpoint>
          <Trackpoint>
            <Time>2018-04-21T14:59:11.000Z</Time>
            <Position>
              <LatitudeDegrees>43.31956445239484310150146484375</LatitudeDegrees>
              <LongitudeDegrees>-8.3714889921247959136962890625</LongitudeDegrees>
            </Position>
            <AltitudeMeters>3.7999999523162841796875</AltitudeMeters>
            <DistanceMeters>96072.844590198</DistanceMeters>
          </Trackpoint>
          <Trackpoint>
            <Time>2018-04-21T14:59:12.000Z</Time>
            <Position>
              <LatitudeDegrees>43.3195385523140430450439453125</LatitudeDegrees>
              <LongitudeDegrees>-8.371546156704425811767578125</LongitudeDegrees>
            </Position>
            <AltitudeMeters>4</AltitudeMeters>
            <DistanceMeters>96078.29849447</DistanceMeters>
          </Trackpoint>
          <Trackpoint>
            <Time>2018-04-21T14:59:15.000Z</Time>
            <Position>
              <LatitudeDegrees>43.319467641413211822509765625</LatitudeDegrees>
              <LongitudeDegrees>-8.371704407036304473876953125</LongitudeDegrees>
            </Position>
            <AltitudeMeters>4.80000019073486328125</AltitudeMeters>
            <DistanceMeters>96093.348458173</DistanceMeters>
          </Trackpoint>
          <Trackpoint>
            <Time>2018-04-21T14:59:17.000Z</Time>
            <Position>
              <LatitudeDegrees>43.31943704746663570404052734375</LatitudeDegrees>
              <LongitudeDegrees>-8.37181127630174160003662109375</LongitudeDegrees>
            </Position>
            <AltitudeMeters>5.19999980926513671875</AltitudeMeters>
            <DistanceMeters>96102.647491027</DistanceMeters>
          </Trackpoint>
          <Trackpoint>
            <Time>2018-04-21T14:59:18.000Z</Time>
            <Position>
              <LatitudeDegrees>43.31942916847765445709228515625</LatitudeDegrees>
              <LongitudeDegrees>-8.371868692338466644287109375</LongitudeDegrees>
            </Position>
            <AltitudeMeters>5.400000095367431640625</AltitudeMeters>
            <DistanceMeters>96107.378829052</DistanceMeters>
          </Trackpoint>
          <Trackpoint>
            <Time>2018-04-21T14:59:21.000Z</Time>
            <Position>
              <LatitudeDegrees>43.31945012323558330535888671875</LatitudeDegrees>
              <LongitudeDegrees>-8.3720475621521472930908203125</LongitudeDegrees>
            </Position>
            <AltitudeMeters>5.80000019073486328125</AltitudeMeters>
            <DistanceMeters>96122.049919745</DistanceMeters>
          </Trackpoint>
          <Trackpoint>
            <Time>2018-04-21T14:59:22.000Z</Time>
            <Position>
              <LatitudeDegrees>43.31946940161287784576416015625</LatitudeDegrees>
              <LongitudeDegrees>-8.3721089176833629608154296875</LongitudeDegrees>
            </Position>
            <AltitudeMeters>6.19999980926513671875</AltitudeMeters>
            <DistanceMeters>96127.462273021</DistanceMeters>
          </Trackpoint>
          <Trackpoint>
            <Time>2018-04-21T14:59:24.000Z</Time>
            <Position>
              <LatitudeDegrees>43.3195110596716403961181640625</LatitudeDegrees>
              <LongitudeDegrees>-8.372230120003223419189453125</LongitudeDegrees>
            </Position>
            <AltitudeMeters>6.599999904632568359375</AltitudeMeters>
            <DistanceMeters>96138.316969582</DistanceMeters>
          </Trackpoint>
          <Trackpoint>
            <Time>2018-04-21T14:59:28.000Z</Time>
            <Position>
              <LatitudeDegrees>43.3195975609123706817626953125</LatitudeDegrees>
              <LongitudeDegrees>-8.37250806391239166259765625</LongitudeDegrees>
            </Position>
            <AltitudeMeters>6.19999980926513671875</AltitudeMeters>
            <DistanceMeters>96162.796633244</DistanceMeters>
          </Trackpoint>
          <Trackpoint>
            <Time>2018-04-21T14:59:29.000Z</Time>
            <Position>
              <LatitudeDegrees>43.3196227066218852996826171875</LatitudeDegrees>
              <LongitudeDegrees>-8.37258341722190380096435546875</LongitudeDegrees>
            </Position>
            <AltitudeMeters>6.19999980926513671875</AltitudeMeters>
            <DistanceMeters>96169.50931389</DistanceMeters>
          </Trackpoint>
          <Trackpoint>
            <Time>2018-04-21T14:59:37.000Z</Time>
            <Position>
              <LatitudeDegrees>43.3198268897831439971923828125</LatitudeDegrees>
              <LongitudeDegrees>-8.3732418157160282135009765625</LongitudeDegrees>
            </Position>
            <AltitudeMeters>6</AltitudeMeters>
            <DistanceMeters>96227.465482973</DistanceMeters>
          </Trackpoint>
          <Trackpoint>
            <Time>2018-04-21T14:59:40.000Z</Time>
            <Position>
              <LatitudeDegrees>43.31990391947329044342041015625</LatitudeDegrees>
              <LongitudeDegrees>-8.37347575463354587554931640625</LongitudeDegrees>
            </Position>
            <AltitudeMeters>5.19999980926513671875</AltitudeMeters>
            <DistanceMeters>96248.258752561</DistanceMeters>
          </Trackpoint>
          <Trackpoint>
            <Time>2018-04-21T14:59:41.000Z</Time>
            <Position>
              <LatitudeDegrees>43.3199291490018367767333984375</LatitudeDegrees>
              <LongitudeDegrees>-8.37355253286659717559814453125</LongitudeDegrees>
            </Position>
            <AltitudeMeters>5.19999980926513671875</AltitudeMeters>
            <DistanceMeters>96255.079526259</DistanceMeters>
          </Trackpoint>
          <Trackpoint>
            <Time>2018-04-21T14:59:45.000Z</Time>
            <Position>
              <LatitudeDegrees>43.3200280554592609405517578125</LatitudeDegrees>
              <LongitudeDegrees>-8.37385461665689945220947265625</LongitudeDegrees>
            </Position>
            <AltitudeMeters>4.599999904632568359375</AltitudeMeters>
            <DistanceMeters>96281.904004098</DistanceMeters>
          </Trackpoint>
          <Trackpoint>
            <Time>2018-04-21T14:59:49.000Z</Time>
            <Position>
              <LatitudeDegrees>43.3201313205063343048095703125</LatitudeDegrees>
              <LongitudeDegrees>-8.37415066547691822052001953125</LongitudeDegrees>
            </Position>
            <AltitudeMeters>5.19999980926513671875</AltitudeMeters>
            <DistanceMeters>96308.489585028</DistanceMeters>
          </Trackpoint>
          <Trackpoint>
            <Time>2018-04-21T14:59:55.000Z</Time>
            <Position>
              <LatitudeDegrees>43.3202875591814517974853515625</LatitudeDegrees>
              <LongitudeDegrees>-8.37459641508758068084716796875</LongitudeDegrees>
            </Position>
            <AltitudeMeters>4.599999904632568359375</AltitudeMeters>
            <DistanceMeters>96348.554925898</DistanceMeters>
          </Trackpoint>
          <Trackpoint>
            <Time>2018-04-21T14:59:56.000Z</Time>
            <Position>
              <LatitudeDegrees>43.32031781785190105438232421875</LatitudeDegrees>
              <LongitudeDegrees>-8.37466632016003131866455078125</LongitudeDegrees>
            </Position>
            <AltitudeMeters>4.599999904632568359375</AltitudeMeters>
            <DistanceMeters>96355.141312406</DistanceMeters>
          </Trackpoint>
          <Trackpoint>
            <Time>2018-04-21T15:00:00.000Z</Time>
            <Position>
              <LatitudeDegrees>43.32044119946658611297607421875</LatitudeDegrees>
              <LongitudeDegrees>-8.37492473423480987548828125</LongitudeDegrees>
            </Position>
            <AltitudeMeters>4.400000095367431640625</AltitudeMeters>
            <DistanceMeters>96380.170346012</DistanceMeters>
          </Trackpoint>
          <Trackpoint>
            <Time>2018-04-21T15:00:03.000Z</Time>
            <Position>
              <LatitudeDegrees>43.32054488360881805419921875</LatitudeDegrees>
              <LongitudeDegrees>-8.37510201148688793182373046875</LongitudeDegrees>
            </Position>
            <AltitudeMeters>4.19999980926513671875</AltitudeMeters>
            <DistanceMeters>96398.588866904</DistanceMeters>
          </Trackpoint>
          <Trackpoint>
            <Time>2018-04-21T15:00:07.000Z</Time>
            <Position>
              <LatitudeDegrees>43.32073473371565341949462890625</LatitudeDegrees>
              <LongitudeDegrees>-8.3752139098942279815673828125</LongitudeDegrees>
            </Position>
            <AltitudeMeters>4.19999980926513671875</AltitudeMeters>
            <DistanceMeters>96421.580422853</DistanceMeters>
          </Trackpoint>
          <Trackpoint>
            <Time>2018-04-21T15:00:11.000Z</Time>
            <Position>
              <LatitudeDegrees>43.32086834125220775604248046875</LatitudeDegrees>
              <LongitudeDegrees>-8.37518381886184215545654296875</LongitudeDegrees>
            </Position>
            <AltitudeMeters>3.7999999523162841796875</AltitudeMeters>
            <DistanceMeters>96436.649274908</DistanceMeters>
          </Trackpoint>
          <Trackpoint>
            <Time>2018-04-21T15:00:13.000Z</Time>
            <Position>
              <LatitudeDegrees>43.32091905176639556884765625</LatitudeDegrees>
              <LongitudeDegrees>-8.3751562424004077911376953125</LongitudeDegrees>
            </Position>
            <AltitudeMeters>3.7999999523162841796875</AltitudeMeters>
            <DistanceMeters>96442.719094666</DistanceMeters>
          </Trackpoint>
          <Trackpoint>
            <Time>2018-04-21T15:00:16.000Z</Time>
            <Position>
              <LatitudeDegrees>43.3209996856749057769775390625</LatitudeDegrees>
              <LongitudeDegrees>-8.37505356408655643463134765625</LongitudeDegrees>
            </Position>
            <AltitudeMeters>4.19999980926513671875</AltitudeMeters>
            <DistanceMeters>96454.95283845</DistanceMeters>
          </Trackpoint>
          <Trackpoint>
            <Time>2018-04-21T15:00:19.000Z</Time>
            <Position>
              <LatitudeDegrees>43.32109582610428333282470703125</LatitudeDegrees>
              <LongitudeDegrees>-8.37491828016936779022216796875</LongitudeDegrees>
            </Position>
            <AltitudeMeters>4.400000095367431640625</AltitudeMeters>
            <DistanceMeters>96470.266593223</DistanceMeters>
          </Trackpoint>
          <Trackpoint>
            <Time>2018-04-21T15:00:22.000Z</Time>
            <Position>
              <LatitudeDegrees>43.3212011866271495819091796875</LatitudeDegrees>
              <LongitudeDegrees>-8.3747653104364871978759765625</LongitudeDegrees>
            </Position>
            <AltitudeMeters>4.400000095367431640625</AltitudeMeters>
            <DistanceMeters>96487.324086975</DistanceMeters>
          </Trackpoint>
          <Trackpoint>
            <Time>2018-04-21T15:00:29.000Z</Time>
            <Position>
              <LatitudeDegrees>43.32145406864583492279052734375</LatitudeDegrees>
              <LongitudeDegrees>-8.37445358745753765106201171875</LongitudeDegrees>
            </Position>
            <AltitudeMeters>5</AltitudeMeters>
            <DistanceMeters>96525.130868644</DistanceMeters>
          </Trackpoint>
          <Trackpoint>
            <Time>2018-04-21T15:00:32.000Z</Time>
            <Position>
              <LatitudeDegrees>43.3215659670531749725341796875</LatitudeDegrees>
              <LongitudeDegrees>-8.3743257634341716766357421875</LongitudeDegrees>
            </Position>
            <AltitudeMeters>4.80000019073486328125</AltitudeMeters>
            <DistanceMeters>96541.324770274</DistanceMeters>
          </Trackpoint>
          <Trackpoint>
            <Time>2018-04-21T15:00:34.000Z</Time>
            <Position>
              <LatitudeDegrees>43.32165439613163471221923828125</LatitudeDegrees>
              <LongitudeDegrees>-8.37428024969995021820068359375</LongitudeDegrees>
            </Position>
            <AltitudeMeters>5.400000095367431640625</AltitudeMeters>
            <DistanceMeters>96551.834570228</DistanceMeters>
          </Trackpoint>
          <Trackpoint>
            <Time>2018-04-21T15:00:35.000Z</Time>
            <Position>
              <LatitudeDegrees>43.32170016132295131683349609375</LatitudeDegrees>
              <LongitudeDegrees>-8.37427807040512561798095703125</LongitudeDegrees>
            </Position>
            <AltitudeMeters>5.400000095367431640625</AltitudeMeters>
            <DistanceMeters>96556.931582091</DistanceMeters>
          </Trackpoint>
          <Trackpoint>
            <Time>2018-04-21T15:00:39.000Z</Time>
            <Position>
              <LatitudeDegrees>43.32188665866851806640625</LatitudeDegrees>
              <LongitudeDegrees>-8.3743602968752384185791015625</LongitudeDegrees>
            </Position>
            <AltitudeMeters>5</AltitudeMeters>
            <DistanceMeters>96578.730842924</DistanceMeters>
          </Trackpoint>
          <Trackpoint>
            <Time>2018-04-21T15:00:40.000Z</Time>
            <Position>
              <LatitudeDegrees>43.3219320885837078094482421875</LatitudeDegrees>
              <LongitudeDegrees>-8.37437999434769153594970703125</LongitudeDegrees>
            </Position>
            <AltitudeMeters>5</AltitudeMeters>
            <DistanceMeters>96584.031936952</DistanceMeters>
          </Trackpoint>
          <Trackpoint>
            <Time>2018-04-21T15:00:46.000Z</Time>
            <Position>
              <LatitudeDegrees>43.32220173440873622894287109375</LatitudeDegrees>
              <LongitudeDegrees>-8.37455861270427703857421875</LongitudeDegrees>
            </Position>
            <AltitudeMeters>5.19999980926513671875</AltitudeMeters>
            <DistanceMeters>96617.347305567</DistanceMeters>
          </Trackpoint>
          <Trackpoint>
            <Time>2018-04-21T15:00:50.000Z</Time>
            <Position>
              <LatitudeDegrees>43.3223069272935390472412109375</LatitudeDegrees>
              <LongitudeDegrees>-8.3748052082955837249755859375</LongitudeDegrees>
            </Position>
            <AltitudeMeters>4.599999904632568359375</AltitudeMeters>
            <DistanceMeters>96640.494455623</DistanceMeters>
          </Trackpoint>
          <Trackpoint>
            <Time>2018-04-21T15:00:51.000Z</Time>
            <Position>
              <LatitudeDegrees>43.32233802415430545806884765625</LatitudeDegrees>
              <LongitudeDegrees>-8.3748622052371501922607421875</LongitudeDegrees>
            </Position>
            <AltitudeMeters>4.400000095367431640625</AltitudeMeters>
            <DistanceMeters>96646.263759027</DistanceMeters>
          </Trackpoint>
          <Trackpoint>
            <Time>2018-04-21T15:00:56.000Z</Time>
            <Position>
              <LatitudeDegrees>43.32248806022107601165771484375</LatitudeDegrees>
              <LongitudeDegrees>-8.3751619420945644378662109375</LongitudeDegrees>
            </Position>
            <AltitudeMeters>4.599999904632568359375</AltitudeMeters>
            <DistanceMeters>96675.724492682</DistanceMeters>
          </Trackpoint>
          <Trackpoint>
            <Time>2018-04-21T15:01:00.000Z</Time>
            <Position>
              <LatitudeDegrees>43.322620578110218048095703125</LatitudeDegrees>
              <LongitudeDegrees>-8.37539143860340118408203125</LongitudeDegrees>
            </Position>
            <AltitudeMeters>5</AltitudeMeters>
            <DistanceMeters>96699.449601429</DistanceMeters>
          </Trackpoint>
          <Trackpoint>
            <Time>2018-04-21T15:01:02.000Z</Time>
            <Position>
              <LatitudeDegrees>43.32270666025578975677490234375</LatitudeDegrees>
              <LongitudeDegrees>-8.3754844777286052703857421875</LongitudeDegrees>
            </Position>
            <AltitudeMeters>5.400000095367431640625</AltitudeMeters>
            <DistanceMeters>96711.637865768</DistanceMeters>
          </Trackpoint>
          <Trackpoint>
            <Time>2018-04-21T15:01:04.000Z</Time>
            <Position>
              <LatitudeDegrees>43.32278897054493427276611328125</LatitudeDegrees>
              <LongitudeDegrees>-8.3755874074995517730712890625</LongitudeDegrees>
            </Position>
            <AltitudeMeters>5.400000095367431640625</AltitudeMeters>
            <DistanceMeters>96724.022730663</DistanceMeters>
          </Trackpoint>
          <Trackpoint>
            <Time>2018-04-21T15:01:05.000Z</Time>
            <Position>
              <LatitudeDegrees>43.3228188939392566680908203125</LatitudeDegrees>
              <LongitudeDegrees>-8.375653959810733795166015625</LongitudeDegrees>
            </Position>
            <AltitudeMeters>5</AltitudeMeters>
            <DistanceMeters>96730.357528191</DistanceMeters>
          </Trackpoint>
          <Trackpoint>
            <Time>2018-04-21T15:01:06.000Z</Time>
            <Position>
              <LatitudeDegrees>43.32283708266913890838623046875</LatitudeDegrees>
              <LongitudeDegrees>-8.37572864256799221038818359375</LongitudeDegrees>
            </Position>
            <AltitudeMeters>4.80000019073486328125</AltitudeMeters>
            <DistanceMeters>96736.734238489</DistanceMeters>
          </Trackpoint>
          <Trackpoint>
            <Time>2018-04-21T15:01:09.000Z</Time>
            <Position>
              <LatitudeDegrees>43.32284630276262760162353515625</LatitudeDegrees>
              <LongitudeDegrees>-8.375955037772655487060546875</LongitudeDegrees>
            </Position>
            <AltitudeMeters>4.19999980926513671875</AltitudeMeters>
            <DistanceMeters>96755.094570287</DistanceMeters>
          </Trackpoint>
          <Trackpoint>
            <Time>2018-04-21T15:01:10.000Z</Time>
            <Position>
              <LatitudeDegrees>43.32284512929618358612060546875</LatitudeDegrees>
              <LongitudeDegrees>-8.37602846324443817138671875</LongitudeDegrees>
            </Position>
            <AltitudeMeters>4.599999904632568359375</AltitudeMeters>
            <DistanceMeters>96761.041147399</DistanceMeters>
          </Trackpoint>
          <Trackpoint>
            <Time>2018-04-21T15:01:11.000Z</Time>
            <Position>
              <LatitudeDegrees>43.3228396810591220855712890625</LatitudeDegrees>
              <LongitudeDegrees>-8.3761003799736499786376953125</LongitudeDegrees>
            </Position>
            <AltitudeMeters>4.400000095367431640625</AltitudeMeters>
            <DistanceMeters>96766.895132376</DistanceMeters>
          </Trackpoint>
          <Trackpoint>
            <Time>2018-04-21T15:01:16.000Z</Time>
            <Position>
              <LatitudeDegrees>43.32282342016696929931640625</LatitudeDegrees>
              <LongitudeDegrees>-8.37647262029349803924560546875</LongitudeDegrees>
            </Position>
            <AltitudeMeters>3.599999904632568359375</AltitudeMeters>
            <DistanceMeters>96797.090459638</DistanceMeters>
          </Trackpoint>
          <Trackpoint>
            <Time>2018-04-21T15:01:18.000Z</Time>
            <Position>
              <LatitudeDegrees>43.32280372269451618194580078125</LatitudeDegrees>
              <LongitudeDegrees>-8.37661528028547763824462890625</LongitudeDegrees>
            </Position>
            <AltitudeMeters>3.7999999523162841796875</AltitudeMeters>
            <DistanceMeters>96808.847687636</DistanceMeters>
          </Trackpoint>
          <Trackpoint>
            <Time>2018-04-21T15:01:20.000Z</Time>
            <Position>
              <LatitudeDegrees>43.32274588756263256072998046875</LatitudeDegrees>
              <LongitudeDegrees>-8.3767360635101795196533203125</LongitudeDegrees>
            </Position>
            <AltitudeMeters>3.7999999523162841796875</AltitudeMeters>
            <DistanceMeters>96820.555657589</DistanceMeters>
          </Trackpoint>
          <Trackpoint>
            <Time>2018-04-21T15:01:23.000Z</Time>
            <Position>
              <LatitudeDegrees>43.3226096816360950469970703125</LatitudeDegrees>
              <LongitudeDegrees>-8.37686665356159210205078125</LongitudeDegrees>
            </Position>
            <AltitudeMeters>3.7999999523162841796875</AltitudeMeters>
            <DistanceMeters>96839.039269579</DistanceMeters>
          </Trackpoint>
          <Trackpoint>
            <Time>2018-04-21T15:01:24.000Z</Time>
            <Position>
              <LatitudeDegrees>43.32256534136831760406494140625</LatitudeDegrees>
              <LongitudeDegrees>-8.3769087307155132293701171875</LongitudeDegrees>
            </Position>
            <AltitudeMeters>4</AltitudeMeters>
            <DistanceMeters>96845.035748912</DistanceMeters>
          </Trackpoint>
          <Trackpoint>
            <Time>2018-04-21T15:01:30.000Z</Time>
            <Position>
              <LatitudeDegrees>43.322329223155975341796875</LatitudeDegrees>
              <LongitudeDegrees>-8.37710612453520298004150390625</LongitudeDegrees>
            </Position>
            <AltitudeMeters>4.80000019073486328125</AltitudeMeters>
            <DistanceMeters>96875.794914366</DistanceMeters>
          </Trackpoint>
          <Trackpoint>
            <Time>2018-04-21T15:01:32.000Z</Time>
            <Position>
              <LatitudeDegrees>43.3222546242177486419677734375</LatitudeDegrees>
              <LongitudeDegrees>-8.37715071626007556915283203125</LongitudeDegrees>
            </Position>
            <AltitudeMeters>5.80000019073486328125</AltitudeMeters>
            <DistanceMeters>96884.84892088</DistanceMeters>
          </Trackpoint>
          <Trackpoint>
            <Time>2018-04-21T15:01:34.000Z</Time>
            <Position>
              <LatitudeDegrees>43.32218430005013942718505859375</LatitudeDegrees>
              <LongitudeDegrees>-8.3772057853639125823974609375</LongitudeDegrees>
            </Position>
            <AltitudeMeters>5.80000019073486328125</AltitudeMeters>
            <DistanceMeters>96893.856932144</DistanceMeters>
          </Trackpoint>
          <Trackpoint>
            <Time>2018-04-21T15:01:35.000Z</Time>
            <Position>
              <LatitudeDegrees>43.3221535384654998779296875</LatitudeDegrees>
              <LongitudeDegrees>-8.37724543176591396331787109375</LongitudeDegrees>
            </Position>
            <AltitudeMeters>5.80000019073486328125</AltitudeMeters>
            <DistanceMeters>96898.549943592</DistanceMeters>
          </Trackpoint>
          <Trackpoint>
            <Time>2018-04-21T15:01:36.000Z</Time>
            <Position>
              <LatitudeDegrees>43.322129063308238983154296875</LatitudeDegrees>
              <LongitudeDegrees>-8.377291448414325714111328125</LongitudeDegrees>
            </Position>
            <AltitudeMeters>6</AltitudeMeters>
            <DistanceMeters>96903.166325336</DistanceMeters>
          </Trackpoint>
          <Trackpoint>
            <Time>2018-04-21T15:01:38.000Z</Time>
            <Position>
              <LatitudeDegrees>43.3221027441322803497314453125</LatitudeDegrees>
              <LongitudeDegrees>-8.37741206400096416473388671875</LongitudeDegrees>
            </Position>
            <AltitudeMeters>6.19999980926513671875</AltitudeMeters>
            <DistanceMeters>96913.362120549</DistanceMeters>
          </Trackpoint>
          <Trackpoint>
            <Time>2018-04-21T15:01:39.000Z</Time>
            <Position>
              <LatitudeDegrees>43.32210727035999298095703125</LatitudeDegrees>
              <LongitudeDegrees>-8.37747727520763874053955078125</LongitudeDegrees>
            </Position>
            <AltitudeMeters>6</AltitudeMeters>
            <DistanceMeters>96918.666620355</DistanceMeters>
          </Trackpoint>
          <Trackpoint>
            <Time>2018-04-21T15:01:42.000Z</Time>
            <Position>
              <LatitudeDegrees>43.32218614406883716583251953125</LatitudeDegrees>
              <LongitudeDegrees>-8.37765388190746307373046875</LongitudeDegrees>
            </Position>
            <AltitudeMeters>7.19999980926513671875</AltitudeMeters>
            <DistanceMeters>96935.446842156</DistanceMeters>
          </Trackpoint>
          <Trackpoint>
            <Time>2018-04-21T15:01:44.000Z</Time>
            <Position>
              <LatitudeDegrees>43.3222744055092334747314453125</LatitudeDegrees>
              <LongitudeDegrees>-8.3777271397411823272705078125</LongitudeDegrees>
            </Position>
            <AltitudeMeters>7.80000019073486328125</AltitudeMeters>
            <DistanceMeters>96946.922670442</DistanceMeters>
          </Trackpoint>
          <Trackpoint>
            <Time>2018-04-21T15:01:45.000Z</Time>
            <Position>
              <LatitudeDegrees>43.3223144710063934326171875</LatitudeDegrees>
              <LongitudeDegrees>-8.37777215056121349334716796875</LongitudeDegrees>
            </Position>
            <AltitudeMeters>7.599999904632568359375</AltitudeMeters>
            <DistanceMeters>96952.68257503</DistanceMeters>
          </Trackpoint>
          <Trackpoint>
            <Time>2018-04-21T15:01:46.000Z</Time>
            <Position>
              <LatitudeDegrees>43.32235143519937992095947265625</LatitudeDegrees>
              <LongitudeDegrees>-8.377822525799274444580078125</LongitudeDegrees>
            </Position>
            <AltitudeMeters>7.19999980926513671875</AltitudeMeters>
            <DistanceMeters>96958.476867412</DistanceMeters>
          </Trackpoint>
          <Trackpoint>
            <Time>2018-04-21T15:01:49.000Z</Time>
            <Position>
              <LatitudeDegrees>43.32244682125747203826904296875</LatitudeDegrees>
              <LongitudeDegrees>-8.37799041531980037689208984375</LongitudeDegrees>
            </Position>
            <AltitudeMeters>7.19999980926513671875</AltitudeMeters>
            <DistanceMeters>96975.725721249</DistanceMeters>
          </Trackpoint>
          <Trackpoint>
            <Time>2018-04-21T15:01:52.000Z</Time>
            <Position>
              <LatitudeDegrees>43.32252896390855312347412109375</LatitudeDegrees>
              <LongitudeDegrees>-8.37817691266536712646484375</LongitudeDegrees>
            </Position>
            <AltitudeMeters>7.19999980926513671875</AltitudeMeters>
            <DistanceMeters>96993.378707911</DistanceMeters>
          </Trackpoint>
          <Trackpoint>
            <Time>2018-04-21T15:01:57.000Z</Time>
            <Position>
              <LatitudeDegrees>43.32266944460570812225341796875</LatitudeDegrees>
              <LongitudeDegrees>-8.378482349216938018798828125</LongitudeDegrees>
            </Position>
            <AltitudeMeters>5.80000019073486328125</AltitudeMeters>
            <DistanceMeters>97022.638604487</DistanceMeters>
          </Trackpoint>
          <Trackpoint>
            <Time>2018-04-21T15:01:59.000Z</Time>
            <Position>
              <LatitudeDegrees>43.3227307163178920745849609375</LatitudeDegrees>
              <LongitudeDegrees>-8.37859424762427806854248046875</LongitudeDegrees>
            </Position>
            <AltitudeMeters>5.400000095367431640625</AltitudeMeters>
            <DistanceMeters>97033.979078406</DistanceMeters>
          </Trackpoint>
          <Trackpoint>
            <Time>2018-04-21T15:02:00.000Z</Time>
            <Position>
              <LatitudeDegrees>43.32276700995862483978271484375</LatitudeDegrees>
              <LongitudeDegrees>-8.3786421082913875579833984375</LongitudeDegrees>
            </Position>
            <AltitudeMeters>5.599999904632568359375</AltitudeMeters>
            <DistanceMeters>97039.576789122</DistanceMeters>
          </Trackpoint>
          <Trackpoint>
            <Time>2018-04-21T15:02:03.000Z</Time>
            <Position>
              <LatitudeDegrees>43.32289810292422771453857421875</LatitudeDegrees>
              <LongitudeDegrees>-8.37874562479555606842041015625</LongitudeDegrees>
            </Position>
            <AltitudeMeters>6.599999904632568359375</AltitudeMeters>
            <DistanceMeters>97056.40430044</DistanceMeters>
          </Trackpoint>
          <Trackpoint>
            <Time>2018-04-21T15:02:04.000Z</Time>
            <Position>
              <LatitudeDegrees>43.32294411957263946533203125</LatitudeDegrees>
              <LongitudeDegrees>-8.37876657955348491668701171875</LongitudeDegrees>
            </Position>
            <AltitudeMeters>6.80000019073486328125</AltitudeMeters>
            <DistanceMeters>97061.799943724</DistanceMeters>
          </Trackpoint>
          <Trackpoint>
            <Time>2018-04-21T15:02:05.000Z</Time>
            <Position>
              <LatitudeDegrees>43.32299239933490753173828125</LatitudeDegrees>
              <LongitudeDegrees>-8.378789126873016357421875</LongitudeDegrees>
            </Position>
            <AltitudeMeters>6.80000019073486328125</AltitudeMeters>
            <DistanceMeters>97067.475354077</DistanceMeters>
          </Trackpoint>
          <Trackpoint>
            <Time>2018-04-21T15:02:06.000Z</Time>
            <Position>
              <LatitudeDegrees>43.32304076291620731353759765625</LatitudeDegrees>
              <LongitudeDegrees>-8.378822319209575653076171875</LongitudeDegrees>
            </Position>
            <AltitudeMeters>6.599999904632568359375</AltitudeMeters>
            <DistanceMeters>97073.491378212</DistanceMeters>
          </Trackpoint>
          <Trackpoint>
            <Time>2018-04-21T15:02:07.000Z</Time>
            <Position>
              <LatitudeDegrees>43.32308837212622165679931640625</LatitudeDegrees>
              <LongitudeDegrees>-8.3788617141544818878173828125</LongitudeDegrees>
            </Position>
            <AltitudeMeters>6.19999980926513671875</AltitudeMeters>
            <DistanceMeters>97079.676150141</DistanceMeters>
          </Trackpoint>
          <Trackpoint>
            <Time>2018-04-21T15:02:10.000Z</Time>
            <Position>
              <LatitudeDegrees>43.32323371432721614837646484375</LatitudeDegrees>
              <LongitudeDegrees>-8.37899708189070224761962890625</LongitudeDegrees>
            </Position>
            <AltitudeMeters>6.599999904632568359375</AltitudeMeters>
            <DistanceMeters>97099.216563452</DistanceMeters>
          </Trackpoint>
          <Trackpoint>
            <Time>2018-04-21T15:02:12.000Z</Time>
            <Position>
              <LatitudeDegrees>43.32331426441669464111328125</LatitudeDegrees>
              <LongitudeDegrees>-8.37911040522158145904541015625</LongitudeDegrees>
            </Position>
            <AltitudeMeters>5.400000095367431640625</AltitudeMeters>
            <DistanceMeters>97112.045169892</DistanceMeters>
          </Trackpoint>
          <Trackpoint>
            <Time>2018-04-21T15:02:20.000Z</Time>
            <Position>
              <LatitudeDegrees>43.32362850196659564971923828125</LatitudeDegrees>
              <LongitudeDegrees>-8.37954710237681865692138671875</LongitudeDegrees>
            </Position>
            <AltitudeMeters>4.80000019073486328125</AltitudeMeters>
            <DistanceMeters>97161.780376538</DistanceMeters>
          </Trackpoint>
          <Trackpoint>
            <Time>2018-04-21T15:02:23.000Z</Time>
            <Position>
              <LatitudeDegrees>43.3237496204674243927001953125</LatitudeDegrees>
              <LongitudeDegrees>-8.37968087755143642425537109375</LongitudeDegrees>
            </Position>
            <AltitudeMeters>5.599999904632568359375</AltitudeMeters>
            <DistanceMeters>97179.07341102</DistanceMeters>
          </Trackpoint>
          <Trackpoint>
            <Time>2018-04-21T15:02:25.000Z</Time>
            <Position>
              <LatitudeDegrees>43.32383863627910614013671875</LatitudeDegrees>
              <LongitudeDegrees>-8.3797092922031879425048828125</LongitudeDegrees>
            </Position>
            <AltitudeMeters>5.80000019073486328125</AltitudeMeters>
            <DistanceMeters>97189.244821238</DistanceMeters>
          </Trackpoint>
          <Trackpoint>
            <Time>2018-04-21T15:02:28.000Z</Time>
            <Position>
              <LatitudeDegrees>43.323971070349216461181640625</LatitudeDegrees>
              <LongitudeDegrees>-8.379616923630237579345703125</LongitudeDegrees>
            </Position>
            <AltitudeMeters>6.19999980926513671875</AltitudeMeters>
            <DistanceMeters>97205.774280484</DistanceMeters>
          </Trackpoint>
          <Trackpoint>
            <Time>2018-04-21T15:02:29.000Z</Time>
            <Position>
              <LatitudeDegrees>43.32400719635188579559326171875</LatitudeDegrees>
              <LongitudeDegrees>-8.3795667998492717742919921875</LongitudeDegrees>
            </Position>
            <AltitudeMeters>6.400000095367431640625</AltitudeMeters>
            <DistanceMeters>97211.487749338</DistanceMeters>
          </Trackpoint>
          <Trackpoint>
            <Time>2018-04-21T15:02:30.000Z</Time>
            <Position>
              <LatitudeDegrees>43.32404290325939655303955078125</LatitudeDegrees>
              <LongitudeDegrees>-8.37951323948800563812255859375</LongitudeDegrees>
            </Position>
            <AltitudeMeters>6</AltitudeMeters>
            <DistanceMeters>97217.370202307</DistanceMeters>
          </Trackpoint>
          <Trackpoint>
            <Time>2018-04-21T15:02:31.000Z</Time>
            <Position>
              <LatitudeDegrees>43.3240812085568904876708984375</LatitudeDegrees>
              <LongitudeDegrees>-8.37946462444961071014404296875</LongitudeDegrees>
            </Position>
            <AltitudeMeters>6.19999980926513671875</AltitudeMeters>
            <DistanceMeters>97223.172281674</DistanceMeters>
          </Trackpoint>
          <Trackpoint>
            <Time>2018-04-21T15:02:33.000Z</Time>
            <Position>
              <LatitudeDegrees>43.32417097873985767364501953125</LatitudeDegrees>
              <LongitudeDegrees>-8.37940461002290248870849609375</LongitudeDegrees>
            </Position>
            <AltitudeMeters>7</AltitudeMeters>
            <DistanceMeters>97234.282688732</DistanceMeters>
          </Trackpoint>
          <Trackpoint>
            <Time>2018-04-21T15:02:38.000Z</Time>
            <Position>
              <LatitudeDegrees>43.32440734840929508209228515625</LatitudeDegrees>
              <LongitudeDegrees>-8.37936781346797943115234375</LongitudeDegrees>
            </Position>
            <AltitudeMeters>7</AltitudeMeters>
            <DistanceMeters>97260.759355146</DistanceMeters>
          </Trackpoint>
          <Trackpoint>
            <Time>2018-04-21T15:02:42.000Z</Time>
            <Position>
              <LatitudeDegrees>43.324585966765880584716796875</LatitudeDegrees>
              <LongitudeDegrees>-8.37949655950069427490234375</LongitudeDegrees>
            </Position>
            <AltitudeMeters>6.599999904632568359375</AltitudeMeters>
            <DistanceMeters>97283.20759374</DistanceMeters>
          </Trackpoint>
          <Trackpoint>
            <Time>2018-04-21T15:02:45.000Z</Time>
            <Position>
              <LatitudeDegrees>43.32469903863966464996337890625</LatitudeDegrees>
              <LongitudeDegrees>-8.37963393889367580413818359375</LongitudeDegrees>
            </Position>
            <AltitudeMeters>6</AltitudeMeters>
            <DistanceMeters>97300.004489537</DistanceMeters>
          </Trackpoint>
          <Trackpoint>
            <Time>2018-04-21T15:02:48.000Z</Time>
            <Position>
              <LatitudeDegrees>43.32481227815151214599609375</LatitudeDegrees>
              <LongitudeDegrees>-8.3797766827046871185302734375</LongitudeDegrees>
            </Position>
            <AltitudeMeters>5.80000019073486328125</AltitudeMeters>
            <DistanceMeters>97317.105074192</DistanceMeters>
          </Trackpoint>
          <Trackpoint>
            <Time>2018-04-21T15:02:53.000Z</Time>
            <Position>
              <LatitudeDegrees>43.32500196062028408050537109375</LatitudeDegrees>
              <LongitudeDegrees>-8.380034007132053375244140625</LongitudeDegrees>
            </Position>
            <AltitudeMeters>5.400000095367431640625</AltitudeMeters>
            <DistanceMeters>97346.766959469</DistanceMeters>
          </Trackpoint>
          <Trackpoint>
            <Time>2018-04-21T15:02:55.000Z</Time>
            <Position>
              <LatitudeDegrees>43.325083516538143157958984375</LatitudeDegrees>
              <LongitudeDegrees>-8.3801538683474063873291015625</LongitudeDegrees>
            </Position>
            <AltitudeMeters>5.19999980926513671875</AltitudeMeters>
            <DistanceMeters>97360.055078779</DistanceMeters>
          </Trackpoint>
          <Trackpoint>
            <Time>2018-04-21T15:02:57.000Z</Time>
            <Position>
              <LatitudeDegrees>43.3251817524433135986328125</LatitudeDegrees>
              <LongitudeDegrees>-8.380258977413177490234375</LongitudeDegrees>
            </Position>
            <AltitudeMeters>4.80000019073486328125</AltitudeMeters>
            <DistanceMeters>97373.91074279</DistanceMeters>
          </Trackpoint>
          <Trackpoint>
            <Time>2018-04-21T15:02:59.000Z</Time>
            <Position>
              <LatitudeDegrees>43.32529750652611255645751953125</LatitudeDegrees>
              <LongitudeDegrees>-8.3803225122392177581787109375</LongitudeDegrees>
            </Position>
            <AltitudeMeters>4.80000019073486328125</AltitudeMeters>
            <DistanceMeters>97387.783341291</DistanceMeters>
          </Trackpoint>
          <Trackpoint>
            <Time>2018-04-21T15:03:01.000Z</Time>
            <Position>
              <LatitudeDegrees>43.32542357034981250762939453125</LatitudeDegrees>
              <LongitudeDegrees>-8.380347825586795806884765625</LongitudeDegrees>
            </Position>
            <AltitudeMeters>4.599999904632568359375</AltitudeMeters>
            <DistanceMeters>97401.963033887</DistanceMeters>
          </Trackpoint>
          <Trackpoint>
            <Time>2018-04-21T15:03:03.000Z</Time>
            <Position>
              <LatitudeDegrees>43.32554452121257781982421875</LatitudeDegrees>
              <LongitudeDegrees>-8.380370624363422393798828125</LongitudeDegrees>
            </Position>
            <AltitudeMeters>4.400000095367431640625</AltitudeMeters>
            <DistanceMeters>97415.550857221</DistanceMeters>
          </Trackpoint>
          <Trackpoint>
            <Time>2018-04-21T15:03:04.000Z</Time>
            <Position>
              <LatitudeDegrees>43.32560193724930286407470703125</LatitudeDegrees>
              <LongitudeDegrees>-8.38038009591400623321533203125</LongitudeDegrees>
            </Position>
            <AltitudeMeters>4.400000095367431640625</AltitudeMeters>
            <DistanceMeters>97421.987470518</DistanceMeters>
          </Trackpoint>
          <Trackpoint>
            <Time>2018-04-21T15:03:05.000Z</Time>
            <Position>
              <LatitudeDegrees>43.32565407268702983856201171875</LatitudeDegrees>
              <LongitudeDegrees>-8.38040054775774478912353515625</LongitudeDegrees>
            </Position>
            <AltitudeMeters>4.400000095367431640625</AltitudeMeters>
            <DistanceMeters>97428.022228035</DistanceMeters>
          </Trackpoint>
          <Trackpoint>
            <Time>2018-04-21T15:03:07.000Z</Time>
            <Position>
              <LatitudeDegrees>43.32574903964996337890625</LatitudeDegrees>
              <LongitudeDegrees>-8.3804294653236865997314453125</LongitudeDegrees>
            </Position>
            <AltitudeMeters>4.80000019073486328125</AltitudeMeters>
            <DistanceMeters>97438.848602878</DistanceMeters>
          </Trackpoint>
          <Trackpoint>
            <Time>2018-04-21T15:03:08.000Z</Time>
            <Position>
              <LatitudeDegrees>43.3257988281548023223876953125</LatitudeDegrees>
              <LongitudeDegrees>-8.38043726049363613128662109375</LongitudeDegrees>
            </Position>
            <AltitudeMeters>5</AltitudeMeters>
            <DistanceMeters>97444.426112479</DistanceMeters>
          </Trackpoint>
          <Trackpoint>
            <Time>2018-04-21T15:03:14.000Z</Time>
            <Position>
              <LatitudeDegrees>43.32611926831305027008056640625</LatitudeDegrees>
              <LongitudeDegrees>-8.3804529346525669097900390625</LongitudeDegrees>
            </Position>
            <AltitudeMeters>4.599999904632568359375</AltitudeMeters>
            <DistanceMeters>97480.11417914</DistanceMeters>
          </Trackpoint>
          <Trackpoint>
            <Time>2018-04-21T15:03:21.000Z</Time>
            <Position>
              <LatitudeDegrees>43.32650047726929187774658203125</LatitudeDegrees>
              <LongitudeDegrees>-8.380374647676944732666015625</LongitudeDegrees>
            </Position>
            <AltitudeMeters>5</AltitudeMeters>
            <DistanceMeters>97523.014399537</DistanceMeters>
          </Trackpoint>
          <Trackpoint>
            <Time>2018-04-21T15:03:25.000Z</Time>
            <Position>
              <LatitudeDegrees>43.3267255313694477081298828125</LatitudeDegrees>
              <LongitudeDegrees>-8.3803121186792850494384765625</LongitudeDegrees>
            </Position>
            <AltitudeMeters>5</AltitudeMeters>
            <DistanceMeters>97548.570049572</DistanceMeters>
          </Trackpoint>
          <Trackpoint>
            <Time>2018-04-21T15:03:28.000Z</Time>
            <Position>
              <LatitudeDegrees>43.32688570953905582427978515625</LatitudeDegrees>
              <LongitudeDegrees>-8.3802219294011592864990234375</LongitudeDegrees>
            </Position>
            <AltitudeMeters>5</AltitudeMeters>
            <DistanceMeters>97567.835412325</DistanceMeters>
          </Trackpoint>
          <Trackpoint>
            <Time>2018-04-21T15:03:29.000Z</Time>
            <Position>
              <LatitudeDegrees>43.32693331874907016754150390625</LatitudeDegrees>
              <LongitudeDegrees>-8.3801798522472381591796875</LongitudeDegrees>
            </Position>
            <AltitudeMeters>5</AltitudeMeters>
            <DistanceMeters>97574.134472247</DistanceMeters>
          </Trackpoint>
          <Trackpoint>
            <Time>2018-04-21T15:03:32.000Z</Time>
            <Position>
              <LatitudeDegrees>43.3270557783544063568115234375</LatitudeDegrees>
              <LongitudeDegrees>-8.38002487085759639739990234375</LongitudeDegrees>
            </Position>
            <AltitudeMeters>5.19999980926513671875</AltitudeMeters>
            <DistanceMeters>97592.66127002</DistanceMeters>
          </Trackpoint>
          <Trackpoint>
            <Time>2018-04-21T15:03:39.000Z</Time>
            <Position>
              <LatitudeDegrees>43.3273585326969623565673828125</LatitudeDegrees>
              <LongitudeDegrees>-8.37966059334576129913330078125</LongitudeDegrees>
            </Position>
            <AltitudeMeters>5</AltitudeMeters>
            <DistanceMeters>97637.443056571</DistanceMeters>
          </Trackpoint>
          <Trackpoint>
            <Time>2018-04-21T15:03:40.000Z</Time>
            <Position>
              <LatitudeDegrees>43.327403962612152099609375</LatitudeDegrees>
              <LongitudeDegrees>-8.37961600162088871002197265625</LongitudeDegrees>
            </Position>
            <AltitudeMeters>5.19999980926513671875</AltitudeMeters>
            <DistanceMeters>97643.656234244</DistanceMeters>
          </Trackpoint>
          <Trackpoint>
            <Time>2018-04-21T15:03:43.000Z</Time>
            <Position>
              <LatitudeDegrees>43.327541761100292205810546875</LatitudeDegrees>
              <LongitudeDegrees>-8.379491530358791351318359375</LongitudeDegrees>
            </Position>
            <AltitudeMeters>4.599999904632568359375</AltitudeMeters>
            <DistanceMeters>97662.00844913</DistanceMeters>
          </Trackpoint>
          <Trackpoint>
            <Time>2018-04-21T15:03:44.000Z</Time>
            <Position>
              <LatitudeDegrees>43.3275908790528774261474609375</LatitudeDegrees>
              <LongitudeDegrees>-8.37945624254643917083740234375</LongitudeDegrees>
            </Position>
            <AltitudeMeters>4.599999904632568359375</AltitudeMeters>
            <DistanceMeters>97668.177139602</DistanceMeters>
          </Trackpoint>
          <Trackpoint>
            <Time>2018-04-21T15:03:47.000Z</Time>
            <Position>
              <LatitudeDegrees>43.32774619571864604949951171875</LatitudeDegrees>
              <LongitudeDegrees>-8.37935666553676128387451171875</LongitudeDegrees>
            </Position>
            <AltitudeMeters>5.599999904632568359375</AltitudeMeters>
            <DistanceMeters>97687.251725838</DistanceMeters>
          </Trackpoint>
          <Trackpoint>
            <Time>2018-04-21T15:03:50.000Z</Time>
            <Position>
              <LatitudeDegrees>43.327905200421810150146484375</LatitudeDegrees>
              <LongitudeDegrees>-8.3792866766452789306640625</LongitudeDegrees>
            </Position>
            <AltitudeMeters>5.400000095367431640625</AltitudeMeters>
            <DistanceMeters>97705.83424782</DistanceMeters>
          </Trackpoint>
          <Trackpoint>
            <Time>2018-04-21T15:03:56.000Z</Time>
            <Position>
              <LatitudeDegrees>43.3282396383583545684814453125</LatitudeDegrees>
              <LongitudeDegrees>-8.37922456674277782440185546875</LongitudeDegrees>
            </Position>
            <AltitudeMeters>5.400000095367431640625</AltitudeMeters>
            <DistanceMeters>97743.395893201</DistanceMeters>
          </Trackpoint>
          <Trackpoint>
            <Time>2018-04-21T15:04:00.000Z</Time>
            <Position>
              <LatitudeDegrees>43.32845396362245082855224609375</LatitudeDegrees>
              <LongitudeDegrees>-8.37924904190003871917724609375</LongitudeDegrees>
            </Position>
            <AltitudeMeters>5.80000019073486328125</AltitudeMeters>
            <DistanceMeters>97767.332630248</DistanceMeters>
          </Trackpoint>
          <Trackpoint>
            <Time>2018-04-21T15:04:03.000Z</Time>
            <Position>
              <LatitudeDegrees>43.32860718481242656707763671875</LatitudeDegrees>
              <LongitudeDegrees>-8.379293717443943023681640625</LongitudeDegrees>
            </Position>
            <AltitudeMeters>5.80000019073486328125</AltitudeMeters>
            <DistanceMeters>97784.765824241</DistanceMeters>
          </Trackpoint>
          <Trackpoint>
            <Time>2018-04-21T15:04:10.000Z</Time>
            <Position>
              <LatitudeDegrees>43.328957296907901763916015625</LatitudeDegrees>
              <LongitudeDegrees>-8.37946437299251556396484375</LongitudeDegrees>
            </Position>
            <AltitudeMeters>6</AltitudeMeters>
            <DistanceMeters>97826.111182157</DistanceMeters>
          </Trackpoint>
          <Trackpoint>
            <Time>2018-04-21T15:04:12.000Z</Time>
            <Position>
              <LatitudeDegrees>43.32905821502208709716796875</LatitudeDegrees>
              <LongitudeDegrees>-8.37953251786530017852783203125</LongitudeDegrees>
            </Position>
            <AltitudeMeters>6.19999980926513671875</AltitudeMeters>
            <DistanceMeters>97838.625879351</DistanceMeters>
          </Trackpoint>
          <Trackpoint>
            <Time>2018-04-21T15:04:15.000Z</Time>
            <Position>
              <LatitudeDegrees>43.32917950116097927093505859375</LatitudeDegrees>
              <LongitudeDegrees>-8.37968875654041767120361328125</LongitudeDegrees>
            </Position>
            <AltitudeMeters>5.400000095367431640625</AltitudeMeters>
            <DistanceMeters>97857.125606301</DistanceMeters>
          </Trackpoint>
          <Trackpoint>
            <Time>2018-04-21T15:04:16.000Z</Time>
            <Position>
              <LatitudeDegrees>43.32921436987817287445068359375</LatitudeDegrees>
              <LongitudeDegrees>-8.3797451667487621307373046875</LongitudeDegrees>
            </Position>
            <AltitudeMeters>5</AltitudeMeters>
            <DistanceMeters>97863.119073085</DistanceMeters>
          </Trackpoint>
          <Trackpoint>
            <Time>2018-04-21T15:04:17.000Z</Time>
            <Position>
              <LatitudeDegrees>43.329241611063480377197265625</LatitudeDegrees>
              <LongitudeDegrees>-8.3798061870038509368896484375</LongitudeDegrees>
            </Position>
            <AltitudeMeters>5</AltitudeMeters>
            <DistanceMeters>97868.916481517</DistanceMeters>
          </Trackpoint>
          <Trackpoint>
            <Time>2018-04-21T15:04:20.000Z</Time>
            <Position>
              <LatitudeDegrees>43.32929852418601512908935546875</LatitudeDegrees>
              <LongitudeDegrees>-8.38000609539449214935302734375</LongitudeDegrees>
            </Position>
            <AltitudeMeters>4.80000019073486328125</AltitudeMeters>
            <DistanceMeters>97886.297280617</DistanceMeters>
          </Trackpoint>
          <Trackpoint>
            <Time>2018-04-21T15:04:21.000Z</Time>
            <Position>
              <LatitudeDegrees>43.3293091692030429840087890625</LatitudeDegrees>
              <LongitudeDegrees>-8.3800792694091796875</LongitudeDegrees>
            </Position>
            <AltitudeMeters>4.400000095367431640625</AltitudeMeters>
            <DistanceMeters>97892.338767933</DistanceMeters>
          </Trackpoint>
          <Trackpoint>
            <Time>2018-04-21T15:04:23.000Z</Time>
            <Position>
              <LatitudeDegrees>43.32932400517165660858154296875</LatitudeDegrees>
              <LongitudeDegrees>-8.3802339993417263031005859375</LongitudeDegrees>
            </Position>
            <AltitudeMeters>3.7999999523162841796875</AltitudeMeters>
            <DistanceMeters>97904.974819993</DistanceMeters>
          </Trackpoint>
          <Trackpoint>
            <Time>2018-04-21T15:04:25.000Z</Time>
            <Position>
              <LatitudeDegrees>43.32934093661606311798095703125</LatitudeDegrees>
              <LongitudeDegrees>-8.38039333932101726531982421875</LongitudeDegrees>
            </Position>
            <AltitudeMeters>4</AltitudeMeters>
            <DistanceMeters>97918.012540614</DistanceMeters>
          </Trackpoint>
          <Trackpoint>
            <Time>2018-04-21T15:04:32.000Z</Time>
            <Position>
              <LatitudeDegrees>43.32938955165445804595947265625</LatitudeDegrees>
              <LongitudeDegrees>-8.3809833414852619171142578125</LongitudeDegrees>
            </Position>
            <AltitudeMeters>4.80000019073486328125</AltitudeMeters>
            <DistanceMeters>97966.086667177</DistanceMeters>
          </Trackpoint>
          <Trackpoint>
            <Time>2018-04-21T15:04:40.000Z</Time>
            <Position>
              <LatitudeDegrees>43.32952081225812435150146484375</LatitudeDegrees>
              <LongitudeDegrees>-8.38158826343715190887451171875</LongitudeDegrees>
            </Position>
            <AltitudeMeters>4.400000095367431640625</AltitudeMeters>
            <DistanceMeters>98017.195758766</DistanceMeters>
          </Trackpoint>
          <Trackpoint>
            <Time>2018-04-21T15:04:46.000Z</Time>
            <Position>
              <LatitudeDegrees>43.32970856688916683197021484375</LatitudeDegrees>
              <LongitudeDegrees>-8.38198724202811717987060546875</LongitudeDegrees>
            </Position>
            <AltitudeMeters>4.400000095367431640625</AltitudeMeters>
            <DistanceMeters>98055.668553702</DistanceMeters>
          </Trackpoint>
          <Trackpoint>
            <Time>2018-04-21T15:04:47.000Z</Time>
            <Position>
              <LatitudeDegrees>43.32974980585277080535888671875</LatitudeDegrees>
              <LongitudeDegrees>-8.38204465806484222412109375</LongitudeDegrees>
            </Position>
            <AltitudeMeters>4.19999980926513671875</AltitudeMeters>
            <DistanceMeters>98062.200560377</DistanceMeters>
          </Trackpoint>
          <Trackpoint>
            <Time>2018-04-21T15:04:52.000Z</Time>
            <Position>
              <LatitudeDegrees>43.3299797214567661285400390625</LatitudeDegrees>
              <LongitudeDegrees>-8.38231212459504604339599609375</LongitudeDegrees>
            </Position>
            <AltitudeMeters>3.7999999523162841796875</AltitudeMeters>
            <DistanceMeters>98095.723313147</DistanceMeters>
          </Trackpoint>
          <Trackpoint>
            <Time>2018-04-21T15:04:54.000Z</Time>
            <Position>
              <LatitudeDegrees>43.33008239977061748504638671875</LatitudeDegrees>
              <LongitudeDegrees>-8.382403738796710968017578125</LongitudeDegrees>
            </Position>
            <AltitudeMeters>3.400000095367431640625</AltitudeMeters>
            <DistanceMeters>98109.34730747</DistanceMeters>
          </Trackpoint>
          <Trackpoint>
            <Time>2018-04-21T15:04:58.000Z</Time>
            <Position>
              <LatitudeDegrees>43.330299071967601776123046875</LatitudeDegrees>
              <LongitudeDegrees>-8.38255603797733783721923828125</LongitudeDegrees>
            </Position>
            <AltitudeMeters>3.2000000476837158203125</AltitudeMeters>
            <DistanceMeters>98136.433088437</DistanceMeters>
          </Trackpoint>
          <Trackpoint>
            <Time>2018-04-21T15:05:00.000Z</Time>
            <Position>
              <LatitudeDegrees>43.33041608333587646484375</LatitudeDegrees>
              <LongitudeDegrees>-8.38259895332157611846923828125</LongitudeDegrees>
            </Position>
            <AltitudeMeters>3</AltitudeMeters>
            <DistanceMeters>98149.912486352</DistanceMeters>
          </Trackpoint>
          <Trackpoint>
            <Time>2018-04-21T15:05:02.000Z</Time>
            <Position>
              <LatitudeDegrees>43.33054424263536930084228515625</LatitudeDegrees>
              <LongitudeDegrees>-8.38258973322808742523193359375</LongitudeDegrees>
            </Position>
            <AltitudeMeters>3.400000095367431640625</AltitudeMeters>
            <DistanceMeters>98164.196553603</DistanceMeters>
          </Trackpoint>
          <Trackpoint>
            <Time>2018-04-21T15:05:05.000Z</Time>
            <Position>
              <LatitudeDegrees>43.3307307399809360504150390625</LatitudeDegrees>
              <LongitudeDegrees>-8.38255084119737148284912109375</LongitudeDegrees>
            </Position>
            <AltitudeMeters>3.400000095367431640625</AltitudeMeters>
            <DistanceMeters>98185.191651877</DistanceMeters>
          </Trackpoint>
          <Trackpoint>
            <Time>2018-04-21T15:05:07.000Z</Time>
            <Position>
              <LatitudeDegrees>43.33084682933986186981201171875</LatitudeDegrees>
              <LongitudeDegrees>-8.38255486451089382171630859375</LongitudeDegrees>
            </Position>
            <AltitudeMeters>3.599999904632568359375</AltitudeMeters>
            <DistanceMeters>98198.117031728</DistanceMeters>
          </Trackpoint>
          <Trackpoint>
            <Time>2018-04-21T15:05:11.000Z</Time>
            <Position>
              <LatitudeDegrees>43.331042043864727020263671875</LatitudeDegrees>
              <LongitudeDegrees>-8.382559306919574737548828125</LongitudeDegrees>
            </Position>
            <AltitudeMeters>3</AltitudeMeters>
            <DistanceMeters>98219.847628074</DistanceMeters>
          </Trackpoint>
          <Trackpoint>
            <Time>2018-04-21T15:05:16.000Z</Time>
            <Position>
              <LatitudeDegrees>43.33135041408240795135498046875</LatitudeDegrees>
              <LongitudeDegrees>-8.3825631625950336456298828125</LongitudeDegrees>
            </Position>
            <AltitudeMeters>3</AltitudeMeters>
            <DistanceMeters>98254.171219426</DistanceMeters>
          </Trackpoint>
          <Trackpoint>
            <Time>2018-04-21T15:05:20.000Z</Time>
            <Position>
              <LatitudeDegrees>43.33159835077822208404541015625</LatitudeDegrees>
              <LongitudeDegrees>-8.38265729136765003204345703125</LongitudeDegrees>
            </Position>
            <AltitudeMeters>3.2000000476837158203125</AltitudeMeters>
            <DistanceMeters>98282.799978714</DistanceMeters>
          </Trackpoint>
          <Trackpoint>
            <Time>2018-04-21T15:05:22.000Z</Time>
            <Position>
              <LatitudeDegrees>43.33171251229941844940185546875</LatitudeDegrees>
              <LongitudeDegrees>-8.38273356668651103973388671875</LongitudeDegrees>
            </Position>
            <AltitudeMeters>3.599999904632568359375</AltitudeMeters>
            <DistanceMeters>98296.927674196</DistanceMeters>
          </Trackpoint>
          <Trackpoint>
            <Time>2018-04-21T15:05:28.000Z</Time>
            <Position>
              <LatitudeDegrees>43.3320240676403045654296875</LatitudeDegrees>
              <LongitudeDegrees>-8.38290589861571788787841796875</LongitudeDegrees>
            </Position>
            <AltitudeMeters>3.7999999523162841796875</AltitudeMeters>
            <DistanceMeters>98334.305922248</DistanceMeters>
          </Trackpoint>
          <Trackpoint>
            <Time>2018-04-21T15:05:34.000Z</Time>
            <Position>
              <LatitudeDegrees>43.33235188387334346771240234375</LatitudeDegrees>
              <LongitudeDegrees>-8.38304185308516025543212890625</LongitudeDegrees>
            </Position>
            <AltitudeMeters>4.19999980926513671875</AltitudeMeters>
            <DistanceMeters>98372.416610847</DistanceMeters>
          </Trackpoint>
          <Trackpoint>
            <Time>2018-04-21T15:05:35.000Z</Time>
            <Position>
              <LatitudeDegrees>43.3324111439287662506103515625</LatitudeDegrees>
              <LongitudeDegrees>-8.3830617181956768035888671875</LongitudeDegrees>
            </Position>
            <AltitudeMeters>4.400000095367431640625</AltitudeMeters>
            <DistanceMeters>98379.2055364</DistanceMeters>
          </Trackpoint>
          <Trackpoint>
            <Time>2018-04-21T15:05:38.000Z</Time>
            <Position>
              <LatitudeDegrees>43.3325821347534656524658203125</LatitudeDegrees>
              <LongitudeDegrees>-8.3831120096147060394287109375</LongitudeDegrees>
            </Position>
            <AltitudeMeters>4.599999904632568359375</AltitudeMeters>
            <DistanceMeters>98398.667694207</DistanceMeters>
          </Trackpoint>
          <Trackpoint>
            <Time>2018-04-21T15:05:42.000Z</Time>
            <Position>
              <LatitudeDegrees>43.33279830403625965118408203125</LatitudeDegrees>
              <LongitudeDegrees>-8.38319398462772369384765625</LongitudeDegrees>
            </Position>
            <AltitudeMeters>4</AltitudeMeters>
            <DistanceMeters>98423.626456666</DistanceMeters>
          </Trackpoint>
          <Trackpoint>
            <Time>2018-04-21T15:05:47.000Z</Time>
            <Position>
              <LatitudeDegrees>43.3330756612122058868408203125</LatitudeDegrees>
              <LongitudeDegrees>-8.38329616002738475799560546875</LongitudeDegrees>
            </Position>
            <AltitudeMeters>3.400000095367431640625</AltitudeMeters>
            <DistanceMeters>98455.5859624</DistanceMeters>
          </Trackpoint>
          <Trackpoint>
            <Time>2018-04-21T15:05:49.000Z</Time>
            <Position>
              <LatitudeDegrees>43.33318705670535564422607421875</LatitudeDegrees>
              <LongitudeDegrees>-8.383335806429386138916015625</LongitudeDegrees>
            </Position>
            <AltitudeMeters>3.599999904632568359375</AltitudeMeters>
            <DistanceMeters>98468.393434383</DistanceMeters>
          </Trackpoint>
          <Trackpoint>
            <Time>2018-04-21T15:05:54.000Z</Time>
            <Position>
              <LatitudeDegrees>43.33340615965425968170166015625</LatitudeDegrees>
              <LongitudeDegrees>-8.38343831710517406463623046875</LongitudeDegrees>
            </Position>
            <AltitudeMeters>3</AltitudeMeters>
            <DistanceMeters>98494.153387168</DistanceMeters>
          </Trackpoint>
          <Trackpoint>
            <Time>2018-04-21T15:05:55.000Z</Time>
            <Position>
              <LatitudeDegrees>43.3334102667868137359619140625</LatitudeDegrees>
              <LongitudeDegrees>-8.38346027769148349761962890625</LongitudeDegrees>
            </Position>
            <AltitudeMeters>2.599999904632568359375</AltitudeMeters>
            <DistanceMeters>98495.991116362</DistanceMeters>
          </Trackpoint>
          <Trackpoint>
            <Time>2018-04-21T15:05:57.000Z</Time>
            <Position>
              <LatitudeDegrees>43.33340766839683055877685546875</LatitudeDegrees>
              <LongitudeDegrees>-8.38351626880466938018798828125</LongitudeDegrees>
            </Position>
            <AltitudeMeters>2.400000095367431640625</AltitudeMeters>
            <DistanceMeters>98500.534546206</DistanceMeters>
          </Trackpoint>
          <Trackpoint>
            <Time>2018-04-21T15:06:02.000Z</Time>
            <Position>
              <LatitudeDegrees>43.3333678543567657470703125</LatitudeDegrees>
              <LongitudeDegrees>-8.3837198652327060699462890625</LongitudeDegrees>
            </Position>
            <AltitudeMeters>2.599999904632568359375</AltitudeMeters>
            <DistanceMeters>98517.602359953</DistanceMeters>
          </Trackpoint>
          <Trackpoint>
            <Time>2018-04-21T15:06:08.000Z</Time>
            <Position>
              <LatitudeDegrees>43.33320214413106441497802734375</LatitudeDegrees>
              <LongitudeDegrees>-8.3839877508580684661865234375</LongitudeDegrees>
            </Position>
            <AltitudeMeters>3.2000000476837158203125</AltitudeMeters>
            <DistanceMeters>98546.072021023</DistanceMeters>
          </Trackpoint>
          <Trackpoint>
            <Time>2018-04-21T15:06:12.000Z</Time>
            <Position>
              <LatitudeDegrees>43.33319392986595630645751953125</LatitudeDegrees>
              <LongitudeDegrees>-8.384144492447376251220703125</LongitudeDegrees>
            </Position>
            <AltitudeMeters>3</AltitudeMeters>
            <DistanceMeters>98558.794249216</DistanceMeters>
          </Trackpoint>
          <Trackpoint>
            <Time>2018-04-21T15:06:14.000Z</Time>
            <Position>
              <LatitudeDegrees>43.33322008140385150909423828125</LatitudeDegrees>
              <LongitudeDegrees>-8.3841798640787601470947265625</LongitudeDegrees>
            </Position>
            <AltitudeMeters>3.7999999523162841796875</AltitudeMeters>
            <DistanceMeters>98562.877081702</DistanceMeters>
          </Trackpoint>
          <Trackpoint>
            <Time>2018-04-21T15:06:18.000Z</Time>
            <Position>
              <LatitudeDegrees>43.3332888968288898468017578125</LatitudeDegrees>
              <LongitudeDegrees>-8.38425840251147747039794921875</LongitudeDegrees>
            </Position>
            <AltitudeMeters>4.400000095367431640625</AltitudeMeters>
            <DistanceMeters>98572.831782044</DistanceMeters>
          </Trackpoint>
          <Trackpoint>
            <Time>2018-04-21T15:06:19.000Z</Time>
            <Position>
              <LatitudeDegrees>43.3333090133965015411376953125</LatitudeDegrees>
              <LongitudeDegrees>-8.38428606279194355010986328125</LongitudeDegrees>
            </Position>
            <AltitudeMeters>4.599999904632568359375</AltitudeMeters>
            <DistanceMeters>98576.00060596</DistanceMeters>
          </Trackpoint>
          <Trackpoint>
            <Time>2018-04-21T15:06:23.000Z</Time>
            <Position>
              <LatitudeDegrees>43.33335419185459613800048828125</LatitudeDegrees>
              <LongitudeDegrees>-8.38441967032849788665771484375</LongitudeDegrees>
            </Position>
            <AltitudeMeters>5.19999980926513671875</AltitudeMeters>
            <DistanceMeters>98587.929013839</DistanceMeters>
          </Trackpoint>
          <Trackpoint>
            <Time>2018-04-21T15:06:24.000Z</Time>
            <Position>
              <LatitudeDegrees>43.3333624899387359619140625</LatitudeDegrees>
              <LongitudeDegrees>-8.3844564668834209442138671875</LongitudeDegrees>
            </Position>
            <AltitudeMeters>5.400000095367431640625</AltitudeMeters>
            <DistanceMeters>98591.046121834</DistanceMeters>
          </Trackpoint>
          <Trackpoint>
            <Time>2018-04-21T15:06:25.000Z</Time>
            <Position>
              <LatitudeDegrees>43.3333700336515903472900390625</LatitudeDegrees>
              <LongitudeDegrees>-8.38449594564735889434814453125</LongitudeDegrees>
            </Position>
            <AltitudeMeters>5.80000019073486328125</AltitudeMeters>
            <DistanceMeters>98594.348898294</DistanceMeters>
          </Trackpoint>
          <Trackpoint>
            <Time>2018-04-21T15:06:29.000Z</Time>
            <Position>
              <LatitudeDegrees>43.33335318602621555328369140625</LatitudeDegrees>
              <LongitudeDegrees>-8.384651429951190948486328125</LongitudeDegrees>
            </Position>
            <AltitudeMeters>6.599999904632568359375</AltitudeMeters>
            <DistanceMeters>98607.075384498</DistanceMeters>
          </Trackpoint>
          <Trackpoint>
            <Time>2018-04-21T15:06:30.000Z</Time>
            <Position>
              <LatitudeDegrees>43.333337008953094482421875</LatitudeDegrees>
              <LongitudeDegrees>-8.38468353264033794403076171875</LongitudeDegrees>
            </Position>
            <AltitudeMeters>6.599999904632568359375</AltitudeMeters>
            <DistanceMeters>98610.237076232</DistanceMeters>
          </Trackpoint>
          <Trackpoint>
            <Time>2018-04-21T15:06:34.000Z</Time>
            <Position>
              <LatitudeDegrees>43.33326349966228008270263671875</LatitudeDegrees>
              <LongitudeDegrees>-8.384804986417293548583984375</LongitudeDegrees>
            </Position>
            <AltitudeMeters>7.599999904632568359375</AltitudeMeters>
            <DistanceMeters>98623.028674458</DistanceMeters>
          </Trackpoint>
          <Trackpoint>
            <Time>2018-04-21T15:06:36.000Z</Time>
            <Position>
              <LatitudeDegrees>43.33322309888899326324462890625</LatitudeDegrees>
              <LongitudeDegrees>-8.38485636748373508453369140625</LongitudeDegrees>
            </Position>
            <AltitudeMeters>8.19999980926513671875</AltitudeMeters>
            <DistanceMeters>98629.154766009</DistanceMeters>
          </Trackpoint>
          <Trackpoint>
            <Time>2018-04-21T15:06:40.000Z</Time>
            <Position>
              <LatitudeDegrees>43.3331487514078617095947265625</LatitudeDegrees>
              <LongitudeDegrees>-8.3849540166556835174560546875</LongitudeDegrees>
            </Position>
            <AltitudeMeters>8.80000019073486328125</AltitudeMeters>
            <DistanceMeters>98640.599075894</DistanceMeters>
          </Trackpoint>
          <Trackpoint>
            <Time>2018-04-21T15:06:43.000Z</Time>
            <Position>
              <LatitudeDegrees>43.33309686742722988128662109375</LatitudeDegrees>
              <LongitudeDegrees>-8.3850297890603542327880859375</LongitudeDegrees>
            </Position>
            <AltitudeMeters>9.3999996185302734375</AltitudeMeters>
            <DistanceMeters>98649.023825199</DistanceMeters>
          </Trackpoint>
          <Trackpoint>
            <Time>2018-04-21T15:06:45.000Z</Time>
            <Position>
              <LatitudeDegrees>43.33306065760552883148193359375</LatitudeDegrees>
              <LongitudeDegrees>-8.3850814215838909149169921875</LongitudeDegrees>
            </Position>
            <AltitudeMeters>10</AltitudeMeters>
            <DistanceMeters>98654.830571745</DistanceMeters>
          </Trackpoint>
          <Trackpoint>
            <Time>2018-04-21T15:06:50.000Z</Time>
            <Position>
              <LatitudeDegrees>43.332968540489673614501953125</LatitudeDegrees>
              <LongitudeDegrees>-8.385209999978542327880859375</LongitudeDegrees>
            </Position>
            <AltitudeMeters>10.80000019073486328125</AltitudeMeters>
            <DistanceMeters>98669.441218792</DistanceMeters>
          </Trackpoint>
          <Trackpoint>
            <Time>2018-04-21T15:06:51.000Z</Time>
            <Position>
              <LatitudeDegrees>43.3329516090452671051025390625</LatitudeDegrees>
              <LongitudeDegrees>-8.38523506186902523040771484375</LongitudeDegrees>
            </Position>
            <AltitudeMeters>11</AltitudeMeters>
            <DistanceMeters>98672.210069618</DistanceMeters>
          </Trackpoint>
          <Trackpoint>
            <Time>2018-04-21T15:06:54.000Z</Time>
            <Position>
              <LatitudeDegrees>43.33289704285562038421630859375</LatitudeDegrees>
              <LongitudeDegrees>-8.3853174559772014617919921875</LongitudeDegrees>
            </Position>
            <AltitudeMeters>12</AltitudeMeters>
            <DistanceMeters>98681.231103313</DistanceMeters>
          </Trackpoint>
          <Trackpoint>
            <Time>2018-04-21T15:06:56.000Z</Time>
            <Position>
              <LatitudeDegrees>43.33285463042557239532470703125</LatitudeDegrees>
              <LongitudeDegrees>-8.3853711001574993133544921875</LongitudeDegrees>
            </Position>
            <AltitudeMeters>12.3999996185302734375</AltitudeMeters>
            <DistanceMeters>98687.645934437</DistanceMeters>
          </Trackpoint>
          <Trackpoint>
            <Time>2018-04-21T15:06:59.000Z</Time>
            <Position>
              <LatitudeDegrees>43.3328027464449405670166015625</LatitudeDegrees>
              <LongitudeDegrees>-8.3854569308459758758544921875</LongitudeDegrees>
            </Position>
            <AltitudeMeters>13</AltitudeMeters>
            <DistanceMeters>98696.680471557</DistanceMeters>
          </Trackpoint>
          <Trackpoint>
            <Time>2018-04-21T15:07:02.000Z</Time>
            <Position>
              <LatitudeDegrees>43.33275153301656246185302734375</LatitudeDegrees>
              <LongitudeDegrees>-8.385556675493717193603515625</LongitudeDegrees>
            </Position>
            <AltitudeMeters>14</AltitudeMeters>
            <DistanceMeters>98706.564620334</DistanceMeters>
          </Trackpoint>
          <Trackpoint>
            <Time>2018-04-21T15:07:03.000Z</Time>
            <Position>
              <LatitudeDegrees>43.33273912779986858367919921875</LatitudeDegrees>
              <LongitudeDegrees>-8.38559581898152828216552734375</LongitudeDegrees>
            </Position>
            <AltitudeMeters>14.3999996185302734375</AltitudeMeters>
            <DistanceMeters>98710.021033379</DistanceMeters>
          </Trackpoint>
          <Trackpoint>
            <Time>2018-04-21T15:07:10.000Z</Time>
            <Position>
              <LatitudeDegrees>43.3326914347708225250244140625</LatitudeDegrees>
              <LongitudeDegrees>-8.3858850784599781036376953125</LongitudeDegrees>
            </Position>
            <AltitudeMeters>15.3999996185302734375</AltitudeMeters>
            <DistanceMeters>98734.033289439</DistanceMeters>
          </Trackpoint>
          <Trackpoint>
            <Time>2018-04-21T15:07:11.000Z</Time>
            <Position>
              <LatitudeDegrees>43.33269721828401088714599609375</LatitudeDegrees>
              <LongitudeDegrees>-8.38593008928000926971435546875</LongitudeDegrees>
            </Position>
            <AltitudeMeters>15.6000003814697265625</AltitudeMeters>
            <DistanceMeters>98737.733234829</DistanceMeters>
          </Trackpoint>
          <Trackpoint>
            <Time>2018-04-21T15:07:16.000Z</Time>
            <Position>
              <LatitudeDegrees>43.3327742479741573333740234375</LatitudeDegrees>
              <LongitudeDegrees>-8.38612387888133525848388671875</LongitudeDegrees>
            </Position>
            <AltitudeMeters>16.799999237060546875</AltitudeMeters>
            <DistanceMeters>98755.611899376</DistanceMeters>
          </Trackpoint>
          <Trackpoint>
            <Time>2018-04-21T15:07:20.000Z</Time>
            <Position>
              <LatitudeDegrees>43.3328724838793277740478515625</LatitudeDegrees>
              <LongitudeDegrees>-8.3862233720719814300537109375</LongitudeDegrees>
            </Position>
            <AltitudeMeters>18</AltitudeMeters>
            <DistanceMeters>98769.192077991</DistanceMeters>
          </Trackpoint>
          <Trackpoint>
            <Time>2018-04-21T15:07:24.000Z</Time>
            <Position>
              <LatitudeDegrees>43.3329703845083713531494140625</LatitudeDegrees>
              <LongitudeDegrees>-8.38631339371204376220703125</LongitudeDegrees>
            </Position>
            <AltitudeMeters>18.3999996185302734375</AltitudeMeters>
            <DistanceMeters>98782.301287914</DistanceMeters>
          </Trackpoint>
          <Trackpoint>
            <Time>2018-04-21T15:07:30.000Z</Time>
            <Position>
              <LatitudeDegrees>43.33311371505260467529296875</LatitudeDegrees>
              <LongitudeDegrees>-8.38649000041186809539794921875</LongitudeDegrees>
            </Position>
            <AltitudeMeters>19</AltitudeMeters>
            <DistanceMeters>98803.723858839</DistanceMeters>
          </Trackpoint>
          <Trackpoint>
            <Time>2018-04-21T15:07:31.000Z</Time>
            <Position>
              <LatitudeDegrees>43.33313525654375553131103515625</LatitudeDegrees>
              <LongitudeDegrees>-8.38652537204325199127197265625</LongitudeDegrees>
            </Position>
            <AltitudeMeters>19.200000762939453125</AltitudeMeters>
            <DistanceMeters>98807.460233844</DistanceMeters>
          </Trackpoint>
          <Trackpoint>
            <Time>2018-04-21T15:07:36.000Z</Time>
            <Position>
              <LatitudeDegrees>43.33322125487029552459716796875</LatitudeDegrees>
              <LongitudeDegrees>-8.38673894293606281280517578125</LongitudeDegrees>
            </Position>
            <AltitudeMeters>20</AltitudeMeters>
            <DistanceMeters>98827.223277548</DistanceMeters>
          </Trackpoint>
          <Trackpoint>
            <Time>2018-04-21T15:07:37.000Z</Time>
            <Position>
              <LatitudeDegrees>43.33323148079216480255126953125</LatitudeDegrees>
              <LongitudeDegrees>-8.38678839616477489471435546875</LongitudeDegrees>
            </Position>
            <AltitudeMeters>20.200000762939453125</AltitudeMeters>
            <DistanceMeters>98831.384970307</DistanceMeters>
          </Trackpoint>
          <Trackpoint>
            <Time>2018-04-21T15:07:42.000Z</Time>
            <Position>
              <LatitudeDegrees>43.333276323974132537841796875</LatitudeDegrees>
              <LongitudeDegrees>-8.387030549347400665283203125</LongitudeDegrees>
            </Position>
            <AltitudeMeters>21.3999996185302734375</AltitudeMeters>
            <DistanceMeters>98851.614727212</DistanceMeters>
          </Trackpoint>
          <Trackpoint>
            <Time>2018-04-21T15:07:51.000Z</Time>
            <Position>
              <LatitudeDegrees>43.333278000354766845703125</LatitudeDegrees>
              <LongitudeDegrees>-8.38748157955706119537353515625</LongitudeDegrees>
            </Position>
            <AltitudeMeters>21.799999237060546875</AltitudeMeters>
            <DistanceMeters>98888.129847333</DistanceMeters>
          </Trackpoint>
          <Trackpoint>
            <Time>2018-04-21T15:07:56.000Z</Time>
            <Position>
              <LatitudeDegrees>43.3332563750445842742919921875</LatitudeDegrees>
              <LongitudeDegrees>-8.38773898780345916748046875</LongitudeDegrees>
            </Position>
            <AltitudeMeters>22.3999996185302734375</AltitudeMeters>
            <DistanceMeters>98909.107734391</DistanceMeters>
          </Trackpoint>
          <Trackpoint>
            <Time>2018-04-21T15:07:57.000Z</Time>
            <Position>
              <LatitudeDegrees>43.3332473225891590118408203125</LatitudeDegrees>
              <LongitudeDegrees>-8.3877921290695667266845703125</LongitudeDegrees>
            </Position>
            <AltitudeMeters>22.3999996185302734375</AltitudeMeters>
            <DistanceMeters>98913.526221154</DistanceMeters>
          </Trackpoint>
          <Trackpoint>
            <Time>2018-04-21T15:08:02.000Z</Time>
            <Position>
              <LatitudeDegrees>43.33325545303523540496826171875</LatitudeDegrees>
              <LongitudeDegrees>-8.388048112392425537109375</LongitudeDegrees>
            </Position>
            <AltitudeMeters>23.799999237060546875</AltitudeMeters>
            <DistanceMeters>98934.269923878</DistanceMeters>
          </Trackpoint>
          <Trackpoint>
            <Time>2018-04-21T15:08:08.000Z</Time>
            <Position>
              <LatitudeDegrees>43.3333088457584381103515625</LatitudeDegrees>
              <LongitudeDegrees>-8.38831021450459957122802734375</LongitudeDegrees>
            </Position>
            <AltitudeMeters>24.799999237060546875</AltitudeMeters>
            <DistanceMeters>98956.305879285</DistanceMeters>
          </Trackpoint>
          <Trackpoint>
            <Time>2018-04-21T15:08:09.000Z</Time>
            <Position>
              <LatitudeDegrees>43.3333254419267177581787109375</LatitudeDegrees>
              <LongitudeDegrees>-8.38835296221077442169189453125</LongitudeDegrees>
            </Position>
            <AltitudeMeters>24.6000003814697265625</AltitudeMeters>
            <DistanceMeters>98960.228537856</DistanceMeters>
          </Trackpoint>
          <Trackpoint>
            <Time>2018-04-21T15:08:16.000Z</Time>
            <Position>
              <LatitudeDegrees>43.333452008664608001708984375</LatitudeDegrees>
              <LongitudeDegrees>-8.3886102028191089630126953125</LongitudeDegrees>
            </Position>
            <AltitudeMeters>25.200000762939453125</AltitudeMeters>
            <DistanceMeters>98985.371320747</DistanceMeters>
          </Trackpoint>
          <Trackpoint>
            <Time>2018-04-21T15:08:22.000Z</Time>
            <Position>
              <LatitudeDegrees>43.33360129036009311676025390625</LatitudeDegrees>
              <LongitudeDegrees>-8.388830982148647308349609375</LongitudeDegrees>
            </Position>
            <AltitudeMeters>25.6000003814697265625</AltitudeMeters>
            <DistanceMeters>99009.775061681</DistanceMeters>
          </Trackpoint>
          <Trackpoint>
            <Time>2018-04-21T15:08:26.000Z</Time>
            <Position>
              <LatitudeDegrees>43.3336999453604221343994140625</LatitudeDegrees>
              <LongitudeDegrees>-8.3889739774167537689208984375</LongitudeDegrees>
            </Position>
            <AltitudeMeters>26</AltitudeMeters>
            <DistanceMeters>99025.731062911</DistanceMeters>
          </Trackpoint>
          <Trackpoint>
            <Time>2018-04-21T15:08:30.000Z</Time>
            <Position>
              <LatitudeDegrees>43.33380765281617641448974609375</LatitudeDegrees>
              <LongitudeDegrees>-8.3890874683856964111328125</LongitudeDegrees>
            </Position>
            <AltitudeMeters>25.6000003814697265625</AltitudeMeters>
            <DistanceMeters>99040.835229597</DistanceMeters>
          </Trackpoint>
          <Trackpoint>
            <Time>2018-04-21T15:08:34.000Z</Time>
            <Position>
              <LatitudeDegrees>43.33391158841550350189208984375</LatitudeDegrees>
              <LongitudeDegrees>-8.38915343396365642547607421875</LongitudeDegrees>
            </Position>
            <AltitudeMeters>25.6000003814697265625</AltitudeMeters>
            <DistanceMeters>99053.576607635</DistanceMeters>
          </Trackpoint>
          <Trackpoint>
            <Time>2018-04-21T15:08:35.000Z</Time>
            <Position>
              <LatitudeDegrees>43.33394075743854045867919921875</LatitudeDegrees>
              <LongitudeDegrees>-8.38917128741741180419921875</LongitudeDegrees>
            </Position>
            <AltitudeMeters>25.799999237060546875</AltitudeMeters>
            <DistanceMeters>99057.12964111</DistanceMeters>
          </Trackpoint>
          <Trackpoint>
            <Time>2018-04-21T15:08:39.000Z</Time>
            <Position>
              <LatitudeDegrees>43.3340962417423725128173828125</LatitudeDegrees>
              <LongitudeDegrees>-8.3892324753105640411376953125</LongitudeDegrees>
            </Position>
            <AltitudeMeters>25.799999237060546875</AltitudeMeters>
            <DistanceMeters>99075.130118963</DistanceMeters>
          </Trackpoint>
          <Trackpoint>
            <Time>2018-04-21T15:08:40.000Z</Time>
            <Position>
              <LatitudeDegrees>43.3341388218104839324951171875</LatitudeDegrees>
              <LongitudeDegrees>-8.38924697600305080413818359375</LongitudeDegrees>
            </Position>
            <AltitudeMeters>25.799999237060546875</AltitudeMeters>
            <DistanceMeters>99080.011755137</DistanceMeters>
          </Trackpoint>
          <Trackpoint>
            <Time>2018-04-21T15:08:45.000Z</Time>
            <Position>
              <LatitudeDegrees>43.334352560341358184814453125</LatitudeDegrees>
              <LongitudeDegrees>-8.3892898075282573699951171875</LongitudeDegrees>
            </Position>
            <AltitudeMeters>26.3999996185302734375</AltitudeMeters>
            <DistanceMeters>99104.052762662</DistanceMeters>
          </Trackpoint>
          <Trackpoint>
            <Time>2018-04-21T15:08:49.000Z</Time>
            <Position>
              <LatitudeDegrees>43.334523551166057586669921875</LatitudeDegrees>
              <LongitudeDegrees>-8.389294333755970001220703125</LongitudeDegrees>
            </Position>
            <AltitudeMeters>26.799999237060546875</AltitudeMeters>
            <DistanceMeters>99123.088015415</DistanceMeters>
          </Trackpoint>
          <Trackpoint>
            <Time>2018-04-21T15:08:50.000Z</Time>
            <Position>
              <LatitudeDegrees>43.33456638269126415252685546875</LatitudeDegrees>
              <LongitudeDegrees>-8.3892965130507946014404296875</LongitudeDegrees>
            </Position>
            <AltitudeMeters>27.200000762939453125</AltitudeMeters>
            <DistanceMeters>99127.860211219</DistanceMeters>
          </Trackpoint>
          <Trackpoint>
            <Time>2018-04-21T15:08:57.000Z</Time>
            <Position>
              <LatitudeDegrees>43.3348439075052738189697265625</LatitudeDegrees>
              <LongitudeDegrees>-8.389282263815402984619140625</LongitudeDegrees>
            </Position>
            <AltitudeMeters>28</AltitudeMeters>
            <DistanceMeters>99158.770927622</DistanceMeters>
          </Trackpoint>
          <Trackpoint>
            <Time>2018-04-21T15:09:02.000Z</Time>
            <Position>
              <LatitudeDegrees>43.3350303210318088531494140625</LatitudeDegrees>
              <LongitudeDegrees>-8.3892832696437835693359375</LongitudeDegrees>
            </Position>
            <AltitudeMeters>27.3999996185302734375</AltitudeMeters>
            <DistanceMeters>99179.519418276</DistanceMeters>
          </Trackpoint>
          <Trackpoint>
            <Time>2018-04-21T15:09:07.000Z</Time>
            <Position>
              <LatitudeDegrees>43.33525822497904300689697265625</LatitudeDegrees>
              <LongitudeDegrees>-8.38925435207784175872802734375</LongitudeDegrees>
            </Position>
            <AltitudeMeters>27.200000762939453125</AltitudeMeters>
            <DistanceMeters>99204.993313804</DistanceMeters>
          </Trackpoint>
          <Trackpoint>
            <Time>2018-04-21T15:09:15.000Z</Time>
            <Position>
              <LatitudeDegrees>43.33566206507384777069091796875</LatitudeDegrees>
              <LongitudeDegrees>-8.389185704290866851806640625</LongitudeDegrees>
            </Position>
            <AltitudeMeters>27.3999996185302734375</AltitudeMeters>
            <DistanceMeters>99250.283787578</DistanceMeters>
          </Trackpoint>
          <Trackpoint>
            <Time>2018-04-21T15:09:21.000Z</Time>
            <Position>
              <LatitudeDegrees>43.3359918929636478424072265625</LatitudeDegrees>
              <LongitudeDegrees>-8.38914354331791400909423828125</LongitudeDegrees>
            </Position>
            <AltitudeMeters>28.3999996185302734375</AltitudeMeters>
            <DistanceMeters>99287.152438314</DistanceMeters>
          </Trackpoint>
          <Trackpoint>
            <Time>2018-04-21T15:09:25.000Z</Time>
            <Position>
              <LatitudeDegrees>43.33621895872056484222412109375</LatitudeDegrees>
              <LongitudeDegrees>-8.3891080878674983978271484375</LongitudeDegrees>
            </Position>
            <AltitudeMeters>28.6000003814697265625</AltitudeMeters>
            <DistanceMeters>99312.58766579</DistanceMeters>
          </Trackpoint>
          <Trackpoint>
            <Time>2018-04-21T15:09:32.000Z</Time>
            <Position>
              <LatitudeDegrees>43.3366259001195430755615234375</LatitudeDegrees>
              <LongitudeDegrees>-8.38902200572192668914794921875</LongitudeDegrees>
            </Position>
            <AltitudeMeters>28.6000003814697265625</AltitudeMeters>
            <DistanceMeters>99358.413997063</DistanceMeters>
          </Trackpoint>
          <Trackpoint>
            <Time>2018-04-21T15:09:39.000Z</Time>
            <Position>
              <LatitudeDegrees>43.33703284151852130889892578125</LatitudeDegrees>
              <LongitudeDegrees>-8.38895729742944240570068359375</LongitudeDegrees>
            </Position>
            <AltitudeMeters>29.3999996185302734375</AltitudeMeters>
            <DistanceMeters>99404.009395068</DistanceMeters>
          </Trackpoint>
          <Trackpoint>
            <Time>2018-04-21T15:09:40.000Z</Time>
            <Position>
              <LatitudeDegrees>43.33708883263170719146728515625</LatitudeDegrees>
              <LongitudeDegrees>-8.38895260356366634368896484375</LongitudeDegrees>
            </Position>
            <AltitudeMeters>29.799999237060546875</AltitudeMeters>
            <DistanceMeters>99410.252295831</DistanceMeters>
          </Trackpoint>
          <Trackpoint>
            <Time>2018-04-21T15:09:42.000Z</Time>
            <Position>
              <LatitudeDegrees>43.33719561807811260223388671875</LatitudeDegrees>
              <LongitudeDegrees>-8.38893449865281581878662109375</LongitudeDegrees>
            </Position>
            <AltitudeMeters>30.6000003814697265625</AltitudeMeters>
            <DistanceMeters>99422.227924169</DistanceMeters>
          </Trackpoint>
          <Trackpoint>
            <Time>2018-04-21T15:09:47.000Z</Time>
            <Position>
              <LatitudeDegrees>43.3374448120594024658203125</LatitudeDegrees>
              <LongitudeDegrees>-8.38890834711492061614990234375</LongitudeDegrees>
            </Position>
            <AltitudeMeters>31.200000762939453125</AltitudeMeters>
            <DistanceMeters>99450.044306575</DistanceMeters>
          </Trackpoint>
          <Trackpoint>
            <Time>2018-04-21T15:09:55.000Z</Time>
            <Position>
              <LatitudeDegrees>43.337804563343524932861328125</LatitudeDegrees>
              <LongitudeDegrees>-8.38885487057268619537353515625</LongitudeDegrees>
            </Position>
            <AltitudeMeters>31.200000762939453125</AltitudeMeters>
            <DistanceMeters>99490.318596776</DistanceMeters>
          </Trackpoint>
          <Trackpoint>
            <Time>2018-04-21T15:10:00.000Z</Time>
            <Position>
              <LatitudeDegrees>43.3380102552473545074462890625</LatitudeDegrees>
              <LongitudeDegrees>-8.3888321556150913238525390625</LongitudeDegrees>
            </Position>
            <AltitudeMeters>31.200000762939453125</AltitudeMeters>
            <DistanceMeters>99513.286378682</DistanceMeters>
          </Trackpoint>
          <Trackpoint>
            <Time>2018-04-21T15:10:02.000Z</Time>
            <Position>
              <LatitudeDegrees>43.33810488693416118621826171875</LatitudeDegrees>
              <LongitudeDegrees>-8.38882368989288806915283203125</LongitudeDegrees>
            </Position>
            <AltitudeMeters>31.200000762939453125</AltitudeMeters>
            <DistanceMeters>99523.84161829</DistanceMeters>
          </Trackpoint>
          <Trackpoint>
            <Time>2018-04-21T15:10:03.000Z</Time>
            <Position>
              <LatitudeDegrees>43.3381554298102855682373046875</LatitudeDegrees>
              <LongitudeDegrees>-8.38882503099739551544189453125</LongitudeDegrees>
            </Position>
            <AltitudeMeters>31.6000003814697265625</AltitudeMeters>
            <DistanceMeters>99529.468291198</DistanceMeters>
          </Trackpoint>
          <Trackpoint>
            <Time>2018-04-21T15:10:07.000Z</Time>
            <Position>
              <LatitudeDegrees>43.3383703418076038360595703125</LatitudeDegrees>
              <LongitudeDegrees>-8.38881698437035083770751953125</LongitudeDegrees>
            </Position>
            <AltitudeMeters>31.3999996185302734375</AltitudeMeters>
            <DistanceMeters>99553.397104733</DistanceMeters>
          </Trackpoint>
          <Trackpoint>
            <Time>2018-04-21T15:10:09.000Z</Time>
            <Position>
              <LatitudeDegrees>43.3384890295565128326416015625</LatitudeDegrees>
              <LongitudeDegrees>-8.38881698437035083770751953125</LongitudeDegrees>
            </Position>
            <AltitudeMeters>30.799999237060546875</AltitudeMeters>
            <DistanceMeters>99566.607185251</DistanceMeters>
          </Trackpoint>
          <Trackpoint>
            <Time>2018-04-21T15:10:10.000Z</Time>
            <Position>
              <LatitudeDegrees>43.33855063654482364654541015625</LatitudeDegrees>
              <LongitudeDegrees>-8.388816900551319122314453125</LongitudeDegrees>
            </Position>
            <AltitudeMeters>30.6000003814697265625</AltitudeMeters>
            <DistanceMeters>99573.463611285</DistanceMeters>
          </Trackpoint>
          <Trackpoint>
            <Time>2018-04-21T15:10:15.000Z</Time>
            <Position>
              <LatitudeDegrees>43.3388645388185977935791015625</LatitudeDegrees>
              <LongitudeDegrees>-8.3888271264731884002685546875</LongitudeDegrees>
            </Position>
            <AltitudeMeters>29.3999996185302734375</AltitudeMeters>
            <DistanceMeters>99608.411486176</DistanceMeters>
          </Trackpoint>
          <Trackpoint>
            <Time>2018-04-21T15:10:17.000Z</Time>
            <Position>
              <LatitudeDegrees>43.3390009962022304534912109375</LatitudeDegrees>
              <LongitudeDegrees>-8.3888301439583301544189453125</LongitudeDegrees>
            </Position>
            <AltitudeMeters>29.200000762939453125</AltitudeMeters>
            <DistanceMeters>99623.60149978</DistanceMeters>
          </Trackpoint>
          <Trackpoint>
            <Time>2018-04-21T15:10:19.000Z</Time>
            <Position>
              <LatitudeDegrees>43.33914105780422687530517578125</LatitudeDegrees>
              <LongitudeDegrees>-8.38882855139672756195068359375</LongitudeDegrees>
            </Position>
            <AltitudeMeters>29.200000762939453125</AltitudeMeters>
            <DistanceMeters>99639.191384561</DistanceMeters>
          </Trackpoint>
          <Trackpoint>
            <Time>2018-04-21T15:10:25.000Z</Time>
            <Position>
              <LatitudeDegrees>43.339580856263637542724609375</LatitudeDegrees>
              <LongitudeDegrees>-8.388835005462169647216796875</LongitudeDegrees>
            </Position>
            <AltitudeMeters>29</AltitudeMeters>
            <DistanceMeters>99688.144624973</DistanceMeters>
          </Trackpoint>
          <Trackpoint>
            <Time>2018-04-21T15:10:30.000Z</Time>
            <Position>
              <LatitudeDegrees>43.33993767388164997100830078125</LatitudeDegrees>
              <LongitudeDegrees>-8.3888153918087482452392578125</LongitudeDegrees>
            </Position>
            <AltitudeMeters>28.6000003814697265625</AltitudeMeters>
            <DistanceMeters>99727.890790743</DistanceMeters>
          </Trackpoint>
          <Trackpoint>
            <Time>2018-04-21T15:10:32.000Z</Time>
            <Position>
              <LatitudeDegrees>43.3400760591030120849609375</LatitudeDegrees>
              <LongitudeDegrees>-8.38879804126918315887451171875</LongitudeDegrees>
            </Position>
            <AltitudeMeters>28.799999237060546875</AltitudeMeters>
            <DistanceMeters>99743.357100096</DistanceMeters>
          </Trackpoint>
          <Trackpoint>
            <Time>2018-04-21T15:10:34.000Z</Time>
            <Position>
              <LatitudeDegrees>43.34021260030567646026611328125</LatitudeDegrees>
              <LongitudeDegrees>-8.38878161273896694183349609375</LongitudeDegrees>
            </Position>
            <AltitudeMeters>29.200000762939453125</AltitudeMeters>
            <DistanceMeters>99758.612957669</DistanceMeters>
          </Trackpoint>
          <Trackpoint>
            <Time>2018-04-21T15:10:38.000Z</Time>
            <Position>
              <LatitudeDegrees>43.3404805697500705718994140625</LatitudeDegrees>
              <LongitudeDegrees>-8.3887272141873836517333984375</LongitudeDegrees>
            </Position>
            <AltitudeMeters>28.799999237060546875</AltitudeMeters>
            <DistanceMeters>99788.762045463</DistanceMeters>
          </Trackpoint>
          <Trackpoint>
            <Time>2018-04-21T15:10:42.000Z</Time>
            <Position>
              <LatitudeDegrees>43.34073898382484912872314453125</LatitudeDegrees>
              <LongitudeDegrees>-8.38863342069089412689208984375</LongitudeDegrees>
            </Position>
            <AltitudeMeters>29</AltitudeMeters>
            <DistanceMeters>99818.509505375</DistanceMeters>
          </Trackpoint>
          <Trackpoint>
            <Time>2018-04-21T15:10:49.000Z</Time>
            <Position>
              <LatitudeDegrees>43.34116193465888500213623046875</LatitudeDegrees>
              <LongitudeDegrees>-8.38840979151427745819091796875</LongitudeDegrees>
            </Position>
            <AltitudeMeters>29.6000003814697265625</AltitudeMeters>
            <DistanceMeters>99868.945331276</DistanceMeters>
          </Trackpoint>
          <Trackpoint>
            <Time>2018-04-21T15:10:59.000Z</Time>
            <Position>
              <LatitudeDegrees>43.3417403697967529296875</LatitudeDegrees>
              <LongitudeDegrees>-8.38805012404918670654296875</LongitudeDegrees>
            </Position>
            <AltitudeMeters>30.200000762939453125</AltitudeMeters>
            <DistanceMeters>99939.60330085</DistanceMeters>
          </Trackpoint>
          <Trackpoint>
            <Time>2018-04-21T15:11:05.000Z</Time>
            <Position>
              <LatitudeDegrees>43.34210054017603397369384765625</LatitudeDegrees>
              <LongitudeDegrees>-8.38782724924385547637939453125</LongitudeDegrees>
            </Position>
            <AltitudeMeters>30.3999996185302734375</AltitudeMeters>
            <DistanceMeters>99983.563402527</DistanceMeters>
          </Trackpoint>
          <Trackpoint>
            <Time>2018-04-21T15:11:09.000Z</Time>
            <Position>
              <LatitudeDegrees>43.34234395064413547515869140625</LatitudeDegrees>
              <LongitudeDegrees>-8.3876754529774188995361328125</LongitudeDegrees>
            </Position>
            <AltitudeMeters>30.799999237060546875</AltitudeMeters>
            <DistanceMeters>100013.3117731</DistanceMeters>
          </Trackpoint>
          <Trackpoint>
            <Time>2018-04-21T15:11:15.000Z</Time>
            <Position>
              <LatitudeDegrees>43.34270386956632137298583984375</LatitudeDegrees>
              <LongitudeDegrees>-8.3874353952705860137939453125</LongitudeDegrees>
            </Position>
            <AltitudeMeters>31.3999996185302734375</AltitudeMeters>
            <DistanceMeters>100057.83551566</DistanceMeters>
          </Trackpoint>
          <Trackpoint>
            <Time>2018-04-21T15:11:18.000Z</Time>
            <Position>
              <LatitudeDegrees>43.342875950038433074951171875</LatitudeDegrees>
              <LongitudeDegrees>-8.3873214013874530792236328125</LongitudeDegrees>
            </Position>
            <AltitudeMeters>32</AltitudeMeters>
            <DistanceMeters>100079.09518137</DistanceMeters>
          </Trackpoint>
          <Trackpoint>
            <Time>2018-04-21T15:11:20.000Z</Time>
            <Position>
              <LatitudeDegrees>43.3429860882461071014404296875</LatitudeDegrees>
              <LongitudeDegrees>-8.38724906556308269500732421875</LongitudeDegrees>
            </Position>
            <AltitudeMeters>32.59999847412109375</AltitudeMeters>
            <DistanceMeters>100092.68034616</DistanceMeters>
          </Trackpoint>
          <Trackpoint>
            <Time>2018-04-21T15:11:23.000Z</Time>
            <Position>
              <LatitudeDegrees>43.34314609877765178680419921875</LatitudeDegrees>
              <LongitudeDegrees>-8.38714621961116790771484375</LongitudeDegrees>
            </Position>
            <AltitudeMeters>33.59999847412109375</AltitudeMeters>
            <DistanceMeters>100112.3396257</DistanceMeters>
          </Trackpoint>
          <Trackpoint>
            <Time>2018-04-21T15:11:26.000Z</Time>
            <Position>
              <LatitudeDegrees>43.34330116398632526397705078125</LatitudeDegrees>
              <LongitudeDegrees>-8.38704764842987060546875</LongitudeDegrees>
            </Position>
            <AltitudeMeters>33.799999237060546875</AltitudeMeters>
            <DistanceMeters>100131.35375651</DistanceMeters>
          </Trackpoint>
          <Trackpoint>
            <Time>2018-04-21T15:11:30.000Z</Time>
            <Position>
              <LatitudeDegrees>43.343504928052425384521484375</LatitudeDegrees>
              <LongitudeDegrees>-8.38691496290266513824462890625</LongitudeDegrees>
            </Position>
            <AltitudeMeters>34.799999237060546875</AltitudeMeters>
            <DistanceMeters>100156.44764721</DistanceMeters>
          </Trackpoint>
          <Trackpoint>
            <Time>2018-04-21T15:11:34.000Z</Time>
            <Position>
              <LatitudeDegrees>43.34369813092052936553955078125</LatitudeDegrees>
              <LongitudeDegrees>-8.38679728098213672637939453125</LongitudeDegrees>
            </Position>
            <AltitudeMeters>35.799999237060546875</AltitudeMeters>
            <DistanceMeters>100179.96671103</DistanceMeters>
          </Trackpoint>
          <Trackpoint>
            <Time>2018-04-21T15:11:35.000Z</Time>
            <Position>
              <LatitudeDegrees>43.34374624304473400115966796875</LatitudeDegrees>
              <LongitudeDegrees>-8.38677800260484218597412109375</LongitudeDegrees>
            </Position>
            <AltitudeMeters>36</AltitudeMeters>
            <DistanceMeters>100185.54503008</DistanceMeters>
          </Trackpoint>
          <Trackpoint>
            <Time>2018-04-21T15:11:38.000Z</Time>
            <Position>
              <LatitudeDegrees>43.343888819217681884765625</LatitudeDegrees>
              <LongitudeDegrees>-8.386718742549419403076171875</LongitudeDegrees>
            </Position>
            <AltitudeMeters>37.40000152587890625</AltitudeMeters>
            <DistanceMeters>100202.1230389</DistanceMeters>
          </Trackpoint>
          <Trackpoint>
            <Time>2018-04-21T15:11:44.000Z</Time>
            <Position>
              <LatitudeDegrees>43.344173133373260498046875</LatitudeDegrees>
              <LongitudeDegrees>-8.38664154522120952606201171875</LongitudeDegrees>
            </Position>
            <AltitudeMeters>38.59999847412109375</AltitudeMeters>
            <DistanceMeters>100234.37883494</DistanceMeters>
          </Trackpoint>
          <Trackpoint>
            <Time>2018-04-21T15:11:49.000Z</Time>
            <Position>
              <LatitudeDegrees>43.34440019913017749786376953125</LatitudeDegrees>
              <LongitudeDegrees>-8.38661153800785541534423828125</LongitudeDegrees>
            </Position>
            <AltitudeMeters>39.40000152587890625</AltitudeMeters>
            <DistanceMeters>100259.76804538</DistanceMeters>
          </Trackpoint>
          <Trackpoint>
            <Time>2018-04-21T15:11:50.000Z</Time>
            <Position>
              <LatitudeDegrees>43.3444415219128131866455078125</LatitudeDegrees>
              <LongitudeDegrees>-8.3866122923791408538818359375</LongitudeDegrees>
            </Position>
            <AltitudeMeters>39.799999237060546875</AltitudeMeters>
            <DistanceMeters>100264.36777027</DistanceMeters>
          </Trackpoint>
          <Trackpoint>
            <Time>2018-04-21T15:11:52.000Z</Time>
            <Position>
              <LatitudeDegrees>43.34452106617391109466552734375</LatitudeDegrees>
              <LongitudeDegrees>-8.3866225183010101318359375</LongitudeDegrees>
            </Position>
            <AltitudeMeters>40.200000762939453125</AltitudeMeters>
            <DistanceMeters>100273.26026033</DistanceMeters>
          </Trackpoint>
          <Trackpoint>
            <Time>2018-04-21T15:11:56.000Z</Time>
            <Position>
              <LatitudeDegrees>43.34466473199427127838134765625</LatitudeDegrees>
              <LongitudeDegrees>-8.3866277150809764862060546875</LongitudeDegrees>
            </Position>
            <AltitudeMeters>40.799999237060546875</AltitudeMeters>
            <DistanceMeters>100289.2561103</DistanceMeters>
          </Trackpoint>
          <Trackpoint>
            <Time>2018-04-21T15:12:00.000Z</Time>
            <Position>
              <LatitudeDegrees>43.3448086492717266082763671875</LatitudeDegrees>
              <LongitudeDegrees>-8.3866599015891551971435546875</LongitudeDegrees>
            </Position>
            <AltitudeMeters>41.799999237060546875</AltitudeMeters>
            <DistanceMeters>100305.48482588</DistanceMeters>
          </Trackpoint>
          <Trackpoint>
            <Time>2018-04-21T15:12:01.000Z</Time>
            <Position>
              <LatitudeDegrees>43.34484360180795192718505859375</LatitudeDegrees>
              <LongitudeDegrees>-8.386669121682643890380859375</LongitudeDegrees>
            </Position>
            <AltitudeMeters>41.799999237060546875</AltitudeMeters>
            <DistanceMeters>100309.44642567</DistanceMeters>
          </Trackpoint>
          <Trackpoint>
            <Time>2018-04-21T15:12:05.000Z</Time>
            <Position>
              <LatitudeDegrees>43.34498408250510692596435546875</LatitudeDegrees>
              <LongitudeDegrees>-8.3867138810455799102783203125</LongitudeDegrees>
            </Position>
            <AltitudeMeters>42.799999237060546875</AltitudeMeters>
            <DistanceMeters>100325.49637865</DistanceMeters>
          </Trackpoint>
          <Trackpoint>
            <Time>2018-04-21T15:12:08.000Z</Time>
            <Position>
              <LatitudeDegrees>43.34509019739925861358642578125</LatitudeDegrees>
              <LongitudeDegrees>-8.38677146472036838531494140625</LongitudeDegrees>
            </Position>
            <AltitudeMeters>43</AltitudeMeters>
            <DistanceMeters>100338.19373998</DistanceMeters>
          </Trackpoint>
          <Trackpoint>
            <Time>2018-04-21T15:12:13.000Z</Time>
            <Position>
              <LatitudeDegrees>43.345269151031970977783203125</LatitudeDegrees>
              <LongitudeDegrees>-8.38688872754573822021484375</LongitudeDegrees>
            </Position>
            <AltitudeMeters>44.200000762939453125</AltitudeMeters>
            <DistanceMeters>100360.2575434</DistanceMeters>
          </Trackpoint>
          <Trackpoint>
            <Time>2018-04-21T15:12:16.000Z</Time>
            <Position>
              <LatitudeDegrees>43.34538280963897705078125</LatitudeDegrees>
              <LongitudeDegrees>-8.3869717083871364593505859375</LongitudeDegrees>
            </Position>
            <AltitudeMeters>45</AltitudeMeters>
            <DistanceMeters>100374.58043684</DistanceMeters>
          </Trackpoint>
          <Trackpoint>
            <Time>2018-04-21T15:12:21.000Z</Time>
            <Position>
              <LatitudeDegrees>43.34556964226067066192626953125</LatitudeDegrees>
              <LongitudeDegrees>-8.38715770281851291656494140625</LongitudeDegrees>
            </Position>
            <AltitudeMeters>45</AltitudeMeters>
            <DistanceMeters>100400.25277914</DistanceMeters>
          </Trackpoint>
          <Trackpoint>
            <Time>2018-04-21T15:12:23.000Z</Time>
            <Position>
              <LatitudeDegrees>43.34564499557018280029296875</LatitudeDegrees>
              <LongitudeDegrees>-8.38724688626825809478759765625</LongitudeDegrees>
            </Position>
            <AltitudeMeters>45</AltitudeMeters>
            <DistanceMeters>100411.3183942</DistanceMeters>
          </Trackpoint>
          <Trackpoint>
            <Time>2018-04-21T15:12:30.000Z</Time>
            <Position>
              <LatitudeDegrees>43.3459152281284332275390625</LatitudeDegrees>
              <LongitudeDegrees>-8.387615270912647247314453125</LongitudeDegrees>
            </Position>
            <AltitudeMeters>43.200000762939453125</AltitudeMeters>
            <DistanceMeters>100453.67100233</DistanceMeters>
          </Trackpoint>
          <Trackpoint>
            <Time>2018-04-21T15:12:31.000Z</Time>
            <Position>
              <LatitudeDegrees>43.34596007131040096282958984375</LatitudeDegrees>
              <LongitudeDegrees>-8.3876757882535457611083984375</LongitudeDegrees>
            </Position>
            <AltitudeMeters>43.40000152587890625</AltitudeMeters>
            <DistanceMeters>100460.66434874</DistanceMeters>
          </Trackpoint>
          <Trackpoint>
            <Time>2018-04-21T15:12:35.000Z</Time>
            <Position>
              <LatitudeDegrees>43.3461671881377696990966796875</LatitudeDegrees>
              <LongitudeDegrees>-8.38793487288057804107666015625</LongitudeDegrees>
            </Position>
            <AltitudeMeters>41.799999237060546875</AltitudeMeters>
            <DistanceMeters>100491.8281855</DistanceMeters>
          </Trackpoint>
          <Trackpoint>
            <Time>2018-04-21T15:12:37.000Z</Time>
            <Position>
              <LatitudeDegrees>43.34628411568701267242431640625</LatitudeDegrees>
              <LongitudeDegrees>-8.388071916997432708740234375</LongitudeDegrees>
            </Position>
            <AltitudeMeters>41.40000152587890625</AltitudeMeters>
            <DistanceMeters>100508.92824209</DistanceMeters>
          </Trackpoint>
          <Trackpoint>
            <Time>2018-04-21T15:12:40.000Z</Time>
            <Position>
              <LatitudeDegrees>43.34646700881421566009521484375</LatitudeDegrees>
              <LongitudeDegrees>-8.3882863260805606842041015625</LongitudeDegrees>
            </Position>
            <AltitudeMeters>40.799999237060546875</AltitudeMeters>
            <DistanceMeters>100535.67821998</DistanceMeters>
          </Trackpoint>
          <Trackpoint>
            <Time>2018-04-21T15:12:42.000Z</Time>
            <Position>
              <LatitudeDegrees>43.3465953357517719268798828125</LatitudeDegrees>
              <LongitudeDegrees>-8.38843904435634613037109375</LongitudeDegrees>
            </Position>
            <AltitudeMeters>39.40000152587890625</AltitudeMeters>
            <DistanceMeters>100554.56751353</DistanceMeters>
          </Trackpoint>
          <Trackpoint>
            <Time>2018-04-21T15:12:45.000Z</Time>
            <Position>
              <LatitudeDegrees>43.3467897959053516387939453125</LatitudeDegrees>
              <LongitudeDegrees>-8.3886594884097576141357421875</LongitudeDegrees>
            </Position>
            <AltitudeMeters>37.799999237060546875</AltitudeMeters>
            <DistanceMeters>100582.61794456</DistanceMeters>
          </Trackpoint>
          <Trackpoint>
            <Time>2018-04-21T15:12:47.000Z</Time>
            <Position>
              <LatitudeDegrees>43.34692013449966907501220703125</LatitudeDegrees>
              <LongitudeDegrees>-8.38881329633295536041259765625</LongitudeDegrees>
            </Position>
            <AltitudeMeters>36</AltitudeMeters>
            <DistanceMeters>100601.73461774</DistanceMeters>
          </Trackpoint>
          <Trackpoint>
            <Time>2018-04-21T15:12:49.000Z</Time>
            <Position>
              <LatitudeDegrees>43.34706095047295093536376953125</LatitudeDegrees>
              <LongitudeDegrees>-8.3889780007302761077880859375</LongitudeDegrees>
            </Position>
            <AltitudeMeters>34.59999847412109375</AltitudeMeters>
            <DistanceMeters>100622.31047991</DistanceMeters>
          </Trackpoint>
          <Trackpoint>
            <Time>2018-04-21T15:12:51.000Z</Time>
            <Position>
              <LatitudeDegrees>43.34720872342586517333984375</LatitudeDegrees>
              <LongitudeDegrees>-8.38915879838168621063232421875</LongitudeDegrees>
            </Position>
            <AltitudeMeters>33</AltitudeMeters>
            <DistanceMeters>100644.3253211</DistanceMeters>
          </Trackpoint>
          <Trackpoint>
            <Time>2018-04-21T15:12:53.000Z</Time>
            <Position>
              <LatitudeDegrees>43.34735699929296970367431640625</LatitudeDegrees>
              <LongitudeDegrees>-8.389330543577671051025390625</LongitudeDegrees>
            </Position>
            <AltitudeMeters>30.799999237060546875</AltitudeMeters>
            <DistanceMeters>100665.9028729</DistanceMeters>
          </Trackpoint>
          <Trackpoint>
            <Time>2018-04-21T15:12:54.000Z</Time>
            <Position>
              <LatitudeDegrees>43.34743193350732326507568359375</LatitudeDegrees>
              <LongitudeDegrees>-8.389412350952625274658203125</LongitudeDegrees>
            </Position>
            <AltitudeMeters>30</AltitudeMeters>
            <DistanceMeters>100676.55180242</DistanceMeters>
          </Trackpoint>
          <Trackpoint>
            <Time>2018-04-21T15:12:55.000Z</Time>
            <Position>
              <LatitudeDegrees>43.3475015871226787567138671875</LatitudeDegrees>
              <LongitudeDegrees>-8.3894929848611354827880859375</LongitudeDegrees>
            </Position>
            <AltitudeMeters>29.200000762939453125</AltitudeMeters>
            <DistanceMeters>100686.68541132</DistanceMeters>
          </Trackpoint>
          <Trackpoint>
            <Time>2018-04-21T15:12:56.000Z</Time>
            <Position>
              <LatitudeDegrees>43.34757291711866855621337890625</LatitudeDegrees>
              <LongitudeDegrees>-8.38956666179001331329345703125</LongitudeDegrees>
            </Position>
            <AltitudeMeters>28.200000762939453125</AltitudeMeters>
            <DistanceMeters>100696.61467991</DistanceMeters>
          </Trackpoint>
          <Trackpoint>
            <Time>2018-04-21T15:12:57.000Z</Time>
            <Position>
              <LatitudeDegrees>43.34763653576374053955078125</LatitudeDegrees>
              <LongitudeDegrees>-8.3896260894834995269775390625</LongitudeDegrees>
            </Position>
            <AltitudeMeters>27.200000762939453125</AltitudeMeters>
            <DistanceMeters>100705.17499943</DistanceMeters>
          </Trackpoint>
          <Trackpoint>
            <Time>2018-04-21T15:12:58.000Z</Time>
            <Position>
              <LatitudeDegrees>43.34770023822784423828125</LatitudeDegrees>
              <LongitudeDegrees>-8.38966322131454944610595703125</LongitudeDegrees>
            </Position>
            <AltitudeMeters>25.200000762939453125</AltitudeMeters>
            <DistanceMeters>100712.87626829</DistanceMeters>
          </Trackpoint>
          <Trackpoint>
            <Time>2018-04-21T15:13:00.000Z</Time>
            <Position>
              <LatitudeDegrees>43.34783577360212802886962890625</LatitudeDegrees>
              <LongitudeDegrees>-8.3896354772150516510009765625</LongitudeDegrees>
            </Position>
            <AltitudeMeters>23.200000762939453125</AltitudeMeters>
            <DistanceMeters>100728.12798194</DistanceMeters>
          </Trackpoint>
          <Trackpoint>
            <Time>2018-04-21T15:13:02.000Z</Time>
            <Position>
              <LatitudeDegrees>43.34796166978776454925537109375</LatitudeDegrees>
              <LongitudeDegrees>-8.38951704092323780059814453125</LongitudeDegrees>
            </Position>
            <AltitudeMeters>21.6000003814697265625</AltitudeMeters>
            <DistanceMeters>100745.10561546</DistanceMeters>
          </Trackpoint>
          <Trackpoint>
            <Time>2018-04-21T15:13:03.000Z</Time>
            <Position>
              <LatitudeDegrees>43.347998298704624176025390625</LatitudeDegrees>
              <LongitudeDegrees>-8.38942986913025379180908203125</LongitudeDegrees>
            </Position>
            <AltitudeMeters>21</AltitudeMeters>
            <DistanceMeters>100753.25412159</DistanceMeters>
          </Trackpoint>
          <Trackpoint>
            <Time>2018-04-21T15:13:04.000Z</Time>
            <Position>
              <LatitudeDegrees>43.34801816381514072418212890625</LatitudeDegrees>
              <LongitudeDegrees>-8.389331214129924774169921875</LongitudeDegrees>
            </Position>
            <AltitudeMeters>20.3999996185302734375</AltitudeMeters>
            <DistanceMeters>100761.53944845</DistanceMeters>
          </Trackpoint>
          <Trackpoint>
            <Time>2018-04-21T15:13:06.000Z</Time>
            <Position>
              <LatitudeDegrees>43.348003327846527099609375</LatitudeDegrees>
              <LongitudeDegrees>-8.38911571539938449859619140625</LongitudeDegrees>
            </Position>
            <AltitudeMeters>19.3999996185302734375</AltitudeMeters>
            <DistanceMeters>100779.05944726</DistanceMeters>
          </Trackpoint>
          <Trackpoint>
            <Time>2018-04-21T15:13:10.000Z</Time>
            <Position>
              <LatitudeDegrees>43.34786779247224330902099609375</LatitudeDegrees>
              <LongitudeDegrees>-8.38872092776000499725341796875</LongitudeDegrees>
            </Position>
            <AltitudeMeters>18.3999996185302734375</AltitudeMeters>
            <DistanceMeters>100814.39494924</DistanceMeters>
          </Trackpoint>
          <Trackpoint>
            <Time>2018-04-21T15:13:11.000Z</Time>
            <Position>
              <LatitudeDegrees>43.34781565703451633453369140625</LatitudeDegrees>
              <LongitudeDegrees>-8.388618417084217071533203125</LongitudeDegrees>
            </Position>
            <AltitudeMeters>18.3999996185302734375</AltitudeMeters>
            <DistanceMeters>100824.5196432</DistanceMeters>
          </Trackpoint>
          <Trackpoint>
            <Time>2018-04-21T15:13:16.000Z</Time>
            <Position>
              <LatitudeDegrees>43.34760166704654693603515625</LatitudeDegrees>
              <LongitudeDegrees>-8.38816001079976558685302734375</LongitudeDegrees>
            </Position>
            <AltitudeMeters>17.799999237060546875</AltitudeMeters>
            <DistanceMeters>100868.6093762</DistanceMeters>
          </Trackpoint>
          <Trackpoint>
            <Time>2018-04-21T15:13:19.000Z</Time>
            <Position>
              <LatitudeDegrees>43.34749446250498294830322265625</LatitudeDegrees>
              <LongitudeDegrees>-8.387911319732666015625</LongitudeDegrees>
            </Position>
            <AltitudeMeters>18.3999996185302734375</AltitudeMeters>
            <DistanceMeters>100892.0091137</DistanceMeters>
          </Trackpoint>
          <Trackpoint>
            <Time>2018-04-21T15:13:24.000Z</Time>
            <Position>
              <LatitudeDegrees>43.3473383076488971710205078125</LatitudeDegrees>
              <LongitudeDegrees>-8.387506306171417236328125</LongitudeDegrees>
            </Position>
            <AltitudeMeters>19.3999996185302734375</AltitudeMeters>
            <DistanceMeters>100929.1131215</DistanceMeters>
          </Trackpoint>
          <Trackpoint>
            <Time>2018-04-21T15:13:25.000Z</Time>
            <Position>
              <LatitudeDegrees>43.34731341339647769927978515625</LatitudeDegrees>
              <LongitudeDegrees>-8.387426175177097320556640625</LongitudeDegrees>
            </Position>
            <AltitudeMeters>20</AltitudeMeters>
            <DistanceMeters>100936.16561475</DistanceMeters>
          </Trackpoint>
          <Trackpoint>
            <Time>2018-04-21T15:13:26.000Z</Time>
            <Position>
              <LatitudeDegrees>43.34729162044823169708251953125</LatitudeDegrees>
              <LongitudeDegrees>-8.3873602934181690216064453125</LongitudeDegrees>
            </Position>
            <AltitudeMeters>20.6000003814697265625</AltitudeMeters>
            <DistanceMeters>100942.02345484</DistanceMeters>
          </Trackpoint>
          <Trackpoint>
            <Time>2018-04-21T15:13:28.000Z</Time>
            <Position>
              <LatitudeDegrees>43.34728382527828216552734375</LatitudeDegrees>
              <LongitudeDegrees>-8.387290723621845245361328125</LongitudeDegrees>
            </Position>
            <AltitudeMeters>20.6000003814697265625</AltitudeMeters>
            <DistanceMeters>100947.72030438</DistanceMeters>
          </Trackpoint>
          <Trackpoint>
            <Time>2018-04-21T15:13:31.000Z</Time>
            <Position>
              <LatitudeDegrees>43.34731123410165309906005859375</LatitudeDegrees>
              <LongitudeDegrees>-8.3872555196285247802734375</LongitudeDegrees>
            </Position>
            <AltitudeMeters>20.3999996185302734375</AltitudeMeters>
            <DistanceMeters>100951.89391403</DistanceMeters>
          </Trackpoint>
          <Trackpoint>
            <Time>2018-04-21T15:13:32.000Z</Time>
            <Position>
              <LatitudeDegrees>43.34731240756809711456298828125</LatitudeDegrees>
              <LongitudeDegrees>-8.38724202476441860198974609375</LongitudeDegrees>
            </Position>
            <AltitudeMeters>20.200000762939453125</AltitudeMeters>
            <DistanceMeters>100952.99392777</DistanceMeters>
          </Trackpoint>
          <Trackpoint>
            <Time>2018-04-21T15:13:33.000Z</Time>
            <Position>
              <LatitudeDegrees>43.3473099768161773681640625</LatitudeDegrees>
              <LongitudeDegrees>-8.3872201479971408843994140625</LongitudeDegrees>
            </Position>
            <AltitudeMeters>20.200000762939453125</AltitudeMeters>
            <DistanceMeters>100954.78688823</DistanceMeters>
          </Trackpoint>
          <Trackpoint>
            <Time>2018-04-21T15:13:36.000Z</Time>
            <Position>
              <LatitudeDegrees>43.34727569483220577239990234375</LatitudeDegrees>
              <LongitudeDegrees>-8.3871038071811199188232421875</LongitudeDegrees>
            </Position>
            <AltitudeMeters>20</AltitudeMeters>
            <DistanceMeters>100964.94719502</DistanceMeters>
          </Trackpoint>
          <Trackpoint>
            <Time>2018-04-21T15:13:38.000Z</Time>
            <Position>
              <LatitudeDegrees>43.3472323603928089141845703125</LatitudeDegrees>
              <LongitudeDegrees>-8.38698537088930606842041015625</LongitudeDegrees>
            </Position>
            <AltitudeMeters>19.6000003814697265625</AltitudeMeters>
            <DistanceMeters>100975.67806333</DistanceMeters>
          </Trackpoint>
          <Trackpoint>
            <Time>2018-04-21T15:13:40.000Z</Time>
            <Position>
              <LatitudeDegrees>43.3471834100782871246337890625</LatitudeDegrees>
              <LongitudeDegrees>-8.3868375979363918304443359375</LongitudeDegrees>
            </Position>
            <AltitudeMeters>19.200000762939453125</AltitudeMeters>
            <DistanceMeters>100988.82132634</DistanceMeters>
          </Trackpoint>
          <Trackpoint>
            <Time>2018-04-21T15:13:42.000Z</Time>
            <Position>
              <LatitudeDegrees>43.34712565876543521881103515625</LatitudeDegrees>
              <LongitudeDegrees>-8.38668211363255977630615234375</LongitudeDegrees>
            </Position>
            <AltitudeMeters>18</AltitudeMeters>
            <DistanceMeters>101002.95253685</DistanceMeters>
          </Trackpoint>
          <Trackpoint>
            <Time>2018-04-21T15:13:44.000Z</Time>
            <Position>
              <LatitudeDegrees>43.34707461297512054443359375</LatitudeDegrees>
              <LongitudeDegrees>-8.386541046202182769775390625</LongitudeDegrees>
            </Position>
            <AltitudeMeters>16.6000003814697265625</AltitudeMeters>
            <DistanceMeters>101015.70560341</DistanceMeters>
          </Trackpoint>
          <Trackpoint>
            <Time>2018-04-21T15:13:45.000Z</Time>
            <Position>
              <LatitudeDegrees>43.34705558605492115020751953125</LatitudeDegrees>
              <LongitudeDegrees>-8.386494107544422149658203125</LongitudeDegrees>
            </Position>
            <AltitudeMeters>16</AltitudeMeters>
            <DistanceMeters>101020.05508731</DistanceMeters>
          </Trackpoint>
          <Trackpoint>
            <Time>2018-04-21T15:13:47.000Z</Time>
            <Position>
              <LatitudeDegrees>43.3470417559146881103515625</LatitudeDegrees>
              <LongitudeDegrees>-8.38644842617213726043701171875</LongitudeDegrees>
            </Position>
            <AltitudeMeters>15.3999996185302734375</AltitudeMeters>
            <DistanceMeters>101024.05976155</DistanceMeters>
          </Trackpoint>
          <Trackpoint>
            <Time>2018-04-21T15:13:48.000Z</Time>
            <Position>
              <LatitudeDegrees>43.3470482937991619110107421875</LatitudeDegrees>
              <LongitudeDegrees>-8.386459909379482269287109375</LongitudeDegrees>
            </Position>
            <AltitudeMeters>14.80000019073486328125</AltitudeMeters>
            <DistanceMeters>101025.23901206</DistanceMeters>
          </Trackpoint>
          <Trackpoint>
            <Time>2018-04-21T15:13:49.000Z</Time>
            <Position>
              <LatitudeDegrees>43.3470489643514156341552734375</LatitudeDegrees>
              <LongitudeDegrees>-8.3864615857601165771484375</LongitudeDegrees>
            </Position>
            <AltitudeMeters>15</AltitudeMeters>
            <DistanceMeters>101025.37340013</DistanceMeters>
          </Trackpoint>
          <Trackpoint>
            <Time>2018-04-21T15:13:51.000Z</Time>
            <Position>
              <LatitudeDegrees>43.34708626382052898406982421875</LatitudeDegrees>
              <LongitudeDegrees>-8.386539034545421600341796875</LongitudeDegrees>
            </Position>
            <AltitudeMeters>15</AltitudeMeters>
            <DistanceMeters>101032.89252964</DistanceMeters>
          </Trackpoint>
          <Trackpoint>
            <Time>2018-04-21T15:13:57.000Z</Time>
            <Position>
              <LatitudeDegrees>43.34724401123821735382080078125</LatitudeDegrees>
              <LongitudeDegrees>-8.38681220076978206634521484375</LongitudeDegrees>
            </Position>
            <AltitudeMeters>15.19999980926513671875</AltitudeMeters>
            <DistanceMeters>101061.12586044</DistanceMeters>
          </Trackpoint>
          <Trackpoint>
            <Time>2018-04-21T15:14:05.000Z</Time>
            <Position>
              <LatitudeDegrees>43.34747116081416606903076171875</LatitudeDegrees>
              <LongitudeDegrees>-8.3871815912425518035888671875</LongitudeDegrees>
            </Position>
            <AltitudeMeters>15.19999980926513671875</AltitudeMeters>
            <DistanceMeters>101100.28055694</DistanceMeters>
          </Trackpoint>
          <Trackpoint>
            <Time>2018-04-21T15:14:09.000Z</Time>
            <Position>
              <LatitudeDegrees>43.34753653965890407562255859375</LatitudeDegrees>
              <LongitudeDegrees>-8.38734294287860393524169921875</LongitudeDegrees>
            </Position>
            <AltitudeMeters>14.80000019073486328125</AltitudeMeters>
            <DistanceMeters>101115.23088979</DistanceMeters>
          </Trackpoint>
          <Trackpoint>
            <Time>2018-04-21T15:14:10.000Z</Time>
            <Position>
              <LatitudeDegrees>43.34755565039813518524169921875</LatitudeDegrees>
              <LongitudeDegrees>-8.3873708546161651611328125</LongitudeDegrees>
            </Position>
            <AltitudeMeters>14.80000019073486328125</AltitudeMeters>
            <DistanceMeters>101118.33347927</DistanceMeters>
          </Trackpoint>
          <Trackpoint>
            <Time>2018-04-21T15:14:11.000Z</Time>
            <Position>
              <LatitudeDegrees>43.3475763536989688873291015625</LatitudeDegrees>
              <LongitudeDegrees>-8.38740429840981960296630859375</LongitudeDegrees>
            </Position>
            <AltitudeMeters>14.3999996185302734375</AltitudeMeters>
            <DistanceMeters>101121.88778327</DistanceMeters>
          </Trackpoint>
          <Trackpoint>
            <Time>2018-04-21T15:14:14.000Z</Time>
            <Position>
              <LatitudeDegrees>43.347667045891284942626953125</LatitudeDegrees>
              <LongitudeDegrees>-8.38750907219946384429931640625</LongitudeDegrees>
            </Position>
            <AltitudeMeters>12.3999996185302734375</AltitudeMeters>
            <DistanceMeters>101135.0715199</DistanceMeters>
          </Trackpoint>
          <Trackpoint>
            <Time>2018-04-21T15:14:16.000Z</Time>
            <Position>
              <LatitudeDegrees>43.34777911193668842315673828125</LatitudeDegrees>
              <LongitudeDegrees>-8.3875425159931182861328125</LongitudeDegrees>
            </Position>
            <AltitudeMeters>10.19999980926513671875</AltitudeMeters>
            <DistanceMeters>101147.83449561</DistanceMeters>
          </Trackpoint>
          <Trackpoint>
            <Time>2018-04-21T15:14:17.000Z</Time>
            <Position>
              <LatitudeDegrees>43.3478479273617267608642578125</LatitudeDegrees>
              <LongitudeDegrees>-8.38756372220814228057861328125</LongitudeDegrees>
            </Position>
            <AltitudeMeters>9.3999996185302734375</AltitudeMeters>
            <DistanceMeters>101155.68326503</DistanceMeters>
          </Trackpoint>
          <Trackpoint>
            <Time>2018-04-21T15:14:18.000Z</Time>
            <Position>
              <LatitudeDegrees>43.3479267172515392303466796875</LatitudeDegrees>
              <LongitudeDegrees>-8.38759356178343296051025390625</LongitudeDegrees>
            </Position>
            <AltitudeMeters>8.19999980926513671875</AltitudeMeters>
            <DistanceMeters>101164.77906408</DistanceMeters>
          </Trackpoint>
          <Trackpoint>
            <Time>2018-04-21T15:14:20.000Z</Time>
            <Position>
              <LatitudeDegrees>43.3480551280081272125244140625</LatitudeDegrees>
              <LongitudeDegrees>-8.38762767612934112548828125</LongitudeDegrees>
            </Position>
            <AltitudeMeters>6.80000019073486328125</AltitudeMeters>
            <DistanceMeters>101179.336462</DistanceMeters>
          </Trackpoint>
          <Trackpoint>
            <Time>2018-04-21T15:14:21.000Z</Time>
            <Position>
              <LatitudeDegrees>43.34812260232865810394287109375</LatitudeDegrees>
              <LongitudeDegrees>-8.38763304054737091064453125</LongitudeDegrees>
            </Position>
            <AltitudeMeters>6.80000019073486328125</AltitudeMeters>
            <DistanceMeters>101186.85979365</DistanceMeters>
          </Trackpoint>
          <Trackpoint>
            <Time>2018-04-21T15:14:24.000Z</Time>
            <Position>
              <LatitudeDegrees>43.3483206667006015777587890625</LatitudeDegrees>
              <LongitudeDegrees>-8.387650810182094573974609375</LongitudeDegrees>
            </Position>
            <AltitudeMeters>5.19999980926513671875</AltitudeMeters>
            <DistanceMeters>101208.95181872</DistanceMeters>
          </Trackpoint>
          <Trackpoint>
            <Time>2018-04-21T15:14:25.000Z</Time>
            <Position>
              <LatitudeDegrees>43.34837992675602436065673828125</LatitudeDegrees>
              <LongitudeDegrees>-8.387653827667236328125</LongitudeDegrees>
            </Position>
            <AltitudeMeters>4.599999904632568359375</AltitudeMeters>
            <DistanceMeters>101215.5519012</DistanceMeters>
          </Trackpoint>
          <Trackpoint>
            <Time>2018-04-21T15:14:26.000Z</Time>
            <Position>
              <LatitudeDegrees>43.3484418690204620361328125</LatitudeDegrees>
              <LongitudeDegrees>-8.3876503072679042816162109375</LongitudeDegrees>
            </Position>
            <AltitudeMeters>4.19999980926513671875</AltitudeMeters>
            <DistanceMeters>101222.45230648</DistanceMeters>
          </Trackpoint>
          <Trackpoint>
            <Time>2018-04-21T15:14:27.000Z</Time>
            <Position>
              <LatitudeDegrees>43.348495848476886749267578125</LatitudeDegrees>
              <LongitudeDegrees>-8.38765391148626804351806640625</LongitudeDegrees>
            </Position>
            <AltitudeMeters>4</AltitudeMeters>
            <DistanceMeters>101228.46833062</DistanceMeters>
          </Trackpoint>
          <Trackpoint>
            <Time>2018-04-21T15:14:29.000Z</Time>
            <Position>
              <LatitudeDegrees>43.34859567694365978240966796875</LatitudeDegrees>
              <LongitudeDegrees>-8.3876757882535457611083984375</LongitudeDegrees>
            </Position>
            <AltitudeMeters>4.19999980926513671875</AltitudeMeters>
            <DistanceMeters>101239.71926887</DistanceMeters>
          </Trackpoint>
          <Trackpoint>
            <Time>2018-04-21T15:14:31.000Z</Time>
            <Position>
              <LatitudeDegrees>43.34869198501110076904296875</LatitudeDegrees>
              <LongitudeDegrees>-8.3877156861126422882080078125</LongitudeDegrees>
            </Position>
            <AltitudeMeters>4.400000095367431640625</AltitudeMeters>
            <DistanceMeters>101250.9146903</DistanceMeters>
          </Trackpoint>
          <Trackpoint>
            <Time>2018-04-21T15:14:32.000Z</Time>
            <Position>
              <LatitudeDegrees>43.348743282258510589599609375</LatitudeDegrees>
              <LongitudeDegrees>-8.38772557675838470458984375</LongitudeDegrees>
            </Position>
            <AltitudeMeters>4.400000095367431640625</AltitudeMeters>
            <DistanceMeters>101256.6800794</DistanceMeters>
          </Trackpoint>
          <Trackpoint>
            <Time>2018-04-21T15:14:36.000Z</Time>
            <Position>
              <LatitudeDegrees>43.34895961917936801910400390625</LatitudeDegrees>
              <LongitudeDegrees>-8.387751393020153045654296875</LongitudeDegrees>
            </Position>
            <AltitudeMeters>4</AltitudeMeters>
            <DistanceMeters>101280.84939145</DistanceMeters>
          </Trackpoint>
          <Trackpoint>
            <Time>2018-04-21T15:14:44.000Z</Time>
            <Position>
              <LatitudeDegrees>43.34940570406615734100341796875</LatitudeDegrees>
              <LongitudeDegrees>-8.3877324499189853668212890625</LongitudeDegrees>
            </Position>
            <AltitudeMeters>4</AltitudeMeters>
            <DistanceMeters>101330.52319187</DistanceMeters>
          </Trackpoint>
          <Trackpoint>
            <Time>2018-04-21T15:14:50.000Z</Time>
            <Position>
              <LatitudeDegrees>43.34973628632724285125732421875</LatitudeDegrees>
              <LongitudeDegrees>-8.387624658644199371337890625</LongitudeDegrees>
            </Position>
            <AltitudeMeters>3.7999999523162841796875</AltitudeMeters>
            <DistanceMeters>101368.33785471</DistanceMeters>
          </Trackpoint>
          <Trackpoint>
            <Time>2018-04-21T15:14:55.000Z</Time>
            <Position>
              <LatitudeDegrees>43.35003032349050045013427734375</LatitudeDegrees>
              <LongitudeDegrees>-8.3875098265707492828369140625</LongitudeDegrees>
            </Position>
            <AltitudeMeters>3.7999999523162841796875</AltitudeMeters>
            <DistanceMeters>101402.35901104</DistanceMeters>
          </Trackpoint>
          <Trackpoint>
            <Time>2018-04-21T15:14:58.000Z</Time>
            <Position>
              <LatitudeDegrees>43.35020634345710277557373046875</LatitudeDegrees>
              <LongitudeDegrees>-8.38743782602250576019287109375</LongitudeDegrees>
            </Position>
            <AltitudeMeters>4.19999980926513671875</AltitudeMeters>
            <DistanceMeters>101422.79881331</DistanceMeters>
          </Trackpoint>
          <Trackpoint>
            <Time>2018-04-21T15:15:05.000Z</Time>
            <Position>
              <LatitudeDegrees>43.35062443278729915618896484375</LatitudeDegrees>
              <LongitudeDegrees>-8.38726557791233062744140625</LongitudeDegrees>
            </Position>
            <AltitudeMeters>4.599999904632568359375</AltitudeMeters>
            <DistanceMeters>101471.3764288</DistanceMeters>
          </Trackpoint>
          <Trackpoint>
            <Time>2018-04-21T15:15:06.000Z</Time>
            <Position>
              <LatitudeDegrees>43.350685872137546539306640625</LatitudeDegrees>
              <LongitudeDegrees>-8.38724076747894287109375</LongitudeDegrees>
            </Position>
            <AltitudeMeters>4.599999904632568359375</AltitudeMeters>
            <DistanceMeters>101478.50343238</DistanceMeters>
          </Trackpoint>
          <Trackpoint>
            <Time>2018-04-21T15:15:15.000Z</Time>
            <Position>
              <LatitudeDegrees>43.35122558288276195526123046875</LatitudeDegrees>
              <LongitudeDegrees>-8.3870250172913074493408203125</LongitudeDegrees>
            </Position>
            <AltitudeMeters>4</AltitudeMeters>
            <DistanceMeters>101541.06075336</DistanceMeters>
          </Trackpoint>
          <Trackpoint>
            <Time>2018-04-21T15:15:20.000Z</Time>
            <Position>
              <LatitudeDegrees>43.35149145685136318206787109375</LatitudeDegrees>
              <LongitudeDegrees>-8.386931307613849639892578125</LongitudeDegrees>
            </Position>
            <AltitudeMeters>3.7999999523162841796875</AltitudeMeters>
            <DistanceMeters>101571.60944041</DistanceMeters>
          </Trackpoint>
          <Trackpoint>
            <Time>2018-04-21T15:15:21.000Z</Time>
            <Position>
              <LatitudeDegrees>43.35153403691947460174560546875</LatitudeDegrees>
              <LongitudeDegrees>-8.38688780553638935089111328125</LongitudeDegrees>
            </Position>
            <AltitudeMeters>4</AltitudeMeters>
            <DistanceMeters>101577.51411018</DistanceMeters>
          </Trackpoint>
          <Trackpoint>
            <Time>2018-04-21T15:15:24.000Z</Time>
            <Position>
              <LatitudeDegrees>43.35165658034384250640869140625</LatitudeDegrees>
              <LongitudeDegrees>-8.38675587438046932220458984375</LongitudeDegrees>
            </Position>
            <AltitudeMeters>4.80000019073486328125</AltitudeMeters>
            <DistanceMeters>101594.83610141</DistanceMeters>
          </Trackpoint>
          <Trackpoint>
            <Time>2018-04-21T15:15:26.000Z</Time>
            <Position>
              <LatitudeDegrees>43.35175649262964725494384765625</LatitudeDegrees>
              <LongitudeDegrees>-8.3867172338068485260009765625</LongitudeDegrees>
            </Position>
            <AltitudeMeters>3.599999904632568359375</AltitudeMeters>
            <DistanceMeters>101606.3880047</DistanceMeters>
          </Trackpoint>
          <Trackpoint>
            <Time>2018-04-21T15:15:28.000Z</Time>
            <Position>
              <LatitudeDegrees>43.3518554829061031341552734375</LatitudeDegrees>
              <LongitudeDegrees>-8.38669653050601482391357421875</LongitudeDegrees>
            </Position>
            <AltitudeMeters>3.400000095367431640625</AltitudeMeters>
            <DistanceMeters>101617.53249533</DistanceMeters>
          </Trackpoint>
          <Trackpoint>
            <Time>2018-04-21T15:15:30.000Z</Time>
            <Position>
              <LatitudeDegrees>43.35192899219691753387451171875</LatitudeDegrees>
              <LongitudeDegrees>-8.3866723068058490753173828125</LongitudeDegrees>
            </Position>
            <AltitudeMeters>4</AltitudeMeters>
            <DistanceMeters>101625.94544601</DistanceMeters>
          </Trackpoint>
          <Trackpoint>
            <Time>2018-04-21T15:15:36.000Z</Time>
            <Position>
              <LatitudeDegrees>43.3521944470703601837158203125</LatitudeDegrees>
              <LongitudeDegrees>-8.38662746362388134002685546875</LongitudeDegrees>
            </Position>
            <AltitudeMeters>4.19999980926513671875</AltitudeMeters>
            <DistanceMeters>101655.71308568</DistanceMeters>
          </Trackpoint>
          <Trackpoint>
            <Time>2018-04-21T15:15:37.000Z</Time>
            <Position>
              <LatitudeDegrees>43.35224457085132598876953125</LatitudeDegrees>
              <LongitudeDegrees>-8.38663383387029170989990234375</LongitudeDegrees>
            </Position>
            <AltitudeMeters>4</AltitudeMeters>
            <DistanceMeters>101661.31563383</DistanceMeters>
          </Trackpoint>
          <Trackpoint>
            <Time>2018-04-21T15:15:41.000Z</Time>
            <Position>
              <LatitudeDegrees>43.35244900546967983245849609375</LatitudeDegrees>
              <LongitudeDegrees>-8.38670139200985431671142578125</LongitudeDegrees>
            </Position>
            <AltitudeMeters>4</AltitudeMeters>
            <DistanceMeters>101684.71730078</DistanceMeters>
          </Trackpoint>
          <Trackpoint>
            <Time>2018-04-21T15:15:42.000Z</Time>
            <Position>
              <LatitudeDegrees>43.35249208845198154449462890625</LatitudeDegrees>
              <LongitudeDegrees>-8.38672888465225696563720703125</LongitudeDegrees>
            </Position>
            <AltitudeMeters>3.599999904632568359375</AltitudeMeters>
            <DistanceMeters>101690.00304164</DistanceMeters>
          </Trackpoint>
          <Trackpoint>
            <Time>2018-04-21T15:15:46.000Z</Time>
            <Position>
              <LatitudeDegrees>43.3526782505214214324951171875</LatitudeDegrees>
              <LongitudeDegrees>-8.38685394264757633209228515625</LongitudeDegrees>
            </Position>
            <AltitudeMeters>4.400000095367431640625</AltitudeMeters>
            <DistanceMeters>101713.06342329</DistanceMeters>
          </Trackpoint>
          <Trackpoint>
            <Time>2018-04-21T15:15:53.000Z</Time>
            <Position>
              <LatitudeDegrees>43.3530043065547943115234375</LatitudeDegrees>
              <LongitudeDegrees>-8.38709735311567783355712890625</LongitudeDegrees>
            </Position>
            <AltitudeMeters>4.80000019073486328125</AltitudeMeters>
            <DistanceMeters>101754.35622114</DistanceMeters>
          </Trackpoint>
          <Trackpoint>
            <Time>2018-04-21T15:15:59.000Z</Time>
            <Position>
              <LatitudeDegrees>43.35327319800853729248046875</LatitudeDegrees>
              <LongitudeDegrees>-8.3873083256185054779052734375</LongitudeDegrees>
            </Position>
            <AltitudeMeters>5</AltitudeMeters>
            <DistanceMeters>101788.81241508</DistanceMeters>
          </Trackpoint>
          <Trackpoint>
            <Time>2018-04-21T15:16:01.000Z</Time>
            <Position>
              <LatitudeDegrees>43.35336699150502681732177734375</LatitudeDegrees>
              <LongitudeDegrees>-8.38737697340548038482666015625</LongitudeDegrees>
            </Position>
            <AltitudeMeters>4.599999904632568359375</AltitudeMeters>
            <DistanceMeters>101800.6381833</DistanceMeters>
          </Trackpoint>
          <Trackpoint>
            <Time>2018-04-21T15:16:08.000Z</Time>
            <Position>
              <LatitudeDegrees>43.35371064953505992889404296875</LatitudeDegrees>
              <LongitudeDegrees>-8.38761401362717151641845703125</LongitudeDegrees>
            </Position>
            <AltitudeMeters>5</AltitudeMeters>
            <DistanceMeters>101843.42912534</DistanceMeters>
          </Trackpoint>
          <Trackpoint>
            <Time>2018-04-21T15:16:09.000Z</Time>
            <Position>
              <LatitudeDegrees>43.3537606894969940185546875</LatitudeDegrees>
              <LongitudeDegrees>-8.3876509778201580047607421875</LongitudeDegrees>
            </Position>
            <AltitudeMeters>5</AltitudeMeters>
            <DistanceMeters>101849.75179474</DistanceMeters>
          </Trackpoint>
          <Trackpoint>
            <Time>2018-04-21T15:16:10.000Z</Time>
            <Position>
              <LatitudeDegrees>43.35380871780216693878173828125</LatitudeDegrees>
              <LongitudeDegrees>-8.38768894784152507781982421875</LongitudeDegrees>
            </Position>
            <AltitudeMeters>5.400000095367431640625</AltitudeMeters>
            <DistanceMeters>101855.91755681</DistanceMeters>
          </Trackpoint>
          <Trackpoint>
            <Time>2018-04-21T15:16:17.000Z</Time>
            <Position>
              <LatitudeDegrees>43.35413075052201747894287109375</LatitudeDegrees>
              <LongitudeDegrees>-8.3879958093166351318359375</LongitudeDegrees>
            </Position>
            <AltitudeMeters>5.400000095367431640625</AltitudeMeters>
            <DistanceMeters>101899.52322349</DistanceMeters>
          </Trackpoint>
          <Trackpoint>
            <Time>2018-04-21T15:16:26.000Z</Time>
            <Position>
              <LatitudeDegrees>43.3544910885393619537353515625</LatitudeDegrees>
              <LongitudeDegrees>-8.3884214423596858978271484375</LongitudeDegrees>
            </Position>
            <AltitudeMeters>5.19999980926513671875</AltitudeMeters>
            <DistanceMeters>101952.39173549</DistanceMeters>
          </Trackpoint>
          <Trackpoint>
            <Time>2018-04-21T15:16:34.000Z</Time>
            <Position>
              <LatitudeDegrees>43.35475855506956577301025390625</LatitudeDegrees>
              <LongitudeDegrees>-8.38889057748019695281982421875</LongitudeDegrees>
            </Position>
            <AltitudeMeters>5.19999980926513671875</AltitudeMeters>
            <DistanceMeters>102000.638175</DistanceMeters>
          </Trackpoint>
          <Trackpoint>
            <Time>2018-04-21T15:16:42.000Z</Time>
            <Position>
              <LatitudeDegrees>43.354998193681240081787109375</LatitudeDegrees>
              <LongitudeDegrees>-8.38946473784744739532470703125</LongitudeDegrees>
            </Position>
            <AltitudeMeters>4.80000019073486328125</AltitudeMeters>
            <DistanceMeters>102054.21554784</DistanceMeters>
          </Trackpoint>
          <Trackpoint>
            <Time>2018-04-21T15:16:44.000Z</Time>
            <Position>
              <LatitudeDegrees>43.3550588786602020263671875</LatitudeDegrees>
              <LongitudeDegrees>-8.389603793621063232421875</LongitudeDegrees>
            </Position>
            <AltitudeMeters>5.19999980926513671875</AltitudeMeters>
            <DistanceMeters>102067.3409354</DistanceMeters>
          </Trackpoint>
          <Trackpoint>
            <Time>2018-04-21T15:16:46.000Z</Time>
            <Position>
              <LatitudeDegrees>43.3551261015236377716064453125</LatitudeDegrees>
              <LongitudeDegrees>-8.38972918689250946044921875</LongitudeDegrees>
            </Position>
            <AltitudeMeters>4.19999980926513671875</AltitudeMeters>
            <DistanceMeters>102079.94908616</DistanceMeters>
          </Trackpoint>
          <Trackpoint>
            <Time>2018-04-21T15:16:48.000Z</Time>
            <Position>
              <LatitudeDegrees>43.35519097745418548583984375</LatitudeDegrees>
              <LongitudeDegrees>-8.3898581005632877349853515625</LongitudeDegrees>
            </Position>
            <AltitudeMeters>4.400000095367431640625</AltitudeMeters>
            <DistanceMeters>102092.63719882</DistanceMeters>
          </Trackpoint>
          <Trackpoint>
            <Time>2018-04-21T15:16:57.000Z</Time>
            <Position>
              <LatitudeDegrees>43.35545944981276988983154296875</LatitudeDegrees>
              <LongitudeDegrees>-8.390463106334209442138671875</LongitudeDegrees>
            </Position>
            <AltitudeMeters>5.19999980926513671875</AltitudeMeters>
            <DistanceMeters>102149.9976095</DistanceMeters>
          </Trackpoint>
          <Trackpoint>
            <Time>2018-04-21T15:17:05.000Z</Time>
            <Position>
              <LatitudeDegrees>43.35569498129189014434814453125</LatitudeDegrees>
              <LongitudeDegrees>-8.39102829806506633758544921875</LongitudeDegrees>
            </Position>
            <AltitudeMeters>3.599999904632568359375</AltitudeMeters>
            <DistanceMeters>102202.71765644</DistanceMeters>
          </Trackpoint>
          <Trackpoint>
            <Time>2018-04-21T15:17:13.000Z</Time>
            <Position>
              <LatitudeDegrees>43.35592514835298061370849609375</LatitudeDegrees>
              <LongitudeDegrees>-8.39159256778657436370849609375</LongitudeDegrees>
            </Position>
            <AltitudeMeters>5</AltitudeMeters>
            <DistanceMeters>102255.07780721</DistanceMeters>
          </Trackpoint>
          <Trackpoint>
            <Time>2018-04-21T15:17:22.000Z</Time>
            <Position>
              <LatitudeDegrees>43.35618607699871063232421875</LatitudeDegrees>
              <LongitudeDegrees>-8.39223680086433887481689453125</LongitudeDegrees>
            </Position>
            <AltitudeMeters>5</AltitudeMeters>
            <DistanceMeters>102314.75723181</DistanceMeters>
          </Trackpoint>
          <Trackpoint>
            <Time>2018-04-21T15:17:23.000Z</Time>
            <Position>
              <LatitudeDegrees>43.3562180958688259124755859375</LatitudeDegrees>
              <LongitudeDegrees>-8.3923056162893772125244140625</LongitudeDegrees>
            </Position>
            <AltitudeMeters>5.400000095367431640625</AltitudeMeters>
            <DistanceMeters>102321.36961641</DistanceMeters>
          </Trackpoint>
          <Trackpoint>
            <Time>2018-04-21T15:17:29.000Z</Time>
            <Position>
              <LatitudeDegrees>43.35639403201639652252197265625</LatitudeDegrees>
              <LongitudeDegrees>-8.39273150078952312469482421875</LongitudeDegrees>
            </Position>
            <AltitudeMeters>4.19999980926513671875</AltitudeMeters>
            <DistanceMeters>102361.00988246</DistanceMeters>
          </Trackpoint>
          <Trackpoint>
            <Time>2018-04-21T15:17:31.000Z</Time>
            <Position>
              <LatitudeDegrees>43.35645454935729503631591796875</LatitudeDegrees>
              <LongitudeDegrees>-8.39287181384861469268798828125</LongitudeDegrees>
            </Position>
            <AltitudeMeters>4</AltitudeMeters>
            <DistanceMeters>102374.21278349</DistanceMeters>
          </Trackpoint>
          <Trackpoint>
            <Time>2018-04-21T15:17:38.000Z</Time>
            <Position>
              <LatitudeDegrees>43.356669209897518157958984375</LatitudeDegrees>
              <LongitudeDegrees>-8.39337824843823909759521484375</LongitudeDegrees>
            </Position>
            <AltitudeMeters>4.19999980926513671875</AltitudeMeters>
            <DistanceMeters>102421.65272333</DistanceMeters>
          </Trackpoint>
          <Trackpoint>
            <Time>2018-04-21T15:17:45.000Z</Time>
            <Position>
              <LatitudeDegrees>43.35687808692455291748046875</LatitudeDegrees>
              <LongitudeDegrees>-8.39387663640081882476806640625</LongitudeDegrees>
            </Position>
            <AltitudeMeters>3.599999904632568359375</AltitudeMeters>
            <DistanceMeters>102468.20630973</DistanceMeters>
          </Trackpoint>
          <Trackpoint>
            <Time>2018-04-21T15:17:46.000Z</Time>
            <Position>
              <LatitudeDegrees>43.35690717212855815887451171875</LatitudeDegrees>
              <LongitudeDegrees>-8.39394754730165004730224609375</LongitudeDegrees>
            </Position>
            <AltitudeMeters>3</AltitudeMeters>
            <DistanceMeters>102474.79543771</DistanceMeters>
          </Trackpoint>
          <Trackpoint>
            <Time>2018-04-21T15:17:49.000Z</Time>
            <Position>
              <LatitudeDegrees>43.3569949306547641754150390625</LatitudeDegrees>
              <LongitudeDegrees>-8.3941603638231754302978515625</LongitudeDegrees>
            </Position>
            <AltitudeMeters>4.400000095367431640625</AltitudeMeters>
            <DistanceMeters>102494.59522909</DistanceMeters>
          </Trackpoint>
          <Trackpoint>
            <Time>2018-04-21T15:17:52.000Z</Time>
            <Position>
              <LatitudeDegrees>43.35708168335258960723876953125</LatitudeDegrees>
              <LongitudeDegrees>-8.39436681009829044342041015625</LongitudeDegrees>
            </Position>
            <AltitudeMeters>4</AltitudeMeters>
            <DistanceMeters>102513.89173661</DistanceMeters>
          </Trackpoint>
          <Trackpoint>
            <Time>2018-04-21T15:18:00.000Z</Time>
            <Position>
              <LatitudeDegrees>43.35731796920299530029296875</LatitudeDegrees>
              <LongitudeDegrees>-8.394930996000766754150390625</LongitudeDegrees>
            </Position>
            <AltitudeMeters>4.19999980926513671875</AltitudeMeters>
            <DistanceMeters>102566.58197178</DistanceMeters>
          </Trackpoint>
          <Trackpoint>
            <Time>2018-04-21T15:18:08.000Z</Time>
            <Position>
              <LatitudeDegrees>43.3575613796710968017578125</LatitudeDegrees>
              <LongitudeDegrees>-8.39551328681409358978271484375</LongitudeDegrees>
            </Position>
            <AltitudeMeters>4.400000095367431640625</AltitudeMeters>
            <DistanceMeters>102620.9372524</DistanceMeters>
          </Trackpoint>
          <Trackpoint>
            <Time>2018-04-21T15:18:16.000Z</Time>
            <Position>
              <LatitudeDegrees>43.35780621506273746490478515625</LatitudeDegrees>
              <LongitudeDegrees>-8.3960700966417789459228515625</LongitudeDegrees>
            </Position>
            <AltitudeMeters>4.599999904632568359375</AltitudeMeters>
            <DistanceMeters>102673.59663005</DistanceMeters>
          </Trackpoint>
          <Trackpoint>
            <Time>2018-04-21T15:18:24.000Z</Time>
            <Position>
              <LatitudeDegrees>43.358037471771240234375</LatitudeDegrees>
              <LongitudeDegrees>-8.3965723402798175811767578125</LongitudeDegrees>
            </Position>
            <AltitudeMeters>3.599999904632568359375</AltitudeMeters>
            <DistanceMeters>102721.70549382</DistanceMeters>
          </Trackpoint>
          <Trackpoint>
            <Time>2018-04-21T15:18:26.000Z</Time>
            <Position>
              <LatitudeDegrees>43.35810528136789798736572265625</LatitudeDegrees>
              <LongitudeDegrees>-8.3966541476547718048095703125</LongitudeDegrees>
            </Position>
            <AltitudeMeters>3.599999904632568359375</AltitudeMeters>
            <DistanceMeters>102731.74510105</DistanceMeters>
          </Trackpoint>
          <Trackpoint>
            <Time>2018-04-21T15:18:28.000Z</Time>
            <Position>
              <LatitudeDegrees>43.3581858314573764801025390625</LatitudeDegrees>
              <LongitudeDegrees>-8.39669982902705669403076171875</LongitudeDegrees>
            </Position>
            <AltitudeMeters>4</AltitudeMeters>
            <DistanceMeters>102741.44248297</DistanceMeters>
          </Trackpoint>
          <Trackpoint>
            <Time>2018-04-21T15:18:31.000Z</Time>
            <Position>
              <LatitudeDegrees>43.35831231437623500823974609375</LatitudeDegrees>
              <LongitudeDegrees>-8.39674358256161212921142578125</LongitudeDegrees>
            </Position>
            <AltitudeMeters>2.7999999523162841796875</AltitudeMeters>
            <DistanceMeters>102755.95826072</DistanceMeters>
          </Trackpoint>
          <Trackpoint>
            <Time>2018-04-21T15:18:32.000Z</Time>
            <Position>
              <LatitudeDegrees>43.35835070349276065826416015625</LatitudeDegrees>
              <LongitudeDegrees>-8.39679353870451450347900390625</LongitudeDegrees>
            </Position>
            <AltitudeMeters>2.7999999523162841796875</AltitudeMeters>
            <DistanceMeters>102761.84071369</DistanceMeters>
          </Trackpoint>
          <Trackpoint>
            <Time>2018-04-21T15:18:35.000Z</Time>
            <Position>
              <LatitudeDegrees>43.3584054373204708099365234375</LatitudeDegrees>
              <LongitudeDegrees>-8.39699822477996349334716796875</LongitudeDegrees>
            </Position>
            <AltitudeMeters>2.400000095367431640625</AltitudeMeters>
            <DistanceMeters>102779.48960761</DistanceMeters>
          </Trackpoint>
          <Trackpoint>
            <Time>2018-04-21T15:18:37.000Z</Time>
            <Position>
              <LatitudeDegrees>43.35840828716754913330078125</LatitudeDegrees>
              <LongitudeDegrees>-8.3971503563225269317626953125</LongitudeDegrees>
            </Position>
            <AltitudeMeters>2.599999904632568359375</AltitudeMeters>
            <DistanceMeters>102791.80501114</DistanceMeters>
          </Trackpoint>
          <Trackpoint>
            <Time>2018-04-21T15:18:39.000Z</Time>
            <Position>
              <LatitudeDegrees>43.35842438042163848876953125</LatitudeDegrees>
              <LongitudeDegrees>-8.39730768464505672454833984375</LongitudeDegrees>
            </Position>
            <AltitudeMeters>3.599999904632568359375</AltitudeMeters>
            <DistanceMeters>102804.66244515</DistanceMeters>
          </Trackpoint>
          <Trackpoint>
            <Time>2018-04-21T15:18:44.000Z</Time>
            <Position>
              <LatitudeDegrees>43.35852823220193386077880859375</LatitudeDegrees>
              <LongitudeDegrees>-8.39767313562333583831787109375</LongitudeDegrees>
            </Position>
            <AltitudeMeters>3.400000095367431640625</AltitudeMeters>
            <DistanceMeters>102836.41516354</DistanceMeters>
          </Trackpoint>
          <Trackpoint>
            <Time>2018-04-21T15:18:52.000Z</Time>
            <Position>
              <LatitudeDegrees>43.3587071858346462249755859375</LatitudeDegrees>
              <LongitudeDegrees>-8.39821879751980304718017578125</LongitudeDegrees>
            </Position>
            <AltitudeMeters>3.2000000476837158203125</AltitudeMeters>
            <DistanceMeters>102884.85688952</DistanceMeters>
          </Trackpoint>
          <Trackpoint>
            <Time>2018-04-21T15:18:54.000Z</Time>
            <Position>
              <LatitudeDegrees>43.35872688330709934234619140625</LatitudeDegrees>
              <LongitudeDegrees>-8.39836397208273410797119140625</LongitudeDegrees>
            </Position>
            <AltitudeMeters>2.7999999523162841796875</AltitudeMeters>
            <DistanceMeters>102896.8076087</DistanceMeters>
          </Trackpoint>
          <Trackpoint>
            <Time>2018-04-21T15:18:57.000Z</Time>
            <Position>
              <LatitudeDegrees>43.3587182499468326568603515625</LatitudeDegrees>
              <LongitudeDegrees>-8.39858978055417537689208984375</LongitudeDegrees>
            </Position>
            <AltitudeMeters>2.599999904632568359375</AltitudeMeters>
            <DistanceMeters>102915.10611232</DistanceMeters>
          </Trackpoint>
          <Trackpoint>
            <Time>2018-04-21T15:19:02.000Z</Time>
            <Position>
              <LatitudeDegrees>43.358619175851345062255859375</LatitudeDegrees>
              <LongitudeDegrees>-8.39892824180424213409423828125</LongitudeDegrees>
            </Position>
            <AltitudeMeters>2.7999999523162841796875</AltitudeMeters>
            <DistanceMeters>102944.63236674</DistanceMeters>
          </Trackpoint>
          <Trackpoint>
            <Time>2018-04-21T15:19:07.000Z</Time>
            <Position>
              <LatitudeDegrees>43.35841289721429347991943359375</LatitudeDegrees>
              <LongitudeDegrees>-8.399186991155147552490234375</LongitudeDegrees>
            </Position>
            <AltitudeMeters>3</AltitudeMeters>
            <DistanceMeters>102975.70595704</DistanceMeters>
          </Trackpoint>
          <Trackpoint>
            <Time>2018-04-21T15:19:08.000Z</Time>
            <Position>
              <LatitudeDegrees>43.35837450809776782989501953125</LatitudeDegrees>
              <LongitudeDegrees>-8.39923904277384281158447265625</LongitudeDegrees>
            </Position>
            <AltitudeMeters>3</AltitudeMeters>
            <DistanceMeters>102981.70544741</DistanceMeters>
          </Trackpoint>
          <Trackpoint>
            <Time>2018-04-21T15:19:13.000Z</Time>
            <Position>
              <LatitudeDegrees>43.358170576393604278564453125</LatitudeDegrees>
              <LongitudeDegrees>-8.39949309825897216796875</LongitudeDegrees>
            </Position>
            <AltitudeMeters>3</AltitudeMeters>
            <DistanceMeters>103012.33045075</DistanceMeters>
          </Trackpoint>
          <Trackpoint>
            <Time>2018-04-21T15:19:19.000Z</Time>
            <Position>
              <LatitudeDegrees>43.35797108709812164306640625</LatitudeDegrees>
              <LongitudeDegrees>-8.39975536800920963287353515625</LongitudeDegrees>
            </Position>
            <AltitudeMeters>2.7999999523162841796875</AltitudeMeters>
            <DistanceMeters>103043.04628359</DistanceMeters>
          </Trackpoint>
          <Trackpoint>
            <Time>2018-04-21T15:19:38.000Z</Time>
            <Position>
              <LatitudeDegrees>43.35795591585338115692138671875</LatitudeDegrees>
              <LongitudeDegrees>-8.3998664282262325286865234375</LongitudeDegrees>
            </Position>
            <AltitudeMeters>1.2000000476837158203125</AltitudeMeters>
            <DistanceMeters>103052.19109293</DistanceMeters>
          </Trackpoint>
          <Trackpoint>
            <Time>2018-04-21T15:19:39.000Z</Time>
            <Position>
              <LatitudeDegrees>43.35795859806239604949951171875</LatitudeDegrees>
              <LongitudeDegrees>-8.39989610016345977783203125</LongitudeDegrees>
            </Position>
            <AltitudeMeters>2.400000095367431640625</AltitudeMeters>
            <DistanceMeters>103054.61194394</DistanceMeters>
          </Trackpoint>
          <Trackpoint>
            <Time>2018-04-21T15:19:41.000Z</Time>
            <Position>
              <LatitudeDegrees>43.35796706378459930419921875</LatitudeDegrees>
              <LongitudeDegrees>-8.39997581206262111663818359375</LongitudeDegrees>
            </Position>
            <AltitudeMeters>3.2000000476837158203125</AltitudeMeters>
            <DistanceMeters>103061.13080425</DistanceMeters>
          </Trackpoint>
          <Trackpoint>
            <Time>2018-04-21T15:19:45.000Z</Time>
            <Position>
              <LatitudeDegrees>43.35804753005504608154296875</LatitudeDegrees>
              <LongitudeDegrees>-8.4001467190682888031005859375</LongitudeDegrees>
            </Position>
            <AltitudeMeters>3.2000000476837158203125</AltitudeMeters>
            <DistanceMeters>103077.60800906</DistanceMeters>
          </Trackpoint>
          <Trackpoint>
            <Time>2018-04-21T15:19:46.000Z</Time>
            <Position>
              <LatitudeDegrees>43.3580775372684001922607421875</LatitudeDegrees>
              <LongitudeDegrees>-8.400189466774463653564453125</LongitudeDegrees>
            </Position>
            <AltitudeMeters>3.599999904632568359375</AltitudeMeters>
            <DistanceMeters>103082.41602276</DistanceMeters>
          </Trackpoint>
          <Trackpoint>
            <Time>2018-04-21T15:19:49.000Z</Time>
            <Position>
              <LatitudeDegrees>43.35817158222198486328125</LatitudeDegrees>
              <LongitudeDegrees>-8.400332294404506683349609375</LongitudeDegrees>
            </Position>
            <AltitudeMeters>2.2000000476837158203125</AltitudeMeters>
            <DistanceMeters>103098.00967206</DistanceMeters>
          </Trackpoint>
          <Trackpoint>
            <Time>2018-04-21T15:19:51.000Z</Time>
            <Position>
              <LatitudeDegrees>43.35824106819927692413330078125</LatitudeDegrees>
              <LongitudeDegrees>-8.4004417620599269866943359375</LongitudeDegrees>
            </Position>
            <AltitudeMeters>3.599999904632568359375</AltitudeMeters>
            <DistanceMeters>103109.76920396</DistanceMeters>
          </Trackpoint>
          <Trackpoint>
            <Time>2018-04-21T15:19:52.000Z</Time>
            <Position>
              <LatitudeDegrees>43.35827543400228023529052734375</LatitudeDegrees>
              <LongitudeDegrees>-8.40049817226827144622802734375</LongitudeDegrees>
            </Position>
            <AltitudeMeters>3.599999904632568359375</AltitudeMeters>
            <DistanceMeters>103115.72564336</DistanceMeters>
          </Trackpoint>
          <Trackpoint>
            <Time>2018-04-21T15:20:01.000Z</Time>
            <Position>
              <LatitudeDegrees>43.358589671552181243896484375</LatitudeDegrees>
              <LongitudeDegrees>-8.40099471621215343475341796875</LongitudeDegrees>
            </Position>
            <AltitudeMeters>2.7999999523162841796875</AltitudeMeters>
            <DistanceMeters>103168.99775844</DistanceMeters>
          </Trackpoint>
          <Trackpoint>
            <Time>2018-04-21T15:20:05.000Z</Time>
            <Position>
              <LatitudeDegrees>43.35872185416519641876220703125</LatitudeDegrees>
              <LongitudeDegrees>-8.4012310020625591278076171875</LongitudeDegrees>
            </Position>
            <AltitudeMeters>2.7999999523162841796875</AltitudeMeters>
            <DistanceMeters>103193.12369194</DistanceMeters>
          </Trackpoint>
          <Trackpoint>
            <Time>2018-04-21T15:20:08.000Z</Time>
            <Position>
              <LatitudeDegrees>43.3587866462767124176025390625</LatitudeDegrees>
              <LongitudeDegrees>-8.401432670652866363525390625</LongitudeDegrees>
            </Position>
            <AltitudeMeters>3</AltitudeMeters>
            <DistanceMeters>103210.96570093</DistanceMeters>
          </Trackpoint>
          <Trackpoint>
            <Time>2018-04-21T15:20:14.000Z</Time>
            <Position>
              <LatitudeDegrees>43.3588654361665248870849609375</LatitudeDegrees>
              <LongitudeDegrees>-8.40185034088790416717529296875</LongitudeDegrees>
            </Position>
            <AltitudeMeters>2.400000095367431640625</AltitudeMeters>
            <DistanceMeters>103245.88436589</DistanceMeters>
          </Trackpoint>
          <Trackpoint>
            <Time>2018-04-21T15:20:20.000Z</Time>
            <Position>
              <LatitudeDegrees>43.35894204676151275634765625</LatitudeDegrees>
              <LongitudeDegrees>-8.4022680111229419708251953125</LongitudeDegrees>
            </Position>
            <AltitudeMeters>2.599999904632568359375</AltitudeMeters>
            <DistanceMeters>103280.74298328</DistanceMeters>
          </Trackpoint>
          <Trackpoint>
            <Time>2018-04-21T15:20:22.000Z</Time>
            <Position>
              <LatitudeDegrees>43.35899158380925655364990234375</LatitudeDegrees>
              <LongitudeDegrees>-8.402392230927944183349609375</LongitudeDegrees>
            </Position>
            <AltitudeMeters>2.7999999523162841796875</AltitudeMeters>
            <DistanceMeters>103292.20818379</DistanceMeters>
          </Trackpoint>
          <Trackpoint>
            <Time>2018-04-21T15:20:28.000Z</Time>
            <Position>
              <LatitudeDegrees>43.3591380156576633453369140625</LatitudeDegrees>
              <LongitudeDegrees>-8.4026693366467952728271484375</LongitudeDegrees>
            </Position>
            <AltitudeMeters>2.400000095367431640625</AltitudeMeters>
            <DistanceMeters>103319.92993745</DistanceMeters>
          </Trackpoint>
          <Trackpoint>
            <Time>2018-04-21T15:20:52.000Z</Time>
            <Position>
              <LatitudeDegrees>43.359171040356159210205078125</LatitudeDegrees>
              <LongitudeDegrees>-8.40274770744144916534423828125</LongitudeDegrees>
            </Position>
            <AltitudeMeters>1.7999999523162841796875</AltitudeMeters>
            <DistanceMeters>103327.26055713</DistanceMeters>
          </Trackpoint>
          <Trackpoint>
            <Time>2018-04-21T15:20:53.000Z</Time>
            <Position>
              <LatitudeDegrees>43.3591923303902149200439453125</LatitudeDegrees>
              <LongitudeDegrees>-8.4027601964771747589111328125</LongitudeDegrees>
            </Position>
            <AltitudeMeters>3.2000000476837158203125</AltitudeMeters>
            <DistanceMeters>103329.83856726</DistanceMeters>
          </Trackpoint>
          <Trackpoint>
            <Time>2018-04-21T15:20:54.000Z</Time>
            <Position>
              <LatitudeDegrees>43.359211273491382598876953125</LatitudeDegrees>
              <LongitudeDegrees>-8.40278089977800846099853515625</LongitudeDegrees>
            </Position>
            <AltitudeMeters>2.7999999523162841796875</AltitudeMeters>
            <DistanceMeters>103332.53303965</DistanceMeters>
          </Trackpoint>
          <Trackpoint>
            <Time>2018-04-21T15:20:57.000Z</Time>
            <Position>
              <LatitudeDegrees>43.359274975955486297607421875</LatitudeDegrees>
              <LongitudeDegrees>-8.4028865955770015716552734375</LongitudeDegrees>
            </Position>
            <AltitudeMeters>1.7999999523162841796875</AltitudeMeters>
            <DistanceMeters>103343.64344671</DistanceMeters>
          </Trackpoint>
          <Trackpoint>
            <Time>2018-04-21T15:21:02.000Z</Time>
            <Position>
              <LatitudeDegrees>43.3594394288957118988037109375</LatitudeDegrees>
              <LongitudeDegrees>-8.4030492044985294342041015625</LongitudeDegrees>
            </Position>
            <AltitudeMeters>2.2000000476837158203125</AltitudeMeters>
            <DistanceMeters>103366.18661956</DistanceMeters>
          </Trackpoint>
          <Trackpoint>
            <Time>2018-04-21T15:21:06.000Z</Time>
            <Position>
              <LatitudeDegrees>43.359578065574169158935546875</LatitudeDegrees>
              <LongitudeDegrees>-8.40322866104543209075927734375</LongitudeDegrees>
            </Position>
            <AltitudeMeters>2.7999999523162841796875</AltitudeMeters>
            <DistanceMeters>103387.37608536</DistanceMeters>
          </Trackpoint>
          <Trackpoint>
            <Time>2018-04-21T15:21:08.000Z</Time>
            <Position>
              <LatitudeDegrees>43.35965274833142757415771484375</LatitudeDegrees>
              <LongitudeDegrees>-8.40332262217998504638671875</LongitudeDegrees>
            </Position>
            <AltitudeMeters>2.7999999523162841796875</AltitudeMeters>
            <DistanceMeters>103398.64146127</DistanceMeters>
          </Trackpoint>
          <Trackpoint>
            <Time>2018-04-21T15:21:15.000Z</Time>
            <Position>
              <LatitudeDegrees>43.359958939254283905029296875</LatitudeDegrees>
              <LongitudeDegrees>-8.403696119785308837890625</LongitudeDegrees>
            </Position>
            <AltitudeMeters>2.7999999523162841796875</AltitudeMeters>
            <DistanceMeters>103444.19287141</DistanceMeters>
          </Trackpoint>
          <Trackpoint>
            <Time>2018-04-21T15:21:21.000Z</Time>
            <Position>
              <LatitudeDegrees>43.3602434210479259490966796875</LatitudeDegrees>
              <LongitudeDegrees>-8.40402024798095226287841796875</LongitudeDegrees>
            </Position>
            <AltitudeMeters>2.7999999523162841796875</AltitudeMeters>
            <DistanceMeters>103485.30903211</DistanceMeters>
          </Trackpoint>
          <Trackpoint>
            <Time>2018-04-21T15:21:23.000Z</Time>
            <Position>
              <LatitudeDegrees>43.3603429980576038360595703125</LatitudeDegrees>
              <LongitudeDegrees>-8.4041271172463893890380859375</LongitudeDegrees>
            </Position>
            <AltitudeMeters>2.7999999523162841796875</AltitudeMeters>
            <DistanceMeters>103499.367206</DistanceMeters>
          </Trackpoint>
          <Trackpoint>
            <Time>2018-04-21T15:21:30.000Z</Time>
            <Position>
              <LatitudeDegrees>43.360674418509006500244140625</LatitudeDegrees>
              <LongitudeDegrees>-8.4044895507395267486572265625</LongitudeDegrees>
            </Position>
            <AltitudeMeters>2.7999999523162841796875</AltitudeMeters>
            <DistanceMeters>103546.49336711</DistanceMeters>
          </Trackpoint>
          <Trackpoint>
            <Time>2018-04-21T15:21:31.000Z</Time>
            <Position>
              <LatitudeDegrees>43.36072211153805255889892578125</LatitudeDegrees>
              <LongitudeDegrees>-8.40454143472015857696533203125</LongitudeDegrees>
            </Position>
            <AltitudeMeters>2.7999999523162841796875</AltitudeMeters>
            <DistanceMeters>103553.2609773</DistanceMeters>
          </Trackpoint>
          <Trackpoint>
            <Time>2018-04-21T15:21:39.000Z</Time>
            <Position>
              <LatitudeDegrees>43.361145816743373870849609375</LatitudeDegrees>
              <LongitudeDegrees>-8.40489037334918975830078125</LongitudeDegrees>
            </Position>
            <AltitudeMeters>2.599999904632568359375</AltitudeMeters>
            <DistanceMeters>103608.22734008</DistanceMeters>
          </Trackpoint>
          <Trackpoint>
            <Time>2018-04-21T15:21:45.000Z</Time>
            <Position>
              <LatitudeDegrees>43.36147329770028591156005859375</LatitudeDegrees>
              <LongitudeDegrees>-8.4050645492970943450927734375</LongitudeDegrees>
            </Position>
            <AltitudeMeters>2.400000095367431640625</AltitudeMeters>
            <DistanceMeters>103647.30689584</DistanceMeters>
          </Trackpoint>
          <Trackpoint>
            <Time>2018-04-21T15:21:49.000Z</Time>
            <Position>
              <LatitudeDegrees>43.36169843561947345733642578125</LatitudeDegrees>
              <LongitudeDegrees>-8.40513654984533786773681640625</LongitudeDegrees>
            </Position>
            <AltitudeMeters>2</AltitudeMeters>
            <DistanceMeters>103673.0335251</DistanceMeters>
          </Trackpoint>
          <Trackpoint>
            <Time>2018-04-21T15:21:50.000Z</Time>
            <Position>
              <LatitudeDegrees>43.36175576783716678619384765625</LatitudeDegrees>
              <LongitudeDegrees>-8.40515700168907642364501953125</LongitudeDegrees>
            </Position>
            <AltitudeMeters>2.2000000476837158203125</AltitudeMeters>
            <DistanceMeters>103679.62607831</DistanceMeters>
          </Trackpoint>
          <Trackpoint>
            <Time>2018-04-21T15:21:53.000Z</Time>
            <Position>
              <LatitudeDegrees>43.361888118088245391845703125</LatitudeDegrees>
              <LongitudeDegrees>-8.40519522316753864288330078125</LongitudeDegrees>
            </Position>
            <AltitudeMeters>1.39999997615814208984375</AltitudeMeters>
            <DistanceMeters>103694.67814189</DistanceMeters>
          </Trackpoint>
          <Trackpoint>
            <Time>2018-04-21T15:21:55.000Z</Time>
            <Position>
              <LatitudeDegrees>43.3619325421750545501708984375</LatitudeDegrees>
              <LongitudeDegrees>-8.40520142577588558197021484375</LongitudeDegrees>
            </Position>
            <AltitudeMeters>1.2000000476837158203125</AltitudeMeters>
            <DistanceMeters>103699.64686698</DistanceMeters>
          </Trackpoint>
          <Trackpoint>
            <Time>2018-04-21T15:22:00.000Z</Time>
            <Position>
              <LatitudeDegrees>43.36194804869592189788818359375</LatitudeDegrees>
              <LongitudeDegrees>-8.4052043594419956207275390625</LongitudeDegrees>
            </Position>
            <AltitudeMeters>1</AltitudeMeters>
            <DistanceMeters>103701.38873543</DistanceMeters>
          </Trackpoint>
          <Trackpoint>
            <Time>2018-04-21T15:22:16.000Z</Time>
            <Position>
              <LatitudeDegrees>43.36194804869592189788818359375</LatitudeDegrees>
              <LongitudeDegrees>-8.4052043594419956207275390625</LongitudeDegrees>
            </Position>
            <AltitudeMeters>0.4000000059604644775390625</AltitudeMeters>
            <DistanceMeters>103701.38873543</DistanceMeters>
          </Trackpoint>
          <Trackpoint>
            <Time>2018-04-21T15:22:19.000Z</Time>
            <Position>
              <LatitudeDegrees>43.36199565790593624114990234375</LatitudeDegrees>
              <LongitudeDegrees>-8.40519287623465061187744140625</LongitudeDegrees>
            </Position>
            <AltitudeMeters>1.60000002384185791015625</AltitudeMeters>
            <DistanceMeters>103706.76845615</DistanceMeters>
          </Trackpoint>
          <Trackpoint>
            <Time>2018-04-21T15:22:23.000Z</Time>
            <Position>
              <LatitudeDegrees>43.362188525497913360595703125</LatitudeDegrees>
              <LongitudeDegrees>-8.40520092286169528961181640625</LongitudeDegrees>
            </Position>
            <AltitudeMeters>1.7999999523162841796875</AltitudeMeters>
            <DistanceMeters>103728.24491406</DistanceMeters>
          </Trackpoint>
          <Trackpoint>
            <Time>2018-04-21T15:22:26.000Z</Time>
            <Position>
              <LatitudeDegrees>43.36234702728688716888427734375</LatitudeDegrees>
              <LongitudeDegrees>-8.4052174352109432220458984375</LongitudeDegrees>
            </Position>
            <AltitudeMeters>1.60000002384185791015625</AltitudeMeters>
            <DistanceMeters>103745.93724488</DistanceMeters>
          </Trackpoint>
          <Trackpoint>
            <Time>2018-04-21T15:22:28.000Z</Time>
            <Position>
              <LatitudeDegrees>43.36245842278003692626953125</LatitudeDegrees>
              <LongitudeDegrees>-8.40523243881762027740478515625</LongitudeDegrees>
            </Position>
            <AltitudeMeters>2</AltitudeMeters>
            <DistanceMeters>103758.39517103</DistanceMeters>
          </Trackpoint>
          <Trackpoint>
            <Time>2018-04-21T15:22:31.000Z</Time>
            <Position>
              <LatitudeDegrees>43.362643159925937652587890625</LatitudeDegrees>
              <LongitudeDegrees>-8.40523277409374713897705078125</LongitudeDegrees>
            </Position>
            <AltitudeMeters>2.400000095367431640625</AltitudeMeters>
            <DistanceMeters>103778.95698464</DistanceMeters>
          </Trackpoint>
          <Trackpoint>
            <Time>2018-04-21T15:22:33.000Z</Time>
            <Position>
              <LatitudeDegrees>43.36276729591190814971923828125</LatitudeDegrees>
              <LongitudeDegrees>-8.4052397310733795166015625</LongitudeDegrees>
            </Position>
            <AltitudeMeters>2.7999999523162841796875</AltitudeMeters>
            <DistanceMeters>103792.78524913</DistanceMeters>
          </Trackpoint>
          <Trackpoint>
            <Time>2018-04-21T15:22:35.000Z</Time>
            <Position>
              <LatitudeDegrees>43.3628957904875278472900390625</LatitudeDegrees>
              <LongitudeDegrees>-8.40525037609040737152099609375</LongitudeDegrees>
            </Position>
            <AltitudeMeters>3.2000000476837158203125</AltitudeMeters>
            <DistanceMeters>103807.11255515</DistanceMeters>
          </Trackpoint>
          <Trackpoint>
            <Time>2018-04-21T15:22:39.000Z</Time>
            <Position>
              <LatitudeDegrees>43.36316275410354137420654296875</LatitudeDegrees>
              <LongitudeDegrees>-8.4052114002406597137451171875</LongitudeDegrees>
            </Position>
            <AltitudeMeters>3</AltitudeMeters>
            <DistanceMeters>103836.99313092</DistanceMeters>
          </Trackpoint>
          <Trackpoint>
            <Time>2018-04-21T15:22:41.000Z</Time>
            <Position>
              <LatitudeDegrees>43.363289572298526763916015625</LatitudeDegrees>
              <LongitudeDegrees>-8.4051708318293094635009765625</LongitudeDegrees>
            </Position>
            <AltitudeMeters>3.599999904632568359375</AltitudeMeters>
            <DistanceMeters>103851.48493853</DistanceMeters>
          </Trackpoint>
          <Trackpoint>
            <Time>2018-04-21T15:22:44.000Z</Time>
            <Position>
              <LatitudeDegrees>43.36347707547247409820556640625</LatitudeDegrees>
              <LongitudeDegrees>-8.40515180490911006927490234375</LongitudeDegrees>
            </Position>
            <AltitudeMeters>2.400000095367431640625</AltitudeMeters>
            <DistanceMeters>103872.41110701</DistanceMeters>
          </Trackpoint>
          <Trackpoint>
            <Time>2018-04-21T15:22:47.000Z</Time>
            <Position>
              <LatitudeDegrees>43.3636548556387424468994140625</LatitudeDegrees>
              <LongitudeDegrees>-8.40517175383865833282470703125</LongitudeDegrees>
            </Position>
            <AltitudeMeters>2.7999999523162841796875</AltitudeMeters>
            <DistanceMeters>103892.26418678</DistanceMeters>
          </Trackpoint>
          <Trackpoint>
            <Time>2018-04-21T15:22:54.000Z</Time>
            <Position>
              <LatitudeDegrees>43.364070765674114227294921875</LatitudeDegrees>
              <LongitudeDegrees>-8.40509916655719280242919921875</LongitudeDegrees>
            </Position>
            <AltitudeMeters>3.2000000476837158203125</AltitudeMeters>
            <DistanceMeters>103938.92685144</DistanceMeters>
          </Trackpoint>
          <Trackpoint>
            <Time>2018-04-21T15:23:00.000Z</Time>
            <Position>
              <LatitudeDegrees>43.36442640982568264007568359375</LatitudeDegrees>
              <LongitudeDegrees>-8.4050266630947589874267578125</LongitudeDegrees>
            </Position>
            <AltitudeMeters>4.19999980926513671875</AltitudeMeters>
            <DistanceMeters>103978.94325415</DistanceMeters>
          </Trackpoint>
          <Trackpoint>
            <Time>2018-04-21T15:23:03.000Z</Time>
            <Position>
              <LatitudeDegrees>43.36459924466907978057861328125</LatitudeDegrees>
              <LongitudeDegrees>-8.4049876034259796142578125</LongitudeDegrees>
            </Position>
            <AltitudeMeters>3.599999904632568359375</AltitudeMeters>
            <DistanceMeters>103998.43786359</DistanceMeters>
          </Trackpoint>
          <Trackpoint>
            <Time>2018-04-21T15:23:04.000Z</Time>
            <Position>
              <LatitudeDegrees>43.364656828343868255615234375</LatitudeDegrees>
              <LongitudeDegrees>-8.4049783833324909210205078125</LongitudeDegrees>
            </Position>
            <AltitudeMeters>3.2000000476837158203125</AltitudeMeters>
            <DistanceMeters>104004.88989059</DistanceMeters>
          </Trackpoint>
          <Trackpoint>
            <Time>2018-04-21T15:23:09.000Z</Time>
            <Position>
              <LatitudeDegrees>43.3649352751672267913818359375</LatitudeDegrees>
              <LongitudeDegrees>-8.4049178659915924072265625</LongitudeDegrees>
            </Position>
            <AltitudeMeters>2.7999999523162841796875</AltitudeMeters>
            <DistanceMeters>104036.26597916</DistanceMeters>
          </Trackpoint>
          <Trackpoint>
            <Time>2018-04-21T15:23:26.000Z</Time>
            <Position>
              <LatitudeDegrees>43.36503091268241405487060546875</LatitudeDegrees>
              <LongitudeDegrees>-8.404664061963558197021484375</LongitudeDegrees>
            </Position>
            <AltitudeMeters>1.39999997615814208984375</AltitudeMeters>
            <DistanceMeters>104059.39751931</DistanceMeters>
          </Trackpoint>
          <Trackpoint>
            <Time>2018-04-21T15:23:27.000Z</Time>
            <Position>
              <LatitudeDegrees>43.3650328405201435089111328125</LatitudeDegrees>
              <LongitudeDegrees>-8.4046119265258312225341796875</LongitudeDegrees>
            </Position>
            <AltitudeMeters>1.39999997615814208984375</AltitudeMeters>
            <DistanceMeters>104063.62273659</DistanceMeters>
          </Trackpoint>
          <Trackpoint>
            <Time>2018-04-21T15:23:29.000Z</Time>
            <Position>
              <LatitudeDegrees>43.36503862403333187103271484375</LatitudeDegrees>
              <LongitudeDegrees>-8.4044949151575565338134765625</LongitudeDegrees>
            </Position>
            <AltitudeMeters>1.60000002384185791015625</AltitudeMeters>
            <DistanceMeters>104073.11304652</DistanceMeters>
          </Trackpoint>
          <Trackpoint>
            <Time>2018-04-21T15:23:34.000Z</Time>
            <Position>
              <LatitudeDegrees>43.36505605839192867279052734375</LatitudeDegrees>
              <LongitudeDegrees>-8.4040949307382106781005859375</LongitudeDegrees>
            </Position>
            <AltitudeMeters>1.39999997615814208984375</AltitudeMeters>
            <DistanceMeters>104105.53623944</DistanceMeters>
          </Trackpoint>
          <Trackpoint>
            <Time>2018-04-21T15:23:37.000Z</Time>
            <Position>
              <LatitudeDegrees>43.36508455686271190643310546875</LatitudeDegrees>
              <LongitudeDegrees>-8.40383048169314861297607421875</LongitudeDegrees>
            </Position>
            <AltitudeMeters>2</AltitudeMeters>
            <DistanceMeters>104127.16812705</DistanceMeters>
          </Trackpoint>
          <Trackpoint>
            <Time>2018-04-21T15:23:39.000Z</Time>
            <Position>
              <LatitudeDegrees>43.365147002041339874267578125</LatitudeDegrees>
              <LongitudeDegrees>-8.4036842174828052520751953125</LongitudeDegrees>
            </Position>
            <AltitudeMeters>2.400000095367431640625</AltitudeMeters>
            <DistanceMeters>104140.89315618</DistanceMeters>
          </Trackpoint>
          <Trackpoint>
            <Time>2018-04-21T15:23:42.000Z</Time>
            <Position>
              <LatitudeDegrees>43.3653070963919162750244140625</LatitudeDegrees>
              <LongitudeDegrees>-8.40354801155626773834228515625</LongitudeDegrees>
            </Position>
            <AltitudeMeters>3</AltitudeMeters>
            <DistanceMeters>104161.84498441</DistanceMeters>
          </Trackpoint>
          <Trackpoint>
            <Time>2018-04-21T15:23:44.000Z</Time>
            <Position>
              <LatitudeDegrees>43.36544346995651721954345703125</LatitudeDegrees>
              <LongitudeDegrees>-8.403518758714199066162109375</LongitudeDegrees>
            </Position>
            <AltitudeMeters>3.599999904632568359375</AltitudeMeters>
            <DistanceMeters>104177.2070161</DistanceMeters>
          </Trackpoint>
          <Trackpoint>
            <Time>2018-04-21T15:23:45.000Z</Time>
            <Position>
              <LatitudeDegrees>43.36550784297287464141845703125</LatitudeDegrees>
              <LongitudeDegrees>-8.403513394296169281005859375</LongitudeDegrees>
            </Position>
            <AltitudeMeters>3.7999999523162841796875</AltitudeMeters>
            <DistanceMeters>104184.38452167</DistanceMeters>
          </Trackpoint>
          <Trackpoint>
            <Time>2018-04-21T15:23:46.000Z</Time>
            <Position>
              <LatitudeDegrees>43.36557808332145214080810546875</LatitudeDegrees>
              <LongitudeDegrees>-8.4035075269639492034912109375</LongitudeDegrees>
            </Position>
            <AltitudeMeters>2.7999999523162841796875</AltitudeMeters>
            <DistanceMeters>104192.21659095</DistanceMeters>
          </Trackpoint>
          <Trackpoint>
            <Time>2018-04-21T15:23:50.000Z</Time>
            <Position>
              <LatitudeDegrees>43.3658639900386333465576171875</LatitudeDegrees>
              <LongitudeDegrees>-8.40349252335727214813232421875</LongitudeDegrees>
            </Position>
            <AltitudeMeters>2</AltitudeMeters>
            <DistanceMeters>104224.06174294</DistanceMeters>
          </Trackpoint>
          <Trackpoint>
            <Time>2018-04-21T15:23:53.000Z</Time>
            <Position>
              <LatitudeDegrees>43.3660866133868694305419921875</LatitudeDegrees>
              <LongitudeDegrees>-8.4034560620784759521484375</LongitudeDegrees>
            </Position>
            <AltitudeMeters>1.60000002384185791015625</AltitudeMeters>
            <DistanceMeters>104249.01525875</DistanceMeters>
          </Trackpoint>
          <Trackpoint>
            <Time>2018-04-21T15:23:55.000Z</Time>
            <Position>
              <LatitudeDegrees>43.36621527560055255889892578125</LatitudeDegrees>
              <LongitudeDegrees>-8.40340082533657550811767578125</LongitudeDegrees>
            </Position>
            <AltitudeMeters>1.39999997615814208984375</AltitudeMeters>
            <DistanceMeters>104264.01684417</DistanceMeters>
          </Trackpoint>
          <Trackpoint>
            <Time>2018-04-21T15:23:57.000Z</Time>
            <Position>
              <LatitudeDegrees>43.3663534931838512420654296875</LatitudeDegrees>
              <LongitudeDegrees>-8.40331583283841609954833984375</LongitudeDegrees>
            </Position>
            <AltitudeMeters>1.39999997615814208984375</AltitudeMeters>
            <DistanceMeters>104280.86795048</DistanceMeters>
          </Trackpoint>
          <Trackpoint>
            <Time>2018-04-21T15:24:00.000Z</Time>
            <Position>
              <LatitudeDegrees>43.36653227917850017547607421875</LatitudeDegrees>
              <LongitudeDegrees>-8.40314718894660472869873046875</LongitudeDegrees>
            </Position>
            <AltitudeMeters>1.7999999523162841796875</AltitudeMeters>
            <DistanceMeters>104304.99650386</DistanceMeters>
          </Trackpoint>
          <Trackpoint>
            <Time>2018-04-21T15:24:01.000Z</Time>
            <Position>
              <LatitudeDegrees>43.36658357642590999603271484375</LatitudeDegrees>
              <LongitudeDegrees>-8.4030847437679767608642578125</LongitudeDegrees>
            </Position>
            <AltitudeMeters>1.7999999523162841796875</AltitudeMeters>
            <DistanceMeters>104312.62117646</DistanceMeters>
          </Trackpoint>
          <Trackpoint>
            <Time>2018-04-21T15:24:04.000Z</Time>
            <Position>
              <LatitudeDegrees>43.36671240627765655517578125</LatitudeDegrees>
              <LongitudeDegrees>-8.40292942710220813751220703125</LongitudeDegrees>
            </Position>
            <AltitudeMeters>1.39999997615814208984375</AltitudeMeters>
            <DistanceMeters>104331.68794985</DistanceMeters>
          </Trackpoint>
          <Trackpoint>
            <Time>2018-04-21T15:24:05.000Z</Time>
            <Position>
              <LatitudeDegrees>43.3667477779090404510498046875</LatitudeDegrees>
              <LongitudeDegrees>-8.40288165025413036346435546875</LongitudeDegrees>
            </Position>
            <AltitudeMeters>1.39999997615814208984375</AltitudeMeters>
            <DistanceMeters>104337.20523067</DistanceMeters>
          </Trackpoint>
          <Trackpoint>
            <Time>2018-04-21T15:24:11.000Z</Time>
            <Position>
              <LatitudeDegrees>43.366984315216541290283203125</LatitudeDegrees>
              <LongitudeDegrees>-8.40252994559705257415771484375</LongitudeDegrees>
            </Position>
            <AltitudeMeters>2.2000000476837158203125</AltitudeMeters>
            <DistanceMeters>104375.97310221</DistanceMeters>
          </Trackpoint>
          <Trackpoint>
            <Time>2018-04-21T15:24:18.000Z</Time>
            <Position>
              <LatitudeDegrees>43.36725890636444091796875</LatitudeDegrees>
              <LongitudeDegrees>-8.40215845964848995208740234375</LongitudeDegrees>
            </Position>
            <AltitudeMeters>1.7999999523162841796875</AltitudeMeters>
            <DistanceMeters>104418.83973627</DistanceMeters>
          </Trackpoint>
          <Trackpoint>
            <Time>2018-04-21T15:24:22.000Z</Time>
            <Position>
              <LatitudeDegrees>43.36741288192570209503173828125</LatitudeDegrees>
              <LongitudeDegrees>-8.40195025317370891571044921875</LongitudeDegrees>
            </Position>
            <AltitudeMeters>2</AltitudeMeters>
            <DistanceMeters>104442.87116379</DistanceMeters>
          </Trackpoint>
          <Trackpoint>
            <Time>2018-04-21T15:24:24.000Z</Time>
            <Position>
              <LatitudeDegrees>43.36747658438980579376220703125</LatitudeDegrees>
              <LongitudeDegrees>-8.40183542110025882720947265625</LongitudeDegrees>
            </Position>
            <AltitudeMeters>2</AltitudeMeters>
            <DistanceMeters>104454.55829074</DistanceMeters>
          </Trackpoint>
          <Trackpoint>
            <Time>2018-04-21T15:24:28.000Z</Time>
            <Position>
              <LatitudeDegrees>43.36759057827293872833251953125</LatitudeDegrees>
              <LongitudeDegrees>-8.40168773196637630462646484375</LongitudeDegrees>
            </Position>
            <AltitudeMeters>2</AltitudeMeters>
            <DistanceMeters>104471.98759944</DistanceMeters>
          </Trackpoint>
          <Trackpoint>
            <Time>2018-04-21T15:24:29.000Z</Time>
            <Position>
              <LatitudeDegrees>43.36760918609797954559326171875</LatitudeDegrees>
              <LongitudeDegrees>-8.40165940113365650177001953125</LongitudeDegrees>
            </Position>
            <AltitudeMeters>2</AltitudeMeters>
            <DistanceMeters>104475.07560214</DistanceMeters>
          </Trackpoint>
          <Trackpoint>
            <Time>2018-04-21T15:24:31.000Z</Time>
            <Position>
              <LatitudeDegrees>43.3676188252866268157958984375</LatitudeDegrees>
              <LongitudeDegrees>-8.40159536339342594146728515625</LongitudeDegrees>
            </Position>
            <AltitudeMeters>1.39999997615814208984375</AltitudeMeters>
            <DistanceMeters>104480.36646568</DistanceMeters>
          </Trackpoint>
          <Trackpoint>
            <Time>2018-04-21T15:24:33.000Z</Time>
            <Position>
              <LatitudeDegrees>43.36760851554572582244873046875</LatitudeDegrees>
              <LongitudeDegrees>-8.40153719298541545867919921875</LongitudeDegrees>
            </Position>
            <AltitudeMeters>1.39999997615814208984375</AltitudeMeters>
            <DistanceMeters>104485.21003241</DistanceMeters>
          </Trackpoint>
          <Trackpoint>
            <Time>2018-04-21T15:24:37.000Z</Time>
            <Position>
              <LatitudeDegrees>43.3676277101039886474609375</LatitudeDegrees>
              <LongitudeDegrees>-8.40135748498141765594482421875</LongitudeDegrees>
            </Position>
            <AltitudeMeters>2.2000000476837158203125</AltitudeMeters>
            <DistanceMeters>104499.90695142</DistanceMeters>
          </Trackpoint>
          <Trackpoint>
            <Time>2018-04-21T15:24:43.000Z</Time>
            <Position>
              <LatitudeDegrees>43.3677737228572368621826171875</LatitudeDegrees>
              <LongitudeDegrees>-8.40104919858276844024658203125</LongitudeDegrees>
            </Position>
            <AltitudeMeters>1.39999997615814208984375</AltitudeMeters>
            <DistanceMeters>104529.67838275</DistanceMeters>
          </Trackpoint>
          <Trackpoint>
            <Time>2018-04-21T15:24:49.000Z</Time>
            <Position>
              <LatitudeDegrees>43.36793926544487476348876953125</LatitudeDegrees>
              <LongitudeDegrees>-8.40072230435907840728759765625</LongitudeDegrees>
            </Position>
            <AltitudeMeters>1.39999997615814208984375</AltitudeMeters>
            <DistanceMeters>104561.91317554</DistanceMeters>
          </Trackpoint>
          <Trackpoint>
            <Time>2018-04-21T15:24:51.000Z</Time>
            <Position>
              <LatitudeDegrees>43.3679973520338535308837890625</LatitudeDegrees>
              <LongitudeDegrees>-8.40060328133404254913330078125</LongitudeDegrees>
            </Position>
            <AltitudeMeters>1.60000002384185791015625</AltitudeMeters>
            <DistanceMeters>104573.51266428</DistanceMeters>
          </Trackpoint>
          <Trackpoint>
            <Time>2018-04-21T15:24:58.000Z</Time>
            <Position>
              <LatitudeDegrees>43.36822207085788249969482421875</LatitudeDegrees>
              <LongitudeDegrees>-8.40019105933606624603271484375</LongitudeDegrees>
            </Position>
            <AltitudeMeters>2.400000095367431640625</AltitudeMeters>
            <DistanceMeters>104615.20254199</DistanceMeters>
          </Trackpoint>
          <Trackpoint>
            <Time>2018-04-21T15:25:06.000Z</Time>
            <Position>
              <LatitudeDegrees>43.3684902079403400421142578125</LatitudeDegrees>
              <LongitudeDegrees>-8.399710021913051605224609375</LongitudeDegrees>
            </Position>
            <AltitudeMeters>2.2000000476837158203125</AltitudeMeters>
            <DistanceMeters>104664.24903202</DistanceMeters>
          </Trackpoint>
          <Trackpoint>
            <Time>2018-04-21T15:25:11.000Z</Time>
            <Position>
              <LatitudeDegrees>43.36864837445318698883056640625</LatitudeDegrees>
              <LongitudeDegrees>-8.39940936304628849029541015625</LongitudeDegrees>
            </Position>
            <AltitudeMeters>3.2000000476837158203125</AltitudeMeters>
            <DistanceMeters>104694.27717304</DistanceMeters>
          </Trackpoint>
          <Trackpoint>
            <Time>2018-04-21T15:25:13.000Z</Time>
            <Position>
              <LatitudeDegrees>43.3687071315944194793701171875</LatitudeDegrees>
              <LongitudeDegrees>-8.3992890827357769012451171875</LongitudeDegrees>
            </Position>
            <AltitudeMeters>3</AltitudeMeters>
            <DistanceMeters>104706.00209879</DistanceMeters>
          </Trackpoint>
          <Trackpoint>
            <Time>2018-04-21T15:25:19.000Z</Time>
            <Position>
              <LatitudeDegrees>43.36886311881244182586669921875</LatitudeDegrees>
              <LongitudeDegrees>-8.39892807416617870330810546875</LongitudeDegrees>
            </Position>
            <AltitudeMeters>3</AltitudeMeters>
            <DistanceMeters>104739.98182354</DistanceMeters>
          </Trackpoint>
          <Trackpoint>
            <Time>2018-04-21T15:25:21.000Z</Time>
            <Position>
              <LatitudeDegrees>43.36890184320509433746337890625</LatitudeDegrees>
              <LongitudeDegrees>-8.39881424792110919952392578125</LongitudeDegrees>
            </Position>
            <AltitudeMeters>2.2000000476837158203125</AltitudeMeters>
            <DistanceMeters>104750.15012602</DistanceMeters>
          </Trackpoint>
          <Trackpoint>
            <Time>2018-04-21T15:25:23.000Z</Time>
            <Position>
              <LatitudeDegrees>43.36895431391894817352294921875</LatitudeDegrees>
              <LongitudeDegrees>-8.398718945682048797607421875</LongitudeDegrees>
            </Position>
            <AltitudeMeters>2</AltitudeMeters>
            <DistanceMeters>104759.82280001</DistanceMeters>
          </Trackpoint>
          <Trackpoint>
            <Time>2018-04-21T15:25:26.000Z</Time>
            <Position>
              <LatitudeDegrees>43.369067050516605377197265625</LatitudeDegrees>
              <LongitudeDegrees>-8.39862280525267124176025390625</LongitudeDegrees>
            </Position>
            <AltitudeMeters>1.7999999523162841796875</AltitudeMeters>
            <DistanceMeters>104774.58623305</DistanceMeters>
          </Trackpoint>
          <Trackpoint>
            <Time>2018-04-21T15:25:27.000Z</Time>
            <Position>
              <LatitudeDegrees>43.36910485289990901947021484375</LatitudeDegrees>
              <LongitudeDegrees>-8.398592881858348846435546875</LongitudeDegrees>
            </Position>
            <AltitudeMeters>1.7999999523162841796875</AltitudeMeters>
            <DistanceMeters>104779.44004283</DistanceMeters>
          </Trackpoint>
          <Trackpoint>
            <Time>2018-04-21T15:25:32.000Z</Time>
            <Position>
              <LatitudeDegrees>43.36931708268821239471435546875</LatitudeDegrees>
              <LongitudeDegrees>-8.3984653092920780181884765625</LongitudeDegrees>
            </Position>
            <AltitudeMeters>3.599999904632568359375</AltitudeMeters>
            <DistanceMeters>104805.21856792</DistanceMeters>
          </Trackpoint>
          <Trackpoint>
            <Time>2018-04-21T15:25:33.000Z</Time>
            <Position>
              <LatitudeDegrees>43.36936150677502155303955078125</LatitudeDegrees>
              <LongitudeDegrees>-8.398436643183231353759765625</LongitudeDegrees>
            </Position>
            <AltitudeMeters>2.599999904632568359375</AltitudeMeters>
            <DistanceMeters>104810.68074446</DistanceMeters>
          </Trackpoint>
          <Trackpoint>
            <Time>2018-04-21T15:25:34.000Z</Time>
            <Position>
              <LatitudeDegrees>43.3694058470427989959716796875</LatitudeDegrees>
              <LongitudeDegrees>-8.39840521104633808135986328125</LongitudeDegrees>
            </Position>
            <AltitudeMeters>3.7999999523162841796875</AltitudeMeters>
            <DistanceMeters>104816.23228937</DistanceMeters>
          </Trackpoint>
          <Trackpoint>
            <Time>2018-04-21T15:25:39.000Z</Time>
            <Position>
              <LatitudeDegrees>43.36963945068418979644775390625</LatitudeDegrees>
              <LongitudeDegrees>-8.3983409218490123748779296875</LongitudeDegrees>
            </Position>
            <AltitudeMeters>2.400000095367431640625</AltitudeMeters>
            <DistanceMeters>104842.74797816</DistanceMeters>
          </Trackpoint>
          <Trackpoint>
            <Time>2018-04-21T15:25:41.000Z</Time>
            <Position>
              <LatitudeDegrees>43.36973215453326702117919921875</LatitudeDegrees>
              <LongitudeDegrees>-8.39829842559993267059326171875</LongitudeDegrees>
            </Position>
            <AltitudeMeters>2.2000000476837158203125</AltitudeMeters>
            <DistanceMeters>104853.62386761</DistanceMeters>
          </Trackpoint>
          <Trackpoint>
            <Time>2018-04-21T15:25:43.000Z</Time>
            <Position>
              <LatitudeDegrees>43.36977683007717132568359375</LatitudeDegrees>
              <LongitudeDegrees>-8.39818443171679973602294921875</LongitudeDegrees>
            </Position>
            <AltitudeMeters>1.60000002384185791015625</AltitudeMeters>
            <DistanceMeters>104864.10182874</DistanceMeters>
          </Trackpoint>
          <Trackpoint>
            <Time>2018-04-21T15:25:44.000Z</Time>
            <Position>
              <LatitudeDegrees>43.3697783388197422027587890625</LatitudeDegrees>
              <LongitudeDegrees>-8.3981219865381717681884765625</LongitudeDegrees>
            </Position>
            <AltitudeMeters>1.39999997615814208984375</AltitudeMeters>
            <DistanceMeters>104869.15703559</DistanceMeters>
          </Trackpoint>
          <Trackpoint>
            <Time>2018-04-21T15:25:46.000Z</Time>
            <Position>
              <LatitudeDegrees>43.36975981481373310089111328125</LatitudeDegrees>
              <LongitudeDegrees>-8.39799969457089900970458984375</LongitudeDegrees>
            </Position>
            <AltitudeMeters>1.7999999523162841796875</AltitudeMeters>
            <DistanceMeters>104879.26476951</DistanceMeters>
          </Trackpoint>
          <Trackpoint>
            <Time>2018-04-21T15:25:53.000Z</Time>
            <Position>
              <LatitudeDegrees>43.36974154226481914520263671875</LatitudeDegrees>
              <LongitudeDegrees>-8.39751698076725006103515625</LongitudeDegrees>
            </Position>
            <AltitudeMeters>1.7999999523162841796875</AltitudeMeters>
            <DistanceMeters>104918.37389093</DistanceMeters>
          </Trackpoint>
          <Trackpoint>
            <Time>2018-04-21T15:25:57.000Z</Time>
            <Position>
              <LatitudeDegrees>43.3697386085987091064453125</LatitudeDegrees>
              <LongitudeDegrees>-8.3972271345555782318115234375</LongitudeDegrees>
            </Position>
            <AltitudeMeters>1.7999999523162841796875</AltitudeMeters>
            <DistanceMeters>104941.82759291</DistanceMeters>
          </Trackpoint>
          <Trackpoint>
            <Time>2018-04-21T15:25:59.000Z</Time>
            <Position>
              <LatitudeDegrees>43.369714803993701934814453125</LatitudeDegrees>
              <LongitudeDegrees>-8.39707978069782257080078125</LongitudeDegrees>
            </Position>
            <AltitudeMeters>1.7999999523162841796875</AltitudeMeters>
            <DistanceMeters>104954.0406516</DistanceMeters>
          </Trackpoint>
          <Trackpoint>
            <Time>2018-04-21T15:26:04.000Z</Time>
            <Position>
              <LatitudeDegrees>43.36968370713293552398681640625</LatitudeDegrees>
              <LongitudeDegrees>-8.39669714681804180145263671875</LongitudeDegrees>
            </Position>
            <AltitudeMeters>2.599999904632568359375</AltitudeMeters>
            <DistanceMeters>104985.19231601</DistanceMeters>
          </Trackpoint>
          <Trackpoint>
            <Time>2018-04-21T15:26:07.000Z</Time>
            <Position>
              <LatitudeDegrees>43.3696780912578105926513671875</LatitudeDegrees>
              <LongitudeDegrees>-8.39647217653691768646240234375</LongitudeDegrees>
            </Position>
            <AltitudeMeters>1.60000002384185791015625</AltitudeMeters>
            <DistanceMeters>105003.40524625</DistanceMeters>
          </Trackpoint>
          <Trackpoint>
            <Time>2018-04-21T15:26:08.000Z</Time>
            <Position>
              <LatitudeDegrees>43.36968404240906238555908203125</LatitudeDegrees>
              <LongitudeDegrees>-8.39639824815094470977783203125</LongitudeDegrees>
            </Position>
            <AltitudeMeters>1.39999997615814208984375</AltitudeMeters>
            <DistanceMeters>105009.42352147</DistanceMeters>
          </Trackpoint>
          <Trackpoint>
            <Time>2018-04-21T15:26:10.000Z</Time>
            <Position>
              <LatitudeDegrees>43.36968898773193359375</LatitudeDegrees>
              <LongitudeDegrees>-8.39626430533826351165771484375</LongitudeDegrees>
            </Position>
            <AltitudeMeters>1.60000002384185791015625</AltitudeMeters>
            <DistanceMeters>105020.2748899</DistanceMeters>
          </Trackpoint>
          <Trackpoint>
            <Time>2018-04-21T15:26:11.000Z</Time>
            <Position>
              <LatitudeDegrees>43.3696690388023853302001953125</LatitudeDegrees>
              <LongitudeDegrees>-8.39620579965412616729736328125</LongitudeDegrees>
            </Position>
            <AltitudeMeters>1.60000002384185791015625</AltitudeMeters>
            <DistanceMeters>105025.50395019</DistanceMeters>
          </Trackpoint>
          <Trackpoint>
            <Time>2018-04-21T15:26:15.000Z</Time>
            <Position>
              <LatitudeDegrees>43.369639031589031219482421875</LatitudeDegrees>
              <LongitudeDegrees>-8.39599080383777618408203125</LongitudeDegrees>
            </Position>
            <AltitudeMeters>1.39999997615814208984375</AltitudeMeters>
            <DistanceMeters>105043.21693994</DistanceMeters>
          </Trackpoint>
          <Trackpoint>
            <Time>2018-04-21T15:26:16.000Z</Time>
            <Position>
              <LatitudeDegrees>43.36966208182275295257568359375</LatitudeDegrees>
              <LongitudeDegrees>-8.395958952605724334716796875</LongitudeDegrees>
            </Position>
            <AltitudeMeters>1.39999997615814208984375</AltitudeMeters>
            <DistanceMeters>105046.85411769</DistanceMeters>
          </Trackpoint>
          <Trackpoint>
            <Time>2018-04-21T15:26:18.000Z</Time>
            <Position>
              <LatitudeDegrees>43.3697015605866909027099609375</LatitudeDegrees>
              <LongitudeDegrees>-8.39588477276265621185302734375</LongitudeDegrees>
            </Position>
            <AltitudeMeters>1.39999997615814208984375</AltitudeMeters>
            <DistanceMeters>105054.29174153</DistanceMeters>
          </Trackpoint>
          <Trackpoint>
            <Time>2018-04-21T15:26:21.000Z</Time>
            <Position>
              <LatitudeDegrees>43.36964481510221958160400390625</LatitudeDegrees>
              <LongitudeDegrees>-8.39573808945715427398681640625</LongitudeDegrees>
            </Position>
            <AltitudeMeters>1.39999997615814208984375</AltitudeMeters>
            <DistanceMeters>105067.73525111</DistanceMeters>
          </Trackpoint>
          <Trackpoint>
            <Time>2018-04-21T15:26:24.000Z</Time>
            <Position>
              <LatitudeDegrees>43.3695186674594879150390625</LatitudeDegrees>
              <LongitudeDegrees>-8.39566281996667385101318359375</LongitudeDegrees>
            </Position>
            <AltitudeMeters>1.39999997615814208984375</AltitudeMeters>
            <DistanceMeters>105083.03956824</DistanceMeters>
          </Trackpoint>
          <Trackpoint>
            <Time>2018-04-21T15:26:27.000Z</Time>
            <Position>
              <LatitudeDegrees>43.36938480846583843231201171875</LatitudeDegrees>
              <LongitudeDegrees>-8.3956040628254413604736328125</LongitudeDegrees>
            </Position>
            <AltitudeMeters>1.39999997615814208984375</AltitudeMeters>
            <DistanceMeters>105098.67860979</DistanceMeters>
          </Trackpoint>
          <Trackpoint>
            <Time>2018-04-21T15:26:29.000Z</Time>
            <Position>
              <LatitudeDegrees>43.36928891949355602264404296875</LatitudeDegrees>
              <LongitudeDegrees>-8.39556961320340633392333984375</LongitudeDegrees>
            </Position>
            <AltitudeMeters>1.39999997615814208984375</AltitudeMeters>
            <DistanceMeters>105109.70907895</DistanceMeters>
          </Trackpoint>
          <Trackpoint>
            <Time>2018-04-21T15:26:30.000Z</Time>
            <Position>
              <LatitudeDegrees>43.3692422322928905487060546875</LatitudeDegrees>
              <LongitudeDegrees>-8.3955395221710205078125</LongitudeDegrees>
            </Position>
            <AltitudeMeters>1.39999997615814208984375</AltitudeMeters>
            <DistanceMeters>105115.44620616</DistanceMeters>
          </Trackpoint>
          <Trackpoint>
            <Time>2018-04-21T15:26:32.000Z</Time>
            <Position>
              <LatitudeDegrees>43.36914382874965667724609375</LatitudeDegrees>
              <LongitudeDegrees>-8.395493589341640472412109375</LongitudeDegrees>
            </Position>
            <AltitudeMeters>1.39999997615814208984375</AltitudeMeters>
            <DistanceMeters>105127.01139065</DistanceMeters>
          </Trackpoint>
          <Trackpoint>
            <Time>2018-04-21T15:26:34.000Z</Time>
            <Position>
              <LatitudeDegrees>43.36904047988355159759521484375</LatitudeDegrees>
              <LongitudeDegrees>-8.39546768926084041595458984375</LongitudeDegrees>
            </Position>
            <AltitudeMeters>1.39999997615814208984375</AltitudeMeters>
            <DistanceMeters>105138.70353876</DistanceMeters>
          </Trackpoint>
          <Trackpoint>
            <Time>2018-04-21T15:26:36.000Z</Time>
            <Position>
              <LatitudeDegrees>43.3689401485025882720947265625</LatitudeDegrees>
              <LongitudeDegrees>-8.395421504974365234375</LongitudeDegrees>
            </Position>
            <AltitudeMeters>1.60000002384185791015625</AltitudeMeters>
            <DistanceMeters>105150.47880197</DistanceMeters>
          </Trackpoint>
          <Trackpoint>
            <Time>2018-04-21T15:26:39.000Z</Time>
            <Position>
              <LatitudeDegrees>43.36881098337471485137939453125</LatitudeDegrees>
              <LongitudeDegrees>-8.3953076787292957305908203125</LongitudeDegrees>
            </Position>
            <AltitudeMeters>1.7999999523162841796875</AltitudeMeters>
            <DistanceMeters>105167.55190561</DistanceMeters>
          </Trackpoint>
          <Trackpoint>
            <Time>2018-04-21T15:26:44.000Z</Time>
            <Position>
              <LatitudeDegrees>43.3686005137860774993896484375</LatitudeDegrees>
              <LongitudeDegrees>-8.3951464109122753143310546875</LongitudeDegrees>
            </Position>
            <AltitudeMeters>1.7999999523162841796875</AltitudeMeters>
            <DistanceMeters>105194.36661923</DistanceMeters>
          </Trackpoint>
          <Trackpoint>
            <Time>2018-04-21T15:26:50.000Z</Time>
            <Position>
              <LatitudeDegrees>43.3683292753994464874267578125</LatitudeDegrees>
              <LongitudeDegrees>-8.39489872567355632781982421875</LongitudeDegrees>
            </Position>
            <AltitudeMeters>1.7999999523162841796875</AltitudeMeters>
            <DistanceMeters>105230.60233774</DistanceMeters>
          </Trackpoint>
          <Trackpoint>
            <Time>2018-04-21T15:26:53.000Z</Time>
            <Position>
              <LatitudeDegrees>43.36820614524185657501220703125</LatitudeDegrees>
              <LongitudeDegrees>-8.3947377093136310577392578125</LongitudeDegrees>
            </Position>
            <AltitudeMeters>1.60000002384185791015625</AltitudeMeters>
            <DistanceMeters>105249.51122128</DistanceMeters>
          </Trackpoint>
          <Trackpoint>
            <Time>2018-04-21T15:26:55.000Z</Time>
            <Position>
              <LatitudeDegrees>43.3681542612612247467041015625</LatitudeDegrees>
              <LongitudeDegrees>-8.3946015872061252593994140625</LongitudeDegrees>
            </Position>
            <AltitudeMeters>1.7999999523162841796875</AltitudeMeters>
            <DistanceMeters>105261.94738303</DistanceMeters>
          </Trackpoint>
          <Trackpoint>
            <Time>2018-04-21T15:26:58.000Z</Time>
            <Position>
              <LatitudeDegrees>43.36809097789227962493896484375</LatitudeDegrees>
              <LongitudeDegrees>-8.39439262636005878448486328125</LongitudeDegrees>
            </Position>
            <AltitudeMeters>1.60000002384185791015625</AltitudeMeters>
            <DistanceMeters>105280.26315056</DistanceMeters>
          </Trackpoint>
          <Trackpoint>
            <Time>2018-04-21T15:27:01.000Z</Time>
            <Position>
              <LatitudeDegrees>43.36804454214870929718017578125</LatitudeDegrees>
              <LongitudeDegrees>-8.39417788200080394744873046875</LongitudeDegrees>
            </Position>
            <AltitudeMeters>1.39999997615814208984375</AltitudeMeters>
            <DistanceMeters>105298.39109975</DistanceMeters>
          </Trackpoint>
          <Trackpoint>
            <Time>2018-04-21T15:27:07.000Z</Time>
            <Position>
              <LatitudeDegrees>43.36798888631165027618408203125</LatitudeDegrees>
              <LongitudeDegrees>-8.39373799972236156463623046875</LongitudeDegrees>
            </Position>
            <AltitudeMeters>1.60000002384185791015625</AltitudeMeters>
            <DistanceMeters>105334.51787706</DistanceMeters>
          </Trackpoint>
          <Trackpoint>
            <Time>2018-04-21T15:27:11.000Z</Time>
            <Position>
              <LatitudeDegrees>43.3680204860866069793701171875</LatitudeDegrees>
              <LongitudeDegrees>-8.39344932697713375091552734375</LongitudeDegrees>
            </Position>
            <AltitudeMeters>1.39999997615814208984375</AltitudeMeters>
            <DistanceMeters>105358.13846772</DistanceMeters>
          </Trackpoint>
          <Trackpoint>
            <Time>2018-04-21T15:27:12.000Z</Time>
            <Position>
              <LatitudeDegrees>43.36801369674503803253173828125</LatitudeDegrees>
              <LongitudeDegrees>-8.393379338085651397705078125</LongitudeDegrees>
            </Position>
            <AltitudeMeters>1.2000000476837158203125</AltitudeMeters>
            <DistanceMeters>105363.85114627</DistanceMeters>
          </Trackpoint>
          <Trackpoint>
            <Time>2018-04-21T15:27:15.000Z</Time>
            <Position>
              <LatitudeDegrees>43.3679708652198314666748046875</LatitudeDegrees>
              <LongitudeDegrees>-8.39317582547664642333984375</LongitudeDegrees>
            </Position>
            <AltitudeMeters>1.39999997615814208984375</AltitudeMeters>
            <DistanceMeters>105380.99366002</DistanceMeters>
          </Trackpoint>
          <Trackpoint>
            <Time>2018-04-21T15:27:16.000Z</Time>
            <Position>
              <LatitudeDegrees>43.36796474643051624298095703125</LatitudeDegrees>
              <LongitudeDegrees>-8.39310298673808574676513671875</LongitudeDegrees>
            </Position>
            <AltitudeMeters>1.39999997615814208984375</AltitudeMeters>
            <DistanceMeters>105386.92579353</DistanceMeters>
          </Trackpoint>
          <Trackpoint>
            <Time>2018-04-21T15:27:17.000Z</Time>
            <Position>
              <LatitudeDegrees>43.36796307004988193511962890625</LatitudeDegrees>
              <LongitudeDegrees>-8.3930288068950176239013671875</LongitudeDegrees>
            </Position>
            <AltitudeMeters>1.60000002384185791015625</AltitudeMeters>
            <DistanceMeters>105392.93054958</DistanceMeters>
          </Trackpoint>
          <Trackpoint>
            <Time>2018-04-21T15:27:21.000Z</Time>
            <Position>
              <LatitudeDegrees>43.36793859489262104034423828125</LatitudeDegrees>
              <LongitudeDegrees>-8.39271523989737033843994140625</LongitudeDegrees>
            </Position>
            <AltitudeMeters>1.39999997615814208984375</AltitudeMeters>
            <DistanceMeters>105418.44765545</DistanceMeters>
          </Trackpoint>
          <Trackpoint>
            <Time>2018-04-21T15:27:23.000Z</Time>
            <Position>
              <LatitudeDegrees>43.36791009642183780670166015625</LatitudeDegrees>
              <LongitudeDegrees>-8.39255799539387226104736328125</LongitudeDegrees>
            </Position>
            <AltitudeMeters>1</AltitudeMeters>
            <DistanceMeters>105431.55996476</DistanceMeters>
          </Trackpoint>
          <Trackpoint>
            <Time>2018-04-21T15:27:30.000Z</Time>
            <Position>
              <LatitudeDegrees>43.36777590215206146240234375</LatitudeDegrees>
              <LongitudeDegrees>-8.392009399831295013427734375</LongitudeDegrees>
            </Position>
            <AltitudeMeters>0.60000002384185791015625</AltitudeMeters>
            <DistanceMeters>105478.39357991</DistanceMeters>
          </Trackpoint>
          <Trackpoint>
            <Time>2018-04-21T15:27:38.000Z</Time>
            <Position>
              <LatitudeDegrees>43.36760382167994976043701171875</LatitudeDegrees>
              <LongitudeDegrees>-8.39139827527105808258056640625</LongitudeDegrees>
            </Position>
            <AltitudeMeters>0.800000011920928955078125</AltitudeMeters>
            <DistanceMeters>105531.42087066</DistanceMeters>
          </Trackpoint>
          <Trackpoint>
            <Time>2018-04-21T15:27:46.000Z</Time>
            <Position>
              <LatitudeDegrees>43.36736862547695636749267578125</LatitudeDegrees>
              <LongitudeDegrees>-8.39087272994220256805419921875</LongitudeDegrees>
            </Position>
            <AltitudeMeters>1.2000000476837158203125</AltitudeMeters>
            <DistanceMeters>105581.35593979</DistanceMeters>
          </Trackpoint>
          <Trackpoint>
            <Time>2018-04-21T15:27:55.000Z</Time>
            <Position>
              <LatitudeDegrees>43.36710912175476551055908203125</LatitudeDegrees>
              <LongitudeDegrees>-8.39025096036493778228759765625</LongitudeDegrees>
            </Position>
            <AltitudeMeters>1.39999997615814208984375</AltitudeMeters>
            <DistanceMeters>105639.36677195</DistanceMeters>
          </Trackpoint>
          <Trackpoint>
            <Time>2018-04-21T15:28:01.000Z</Time>
            <Position>
              <LatitudeDegrees>43.36691700853407382965087890625</LatitudeDegrees>
              <LongitudeDegrees>-8.38981677778065204620361328125</LongitudeDegrees>
            </Position>
            <AltitudeMeters>1.39999997615814208984375</AltitudeMeters>
            <DistanceMeters>105680.49358302</DistanceMeters>
          </Trackpoint>
          <Trackpoint>
            <Time>2018-04-21T15:28:04.000Z</Time>
            <Position>
              <LatitudeDegrees>43.36684291251003742218017578125</LatitudeDegrees>
              <LongitudeDegrees>-8.38959180749952793121337890625</LongitudeDegrees>
            </Position>
            <AltitudeMeters>1.39999997615814208984375</AltitudeMeters>
            <DistanceMeters>105700.47768072</DistanceMeters>
          </Trackpoint>
          <Trackpoint>
            <Time>2018-04-21T15:28:06.000Z</Time>
            <Position>
              <LatitudeDegrees>43.36682782508432865142822265625</LatitudeDegrees>
              <LongitudeDegrees>-8.38942869566380977630615234375</LongitudeDegrees>
            </Position>
            <AltitudeMeters>1.2000000476837158203125</AltitudeMeters>
            <DistanceMeters>105713.78209948</DistanceMeters>
          </Trackpoint>
          <Trackpoint>
            <Time>2018-04-21T15:28:10.000Z</Time>
            <Position>
              <LatitudeDegrees>43.366885073482990264892578125</LatitudeDegrees>
              <LongitudeDegrees>-8.38912460021674633026123046875</LongitudeDegrees>
            </Position>
            <AltitudeMeters>1.60000002384185791015625</AltitudeMeters>
            <DistanceMeters>105739.19921436</DistanceMeters>
          </Trackpoint>
          <Trackpoint>
            <Time>2018-04-21T15:28:12.000Z</Time>
            <Position>
              <LatitudeDegrees>43.366942740976810455322265625</LatitudeDegrees>
              <LongitudeDegrees>-8.38898680172860622406005859375</LongitudeDegrees>
            </Position>
            <AltitudeMeters>1.7999999523162841796875</AltitudeMeters>
            <DistanceMeters>105752.06472256</DistanceMeters>
          </Trackpoint>
          <Trackpoint>
            <Time>2018-04-21T15:28:14.000Z</Time>
            <Position>
              <LatitudeDegrees>43.3670284040272235870361328125</LatitudeDegrees>
              <LongitudeDegrees>-8.38889057748019695281982421875</LongitudeDegrees>
            </Position>
            <AltitudeMeters>2</AltitudeMeters>
            <DistanceMeters>105764.37425881</DistanceMeters>
          </Trackpoint>
          <Trackpoint>
            <Time>2018-04-21T15:28:16.000Z</Time>
            <Position>
              <LatitudeDegrees>43.36712705902755260467529296875</LatitudeDegrees>
              <LongitudeDegrees>-8.38880650699138641357421875</LongitudeDegrees>
            </Position>
            <AltitudeMeters>2.400000095367431640625</AltitudeMeters>
            <DistanceMeters>105777.29125236</DistanceMeters>
          </Trackpoint>
          <Trackpoint>
            <Time>2018-04-21T15:28:17.000Z</Time>
            <Position>
              <LatitudeDegrees>43.36717902682721614837646484375</LatitudeDegrees>
              <LongitudeDegrees>-8.3887694589793682098388671875</LongitudeDegrees>
            </Position>
            <AltitudeMeters>2.7999999523162841796875</AltitudeMeters>
            <DistanceMeters>105783.80595568</DistanceMeters>
          </Trackpoint>
          <Trackpoint>
            <Time>2018-04-21T15:28:19.000Z</Time>
            <Position>
              <LatitudeDegrees>43.367283046245574951171875</LatitudeDegrees>
              <LongitudeDegrees>-8.3887013979256153106689453125</LongitudeDegrees>
            </Position>
            <AltitudeMeters>2.2000000476837158203125</AltitudeMeters>
            <DistanceMeters>105796.62681686</DistanceMeters>
          </Trackpoint>
          <Trackpoint>
            <Time>2018-04-21T15:28:21.000Z</Time>
            <Position>
              <LatitudeDegrees>43.367387987673282623291015625</LatitudeDegrees>
              <LongitudeDegrees>-8.38864247314631938934326171875</LongitudeDegrees>
            </Position>
            <AltitudeMeters>1.7999999523162841796875</AltitudeMeters>
            <DistanceMeters>105809.24248559</DistanceMeters>
          </Trackpoint>
          <Trackpoint>
            <Time>2018-04-21T15:28:26.000Z</Time>
            <Position>
              <LatitudeDegrees>43.36764556355774402618408203125</LatitudeDegrees>
              <LongitudeDegrees>-8.3885069377720355987548828125</LongitudeDegrees>
            </Position>
            <AltitudeMeters>1.7999999523162841796875</AltitudeMeters>
            <DistanceMeters>105839.93714401</DistanceMeters>
          </Trackpoint>
          <Trackpoint>
            <Time>2018-04-21T15:28:32.000Z</Time>
            <Position>
              <LatitudeDegrees>43.36791764013469219207763671875</LatitudeDegrees>
              <LongitudeDegrees>-8.38829529471695423126220703125</LongitudeDegrees>
            </Position>
            <AltitudeMeters>2</AltitudeMeters>
            <DistanceMeters>105874.72639689</DistanceMeters>
          </Trackpoint>
          <Trackpoint>
            <Time>2018-04-21T15:28:34.000Z</Time>
            <Position>
              <LatitudeDegrees>43.36801302619278430938720703125</LatitudeDegrees>
              <LongitudeDegrees>-8.3882246352732181549072265625</LongitudeDegrees>
            </Position>
            <AltitudeMeters>2.2000000476837158203125</AltitudeMeters>
            <DistanceMeters>105886.78468412</DistanceMeters>
          </Trackpoint>
          <Trackpoint>
            <Time>2018-04-21T15:28:38.000Z</Time>
            <Position>
              <LatitudeDegrees>43.36822173558175563812255859375</LatitudeDegrees>
              <LongitudeDegrees>-8.3881391398608684539794921875</LongitudeDegrees>
            </Position>
            <AltitudeMeters>2.2000000476837158203125</AltitudeMeters>
            <DistanceMeters>105911.02227173</DistanceMeters>
          </Trackpoint>
          <Trackpoint>
            <Time>2018-04-21T15:28:42.000Z</Time>
            <Position>
              <LatitudeDegrees>43.368428684771060943603515625</LatitudeDegrees>
              <LongitudeDegrees>-8.38823645375669002532958984375</LongitudeDegrees>
            </Position>
            <AltitudeMeters>2.599999904632568359375</AltitudeMeters>
            <DistanceMeters>105935.36469593</DistanceMeters>
          </Trackpoint>
          <Trackpoint>
            <Time>2018-04-21T15:28:43.000Z</Time>
            <Position>
              <LatitudeDegrees>43.36847939528524875640869140625</LatitudeDegrees>
              <LongitudeDegrees>-8.388273753225803375244140625</LongitudeDegrees>
            </Position>
            <AltitudeMeters>2.400000095367431640625</AltitudeMeters>
            <DistanceMeters>105941.76472927</DistanceMeters>
          </Trackpoint>
          <Trackpoint>
            <Time>2018-04-21T15:28:49.000Z</Time>
            <Position>
              <LatitudeDegrees>43.36876991204917430877685546875</LatitudeDegrees>
              <LongitudeDegrees>-8.388486318290233612060546875</LongitudeDegrees>
            </Position>
            <AltitudeMeters>2</AltitudeMeters>
            <DistanceMeters>105978.38936136</DistanceMeters>
          </Trackpoint>
          <Trackpoint>
            <Time>2018-04-21T15:28:53.000Z</Time>
            <Position>
              <LatitudeDegrees>43.3689595945179462432861328125</LatitudeDegrees>
              <LongitudeDegrees>-8.38861162774264812469482421875</LongitudeDegrees>
            </Position>
            <AltitudeMeters>1.7999999523162841796875</AltitudeMeters>
            <DistanceMeters>106001.80973568</DistanceMeters>
          </Trackpoint>
          <Trackpoint>
            <Time>2018-04-21T15:28:55.000Z</Time>
            <Position>
              <LatitudeDegrees>43.36906864307820796966552734375</LatitudeDegrees>
              <LongitudeDegrees>-8.38862185366451740264892578125</LongitudeDegrees>
            </Position>
            <AltitudeMeters>2.2000000476837158203125</AltitudeMeters>
            <DistanceMeters>106013.97538211</DistanceMeters>
          </Trackpoint>
          <Trackpoint>
            <Time>2018-04-21T15:28:59.000Z</Time>
            <Position>
              <LatitudeDegrees>43.369284979999065399169921875</LatitudeDegrees>
              <LongitudeDegrees>-8.38854633271694183349609375</LongitudeDegrees>
            </Position>
            <AltitudeMeters>2</AltitudeMeters>
            <DistanceMeters>106038.8175536</DistanceMeters>
          </Trackpoint>
          <Trackpoint>
            <Time>2018-04-21T15:29:02.000Z</Time>
            <Position>
              <LatitudeDegrees>43.36943509988486766815185546875</LatitudeDegrees>
              <LongitudeDegrees>-8.38843879289925098419189453125</LongitudeDegrees>
            </Position>
            <AltitudeMeters>2.599999904632568359375</AltitudeMeters>
            <DistanceMeters>106057.65586573</DistanceMeters>
          </Trackpoint>
          <Trackpoint>
            <Time>2018-04-21T15:29:05.000Z</Time>
            <Position>
              <LatitudeDegrees>43.36958178319036960601806640625</LatitudeDegrees>
              <LongitudeDegrees>-8.38832773268222808837890625</LongitudeDegrees>
            </Position>
            <AltitudeMeters>2.2000000476837158203125</AltitudeMeters>
            <DistanceMeters>106076.2912804</DistanceMeters>
          </Trackpoint>
          <Trackpoint>
            <Time>2018-04-21T15:29:09.000Z</Time>
            <Position>
              <LatitudeDegrees>43.36975662969052791595458984375</LatitudeDegrees>
              <LongitudeDegrees>-8.3881676383316516876220703125</LongitudeDegrees>
            </Position>
            <AltitudeMeters>2</AltitudeMeters>
            <DistanceMeters>106099.6686247</DistanceMeters>
          </Trackpoint>
          <Trackpoint>
            <Time>2018-04-21T15:29:11.000Z</Time>
            <Position>
              <LatitudeDegrees>43.3698271214962005615234375</LatitudeDegrees>
              <LongitudeDegrees>-8.388073258101940155029296875</LongitudeDegrees>
            </Position>
            <AltitudeMeters>2</AltitudeMeters>
            <DistanceMeters>106110.61692296</DistanceMeters>
          </Trackpoint>
          <Trackpoint>
            <Time>2018-04-21T15:29:15.000Z</Time>
            <Position>
              <LatitudeDegrees>43.36991705931723117828369140625</LatitudeDegrees>
              <LongitudeDegrees>-8.387951217591762542724609375</LongitudeDegrees>
            </Position>
            <AltitudeMeters>1.60000002384185791015625</AltitudeMeters>
            <DistanceMeters>106124.67798706</DistanceMeters>
          </Trackpoint>
          <Trackpoint>
            <Time>2018-04-21T15:29:20.000Z</Time>
            <Position>
              <LatitudeDegrees>43.370040021836757659912109375</LatitudeDegrees>
              <LongitudeDegrees>-8.38798399083316326141357421875</LongitudeDegrees>
            </Position>
            <AltitudeMeters>1.60000002384185791015625</AltitudeMeters>
            <DistanceMeters>106138.6181178</DistanceMeters>
          </Trackpoint>
          <Trackpoint>
            <Time>2018-04-21T15:29:23.000Z</Time>
            <Position>
              <LatitudeDegrees>43.37008737958967685699462890625</LatitudeDegrees>
              <LongitudeDegrees>-8.3881056122481822967529296875</LongitudeDegrees>
            </Position>
            <AltitudeMeters>2</AltitudeMeters>
            <DistanceMeters>106149.78082468</DistanceMeters>
          </Trackpoint>
          <Trackpoint>
            <Time>2018-04-21T15:29:24.000Z</Time>
            <Position>
              <LatitudeDegrees>43.3701018802821636199951171875</LatitudeDegrees>
              <LongitudeDegrees>-8.38813997805118560791015625</LongitudeDegrees>
            </Position>
            <AltitudeMeters>2</AltitudeMeters>
            <DistanceMeters>106152.9949198</DistanceMeters>
          </Trackpoint>
          <Trackpoint>
            <Time>2018-04-21T15:29:28.000Z</Time>
            <Position>
              <LatitudeDegrees>43.37015963159501552581787109375</LatitudeDegrees>
              <LongitudeDegrees>-8.3882819674909114837646484375</LongitudeDegrees>
            </Position>
            <AltitudeMeters>3</AltitudeMeters>
            <DistanceMeters>106166.15912115</DistanceMeters>
          </Trackpoint>
          <Trackpoint>
            <Time>2018-04-21T15:29:31.000Z</Time>
            <Position>
              <LatitudeDegrees>43.3701957575976848602294921875</LatitudeDegrees>
              <LongitudeDegrees>-8.38838900439441204071044921875</LongitudeDegrees>
            </Position>
            <AltitudeMeters>3.599999904632568359375</AltitudeMeters>
            <DistanceMeters>106175.70729646</DistanceMeters>
          </Trackpoint>
          <Trackpoint>
            <Time>2018-04-21T15:29:33.000Z</Time>
            <Position>
              <LatitudeDegrees>43.37022266350686550140380859375</LatitudeDegrees>
              <LongitudeDegrees>-8.3884584903717041015625</LongitudeDegrees>
            </Position>
            <AltitudeMeters>4.19999980926513671875</AltitudeMeters>
            <DistanceMeters>106182.07763111</DistanceMeters>
          </Trackpoint>
          <Trackpoint>
            <Time>2018-04-21T15:29:36.000Z</Time>
            <Position>
              <LatitudeDegrees>43.3702665008604526519775390625</LatitudeDegrees>
              <LongitudeDegrees>-8.38856653310358524322509765625</LongitudeDegrees>
            </Position>
            <AltitudeMeters>4.80000019073486328125</AltitudeMeters>
            <DistanceMeters>106192.08931671</DistanceMeters>
          </Trackpoint>
          <Trackpoint>
            <Time>2018-04-21T15:29:37.000Z</Time>
            <Position>
              <LatitudeDegrees>43.3702829293906688690185546875</LatitudeDegrees>
              <LongitudeDegrees>-8.3885998092591762542724609375</LongitudeDegrees>
            </Position>
            <AltitudeMeters>5.400000095367431640625</AltitudeMeters>
            <DistanceMeters>106195.34528196</DistanceMeters>
          </Trackpoint>
          <Trackpoint>
            <Time>2018-04-21T15:29:40.000Z</Time>
            <Position>
              <LatitudeDegrees>43.37033615447580814361572265625</LatitudeDegrees>
              <LongitudeDegrees>-8.38869117200374603271484375</LongitudeDegrees>
            </Position>
            <AltitudeMeters>6.19999980926513671875</AltitudeMeters>
            <DistanceMeters>106204.81844931</DistanceMeters>
          </Trackpoint>
          <Trackpoint>
            <Time>2018-04-21T15:29:41.000Z</Time>
            <Position>
              <LatitudeDegrees>43.3703566901385784149169921875</LatitudeDegrees>
              <LongitudeDegrees>-8.3887184970080852508544921875</LongitudeDegrees>
            </Position>
            <AltitudeMeters>6.400000095367431640625</AltitudeMeters>
            <DistanceMeters>106207.99865145</DistanceMeters>
          </Trackpoint>
          <Trackpoint>
            <Time>2018-04-21T15:29:44.000Z</Time>
            <Position>
              <LatitudeDegrees>43.3704200573265552520751953125</LatitudeDegrees>
              <LongitudeDegrees>-8.38879787363111972808837890625</LongitudeDegrees>
            </Position>
            <AltitudeMeters>7</AltitudeMeters>
            <DistanceMeters>106217.53736469</DistanceMeters>
          </Trackpoint>
          <Trackpoint>
            <Time>2018-04-21T15:29:46.000Z</Time>
            <Position>
              <LatitudeDegrees>43.37046942673623561859130859375</LatitudeDegrees>
              <LongitudeDegrees>-8.38884632103145122528076171875</LongitudeDegrees>
            </Position>
            <AltitudeMeters>7.80000019073486328125</AltitudeMeters>
            <DistanceMeters>106224.28760659</DistanceMeters>
          </Trackpoint>
          <Trackpoint>
            <Time>2018-04-21T15:29:47.000Z</Time>
            <Position>
              <LatitudeDegrees>43.370496667921543121337890625</LatitudeDegrees>
              <LongitudeDegrees>-8.38886593468487262725830078125</LongitudeDegrees>
            </Position>
            <AltitudeMeters>8</AltitudeMeters>
            <DistanceMeters>106227.70856831</DistanceMeters>
          </Trackpoint>
          <Trackpoint>
            <Time>2018-04-21T15:29:50.000Z</Time>
            <Position>
              <LatitudeDegrees>43.37058744393289089202880859375</LatitudeDegrees>
              <LongitudeDegrees>-8.3888955228030681610107421875</LongitudeDegrees>
            </Position>
            <AltitudeMeters>8.80000019073486328125</AltitudeMeters>
            <DistanceMeters>106238.09216656</DistanceMeters>
          </Trackpoint>
          <Trackpoint>
            <Time>2018-04-21T15:29:51.000Z</Time>
            <Position>
              <LatitudeDegrees>43.3706171996891498565673828125</LatitudeDegrees>
              <LongitudeDegrees>-8.3888995461165904998779296875</LongitudeDegrees>
            </Position>
            <AltitudeMeters>9.3999996185302734375</AltitudeMeters>
            <DistanceMeters>106241.42217165</DistanceMeters>
          </Trackpoint>
          <Trackpoint>
            <Time>2018-04-21T15:29:53.000Z</Time>
            <Position>
              <LatitudeDegrees>43.37068065069615840911865234375</LatitudeDegrees>
              <LongitudeDegrees>-8.3889220096170902252197265625</LongitudeDegrees>
            </Position>
            <AltitudeMeters>9.6000003814697265625</AltitudeMeters>
            <DistanceMeters>106248.71512374</DistanceMeters>
          </Trackpoint>
          <Trackpoint>
            <Time>2018-04-21T15:29:56.000Z</Time>
            <Position>
              <LatitudeDegrees>43.3707858435809612274169921875</LatitudeDegrees>
              <LongitudeDegrees>-8.3889505080878734588623046875</LongitudeDegrees>
            </Position>
            <AltitudeMeters>9.80000019073486328125</AltitudeMeters>
            <DistanceMeters>106260.6480729</DistanceMeters>
          </Trackpoint>
          <Trackpoint>
            <Time>2018-04-21T15:29:59.000Z</Time>
            <Position>
              <LatitudeDegrees>43.37088902480900287628173828125</LatitudeDegrees>
              <LongitudeDegrees>-8.38900876231491565704345703125</LongitudeDegrees>
            </Position>
            <AltitudeMeters>10.3999996185302734375</AltitudeMeters>
            <DistanceMeters>106273.06206841</DistanceMeters>
          </Trackpoint>
          <Trackpoint>
            <Time>2018-04-21T15:30:00.000Z</Time>
            <Position>
              <LatitudeDegrees>43.37092372588813304901123046875</LatitudeDegrees>
              <LongitudeDegrees>-8.38903474621474742889404296875</LongitudeDegrees>
            </Position>
            <AltitudeMeters>10.3999996185302734375</AltitudeMeters>
            <DistanceMeters>106277.45904392</DistanceMeters>
          </Trackpoint>
          <Trackpoint>
            <Time>2018-04-21T15:30:07.000Z</Time>
            <Position>
              <LatitudeDegrees>43.371164537966251373291015625</LatitudeDegrees>
              <LongitudeDegrees>-8.38929525576531887054443359375</LongitudeDegrees>
            </Position>
            <AltitudeMeters>10.3999996185302734375</AltitudeMeters>
            <DistanceMeters>106311.55668948</DistanceMeters>
          </Trackpoint>
          <Trackpoint>
            <Time>2018-04-21T15:30:12.000Z</Time>
            <Position>
              <LatitudeDegrees>43.37133443914353847503662109375</LatitudeDegrees>
              <LongitudeDegrees>-8.38953799568116664886474609375</LongitudeDegrees>
            </Position>
            <AltitudeMeters>10</AltitudeMeters>
            <DistanceMeters>106338.82041524</DistanceMeters>
          </Trackpoint>
          <Trackpoint>
            <Time>2018-04-21T15:30:14.000Z</Time>
            <Position>
              <LatitudeDegrees>43.37141289375722408294677734375</LatitudeDegrees>
              <LongitudeDegrees>-8.38963841088116168975830078125</LongitudeDegrees>
            </Position>
            <AltitudeMeters>10.19999980926513671875</AltitudeMeters>
            <DistanceMeters>106350.74730898</DistanceMeters>
          </Trackpoint>
          <Trackpoint>
            <Time>2018-04-21T15:30:16.000Z</Time>
            <Position>
              <LatitudeDegrees>43.37150551378726959228515625</LatitudeDegrees>
              <LongitudeDegrees>-8.389728851616382598876953125</LongitudeDegrees>
            </Position>
            <AltitudeMeters>10.3999996185302734375</AltitudeMeters>
            <DistanceMeters>106363.38907677</DistanceMeters>
          </Trackpoint>
          <Trackpoint>
            <Time>2018-04-21T15:30:19.000Z</Time>
            <Position>
              <LatitudeDegrees>43.3716659434139728546142578125</LatitudeDegrees>
              <LongitudeDegrees>-8.38982230983674526214599609375</LongitudeDegrees>
            </Position>
            <AltitudeMeters>10.3999996185302734375</AltitudeMeters>
            <DistanceMeters>106382.78034834</DistanceMeters>
          </Trackpoint>
          <Trackpoint>
            <Time>2018-04-21T15:30:26.000Z</Time>
            <Position>
              <LatitudeDegrees>43.37206098251044750213623046875</LatitudeDegrees>
              <LongitudeDegrees>-8.3900227211415767669677734375</LongitudeDegrees>
            </Position>
            <AltitudeMeters>10.6000003814697265625</AltitudeMeters>
            <DistanceMeters>106429.64345442</DistanceMeters>
          </Trackpoint>
          <Trackpoint>
            <Time>2018-04-21T15:30:28.000Z</Time>
            <Position>
              <LatitudeDegrees>43.37217296473681926727294921875</LatitudeDegrees>
              <LongitudeDegrees>-8.39006739668548107147216796875</LongitudeDegrees>
            </Position>
            <AltitudeMeters>10.19999980926513671875</AltitudeMeters>
            <DistanceMeters>106442.62112585</DistanceMeters>
          </Trackpoint>
          <Trackpoint>
            <Time>2018-04-21T15:30:31.000Z</Time>
            <Position>
              <LatitudeDegrees>43.3723349869251251220703125</LatitudeDegrees>
              <LongitudeDegrees>-8.39012749493122100830078125</LongitudeDegrees>
            </Position>
            <AltitudeMeters>9.80000019073486328125</AltitudeMeters>
            <DistanceMeters>106461.29865013</DistanceMeters>
          </Trackpoint>
          <Trackpoint>
            <Time>2018-04-21T15:30:35.000Z</Time>
            <Position>
              <LatitudeDegrees>43.372549228370189666748046875</LatitudeDegrees>
              <LongitudeDegrees>-8.39020268060266971588134765625</LongitudeDegrees>
            </Position>
            <AltitudeMeters>9.3999996185302734375</AltitudeMeters>
            <DistanceMeters>106485.90781726</DistanceMeters>
          </Trackpoint>
          <Trackpoint>
            <Time>2018-04-21T15:30:39.000Z</Time>
            <Position>
              <LatitudeDegrees>43.37277009151875972747802734375</LatitudeDegrees>
              <LongitudeDegrees>-8.39028499089181423187255859375</LongitudeDegrees>
            </Position>
            <AltitudeMeters>9.19999980926513671875</AltitudeMeters>
            <DistanceMeters>106511.37639498</DistanceMeters>
          </Trackpoint>
          <Trackpoint>
            <Time>2018-04-21T15:30:41.000Z</Time>
            <Position>
              <LatitudeDegrees>43.37287855334579944610595703125</LatitudeDegrees>
              <LongitudeDegrees>-8.39032053016126155853271484375</LongitudeDegrees>
            </Position>
            <AltitudeMeters>9.3999996185302734375</AltitudeMeters>
            <DistanceMeters>106523.78602526</DistanceMeters>
          </Trackpoint>
          <Trackpoint>
            <Time>2018-04-21T15:30:48.000Z</Time>
            <Position>
              <LatitudeDegrees>43.3732576668262481689453125</LatitudeDegrees>
              <LongitudeDegrees>-8.3904622681438922882080078125</LongitudeDegrees>
            </Position>
            <AltitudeMeters>9.80000019073486328125</AltitudeMeters>
            <DistanceMeters>106567.51256555</DistanceMeters>
          </Trackpoint>
          <Trackpoint>
            <Time>2018-04-21T15:30:56.000Z</Time>
            <Position>
              <LatitudeDegrees>43.373670391738414764404296875</LatitudeDegrees>
              <LongitudeDegrees>-8.390703834593296051025390625</LongitudeDegrees>
            </Position>
            <AltitudeMeters>9</AltitudeMeters>
            <DistanceMeters>106617.434251</DistanceMeters>
          </Trackpoint>
          <Trackpoint>
            <Time>2018-04-21T15:31:00.000Z</Time>
            <Position>
              <LatitudeDegrees>43.37384683080017566680908203125</LatitudeDegrees>
              <LongitudeDegrees>-8.3909075148403644561767578125</LongitudeDegrees>
            </Position>
            <AltitudeMeters>9.19999980926513671875</AltitudeMeters>
            <DistanceMeters>106643.06998589</DistanceMeters>
          </Trackpoint>
          <Trackpoint>
            <Time>2018-04-21T15:31:02.000Z</Time>
            <Position>
              <LatitudeDegrees>43.37392243556678295135498046875</LatitudeDegrees>
              <LongitudeDegrees>-8.39103181846439838409423828125</LongitudeDegrees>
            </Position>
            <AltitudeMeters>8.6000003814697265625</AltitudeMeters>
            <DistanceMeters>106656.18332817</DistanceMeters>
          </Trackpoint>
          <Trackpoint>
            <Time>2018-04-21T15:31:08.000Z</Time>
            <Position>
              <LatitudeDegrees>43.3741101063787937164306640625</LatitudeDegrees>
              <LongitudeDegrees>-8.39146717451512813568115234375</LongitudeDegrees>
            </Position>
            <AltitudeMeters>8.6000003814697265625</AltitudeMeters>
            <DistanceMeters>106697.13344765</DistanceMeters>
          </Trackpoint>
          <Trackpoint>
            <Time>2018-04-21T15:31:09.000Z</Time>
            <Position>
              <LatitudeDegrees>43.3741414546966552734375</LatitudeDegrees>
              <LongitudeDegrees>-8.3915415219962596893310546875</LongitudeDegrees>
            </Position>
            <AltitudeMeters>8.19999980926513671875</AltitudeMeters>
            <DistanceMeters>106704.08794903</DistanceMeters>
          </Trackpoint>
          <Trackpoint>
            <Time>2018-04-21T15:31:18.000Z</Time>
            <Position>
              <LatitudeDegrees>43.3744098432362079620361328125</LatitudeDegrees>
              <LongitudeDegrees>-8.39219472371041774749755859375</LongitudeDegrees>
            </Position>
            <AltitudeMeters>8.3999996185302734375</AltitudeMeters>
            <DistanceMeters>106764.79276652</DistanceMeters>
          </Trackpoint>
          <Trackpoint>
            <Time>2018-04-21T15:31:25.000Z</Time>
            <Position>
              <LatitudeDegrees>43.37462752126157283782958984375</LatitudeDegrees>
              <LongitudeDegrees>-8.392665870487689971923828125</LongitudeDegrees>
            </Position>
            <AltitudeMeters>8.19999980926513671875</AltitudeMeters>
            <DistanceMeters>106809.95835507</DistanceMeters>
          </Trackpoint>
          <Trackpoint>
            <Time>2018-04-21T15:31:33.000Z</Time>
            <Position>
              <LatitudeDegrees>43.374954499304294586181640625</LatitudeDegrees>
              <LongitudeDegrees>-8.3931280486285686492919921875</LongitudeDegrees>
            </Position>
            <AltitudeMeters>7.80000019073486328125</AltitudeMeters>
            <DistanceMeters>106862.13693466</DistanceMeters>
          </Trackpoint>
          <Trackpoint>
            <Time>2018-04-21T15:31:39.000Z</Time>
            <Position>
              <LatitudeDegrees>43.375268317759037017822265625</LatitudeDegrees>
              <LongitudeDegrees>-8.393375985324382781982421875</LongitudeDegrees>
            </Position>
            <AltitudeMeters>7.19999980926513671875</AltitudeMeters>
            <DistanceMeters>106902.41548471</DistanceMeters>
          </Trackpoint>
          <Trackpoint>
            <Time>2018-04-21T15:31:46.000Z</Time>
            <Position>
              <LatitudeDegrees>43.37566922418773174285888671875</LatitudeDegrees>
              <LongitudeDegrees>-8.39353800751268863677978515625</LongitudeDegrees>
            </Position>
            <AltitudeMeters>8</AltitudeMeters>
            <DistanceMeters>106948.92259169</DistanceMeters>
          </Trackpoint>
          <Trackpoint>
            <Time>2018-04-21T15:31:50.000Z</Time>
            <Position>
              <LatitudeDegrees>43.3759050071239471435546875</LatitudeDegrees>
              <LongitudeDegrees>-8.3936038054525852203369140625</LongitudeDegrees>
            </Position>
            <AltitudeMeters>8.19999980926513671875</AltitudeMeters>
            <DistanceMeters>106975.70023629</DistanceMeters>
          </Trackpoint>
          <Trackpoint>
            <Time>2018-04-21T15:31:51.000Z</Time>
            <Position>
              <LatitudeDegrees>43.37596309371292591094970703125</LatitudeDegrees>
              <LongitudeDegrees>-8.39362216182053089141845703125</LongitudeDegrees>
            </Position>
            <AltitudeMeters>8.80000019073486328125</AltitudeMeters>
            <DistanceMeters>106982.33307372</DistanceMeters>
          </Trackpoint>
          <Trackpoint>
            <Time>2018-04-21T15:31:56.000Z</Time>
            <Position>
              <LatitudeDegrees>43.37624640204012393951416015625</LatitudeDegrees>
              <LongitudeDegrees>-8.39370061643421649932861328125</LongitudeDegrees>
            </Position>
            <AltitudeMeters>8.3999996185302734375</AltitudeMeters>
            <DistanceMeters>107014.49831814</DistanceMeters>
          </Trackpoint>
          <Trackpoint>
            <Time>2018-04-21T15:31:58.000Z</Time>
            <Position>
              <LatitudeDegrees>43.37635871954262256622314453125</LatitudeDegrees>
              <LongitudeDegrees>-8.39373481459915637969970703125</LongitudeDegrees>
            </Position>
            <AltitudeMeters>7.80000019073486328125</AltitudeMeters>
            <DistanceMeters>107027.30191169</DistanceMeters>
          </Trackpoint>
          <Trackpoint>
            <Time>2018-04-21T15:32:05.000Z</Time>
            <Position>
              <LatitudeDegrees>43.376764319837093353271484375</LatitudeDegrees>
              <LongitudeDegrees>-8.39383975602686405181884765625</LongitudeDegrees>
            </Position>
            <AltitudeMeters>7.599999904632568359375</AltitudeMeters>
            <DistanceMeters>107073.23737721</DistanceMeters>
          </Trackpoint>
          <Trackpoint>
            <Time>2018-04-21T15:32:15.000Z</Time>
            <Position>
              <LatitudeDegrees>43.3773200400173664093017578125</LatitudeDegrees>
              <LongitudeDegrees>-8.39399096556007862091064453125</LongitudeDegrees>
            </Position>
            <AltitudeMeters>9</AltitudeMeters>
            <DistanceMeters>107136.28815717</DistanceMeters>
          </Trackpoint>
          <Trackpoint>
            <Time>2018-04-21T15:32:16.000Z</Time>
            <Position>
              <LatitudeDegrees>43.3773750253021717071533203125</LatitudeDegrees>
              <LongitudeDegrees>-8.39400638826191425323486328125</LongitudeDegrees>
            </Position>
            <AltitudeMeters>9.19999980926513671875</AltitudeMeters>
            <DistanceMeters>107142.53395018</DistanceMeters>
          </Trackpoint>
          <Trackpoint>
            <Time>2018-04-21T15:32:25.000Z</Time>
            <Position>
              <LatitudeDegrees>43.37786092422902584075927734375</LatitudeDegrees>
              <LongitudeDegrees>-8.39413949288427829742431640625</LongitudeDegrees>
            </Position>
            <AltitudeMeters>8.3999996185302734375</AltitudeMeters>
            <DistanceMeters>107197.67696262</DistanceMeters>
          </Trackpoint>
          <Trackpoint>
            <Time>2018-04-21T15:32:33.000Z</Time>
            <Position>
              <LatitudeDegrees>43.37828739546239376068115234375</LatitudeDegrees>
              <LongitudeDegrees>-8.39424594305455684661865234375</LongitudeDegrees>
            </Position>
            <AltitudeMeters>10.19999980926513671875</AltitudeMeters>
            <DistanceMeters>107245.91890995</DistanceMeters>
          </Trackpoint>
          <Trackpoint>
            <Time>2018-04-21T15:32:43.000Z</Time>
            <Position>
              <LatitudeDegrees>43.37879173457622528076171875</LatitudeDegrees>
              <LongitudeDegrees>-8.3944597654044628143310546875</LongitudeDegrees>
            </Position>
            <AltitudeMeters>9.3999996185302734375</AltitudeMeters>
            <DistanceMeters>107304.6575656</DistanceMeters>
          </Trackpoint>
          <Trackpoint>
            <Time>2018-04-21T15:32:47.000Z</Time>
            <Position>
              <LatitudeDegrees>43.37898191995918750762939453125</LatitudeDegrees>
              <LongitudeDegrees>-8.39461893774569034576416015625</LongitudeDegrees>
            </Position>
            <AltitudeMeters>9.6000003814697265625</AltitudeMeters>
            <DistanceMeters>107329.43422108</DistanceMeters>
          </Trackpoint>
          <Trackpoint>
            <Time>2018-04-21T15:32:49.000Z</Time>
            <Position>
              <LatitudeDegrees>43.37907076813280582427978515625</LatitudeDegrees>
              <LongitudeDegrees>-8.394713066518306732177734375</LongitudeDegrees>
            </Position>
            <AltitudeMeters>10.19999980926513671875</AltitudeMeters>
            <DistanceMeters>107341.91495898</DistanceMeters>
          </Trackpoint>
          <Trackpoint>
            <Time>2018-04-21T15:32:57.000Z</Time>
            <Position>
              <LatitudeDegrees>43.37937838397920131683349609375</LatitudeDegrees>
              <LongitudeDegrees>-8.3951236121356487274169921875</LongitudeDegrees>
            </Position>
            <AltitudeMeters>9.80000019073486328125</AltitudeMeters>
            <DistanceMeters>107389.61496214</DistanceMeters>
          </Trackpoint>
          <Trackpoint>
            <Time>2018-04-21T15:32:59.000Z</Time>
            <Position>
              <LatitudeDegrees>43.37945315055549144744873046875</LatitudeDegrees>
              <LongitudeDegrees>-8.39522528462111949920654296875</LongitudeDegrees>
            </Position>
            <AltitudeMeters>9.6000003814697265625</AltitudeMeters>
            <DistanceMeters>107401.31521679</DistanceMeters>
          </Trackpoint>
          <Trackpoint>
            <Time>2018-04-21T15:33:02.000Z</Time>
            <Position>
              <LatitudeDegrees>43.3795781247317790985107421875</LatitudeDegrees>
              <LongitudeDegrees>-8.39534313417971134185791015625</LongitudeDegrees>
            </Position>
            <AltitudeMeters>10.6000003814697265625</AltitudeMeters>
            <DistanceMeters>107418.17837597</DistanceMeters>
          </Trackpoint>
          <Trackpoint>
            <Time>2018-04-21T15:33:10.000Z</Time>
            <Position>
              <LatitudeDegrees>43.3798491954803466796875</LatitudeDegrees>
              <LongitudeDegrees>-8.3957004547119140625</LongitudeDegrees>
            </Position>
            <AltitudeMeters>10</AltitudeMeters>
            <DistanceMeters>107459.96139643</DistanceMeters>
          </Trackpoint>
          <Trackpoint>
            <Time>2018-04-21T15:33:14.000Z</Time>
            <Position>
              <LatitudeDegrees>43.37995908223092555999755859375</LatitudeDegrees>
              <LongitudeDegrees>-8.39586616493761539459228515625</LongitudeDegrees>
            </Position>
            <AltitudeMeters>11.3999996185302734375</AltitudeMeters>
            <DistanceMeters>107478.10776708</DistanceMeters>
          </Trackpoint>
          <Trackpoint>
            <Time>2018-04-21T15:33:17.000Z</Time>
            <Position>
              <LatitudeDegrees>43.38003653101623058319091796875</LatitudeDegrees>
              <LongitudeDegrees>-8.39598007500171661376953125</LongitudeDegrees>
            </Position>
            <AltitudeMeters>11</AltitudeMeters>
            <DistanceMeters>107490.72629861</DistanceMeters>
          </Trackpoint>
          <Trackpoint>
            <Time>2018-04-21T15:33:23.000Z</Time>
            <Position>
              <LatitudeDegrees>43.38021120987832546234130859375</LatitudeDegrees>
              <LongitudeDegrees>-8.39620579965412616729736328125</LongitudeDegrees>
            </Position>
            <AltitudeMeters>10.6000003814697265625</AltitudeMeters>
            <DistanceMeters>107517.39902949</DistanceMeters>
          </Trackpoint>
          <Trackpoint>
            <Time>2018-04-21T15:33:24.000Z</Time>
            <Position>
              <LatitudeDegrees>43.38025026954710483551025390625</LatitudeDegrees>
              <LongitudeDegrees>-8.3962544985115528106689453125</LongitudeDegrees>
            </Position>
            <AltitudeMeters>9.80000019073486328125</AltitudeMeters>
            <DistanceMeters>107523.26611151</DistanceMeters>
          </Trackpoint>
          <Trackpoint>
            <Time>2018-04-21T15:33:28.000Z</Time>
            <Position>
              <LatitudeDegrees>43.38045394979417324066162109375</LatitudeDegrees>
              <LongitudeDegrees>-8.3965197019279003143310546875</LongitudeDegrees>
            </Position>
            <AltitudeMeters>8.3999996185302734375</AltitudeMeters>
            <DistanceMeters>107554.47801159</DistanceMeters>
          </Trackpoint>
          <Trackpoint>
            <Time>2018-04-21T15:33:30.000Z</Time>
            <Position>
              <LatitudeDegrees>43.38056894950568675994873046875</LatitudeDegrees>
              <LongitudeDegrees>-8.3966702409088611602783203125</LongitudeDegrees>
            </Position>
            <AltitudeMeters>7.400000095367431640625</AltitudeMeters>
            <DistanceMeters>107572.14531536</DistanceMeters>
          </Trackpoint>
          <Trackpoint>
            <Time>2018-04-21T15:33:32.000Z</Time>
            <Position>
              <LatitudeDegrees>43.380676992237567901611328125</LatitudeDegrees>
              <LongitudeDegrees>-8.39680259115993976593017578125</LongitudeDegrees>
            </Position>
            <AltitudeMeters>5.80000019073486328125</AltitudeMeters>
            <DistanceMeters>107588.24610523</DistanceMeters>
          </Trackpoint>
          <Trackpoint>
            <Time>2018-04-21T15:33:33.000Z</Time>
            <Position>
              <LatitudeDegrees>43.3807249367237091064453125</LatitudeDegrees>
              <LongitudeDegrees>-8.3968472667038440704345703125</LongitudeDegrees>
            </Position>
            <AltitudeMeters>3.599999904632568359375</AltitudeMeters>
            <DistanceMeters>107594.69042999</DistanceMeters>
          </Trackpoint>
          <Trackpoint>
            <Time>2018-04-21T15:33:34.000Z</Time>
            <Position>
              <LatitudeDegrees>43.3807718753814697265625</LatitudeDegrees>
              <LongitudeDegrees>-8.396867550909519195556640625</LongitudeDegrees>
            </Position>
            <AltitudeMeters>3</AltitudeMeters>
            <DistanceMeters>107600.16581616</DistanceMeters>
          </Trackpoint>
          <Trackpoint>
            <Time>2018-04-21T15:33:36.000Z</Time>
            <Position>
              <LatitudeDegrees>43.38085108436644077301025390625</LatitudeDegrees>
              <LongitudeDegrees>-8.3968573249876499176025390625</LongitudeDegrees>
            </Position>
            <AltitudeMeters>2.599999904632568359375</AltitudeMeters>
            <DistanceMeters>107609.02065404</DistanceMeters>
          </Trackpoint>
          <Trackpoint>
            <Time>2018-04-21T15:33:44.000Z</Time>
            <Position>
              <LatitudeDegrees>43.38109717704355716705322265625</LatitudeDegrees>
              <LongitudeDegrees>-8.39658399112522602081298828125</LongitudeDegrees>
            </Position>
            <AltitudeMeters>3.7999999523162841796875</AltitudeMeters>
            <DistanceMeters>107644.22224832</DistanceMeters>
          </Trackpoint>
          <Trackpoint>
            <Time>2018-04-21T15:33:45.000Z</Time>
            <Position>
              <LatitudeDegrees>43.38113154284656047821044921875</LatitudeDegrees>
              <LongitudeDegrees>-8.39657996781170368194580078125</LongitudeDegrees>
            </Position>
            <AltitudeMeters>4.80000019073486328125</AltitudeMeters>
            <DistanceMeters>107648.0611394</DistanceMeters>
          </Trackpoint>
          <Trackpoint>
            <Time>2018-04-21T15:33:47.000Z</Time>
            <Position>
              <LatitudeDegrees>43.38118552230298519134521484375</LatitudeDegrees>
              <LongitudeDegrees>-8.3966360427439212799072265625</LongitudeDegrees>
            </Position>
            <AltitudeMeters>4.599999904632568359375</AltitudeMeters>
            <DistanceMeters>107655.58927063</DistanceMeters>
          </Trackpoint>
          <Trackpoint>
            <Time>2018-04-21T15:33:49.000Z</Time>
            <Position>
              <LatitudeDegrees>43.381224833428859710693359375</LatitudeDegrees>
              <LongitudeDegrees>-8.39671458117663860321044921875</LongitudeDegrees>
            </Position>
            <AltitudeMeters>3</AltitudeMeters>
            <DistanceMeters>107663.30342669</DistanceMeters>
          </Trackpoint>
          <Trackpoint>
            <Time>2018-04-21T15:33:53.000Z</Time>
            <Position>
              <LatitudeDegrees>43.3813104964792728424072265625</LatitudeDegrees>
              <LongitudeDegrees>-8.396881632506847381591796875</LongitudeDegrees>
            </Position>
            <AltitudeMeters>3.400000095367431640625</AltitudeMeters>
            <DistanceMeters>107679.84189747</DistanceMeters>
          </Trackpoint>
          <Trackpoint>
            <Time>2018-04-21T15:34:00.000Z</Time>
            <Position>
              <LatitudeDegrees>43.38145324029028415679931640625</LatitudeDegrees>
              <LongitudeDegrees>-8.39721732772886753082275390625</LongitudeDegrees>
            </Position>
            <AltitudeMeters>2.2000000476837158203125</AltitudeMeters>
            <DistanceMeters>107711.30377741</DistanceMeters>
          </Trackpoint>
          <Trackpoint>
            <Time>2018-04-21T15:34:01.000Z</Time>
            <Position>
              <LatitudeDegrees>43.381473608314990997314453125</LatitudeDegrees>
              <LongitudeDegrees>-8.39726619422435760498046875</LongitudeDegrees>
            </Position>
            <AltitudeMeters>2</AltitudeMeters>
            <DistanceMeters>107715.85911666</DistanceMeters>
          </Trackpoint>
          <Trackpoint>
            <Time>2018-04-21T15:34:06.000Z</Time>
            <Position>
              <LatitudeDegrees>43.38154359720647335052490234375</LatitudeDegrees>
              <LongitudeDegrees>-8.3974785916507244110107421875</LongitudeDegrees>
            </Position>
            <AltitudeMeters>2.400000095367431640625</AltitudeMeters>
            <DistanceMeters>107734.7242531</DistanceMeters>
          </Trackpoint>
          <Trackpoint>
            <Time>2018-04-21T15:34:10.000Z</Time>
            <Position>
              <LatitudeDegrees>43.38159992359578609466552734375</LatitudeDegrees>
              <LongitudeDegrees>-8.39757942594587802886962890625</LongitudeDegrees>
            </Position>
            <AltitudeMeters>3</AltitudeMeters>
            <DistanceMeters>107745.0117453</DistanceMeters>
          </Trackpoint>
          <Trackpoint>
            <Time>2018-04-21T15:34:11.000Z</Time>
            <Position>
              <LatitudeDegrees>43.38162808679044246673583984375</LatitudeDegrees>
              <LongitudeDegrees>-8.3975935913622379302978515625</LongitudeDegrees>
            </Position>
            <AltitudeMeters>3.400000095367431640625</AltitudeMeters>
            <DistanceMeters>107748.34852283</DistanceMeters>
          </Trackpoint>
          <Trackpoint>
            <Time>2018-04-21T15:34:13.000Z</Time>
            <Position>
              <LatitudeDegrees>43.38169782422482967376708984375</LatitudeDegrees>
              <LongitudeDegrees>-8.39758805930614471435546875</LongitudeDegrees>
            </Position>
            <AltitudeMeters>3.7999999523162841796875</AltitudeMeters>
            <DistanceMeters>107756.12273029</DistanceMeters>
          </Trackpoint>
          <Trackpoint>
            <Time>2018-04-21T15:34:15.000Z</Time>
            <Position>
              <LatitudeDegrees>43.381769992411136627197265625</LatitudeDegrees>
              <LongitudeDegrees>-8.39757640846073627471923828125</LongitudeDegrees>
            </Position>
            <AltitudeMeters>3.2000000476837158203125</AltitudeMeters>
            <DistanceMeters>107764.2094981</DistanceMeters>
          </Trackpoint>
          <Trackpoint>
            <Time>2018-04-21T15:34:19.000Z</Time>
            <Position>
              <LatitudeDegrees>43.38191675953567028045654296875</LatitudeDegrees>
              <LongitudeDegrees>-8.397471718490123748779296875</LongitudeDegrees>
            </Position>
            <AltitudeMeters>3.400000095367431640625</AltitudeMeters>
            <DistanceMeters>107782.60937924</DistanceMeters>
          </Trackpoint>
          <Trackpoint>
            <Time>2018-04-21T15:34:20.000Z</Time>
            <Position>
              <LatitudeDegrees>43.38195003569126129150390625</LatitudeDegrees>
              <LongitudeDegrees>-8.3974326588213443756103515625</LongitudeDegrees>
            </Position>
            <AltitudeMeters>3.400000095367431640625</AltitudeMeters>
            <DistanceMeters>107787.47804956</DistanceMeters>
          </Trackpoint>
          <Trackpoint>
            <Time>2018-04-21T15:34:26.000Z</Time>
            <Position>
              <LatitudeDegrees>43.38213368318974971771240234375</LatitudeDegrees>
              <LongitudeDegrees>-8.3971775136888027191162109375</LongitudeDegrees>
            </Position>
            <AltitudeMeters>3.2000000476837158203125</AltitudeMeters>
            <DistanceMeters>107816.52639656</DistanceMeters>
          </Trackpoint>
          <Trackpoint>
            <Time>2018-04-21T15:34:32.000Z</Time>
            <Position>
              <LatitudeDegrees>43.38224650360643863677978515625</LatitudeDegrees>
              <LongitudeDegrees>-8.39693167246878147125244140625</LongitudeDegrees>
            </Position>
            <AltitudeMeters>4</AltitudeMeters>
            <DistanceMeters>107840.04584431</DistanceMeters>
          </Trackpoint>
          <Trackpoint>
            <Time>2018-04-21T15:34:33.000Z</Time>
            <Position>
              <LatitudeDegrees>43.38226041756570339202880859375</LatitudeDegrees>
              <LongitudeDegrees>-8.3968988992273807525634765625</LongitudeDegrees>
            </Position>
            <AltitudeMeters>4.400000095367431640625</AltitudeMeters>
            <DistanceMeters>107843.11772157</DistanceMeters>
          </Trackpoint>
          <Trackpoint>
            <Time>2018-04-21T15:34:37.000Z</Time>
            <Position>
              <LatitudeDegrees>43.38230785913765430450439453125</LatitudeDegrees>
              <LongitudeDegrees>-8.3967872522771358489990234375</LongitudeDegrees>
            </Position>
            <AltitudeMeters>5.599999904632568359375</AltitudeMeters>
            <DistanceMeters>107853.57929538</DistanceMeters>
          </Trackpoint>
          <Trackpoint>
            <Time>2018-04-21T15:34:39.000Z</Time>
            <Position>
              <LatitudeDegrees>43.38233501650393009185791015625</LatitudeDegrees>
              <LongitudeDegrees>-8.3967371284961700439453125</LongitudeDegrees>
            </Position>
            <AltitudeMeters>6.19999980926513671875</AltitudeMeters>
            <DistanceMeters>107858.63628821</DistanceMeters>
          </Trackpoint>
          <Trackpoint>
            <Time>2018-04-21T15:34:42.000Z</Time>
            <Position>
              <LatitudeDegrees>43.38236301206052303314208984375</LatitudeDegrees>
              <LongitudeDegrees>-8.3966434188187122344970703125</LongitudeDegrees>
            </Position>
            <AltitudeMeters>6.599999904632568359375</AltitudeMeters>
            <DistanceMeters>107866.83120605</DistanceMeters>
          </Trackpoint>
          <Trackpoint>
            <Time>2018-04-21T15:34:43.000Z</Time>
            <Position>
              <LatitudeDegrees>43.38236787356436252593994140625</LatitudeDegrees>
              <LongitudeDegrees>-8.3965984918177127838134765625</LongitudeDegrees>
            </Position>
            <AltitudeMeters>6.80000019073486328125</AltitudeMeters>
            <DistanceMeters>107870.50543581</DistanceMeters>
          </Trackpoint>
          <Trackpoint>
            <Time>2018-04-21T15:34:46.000Z</Time>
            <Position>
              <LatitudeDegrees>43.38235110975801944732666015625</LatitudeDegrees>
              <LongitudeDegrees>-8.3964241482317447662353515625</LongitudeDegrees>
            </Position>
            <AltitudeMeters>6.80000019073486328125</AltitudeMeters>
            <DistanceMeters>107884.73090638</DistanceMeters>
          </Trackpoint>
          <Trackpoint>
            <Time>2018-04-21T15:34:47.000Z</Time>
            <Position>
              <LatitudeDegrees>43.38232956826686859130859375</LatitudeDegrees>
              <LongitudeDegrees>-8.39635835029184818267822265625</LongitudeDegrees>
            </Position>
            <AltitudeMeters>6.80000019073486328125</AltitudeMeters>
            <DistanceMeters>107890.56789862</DistanceMeters>
          </Trackpoint>
          <Trackpoint>
            <Time>2018-04-21T15:34:50.000Z</Time>
            <Position>
              <LatitudeDegrees>43.38224801234900951385498046875</LatitudeDegrees>
              <LongitudeDegrees>-8.3961327932775020599365234375</LongitudeDegrees>
            </Position>
            <AltitudeMeters>5.599999904632568359375</AltitudeMeters>
            <DistanceMeters>107910.94708594</DistanceMeters>
          </Trackpoint>
          <Trackpoint>
            <Time>2018-04-21T15:34:52.000Z</Time>
            <Position>
              <LatitudeDegrees>43.38218699209392070770263671875</LatitudeDegrees>
              <LongitudeDegrees>-8.3959634788334369659423828125</LongitudeDegrees>
            </Position>
            <AltitudeMeters>5</AltitudeMeters>
            <DistanceMeters>107926.23516851</DistanceMeters>
          </Trackpoint>
          <Trackpoint>
            <Time>2018-04-21T15:34:54.000Z</Time>
            <Position>
              <LatitudeDegrees>43.38212647475302219390869140625</LatitudeDegrees>
              <LongitudeDegrees>-8.39579164981842041015625</LongitudeDegrees>
            </Position>
            <AltitudeMeters>4.400000095367431640625</AltitudeMeters>
            <DistanceMeters>107941.68102943</DistanceMeters>
          </Trackpoint>
          <Trackpoint>
            <Time>2018-04-21T15:34:58.000Z</Time>
            <Position>
              <LatitudeDegrees>43.3820377103984355926513671875</LatitudeDegrees>
              <LongitudeDegrees>-8.39543449692428112030029296875</LongitudeDegrees>
            </Position>
            <AltitudeMeters>3.7999999523162841796875</AltitudeMeters>
            <DistanceMeters>107972.21478522</DistanceMeters>
          </Trackpoint>
          <Trackpoint>
            <Time>2018-04-21T15:35:01.000Z</Time>
            <Position>
              <LatitudeDegrees>43.3819911070168018341064453125</LatitudeDegrees>
              <LongitudeDegrees>-8.39517214335501194000244140625</LongitudeDegrees>
            </Position>
            <AltitudeMeters>3.400000095367431640625</AltitudeMeters>
            <DistanceMeters>107994.06204479</DistanceMeters>
          </Trackpoint>
          <Trackpoint>
            <Time>2018-04-21T15:35:04.000Z</Time>
            <Position>
              <LatitudeDegrees>43.38196151889860630035400390625</LatitudeDegrees>
              <LongitudeDegrees>-8.39491817168891429901123046875</LongitudeDegrees>
            </Position>
            <AltitudeMeters>3.599999904632568359375</AltitudeMeters>
            <DistanceMeters>108014.86898966</DistanceMeters>
          </Trackpoint>
          <Trackpoint>
            <Time>2018-04-21T15:35:05.000Z</Time>
            <Position>
              <LatitudeDegrees>43.3819602616131305694580078125</LatitudeDegrees>
              <LongitudeDegrees>-8.39483611285686492919921875</LongitudeDegrees>
            </Position>
            <AltitudeMeters>3.599999904632568359375</AltitudeMeters>
            <DistanceMeters>108021.50931068</DistanceMeters>
          </Trackpoint>
          <Trackpoint>
            <Time>2018-04-21T15:35:08.000Z</Time>
            <Position>
              <LatitudeDegrees>43.3819642849266529083251953125</LatitudeDegrees>
              <LongitudeDegrees>-8.394592702388763427734375</LongitudeDegrees>
            </Position>
            <AltitudeMeters>4</AltitudeMeters>
            <DistanceMeters>108041.20461454</DistanceMeters>
          </Trackpoint>
          <Trackpoint>
            <Time>2018-04-21T15:35:11.000Z</Time>
            <Position>
              <LatitudeDegrees>43.38199487887322902679443359375</LatitudeDegrees>
              <LongitudeDegrees>-8.394377790391445159912109375</LongitudeDegrees>
            </Position>
            <AltitudeMeters>4</AltitudeMeters>
            <DistanceMeters>108058.91989824</DistanceMeters>
          </Trackpoint>
          <Trackpoint>
            <Time>2018-04-21T15:35:12.000Z</Time>
            <Position>
              <LatitudeDegrees>43.38200443424284458160400390625</LatitudeDegrees>
              <LongitudeDegrees>-8.39431308209896087646484375</LongitudeDegrees>
            </Position>
            <AltitudeMeters>3.7999999523162841796875</AltitudeMeters>
            <DistanceMeters>108064.26087301</DistanceMeters>
          </Trackpoint>
          <Trackpoint>
            <Time>2018-04-21T15:35:14.000Z</Time>
            <Position>
              <LatitudeDegrees>43.38203108869493007659912109375</LatitudeDegrees>
              <LongitudeDegrees>-8.394184000790119171142578125</LongitudeDegrees>
            </Position>
            <AltitudeMeters>3.2000000476837158203125</AltitudeMeters>
            <DistanceMeters>108075.11556957</DistanceMeters>
          </Trackpoint>
          <Trackpoint>
            <Time>2018-04-21T15:35:15.000Z</Time>
            <Position>
              <LatitudeDegrees>43.3820487745106220245361328125</LatitudeDegrees>
              <LongitudeDegrees>-8.39412289671599864959716796875</LongitudeDegrees>
            </Position>
            <AltitudeMeters>2.7999999523162841796875</AltitudeMeters>
            <DistanceMeters>108080.43706558</DistanceMeters>
          </Trackpoint>
          <Trackpoint>
            <Time>2018-04-21T15:35:16.000Z</Time>
            <Position>
              <LatitudeDegrees>43.382073752582073211669921875</LatitudeDegrees>
              <LongitudeDegrees>-8.39406187646090984344482421875</LongitudeDegrees>
            </Position>
            <AltitudeMeters>2.7999999523162841796875</AltitudeMeters>
            <DistanceMeters>108086.10292136</DistanceMeters>
          </Trackpoint>
          <Trackpoint>
            <Time>2018-04-21T15:35:19.000Z</Time>
            <Position>
              <LatitudeDegrees>43.3821666240692138671875</LatitudeDegrees>
              <LongitudeDegrees>-8.39389272965490818023681640625</LongitudeDegrees>
            </Position>
            <AltitudeMeters>3.400000095367431640625</AltitudeMeters>
            <DistanceMeters>108103.25149184</DistanceMeters>
          </Trackpoint>
          <Trackpoint>
            <Time>2018-04-21T15:35:21.000Z</Time>
            <Position>
              <LatitudeDegrees>43.38224767707288265228271484375</LatitudeDegrees>
              <LongitudeDegrees>-8.39379801414906978607177734375</LongitudeDegrees>
            </Position>
            <AltitudeMeters>3.599999904632568359375</AltitudeMeters>
            <DistanceMeters>108115.08794553</DistanceMeters>
          </Trackpoint>
          <Trackpoint>
            <Time>2018-04-21T15:35:22.000Z</Time>
            <Position>
              <LatitudeDegrees>43.382291682064533233642578125</LatitudeDegrees>
              <LongitudeDegrees>-8.393754847347736358642578125</LongitudeDegrees>
            </Position>
            <AltitudeMeters>3.2000000476837158203125</AltitudeMeters>
            <DistanceMeters>108121.10396967</DistanceMeters>
          </Trackpoint>
          <Trackpoint>
            <Time>2018-04-21T15:35:25.000Z</Time>
            <Position>
              <LatitudeDegrees>43.38244364596903324127197265625</LatitudeDegrees>
              <LongitudeDegrees>-8.3936701901257038116455078125</LongitudeDegrees>
            </Position>
            <AltitudeMeters>3.400000095367431640625</AltitudeMeters>
            <DistanceMeters>108139.35157331</DistanceMeters>
          </Trackpoint>
          <Trackpoint>
            <Time>2018-04-21T15:35:30.000Z</Time>
            <Position>
              <LatitudeDegrees>43.38270599953830242156982421875</LatitudeDegrees>
              <LongitudeDegrees>-8.393669687211513519287109375</LongitudeDegrees>
            </Position>
            <AltitudeMeters>3.599999904632568359375</AltitudeMeters>
            <DistanceMeters>108168.55200085</DistanceMeters>
          </Trackpoint>
          <Trackpoint>
            <Time>2018-04-21T15:35:33.000Z</Time>
            <Position>
              <LatitudeDegrees>43.38285519741475582122802734375</LatitudeDegrees>
              <LongitudeDegrees>-8.393754847347736358642578125</LongitudeDegrees>
            </Position>
            <AltitudeMeters>3.400000095367431640625</AltitudeMeters>
            <DistanceMeters>108186.53014108</DistanceMeters>
          </Trackpoint>
          <Trackpoint>
            <Time>2018-04-21T15:35:35.000Z</Time>
            <Position>
              <LatitudeDegrees>43.3829553611576557159423828125</LatitudeDegrees>
              <LongitudeDegrees>-8.39382818900048732757568359375</LongitudeDegrees>
            </Position>
            <AltitudeMeters>4</AltitudeMeters>
            <DistanceMeters>108199.15904484</DistanceMeters>
          </Trackpoint>
          <Trackpoint>
            <Time>2018-04-21T15:35:36.000Z</Time>
            <Position>
              <LatitudeDegrees>43.3830036409199237823486328125</LatitudeDegrees>
              <LongitudeDegrees>-8.39386523701250553131103515625</LongitudeDegrees>
            </Position>
            <AltitudeMeters>4.599999904632568359375</AltitudeMeters>
            <DistanceMeters>108205.31161182</DistanceMeters>
          </Trackpoint>
          <Trackpoint>
            <Time>2018-04-21T15:35:42.000Z</Time>
            <Position>
              <LatitudeDegrees>43.3832748793065547943115234375</LatitudeDegrees>
              <LongitudeDegrees>-8.39409590698778629302978515625</LongitudeDegrees>
            </Position>
            <AltitudeMeters>4.599999904632568359375</AltitudeMeters>
            <DistanceMeters>108240.80202239</DistanceMeters>
          </Trackpoint>
          <Trackpoint>
            <Time>2018-04-21T15:35:44.000Z</Time>
            <Position>
              <LatitudeDegrees>43.38335576467216014862060546875</LatitudeDegrees>
              <LongitudeDegrees>-8.3941855095326900482177734375</LongitudeDegrees>
            </Position>
            <AltitudeMeters>4.400000095367431640625</AltitudeMeters>
            <DistanceMeters>108252.36017756</DistanceMeters>
          </Trackpoint>
          <Trackpoint>
            <Time>2018-04-21T15:35:47.000Z</Time>
            <Position>
              <LatitudeDegrees>43.38346623815596103668212890625</LatitudeDegrees>
              <LongitudeDegrees>-8.39433512650430202484130859375</LongitudeDegrees>
            </Position>
            <AltitudeMeters>6.599999904632568359375</AltitudeMeters>
            <DistanceMeters>108269.61321903</DistanceMeters>
          </Trackpoint>
          <Trackpoint>
            <Time>2018-04-21T15:35:50.000Z</Time>
            <Position>
              <LatitudeDegrees>43.383560366928577423095703125</LatitudeDegrees>
              <LongitudeDegrees>-8.394471667706966400146484375</LongitudeDegrees>
            </Position>
            <AltitudeMeters>5</AltitudeMeters>
            <DistanceMeters>108284.83678339</DistanceMeters>
          </Trackpoint>
          <Trackpoint>
            <Time>2018-04-21T15:35:51.000Z</Time>
            <Position>
              <LatitudeDegrees>43.38359288871288299560546875</LatitudeDegrees>
              <LongitudeDegrees>-8.39451567269861698150634765625</LongitudeDegrees>
            </Position>
            <AltitudeMeters>4.80000019073486328125</AltitudeMeters>
            <DistanceMeters>108289.9133805</DistanceMeters>
          </Trackpoint>
          <Trackpoint>
            <Time>2018-04-21T15:35:52.000Z</Time>
            <Position>
              <LatitudeDegrees>43.38363111019134521484375</LatitudeDegrees>
              <LongitudeDegrees>-8.39454970322549343109130859375</LongitudeDegrees>
            </Position>
            <AltitudeMeters>4.599999904632568359375</AltitudeMeters>
            <DistanceMeters>108294.98107597</DistanceMeters>
          </Trackpoint>
          <Trackpoint>
            <Time>2018-04-21T15:35:54.000Z</Time>
            <Position>
              <LatitudeDegrees>43.38371115736663341522216796875</LatitudeDegrees>
              <LongitudeDegrees>-8.394581973552703857421875</LongitudeDegrees>
            </Position>
            <AltitudeMeters>4.599999904632568359375</AltitudeMeters>
            <DistanceMeters>108304.26553125</DistanceMeters>
          </Trackpoint>
          <Trackpoint>
            <Time>2018-04-21T15:35:58.000Z</Time>
            <Position>
              <LatitudeDegrees>43.38386253453791141510009765625</LatitudeDegrees>
              <LongitudeDegrees>-8.39453210122883319854736328125</LongitudeDegrees>
            </Position>
            <AltitudeMeters>4.80000019073486328125</AltitudeMeters>
            <DistanceMeters>108321.59012881</DistanceMeters>
          </Trackpoint>
          <Trackpoint>
            <Time>2018-04-21T15:36:01.000Z</Time>
            <Position>
              <LatitudeDegrees>43.3839387260377407073974609375</LatitudeDegrees>
              <LongitudeDegrees>-8.39442439377307891845703125</LongitudeDegrees>
            </Position>
            <AltitudeMeters>5.400000095367431640625</AltitudeMeters>
            <DistanceMeters>108333.74835037</DistanceMeters>
          </Trackpoint>
          <Trackpoint>
            <Time>2018-04-21T15:36:04.000Z</Time>
            <Position>
              <LatitudeDegrees>43.3840201981365680694580078125</LatitudeDegrees>
              <LongitudeDegrees>-8.3943311870098114013671875</LongitudeDegrees>
            </Position>
            <AltitudeMeters>5.599999904632568359375</AltitudeMeters>
            <DistanceMeters>108345.5408555</DistanceMeters>
          </Trackpoint>
          <Trackpoint>
            <Time>2018-04-21T15:36:06.000Z</Time>
            <Position>
              <LatitudeDegrees>43.38407107628881931304931640625</LatitudeDegrees>
              <LongitudeDegrees>-8.39427527971565723419189453125</LongitudeDegrees>
            </Position>
            <AltitudeMeters>6</AltitudeMeters>
            <DistanceMeters>108352.78784967</DistanceMeters>
          </Trackpoint>
          <Trackpoint>
            <Time>2018-04-21T15:36:09.000Z</Time>
            <Position>
              <LatitudeDegrees>43.38415154255926609039306640625</LatitudeDegrees>
              <LongitudeDegrees>-8.39420487172901630401611328125</LongitudeDegrees>
            </Position>
            <AltitudeMeters>6.80000019073486328125</AltitudeMeters>
            <DistanceMeters>108363.4015297</DistanceMeters>
          </Trackpoint>
          <Trackpoint>
            <Time>2018-04-21T15:36:12.000Z</Time>
            <Position>
              <LatitudeDegrees>43.384244330227375030517578125</LatitudeDegrees>
              <LongitudeDegrees>-8.39413513429462909698486328125</LongitudeDegrees>
            </Position>
            <AltitudeMeters>7</AltitudeMeters>
            <DistanceMeters>108375.16912173</DistanceMeters>
          </Trackpoint>
          <Trackpoint>
            <Time>2018-04-21T15:36:16.000Z</Time>
            <Position>
              <LatitudeDegrees>43.38438707403838634490966796875</LatitudeDegrees>
              <LongitudeDegrees>-8.39408702217042446136474609375</LongitudeDegrees>
            </Position>
            <AltitudeMeters>8.19999980926513671875</AltitudeMeters>
            <DistanceMeters>108391.52669475</DistanceMeters>
          </Trackpoint>
          <Trackpoint>
            <Time>2018-04-21T15:36:18.000Z</Time>
            <Position>
              <LatitudeDegrees>43.38445647619664669036865234375</LatitudeDegrees>
              <LongitudeDegrees>-8.3940835855901241302490234375</LongitudeDegrees>
            </Position>
            <AltitudeMeters>9</AltitudeMeters>
            <DistanceMeters>108399.25605344</DistanceMeters>
          </Trackpoint>
          <Trackpoint>
            <Time>2018-04-21T15:36:19.000Z</Time>
            <Position>
              <LatitudeDegrees>43.384491764008998870849609375</LatitudeDegrees>
              <LongitudeDegrees>-8.394083417952060699462890625</LongitudeDegrees>
            </Position>
            <AltitudeMeters>9.3999996185302734375</AltitudeMeters>
            <DistanceMeters>108403.18331337</DistanceMeters>
          </Trackpoint>
          <Trackpoint>
            <Time>2018-04-21T15:36:22.000Z</Time>
            <Position>
              <LatitudeDegrees>43.38459611870348453521728515625</LatitudeDegrees>
              <LongitudeDegrees>-8.3940983377397060394287109375</LongitudeDegrees>
            </Position>
            <AltitudeMeters>10.6000003814697265625</AltitudeMeters>
            <DistanceMeters>108414.86039153</DistanceMeters>
          </Trackpoint>
          <Trackpoint>
            <Time>2018-04-21T15:36:24.000Z</Time>
            <Position>
              <LatitudeDegrees>43.38466577231884002685546875</LatitudeDegrees>
              <LongitudeDegrees>-8.39409691281616687774658203125</LongitudeDegrees>
            </Position>
            <AltitudeMeters>10.80000019073486328125</AltitudeMeters>
            <DistanceMeters>108422.61424534</DistanceMeters>
          </Trackpoint>
          <Trackpoint>
            <Time>2018-04-21T15:36:27.000Z</Time>
            <Position>
              <LatitudeDegrees>43.38477163575589656829833984375</LatitudeDegrees>
              <LongitudeDegrees>-8.39409456588327884674072265625</LongitudeDegrees>
            </Position>
            <AltitudeMeters>11.3999996185302734375</AltitudeMeters>
            <DistanceMeters>108434.39909051</DistanceMeters>
          </Trackpoint>
          <Trackpoint>
            <Time>2018-04-21T15:36:29.000Z</Time>
            <Position>
              <LatitudeDegrees>43.38484279811382293701171875</LatitudeDegrees>
              <LongitudeDegrees>-8.3941000141203403472900390625</LongitudeDegrees>
            </Position>
            <AltitudeMeters>11.6000003814697265625</AltitudeMeters>
            <DistanceMeters>108442.33197163</DistanceMeters>
          </Trackpoint>
          <Trackpoint>
            <Time>2018-04-21T15:36:31.000Z</Time>
            <Position>
              <LatitudeDegrees>43.38491815142333507537841796875</LatitudeDegrees>
              <LongitudeDegrees>-8.394122980535030364990234375</LongitudeDegrees>
            </Position>
            <AltitudeMeters>12</AltitudeMeters>
            <DistanceMeters>108450.92230251</DistanceMeters>
          </Trackpoint>
          <Trackpoint>
            <Time>2018-04-21T15:36:33.000Z</Time>
            <Position>
              <LatitudeDegrees>43.38499040342867374420166015625</LatitudeDegrees>
              <LongitudeDegrees>-8.3941593579947948455810546875</LongitudeDegrees>
            </Position>
            <AltitudeMeters>13</AltitudeMeters>
            <DistanceMeters>108459.48525882</DistanceMeters>
          </Trackpoint>
          <Trackpoint>
            <Time>2018-04-21T15:36:36.000Z</Time>
            <Position>
              <LatitudeDegrees>43.38508042506873607635498046875</LatitudeDegrees>
              <LongitudeDegrees>-8.39425097219645977020263671875</LongitudeDegrees>
            </Position>
            <AltitudeMeters>13.3999996185302734375</AltitudeMeters>
            <DistanceMeters>108471.94717098</DistanceMeters>
          </Trackpoint>
          <Trackpoint>
            <Time>2018-04-21T15:36:42.000Z</Time>
            <Position>
              <LatitudeDegrees>43.38518603704869747161865234375</LatitudeDegrees>
              <LongitudeDegrees>-8.3945377171039581298828125</LongitudeDegrees>
            </Position>
            <AltitudeMeters>13.19999980926513671875</AltitudeMeters>
            <DistanceMeters>108497.95013358</DistanceMeters>
          </Trackpoint>
          <Trackpoint>
            <Time>2018-04-21T15:36:51.000Z</Time>
            <Position>
              <LatitudeDegrees>43.3852238394320011138916015625</LatitudeDegrees>
              <LongitudeDegrees>-8.39505597017705440521240234375</LongitudeDegrees>
            </Position>
            <AltitudeMeters>12.80000019073486328125</AltitudeMeters>
            <DistanceMeters>108540.08170389</DistanceMeters>
          </Trackpoint>
          <Trackpoint>
            <Time>2018-04-21T15:36:58.000Z</Time>
            <Position>
              <LatitudeDegrees>43.385257534682750701904296875</LatitudeDegrees>
              <LongitudeDegrees>-8.39544271118938922882080078125</LongitudeDegrees>
            </Position>
            <AltitudeMeters>13</AltitudeMeters>
            <DistanceMeters>108571.58875649</DistanceMeters>
          </Trackpoint>
          <Trackpoint>
            <Time>2018-04-21T15:37:00.000Z</Time>
            <Position>
              <LatitudeDegrees>43.38527203537523746490478515625</LatitudeDegrees>
              <LongitudeDegrees>-8.3955531008541584014892578125</LongitudeDegrees>
            </Position>
            <AltitudeMeters>13.19999980926513671875</AltitudeMeters>
            <DistanceMeters>108580.66268822</DistanceMeters>
          </Trackpoint>
          <Trackpoint>
            <Time>2018-04-21T15:37:09.000Z</Time>
            <Position>
              <LatitudeDegrees>43.38531595654785633087158203125</LatitudeDegrees>
              <LongitudeDegrees>-8.39604469947516918182373046875</LongitudeDegrees>
            </Position>
            <AltitudeMeters>13</AltitudeMeters>
            <DistanceMeters>108620.72701485</DistanceMeters>
          </Trackpoint>
          <Trackpoint>
            <Time>2018-04-21T15:37:15.000Z</Time>
            <Position>
              <LatitudeDegrees>43.3853475563228130340576171875</LatitudeDegrees>
              <LongitudeDegrees>-8.39634259231388568878173828125</LongitudeDegrees>
            </Position>
            <AltitudeMeters>14.19999980926513671875</AltitudeMeters>
            <DistanceMeters>108645.07852589</DistanceMeters>
          </Trackpoint>
          <Trackpoint>
            <Time>2018-04-21T15:37:18.000Z</Time>
            <Position>
              <LatitudeDegrees>43.385368175804615020751953125</LatitudeDegrees>
              <LongitudeDegrees>-8.3964818157255649566650390625</LongitudeDegrees>
            </Position>
            <AltitudeMeters>14.6000003814697265625</AltitudeMeters>
            <DistanceMeters>108656.5712596</DistanceMeters>
          </Trackpoint>
          <Trackpoint>
            <Time>2018-04-21T15:37:24.000Z</Time>
            <Position>
              <LatitudeDegrees>43.38541838340461254119873046875</LatitudeDegrees>
              <LongitudeDegrees>-8.39674710296094417572021484375</LongitudeDegrees>
            </Position>
            <AltitudeMeters>15.19999980926513671875</AltitudeMeters>
            <DistanceMeters>108678.7456981</DistanceMeters>
          </Trackpoint>
          <Trackpoint>
            <Time>2018-04-21T15:37:25.000Z</Time>
            <Position>
              <LatitudeDegrees>43.385435231029987335205078125</LatitudeDegrees>
              <LongitudeDegrees>-8.396786749362945556640625</LongitudeDegrees>
            </Position>
            <AltitudeMeters>15.3999996185302734375</AltitudeMeters>
            <DistanceMeters>108682.46025821</DistanceMeters>
          </Trackpoint>
          <Trackpoint>
            <Time>2018-04-21T15:37:29.000Z</Time>
            <Position>
              <LatitudeDegrees>43.385511003434658050537109375</LatitudeDegrees>
              <LongitudeDegrees>-8.3969382941722869873046875</LongitudeDegrees>
            </Position>
            <AltitudeMeters>16.200000762939453125</AltitudeMeters>
            <DistanceMeters>108697.33914775</DistanceMeters>
          </Trackpoint>
          <Trackpoint>
            <Time>2018-04-21T15:37:33.000Z</Time>
            <Position>
              <LatitudeDegrees>43.385596834123134613037109375</LatitudeDegrees>
              <LongitudeDegrees>-8.39706108905375003814697265625</LongitudeDegrees>
            </Position>
            <AltitudeMeters>16.799999237060546875</AltitudeMeters>
            <DistanceMeters>108711.12064251</DistanceMeters>
          </Trackpoint>
          <Trackpoint>
            <Time>2018-04-21T15:37:38.000Z</Time>
            <Position>
              <LatitudeDegrees>43.38571459986269474029541015625</LatitudeDegrees>
              <LongitudeDegrees>-8.39719654060900211334228515625</LongitudeDegrees>
            </Position>
            <AltitudeMeters>17.200000762939453125</AltitudeMeters>
            <DistanceMeters>108728.204321</DistanceMeters>
          </Trackpoint>
          <Trackpoint>
            <Time>2018-04-21T15:37:41.000Z</Time>
            <Position>
              <LatitudeDegrees>43.3857864327728748321533203125</LatitudeDegrees>
              <LongitudeDegrees>-8.39728371240198612213134765625</LongitudeDegrees>
            </Position>
            <AltitudeMeters>17.799999237060546875</AltitudeMeters>
            <DistanceMeters>108738.86511563</DistanceMeters>
          </Trackpoint>
          <Trackpoint>
            <Time>2018-04-21T15:37:44.000Z</Time>
            <Position>
              <LatitudeDegrees>43.38585910387337207794189453125</LatitudeDegrees>
              <LongitudeDegrees>-8.397369123995304107666015625</LongitudeDegrees>
            </Position>
            <AltitudeMeters>18.6000003814697265625</AltitudeMeters>
            <DistanceMeters>108749.5030157</DistanceMeters>
          </Trackpoint>
          <Trackpoint>
            <Time>2018-04-21T15:37:47.000Z</Time>
            <Position>
              <LatitudeDegrees>43.38593873195350170135498046875</LatitudeDegrees>
              <LongitudeDegrees>-8.39745202101767063140869140625</LongitudeDegrees>
            </Position>
            <AltitudeMeters>18.799999237060546875</AltitudeMeters>
            <DistanceMeters>108760.61626705</DistanceMeters>
          </Trackpoint>
          <Trackpoint>
            <Time>2018-04-21T15:37:50.000Z</Time>
            <Position>
              <LatitudeDegrees>43.386023305356502532958984375</LatitudeDegrees>
              <LongitudeDegrees>-8.39754103682935237884521484375</LongitudeDegrees>
            </Position>
            <AltitudeMeters>19.6000003814697265625</AltitudeMeters>
            <DistanceMeters>108772.46720705</DistanceMeters>
          </Trackpoint>
          <Trackpoint>
            <Time>2018-04-21T15:37:56.000Z</Time>
            <Position>
              <LatitudeDegrees>43.3861971460282802581787109375</LatitudeDegrees>
              <LongitudeDegrees>-8.39773382060229778289794921875</LongitudeDegrees>
            </Position>
            <AltitudeMeters>19.799999237060546875</AltitudeMeters>
            <DistanceMeters>108797.31773759</DistanceMeters>
          </Trackpoint>
          <Trackpoint>
            <Time>2018-04-21T15:38:03.000Z</Time>
            <Position>
              <LatitudeDegrees>43.38638984598219394683837890625</LatitudeDegrees>
              <LongitudeDegrees>-8.39802081696689128875732421875</LongitudeDegrees>
            </Position>
            <AltitudeMeters>20.6000003814697265625</AltitudeMeters>
            <DistanceMeters>108828.92351422</DistanceMeters>
          </Trackpoint>
          <Trackpoint>
            <Time>2018-04-21T15:38:04.000Z</Time>
            <Position>
              <LatitudeDegrees>43.38640895672142505645751953125</LatitudeDegrees>
              <LongitudeDegrees>-8.39806859381496906280517578125</LongitudeDegrees>
            </Position>
            <AltitudeMeters>21</AltitudeMeters>
            <DistanceMeters>108833.33586561</DistanceMeters>
          </Trackpoint>
          <Trackpoint>
            <Time>2018-04-21T15:38:09.000Z</Time>
            <Position>
              <LatitudeDegrees>43.38644818402826786041259765625</LatitudeDegrees>
              <LongitudeDegrees>-8.39832843281328678131103515625</LongitudeDegrees>
            </Position>
            <AltitudeMeters>20.3999996185302734375</AltitudeMeters>
            <DistanceMeters>108854.80223002</DistanceMeters>
          </Trackpoint>
          <Trackpoint>
            <Time>2018-04-21T15:38:14.000Z</Time>
            <Position>
              <LatitudeDegrees>43.386389426887035369873046875</LatitudeDegrees>
              <LongitudeDegrees>-8.39858441613614559173583984375</LongitudeDegrees>
            </Position>
            <AltitudeMeters>20</AltitudeMeters>
            <DistanceMeters>108876.51619814</DistanceMeters>
          </Trackpoint>
          <Trackpoint>
            <Time>2018-04-21T15:38:15.000Z</Time>
            <Position>
              <LatitudeDegrees>43.3863708190619945526123046875</LatitudeDegrees>
              <LongitudeDegrees>-8.39863034896552562713623046875</LongitudeDegrees>
            </Position>
            <AltitudeMeters>19.799999237060546875</AltitudeMeters>
            <DistanceMeters>108880.7701696</DistanceMeters>
          </Trackpoint>
          <Trackpoint>
            <Time>2018-04-21T15:38:18.000Z</Time>
            <Position>
              <LatitudeDegrees>43.38631357066333293914794921875</LatitudeDegrees>
              <LongitudeDegrees>-8.39876823127269744873046875</LongitudeDegrees>
            </Position>
            <AltitudeMeters>19.799999237060546875</AltitudeMeters>
            <DistanceMeters>108893.61530707</DistanceMeters>
          </Trackpoint>
          <Trackpoint>
            <Time>2018-04-21T15:38:21.000Z</Time>
            <Position>
              <LatitudeDegrees>43.38627970777451992034912109375</LatitudeDegrees>
              <LongitudeDegrees>-8.39892522431910037994384765625</LongitudeDegrees>
            </Position>
            <AltitudeMeters>20.200000762939453125</AltitudeMeters>
            <DistanceMeters>108906.86190835</DistanceMeters>
          </Trackpoint>
          <Trackpoint>
            <Time>2018-04-21T15:38:29.000Z</Time>
            <Position>
              <LatitudeDegrees>43.3861403167247772216796875</LatitudeDegrees>
              <LongitudeDegrees>-8.3993343450129032135009765625</LongitudeDegrees>
            </Position>
            <AltitudeMeters>20</AltitudeMeters>
            <DistanceMeters>108943.41101598</DistanceMeters>
          </Trackpoint>
          <Trackpoint>
            <Time>2018-04-21T15:38:37.000Z</Time>
            <Position>
              <LatitudeDegrees>43.38597494177520275115966796875</LatitudeDegrees>
              <LongitudeDegrees>-8.3997849561274051666259765625</LongitudeDegrees>
            </Position>
            <AltitudeMeters>20.3999996185302734375</AltitudeMeters>
            <DistanceMeters>108984.24420634</DistanceMeters>
          </Trackpoint>
          <Trackpoint>
            <Time>2018-04-21T15:38:47.000Z</Time>
            <Position>
              <LatitudeDegrees>43.3857518993318080902099609375</LatitudeDegrees>
              <LongitudeDegrees>-8.400391303002834320068359375</LongitudeDegrees>
            </Position>
            <AltitudeMeters>20.6000003814697265625</AltitudeMeters>
            <DistanceMeters>109039.21516887</DistanceMeters>
          </Trackpoint>
          <Trackpoint>
            <Time>2018-04-21T15:38:54.000Z</Time>
            <Position>
              <LatitudeDegrees>43.38560027070343494415283203125</LatitudeDegrees>
              <LongitudeDegrees>-8.4007891081273555755615234375</LongitudeDegrees>
            </Position>
            <AltitudeMeters>21.200000762939453125</AltitudeMeters>
            <DistanceMeters>109075.55018361</DistanceMeters>
          </Trackpoint>
          <Trackpoint>
            <Time>2018-04-21T15:38:59.000Z</Time>
            <Position>
              <LatitudeDegrees>43.3854977600276470184326171875</LatitudeDegrees>
              <LongitudeDegrees>-8.40106428600847721099853515625</LongitudeDegrees>
            </Position>
            <AltitudeMeters>21.799999237060546875</AltitudeMeters>
            <DistanceMeters>109100.56279616</DistanceMeters>
          </Trackpoint>
          <Trackpoint>
            <Time>2018-04-21T15:39:02.000Z</Time>
            <Position>
              <LatitudeDegrees>43.385435231029987335205078125</LatitudeDegrees>
              <LongitudeDegrees>-8.401228822767734527587890625</LongitudeDegrees>
            </Position>
            <AltitudeMeters>21.799999237060546875</AltitudeMeters>
            <DistanceMeters>109115.58152711</DistanceMeters>
          </Trackpoint>
          <Trackpoint>
            <Time>2018-04-21T15:39:12.000Z</Time>
            <Position>
              <LatitudeDegrees>43.38523347862064838409423828125</LatitudeDegrees>
              <LongitudeDegrees>-8.40177540667355060577392578125</LongitudeDegrees>
            </Position>
            <AltitudeMeters>22.6000003814697265625</AltitudeMeters>
            <DistanceMeters>109165.1698138</DistanceMeters>
          </Trackpoint>
          <Trackpoint>
            <Time>2018-04-21T15:39:15.000Z</Time>
            <Position>
              <LatitudeDegrees>43.38517329655587673187255859375</LatitudeDegrees>
              <LongitudeDegrees>-8.4019404463469982147216796875</LongitudeDegrees>
            </Position>
            <AltitudeMeters>22.799999237060546875</AltitudeMeters>
            <DistanceMeters>109180.10564349</DistanceMeters>
          </Trackpoint>
          <Trackpoint>
            <Time>2018-04-21T15:39:21.000Z</Time>
            <Position>
              <LatitudeDegrees>43.38504522107541561126708984375</LatitudeDegrees>
              <LongitudeDegrees>-8.402242027223110198974609375</LongitudeDegrees>
            </Position>
            <AltitudeMeters>23.6000003814697265625</AltitudeMeters>
            <DistanceMeters>109208.35975607</DistanceMeters>
          </Trackpoint>
          <Trackpoint>
            <Time>2018-04-21T15:39:26.000Z</Time>
            <Position>
              <LatitudeDegrees>43.38498068042099475860595703125</LatitudeDegrees>
              <LongitudeDegrees>-8.40248753316700458526611328125</LongitudeDegrees>
            </Position>
            <AltitudeMeters>23.799999237060546875</AltitudeMeters>
            <DistanceMeters>109229.47771964</DistanceMeters>
          </Trackpoint>
          <Trackpoint>
            <Time>2018-04-21T15:39:27.000Z</Time>
            <Position>
              <LatitudeDegrees>43.38496877811849117279052734375</LatitudeDegrees>
              <LongitudeDegrees>-8.40253514237701892852783203125</LongitudeDegrees>
            </Position>
            <AltitudeMeters>24</AltitudeMeters>
            <DistanceMeters>109233.55169565</DistanceMeters>
          </Trackpoint>
          <Trackpoint>
            <Time>2018-04-21T15:39:31.000Z</Time>
            <Position>
              <LatitudeDegrees>43.3848877251148223876953125</LatitudeDegrees>
              <LongitudeDegrees>-8.402683921158313751220703125</LongitudeDegrees>
            </Position>
            <AltitudeMeters>24</AltitudeMeters>
            <DistanceMeters>109248.59235637</DistanceMeters>
          </Trackpoint>
          <Trackpoint>
            <Time>2018-04-21T15:39:32.000Z</Time>
            <Position>
              <LatitudeDegrees>43.384852521121501922607421875</LatitudeDegrees>
              <LongitudeDegrees>-8.40268467552959918975830078125</LongitudeDegrees>
            </Position>
            <AltitudeMeters>23.799999237060546875</AltitudeMeters>
            <DistanceMeters>109252.51271224</DistanceMeters>
          </Trackpoint>
          <Trackpoint>
            <Time>2018-04-21T15:39:35.000Z</Time>
            <Position>
              <LatitudeDegrees>43.38475638069212436676025390625</LatitudeDegrees>
              <LongitudeDegrees>-8.40258459560573101043701171875</LongitudeDegrees>
            </Position>
            <AltitudeMeters>23.3999996185302734375</AltitudeMeters>
            <DistanceMeters>109265.93067275</DistanceMeters>
          </Trackpoint>
          <Trackpoint>
            <Time>2018-04-21T15:39:40.000Z</Time>
            <Position>
              <LatitudeDegrees>43.38455940596759319305419921875</LatitudeDegrees>
              <LongitudeDegrees>-8.40238787233829498291015625</LongitudeDegrees>
            </Position>
            <AltitudeMeters>22.799999237060546875</AltitudeMeters>
            <DistanceMeters>109293.02078741</DistanceMeters>
          </Trackpoint>
          <Trackpoint>
            <Time>2018-04-21T15:39:48.000Z</Time>
            <Position>
              <LatitudeDegrees>43.38418431580066680908203125</LatitudeDegrees>
              <LongitudeDegrees>-8.40211160480976104736328125</LongitudeDegrees>
            </Position>
            <AltitudeMeters>22</AltitudeMeters>
            <DistanceMeters>109340.37403991</DistanceMeters>
          </Trackpoint>
          <Trackpoint>
            <Time>2018-04-21T15:39:52.000Z</Time>
            <Position>
              <LatitudeDegrees>43.3840027637779712677001953125</LatitudeDegrees>
              <LongitudeDegrees>-8.40197640471160411834716796875</LongitudeDegrees>
            </Position>
            <AltitudeMeters>21.799999237060546875</AltitudeMeters>
            <DistanceMeters>109363.35086278</DistanceMeters>
          </Trackpoint>
          <Trackpoint>
            <Time>2018-04-21T15:39:53.000Z</Time>
            <Position>
              <LatitudeDegrees>43.38395632803440093994140625</LatitudeDegrees>
              <LongitudeDegrees>-8.401961065828800201416015625</LongitudeDegrees>
            </Position>
            <AltitudeMeters>21.799999237060546875</AltitudeMeters>
            <DistanceMeters>109368.66726563</DistanceMeters>
          </Trackpoint>
          <Trackpoint>
            <Time>2018-04-21T15:39:54.000Z</Time>
            <Position>
              <LatitudeDegrees>43.38391165249049663543701171875</LatitudeDegrees>
              <LongitudeDegrees>-8.40194354765117168426513671875</LongitudeDegrees>
            </Position>
            <AltitudeMeters>21.799999237060546875</AltitudeMeters>
            <DistanceMeters>109373.83727785</DistanceMeters>
          </Trackpoint>
          <Trackpoint>
            <Time>2018-04-21T15:39:57.000Z</Time>
            <Position>
              <LatitudeDegrees>43.383787684142589569091796875</LatitudeDegrees>
              <LongitudeDegrees>-8.401872552931308746337890625</LongitudeDegrees>
            </Position>
            <AltitudeMeters>21.6000003814697265625</AltitudeMeters>
            <DistanceMeters>109388.78277787</DistanceMeters>
          </Trackpoint>
          <Trackpoint>
            <Time>2018-04-21T15:40:00.000Z</Time>
            <Position>
              <LatitudeDegrees>43.38367067277431488037109375</LatitudeDegrees>
              <LongitudeDegrees>-8.40177792124450206756591796875</LongitudeDegrees>
            </Position>
            <AltitudeMeters>22</AltitudeMeters>
            <DistanceMeters>109403.88933578</DistanceMeters>
          </Trackpoint>
          <Trackpoint>
            <Time>2018-04-21T15:40:02.000Z</Time>
            <Position>
              <LatitudeDegrees>43.3835954032838344573974609375</LatitudeDegrees>
              <LongitudeDegrees>-8.40172528289258480072021484375</LongitudeDegrees>
            </Position>
            <AltitudeMeters>22.3999996185302734375</AltitudeMeters>
            <DistanceMeters>109413.28737694</DistanceMeters>
          </Trackpoint>
          <Trackpoint>
            <Time>2018-04-21T15:40:05.000Z</Time>
            <Position>
              <LatitudeDegrees>43.383486270904541015625</LatitudeDegrees>
              <LongitudeDegrees>-8.40168119408190250396728515625</LongitudeDegrees>
            </Position>
            <AltitudeMeters>22.3999996185302734375</AltitudeMeters>
            <DistanceMeters>109425.9473464</DistanceMeters>
          </Trackpoint>
          <Trackpoint>
            <Time>2018-04-21T15:40:07.000Z</Time>
            <Position>
              <LatitudeDegrees>43.38342466391623020172119140625</LatitudeDegrees>
              <LongitudeDegrees>-8.40164900757372379302978515625</LongitudeDegrees>
            </Position>
            <AltitudeMeters>22.3999996185302734375</AltitudeMeters>
            <DistanceMeters>109433.28227622</DistanceMeters>
          </Trackpoint>
          <Trackpoint>
            <Time>2018-04-21T15:40:09.000Z</Time>
            <Position>
              <LatitudeDegrees>43.3833583630621433258056640625</LatitudeDegrees>
              <LongitudeDegrees>-8.401676081120967864990234375</LongitudeDegrees>
            </Position>
            <AltitudeMeters>22.6000003814697265625</AltitudeMeters>
            <DistanceMeters>109440.97885348</DistanceMeters>
          </Trackpoint>
          <Trackpoint>
            <Time>2018-04-21T15:40:10.000Z</Time>
            <Position>
              <LatitudeDegrees>43.38333480991423130035400390625</LatitudeDegrees>
              <LongitudeDegrees>-8.4017141349613666534423828125</LongitudeDegrees>
            </Position>
            <AltitudeMeters>22.799999237060546875</AltitudeMeters>
            <DistanceMeters>109445.02391201</DistanceMeters>
          </Trackpoint>
          <Trackpoint>
            <Time>2018-04-21T15:40:12.000Z</Time>
            <Position>
              <LatitudeDegrees>43.38331083767116069793701171875</LatitudeDegrees>
              <LongitudeDegrees>-8.40181949548423290252685546875</LongitudeDegrees>
            </Position>
            <AltitudeMeters>23</AltitudeMeters>
            <DistanceMeters>109453.95440109</DistanceMeters>
          </Trackpoint>
          <Trackpoint>
            <Time>2018-04-21T15:40:17.000Z</Time>
            <Position>
              <LatitudeDegrees>43.3833238296210765838623046875</LatitudeDegrees>
              <LongitudeDegrees>-8.4021496586501598358154296875</LongitudeDegrees>
            </Position>
            <AltitudeMeters>23.3999996185302734375</AltitudeMeters>
            <DistanceMeters>109480.70083423</DistanceMeters>
          </Trackpoint>
          <Trackpoint>
            <Time>2018-04-21T15:40:21.000Z</Time>
            <Position>
              <LatitudeDegrees>43.38333665393292903900146484375</LatitudeDegrees>
              <LongitudeDegrees>-8.4024524129927158355712890625</LongitudeDegrees>
            </Position>
            <AltitudeMeters>22.6000003814697265625</AltitudeMeters>
            <DistanceMeters>109505.23263899</DistanceMeters>
          </Trackpoint>
          <Trackpoint>
            <Time>2018-04-21T15:40:22.000Z</Time>
            <Position>
              <LatitudeDegrees>43.38333430700004100799560546875</LatitudeDegrees>
              <LongitudeDegrees>-8.40253212489187717437744140625</LongitudeDegrees>
            </Position>
            <AltitudeMeters>22.200000762939453125</AltitudeMeters>
            <DistanceMeters>109511.68606541</DistanceMeters>
          </Trackpoint>
          <Trackpoint>
            <Time>2018-04-21T15:40:23.000Z</Time>
            <Position>
              <LatitudeDegrees>43.3833312056958675384521484375</LatitudeDegrees>
              <LongitudeDegrees>-8.40261292643845081329345703125</LongitudeDegrees>
            </Position>
            <AltitudeMeters>21.799999237060546875</AltitudeMeters>
            <DistanceMeters>109518.23119204</DistanceMeters>
          </Trackpoint>
          <Trackpoint>
            <Time>2018-04-21T15:40:29.000Z</Time>
            <Position>
              <LatitudeDegrees>43.38327261619269847869873046875</LatitudeDegrees>
              <LongitudeDegrees>-8.40311299078166484832763671875</LongitudeDegrees>
            </Position>
            <AltitudeMeters>21.200000762939453125</AltitudeMeters>
            <DistanceMeters>109559.20434877</DistanceMeters>
          </Trackpoint>
          <Trackpoint>
            <Time>2018-04-21T15:40:31.000Z</Time>
            <Position>
              <LatitudeDegrees>43.383253253996372222900390625</LatitudeDegrees>
              <LongitudeDegrees>-8.40327694080770015716552734375</LongitudeDegrees>
            </Position>
            <AltitudeMeters>20.3999996185302734375</AltitudeMeters>
            <DistanceMeters>109572.64046756</DistanceMeters>
          </Trackpoint>
          <Trackpoint>
            <Time>2018-04-21T15:40:37.000Z</Time>
            <Position>
              <LatitudeDegrees>43.38319114409387111663818359375</LatitudeDegrees>
              <LongitudeDegrees>-8.4037780947983264923095703125</LongitudeDegrees>
            </Position>
            <AltitudeMeters>19.799999237060546875</AltitudeMeters>
            <DistanceMeters>109613.76497311</DistanceMeters>
          </Trackpoint>
          <Trackpoint>
            <Time>2018-04-21T15:40:39.000Z</Time>
            <Position>
              <LatitudeDegrees>43.3831716142594814300537109375</LatitudeDegrees>
              <LongitudeDegrees>-8.40394983999431133270263671875</LongitudeDegrees>
            </Position>
            <AltitudeMeters>19.6000003814697265625</AltitudeMeters>
            <DistanceMeters>109627.82667941</DistanceMeters>
          </Trackpoint>
          <Trackpoint>
            <Time>2018-04-21T15:40:40.000Z</Time>
            <Position>
              <LatitudeDegrees>43.38316239416599273681640625</LatitudeDegrees>
              <LongitudeDegrees>-8.4040349163115024566650390625</LongitudeDegrees>
            </Position>
            <AltitudeMeters>19.3999996185302734375</AltitudeMeters>
            <DistanceMeters>109634.78507505</DistanceMeters>
          </Trackpoint>
          <Trackpoint>
            <Time>2018-04-21T15:40:45.000Z</Time>
            <Position>
              <LatitudeDegrees>43.38310874998569488525390625</LatitudeDegrees>
              <LongitudeDegrees>-8.404460214078426361083984375</LongitudeDegrees>
            </Position>
            <AltitudeMeters>18.200000762939453125</AltitudeMeters>
            <DistanceMeters>109669.70231766</DistanceMeters>
          </Trackpoint>
          <Trackpoint>
            <Time>2018-04-21T15:40:47.000Z</Time>
            <Position>
              <LatitudeDegrees>43.383086957037448883056640625</LatitudeDegrees>
              <LongitudeDegrees>-8.404633216559886932373046875</LongitudeDegrees>
            </Position>
            <AltitudeMeters>18.6000003814697265625</AltitudeMeters>
            <DistanceMeters>109683.90555348</DistanceMeters>
          </Trackpoint>
          <Trackpoint>
            <Time>2018-04-21T15:40:49.000Z</Time>
            <Position>
              <LatitudeDegrees>43.38306591846048831939697265625</LatitudeDegrees>
              <LongitudeDegrees>-8.4048030339181423187255859375</LongitudeDegrees>
            </Position>
            <AltitudeMeters>18.3999996185302734375</AltitudeMeters>
            <DistanceMeters>109697.84082505</DistanceMeters>
          </Trackpoint>
          <Trackpoint>
            <Time>2018-04-21T15:40:56.000Z</Time>
            <Position>
              <LatitudeDegrees>43.38299651630222797393798828125</LatitudeDegrees>
              <LongitudeDegrees>-8.4053773619234561920166015625</LongitudeDegrees>
            </Position>
            <AltitudeMeters>17.799999237060546875</AltitudeMeters>
            <DistanceMeters>109744.93708474</DistanceMeters>
          </Trackpoint>
          <Trackpoint>
            <Time>2018-04-21T15:40:58.000Z</Time>
            <Position>
              <LatitudeDegrees>43.38297556154429912567138671875</LatitudeDegrees>
              <LongitudeDegrees>-8.4055382944643497467041015625</LongitudeDegrees>
            </Position>
            <AltitudeMeters>17.6000003814697265625</AltitudeMeters>
            <DistanceMeters>109758.16253675</DistanceMeters>
          </Trackpoint>
          <Trackpoint>
            <Time>2018-04-21T15:41:07.000Z</Time>
            <Position>
              <LatitudeDegrees>43.3829335682094097137451171875</LatitudeDegrees>
              <LongitudeDegrees>-8.40624346397817134857177734375</LongitudeDegrees>
            </Position>
            <AltitudeMeters>18.200000762939453125</AltitudeMeters>
            <DistanceMeters>109815.39631507</DistanceMeters>
          </Trackpoint>
          <Trackpoint>
            <Time>2018-04-21T15:41:09.000Z</Time>
            <Position>
              <LatitudeDegrees>43.38294974528253078460693359375</LatitudeDegrees>
              <LongitudeDegrees>-8.4063999541103839874267578125</LongitudeDegrees>
            </Position>
            <AltitudeMeters>18.200000762939453125</AltitudeMeters>
            <DistanceMeters>109828.18261766</DistanceMeters>
          </Trackpoint>
          <Trackpoint>
            <Time>2018-04-21T15:41:12.000Z</Time>
            <Position>
              <LatitudeDegrees>43.38299551047384738922119140625</LatitudeDegrees>
              <LongitudeDegrees>-8.40662785805761814117431640625</LongitudeDegrees>
            </Position>
            <AltitudeMeters>18.3999996185302734375</AltitudeMeters>
            <DistanceMeters>109847.30873584</DistanceMeters>
          </Trackpoint>
          <Trackpoint>
            <Time>2018-04-21T15:41:19.000Z</Time>
            <Position>
              <LatitudeDegrees>43.383162729442119598388671875</LatitudeDegrees>
              <LongitudeDegrees>-8.40712809003889560699462890625</LongitudeDegrees>
            </Position>
            <AltitudeMeters>18.3999996185302734375</AltitudeMeters>
            <DistanceMeters>109891.84839652</DistanceMeters>
          </Trackpoint>
          <Trackpoint>
            <Time>2018-04-21T15:41:22.000Z</Time>
            <Position>
              <LatitudeDegrees>43.38324897922575473785400390625</LatitudeDegrees>
              <LongitudeDegrees>-8.40732104144990444183349609375</LongitudeDegrees>
            </Position>
            <AltitudeMeters>19.3999996185302734375</AltitudeMeters>
            <DistanceMeters>109910.1725435</DistanceMeters>
          </Trackpoint>
          <Trackpoint>
            <Time>2018-04-21T15:41:27.000Z</Time>
            <Position>
              <LatitudeDegrees>43.3833856880664825439453125</LatitudeDegrees>
              <LongitudeDegrees>-8.40762597508728504180908203125</LongitudeDegrees>
            </Position>
            <AltitudeMeters>18.799999237060546875</AltitudeMeters>
            <DistanceMeters>109939.15460089</DistanceMeters>
          </Trackpoint>
          <Trackpoint>
            <Time>2018-04-21T15:41:34.000Z</Time>
            <Position>
              <LatitudeDegrees>43.38353044353425502777099609375</LatitudeDegrees>
              <LongitudeDegrees>-8.40808144770562648773193359375</LongitudeDegrees>
            </Position>
            <AltitudeMeters>18.6000003814697265625</AltitudeMeters>
            <DistanceMeters>109979.36718486</DistanceMeters>
          </Trackpoint>
          <Trackpoint>
            <Time>2018-04-21T15:41:40.000Z</Time>
            <Position>
              <LatitudeDegrees>43.38356950320303440093994140625</LatitudeDegrees>
              <LongitudeDegrees>-8.40849258005619049072265625</LongitudeDegrees>
            </Position>
            <AltitudeMeters>18.3999996185302734375</AltitudeMeters>
            <DistanceMeters>110012.90717298</DistanceMeters>
          </Trackpoint>
          <Trackpoint>
            <Time>2018-04-21T15:41:47.000Z</Time>
            <Position>
              <LatitudeDegrees>43.38351082988083362579345703125</LatitudeDegrees>
              <LongitudeDegrees>-8.40896003879606723785400390625</LongitudeDegrees>
            </Position>
            <AltitudeMeters>18.6000003814697265625</AltitudeMeters>
            <DistanceMeters>110051.28032043</DistanceMeters>
          </Trackpoint>
          <Trackpoint>
            <Time>2018-04-21T15:41:51.000Z</Time>
            <Position>
              <LatitudeDegrees>43.38342533446848392486572265625</LatitudeDegrees>
              <LongitudeDegrees>-8.40920764021575450897216796875</LongitudeDegrees>
            </Position>
            <AltitudeMeters>18.200000762939453125</AltitudeMeters>
            <DistanceMeters>110073.45475893</DistanceMeters>
          </Trackpoint>
          <Trackpoint>
            <Time>2018-04-21T15:41:54.000Z</Time>
            <Position>
              <LatitudeDegrees>43.38334252126514911651611328125</LatitudeDegrees>
              <LongitudeDegrees>-8.409376703202724456787109375</LongitudeDegrees>
            </Position>
            <AltitudeMeters>18</AltitudeMeters>
            <DistanceMeters>110089.94675403</DistanceMeters>
          </Trackpoint>
          <Trackpoint>
            <Time>2018-04-21T15:41:57.000Z</Time>
            <Position>
              <LatitudeDegrees>43.38324227370321750640869140625</LatitudeDegrees>
              <LongitudeDegrees>-8.40953134931623935699462890625</LongitudeDegrees>
            </Position>
            <AltitudeMeters>18</AltitudeMeters>
            <DistanceMeters>110106.70947722</DistanceMeters>
          </Trackpoint>
          <Trackpoint>
            <Time>2018-04-21T15:42:00.000Z</Time>
            <Position>
              <LatitudeDegrees>43.383122496306896209716796875</LatitudeDegrees>
              <LongitudeDegrees>-8.40966613031923770904541015625</LongitudeDegrees>
            </Position>
            <AltitudeMeters>17.799999237060546875</AltitudeMeters>
            <DistanceMeters>110123.9313488</DistanceMeters>
          </Trackpoint>
          <Trackpoint>
            <Time>2018-04-21T15:42:01.000Z</Time>
            <Position>
              <LatitudeDegrees>43.3830774016678333282470703125</LatitudeDegrees>
              <LongitudeDegrees>-8.40970099903643131256103515625</LongitudeDegrees>
            </Position>
            <AltitudeMeters>17.799999237060546875</AltitudeMeters>
            <DistanceMeters>110129.68890129</DistanceMeters>
          </Trackpoint>
          <Trackpoint>
            <Time>2018-04-21T15:42:09.000Z</Time>
            <Position>
              <LatitudeDegrees>43.38270314969122409820556640625</LatitudeDegrees>
              <LongitudeDegrees>-8.40992446057498455047607421875</LongitudeDegrees>
            </Position>
            <AltitudeMeters>18</AltitudeMeters>
            <DistanceMeters>110175.09695712</DistanceMeters>
          </Trackpoint>
          <Trackpoint>
            <Time>2018-04-21T15:42:16.000Z</Time>
            <Position>
              <LatitudeDegrees>43.382345996797084808349609375</LatitudeDegrees>
              <LongitudeDegrees>-8.40997307561337947845458984375</LongitudeDegrees>
            </Position>
            <AltitudeMeters>17.6000003814697265625</AltitudeMeters>
            <DistanceMeters>110215.04277903</DistanceMeters>
          </Trackpoint>
          <Trackpoint>
            <Time>2018-04-21T15:42:24.000Z</Time>
            <Position>
              <LatitudeDegrees>43.3818972297012805938720703125</LatitudeDegrees>
              <LongitudeDegrees>-8.40998212806880474090576171875</LongitudeDegrees>
            </Position>
            <AltitudeMeters>17.200000762939453125</AltitudeMeters>
            <DistanceMeters>110264.99683237</DistanceMeters>
          </Trackpoint>
          <Trackpoint>
            <Time>2018-04-21T15:42:25.000Z</Time>
            <Position>
              <LatitudeDegrees>43.381841070950031280517578125</LatitudeDegrees>
              <LongitudeDegrees>-8.40998380444943904876708984375</LongitudeDegrees>
            </Position>
            <AltitudeMeters>17</AltitudeMeters>
            <DistanceMeters>110271.24912802</DistanceMeters>
          </Trackpoint>
          <Trackpoint>
            <Time>2018-04-21T15:42:33.000Z</Time>
            <Position>
              <LatitudeDegrees>43.38137495331466197967529296875</LatitudeDegrees>
              <LongitudeDegrees>-8.40999470092356204986572265625</LongitudeDegrees>
            </Position>
            <AltitudeMeters>17.200000762939453125</AltitudeMeters>
            <DistanceMeters>110323.13649866</DistanceMeters>
          </Trackpoint>
          <Trackpoint>
            <Time>2018-04-21T15:42:43.000Z</Time>
            <Position>
              <LatitudeDegrees>43.38080682791769504547119140625</LatitudeDegrees>
              <LongitudeDegrees>-8.40995765291154384613037109375</LongitudeDegrees>
            </Position>
            <AltitudeMeters>17.6000003814697265625</AltitudeMeters>
            <DistanceMeters>110386.44098211</DistanceMeters>
          </Trackpoint>
          <Trackpoint>
            <Time>2018-04-21T15:42:49.000Z</Time>
            <Position>
              <LatitudeDegrees>43.38047272525727748870849609375</LatitudeDegrees>
              <LongitudeDegrees>-8.40986779890954494476318359375</LongitudeDegrees>
            </Position>
            <AltitudeMeters>17.6000003814697265625</AltitudeMeters>
            <DistanceMeters>110424.33103006</DistanceMeters>
          </Trackpoint>
          <Trackpoint>
            <Time>2018-04-21T15:42:50.000Z</Time>
            <Position>
              <LatitudeDegrees>43.3804213441908359527587890625</LatitudeDegrees>
              <LongitudeDegrees>-8.40983770787715911865234375</LongitudeDegrees>
            </Position>
            <AltitudeMeters>17.3999996185302734375</AltitudeMeters>
            <DistanceMeters>110430.54638741</DistanceMeters>
          </Trackpoint>
          <Trackpoint>
            <Time>2018-04-21T15:42:55.000Z</Time>
            <Position>
              <LatitudeDegrees>43.38019209913909435272216796875</LatitudeDegrees>
              <LongitudeDegrees>-8.409655652940273284912109375</LongitudeDegrees>
            </Position>
            <AltitudeMeters>17.3999996185302734375</AltitudeMeters>
            <DistanceMeters>110460.00712107</DistanceMeters>
          </Trackpoint>
          <Trackpoint>
            <Time>2018-04-21T15:42:59.000Z</Time>
            <Position>
              <LatitudeDegrees>43.3800310827791690826416015625</LatitudeDegrees>
              <LongitudeDegrees>-8.409540317952632904052734375</LongitudeDegrees>
            </Position>
            <AltitudeMeters>17</AltitudeMeters>
            <DistanceMeters>110480.21186546</DistanceMeters>
          </Trackpoint>
          <Trackpoint>
            <Time>2018-04-21T15:43:00.000Z</Time>
            <Position>
              <LatitudeDegrees>43.3799999020993709564208984375</LatitudeDegrees>
              <LongitudeDegrees>-8.40951089747250080108642578125</LongitudeDegrees>
            </Position>
            <AltitudeMeters>17</AltitudeMeters>
            <DistanceMeters>110484.42102333</DistanceMeters>
          </Trackpoint>
          <Trackpoint>
            <Time>2018-04-21T15:43:05.000Z</Time>
            <Position>
              <LatitudeDegrees>43.379874341189861297607421875</LatitudeDegrees>
              <LongitudeDegrees>-8.40934686362743377685546875</LongitudeDegrees>
            </Position>
            <AltitudeMeters>17</AltitudeMeters>
            <DistanceMeters>110503.69247849</DistanceMeters>
          </Trackpoint>
          <Trackpoint>
            <Time>2018-04-21T15:43:09.000Z</Time>
            <Position>
              <LatitudeDegrees>43.3797407336533069610595703125</LatitudeDegrees>
              <LongitudeDegrees>-8.4091589413583278656005859375</LongitudeDegrees>
            </Position>
            <AltitudeMeters>17.200000762939453125</AltitudeMeters>
            <DistanceMeters>110524.95851452</DistanceMeters>
          </Trackpoint>
          <Trackpoint>
            <Time>2018-04-21T15:43:10.000Z</Time>
            <Position>
              <LatitudeDegrees>43.37971064262092113494873046875</LatitudeDegrees>
              <LongitudeDegrees>-8.4091047942638397216796875</LongitudeDegrees>
            </Position>
            <AltitudeMeters>17.200000762939453125</AltitudeMeters>
            <DistanceMeters>110530.47333976</DistanceMeters>
          </Trackpoint>
          <Trackpoint>
            <Time>2018-04-21T15:43:16.000Z</Time>
            <Position>
              <LatitudeDegrees>43.3795474469661712646484375</LatitudeDegrees>
              <LongitudeDegrees>-8.40876138769090175628662109375</LongitudeDegrees>
            </Position>
            <AltitudeMeters>17.3999996185302734375</AltitudeMeters>
            <DistanceMeters>110563.6648802</DistanceMeters>
          </Trackpoint>
          <Trackpoint>
            <Time>2018-04-21T15:43:18.000Z</Time>
            <Position>
              <LatitudeDegrees>43.37950143031775951385498046875</LatitudeDegrees>
              <LongitudeDegrees>-8.40864018537104129791259765625</LongitudeDegrees>
            </Position>
            <AltitudeMeters>17.799999237060546875</AltitudeMeters>
            <DistanceMeters>110574.72682243</DistanceMeters>
          </Trackpoint>
          <Trackpoint>
            <Time>2018-04-21T15:43:24.000Z</Time>
            <Position>
              <LatitudeDegrees>43.37936581112444400787353515625</LatitudeDegrees>
              <LongitudeDegrees>-8.40825998224318027496337890625</LongitudeDegrees>
            </Position>
            <AltitudeMeters>18.3999996185302734375</AltitudeMeters>
            <DistanceMeters>110608.98840087</DistanceMeters>
          </Trackpoint>
          <Trackpoint>
            <Time>2018-04-21T15:43:27.000Z</Time>
            <Position>
              <LatitudeDegrees>43.37930059991776943206787109375</LatitudeDegrees>
              <LongitudeDegrees>-8.4080759994685649871826171875</LongitudeDegrees>
            </Position>
            <AltitudeMeters>17.799999237060546875</AltitudeMeters>
            <DistanceMeters>110625.54733414</DistanceMeters>
          </Trackpoint>
          <Trackpoint>
            <Time>2018-04-21T15:43:28.000Z</Time>
            <Position>
              <LatitudeDegrees>43.3792730234563350677490234375</LatitudeDegrees>
              <LongitudeDegrees>-8.4080184996128082275390625</LongitudeDegrees>
            </Position>
            <AltitudeMeters>17.799999237060546875</AltitudeMeters>
            <DistanceMeters>110631.11998458</DistanceMeters>
          </Trackpoint>
          <Trackpoint>
            <Time>2018-04-21T15:43:32.000Z</Time>
            <Position>
              <LatitudeDegrees>43.37913371622562408447265625</LatitudeDegrees>
              <LongitudeDegrees>-8.4078232012689113616943359375</LongitudeDegrees>
            </Position>
            <AltitudeMeters>17.6000003814697265625</AltitudeMeters>
            <DistanceMeters>110653.25611044</DistanceMeters>
          </Trackpoint>
          <Trackpoint>
            <Time>2018-04-21T15:43:34.000Z</Time>
            <Position>
              <LatitudeDegrees>43.37904914282262325286865234375</LatitudeDegrees>
              <LongitudeDegrees>-8.40774583630263805389404296875</LongitudeDegrees>
            </Position>
            <AltitudeMeters>17.6000003814697265625</AltitudeMeters>
            <DistanceMeters>110664.55989661</DistanceMeters>
          </Trackpoint>
          <Trackpoint>
            <Time>2018-04-21T15:43:36.000Z</Time>
            <Position>
              <LatitudeDegrees>43.3789521642029285430908203125</LatitudeDegrees>
              <LongitudeDegrees>-8.40769873000681400299072265625</LongitudeDegrees>
            </Position>
            <AltitudeMeters>18</AltitudeMeters>
            <DistanceMeters>110676.00657338</DistanceMeters>
          </Trackpoint>
          <Trackpoint>
            <Time>2018-04-21T15:43:37.000Z</Time>
            <Position>
              <LatitudeDegrees>43.378902710974216461181640625</LatitudeDegrees>
              <LongitudeDegrees>-8.40768347494304180145263671875</LongitudeDegrees>
            </Position>
            <AltitudeMeters>18.200000762939453125</AltitudeMeters>
            <DistanceMeters>110681.64767163</DistanceMeters>
          </Trackpoint>
          <Trackpoint>
            <Time>2018-04-21T15:43:41.000Z</Time>
            <Position>
              <LatitudeDegrees>43.37869777344167232513427734375</LatitudeDegrees>
              <LongitudeDegrees>-8.40767391957342624664306640625</LongitudeDegrees>
            </Position>
            <AltitudeMeters>18</AltitudeMeters>
            <DistanceMeters>110704.47050886</DistanceMeters>
          </Trackpoint>
          <Trackpoint>
            <Time>2018-04-21T15:43:49.000Z</Time>
            <Position>
              <LatitudeDegrees>43.37829016149044036865234375</LatitudeDegrees>
              <LongitudeDegrees>-8.40768431313335895538330078125</LongitudeDegrees>
            </Position>
            <AltitudeMeters>18.200000762939453125</AltitudeMeters>
            <DistanceMeters>110749.84613811</DistanceMeters>
          </Trackpoint>
          <Trackpoint>
            <Time>2018-04-21T15:43:50.000Z</Time>
            <Position>
              <LatitudeDegrees>43.37823945097625255584716796875</LatitudeDegrees>
              <LongitudeDegrees>-8.407672829926013946533203125</LongitudeDegrees>
            </Position>
            <AltitudeMeters>18</AltitudeMeters>
            <DistanceMeters>110755.56671475</DistanceMeters>
          </Trackpoint>
          <Trackpoint>
            <Time>2018-04-21T15:43:52.000Z</Time>
            <Position>
              <LatitudeDegrees>43.37813417427241802215576171875</LatitudeDegrees>
              <LongitudeDegrees>-8.4076398052275180816650390625</LongitudeDegrees>
            </Position>
            <AltitudeMeters>18.200000762939453125</AltitudeMeters>
            <DistanceMeters>110767.58524639</DistanceMeters>
          </Trackpoint>
          <Trackpoint>
            <Time>2018-04-21T15:43:54.000Z</Time>
            <Position>
              <LatitudeDegrees>43.3780338428914546966552734375</LatitudeDegrees>
              <LongitudeDegrees>-8.40758423320949077606201171875</LongitudeDegrees>
            </Position>
            <AltitudeMeters>18.3999996185302734375</AltitudeMeters>
            <DistanceMeters>110779.62329718</DistanceMeters>
          </Trackpoint>
          <Trackpoint>
            <Time>2018-04-21T15:44:03.000Z</Time>
            <Position>
              <LatitudeDegrees>43.377576358616352081298828125</LatitudeDegrees>
              <LongitudeDegrees>-8.4072847478091716766357421875</LongitudeDegrees>
            </Position>
            <AltitudeMeters>17.6000003814697265625</AltitudeMeters>
            <DistanceMeters>110836.01234485</DistanceMeters>
          </Trackpoint>
          <Trackpoint>
            <Time>2018-04-21T15:44:04.000Z</Time>
            <Position>
              <LatitudeDegrees>43.37752439081668853759765625</LatitudeDegrees>
              <LongitudeDegrees>-8.40725163929164409637451171875</LongitudeDegrees>
            </Position>
            <AltitudeMeters>17.200000762939453125</AltitudeMeters>
            <DistanceMeters>110842.38693064</DistanceMeters>
          </Trackpoint>
          <Trackpoint>
            <Time>2018-04-21T15:44:11.000Z</Time>
            <Position>
              <LatitudeDegrees>43.37718685157597064971923828125</LatitudeDegrees>
              <LongitudeDegrees>-8.40703002177178859710693359375</LongitudeDegrees>
            </Position>
            <AltitudeMeters>16.799999237060546875</AltitudeMeters>
            <DistanceMeters>110884.0145974</DistanceMeters>
          </Trackpoint>
          <Trackpoint>
            <Time>2018-04-21T15:44:12.000Z</Time>
            <Position>
              <LatitudeDegrees>43.37715466506779193878173828125</LatitudeDegrees>
              <LongitudeDegrees>-8.407009653747081756591796875</LongitudeDegrees>
            </Position>
            <AltitudeMeters>16.200000762939453125</AltitudeMeters>
            <DistanceMeters>110887.95791981</DistanceMeters>
          </Trackpoint>
          <Trackpoint>
            <Time>2018-04-21T15:44:17.000Z</Time>
            <Position>
              <LatitudeDegrees>43.37701141834259033203125</LatitudeDegrees>
              <LongitudeDegrees>-8.4069206379354000091552734375</LongitudeDegrees>
            </Position>
            <AltitudeMeters>15.6000003814697265625</AltitudeMeters>
            <DistanceMeters>110905.45264504</DistanceMeters>
          </Trackpoint>
          <Trackpoint>
            <Time>2018-04-21T15:44:23.000Z</Time>
            <Position>
              <LatitudeDegrees>43.37686129845678806304931640625</LatitudeDegrees>
              <LongitudeDegrees>-8.4067404270172119140625</LongitudeDegrees>
            </Position>
            <AltitudeMeters>15.3999996185302734375</AltitudeMeters>
            <DistanceMeters>110927.62749076</DistanceMeters>
          </Trackpoint>
          <Trackpoint>
            <Time>2018-04-21T15:44:26.000Z</Time>
            <Position>
              <LatitudeDegrees>43.3767554350197315216064453125</LatitudeDegrees>
              <LongitudeDegrees>-8.40661411173641681671142578125</LongitudeDegrees>
            </Position>
            <AltitudeMeters>15.3999996185302734375</AltitudeMeters>
            <DistanceMeters>110943.22403523</DistanceMeters>
          </Trackpoint>
          <Trackpoint>
            <Time>2018-04-21T15:44:28.000Z</Time>
            <Position>
              <LatitudeDegrees>43.3766796626150608062744140625</LatitudeDegrees>
              <LongitudeDegrees>-8.40653582476079463958740234375</LongitudeDegrees>
            </Position>
            <AltitudeMeters>15.3999996185302734375</AltitudeMeters>
            <DistanceMeters>110953.7707163</DistanceMeters>
          </Trackpoint>
          <Trackpoint>
            <Time>2018-04-21T15:44:29.000Z</Time>
            <Position>
              <LatitudeDegrees>43.376655690371990203857421875</LatitudeDegrees>
              <LongitudeDegrees>-8.4064831025898456573486328125</LongitudeDegrees>
            </Position>
            <AltitudeMeters>15.3999996185302734375</AltitudeMeters>
            <DistanceMeters>110958.8008529</DistanceMeters>
          </Trackpoint>
          <Trackpoint>
            <Time>2018-04-21T15:44:33.000Z</Time>
            <Position>
              <LatitudeDegrees>43.37656055577099323272705078125</LatitudeDegrees>
              <LongitudeDegrees>-8.406240530312061309814453125</LongitudeDegrees>
            </Position>
            <AltitudeMeters>15</AltitudeMeters>
            <DistanceMeters>110981.09935283</DistanceMeters>
          </Trackpoint>
          <Trackpoint>
            <Time>2018-04-21T15:44:34.000Z</Time>
            <Position>
              <LatitudeDegrees>43.37653541006147861480712890625</LatitudeDegrees>
              <LongitudeDegrees>-8.406174480915069580078125</LongitudeDegrees>
            </Position>
            <AltitudeMeters>15.19999980926513671875</AltitudeMeters>
            <DistanceMeters>110987.13111692</DistanceMeters>
          </Trackpoint>
          <Trackpoint>
            <Time>2018-04-21T15:44:41.000Z</Time>
            <Position>
              <LatitudeDegrees>43.376392163336277008056640625</LatitudeDegrees>
              <LongitudeDegrees>-8.40565639548003673553466796875</LongitudeDegrees>
            </Position>
            <AltitudeMeters>14.6000003814697265625</AltitudeMeters>
            <DistanceMeters>111031.97446407</DistanceMeters>
          </Trackpoint>
          <Trackpoint>
            <Time>2018-04-21T15:44:49.000Z</Time>
            <Position>
              <LatitudeDegrees>43.37625025771558284759521484375</LatitudeDegrees>
              <LongitudeDegrees>-8.4050689078867435455322265625</LongitudeDegrees>
            </Position>
            <AltitudeMeters>14</AltitudeMeters>
            <DistanceMeters>111082.05832069</DistanceMeters>
          </Trackpoint>
          <Trackpoint>
            <Time>2018-04-21T15:44:50.000Z</Time>
            <Position>
              <LatitudeDegrees>43.3762347511947154998779296875</LatitudeDegrees>
              <LongitudeDegrees>-8.40501199476420879364013671875</LongitudeDegrees>
            </Position>
            <AltitudeMeters>13.6000003814697265625</AltitudeMeters>
            <DistanceMeters>111086.97589578</DistanceMeters>
          </Trackpoint>
          <Trackpoint>
            <Time>2018-04-21T15:44:52.000Z</Time>
            <Position>
              <LatitudeDegrees>43.376204073429107666015625</LatitudeDegrees>
              <LongitudeDegrees>-8.40492163784801959991455078125</LongitudeDegrees>
            </Position>
            <AltitudeMeters>12.80000019073486328125</AltitudeMeters>
            <DistanceMeters>111095.04365823</DistanceMeters>
          </Trackpoint>
          <Trackpoint>
            <Time>2018-04-21T15:44:54.000Z</Time>
            <Position>
              <LatitudeDegrees>43.3761951886117458343505859375</LatitudeDegrees>
              <LongitudeDegrees>-8.40484502725303173065185546875</LongitudeDegrees>
            </Position>
            <AltitudeMeters>13</AltitudeMeters>
            <DistanceMeters>111101.31973929</DistanceMeters>
          </Trackpoint>
          <Trackpoint>
            <Time>2018-04-21T15:44:57.000Z</Time>
            <Position>
              <LatitudeDegrees>43.37617532350122928619384765625</LatitudeDegrees>
              <LongitudeDegrees>-8.4047798998653888702392578125</LongitudeDegrees>
            </Position>
            <AltitudeMeters>12.80000019073486328125</AltitudeMeters>
            <DistanceMeters>111107.03320814</DistanceMeters>
          </Trackpoint>
          <Trackpoint>
            <Time>2018-04-21T15:44:58.000Z</Time>
            <Position>
              <LatitudeDegrees>43.37617264129221439361572265625</LatitudeDegrees>
              <LongitudeDegrees>-8.4047567658126354217529296875</LongitudeDegrees>
            </Position>
            <AltitudeMeters>12.80000019073486328125</AltitudeMeters>
            <DistanceMeters>111108.92898514</DistanceMeters>
          </Trackpoint>
          <Trackpoint>
            <Time>2018-04-21T15:44:59.000Z</Time>
            <Position>
              <LatitudeDegrees>43.37617012672126293182373046875</LatitudeDegrees>
              <LongitudeDegrees>-8.4047245793044567108154296875</LongitudeDegrees>
            </Position>
            <AltitudeMeters>12.80000019073486328125</AltitudeMeters>
            <DistanceMeters>111111.54869087</DistanceMeters>
          </Trackpoint>
          <Trackpoint>
            <Time>2018-04-21T15:45:03.000Z</Time>
            <Position>
              <LatitudeDegrees>43.37613760493695735931396484375</LatitudeDegrees>
              <LongitudeDegrees>-8.404533304274082183837890625</LongitudeDegrees>
            </Position>
            <AltitudeMeters>12.80000019073486328125</AltitudeMeters>
            <DistanceMeters>111127.44089676</DistanceMeters>
          </Trackpoint>
          <Trackpoint>
            <Time>2018-04-21T15:45:07.000Z</Time>
            <Position>
              <LatitudeDegrees>43.37608345784246921539306640625</LatitudeDegrees>
              <LongitudeDegrees>-8.40429148636758327484130859375</LongitudeDegrees>
            </Position>
            <AltitudeMeters>13</AltitudeMeters>
            <DistanceMeters>111147.91160089</DistanceMeters>
          </Trackpoint>
          <Trackpoint>
            <Time>2018-04-21T15:45:10.000Z</Time>
            <Position>
              <LatitudeDegrees>43.37604071013629436492919921875</LatitudeDegrees>
              <LongitudeDegrees>-8.4041006304323673248291015625</LongitudeDegrees>
            </Position>
            <AltitudeMeters>12.6000003814697265625</AltitudeMeters>
            <DistanceMeters>111164.06865755</DistanceMeters>
          </Trackpoint>
          <Trackpoint>
            <Time>2018-04-21T15:45:18.000Z</Time>
            <Position>
              <LatitudeDegrees>43.3759014867246150970458984375</LatitudeDegrees>
              <LongitudeDegrees>-8.40358707122504711151123046875</LongitudeDegrees>
            </Position>
            <AltitudeMeters>12.6000003814697265625</AltitudeMeters>
            <DistanceMeters>111208.41193478</DistanceMeters>
          </Trackpoint>
          <Trackpoint>
            <Time>2018-04-21T15:45:21.000Z</Time>
            <Position>
              <LatitudeDegrees>43.37581724859774112701416015625</LatitudeDegrees>
              <LongitudeDegrees>-8.40342580340802669525146484375</LongitudeDegrees>
            </Position>
            <AltitudeMeters>12</AltitudeMeters>
            <DistanceMeters>111224.47847658</DistanceMeters>
          </Trackpoint>
          <Trackpoint>
            <Time>2018-04-21T15:45:23.000Z</Time>
            <Position>
              <LatitudeDegrees>43.37575413286685943603515625</LatitudeDegrees>
              <LongitudeDegrees>-8.4033455885946750640869140625</LongitudeDegrees>
            </Position>
            <AltitudeMeters>12</AltitudeMeters>
            <DistanceMeters>111234.04224384</DistanceMeters>
          </Trackpoint>
          <Trackpoint>
            <Time>2018-04-21T15:45:26.000Z</Time>
            <Position>
              <LatitudeDegrees>43.37564575485885143280029296875</LatitudeDegrees>
              <LongitudeDegrees>-8.40327828191220760345458984375</LongitudeDegrees>
            </Position>
            <AltitudeMeters>12.6000003814697265625</AltitudeMeters>
            <DistanceMeters>111247.27725132</DistanceMeters>
          </Trackpoint>
          <Trackpoint>
            <Time>2018-04-21T15:45:28.000Z</Time>
            <Position>
              <LatitudeDegrees>43.37554760277271270751953125</LatitudeDegrees>
              <LongitudeDegrees>-8.4032724983990192413330078125</LongitudeDegrees>
            </Position>
            <AltitudeMeters>12.3999996185302734375</AltitudeMeters>
            <DistanceMeters>111258.21151911</DistanceMeters>
          </Trackpoint>
          <Trackpoint>
            <Time>2018-04-21T15:45:33.000Z</Time>
            <Position>
              <LatitudeDegrees>43.37528734467923641204833984375</LatitudeDegrees>
              <LongitudeDegrees>-8.40329051949083805084228515625</LongitudeDegrees>
            </Position>
            <AltitudeMeters>12</AltitudeMeters>
            <DistanceMeters>111287.21537853</DistanceMeters>
          </Trackpoint>
          <Trackpoint>
            <Time>2018-04-21T15:45:35.000Z</Time>
            <Position>
              <LatitudeDegrees>43.3751834928989410400390625</LatitudeDegrees>
              <LongitudeDegrees>-8.40331046842038631439208984375</LongitudeDegrees>
            </Position>
            <AltitudeMeters>12.19999980926513671875</AltitudeMeters>
            <DistanceMeters>111298.88588165</DistanceMeters>
          </Trackpoint>
          <Trackpoint>
            <Time>2018-04-21T15:45:37.000Z</Time>
            <Position>
              <LatitudeDegrees>43.37507796473801136016845703125</LatitudeDegrees>
              <LongitudeDegrees>-8.40331583283841609954833984375</LongitudeDegrees>
            </Position>
            <AltitudeMeters>12</AltitudeMeters>
            <DistanceMeters>111310.63926879</DistanceMeters>
          </Trackpoint>
          <Trackpoint>
            <Time>2018-04-21T15:45:38.000Z</Time>
            <Position>
              <LatitudeDegrees>43.37502717040479183197021484375</LatitudeDegrees>
              <LongitudeDegrees>-8.40330678038299083709716796875</LongitudeDegrees>
            </Position>
            <AltitudeMeters>11.6000003814697265625</AltitudeMeters>
            <DistanceMeters>111316.33928766</DistanceMeters>
          </Trackpoint>
          <Trackpoint>
            <Time>2018-04-21T15:45:40.000Z</Time>
            <Position>
              <LatitudeDegrees>43.37492977268993854522705078125</LatitudeDegrees>
              <LongitudeDegrees>-8.4032758511602878570556640625</LongitudeDegrees>
            </Position>
            <AltitudeMeters>11</AltitudeMeters>
            <DistanceMeters>111327.46431475</DistanceMeters>
          </Trackpoint>
          <Trackpoint>
            <Time>2018-04-21T15:45:43.000Z</Time>
            <Position>
              <LatitudeDegrees>43.37477353401482105255126953125</LatitudeDegrees>
              <LongitudeDegrees>-8.40320460498332977294921875</LongitudeDegrees>
            </Position>
            <AltitudeMeters>10.6000003814697265625</AltitudeMeters>
            <DistanceMeters>111345.78427247</DistanceMeters>
          </Trackpoint>
          <Trackpoint>
            <Time>2018-04-21T15:45:46.000Z</Time>
            <Position>
              <LatitudeDegrees>43.37460891343653202056884765625</LatitudeDegrees>
              <LongitudeDegrees>-8.4031119011342525482177734375</LongitudeDegrees>
            </Position>
            <AltitudeMeters>10.3999996185302734375</AltitudeMeters>
            <DistanceMeters>111365.58223949</DistanceMeters>
          </Trackpoint>
          <Trackpoint>
            <Time>2018-04-21T15:45:48.000Z</Time>
            <Position>
              <LatitudeDegrees>43.37449751794338226318359375</LatitudeDegrees>
              <LongitudeDegrees>-8.40304090641438961029052734375</LongitudeDegrees>
            </Position>
            <AltitudeMeters>10.80000019073486328125</AltitudeMeters>
            <DistanceMeters>111379.24627479</DistanceMeters>
          </Trackpoint>
          <Trackpoint>
            <Time>2018-04-21T15:45:50.000Z</Time>
            <Position>
              <LatitudeDegrees>43.3743870444595813751220703125</LatitudeDegrees>
              <LongitudeDegrees>-8.4029734320938587188720703125</LongitudeDegrees>
            </Position>
            <AltitudeMeters>10.6000003814697265625</AltitudeMeters>
            <DistanceMeters>111392.69952058</DistanceMeters>
          </Trackpoint>
          <Trackpoint>
            <Time>2018-04-21T15:45:51.000Z</Time>
            <Position>
              <LatitudeDegrees>43.37432946078479290008544921875</LatitudeDegrees>
              <LongitudeDegrees>-8.402950130403041839599609375</LongitudeDegrees>
            </Position>
            <AltitudeMeters>10.19999980926513671875</AltitudeMeters>
            <DistanceMeters>111399.38118937</DistanceMeters>
          </Trackpoint>
          <Trackpoint>
            <Time>2018-04-21T15:45:57.000Z</Time>
            <Position>
              <LatitudeDegrees>43.3739746548235416412353515625</LatitudeDegrees>
              <LongitudeDegrees>-8.40284384787082672119140625</LongitudeDegrees>
            </Position>
            <AltitudeMeters>9.3999996185302734375</AltitudeMeters>
            <DistanceMeters>111439.7971581</DistanceMeters>
          </Trackpoint>
          <Trackpoint>
            <Time>2018-04-21T15:45:58.000Z</Time>
            <Position>
              <LatitudeDegrees>43.37391405366361141204833984375</LatitudeDegrees>
              <LongitudeDegrees>-8.4028339572250843048095703125</LongitudeDegrees>
            </Position>
            <AltitudeMeters>9.19999980926513671875</AltitudeMeters>
            <DistanceMeters>111446.58874337</DistanceMeters>
          </Trackpoint>
          <Trackpoint>
            <Time>2018-04-21T15:46:02.000Z</Time>
            <Position>
              <LatitudeDegrees>43.3736668713390827178955078125</LatitudeDegrees>
              <LongitudeDegrees>-8.40282062999904155731201171875</LongitudeDegrees>
            </Position>
            <AltitudeMeters>9</AltitudeMeters>
            <DistanceMeters>111474.12173971</DistanceMeters>
          </Trackpoint>
          <Trackpoint>
            <Time>2018-04-21T15:46:04.000Z</Time>
            <Position>
              <LatitudeDegrees>43.37354105897247791290283203125</LatitudeDegrees>
              <LongitudeDegrees>-8.402824737131595611572265625</LongitudeDegrees>
            </Position>
            <AltitudeMeters>8.80000019073486328125</AltitudeMeters>
            <DistanceMeters>111488.12907711</DistanceMeters>
          </Trackpoint>
          <Trackpoint>
            <Time>2018-04-21T15:46:05.000Z</Time>
            <Position>
              <LatitudeDegrees>43.37347785942256450653076171875</LatitudeDegrees>
              <LongitudeDegrees>-8.40283018536865711212158203125</LongitudeDegrees>
            </Position>
            <AltitudeMeters>8.3999996185302734375</AltitudeMeters>
            <DistanceMeters>111495.17772808</DistanceMeters>
          </Trackpoint>
          <Trackpoint>
            <Time>2018-04-21T15:46:06.000Z</Time>
            <Position>
              <LatitudeDegrees>43.373412229120731353759765625</LatitudeDegrees>
              <LongitudeDegrees>-8.40283689089119434356689453125</LongitudeDegrees>
            </Position>
            <AltitudeMeters>8.3999996185302734375</AltitudeMeters>
            <DistanceMeters>111502.50280243</DistanceMeters>
          </Trackpoint>
          <Trackpoint>
            <Time>2018-04-21T15:46:08.000Z</Time>
            <Position>
              <LatitudeDegrees>43.373275436460971832275390625</LatitudeDegrees>
              <LongitudeDegrees>-8.40285298414528369903564453125</LongitudeDegrees>
            </Position>
            <AltitudeMeters>8.3999996185302734375</AltitudeMeters>
            <DistanceMeters>111517.78349995</DistanceMeters>
          </Trackpoint>
          <Trackpoint>
            <Time>2018-04-21T15:46:10.000Z</Time>
            <Position>
              <LatitudeDegrees>43.373150713741779327392578125</LatitudeDegrees>
              <LongitudeDegrees>-8.40289757587015628814697265625</LongitudeDegrees>
            </Position>
            <AltitudeMeters>8</AltitudeMeters>
            <DistanceMeters>111532.12623928</DistanceMeters>
          </Trackpoint>
          <Trackpoint>
            <Time>2018-04-21T15:46:11.000Z</Time>
            <Position>
              <LatitudeDegrees>43.37309346534311771392822265625</LatitudeDegrees>
              <LongitudeDegrees>-8.402930013835430145263671875</LongitudeDegrees>
            </Position>
            <AltitudeMeters>7.80000019073486328125</AltitudeMeters>
            <DistanceMeters>111539.01682285</DistanceMeters>
          </Trackpoint>
          <Trackpoint>
            <Time>2018-04-21T15:46:14.000Z</Time>
            <Position>
              <LatitudeDegrees>43.37292213924229145050048828125</LatitudeDegrees>
              <LongitudeDegrees>-8.40301156975328922271728515625</LongitudeDegrees>
            </Position>
            <AltitudeMeters>7.400000095367431640625</AltitudeMeters>
            <DistanceMeters>111559.19473371</DistanceMeters>
          </Trackpoint>
          <Trackpoint>
            <Time>2018-04-21T15:46:16.000Z</Time>
            <Position>
              <LatitudeDegrees>43.37281535379588603973388671875</LatitudeDegrees>
              <LongitudeDegrees>-8.40308667160570621490478515625</LongitudeDegrees>
            </Position>
            <AltitudeMeters>7.400000095367431640625</AltitudeMeters>
            <DistanceMeters>111572.54319686</DistanceMeters>
          </Trackpoint>
          <Trackpoint>
            <Time>2018-04-21T15:46:17.000Z</Time>
            <Position>
              <LatitudeDegrees>43.37276556529104709625244140625</LatitudeDegrees>
              <LongitudeDegrees>-8.4031259827315807342529296875</LongitudeDegrees>
            </Position>
            <AltitudeMeters>7.19999980926513671875</AltitudeMeters>
            <DistanceMeters>111578.93263937</DistanceMeters>
          </Trackpoint>
          <Trackpoint>
            <Time>2018-04-21T15:46:21.000Z</Time>
            <Position>
              <LatitudeDegrees>43.37259541265666484832763671875</LatitudeDegrees>
              <LongitudeDegrees>-8.40326470322906970977783203125</LongitudeDegrees>
            </Position>
            <AltitudeMeters>6.599999904632568359375</AltitudeMeters>
            <DistanceMeters>111600.94666019</DistanceMeters>
          </Trackpoint>
          <Trackpoint>
            <Time>2018-04-21T15:46:23.000Z</Time>
            <Position>
              <LatitudeDegrees>43.37251000106334686279296875</LatitudeDegrees>
              <LongitudeDegrees>-8.40331717394292354583740234375</LongitudeDegrees>
            </Position>
            <AltitudeMeters>5.80000019073486328125</AltitudeMeters>
            <DistanceMeters>111611.35804999</DistanceMeters>
          </Trackpoint>
          <Trackpoint>
            <Time>2018-04-21T15:46:24.000Z</Time>
            <Position>
              <LatitudeDegrees>43.3724675886332988739013671875</LatitudeDegrees>
              <LongitudeDegrees>-8.40335120446979999542236328125</LongitudeDegrees>
            </Position>
            <AltitudeMeters>5.599999904632568359375</AltitudeMeters>
            <DistanceMeters>111616.82353193</DistanceMeters>
          </Trackpoint>
          <Trackpoint>
            <Time>2018-04-21T15:46:27.000Z</Time>
            <Position>
              <LatitudeDegrees>43.37233289144933223724365234375</LatitudeDegrees>
              <LongitudeDegrees>-8.40345765464007854461669921875</LongitudeDegrees>
            </Position>
            <AltitudeMeters>6.19999980926513671875</AltitudeMeters>
            <DistanceMeters>111634.11317191</DistanceMeters>
          </Trackpoint>
          <Trackpoint>
            <Time>2018-04-21T15:46:34.000Z</Time>
            <Position>
              <LatitudeDegrees>43.37199644185602664947509765625</LatitudeDegrees>
              <LongitudeDegrees>-8.40372369624674320220947265625</LongitudeDegrees>
            </Position>
            <AltitudeMeters>5.80000019073486328125</AltitudeMeters>
            <DistanceMeters>111677.30602808</DistanceMeters>
          </Trackpoint>
          <Trackpoint>
            <Time>2018-04-21T15:46:37.000Z</Time>
            <Position>
              <LatitudeDegrees>43.37184389121830463409423828125</LatitudeDegrees>
              <LongitudeDegrees>-8.403843306005001068115234375</LongitudeDegrees>
            </Position>
            <AltitudeMeters>5.19999980926513671875</AltitudeMeters>
            <DistanceMeters>111696.84967598</DistanceMeters>
          </Trackpoint>
          <Trackpoint>
            <Time>2018-04-21T15:46:41.000Z</Time>
            <Position>
              <LatitudeDegrees>43.37163283489644527435302734375</LatitudeDegrees>
              <LongitudeDegrees>-8.404004238545894622802734375</LongitudeDegrees>
            </Position>
            <AltitudeMeters>4.80000019073486328125</AltitudeMeters>
            <DistanceMeters>111723.7079644</DistanceMeters>
          </Trackpoint>
          <Trackpoint>
            <Time>2018-04-21T15:46:43.000Z</Time>
            <Position>
              <LatitudeDegrees>43.37152839638292789459228515625</LatitudeDegrees>
              <LongitudeDegrees>-8.404088057577610015869140625</LongitudeDegrees>
            </Position>
            <AltitudeMeters>5</AltitudeMeters>
            <DistanceMeters>111737.1655724</DistanceMeters>
          </Trackpoint>
          <Trackpoint>
            <Time>2018-04-21T15:46:51.000Z</Time>
            <Position>
              <LatitudeDegrees>43.37115623988211154937744140625</LatitudeDegrees>
              <LongitudeDegrees>-8.4044243395328521728515625</LongitudeDegrees>
            </Position>
            <AltitudeMeters>4.19999980926513671875</AltitudeMeters>
            <DistanceMeters>111786.72380332</DistanceMeters>
          </Trackpoint>
          <Trackpoint>
            <Time>2018-04-21T15:46:58.000Z</Time>
            <Position>
              <LatitudeDegrees>43.3708624541759490966796875</LatitudeDegrees>
              <LongitudeDegrees>-8.4046960808336734771728515625</LongitudeDegrees>
            </Position>
            <AltitudeMeters>4</AltitudeMeters>
            <DistanceMeters>111826.12701744</DistanceMeters>
          </Trackpoint>
          <Trackpoint>
            <Time>2018-04-21T15:47:05.000Z</Time>
            <Position>
              <LatitudeDegrees>43.37055659852921962738037109375</LatitudeDegrees>
              <LongitudeDegrees>-8.405012749135494232177734375</LongitudeDegrees>
            </Position>
            <AltitudeMeters>4.400000095367431640625</AltitudeMeters>
            <DistanceMeters>111868.7335459</DistanceMeters>
          </Trackpoint>
          <Trackpoint>
            <Time>2018-04-21T15:47:06.000Z</Time>
            <Position>
              <LatitudeDegrees>43.3705139346420764923095703125</LatitudeDegrees>
              <LongitudeDegrees>-8.40505708940327167510986328125</LongitudeDegrees>
            </Position>
            <AltitudeMeters>4.599999904632568359375</AltitudeMeters>
            <DistanceMeters>111874.68467687</DistanceMeters>
          </Trackpoint>
          <Trackpoint>
            <Time>2018-04-21T15:47:11.000Z</Time>
            <Position>
              <LatitudeDegrees>43.37030463851988315582275390625</LatitudeDegrees>
              <LongitudeDegrees>-8.40529127977788448333740234375</LongitudeDegrees>
            </Position>
            <AltitudeMeters>4.599999904632568359375</AltitudeMeters>
            <DistanceMeters>111904.7128179</DistanceMeters>
          </Trackpoint>
          <Trackpoint>
            <Time>2018-04-21T15:47:15.000Z</Time>
            <Position>
              <LatitudeDegrees>43.37013867683708667755126953125</LatitudeDegrees>
              <LongitudeDegrees>-8.405474089086055755615234375</LongitudeDegrees>
            </Position>
            <AltitudeMeters>4</AltitudeMeters>
            <DistanceMeters>111928.37675946</DistanceMeters>
          </Trackpoint>
          <Trackpoint>
            <Time>2018-04-21T15:47:22.000Z</Time>
            <Position>
              <LatitudeDegrees>43.36987313814461231231689453125</LatitudeDegrees>
              <LongitudeDegrees>-8.405842222273349761962890625</LongitudeDegrees>
            </Position>
            <AltitudeMeters>4.19999980926513671875</AltitudeMeters>
            <DistanceMeters>111970.33705313</DistanceMeters>
          </Trackpoint>
          <Trackpoint>
            <Time>2018-04-21T15:47:28.000Z</Time>
            <Position>
              <LatitudeDegrees>43.36967490613460540771484375</LatitudeDegrees>
              <LongitudeDegrees>-8.406209014356136322021484375</LongitudeDegrees>
            </Position>
            <AltitudeMeters>4.19999980926513671875</AltitudeMeters>
            <DistanceMeters>112007.3169771</DistanceMeters>
          </Trackpoint>
          <Trackpoint>
            <Time>2018-04-21T15:47:30.000Z</Time>
            <Position>
              <LatitudeDegrees>43.36961715482175350189208984375</LatitudeDegrees>
              <LongitudeDegrees>-8.40633667074143886566162109375</LongitudeDegrees>
            </Position>
            <AltitudeMeters>4.400000095367431640625</AltitudeMeters>
            <DistanceMeters>112019.48262353</DistanceMeters>
          </Trackpoint>
          <Trackpoint>
            <Time>2018-04-21T15:47:33.000Z</Time>
            <Position>
              <LatitudeDegrees>43.36952193640172481536865234375</LatitudeDegrees>
              <LongitudeDegrees>-8.4065394289791584014892578125</LongitudeDegrees>
            </Position>
            <AltitudeMeters>4.400000095367431640625</AltitudeMeters>
            <DistanceMeters>112039.01332984</DistanceMeters>
          </Trackpoint>
          <Trackpoint>
            <Time>2018-04-21T15:47:40.000Z</Time>
            <Position>
              <LatitudeDegrees>43.3692799508571624755859375</LatitudeDegrees>
              <LongitudeDegrees>-8.4070061333477497100830078125</LongitudeDegrees>
            </Position>
            <AltitudeMeters>4.400000095367431640625</AltitudeMeters>
            <DistanceMeters>112085.39551771</DistanceMeters>
          </Trackpoint>
          <Trackpoint>
            <Time>2018-04-21T15:47:47.000Z</Time>
            <Position>
              <LatitudeDegrees>43.36906202137470245361328125</LatitudeDegrees>
              <LongitudeDegrees>-8.407511226832866668701171875</LongitudeDegrees>
            </Position>
            <AltitudeMeters>4.599999904632568359375</AltitudeMeters>
            <DistanceMeters>112132.91904167</DistanceMeters>
          </Trackpoint>
          <Trackpoint>
            <Time>2018-04-21T15:47:52.000Z</Time>
            <Position>
              <LatitudeDegrees>43.36892522871494293212890625</LatitudeDegrees>
              <LongitudeDegrees>-8.407897464931011199951171875</LongitudeDegrees>
            </Position>
            <AltitudeMeters>3.7999999523162841796875</AltitudeMeters>
            <DistanceMeters>112167.68141918</DistanceMeters>
          </Trackpoint>
          <Trackpoint>
            <Time>2018-04-21T15:47:56.000Z</Time>
            <Position>
              <LatitudeDegrees>43.3688234724104404449462890625</LatitudeDegrees>
              <LongitudeDegrees>-8.4082235209643840789794921875</LongitudeDegrees>
            </Position>
            <AltitudeMeters>4</AltitudeMeters>
            <DistanceMeters>112196.3911269</DistanceMeters>
          </Trackpoint>
          <Trackpoint>
            <Time>2018-04-21T15:48:05.000Z</Time>
            <Position>
              <LatitudeDegrees>43.3686213009059429168701171875</LatitudeDegrees>
              <LongitudeDegrees>-8.40892550535500049591064453125</LongitudeDegrees>
            </Position>
            <AltitudeMeters>3.400000095367431640625</AltitudeMeters>
            <DistanceMeters>112257.4843625</DistanceMeters>
          </Trackpoint>
          <Trackpoint>
            <Time>2018-04-21T15:48:11.000Z</Time>
            <Position>
              <LatitudeDegrees>43.3684994280338287353515625</LatitudeDegrees>
              <LongitudeDegrees>-8.40935717336833477020263671875</LongitudeDegrees>
            </Position>
            <AltitudeMeters>3.2000000476837158203125</AltitudeMeters>
            <DistanceMeters>112294.95261392</DistanceMeters>
          </Trackpoint>
          <Trackpoint>
            <Time>2018-04-21T15:48:15.000Z</Time>
            <Position>
              <LatitudeDegrees>43.36843245662748813629150390625</LatitudeDegrees>
              <LongitudeDegrees>-8.40961852110922336578369140625</LongitudeDegrees>
            </Position>
            <AltitudeMeters>2.599999904632568359375</AltitudeMeters>
            <DistanceMeters>112317.37408613</DistanceMeters>
          </Trackpoint>
          <Trackpoint>
            <Time>2018-04-21T15:48:16.000Z</Time>
            <Position>
              <LatitudeDegrees>43.36842441000044345855712890625</LatitudeDegrees>
              <LongitudeDegrees>-8.4096853248775005340576171875</LongitudeDegrees>
            </Position>
            <AltitudeMeters>2.599999904632568359375</AltitudeMeters>
            <DistanceMeters>112322.85276974</DistanceMeters>
          </Trackpoint>
          <Trackpoint>
            <Time>2018-04-21T15:48:18.000Z</Time>
            <Position>
              <LatitudeDegrees>43.3684013597667217254638671875</LatitudeDegrees>
              <LongitudeDegrees>-8.40982823632657527923583984375</LongitudeDegrees>
            </Position>
            <AltitudeMeters>3</AltitudeMeters>
            <DistanceMeters>112334.69723121</DistanceMeters>
          </Trackpoint>
          <Trackpoint>
            <Time>2018-04-21T15:48:26.000Z</Time>
            <Position>
              <LatitudeDegrees>43.3682816661894321441650390625</LatitudeDegrees>
              <LongitudeDegrees>-8.41043424792587757110595703125</LongitudeDegrees>
            </Position>
            <AltitudeMeters>2.2000000476837158203125</AltitudeMeters>
            <DistanceMeters>112385.50818511</DistanceMeters>
          </Trackpoint>
          <Trackpoint>
            <Time>2018-04-21T15:48:27.000Z</Time>
            <Position>
              <LatitudeDegrees>43.36826951242983341217041015625</LatitudeDegrees>
              <LongitudeDegrees>-8.41051085852086544036865234375</LongitudeDegrees>
            </Position>
            <AltitudeMeters>2.2000000476837158203125</AltitudeMeters>
            <DistanceMeters>112391.85224144</DistanceMeters>
          </Trackpoint>
          <Trackpoint>
            <Time>2018-04-21T15:48:29.000Z</Time>
            <Position>
              <LatitudeDegrees>43.36824084632098674774169921875</LatitudeDegrees>
              <LongitudeDegrees>-8.41066223569214344024658203125</LongitudeDegrees>
            </Position>
            <AltitudeMeters>2.2000000476837158203125</AltitudeMeters>
            <DistanceMeters>112404.50900074</DistanceMeters>
          </Trackpoint>
          <Trackpoint>
            <Time>2018-04-21T15:48:31.000Z</Time>
            <Position>
              <LatitudeDegrees>43.368216119706630706787109375</LatitudeDegrees>
              <LongitudeDegrees>-8.41080858372151851654052734375</LongitudeDegrees>
            </Position>
            <AltitudeMeters>1.60000002384185791015625</AltitudeMeters>
            <DistanceMeters>112416.66573678</DistanceMeters>
          </Trackpoint>
          <Trackpoint>
            <Time>2018-04-21T15:48:34.000Z</Time>
            <Position>
              <LatitudeDegrees>43.36818267591297626495361328125</LatitudeDegrees>
              <LongitudeDegrees>-8.41103263199329376220703125</LongitudeDegrees>
            </Position>
            <AltitudeMeters>2</AltitudeMeters>
            <DistanceMeters>112435.17205217</DistanceMeters>
          </Trackpoint>
          <Trackpoint>
            <Time>2018-04-21T15:48:40.000Z</Time>
            <Position>
              <LatitudeDegrees>43.36811344139277935028076171875</LatitudeDegrees>
              <LongitudeDegrees>-8.4114820696413516998291015625</LongitudeDegrees>
            </Position>
            <AltitudeMeters>2</AltitudeMeters>
            <DistanceMeters>112472.34438459</DistanceMeters>
          </Trackpoint>
          <Trackpoint>
            <Time>2018-04-21T15:48:46.000Z</Time>
            <Position>
              <LatitudeDegrees>43.3681032992899417877197265625</LatitudeDegrees>
              <LongitudeDegrees>-8.41192890889942646026611328125</LongitudeDegrees>
            </Position>
            <AltitudeMeters>2.2000000476837158203125</AltitudeMeters>
            <DistanceMeters>112508.51650032</DistanceMeters>
          </Trackpoint>
          <Trackpoint>
            <Time>2018-04-21T15:48:51.000Z</Time>
            <Position>
              <LatitudeDegrees>43.36809349246323108673095703125</LatitudeDegrees>
              <LongitudeDegrees>-8.41225312091410160064697265625</LongitudeDegrees>
            </Position>
            <AltitudeMeters>2.400000095367431640625</AltitudeMeters>
            <DistanceMeters>112534.77174695</DistanceMeters>
          </Trackpoint>
          <Trackpoint>
            <Time>2018-04-21T15:48:52.000Z</Time>
            <Position>
              <LatitudeDegrees>43.36808762513101100921630859375</LatitudeDegrees>
              <LongitudeDegrees>-8.41230827383697032928466796875</LongitudeDegrees>
            </Position>
            <AltitudeMeters>2.400000095367431640625</AltitudeMeters>
            <DistanceMeters>112539.28126268</DistanceMeters>
          </Trackpoint>
          <Trackpoint>
            <Time>2018-04-21T15:48:57.000Z</Time>
            <Position>
              <LatitudeDegrees>43.368060886859893798828125</LatitudeDegrees>
              <LongitudeDegrees>-8.4125003032386302947998046875</LongitudeDegrees>
            </Position>
            <AltitudeMeters>2.7999999523162841796875</AltitudeMeters>
            <DistanceMeters>112555.10085618</DistanceMeters>
          </Trackpoint>
          <Trackpoint>
            <Time>2018-04-21T15:49:00.000Z</Time>
            <Position>
              <LatitudeDegrees>43.36798503063619136810302734375</LatitudeDegrees>
              <LongitudeDegrees>-8.4124828688800334930419921875</LongitudeDegrees>
            </Position>
            <AltitudeMeters>3</AltitudeMeters>
            <DistanceMeters>112563.66064825</DistanceMeters>
          </Trackpoint>
          <Trackpoint>
            <Time>2018-04-21T15:49:02.000Z</Time>
            <Position>
              <LatitudeDegrees>43.36793524213135242462158203125</LatitudeDegrees>
              <LongitudeDegrees>-8.41242092661559581756591796875</LongitudeDegrees>
            </Position>
            <AltitudeMeters>3.599999904632568359375</AltitudeMeters>
            <DistanceMeters>112571.13218977</DistanceMeters>
          </Trackpoint>
          <Trackpoint>
            <Time>2018-04-21T15:49:05.000Z</Time>
            <Position>
              <LatitudeDegrees>43.367858044803142547607421875</LatitudeDegrees>
              <LongitudeDegrees>-8.4123819507658481597900390625</LongitudeDegrees>
            </Position>
            <AltitudeMeters>3.2000000476837158203125</AltitudeMeters>
            <DistanceMeters>112580.28440202</DistanceMeters>
          </Trackpoint>
          <Trackpoint>
            <Time>2018-04-21T15:49:06.000Z</Time>
            <Position>
              <LatitudeDegrees>43.36781739257276058197021484375</LatitudeDegrees>
              <LongitudeDegrees>-8.41237843036651611328125</LongitudeDegrees>
            </Position>
            <AltitudeMeters>3.400000095367431640625</AltitudeMeters>
            <DistanceMeters>112584.81788346</DistanceMeters>
          </Trackpoint>
          <Trackpoint>
            <Time>2018-04-21T15:49:09.000Z</Time>
            <Position>
              <LatitudeDegrees>43.3676826953887939453125</LatitudeDegrees>
              <LongitudeDegrees>-8.41238739900290966033935546875</LongitudeDegrees>
            </Position>
            <AltitudeMeters>3.7999999523162841796875</AltitudeMeters>
            <DistanceMeters>112599.82729208</DistanceMeters>
          </Trackpoint>
          <Trackpoint>
            <Time>2018-04-21T15:49:10.000Z</Time>
            <Position>
              <LatitudeDegrees>43.36763734929263591766357421875</LatitudeDegrees>
              <LongitudeDegrees>-8.41239511035382747650146484375</LongitudeDegrees>
            </Position>
            <AltitudeMeters>3.7999999523162841796875</AltitudeMeters>
            <DistanceMeters>112604.91277524</DistanceMeters>
          </Trackpoint>
          <Trackpoint>
            <Time>2018-04-21T15:49:14.000Z</Time>
            <Position>
              <LatitudeDegrees>43.36746837012469768524169921875</LatitudeDegrees>
              <LongitudeDegrees>-8.41243081726133823394775390625</LongitudeDegrees>
            </Position>
            <AltitudeMeters>4.599999904632568359375</AltitudeMeters>
            <DistanceMeters>112623.94138541</DistanceMeters>
          </Trackpoint>
          <Trackpoint>
            <Time>2018-04-21T15:49:17.000Z</Time>
            <Position>
              <LatitudeDegrees>43.3673593215644359588623046875</LatitudeDegrees>
              <LongitudeDegrees>-8.4124416299164295196533203125</LongitudeDegrees>
            </Position>
            <AltitudeMeters>5.400000095367431640625</AltitudeMeters>
            <DistanceMeters>112636.11074257</DistanceMeters>
          </Trackpoint>
          <Trackpoint>
            <Time>2018-04-21T15:49:20.000Z</Time>
            <Position>
              <LatitudeDegrees>43.3672446571290493011474609375</LatitudeDegrees>
              <LongitudeDegrees>-8.412444479763507843017578125</LongitudeDegrees>
            </Position>
            <AltitudeMeters>5.80000019073486328125</AltitudeMeters>
            <DistanceMeters>112648.87548696</DistanceMeters>
          </Trackpoint>
          <Trackpoint>
            <Time>2018-04-21T15:49:23.000Z</Time>
            <Position>
              <LatitudeDegrees>43.36714197881519794464111328125</LatitudeDegrees>
              <LongitudeDegrees>-8.41248261742293834686279296875</LongitudeDegrees>
            </Position>
            <AltitudeMeters>6</AltitudeMeters>
            <DistanceMeters>112660.71308496</DistanceMeters>
          </Trackpoint>
          <Trackpoint>
            <Time>2018-04-21T15:49:27.000Z</Time>
            <Position>
              <LatitudeDegrees>43.367102332413196563720703125</LatitudeDegrees>
              <LongitudeDegrees>-8.412551768124103546142578125</LongitudeDegrees>
            </Position>
            <AltitudeMeters>6.19999980926513671875</AltitudeMeters>
            <DistanceMeters>112667.83818775</DistanceMeters>
          </Trackpoint>
          <Trackpoint>
            <Time>2018-04-21T15:49:30.000Z</Time>
            <Position>
              <LatitudeDegrees>43.36707944981753826141357421875</LatitudeDegrees>
              <LongitudeDegrees>-8.41259309090673923492431640625</LongitudeDegrees>
            </Position>
            <AltitudeMeters>6.599999904632568359375</AltitudeMeters>
            <DistanceMeters>112672.04090467</DistanceMeters>
          </Trackpoint>
          <Trackpoint>
            <Time>2018-04-21T15:49:31.000Z</Time>
            <Position>
              <LatitudeDegrees>43.3670666255056858062744140625</LatitudeDegrees>
              <LongitudeDegrees>-8.4125884808599948883056640625</LongitudeDegrees>
            </Position>
            <AltitudeMeters>6.599999904632568359375</AltitudeMeters>
            <DistanceMeters>112673.5130522</DistanceMeters>
          </Trackpoint>
          <Trackpoint>
            <Time>2018-04-21T15:49:33.000Z</Time>
            <Position>
              <LatitudeDegrees>43.36705799214541912078857421875</LatitudeDegrees>
              <LongitudeDegrees>-8.4125784225761890411376953125</LongitudeDegrees>
            </Position>
            <AltitudeMeters>6.80000019073486328125</AltitudeMeters>
            <DistanceMeters>112674.77372402</DistanceMeters>
          </Trackpoint>
          <Trackpoint>
            <Time>2018-04-21T15:49:35.000Z</Time>
            <Position>
              <LatitudeDegrees>43.367044664919376373291015625</LatitudeDegrees>
              <LongitudeDegrees>-8.41248814947903156280517578125</LongitudeDegrees>
            </Position>
            <AltitudeMeters>6.599999904632568359375</AltitudeMeters>
            <DistanceMeters>112682.22711455</DistanceMeters>
          </Trackpoint>
          <Trackpoint>
            <Time>2018-04-21T15:49:38.000Z</Time>
            <Position>
              <LatitudeDegrees>43.367032594978809356689453125</LatitudeDegrees>
              <LongitudeDegrees>-8.41231917031109333038330078125</LongitudeDegrees>
            </Position>
            <AltitudeMeters>6.599999904632568359375</AltitudeMeters>
            <DistanceMeters>112695.96562458</DistanceMeters>
          </Trackpoint>
          <Trackpoint>
            <Time>2018-04-21T15:49:40.000Z</Time>
            <Position>
              <LatitudeDegrees>43.36702513508498668670654296875</LatitudeDegrees>
              <LongitudeDegrees>-8.41217936016619205474853515625</LongitudeDegrees>
            </Position>
            <AltitudeMeters>6.400000095367431640625</AltitudeMeters>
            <DistanceMeters>112707.30848705</DistanceMeters>
          </Trackpoint>
          <Trackpoint>
            <Time>2018-04-21T15:49:46.000Z</Time>
            <Position>
              <LatitudeDegrees>43.36699982173740863800048828125</LatitudeDegrees>
              <LongitudeDegrees>-8.4117358736693859100341796875</LongitudeDegrees>
            </Position>
            <AltitudeMeters>5.400000095367431640625</AltitudeMeters>
            <DistanceMeters>112743.30292062</DistanceMeters>
          </Trackpoint>
          <Trackpoint>
            <Time>2018-04-21T15:49:50.000Z</Time>
            <Position>
              <LatitudeDegrees>43.36698506958782672882080078125</LatitudeDegrees>
              <LongitudeDegrees>-8.4114763699471950531005859375</LongitudeDegrees>
            </Position>
            <AltitudeMeters>5.400000095367431640625</AltitudeMeters>
            <DistanceMeters>112764.36415076</DistanceMeters>
          </Trackpoint>
          <Trackpoint>
            <Time>2018-04-21T15:49:51.000Z</Time>
            <Position>
              <LatitudeDegrees>43.3669593371450901031494140625</LatitudeDegrees>
              <LongitudeDegrees>-8.41144141741096973419189453125</LongitudeDegrees>
            </Position>
            <AltitudeMeters>5.400000095367431640625</AltitudeMeters>
            <DistanceMeters>112768.39131072</DistanceMeters>
          </Trackpoint>
          <Trackpoint>
            <Time>2018-04-21T15:49:53.000Z</Time>
            <Position>
              <LatitudeDegrees>43.366881050169467926025390625</LatitudeDegrees>
              <LongitudeDegrees>-8.41143873520195484161376953125</LongitudeDegrees>
            </Position>
            <AltitudeMeters>4.599999904632568359375</AltitudeMeters>
            <DistanceMeters>112777.10790771</DistanceMeters>
          </Trackpoint>
          <Trackpoint>
            <Time>2018-04-21T15:49:54.000Z</Time>
            <Position>
              <LatitudeDegrees>43.36683453060686588287353515625</LatitudeDegrees>
              <LongitudeDegrees>-8.41144879348576068878173828125</LongitudeDegrees>
            </Position>
            <AltitudeMeters>4.400000095367431640625</AltitudeMeters>
            <DistanceMeters>112782.34904237</DistanceMeters>
          </Trackpoint>
          <Trackpoint>
            <Time>2018-04-21T15:49:59.000Z</Time>
            <Position>
              <LatitudeDegrees>43.3666116558015346527099609375</LatitudeDegrees>
              <LongitudeDegrees>-8.41152322478592395782470703125</LongitudeDegrees>
            </Position>
            <AltitudeMeters>5.400000095367431640625</AltitudeMeters>
            <DistanceMeters>112807.87623193</DistanceMeters>
          </Trackpoint>
          <Trackpoint>
            <Time>2018-04-21T15:50:00.000Z</Time>
            <Position>
              <LatitudeDegrees>43.3665697462856769561767578125</LatitudeDegrees>
              <LongitudeDegrees>-8.41154149733483791351318359375</LongitudeDegrees>
            </Position>
            <AltitudeMeters>5.599999904632568359375</AltitudeMeters>
            <DistanceMeters>112812.76987706</DistanceMeters>
          </Trackpoint>
          <Trackpoint>
            <Time>2018-04-21T15:50:01.000Z</Time>
            <Position>
              <LatitudeDegrees>43.3665301837027072906494140625</LatitudeDegrees>
              <LongitudeDegrees>-8.41156261973083019256591796875</LongitudeDegrees>
            </Position>
            <AltitudeMeters>5.599999904632568359375</AltitudeMeters>
            <DistanceMeters>112817.49261873</DistanceMeters>
          </Trackpoint>
          <Trackpoint>
            <Time>2018-04-21T15:50:07.000Z</Time>
            <Position>
              <LatitudeDegrees>43.3663125894963741302490234375</LatitudeDegrees>
              <LongitudeDegrees>-8.4116949699819087982177734375</LongitudeDegrees>
            </Position>
            <AltitudeMeters>6.599999904632568359375</AltitudeMeters>
            <DistanceMeters>112843.97337752</DistanceMeters>
          </Trackpoint>
          <Trackpoint>
            <Time>2018-04-21T15:50:08.000Z</Time>
            <Position>
              <LatitudeDegrees>43.366290293633937835693359375</LatitudeDegrees>
              <LongitudeDegrees>-8.41171818785369396209716796875</LongitudeDegrees>
            </Position>
            <AltitudeMeters>6.599999904632568359375</AltitudeMeters>
            <DistanceMeters>112847.08613707</DistanceMeters>
          </Trackpoint>
          <Trackpoint>
            <Time>2018-04-21T15:50:12.000Z</Time>
            <Position>
              <LatitudeDegrees>43.3662123419344425201416015625</LatitudeDegrees>
              <LongitudeDegrees>-8.4117600135505199432373046875</LongitudeDegrees>
            </Position>
            <AltitudeMeters>7.19999980926513671875</AltitudeMeters>
            <DistanceMeters>112856.39875508</DistanceMeters>
          </Trackpoint>
          <Trackpoint>
            <Time>2018-04-21T15:50:17.000Z</Time>
            <Position>
              <LatitudeDegrees>43.3661402575671672821044921875</LatitudeDegrees>
              <LongitudeDegrees>-8.41180770657956600189208984375</LongitudeDegrees>
            </Position>
            <AltitudeMeters>7.599999904632568359375</AltitudeMeters>
            <DistanceMeters>112865.30190121</DistanceMeters>
          </Trackpoint>
          <Trackpoint>
            <Time>2018-04-21T15:50:19.000Z</Time>
            <Position>
              <LatitudeDegrees>43.36614889092743396759033203125</LatitudeDegrees>
              <LongitudeDegrees>-8.41185682453215122222900390625</LongitudeDegrees>
            </Position>
            <AltitudeMeters>7.80000019073486328125</AltitudeMeters>
            <DistanceMeters>112869.39136347</DistanceMeters>
          </Trackpoint>
          <Trackpoint>
            <Time>2018-04-21T15:50:21.000Z</Time>
            <Position>
              <LatitudeDegrees>43.366160877048969268798828125</LatitudeDegrees>
              <LongitudeDegrees>-8.41192907653748989105224609375</LongitudeDegrees>
            </Position>
            <AltitudeMeters>7.80000019073486328125</AltitudeMeters>
            <DistanceMeters>112875.3878428</DistanceMeters>
          </Trackpoint>
          <Trackpoint>
            <Time>2018-04-21T15:50:25.000Z</Time>
            <Position>
              <LatitudeDegrees>43.36616565473377704620361328125</LatitudeDegrees>
              <LongitudeDegrees>-8.41199881397187709808349609375</LongitudeDegrees>
            </Position>
            <AltitudeMeters>7.599999904632568359375</AltitudeMeters>
            <DistanceMeters>112881.05529213</DistanceMeters>
          </Trackpoint>
          <Trackpoint>
            <Time>2018-04-21T15:50:29.000Z</Time>
            <Position>
              <LatitudeDegrees>43.36618057452142238616943359375</LatitudeDegrees>
              <LongitudeDegrees>-8.41212429106235504150390625</LongitudeDegrees>
            </Position>
            <AltitudeMeters>7.599999904632568359375</AltitudeMeters>
            <DistanceMeters>112891.34278434</DistanceMeters>
          </Trackpoint>
          <Trackpoint>
            <Time>2018-04-21T15:50:33.000Z</Time>
            <Position>
              <LatitudeDegrees>43.36621980182826519012451171875</LatitudeDegrees>
              <LongitudeDegrees>-8.41230592690408229827880859375</LongitudeDegrees>
            </Position>
            <AltitudeMeters>8</AltitudeMeters>
            <DistanceMeters>112906.67480802</DistanceMeters>
          </Trackpoint>
          <Trackpoint>
            <Time>2018-04-21T15:50:36.000Z</Time>
            <Position>
              <LatitudeDegrees>43.36620387621223926544189453125</LatitudeDegrees>
              <LongitudeDegrees>-8.4124386124312877655029296875</LongitudeDegrees>
            </Position>
            <AltitudeMeters>8</AltitudeMeters>
            <DistanceMeters>112917.55609298</DistanceMeters>
          </Trackpoint>
          <Trackpoint>
            <Time>2018-04-21T15:50:37.000Z</Time>
            <Position>
              <LatitudeDegrees>43.36617638356983661651611328125</LatitudeDegrees>
              <LongitudeDegrees>-8.41246903873980045318603515625</LongitudeDegrees>
            </Position>
            <AltitudeMeters>8.19999980926513671875</AltitudeMeters>
            <DistanceMeters>112921.48335291</DistanceMeters>
          </Trackpoint>
          <Trackpoint>
            <Time>2018-04-21T15:50:40.000Z</Time>
            <Position>
              <LatitudeDegrees>43.366075716912746429443359375</LatitudeDegrees>
              <LongitudeDegrees>-8.41251765377819538116455078125</LongitudeDegrees>
            </Position>
            <AltitudeMeters>8.19999980926513671875</AltitudeMeters>
            <DistanceMeters>112933.35827075</DistanceMeters>
          </Trackpoint>
          <Trackpoint>
            <Time>2018-04-21T15:50:41.000Z</Time>
            <Position>
              <LatitudeDegrees>43.36603908799588680267333984375</LatitudeDegrees>
              <LongitudeDegrees>-8.4125326573848724365234375</LongitudeDegrees>
            </Position>
            <AltitudeMeters>8.19999980926513671875</AltitudeMeters>
            <DistanceMeters>112937.61118071</DistanceMeters>
          </Trackpoint>
          <Trackpoint>
            <Time>2018-04-21T15:50:45.000Z</Time>
            <Position>
              <LatitudeDegrees>43.36586340330541133880615234375</LatitudeDegrees>
              <LongitudeDegrees>-8.412592001259326934814453125</LongitudeDegrees>
            </Position>
            <AltitudeMeters>8.6000003814697265625</AltitudeMeters>
            <DistanceMeters>112957.74608354</DistanceMeters>
          </Trackpoint>
          <Trackpoint>
            <Time>2018-04-21T15:50:46.000Z</Time>
            <Position>
              <LatitudeDegrees>43.36581294424831867218017578125</LatitudeDegrees>
              <LongitudeDegrees>-8.41261245310306549072265625</LongitudeDegrees>
            </Position>
            <AltitudeMeters>8.80000019073486328125</AltitudeMeters>
            <DistanceMeters>112963.60083974</DistanceMeters>
          </Trackpoint>
          <Trackpoint>
            <Time>2018-04-21T15:50:48.000Z</Time>
            <Position>
              <LatitudeDegrees>43.36570615880191326141357421875</LatitudeDegrees>
              <LongitudeDegrees>-8.41265360824763774871826171875</LongitudeDegrees>
            </Position>
            <AltitudeMeters>9.19999980926513671875</AltitudeMeters>
            <DistanceMeters>112975.94407472</DistanceMeters>
          </Trackpoint>
          <Trackpoint>
            <Time>2018-04-21T15:50:50.000Z</Time>
            <Position>
              <LatitudeDegrees>43.36559551768004894256591796875</LatitudeDegrees>
              <LongitudeDegrees>-8.41268353164196014404296875</LongitudeDegrees>
            </Position>
            <AltitudeMeters>9.6000003814697265625</AltitudeMeters>
            <DistanceMeters>112988.49407844</DistanceMeters>
          </Trackpoint>
          <Trackpoint>
            <Time>2018-04-21T15:50:51.000Z</Time>
            <Position>
              <LatitudeDegrees>43.365538604557514190673828125</LatitudeDegrees>
              <LongitudeDegrees>-8.41268621385097503662109375</LongitudeDegrees>
            </Position>
            <AltitudeMeters>9.80000019073486328125</AltitudeMeters>
            <DistanceMeters>112994.83243864</DistanceMeters>
          </Trackpoint>
          <Trackpoint>
            <Time>2018-04-21T15:50:53.000Z</Time>
            <Position>
              <LatitudeDegrees>43.365439362823963165283203125</LatitudeDegrees>
              <LongitudeDegrees>-8.4126719646155834197998046875</LongitudeDegrees>
            </Position>
            <AltitudeMeters>10</AltitudeMeters>
            <DistanceMeters>113005.93837463</DistanceMeters>
          </Trackpoint>
          <Trackpoint>
            <Time>2018-04-21T15:50:58.000Z</Time>
            <Position>
              <LatitudeDegrees>43.3652883209288120269775390625</LatitudeDegrees>
              <LongitudeDegrees>-8.41253559105098247528076171875</LongitudeDegrees>
            </Position>
            <AltitudeMeters>10.3999996185302734375</AltitudeMeters>
            <DistanceMeters>113026.04769792</DistanceMeters>
          </Trackpoint>
          <Trackpoint>
            <Time>2018-04-21T15:51:01.000Z</Time>
            <Position>
              <LatitudeDegrees>43.36521917022764682769775390625</LatitudeDegrees>
              <LongitudeDegrees>-8.412435762584209442138671875</LongitudeDegrees>
            </Position>
            <AltitudeMeters>11</AltitudeMeters>
            <DistanceMeters>113037.20514539</DistanceMeters>
          </Trackpoint>
          <Trackpoint>
            <Time>2018-04-21T15:51:03.000Z</Time>
            <Position>
              <LatitudeDegrees>43.36518446914851665496826171875</LatitudeDegrees>
              <LongitudeDegrees>-8.41236493550240993499755859375</LongitudeDegrees>
            </Position>
            <AltitudeMeters>11.3999996185302734375</AltitudeMeters>
            <DistanceMeters>113044.11535842</DistanceMeters>
          </Trackpoint>
          <Trackpoint>
            <Time>2018-04-21T15:51:04.000Z</Time>
            <Position>
              <LatitudeDegrees>43.3651817031204700469970703125</LatitudeDegrees>
              <LongitudeDegrees>-8.4122703038156032562255859375</LongitudeDegrees>
            </Position>
            <AltitudeMeters>11.6000003814697265625</AltitudeMeters>
            <DistanceMeters>113051.77901403</DistanceMeters>
          </Trackpoint>
          <Trackpoint>
            <Time>2018-04-21T15:51:06.000Z</Time>
            <Position>
              <LatitudeDegrees>43.3652075193822383880615234375</LatitudeDegrees>
              <LongitudeDegrees>-8.412076346576213836669921875</LongitudeDegrees>
            </Position>
            <AltitudeMeters>12.3999996185302734375</AltitudeMeters>
            <DistanceMeters>113067.73388334</DistanceMeters>
          </Trackpoint>
          <Trackpoint>
            <Time>2018-04-21T15:51:09.000Z</Time>
            <Position>
              <LatitudeDegrees>43.3652397058904170989990234375</LatitudeDegrees>
              <LongitudeDegrees>-8.411769904196262359619140625</LongitudeDegrees>
            </Position>
            <AltitudeMeters>13.3999996185302734375</AltitudeMeters>
            <DistanceMeters>113092.78725804</DistanceMeters>
          </Trackpoint>
          <Trackpoint>
            <Time>2018-04-21T15:51:11.000Z</Time>
            <Position>
              <LatitudeDegrees>43.3652330003678798675537109375</LatitudeDegrees>
              <LongitudeDegrees>-8.41172003187239170074462890625</LongitudeDegrees>
            </Position>
            <AltitudeMeters>14</AltitudeMeters>
            <DistanceMeters>113096.8899477</DistanceMeters>
          </Trackpoint>
          <Trackpoint>
            <Time>2018-04-21T15:51:13.000Z</Time>
            <Position>
              <LatitudeDegrees>43.36521497927606105804443359375</LatitudeDegrees>
              <LongitudeDegrees>-8.41169807128608226776123046875</LongitudeDegrees>
            </Position>
            <AltitudeMeters>14.6000003814697265625</AltitudeMeters>
            <DistanceMeters>113099.57098124</DistanceMeters>
          </Trackpoint>
          <Trackpoint>
            <Time>2018-04-21T15:51:14.000Z</Time>
            <Position>
              <LatitudeDegrees>43.36519955657422542572021484375</LatitudeDegrees>
              <LongitudeDegrees>-8.4116926230490207672119140625</LongitudeDegrees>
            </Position>
            <AltitudeMeters>14.80000019073486328125</AltitudeMeters>
            <DistanceMeters>113101.34368161</DistanceMeters>
          </Trackpoint>
          <Trackpoint>
            <Time>2018-04-21T15:51:16.000Z</Time>
            <Position>
              <LatitudeDegrees>43.365182541310787200927734375</LatitudeDegrees>
              <LongitudeDegrees>-8.4116604365408420562744140625</LongitudeDegrees>
            </Position>
            <AltitudeMeters>15.3999996185302734375</AltitudeMeters>
            <DistanceMeters>113104.56339088</DistanceMeters>
          </Trackpoint>
          <Trackpoint>
            <Time>2018-04-21T15:51:18.000Z</Time>
            <Position>
              <LatitudeDegrees>43.365202657878398895263671875</LatitudeDegrees>
              <LongitudeDegrees>-8.41159832663834095001220703125</LongitudeDegrees>
            </Position>
            <AltitudeMeters>15.6000003814697265625</AltitudeMeters>
            <DistanceMeters>113110.06510118</DistanceMeters>
          </Trackpoint>
        </Track>
      </Lap>
    </Activity>
  </Activities>
</TrainingCenterDatabase>
